<?xml version='1.0' encoding='UTF-8'?><gpx version="1.1" creator="JPX - https://github.com/jenetics/jpx" xmlns="http://www.topografix.com/GPX/1/1"><trk><trkseg><trkpt lat="43.18852614717394" lon="10.538307718436764"><ele>6.0</ele><time>2026-05-01T08:06:32Z</time></trkpt><trkpt lat="43.18847330046362" lon="10.538385020677525"><ele>6.0</ele><time>2026-05-01T08:14:13Z</time></trkpt><trkpt lat="43.188481280856095" lon="10.53849425469279"><ele>6.0</ele><time>2026-05-01T08:14:15Z</time></trkpt><trkpt lat="43.18853127266194" lon="10.538598027786497"><ele>6.0</ele><time>2026-05-01T08:14:17Z</time></trkpt><trkpt lat="43.18856899896879" lon="10.538695462154788"><ele>6.0</ele><time>2026-05-01T08:14:20Z</time></trkpt><trkpt lat="43.18860850504434" lon="10.538803125252377"><ele>6.0</ele><time>2026-05-01T08:14:22Z</time></trkpt><trkpt lat="43.188646636212525" lon="10.53893782687656"><ele>6.199999999999999</ele><time>2026-05-01T08:14:24Z</time></trkpt><trkpt lat="43.18866500641867" lon="10.539067809240539"><ele>6.3999999999999995</ele><time>2026-05-01T08:14:26Z</time></trkpt><trkpt lat="43.188647213753256" lon="10.539197030470842"><ele>6.6</ele><time>2026-05-01T08:14:28Z</time></trkpt><trkpt lat="43.18863824043339" lon="10.53931016571361"><ele>6.8</ele><time>2026-05-01T08:14:30Z</time></trkpt><trkpt lat="43.18867917013552" lon="10.539415510881001"><ele>7.0</ele><time>2026-05-01T08:14:33Z</time></trkpt><trkpt lat="43.188777860920055" lon="10.53943477112386"><ele>7.000000000000001</ele><time>2026-05-01T08:14:36Z</time></trkpt><trkpt lat="43.18885143025754" lon="10.539452500959992"><ele>7.0</ele><time>2026-05-01T08:14:38Z</time></trkpt><trkpt lat="43.18891344335161" lon="10.539517907736414"><ele>7.0</ele><time>2026-05-01T08:14:40Z</time></trkpt><trkpt lat="43.1889397917477" lon="10.539605417337311"><ele>7.0</ele><time>2026-05-01T08:14:42Z</time></trkpt><trkpt lat="43.18897927701305" lon="10.539714787257473"><ele>7.000000000000001</ele><time>2026-05-01T08:14:44Z</time></trkpt><trkpt lat="43.18904319349376" lon="10.539826926402919"><ele>7.0</ele><time>2026-05-01T08:14:46Z</time></trkpt><trkpt lat="43.18903788313189" lon="10.540006325597835"><ele>7.500000000000001</ele><time>2026-05-01T08:14:48Z</time></trkpt><trkpt lat="43.18902043687902" lon="10.5400986706382"><ele>8.0</ele><time>2026-05-01T08:14:49Z</time></trkpt><trkpt lat="43.18898863269814" lon="10.540246747786231"><ele>8.5</ele><time>2026-05-01T08:14:51Z</time></trkpt><trkpt lat="43.18895984555216" lon="10.54035487266949"><ele>9.0</ele><time>2026-05-01T08:14:53Z</time></trkpt><trkpt lat="43.18896552422683" lon="10.540478102105162"><ele>9.5</ele><time>2026-05-01T08:14:55Z</time></trkpt><trkpt lat="43.188939925877314" lon="10.540599569632514"><ele>10.0</ele><time>2026-05-01T08:14:57Z</time></trkpt><trkpt lat="43.18892415276069" lon="10.540702684342449"><ele>10.333333333333334</ele><time>2026-05-01T08:14:59Z</time></trkpt><trkpt lat="43.18890188486077" lon="10.540835147708782"><ele>10.666666666666668</ele><time>2026-05-01T08:15:01Z</time></trkpt><trkpt lat="43.1888841608201" lon="10.540939165702307"><ele>11.0</ele><time>2026-05-01T08:15:04Z</time></trkpt><trkpt lat="43.188805138473796" lon="10.54096492929574"><ele>11.333333333333334</ele><time>2026-05-01T08:15:06Z</time></trkpt><trkpt lat="43.18871662950159" lon="10.54094554415875"><ele>11.666666666666666</ele><time>2026-05-01T08:15:07Z</time></trkpt><trkpt lat="43.1886438657044" lon="10.540923172267936"><ele>12.0</ele><time>2026-05-01T08:15:08Z</time></trkpt><trkpt lat="43.188535163951535" lon="10.540897380452185"><ele>12.0</ele><time>2026-05-01T08:15:10Z</time></trkpt><trkpt lat="43.18846020587632" lon="10.540929876233415"><ele>12.0</ele><time>2026-05-01T08:15:12Z</time></trkpt><trkpt lat="43.18838828758865" lon="10.541015954523385"><ele>12.0</ele><time>2026-05-01T08:15:14Z</time></trkpt><trkpt lat="43.188326768126686" lon="10.541081173120821"><ele>12.0</ele><time>2026-05-01T08:15:17Z</time></trkpt><trkpt lat="43.188299589583195" lon="10.541159461393967"><ele>12.0</ele><time>2026-05-01T08:15:20Z</time></trkpt><trkpt lat="43.18825686907528" lon="10.541272457288505"><ele>12.0</ele><time>2026-05-01T08:15:22Z</time></trkpt><trkpt lat="43.18816157045251" lon="10.541404851681701"><ele>12.333333333333334</ele><time>2026-05-01T08:15:24Z</time></trkpt><trkpt lat="43.188076767674055" lon="10.5414480706093"><ele>12.666666666666668</ele><time>2026-05-01T08:15:25Z</time></trkpt><trkpt lat="43.18800155155981" lon="10.541506764505877"><ele>13.0</ele><time>2026-05-01T08:15:26Z</time></trkpt><trkpt lat="43.187921003901764" lon="10.541563557604757"><ele>13.333333333333334</ele><time>2026-05-01T08:15:27Z</time></trkpt><trkpt lat="43.18784005225635" lon="10.541552252218196"><ele>13.666666666666668</ele><time>2026-05-01T08:15:28Z</time></trkpt><trkpt lat="43.18777191230941" lon="10.541494918207123"><ele>14.0</ele><time>2026-05-01T08:15:29Z</time></trkpt><trkpt lat="43.187720540399496" lon="10.54144184001735"><ele>14.000000000000002</ele><time>2026-05-01T08:15:30Z</time></trkpt><trkpt lat="43.18765991268415" lon="10.541412715478463"><ele>14.0</ele><time>2026-05-01T08:15:31Z</time></trkpt><trkpt lat="43.18759908052191" lon="10.541369301100005"><ele>14.0</ele><time>2026-05-01T08:15:32Z</time></trkpt><trkpt lat="43.18751297972872" lon="10.541358303355766"><ele>14.0</ele><time>2026-05-01T08:15:33Z</time></trkpt><trkpt lat="43.1874379763162" lon="10.541359769596628"><ele>14.000000000000002</ele><time>2026-05-01T08:15:34Z</time></trkpt><trkpt lat="43.18729497218372" lon="10.541364545316945"><ele>14.0</ele><time>2026-05-01T08:15:36Z</time></trkpt><trkpt lat="43.18723451925541" lon="10.541419285283254"><ele>14.166666666666668</ele><time>2026-05-01T08:15:37Z</time></trkpt><trkpt lat="43.187170299294564" lon="10.541435597310615"><ele>14.333333333333334</ele><time>2026-05-01T08:15:38Z</time></trkpt><trkpt lat="43.18710223018517" lon="10.541486155367917"><ele>14.5</ele><time>2026-05-01T08:15:39Z</time></trkpt><trkpt lat="43.18702667788232" lon="10.541594475768466"><ele>14.666666666666668</ele><time>2026-05-01T08:15:40Z</time></trkpt><trkpt lat="43.18698985714839" lon="10.541703391742583"><ele>14.833333333333334</ele><time>2026-05-01T08:15:41Z</time></trkpt><trkpt lat="43.186925415289245" lon="10.541772187642216"><ele>15.0</ele><time>2026-05-01T08:15:42Z</time></trkpt><trkpt lat="43.18685624920457" lon="10.541878077881947"><ele>15.0</ele><time>2026-05-01T08:15:44Z</time></trkpt><trkpt lat="43.186816599140464" lon="10.541951969901685"><ele>15.0</ele><time>2026-05-01T08:15:45Z</time></trkpt><trkpt lat="43.186813490238606" lon="10.542098924194944"><ele>15.0</ele><time>2026-05-01T08:15:47Z</time></trkpt><trkpt lat="43.18683458011937" lon="10.542212062120079"><ele>15.0</ele><time>2026-05-01T08:15:49Z</time></trkpt><trkpt lat="43.18683038608853" lon="10.542339754455863"><ele>15.0</ele><time>2026-05-01T08:15:51Z</time></trkpt><trkpt lat="43.18682673875615" lon="10.542447332625702"><ele>15.0</ele><time>2026-05-01T08:15:53Z</time></trkpt><trkpt lat="43.18683564573815" lon="10.542592018267497"><ele>14.0</ele><time>2026-05-01T08:15:56Z</time></trkpt><trkpt lat="43.186866725296284" lon="10.542704962698629"><ele>13.0</ele><time>2026-05-01T08:15:58Z</time></trkpt><trkpt lat="43.186901912215596" lon="10.542784781398746"><ele>12.0</ele><time>2026-05-01T08:16:00Z</time></trkpt><trkpt lat="43.18692219565009" lon="10.54289779739035"><ele>11.0</ele><time>2026-05-01T08:16:02Z</time></trkpt><trkpt lat="43.18695619709474" lon="10.54302553820237"><ele>10.0</ele><time>2026-05-01T08:16:03.999Z</time></trkpt><trkpt lat="43.186955887228244" lon="10.543190719421336"><ele>9.285714285714285</ele><time>2026-05-01T08:16:05.999Z</time></trkpt><trkpt lat="43.186966757005834" lon="10.543299967658305"><ele>8.571428571428571</ele><time>2026-05-01T08:16:06.999Z</time></trkpt><trkpt lat="43.18698308116004" lon="10.54339514283372"><ele>7.857142857142858</ele><time>2026-05-01T08:16:07.999Z</time></trkpt><trkpt lat="43.187003412590386" lon="10.543490224579891"><ele>7.142857142857142</ele><time>2026-05-01T08:16:08.999Z</time></trkpt><trkpt lat="43.18701419896535" lon="10.543586152713074"><ele>6.428571428571429</ele><time>2026-05-01T08:16:09.999Z</time></trkpt><trkpt lat="43.18704428900985" lon="10.543669036547108"><ele>5.714285714285714</ele><time>2026-05-01T08:16:11Z</time></trkpt><trkpt lat="43.18707532508642" lon="10.543744955663314"><ele>5.0</ele><time>2026-05-01T08:16:12Z</time></trkpt><trkpt lat="43.18711252601437" lon="10.543817503448526"><ele>4.4</ele><time>2026-05-01T08:16:13Z</time></trkpt><trkpt lat="43.18712400260565" lon="10.543994889113431"><ele>3.8</ele><time>2026-05-01T08:16:15Z</time></trkpt><trkpt lat="43.18708324965405" lon="10.544086240396606"><ele>3.2</ele><time>2026-05-01T08:16:16Z</time></trkpt><trkpt lat="43.18701586975077" lon="10.544173930483595"><ele>2.6</ele><time>2026-05-01T08:16:17Z</time></trkpt><trkpt lat="43.1869212264555" lon="10.544240707247212"><ele>2.0</ele><time>2026-05-01T08:16:18Z</time></trkpt><trkpt lat="43.18679588681496" lon="10.54430342876843"><ele>2.0</ele><time>2026-05-01T08:16:19Z</time></trkpt><trkpt lat="43.186656203714264" lon="10.544398054675932"><ele>2.0</ele><time>2026-05-01T08:16:20Z</time></trkpt><trkpt lat="43.18651451602054" lon="10.544496858018382"><ele>2.0</ele><time>2026-05-01T08:16:21Z</time></trkpt><trkpt lat="43.1863682035549" lon="10.544607706454238"><ele>2.333333333333333</ele><time>2026-05-01T08:16:22Z</time></trkpt><trkpt lat="43.18621300972624" lon="10.544711618031602"><ele>2.6666666666666665</ele><time>2026-05-01T08:16:23Z</time></trkpt><trkpt lat="43.18605748550865" lon="10.544833429074467"><ele>3.0</ele><time>2026-05-01T08:16:24Z</time></trkpt><trkpt lat="43.18590072879361" lon="10.54493956586125"><ele>3.0</ele><time>2026-05-01T08:16:25Z</time></trkpt><trkpt lat="43.18573082775667" lon="10.545048667935715"><ele>3.0</ele><time>2026-05-01T08:16:26Z</time></trkpt><trkpt lat="43.185582096542554" lon="10.545151664958187"><ele>3.0</ele><time>2026-05-01T08:16:27Z</time></trkpt><trkpt lat="43.1854419663883" lon="10.545243783359446"><ele>3.25</ele><time>2026-05-01T08:16:28Z</time></trkpt><trkpt lat="43.185318741452" lon="10.545334569134123"><ele>3.5</ele><time>2026-05-01T08:16:29Z</time></trkpt><trkpt lat="43.185207337409196" lon="10.545412898707488"><ele>3.75</ele><time>2026-05-01T08:16:30Z</time></trkpt><trkpt lat="43.18510900258868" lon="10.545485223819894"><ele>4.0</ele><time>2026-05-01T08:16:31Z</time></trkpt><trkpt lat="43.185040722761165" lon="10.545549231107637"><ele>3.2</ele><time>2026-05-01T08:16:32Z</time></trkpt><trkpt lat="43.18498486180238" lon="10.545610237658215"><ele>2.4000000000000004</ele><time>2026-05-01T08:16:33Z</time></trkpt><trkpt lat="43.184991236824914" lon="10.545731308232089"><ele>1.6</ele><time>2026-05-01T08:16:34Z</time></trkpt><trkpt lat="43.18505174363841" lon="10.545817733393262"><ele>0.8</ele><time>2026-05-01T08:16:35Z</time></trkpt><trkpt lat="43.185125449077916" lon="10.545944716992969"><ele>0.0</ele><time>2026-05-01T08:16:36Z</time></trkpt><trkpt lat="43.18519434217175" lon="10.546045159954563"><ele>0.0</ele><time>2026-05-01T08:16:37Z</time></trkpt><trkpt lat="43.18526580831515" lon="10.546149354303036"><ele>0.0</ele><time>2026-05-01T08:16:38Z</time></trkpt><trkpt lat="43.18532788146492" lon="10.546239854152702"><ele>0.0</ele><time>2026-05-01T08:16:39Z</time></trkpt><trkpt lat="43.18539739157539" lon="10.546309524712226"><ele>0.0</ele><time>2026-05-01T08:16:40Z</time></trkpt><trkpt lat="43.18545259062611" lon="10.546384379879914"><ele>0.0</ele><time>2026-05-01T08:16:41Z</time></trkpt><trkpt lat="43.185502992518956" lon="10.546486877213809"><ele>0.0</ele><time>2026-05-01T08:16:42Z</time></trkpt><trkpt lat="43.18557178589189" lon="10.546584859253143"><ele>0.0</ele><time>2026-05-01T08:16:43Z</time></trkpt><trkpt lat="43.18564844144845" lon="10.546673277788019"><ele>0.0</ele><time>2026-05-01T08:16:44Z</time></trkpt><trkpt lat="43.18571013347435" lon="10.54675662223807"><ele>0.0</ele><time>2026-05-01T08:16:45Z</time></trkpt><trkpt lat="43.18577184323413" lon="10.546850146648765"><ele>0.0</ele><time>2026-05-01T08:16:46Z</time></trkpt><trkpt lat="43.18583950255173" lon="10.546946877756637"><ele>0.0</ele><time>2026-05-01T08:16:47Z</time></trkpt><trkpt lat="43.18589681538247" lon="10.547030309991069"><ele>0.0</ele><time>2026-05-01T08:16:48Z</time></trkpt><trkpt lat="43.18594697074062" lon="10.547107334133965"><ele>0.0</ele><time>2026-05-01T08:16:49Z</time></trkpt><trkpt lat="43.185990856290296" lon="10.54717335849081"><ele>0.0</ele><time>2026-05-01T08:16:50Z</time></trkpt><trkpt lat="43.186051528889216" lon="10.547271955981204"><ele>0.0</ele><time>2026-05-01T08:16:52Z</time></trkpt><trkpt lat="43.186085701451226" lon="10.547368448552009"><ele>0.0</ele><time>2026-05-01T08:16:55Z</time></trkpt><trkpt lat="43.18596146415305" lon="10.547473655147522"><ele>0.0</ele><time>2026-05-01T08:16:56Z</time></trkpt><trkpt lat="43.18590140351473" lon="10.547529553413323"><ele>0.0</ele><time>2026-05-01T08:16:57Z</time></trkpt><trkpt lat="43.1858316651473" lon="10.547573814115403"><ele>0.0</ele><time>2026-05-01T08:16:58Z</time></trkpt><trkpt lat="43.18576852498905" lon="10.547622174185182"><ele>0.0</ele><time>2026-05-01T08:16:59Z</time></trkpt><trkpt lat="43.18564716385218" lon="10.547709665487972"><ele>0.0</ele><time>2026-05-01T08:17:01Z</time></trkpt><trkpt lat="43.18557151140937" lon="10.547756641754491"><ele>0.0</ele><time>2026-05-01T08:17:02Z</time></trkpt><trkpt lat="43.18549199515888" lon="10.547812149846877"><ele>0.0</ele><time>2026-05-01T08:17:03Z</time></trkpt><trkpt lat="43.18541938629883" lon="10.547869697546918"><ele>0.0</ele><time>2026-05-01T08:17:04Z</time></trkpt><trkpt lat="43.18535746042628" lon="10.547914860274245"><ele>0.0</ele><time>2026-05-01T08:17:05Z</time></trkpt><trkpt lat="43.1852914302616" lon="10.5479609762585"><ele>0.0</ele><time>2026-05-01T08:17:06Z</time></trkpt><trkpt lat="43.185223937993875" lon="10.548011125247617"><ele>0.0</ele><time>2026-05-01T08:17:07Z</time></trkpt><trkpt lat="43.18515222865839" lon="10.548063726237503"><ele>0.0</ele><time>2026-05-01T08:17:08Z</time></trkpt><trkpt lat="43.185068693252944" lon="10.548119171061852"><ele>0.0</ele><time>2026-05-01T08:17:09Z</time></trkpt><trkpt lat="43.18498980401712" lon="10.54817206453276"><ele>0.0</ele><time>2026-05-01T08:17:10Z</time></trkpt><trkpt lat="43.18491394254993" lon="10.548227910710798"><ele>0.0</ele><time>2026-05-01T08:17:11Z</time></trkpt><trkpt lat="43.184848096867086" lon="10.548282551526825"><ele>0.0</ele><time>2026-05-01T08:17:12Z</time></trkpt><trkpt lat="43.184785718613064" lon="10.548321740626164"><ele>0.0</ele><time>2026-05-01T08:17:13Z</time></trkpt><trkpt lat="43.18472667079185" lon="10.548361158964783"><ele>0.0</ele><time>2026-05-01T08:17:14Z</time></trkpt><trkpt lat="43.184667686469744" lon="10.548405777342234"><ele>0.0</ele><time>2026-05-01T08:17:15Z</time></trkpt><trkpt lat="43.184604680032066" lon="10.548450138255967"><ele>0.0</ele><time>2026-05-01T08:17:16Z</time></trkpt><trkpt lat="43.184536238296786" lon="10.548492469675594"><ele>0.0</ele><time>2026-05-01T08:17:17Z</time></trkpt><trkpt lat="43.184467454171" lon="10.548542349274774"><ele>0.0</ele><time>2026-05-01T08:17:18Z</time></trkpt><trkpt lat="43.184389859775095" lon="10.548604052709855"><ele>0.0</ele><time>2026-05-01T08:17:19Z</time></trkpt><trkpt lat="43.18430600027128" lon="10.548661434779907"><ele>0.0</ele><time>2026-05-01T08:17:20Z</time></trkpt><trkpt lat="43.184217287499465" lon="10.548715393335776"><ele>-0.16666666666666666</ele><time>2026-05-01T08:17:21Z</time></trkpt><trkpt lat="43.1841367258775" lon="10.548777587503421"><ele>-0.3333333333333333</ele><time>2026-05-01T08:17:22Z</time></trkpt><trkpt lat="43.18406378978791" lon="10.548832505740021"><ele>-0.5</ele><time>2026-05-01T08:17:23Z</time></trkpt><trkpt lat="43.183986693578575" lon="10.548883058870995"><ele>-0.6666666666666666</ele><time>2026-05-01T08:17:24Z</time></trkpt><trkpt lat="43.18390683779551" lon="10.548938786320297"><ele>-0.8333333333333333</ele><time>2026-05-01T08:17:25Z</time></trkpt><trkpt lat="43.183835685046915" lon="10.548995247639478"><ele>-1.0</ele><time>2026-05-01T08:17:26Z</time></trkpt><trkpt lat="43.18376134213027" lon="10.549045521474923"><ele>-0.4</ele><time>2026-05-01T08:17:27Z</time></trkpt><trkpt lat="43.18368066846265" lon="10.549099162664483"><ele>0.19999999999999996</ele><time>2026-05-01T08:17:28Z</time></trkpt><trkpt lat="43.18359841291932" lon="10.549160662973836"><ele>0.8000000000000002</ele><time>2026-05-01T08:17:29Z</time></trkpt><trkpt lat="43.18351485560802" lon="10.549226770366312"><ele>1.4000000000000001</ele><time>2026-05-01T08:17:30Z</time></trkpt><trkpt lat="43.18342956487601" lon="10.549285030015573"><ele>2.0</ele><time>2026-05-01T08:17:31Z</time></trkpt><trkpt lat="43.18334387020163" lon="10.549338300342763"><ele>2.0</ele><time>2026-05-01T08:17:32Z</time></trkpt><trkpt lat="43.18325123118688" lon="10.549396079286975"><ele>2.0</ele><time>2026-05-01T08:17:33Z</time></trkpt><trkpt lat="43.18317113089198" lon="10.549461544877303"><ele>2.0</ele><time>2026-05-01T08:17:34Z</time></trkpt><trkpt lat="43.183091011410674" lon="10.549527109454425"><ele>2.0</ele><time>2026-05-01T08:17:35Z</time></trkpt><trkpt lat="43.18300517800807" lon="10.549580235926452"><ele>2.0</ele><time>2026-05-01T08:17:36Z</time></trkpt><trkpt lat="43.18291681761397" lon="10.549644242039024"><ele>2.0</ele><time>2026-05-01T08:17:37Z</time></trkpt><trkpt lat="43.18283137253202" lon="10.549711567456571"><ele>2.0</ele><time>2026-05-01T08:17:38Z</time></trkpt><trkpt lat="43.18273955722224" lon="10.549767091969853"><ele>2.0</ele><time>2026-05-01T08:17:39Z</time></trkpt><trkpt lat="43.18264579743081" lon="10.549827683965407"><ele>2.0</ele><time>2026-05-01T08:17:40Z</time></trkpt><trkpt lat="43.18255541002425" lon="10.549896957096081"><ele>2.0</ele><time>2026-05-01T08:17:41Z</time></trkpt><trkpt lat="43.18246210981295" lon="10.549961877047394"><ele>1.9999999999999998</ele><time>2026-05-01T08:17:42Z</time></trkpt><trkpt lat="43.18237479131441" lon="10.550022569175404"><ele>2.0</ele><time>2026-05-01T08:17:43Z</time></trkpt><trkpt lat="43.1822983400769" lon="10.550077671379272"><ele>2.0</ele><time>2026-05-01T08:17:44Z</time></trkpt><trkpt lat="43.182223657298216" lon="10.550129360174353"><ele>2.0</ele><time>2026-05-01T08:17:45Z</time></trkpt><trkpt lat="43.1821434236474" lon="10.550183286180383"><ele>1.9999999999999998</ele><time>2026-05-01T08:17:46Z</time></trkpt><trkpt lat="43.18206720337131" lon="10.550234906828756"><ele>2.0</ele><time>2026-05-01T08:17:47Z</time></trkpt><trkpt lat="43.18200081075075" lon="10.550288531682895"><ele>2.4000000000000004</ele><time>2026-05-01T08:17:48Z</time></trkpt><trkpt lat="43.18191503804819" lon="10.55034766814728"><ele>2.8000000000000003</ele><time>2026-05-01T08:17:49Z</time></trkpt><trkpt lat="43.181835687874056" lon="10.550402719924481"><ele>3.2</ele><time>2026-05-01T08:17:50Z</time></trkpt><trkpt lat="43.181750450518734" lon="10.550452304741912"><ele>3.6</ele><time>2026-05-01T08:17:51Z</time></trkpt><trkpt lat="43.18165476247089" lon="10.5504832243494"><ele>4.0</ele><time>2026-05-01T08:17:52Z</time></trkpt><trkpt lat="43.18155191305172" lon="10.550487170272833"><ele>4.4</ele><time>2026-05-01T08:17:53Z</time></trkpt><trkpt lat="43.18145991955499" lon="10.55051653184009"><ele>4.800000000000001</ele><time>2026-05-01T08:17:54Z</time></trkpt><trkpt lat="43.18139852445915" lon="10.550559742258992"><ele>5.199999999999999</ele><time>2026-05-01T08:17:55Z</time></trkpt><trkpt lat="43.18125933502465" lon="10.550554064049441"><ele>5.6</ele><time>2026-05-01T08:17:57Z</time></trkpt><trkpt lat="43.18116027634365" lon="10.550567316435659"><ele>6.0</ele><time>2026-05-01T08:17:58Z</time></trkpt><trkpt lat="43.18105440704921" lon="10.550577850788741"><ele>6.0</ele><time>2026-05-01T08:17:59Z</time></trkpt><trkpt lat="43.180942938076036" lon="10.550595625899996"><ele>6.0</ele><time>2026-05-01T08:18:00Z</time></trkpt><trkpt lat="43.18084254667688" lon="10.550625584873123"><ele>6.0</ele><time>2026-05-01T08:18:01Z</time></trkpt><trkpt lat="43.18076151366355" lon="10.550651011671635"><ele>6.0</ele><time>2026-05-01T08:18:02Z</time></trkpt><trkpt lat="43.180683780035565" lon="10.550654947660972"><ele>6.0</ele><time>2026-05-01T08:18:03Z</time></trkpt><trkpt lat="43.180609640098524" lon="10.550638161956352"><ele>6.833333333333333</ele><time>2026-05-01T08:18:04Z</time></trkpt><trkpt lat="43.18052756330762" lon="10.55060695154856"><ele>7.666666666666666</ele><time>2026-05-01T08:18:05Z</time></trkpt><trkpt lat="43.180463693356856" lon="10.550562158234367"><ele>8.5</ele><time>2026-05-01T08:18:05.999Z</time></trkpt><trkpt lat="43.18041030999517" lon="10.550506177096372"><ele>9.333333333333332</ele><time>2026-05-01T08:18:06.999Z</time></trkpt><trkpt lat="43.180349602304645" lon="10.550460114192173"><ele>10.166666666666666</ele><time>2026-05-01T08:18:07.999Z</time></trkpt><trkpt lat="43.18026872040305" lon="10.550324963389858"><ele>11.0</ele><time>2026-05-01T08:18:09.999Z</time></trkpt><trkpt lat="43.1801444043442" lon="10.55043721067306"><ele>11.0</ele><time>2026-05-01T08:18:11.999Z</time></trkpt><trkpt lat="43.18013001335761" lon="10.550596430064527"><ele>11.0</ele><time>2026-05-01T08:18:12.999Z</time></trkpt><trkpt lat="43.180115208214275" lon="10.55074460409429"><ele>11.0</ele><time>2026-05-01T08:18:13.999Z</time></trkpt><trkpt lat="43.18008450070543" lon="10.550935533155114"><ele>11.0</ele><time>2026-05-01T08:18:14.999Z</time></trkpt><trkpt lat="43.18003612897577" lon="10.551119649786623"><ele>10.25</ele><time>2026-05-01T08:18:15.999Z</time></trkpt><trkpt lat="43.17999760263351" lon="10.551324344794173"><ele>9.5</ele><time>2026-05-01T08:18:17Z</time></trkpt><trkpt lat="43.18000136571281" lon="10.551530263267637"><ele>8.75</ele><time>2026-05-01T08:18:18Z</time></trkpt><trkpt lat="43.17998049793301" lon="10.55170950641916"><ele>8.0</ele><time>2026-05-01T08:18:19Z</time></trkpt><trkpt lat="43.17994531337474" lon="10.551887515359327"><ele>7.75</ele><time>2026-05-01T08:18:20Z</time></trkpt><trkpt lat="43.179934208530405" lon="10.552043260308315"><ele>7.5</ele><time>2026-05-01T08:18:21Z</time></trkpt><trkpt lat="43.17988199441308" lon="10.552191704629232"><ele>7.25</ele><time>2026-05-01T08:18:22Z</time></trkpt><trkpt lat="43.179862381221945" lon="10.552345859141898"><ele>7.0</ele><time>2026-05-01T08:18:23Z</time></trkpt><trkpt lat="43.17984427969428" lon="10.552487532889586"><ele>6.3999999999999995</ele><time>2026-05-01T08:18:24Z</time></trkpt><trkpt lat="43.179841507764095" lon="10.552623295035675"><ele>5.799999999999999</ele><time>2026-05-01T08:18:25Z</time></trkpt><trkpt lat="43.17982618024635" lon="10.552745887793822"><ele>5.2</ele><time>2026-05-01T08:18:26Z</time></trkpt><trkpt lat="43.179808612850955" lon="10.552879670169986"><ele>4.6</ele><time>2026-05-01T08:18:27Z</time></trkpt><trkpt lat="43.179788258481274" lon="10.553007627934033"><ele>4.0</ele><time>2026-05-01T08:18:28Z</time></trkpt><trkpt lat="43.17976452954344" lon="10.553133916617709"><ele>4.0</ele><time>2026-05-01T08:18:29Z</time></trkpt><trkpt lat="43.17974972044158" lon="10.553283050100704"><ele>4.0</ele><time>2026-05-01T08:18:30Z</time></trkpt><trkpt lat="43.179728364949526" lon="10.55346006643597"><ele>4.0</ele><time>2026-05-01T08:18:31Z</time></trkpt><trkpt lat="43.17970750233456" lon="10.553640057538074"><ele>4.0</ele><time>2026-05-01T08:18:32Z</time></trkpt><trkpt lat="43.179678310573536" lon="10.553830040313693"><ele>4.0</ele><time>2026-05-01T08:18:33Z</time></trkpt><trkpt lat="43.17965180150679" lon="10.554018011226596"><ele>4.0</ele><time>2026-05-01T08:18:34Z</time></trkpt><trkpt lat="43.17962347436461" lon="10.554207774388978"><ele>4.0</ele><time>2026-05-01T08:18:35Z</time></trkpt><trkpt lat="43.17959889051322" lon="10.554399199301052"><ele>4.0</ele><time>2026-05-01T08:18:36Z</time></trkpt><trkpt lat="43.17957464710777" lon="10.554590826406324"><ele>4.5</ele><time>2026-05-01T08:18:37Z</time></trkpt><trkpt lat="43.17954839339337" lon="10.554782091327645"><ele>5.0</ele><time>2026-05-01T08:18:38Z</time></trkpt><trkpt lat="43.17952246771386" lon="10.554970558453517"><ele>5.5</ele><time>2026-05-01T08:18:39Z</time></trkpt><trkpt lat="43.17949812073214" lon="10.555151007814295"><ele>6.0</ele><time>2026-05-01T08:18:40Z</time></trkpt><trkpt lat="43.17947795125799" lon="10.55532592334939"><ele>5.75</ele><time>2026-05-01T08:18:41Z</time></trkpt><trkpt lat="43.17943873388688" lon="10.555511616568733"><ele>5.5</ele><time>2026-05-01T08:18:42Z</time></trkpt><trkpt lat="43.17940984064877" lon="10.555709320044153"><ele>5.25</ele><time>2026-05-01T08:18:43Z</time></trkpt><trkpt lat="43.17939231370186" lon="10.55590379737215"><ele>5.0</ele><time>2026-05-01T08:18:44Z</time></trkpt><trkpt lat="43.17936518529738" lon="10.556123251246186"><ele>6.0</ele><time>2026-05-01T08:18:45Z</time></trkpt><trkpt lat="43.17933486350156" lon="10.55636191799993"><ele>7.0</ele><time>2026-05-01T08:18:46Z</time></trkpt><trkpt lat="43.17930395311766" lon="10.556587143584766"><ele>8.0</ele><time>2026-05-01T08:18:47Z</time></trkpt><trkpt lat="43.179276672524054" lon="10.556791189818155"><ele>8.0</ele><time>2026-05-01T08:18:48Z</time></trkpt><trkpt lat="43.179250892808774" lon="10.556979742602246"><ele>8.0</ele><time>2026-05-01T08:18:49Z</time></trkpt><trkpt lat="43.179228360310795" lon="10.557166761764078"><ele>8.0</ele><time>2026-05-01T08:18:50Z</time></trkpt><trkpt lat="43.1792063534913" lon="10.557352310238006"><ele>8.0</ele><time>2026-05-01T08:18:51Z</time></trkpt><trkpt lat="43.17918186363451" lon="10.557541475018073"><ele>8.0</ele><time>2026-05-01T08:18:52Z</time></trkpt><trkpt lat="43.17915568613443" lon="10.557731347499507"><ele>8.0</ele><time>2026-05-01T08:18:53Z</time></trkpt><trkpt lat="43.17912612215878" lon="10.557920376367134"><ele>8.0</ele><time>2026-05-01T08:18:54Z</time></trkpt><trkpt lat="43.17910211927326" lon="10.55811022282386"><ele>8.0</ele><time>2026-05-01T08:18:55Z</time></trkpt><trkpt lat="43.17907817216328" lon="10.558313371593675"><ele>8.0</ele><time>2026-05-01T08:18:56Z</time></trkpt><trkpt lat="43.17904787651718" lon="10.558521449791149"><ele>8.0</ele><time>2026-05-01T08:18:57Z</time></trkpt><trkpt lat="43.17902014019062" lon="10.558731975319848"><ele>8.0</ele><time>2026-05-01T08:18:58Z</time></trkpt><trkpt lat="43.17900095584916" lon="10.558917551808022"><ele>8.0</ele><time>2026-05-01T08:18:59Z</time></trkpt><trkpt lat="43.178978112744126" lon="10.55909224724101"><ele>8.600000000000001</ele><time>2026-05-01T08:19:00Z</time></trkpt><trkpt lat="43.17895684939929" lon="10.55925453632808"><ele>9.200000000000001</ele><time>2026-05-01T08:19:01Z</time></trkpt><trkpt lat="43.178938444938304" lon="10.559400169764416"><ele>9.8</ele><time>2026-05-01T08:19:02Z</time></trkpt><trkpt lat="43.17891584720112" lon="10.559538114503821"><ele>10.4</ele><time>2026-05-01T08:19:03Z</time></trkpt><trkpt lat="43.178893031942806" lon="10.559681300611034"><ele>11.0</ele><time>2026-05-01T08:19:04Z</time></trkpt><trkpt lat="43.178870098842886" lon="10.559832439887497"><ele>11.25</ele><time>2026-05-01T08:19:05Z</time></trkpt><trkpt lat="43.17885422886906" lon="10.559990730760545"><ele>11.5</ele><time>2026-05-01T08:19:06Z</time></trkpt><trkpt lat="43.17882692208499" lon="10.56015585699952"><ele>11.75</ele><time>2026-05-01T08:19:07Z</time></trkpt><trkpt lat="43.178796409989715" lon="10.560329594240477"><ele>12.0</ele><time>2026-05-01T08:19:08Z</time></trkpt><trkpt lat="43.17877871188845" lon="10.56049561492456"><ele>12.25</ele><time>2026-05-01T08:19:09Z</time></trkpt><trkpt lat="43.17875892137582" lon="10.560646037753855"><ele>12.5</ele><time>2026-05-01T08:19:10Z</time></trkpt><trkpt lat="43.1787361269811" lon="10.5607980283472"><ele>12.75</ele><time>2026-05-01T08:19:11Z</time></trkpt><trkpt lat="43.1787119060048" lon="10.560950810760996"><ele>13.0</ele><time>2026-05-01T08:19:12Z</time></trkpt><trkpt lat="43.178687263961606" lon="10.561110875242841"><ele>13.0</ele><time>2026-05-01T08:19:13Z</time></trkpt><trkpt lat="43.17866042537801" lon="10.561285972106761"><ele>13.0</ele><time>2026-05-01T08:19:14Z</time></trkpt><trkpt lat="43.17863814682652" lon="10.561450304211577"><ele>13.0</ele><time>2026-05-01T08:19:15Z</time></trkpt><trkpt lat="43.17860821724487" lon="10.561592868365429"><ele>13.0</ele><time>2026-05-01T08:19:16Z</time></trkpt><trkpt lat="43.178571408643414" lon="10.561721910649918"><ele>12.999999999999998</ele><time>2026-05-01T08:19:17Z</time></trkpt><trkpt lat="43.17851176745221" lon="10.561821557898037"><ele>13.0</ele><time>2026-05-01T08:19:18Z</time></trkpt><trkpt lat="43.178450645925544" lon="10.561887912028157"><ele>13.0</ele><time>2026-05-01T08:19:19Z</time></trkpt><trkpt lat="43.17838997822332" lon="10.561966866878391"><ele>13.0</ele><time>2026-05-01T08:19:20Z</time></trkpt><trkpt lat="43.17834228591345" lon="10.562060553584718"><ele>12.999999999999998</ele><time>2026-05-01T08:19:21Z</time></trkpt><trkpt lat="43.17831947892473" lon="10.562195290234285"><ele>13.0</ele><time>2026-05-01T08:19:22Z</time></trkpt><trkpt lat="43.178357577541384" lon="10.562339859414848"><ele>13.0</ele><time>2026-05-01T08:19:23Z</time></trkpt><trkpt lat="43.178392686824274" lon="10.56248089943759"><ele>13.0</ele><time>2026-05-01T08:19:24Z</time></trkpt><trkpt lat="43.17843454452336" lon="10.562645460029566"><ele>13.0</ele><time>2026-05-01T08:19:25Z</time></trkpt><trkpt lat="43.178453251419555" lon="10.562818344369054"><ele>13.0</ele><time>2026-05-01T08:19:26Z</time></trkpt><trkpt lat="43.17844389467533" lon="10.562974727893707"><ele>13.0</ele><time>2026-05-01T08:19:27Z</time></trkpt><trkpt lat="43.178421408589685" lon="10.563108953732346"><ele>13.0</ele><time>2026-05-01T08:19:28Z</time></trkpt><trkpt lat="43.17840176818575" lon="10.563238447231365"><ele>13.0</ele><time>2026-05-01T08:19:29Z</time></trkpt><trkpt lat="43.17837974739135" lon="10.563391581752112"><ele>13.0</ele><time>2026-05-01T08:19:30Z</time></trkpt><trkpt lat="43.17835221034606" lon="10.56354138081475"><ele>13.0</ele><time>2026-05-01T08:19:31Z</time></trkpt><trkpt lat="43.178322559819655" lon="10.563662152206254"><ele>13.333333333333332</ele><time>2026-05-01T08:19:32Z</time></trkpt><trkpt lat="43.17829155758783" lon="10.563767227980037"><ele>13.666666666666666</ele><time>2026-05-01T08:19:33Z</time></trkpt><trkpt lat="43.178260041387965" lon="10.563872134402551"><ele>14.0</ele><time>2026-05-01T08:19:34Z</time></trkpt><trkpt lat="43.178222673398125" lon="10.563985342907676"><ele>14.333333333333332</ele><time>2026-05-01T08:19:35Z</time></trkpt><trkpt lat="43.178187070704986" lon="10.564092324258201"><ele>14.666666666666666</ele><time>2026-05-01T08:19:36Z</time></trkpt><trkpt lat="43.17815235614754" lon="10.564195093782702"><ele>15.0</ele><time>2026-05-01T08:19:37Z</time></trkpt><trkpt lat="43.178109026593596" lon="10.564303770512385"><ele>15.0</ele><time>2026-05-01T08:19:38Z</time></trkpt><trkpt lat="43.178060163696735" lon="10.564417848809702"><ele>15.0</ele><time>2026-05-01T08:19:39Z</time></trkpt><trkpt lat="43.178012581529394" lon="10.564533234858407"><ele>15.0</ele><time>2026-05-01T08:19:40Z</time></trkpt><trkpt lat="43.17797641231865" lon="10.564633453932297"><ele>15.0</ele><time>2026-05-01T08:19:41Z</time></trkpt><trkpt lat="43.17794228886861" lon="10.564728845064153"><ele>15.0</ele><time>2026-05-01T08:19:42Z</time></trkpt><trkpt lat="43.177911038382746" lon="10.564834060366922"><ele>15.0</ele><time>2026-05-01T08:19:43Z</time></trkpt><trkpt lat="43.1778863831592" lon="10.564945970787461"><ele>15.0</ele><time>2026-05-01T08:19:44Z</time></trkpt><trkpt lat="43.1778686368723" lon="10.565056100729635"><ele>15.0</ele><time>2026-05-01T08:19:45Z</time></trkpt><trkpt lat="43.17785679822966" lon="10.565166655450614"><ele>15.0</ele><time>2026-05-01T08:19:46Z</time></trkpt><trkpt lat="43.17785314125203" lon="10.565276833275687"><ele>15.0</ele><time>2026-05-01T08:19:47Z</time></trkpt><trkpt lat="43.177853524539856" lon="10.565393427334074"><ele>15.0</ele><time>2026-05-01T08:19:48Z</time></trkpt><trkpt lat="43.177856918768896" lon="10.565531542454956"><ele>15.0</ele><time>2026-05-01T08:19:49Z</time></trkpt><trkpt lat="43.177841118973426" lon="10.565680150466523"><ele>15.333333333333334</ele><time>2026-05-01T08:19:50Z</time></trkpt><trkpt lat="43.17784153139104" lon="10.565787461688318"><ele>15.666666666666668</ele><time>2026-05-01T08:19:51Z</time></trkpt><trkpt lat="43.177841878196574" lon="10.565877700306446"><ele>16.0</ele><time>2026-05-01T08:19:52Z</time></trkpt><trkpt lat="43.17784169943566" lon="10.56596548473516"><ele>16.333333333333336</ele><time>2026-05-01T08:19:53Z</time></trkpt><trkpt lat="43.17784020820853" lon="10.566059642644412"><ele>16.666666666666668</ele><time>2026-05-01T08:19:54Z</time></trkpt><trkpt lat="43.17783433083804" lon="10.566180363588453"><ele>17.0</ele><time>2026-05-01T08:19:55Z</time></trkpt><trkpt lat="43.17782468433748" lon="10.566326143701549"><ele>17.166666666666668</ele><time>2026-05-01T08:19:56Z</time></trkpt><trkpt lat="43.17781458674739" lon="10.5664782990472"><ele>17.333333333333336</ele><time>2026-05-01T08:19:57Z</time></trkpt><trkpt lat="43.177807886230426" lon="10.566609900884552"><ele>17.5</ele><time>2026-05-01T08:19:58Z</time></trkpt><trkpt lat="43.17780510455719" lon="10.566716815052626"><ele>17.666666666666668</ele><time>2026-05-01T08:19:59Z</time></trkpt><trkpt lat="43.17780734222998" lon="10.566817942504809"><ele>17.833333333333332</ele><time>2026-05-01T08:20:00Z</time></trkpt><trkpt lat="43.1778208019624" lon="10.566908089244391"><ele>18.0</ele><time>2026-05-01T08:20:01Z</time></trkpt><trkpt lat="43.17781009680017" lon="10.567070948629693"><ele>18.0</ele><time>2026-05-01T08:20:03Z</time></trkpt><trkpt lat="43.17781847815035" lon="10.567200464131247"><ele>18.0</ele><time>2026-05-01T08:20:05Z</time></trkpt><trkpt lat="43.17784205306121" lon="10.567298140013758"><ele>18.0</ele><time>2026-05-01T08:20:12Z</time></trkpt><trkpt lat="43.1778586730497" lon="10.567400773058862"><ele>18.0</ele><time>2026-05-01T08:20:30Z</time></trkpt><trkpt lat="43.177998263185096" lon="10.567444974729018"><ele>18.0</ele><time>2026-05-01T08:20:32Z</time></trkpt><trkpt lat="43.17806674362353" lon="10.567438921571117"><ele>18.0</ele><time>2026-05-01T08:20:33Z</time></trkpt><trkpt lat="43.17814070408203" lon="10.567432384018568"><ele>18.0</ele><time>2026-05-01T08:20:34Z</time></trkpt><trkpt lat="43.17821957953112" lon="10.567425411944459"><ele>18.0</ele><time>2026-05-01T08:20:35Z</time></trkpt><trkpt lat="43.178311394878975" lon="10.567412724602574"><ele>18.0</ele><time>2026-05-01T08:20:36Z</time></trkpt><trkpt lat="43.17839967701437" lon="10.56738684043454"><ele>18.0</ele><time>2026-05-01T08:20:37Z</time></trkpt><trkpt lat="43.178471684752225" lon="10.567376969415344"><ele>18.0</ele><time>2026-05-01T08:20:38Z</time></trkpt><trkpt lat="43.17853841061285" lon="10.56736340236893"><ele>18.0</ele><time>2026-05-01T08:20:39Z</time></trkpt><trkpt lat="43.17861049983455" lon="10.567351417229457"><ele>18.0</ele><time>2026-05-01T08:20:40Z</time></trkpt><trkpt lat="43.17868165009706" lon="10.567342979232432"><ele>18.0</ele><time>2026-05-01T08:20:41Z</time></trkpt><trkpt lat="43.17880846741734" lon="10.567329793222607"><ele>18.0</ele><time>2026-05-01T08:20:43Z</time></trkpt><trkpt lat="43.17889248391442" lon="10.567325957746535"><ele>18.0</ele><time>2026-05-01T08:20:44Z</time></trkpt><trkpt lat="43.1789593005409" lon="10.567318722116038"><ele>18.0</ele><time>2026-05-01T08:20:45Z</time></trkpt><trkpt lat="43.17906459640552" lon="10.567364998610827"><ele>18.0</ele><time>2026-05-01T08:20:47Z</time></trkpt><trkpt lat="43.17911498348268" lon="10.567419508120217"><ele>18.0</ele><time>2026-05-01T08:20:48Z</time></trkpt><trkpt lat="43.17916056113087" lon="10.56750209558281"><ele>18.0</ele><time>2026-05-01T08:20:49Z</time></trkpt><trkpt lat="43.17919038278549" lon="10.567586089311444"><ele>18.0</ele><time>2026-05-01T08:20:50Z</time></trkpt><trkpt lat="43.17923371623532" lon="10.567738385763235"><ele>18.0</ele><time>2026-05-01T08:20:52Z</time></trkpt><trkpt lat="43.17920559172569" lon="10.567905496936872"><ele>18.0</ele><time>2026-05-01T08:20:54Z</time></trkpt><trkpt lat="43.17918529790532" lon="10.568001379458291"><ele>18.0</ele><time>2026-05-01T08:20:55Z</time></trkpt><trkpt lat="43.1791938553085" lon="10.56809817192964"><ele>18.0</ele><time>2026-05-01T08:20:56Z</time></trkpt><trkpt lat="43.17910140377459" lon="10.568180024313593"><ele>18.0</ele><time>2026-05-01T08:20:57Z</time></trkpt><trkpt lat="43.17905177291461" lon="10.568260051266941"><ele>18.0</ele><time>2026-05-01T08:20:58Z</time></trkpt><trkpt lat="43.179009041381676" lon="10.568324853586084"><ele>18.0</ele><time>2026-05-01T08:20:59Z</time></trkpt><trkpt lat="43.17896287703873" lon="10.568401291109614"><ele>18.0</ele><time>2026-05-01T08:21:00Z</time></trkpt><trkpt lat="43.17890873271248" lon="10.568489625842673"><ele>18.0</ele><time>2026-05-01T08:21:01Z</time></trkpt><trkpt lat="43.1788555132184" lon="10.568573857956359"><ele>18.0</ele><time>2026-05-01T08:21:02Z</time></trkpt><trkpt lat="43.17880401340068" lon="10.56865743170017"><ele>18.0</ele><time>2026-05-01T08:21:03Z</time></trkpt><trkpt lat="43.178756655785016" lon="10.56875288384718"><ele>18.0</ele><time>2026-05-01T08:21:04Z</time></trkpt><trkpt lat="43.17870566662097" lon="10.568846674067773"><ele>18.0</ele><time>2026-05-01T08:21:05Z</time></trkpt><trkpt lat="43.178653573659524" lon="10.568929652132507"><ele>18.166666666666668</ele><time>2026-05-01T08:21:06Z</time></trkpt><trkpt lat="43.178606147731564" lon="10.569016638818368"><ele>18.333333333333332</ele><time>2026-05-01T08:21:07Z</time></trkpt><trkpt lat="43.17854109104271" lon="10.569097513706152"><ele>18.5</ele><time>2026-05-01T08:21:08Z</time></trkpt><trkpt lat="43.1784840626346" lon="10.569193265907016"><ele>18.666666666666664</ele><time>2026-05-01T08:21:09Z</time></trkpt><trkpt lat="43.17842628135069" lon="10.56929021548027"><ele>18.833333333333332</ele><time>2026-05-01T08:21:10Z</time></trkpt><trkpt lat="43.17837575042316" lon="10.569408503058208"><ele>19.0</ele><time>2026-05-01T08:21:11Z</time></trkpt><trkpt lat="43.178305544991645" lon="10.569518050890835"><ele>18.5</ele><time>2026-05-01T08:21:12Z</time></trkpt><trkpt lat="43.178237959437375" lon="10.569625255351726"><ele>18.0</ele><time>2026-05-01T08:21:13Z</time></trkpt><trkpt lat="43.17815931764651" lon="10.569743404782216"><ele>17.5</ele><time>2026-05-01T08:21:14Z</time></trkpt><trkpt lat="43.178059995283114" lon="10.569867261098205"><ele>17.0</ele><time>2026-05-01T08:21:15Z</time></trkpt><trkpt lat="43.17795041697844" lon="10.569972030493687"><ele>16.75</ele><time>2026-05-01T08:21:16Z</time></trkpt><trkpt lat="43.17784908998595" lon="10.570064625363596"><ele>16.5</ele><time>2026-05-01T08:21:17Z</time></trkpt><trkpt lat="43.177755237722195" lon="10.5701477752563"><ele>16.25</ele><time>2026-05-01T08:21:18Z</time></trkpt><trkpt lat="43.177657916496194" lon="10.570239576175162"><ele>16.0</ele><time>2026-05-01T08:21:19Z</time></trkpt><trkpt lat="43.17755829799068" lon="10.570334848635115"><ele>16.5</ele><time>2026-05-01T08:21:20Z</time></trkpt><trkpt lat="43.17745916665403" lon="10.570425190884015"><ele>17.0</ele><time>2026-05-01T08:21:21Z</time></trkpt><trkpt lat="43.17736275555607" lon="10.570515707809717"><ele>17.5</ele><time>2026-05-01T08:21:22Z</time></trkpt><trkpt lat="43.177268021427196" lon="10.570603433206504"><ele>18.0</ele><time>2026-05-01T08:21:23Z</time></trkpt><trkpt lat="43.177175614388034" lon="10.570693337023606"><ele>18.0</ele><time>2026-05-01T08:21:24Z</time></trkpt><trkpt lat="43.17707998022978" lon="10.570778339082116"><ele>18.0</ele><time>2026-05-01T08:21:25Z</time></trkpt><trkpt lat="43.1769834777699" lon="10.57086414781127"><ele>18.0</ele><time>2026-05-01T08:21:26Z</time></trkpt><trkpt lat="43.17688879291466" lon="10.570958201247766"><ele>18.0</ele><time>2026-05-01T08:21:27Z</time></trkpt><trkpt lat="43.17678816948338" lon="10.571028083074278"><ele>18.0</ele><time>2026-05-01T08:21:28Z</time></trkpt><trkpt lat="43.1767020972082" lon="10.571131462156217"><ele>18.0</ele><time>2026-05-01T08:21:29Z</time></trkpt><trkpt lat="43.17660402658295" lon="10.571212462505834"><ele>18.0</ele><time>2026-05-01T08:21:30Z</time></trkpt><trkpt lat="43.176517233837735" lon="10.571293082837483"><ele>18.0</ele><time>2026-05-01T08:21:31Z</time></trkpt><trkpt lat="43.17642875441584" lon="10.571377532794674"><ele>18.0</ele><time>2026-05-01T08:21:32Z</time></trkpt><trkpt lat="43.17633614667847" lon="10.571461582515788"><ele>18.75</ele><time>2026-05-01T08:21:33Z</time></trkpt><trkpt lat="43.17624350592792" lon="10.571550961774337"><ele>19.5</ele><time>2026-05-01T08:21:34Z</time></trkpt><trkpt lat="43.17614652798157" lon="10.571637986924307"><ele>20.25</ele><time>2026-05-01T08:21:35Z</time></trkpt><trkpt lat="43.176046801852934" lon="10.571724563217535"><ele>21.0</ele><time>2026-05-01T08:21:36Z</time></trkpt><trkpt lat="43.17594976543662" lon="10.571811609045485"><ele>21.0</ele><time>2026-05-01T08:21:37Z</time></trkpt><trkpt lat="43.1758529698753" lon="10.571906226985515"><ele>21.0</ele><time>2026-05-01T08:21:38Z</time></trkpt><trkpt lat="43.175751664052555" lon="10.572001203054803"><ele>21.0</ele><time>2026-05-01T08:21:39Z</time></trkpt><trkpt lat="43.17563873913067" lon="10.572110158615637"><ele>21.0</ele><time>2026-05-01T08:21:40Z</time></trkpt><trkpt lat="43.17552067497547" lon="10.572219409433696"><ele>21.25</ele><time>2026-05-01T08:21:41Z</time></trkpt><trkpt lat="43.175407745024245" lon="10.572316010823599"><ele>21.5</ele><time>2026-05-01T08:21:42Z</time></trkpt><trkpt lat="43.17529060148172" lon="10.572414794465633"><ele>21.75</ele><time>2026-05-01T08:21:43Z</time></trkpt><trkpt lat="43.17516425930242" lon="10.572536930285965"><ele>22.0</ele><time>2026-05-01T08:21:44Z</time></trkpt><trkpt lat="43.17504449984718" lon="10.572654078405623"><ele>22.0</ele><time>2026-05-01T08:21:45Z</time></trkpt><trkpt lat="43.17492351808683" lon="10.572766179077682"><ele>22.0</ele><time>2026-05-01T08:21:46Z</time></trkpt><trkpt lat="43.174806063765416" lon="10.572874257231065"><ele>22.0</ele><time>2026-05-01T08:21:47Z</time></trkpt><trkpt lat="43.174692169417376" lon="10.572979666850665"><ele>22.0</ele><time>2026-05-01T08:21:48Z</time></trkpt><trkpt lat="43.174580266565826" lon="10.573079727006366"><ele>22.25</ele><time>2026-05-01T08:21:49Z</time></trkpt><trkpt lat="43.17447025134456" lon="10.573179646284949"><ele>22.5</ele><time>2026-05-01T08:21:50Z</time></trkpt><trkpt lat="43.17435687502506" lon="10.573282602442534"><ele>22.75</ele><time>2026-05-01T08:21:51Z</time></trkpt><trkpt lat="43.17423597561687" lon="10.57338815808329"><ele>23.0</ele><time>2026-05-01T08:21:52Z</time></trkpt><trkpt lat="43.174116329296666" lon="10.573494724053663"><ele>23.25</ele><time>2026-05-01T08:21:53Z</time></trkpt><trkpt lat="43.17400175257032" lon="10.573607980939116"><ele>23.5</ele><time>2026-05-01T08:21:54Z</time></trkpt><trkpt lat="43.1738868481062" lon="10.573715606087065"><ele>23.75</ele><time>2026-05-01T08:21:55Z</time></trkpt><trkpt lat="43.17377154758868" lon="10.57381740506589"><ele>24.0</ele><time>2026-05-01T08:21:56Z</time></trkpt><trkpt lat="43.1736542341773" lon="10.573917160059183"><ele>24.25</ele><time>2026-05-01T08:21:57Z</time></trkpt><trkpt lat="43.173542293603255" lon="10.574023104485011"><ele>24.5</ele><time>2026-05-01T08:21:58Z</time></trkpt><trkpt lat="43.173428049775225" lon="10.57412501107772"><ele>24.75</ele><time>2026-05-01T08:21:59Z</time></trkpt><trkpt lat="43.17331663449867" lon="10.574222307144733"><ele>25.0</ele><time>2026-05-01T08:22:00Z</time></trkpt><trkpt lat="43.17320538513829" lon="10.574330973275194"><ele>25.0</ele><time>2026-05-01T08:22:01Z</time></trkpt><trkpt lat="43.17309157930521" lon="10.574439792201462"><ele>25.0</ele><time>2026-05-01T08:22:02Z</time></trkpt><trkpt lat="43.17297187657761" lon="10.574540964806877"><ele>25.0</ele><time>2026-05-01T08:22:03Z</time></trkpt><trkpt lat="43.17285955319557" lon="10.574648177257554"><ele>25.0</ele><time>2026-05-01T08:22:04Z</time></trkpt><trkpt lat="43.172743327843705" lon="10.574746988498179"><ele>25.0</ele><time>2026-05-01T08:22:05Z</time></trkpt><trkpt lat="43.172633087260536" lon="10.5748529907548"><ele>25.0</ele><time>2026-05-01T08:22:06Z</time></trkpt><trkpt lat="43.17252117263708" lon="10.574957687589833"><ele>25.0</ele><time>2026-05-01T08:22:07Z</time></trkpt><trkpt lat="43.172421192994626" lon="10.575046538486664"><ele>25.0</ele><time>2026-05-01T08:22:08Z</time></trkpt><trkpt lat="43.17232821887175" lon="10.575127175121258"><ele>25.000000000000004</ele><time>2026-05-01T08:22:09Z</time></trkpt><trkpt lat="43.17224049923802" lon="10.575197558841305"><ele>25.0</ele><time>2026-05-01T08:22:10Z</time></trkpt><trkpt lat="43.17215375927793" lon="10.57524720509017"><ele>25.0</ele><time>2026-05-01T08:22:11Z</time></trkpt><trkpt lat="43.17207192339319" lon="10.575274600901016"><ele>25.0</ele><time>2026-05-01T08:22:12Z</time></trkpt><trkpt lat="43.171992330303645" lon="10.575288053393605"><ele>25.000000000000004</ele><time>2026-05-01T08:22:13Z</time></trkpt><trkpt lat="43.17191137095666" lon="10.575284118940043"><ele>25.0</ele><time>2026-05-01T08:22:14Z</time></trkpt><trkpt lat="43.17183802256191" lon="10.575310455165772"><ele>25.0</ele><time>2026-05-01T08:22:15Z</time></trkpt><trkpt lat="43.17175838428575" lon="10.575352110236183"><ele>25.0</ele><time>2026-05-01T08:22:16Z</time></trkpt><trkpt lat="43.17173112476548" lon="10.57549950300967"><ele>25.0</ele><time>2026-05-01T08:22:17Z</time></trkpt><trkpt lat="43.17169556541215" lon="10.575632309572029"><ele>25.0</ele><time>2026-05-01T08:22:18Z</time></trkpt><trkpt lat="43.171622146548295" lon="10.575778277731072"><ele>25.0</ele><time>2026-05-01T08:22:19Z</time></trkpt><trkpt lat="43.17152453484677" lon="10.575921411374555"><ele>25.333333333333336</ele><time>2026-05-01T08:22:20Z</time></trkpt><trkpt lat="43.171425490889" lon="10.576062936643849"><ele>25.666666666666664</ele><time>2026-05-01T08:22:21Z</time></trkpt><trkpt lat="43.17131936981449" lon="10.576224053551336"><ele>26.0</ele><time>2026-05-01T08:22:22Z</time></trkpt><trkpt lat="43.17120224762489" lon="10.576396578036475"><ele>26.0</ele><time>2026-05-01T08:22:23Z</time></trkpt><trkpt lat="43.17110612137486" lon="10.57655324388979"><ele>26.0</ele><time>2026-05-01T08:22:24Z</time></trkpt><trkpt lat="43.17101333945168" lon="10.576700679347175"><ele>26.0</ele><time>2026-05-01T08:22:25Z</time></trkpt><trkpt lat="43.170922780014315" lon="10.576837455332997"><ele>26.0</ele><time>2026-05-01T08:22:26Z</time></trkpt><trkpt lat="43.170838932723015" lon="10.57696227378278"><ele>26.25</ele><time>2026-05-01T08:22:27Z</time></trkpt><trkpt lat="43.17076050938403" lon="10.577080810623109"><ele>26.5</ele><time>2026-05-01T08:22:28Z</time></trkpt><trkpt lat="43.17068288255677" lon="10.577202397134954"><ele>26.75</ele><time>2026-05-01T08:22:29Z</time></trkpt><trkpt lat="43.170606079899926" lon="10.577328440832556"><ele>27.0</ele><time>2026-05-01T08:22:30Z</time></trkpt><trkpt lat="43.170518199794834" lon="10.577456371248354"><ele>27.25</ele><time>2026-05-01T08:22:31Z</time></trkpt><trkpt lat="43.170430774279374" lon="10.577580964455064"><ele>27.5</ele><time>2026-05-01T08:22:32Z</time></trkpt><trkpt lat="43.17034171065922" lon="10.577720828255128"><ele>27.75</ele><time>2026-05-01T08:22:33Z</time></trkpt><trkpt lat="43.17024920449658" lon="10.577860430571718"><ele>28.0</ele><time>2026-05-01T08:22:34Z</time></trkpt><trkpt lat="43.170156392103365" lon="10.577998142463061"><ele>28.25</ele><time>2026-05-01T08:22:35Z</time></trkpt><trkpt lat="43.17006855832323" lon="10.578140598200152"><ele>28.5</ele><time>2026-05-01T08:22:36Z</time></trkpt><trkpt lat="43.16997995327387" lon="10.578280115444523"><ele>28.75</ele><time>2026-05-01T08:22:37Z</time></trkpt><trkpt lat="43.16988939656004" lon="10.578420779369841"><ele>29.0</ele><time>2026-05-01T08:22:38Z</time></trkpt><trkpt lat="43.16979770273847" lon="10.578563099793532"><ele>29.5</ele><time>2026-05-01T08:22:39Z</time></trkpt><trkpt lat="43.1697044945553" lon="10.578706170040926"><ele>30.0</ele><time>2026-05-01T08:22:40Z</time></trkpt><trkpt lat="43.169619288984514" lon="10.578855933715515"><ele>30.5</ele><time>2026-05-01T08:22:41Z</time></trkpt><trkpt lat="43.16954614387534" lon="10.579016664028023"><ele>31.0</ele><time>2026-05-01T08:22:42Z</time></trkpt><trkpt lat="43.16948650537461" lon="10.579193412365274"><ele>31.0</ele><time>2026-05-01T08:22:43Z</time></trkpt><trkpt lat="43.16943871089612" lon="10.579390397425627"><ele>31.0</ele><time>2026-05-01T08:22:44Z</time></trkpt><trkpt lat="43.16939410990201" lon="10.579604735373477"><ele>31.0</ele><time>2026-05-01T08:22:45Z</time></trkpt><trkpt lat="43.169341908107" lon="10.579815019471928"><ele>30.666666666666668</ele><time>2026-05-01T08:22:46Z</time></trkpt><trkpt lat="43.16930405582219" lon="10.580019583489294"><ele>30.333333333333336</ele><time>2026-05-01T08:22:47Z</time></trkpt><trkpt lat="43.169282553655" lon="10.580227399559496"><ele>30.0</ele><time>2026-05-01T08:22:48Z</time></trkpt><trkpt lat="43.16923022502651" lon="10.58041826990295"><ele>30.0</ele><time>2026-05-01T08:22:49Z</time></trkpt><trkpt lat="43.16919269543633" lon="10.58061904141299"><ele>30.0</ele><time>2026-05-01T08:22:50Z</time></trkpt><trkpt lat="43.169154243517795" lon="10.58082701837977"><ele>30.0</ele><time>2026-05-01T08:22:51Z</time></trkpt><trkpt lat="43.169112494516696" lon="10.581053217846915"><ele>30.666666666666664</ele><time>2026-05-01T08:22:52Z</time></trkpt><trkpt lat="43.169074030406875" lon="10.581290105683731"><ele>31.333333333333332</ele><time>2026-05-01T08:22:53Z</time></trkpt><trkpt lat="43.16904362906924" lon="10.581501277343069"><ele>32.0</ele><time>2026-05-01T08:22:54Z</time></trkpt><trkpt lat="43.16902891240356" lon="10.581711238578134"><ele>32.33333333333333</ele><time>2026-05-01T08:22:55Z</time></trkpt><trkpt lat="43.16900094126158" lon="10.581918940928627"><ele>32.666666666666664</ele><time>2026-05-01T08:22:56Z</time></trkpt><trkpt lat="43.1689594878078" lon="10.582120506457567"><ele>33.0</ele><time>2026-05-01T08:22:57Z</time></trkpt><trkpt lat="43.16893227856801" lon="10.58233128229609"><ele>34.0</ele><time>2026-05-01T08:22:58Z</time></trkpt><trkpt lat="43.16891869392693" lon="10.58254866097682"><ele>35.0</ele><time>2026-05-01T08:22:59Z</time></trkpt><trkpt lat="43.168890642513034" lon="10.582756593412233"><ele>36.0</ele><time>2026-05-01T08:23:00Z</time></trkpt><trkpt lat="43.16884705126627" lon="10.582960196680409"><ele>36.0</ele><time>2026-05-01T08:23:01Z</time></trkpt><trkpt lat="43.168821211152896" lon="10.5831676872431"><ele>36.0</ele><time>2026-05-01T08:23:02Z</time></trkpt><trkpt lat="43.16879635468487" lon="10.583369958431483"><ele>36.0</ele><time>2026-05-01T08:23:03Z</time></trkpt><trkpt lat="43.16877216090595" lon="10.583565256528349"><ele>36.0</ele><time>2026-05-01T08:23:04Z</time></trkpt><trkpt lat="43.16875088754153" lon="10.583763588836725"><ele>36.0</ele><time>2026-05-01T08:23:05Z</time></trkpt><trkpt lat="43.168728275174416" lon="10.583974980023532"><ele>36.0</ele><time>2026-05-01T08:23:06Z</time></trkpt><trkpt lat="43.16870483197028" lon="10.584192776281432"><ele>36.0</ele><time>2026-05-01T08:23:07Z</time></trkpt><trkpt lat="43.168683306483416" lon="10.58439192246475"><ele>35.4</ele><time>2026-05-01T08:23:08Z</time></trkpt><trkpt lat="43.168662382844666" lon="10.584577947144604"><ele>34.8</ele><time>2026-05-01T08:23:09Z</time></trkpt><trkpt lat="43.16864434924471" lon="10.584740112444722"><ele>34.199999999999996</ele><time>2026-05-01T08:23:10Z</time></trkpt><trkpt lat="43.168629310276096" lon="10.584875349356125"><ele>33.6</ele><time>2026-05-01T08:23:11Z</time></trkpt><trkpt lat="43.16866295658461" lon="10.584975371654766"><ele>33.0</ele><time>2026-05-01T08:23:12Z</time></trkpt><trkpt lat="43.16872382801289" lon="10.585090135116353"><ele>33.0</ele><time>2026-05-01T08:23:14Z</time></trkpt><trkpt lat="43.168601454905655" lon="10.585125831759347"><ele>33.0</ele><time>2026-05-01T08:23:16Z</time></trkpt><trkpt lat="43.168750421866136" lon="10.585159704951883"><ele>33.0</ele><time>2026-05-01T08:23:30Z</time></trkpt><trkpt lat="43.168601934217335" lon="10.58512152150909"><ele>33.0</ele><time>2026-05-01T08:23:39Z</time></trkpt><trkpt lat="43.16876596246621" lon="10.585157145896023"><ele>33.0</ele><time>2026-05-01T08:23:47Z</time></trkpt><trkpt lat="43.168698235158" lon="10.585242999889775"><ele>33.0</ele><time>2026-05-01T08:37:57Z</time></trkpt><trkpt lat="43.168607967875566" lon="10.585285697087954"><ele>33.0</ele><time>2026-05-01T08:38:04Z</time></trkpt><trkpt lat="43.16858004840615" lon="10.585460862208357"><ele>33.0</ele><time>2026-05-01T08:38:06Z</time></trkpt><trkpt lat="43.16857087015054" lon="10.585561248410913"><ele>33.0</ele><time>2026-05-01T08:38:07Z</time></trkpt><trkpt lat="43.168554799289005" lon="10.585684644397697"><ele>33.6</ele><time>2026-05-01T08:38:08Z</time></trkpt><trkpt lat="43.168539506889054" lon="10.585824630432585"><ele>34.199999999999996</ele><time>2026-05-01T08:38:09Z</time></trkpt><trkpt lat="43.16850469998712" lon="10.585987159275373"><ele>34.8</ele><time>2026-05-01T08:38:10Z</time></trkpt><trkpt lat="43.16850274121933" lon="10.586154151724882"><ele>35.4</ele><time>2026-05-01T08:38:11Z</time></trkpt><trkpt lat="43.16848751042956" lon="10.586286808947369"><ele>36.0</ele><time>2026-05-01T08:38:12Z</time></trkpt><trkpt lat="43.16847268145141" lon="10.586408025835256"><ele>36.2</ele><time>2026-05-01T08:38:13Z</time></trkpt><trkpt lat="43.16845975018438" lon="10.586530790090528"><ele>36.400000000000006</ele><time>2026-05-01T08:38:14Z</time></trkpt><trkpt lat="43.16844293811787" lon="10.586661783272769"><ele>36.6</ele><time>2026-05-01T08:38:15Z</time></trkpt><trkpt lat="43.168427811272174" lon="10.58680022317229"><ele>36.800000000000004</ele><time>2026-05-01T08:38:16Z</time></trkpt><trkpt lat="43.16840898980505" lon="10.586947794864491"><ele>37.0</ele><time>2026-05-01T08:38:17Z</time></trkpt><trkpt lat="43.168392627833555" lon="10.587103008492257"><ele>37.25</ele><time>2026-05-01T08:38:18Z</time></trkpt><trkpt lat="43.16837461641826" lon="10.587282845933"><ele>37.5</ele><time>2026-05-01T08:38:19Z</time></trkpt><trkpt lat="43.16833828366872" lon="10.58747263531075"><ele>37.75</ele><time>2026-05-01T08:38:20Z</time></trkpt><trkpt lat="43.16833338090287" lon="10.587655466763119"><ele>38.0</ele><time>2026-05-01T08:38:21Z</time></trkpt><trkpt lat="43.168315151621435" lon="10.5878191066821"><ele>38.25</ele><time>2026-05-01T08:38:22Z</time></trkpt><trkpt lat="43.16829507228572" lon="10.587983028045077"><ele>38.5</ele><time>2026-05-01T08:38:23Z</time></trkpt><trkpt lat="43.16827543230287" lon="10.58814920072515"><ele>38.75</ele><time>2026-05-01T08:38:24Z</time></trkpt><trkpt lat="43.168255094745355" lon="10.588318292247225"><ele>39.0</ele><time>2026-05-01T08:38:25Z</time></trkpt><trkpt lat="43.16822685649431" lon="10.588472920746318"><ele>38.75</ele><time>2026-05-01T08:38:26Z</time></trkpt><trkpt lat="43.16818708996464" lon="10.588631619070247"><ele>38.5</ele><time>2026-05-01T08:38:27Z</time></trkpt><trkpt lat="43.16813339657915" lon="10.588775267247575"><ele>38.25</ele><time>2026-05-01T08:38:28Z</time></trkpt><trkpt lat="43.168056229182014" lon="10.588890911567987"><ele>38.0</ele><time>2026-05-01T08:38:29Z</time></trkpt><trkpt lat="43.16798426033828" lon="10.589021630126062"><ele>38.0</ele><time>2026-05-01T08:38:30Z</time></trkpt><trkpt lat="43.16791036920254" lon="10.58915373834306"><ele>38.0</ele><time>2026-05-01T08:38:31Z</time></trkpt><trkpt lat="43.1678484557216" lon="10.58929573478935"><ele>38.0</ele><time>2026-05-01T08:38:32Z</time></trkpt><trkpt lat="43.16776957654072" lon="10.589424793492391"><ele>38.0</ele><time>2026-05-01T08:38:33Z</time></trkpt><trkpt lat="43.167709689843505" lon="10.58957384632045"><ele>38.0</ele><time>2026-05-01T08:38:34Z</time></trkpt><trkpt lat="43.167660146114166" lon="10.589738518544006"><ele>38.0</ele><time>2026-05-01T08:38:35Z</time></trkpt><trkpt lat="43.16761199860737" lon="10.58990145883181"><ele>38.0</ele><time>2026-05-01T08:38:36Z</time></trkpt><trkpt lat="43.167560859762006" lon="10.590068209952584"><ele>38.0</ele><time>2026-05-01T08:38:37Z</time></trkpt><trkpt lat="43.16751013640458" lon="10.590235138783997"><ele>38.0</ele><time>2026-05-01T08:38:38Z</time></trkpt><trkpt lat="43.16746031264626" lon="10.590404306829777"><ele>38.0</ele><time>2026-05-01T08:38:39Z</time></trkpt><trkpt lat="43.16740971621373" lon="10.590576136265586"><ele>38.0</ele><time>2026-05-01T08:38:40Z</time></trkpt><trkpt lat="43.16735765141412" lon="10.59074963114905"><ele>38.0</ele><time>2026-05-01T08:38:41Z</time></trkpt><trkpt lat="43.16730517850755" lon="10.59092485646639"><ele>38.5</ele><time>2026-05-01T08:38:42Z</time></trkpt><trkpt lat="43.16725112701418" lon="10.59110048011952"><ele>39.0</ele><time>2026-05-01T08:38:43Z</time></trkpt><trkpt lat="43.16719689884644" lon="10.59127916382795"><ele>39.5</ele><time>2026-05-01T08:38:44Z</time></trkpt><trkpt lat="43.16714618594111" lon="10.59145666938362"><ele>40.0</ele><time>2026-05-01T08:38:45Z</time></trkpt><trkpt lat="43.1670954796873" lon="10.591632193931153"><ele>40.25</ele><time>2026-05-01T08:38:46Z</time></trkpt><trkpt lat="43.16704757341412" lon="10.591791266118213"><ele>40.5</ele><time>2026-05-01T08:38:47Z</time></trkpt><trkpt lat="43.16699793048429" lon="10.591942066618314"><ele>40.75</ele><time>2026-05-01T08:38:48Z</time></trkpt><trkpt lat="43.16694613764153" lon="10.592099698768287"><ele>41.0</ele><time>2026-05-01T08:38:49Z</time></trkpt><trkpt lat="43.166899738128286" lon="10.592265245362567"><ele>41.0</ele><time>2026-05-01T08:38:50Z</time></trkpt><trkpt lat="43.166857781549666" lon="10.592428064807848"><ele>41.0</ele><time>2026-05-01T08:38:51Z</time></trkpt><trkpt lat="43.16682368155481" lon="10.592603266297823"><ele>41.0</ele><time>2026-05-01T08:38:52Z</time></trkpt><trkpt lat="43.16679960400442" lon="10.592786573396356"><ele>41.0</ele><time>2026-05-01T08:38:53Z</time></trkpt><trkpt lat="43.16678538334359" lon="10.592971527551548"><ele>41.0</ele><time>2026-05-01T08:38:54Z</time></trkpt><trkpt lat="43.16675666673251" lon="10.593139347925746"><ele>41.0</ele><time>2026-05-01T08:38:55Z</time></trkpt><trkpt lat="43.16673926380217" lon="10.593306898754545"><ele>41.0</ele><time>2026-05-01T08:38:56Z</time></trkpt><trkpt lat="43.16673754842433" lon="10.593479595479755"><ele>41.0</ele><time>2026-05-01T08:38:57Z</time></trkpt><trkpt lat="43.166703768518595" lon="10.593648638031501"><ele>40.75</ele><time>2026-05-01T08:38:58Z</time></trkpt><trkpt lat="43.166685893055714" lon="10.593830437153542"><ele>40.5</ele><time>2026-05-01T08:38:59Z</time></trkpt><trkpt lat="43.16668752791945" lon="10.594023714653268"><ele>40.25</ele><time>2026-05-01T08:39:00Z</time></trkpt><trkpt lat="43.16668066847723" lon="10.594214524044533"><ele>40.0</ele><time>2026-05-01T08:39:01Z</time></trkpt><trkpt lat="43.166691739191805" lon="10.594406739134005"><ele>40.25</ele><time>2026-05-01T08:39:02Z</time></trkpt><trkpt lat="43.16670967935797" lon="10.594596051097664"><ele>40.5</ele><time>2026-05-01T08:39:03Z</time></trkpt><trkpt lat="43.166723835818196" lon="10.594782029152562"><ele>40.75</ele><time>2026-05-01T08:39:04Z</time></trkpt><trkpt lat="43.1667400397989" lon="10.594970419509925"><ele>41.0</ele><time>2026-05-01T08:39:05Z</time></trkpt><trkpt lat="43.16675586582013" lon="10.59515770327015"><ele>41.5</ele><time>2026-05-01T08:39:06Z</time></trkpt><trkpt lat="43.166758970479734" lon="10.595342456916022"><ele>42.0</ele><time>2026-05-01T08:39:07Z</time></trkpt><trkpt lat="43.166723686211284" lon="10.595523379172807"><ele>42.5</ele><time>2026-05-01T08:39:08Z</time></trkpt><trkpt lat="43.16670462977963" lon="10.595704752439394"><ele>43.0</ele><time>2026-05-01T08:39:09Z</time></trkpt><trkpt lat="43.166648747524484" lon="10.595873221744123"><ele>43.0</ele><time>2026-05-01T08:39:10Z</time></trkpt><trkpt lat="43.166578119554046" lon="10.596035538949346"><ele>43.0</ele><time>2026-05-01T08:39:11Z</time></trkpt><trkpt lat="43.16647665565649" lon="10.59617393056454"><ele>43.0</ele><time>2026-05-01T08:39:12Z</time></trkpt><trkpt lat="43.16638063968095" lon="10.59634369130499"><ele>43.0</ele><time>2026-05-01T08:39:13Z</time></trkpt><trkpt lat="43.16627714988541" lon="10.596496055616074"><ele>43.25</ele><time>2026-05-01T08:39:14Z</time></trkpt><trkpt lat="43.16618042162933" lon="10.596637112777751"><ele>43.5</ele><time>2026-05-01T08:39:15Z</time></trkpt><trkpt lat="43.166087455545714" lon="10.596774402332539"><ele>43.75</ele><time>2026-05-01T08:39:16Z</time></trkpt><trkpt lat="43.16599551906576" lon="10.596917006930978"><ele>44.0</ele><time>2026-05-01T08:39:17Z</time></trkpt><trkpt lat="43.165903290777344" lon="10.597055766003688"><ele>44.0</ele><time>2026-05-01T08:39:18Z</time></trkpt><trkpt lat="43.16581626647646" lon="10.59719021236082"><ele>44.0</ele><time>2026-05-01T08:39:19Z</time></trkpt><trkpt lat="43.165731266269574" lon="10.597317192330475"><ele>44.0</ele><time>2026-05-01T08:39:20Z</time></trkpt><trkpt lat="43.16564937104849" lon="10.5974439130797"><ele>44.0</ele><time>2026-05-01T08:39:21Z</time></trkpt><trkpt lat="43.16556626122297" lon="10.597570727968144"><ele>44.5</ele><time>2026-05-01T08:39:22Z</time></trkpt><trkpt lat="43.16548199719944" lon="10.597702899589578"><ele>45.0</ele><time>2026-05-01T08:39:23Z</time></trkpt><trkpt lat="43.16539418144999" lon="10.597834944619452"><ele>45.5</ele><time>2026-05-01T08:39:24Z</time></trkpt><trkpt lat="43.16530821684272" lon="10.597962380222173"><ele>46.0</ele><time>2026-05-01T08:39:25Z</time></trkpt><trkpt lat="43.16522163245493" lon="10.598096042877915"><ele>46.0</ele><time>2026-05-01T08:39:26Z</time></trkpt><trkpt lat="43.165139231893704" lon="10.598219848212002"><ele>46.0</ele><time>2026-05-01T08:39:27Z</time></trkpt><trkpt lat="43.16506026269234" lon="10.598339635521786"><ele>46.0</ele><time>2026-05-01T08:39:28Z</time></trkpt><trkpt lat="43.16498307548967" lon="10.598444961911076"><ele>46.0</ele><time>2026-05-01T08:39:29Z</time></trkpt><trkpt lat="43.16490155218551" lon="10.598546957698268"><ele>46.5</ele><time>2026-05-01T08:39:30Z</time></trkpt><trkpt lat="43.164828906405155" lon="10.598641966787927"><ele>47.0</ele><time>2026-05-01T08:39:31Z</time></trkpt><trkpt lat="43.164764935407376" lon="10.598720585886088"><ele>47.5</ele><time>2026-05-01T08:39:32Z</time></trkpt><trkpt lat="43.1647070074555" lon="10.598789240952133"><ele>48.0</ele><time>2026-05-01T08:39:33Z</time></trkpt><trkpt lat="43.164651959881894" lon="10.598855533268285"><ele>48.49999999999999</ele><time>2026-05-01T08:39:34Z</time></trkpt><trkpt lat="43.16459609387807" lon="10.598929052251759"><ele>49.0</ele><time>2026-05-01T08:39:35Z</time></trkpt><trkpt lat="43.16454357073058" lon="10.599000817389028"><ele>49.0</ele><time>2026-05-01T08:39:36Z</time></trkpt><trkpt lat="43.16449554340692" lon="10.599058293439954"><ele>49.0</ele><time>2026-05-01T08:39:37Z</time></trkpt><trkpt lat="43.16442466011573" lon="10.59911678068329"><ele>49.0</ele><time>2026-05-01T08:39:39Z</time></trkpt><trkpt lat="43.16436166441499" lon="10.599195840595117"><ele>49.0</ele><time>2026-05-01T08:39:42Z</time></trkpt><trkpt lat="43.16443273711937" lon="10.599388215979276"><ele>49.0</ele><time>2026-05-01T08:39:44Z</time></trkpt><trkpt lat="43.16447214308778" lon="10.599460418308112"><ele>49.33333333333333</ele><time>2026-05-01T08:39:45Z</time></trkpt><trkpt lat="43.164519538871936" lon="10.599530406910276"><ele>49.666666666666664</ele><time>2026-05-01T08:39:46Z</time></trkpt><trkpt lat="43.16456171051913" lon="10.59960151097523"><ele>50.0</ele><time>2026-05-01T08:39:47Z</time></trkpt><trkpt lat="43.16460903946515" lon="10.59975211552929"><ele>50.33333333333333</ele><time>2026-05-01T08:39:49Z</time></trkpt><trkpt lat="43.164629721613295" lon="10.599836721047183"><ele>50.666666666666664</ele><time>2026-05-01T08:39:50Z</time></trkpt><trkpt lat="43.16465872918098" lon="10.599933953509291"><ele>51.0</ele><time>2026-05-01T08:39:51Z</time></trkpt><trkpt lat="43.164692651189824" lon="10.600054921042952"><ele>51.0</ele><time>2026-05-01T08:39:52Z</time></trkpt><trkpt lat="43.16471166058633" lon="10.600199366489711"><ele>51.0</ele><time>2026-05-01T08:39:53Z</time></trkpt><trkpt lat="43.16474489245521" lon="10.600323148835795"><ele>51.0</ele><time>2026-05-01T08:39:54Z</time></trkpt><trkpt lat="43.16477838516294" lon="10.600447602598958"><ele>51.0</ele><time>2026-05-01T08:39:55Z</time></trkpt><trkpt lat="43.16481487728763" lon="10.600583201736011"><ele>51.0</ele><time>2026-05-01T08:39:56Z</time></trkpt><trkpt lat="43.16485097129245" lon="10.60071732150189"><ele>51.199999999999996</ele><time>2026-05-01T08:39:57Z</time></trkpt><trkpt lat="43.16488492021056" lon="10.600843470489073"><ele>51.4</ele><time>2026-05-01T08:39:58Z</time></trkpt><trkpt lat="43.16491727984359" lon="10.60096350203631"><ele>51.6</ele><time>2026-05-01T08:39:59Z</time></trkpt><trkpt lat="43.16496597497047" lon="10.601078841453548"><ele>51.8</ele><time>2026-05-01T08:40:00Z</time></trkpt><trkpt lat="43.16499895203573" lon="10.601203453999952"><ele>52.0</ele><time>2026-05-01T08:40:01Z</time></trkpt><trkpt lat="43.16503201696729" lon="10.601335404898613"><ele>52.0</ele><time>2026-05-01T08:40:02Z</time></trkpt><trkpt lat="43.16505610145955" lon="10.601478306808476"><ele>52.0</ele><time>2026-05-01T08:40:03Z</time></trkpt><trkpt lat="43.16509312555249" lon="10.601615606676736"><ele>52.0</ele><time>2026-05-01T08:40:04Z</time></trkpt><trkpt lat="43.16514230695023" lon="10.601743678491367"><ele>52.0</ele><time>2026-05-01T08:40:05Z</time></trkpt><trkpt lat="43.165178742708385" lon="10.601893539782118"><ele>52.0</ele><time>2026-05-01T08:40:06Z</time></trkpt><trkpt lat="43.165224385965566" lon="10.602056801251225"><ele>53.0</ele><time>2026-05-01T08:40:07Z</time></trkpt><trkpt lat="43.16527101013285" lon="10.602223649803294"><ele>54.0</ele><time>2026-05-01T08:40:08Z</time></trkpt><trkpt lat="43.165312331019145" lon="10.602379174189021"><ele>55.0</ele><time>2026-05-01T08:40:09Z</time></trkpt><trkpt lat="43.16535460971845" lon="10.602535470108435"><ele>56.0</ele><time>2026-05-01T08:40:10Z</time></trkpt><trkpt lat="43.165404076109354" lon="10.60269781223416"><ele>56.5</ele><time>2026-05-01T08:40:11Z</time></trkpt><trkpt lat="43.165475067596105" lon="10.602861499463746"><ele>57.0</ele><time>2026-05-01T08:40:12Z</time></trkpt><trkpt lat="43.16556564152301" lon="10.60300687048321"><ele>57.5</ele><time>2026-05-01T08:40:13Z</time></trkpt><trkpt lat="43.16566928291389" lon="10.603145297772262"><ele>58.0</ele><time>2026-05-01T08:40:14Z</time></trkpt><trkpt lat="43.16578846981448" lon="10.60327224508836"><ele>57.0</ele><time>2026-05-01T08:40:15Z</time></trkpt><trkpt lat="43.16590591769005" lon="10.603398191595003"><ele>56.0</ele><time>2026-05-01T08:40:16Z</time></trkpt><trkpt lat="43.166014880807374" lon="10.603509529302393"><ele>55.0</ele><time>2026-05-01T08:40:17Z</time></trkpt><trkpt lat="43.16612005619372" lon="10.603620604309707"><ele>54.0</ele><time>2026-05-01T08:40:18Z</time></trkpt><trkpt lat="43.16622523383146" lon="10.603730800982907"><ele>54.0</ele><time>2026-05-01T08:40:19Z</time></trkpt><trkpt lat="43.166329882495674" lon="10.60384756145971"><ele>54.0</ele><time>2026-05-01T08:40:20Z</time></trkpt><trkpt lat="43.166429426309435" lon="10.603958473707854"><ele>54.0</ele><time>2026-05-01T08:40:21Z</time></trkpt><trkpt lat="43.16653457132112" lon="10.604073461258473"><ele>54.0</ele><time>2026-05-01T08:40:22Z</time></trkpt><trkpt lat="43.166632146196726" lon="10.604197441203238"><ele>53.75</ele><time>2026-05-01T08:40:23Z</time></trkpt><trkpt lat="43.166741129971484" lon="10.604298526251267"><ele>53.5</ele><time>2026-05-01T08:40:24Z</time></trkpt><trkpt lat="43.16684541919818" lon="10.604413595038206"><ele>53.25</ele><time>2026-05-01T08:40:25Z</time></trkpt><trkpt lat="43.166940933287925" lon="10.604520869865771"><ele>53.0</ele><time>2026-05-01T08:40:26Z</time></trkpt><trkpt lat="43.16703322190795" lon="10.604620015079362"><ele>53.0</ele><time>2026-05-01T08:40:27Z</time></trkpt><trkpt lat="43.16711515107083" lon="10.604716131532435"><ele>53.0</ele><time>2026-05-01T08:40:28Z</time></trkpt><trkpt lat="43.16719248438033" lon="10.604814757306762"><ele>53.0</ele><time>2026-05-01T08:40:29Z</time></trkpt><trkpt lat="43.167273689971466" lon="10.604917140744284"><ele>53.0</ele><time>2026-05-01T08:40:30Z</time></trkpt><trkpt lat="43.16735500303199" lon="10.605023460226949"><ele>53.0</ele><time>2026-05-01T08:40:31Z</time></trkpt><trkpt lat="43.167437697344646" lon="10.605133338137241"><ele>52.75</ele><time>2026-05-01T08:40:32Z</time></trkpt><trkpt lat="43.16752112355053" lon="10.605244026950716"><ele>52.5</ele><time>2026-05-01T08:40:33Z</time></trkpt><trkpt lat="43.16760697116429" lon="10.60535557560534"><ele>52.25</ele><time>2026-05-01T08:40:34Z</time></trkpt><trkpt lat="43.16769439081488" lon="10.605469132755077"><ele>52.0</ele><time>2026-05-01T08:40:35Z</time></trkpt><trkpt lat="43.16778429399453" lon="10.605586245415449"><ele>52.0</ele><time>2026-05-01T08:40:36Z</time></trkpt><trkpt lat="43.16787062616747" lon="10.605698704240929"><ele>52.0</ele><time>2026-05-01T08:40:37Z</time></trkpt><trkpt lat="43.16795291117611" lon="10.605810180535293"><ele>52.0</ele><time>2026-05-01T08:40:38Z</time></trkpt><trkpt lat="43.16804235276191" lon="10.605926522685804"><ele>52.0</ele><time>2026-05-01T08:40:39Z</time></trkpt><trkpt lat="43.16813796438496" lon="10.60604763313165"><ele>52.5</ele><time>2026-05-01T08:40:40Z</time></trkpt><trkpt lat="43.168235883804044" lon="10.606171150943494"><ele>53.0</ele><time>2026-05-01T08:40:41Z</time></trkpt><trkpt lat="43.16833677294906" lon="10.606294413228762"><ele>53.5</ele><time>2026-05-01T08:40:42Z</time></trkpt><trkpt lat="43.168437512299185" lon="10.606417078080714"><ele>54.0</ele><time>2026-05-01T08:40:43Z</time></trkpt><trkpt lat="43.16855144175698" lon="10.606540113342719"><ele>54.0</ele><time>2026-05-01T08:40:44Z</time></trkpt><trkpt lat="43.16867512372322" lon="10.60667177307493"><ele>54.0</ele><time>2026-05-01T08:40:45Z</time></trkpt><trkpt lat="43.16879486524432" lon="10.606800839058495"><ele>54.0</ele><time>2026-05-01T08:40:46Z</time></trkpt><trkpt lat="43.16891797771058" lon="10.60692677819263"><ele>54.5</ele><time>2026-05-01T08:40:47Z</time></trkpt><trkpt lat="43.16903576756773" lon="10.607049933099532"><ele>55.0</ele><time>2026-05-01T08:40:48Z</time></trkpt><trkpt lat="43.169148864337146" lon="10.607172532017046"><ele>55.5</ele><time>2026-05-01T08:40:49Z</time></trkpt><trkpt lat="43.169258733881485" lon="10.607288400075033"><ele>56.0</ele><time>2026-05-01T08:40:50Z</time></trkpt><trkpt lat="43.16937152537141" lon="10.607399194165456"><ele>56.0</ele><time>2026-05-01T08:40:51Z</time></trkpt><trkpt lat="43.169479995946986" lon="10.607512689308775"><ele>56.0</ele><time>2026-05-01T08:40:52Z</time></trkpt><trkpt lat="43.16958031236746" lon="10.60761945016886"><ele>56.0</ele><time>2026-05-01T08:40:53Z</time></trkpt><trkpt lat="43.16967380801601" lon="10.607718186981058"><ele>56.0</ele><time>2026-05-01T08:40:54Z</time></trkpt><trkpt lat="43.169765908572415" lon="10.607817097912543"><ele>56.0</ele><time>2026-05-01T08:40:55Z</time></trkpt><trkpt lat="43.169855224118585" lon="10.607917493076311"><ele>56.0</ele><time>2026-05-01T08:40:56Z</time></trkpt><trkpt lat="43.16995012154065" lon="10.608011269997293"><ele>56.0</ele><time>2026-05-01T08:40:57Z</time></trkpt><trkpt lat="43.170044904672174" lon="10.608101233086389"><ele>56.0</ele><time>2026-05-01T08:40:58Z</time></trkpt><trkpt lat="43.17014178877391" lon="10.608177411081934"><ele>55.25</ele><time>2026-05-01T08:40:59Z</time></trkpt><trkpt lat="43.17024446971022" lon="10.608252136597404"><ele>54.5</ele><time>2026-05-01T08:41:00Z</time></trkpt><trkpt lat="43.17035085239376" lon="10.608319108916556"><ele>53.75</ele><time>2026-05-01T08:41:01Z</time></trkpt><trkpt lat="43.170460382969274" lon="10.608384493722836"><ele>53.0</ele><time>2026-05-01T08:41:02Z</time></trkpt><trkpt lat="43.170569344915855" lon="10.608447330902434"><ele>53.0</ele><time>2026-05-01T08:41:03Z</time></trkpt><trkpt lat="43.17067845362954" lon="10.60851151688842"><ele>53.0</ele><time>2026-05-01T08:41:04Z</time></trkpt><trkpt lat="43.1707895173689" lon="10.608571932567285"><ele>53.0</ele><time>2026-05-01T08:41:05Z</time></trkpt><trkpt lat="43.17090242037523" lon="10.608636710059788"><ele>53.0</ele><time>2026-05-01T08:41:06Z</time></trkpt><trkpt lat="43.17102101502708" lon="10.608704610178666"><ele>53.5</ele><time>2026-05-01T08:41:07Z</time></trkpt><trkpt lat="43.17113668858746" lon="10.608771801786324"><ele>54.0</ele><time>2026-05-01T08:41:08Z</time></trkpt><trkpt lat="43.17125694942296" lon="10.608833183684748"><ele>54.5</ele><time>2026-05-01T08:41:09Z</time></trkpt><trkpt lat="43.17137877969336" lon="10.608901788426119"><ele>55.0</ele><time>2026-05-01T08:41:10Z</time></trkpt><trkpt lat="43.17150671957593" lon="10.608972897463584"><ele>54.75</ele><time>2026-05-01T08:41:11Z</time></trkpt><trkpt lat="43.17163714614942" lon="10.609047099150985"><ele>54.5</ele><time>2026-05-01T08:41:12Z</time></trkpt><trkpt lat="43.171766346888326" lon="10.60912212381374"><ele>54.25</ele><time>2026-05-01T08:41:13Z</time></trkpt><trkpt lat="43.17189167791094" lon="10.609193515973493"><ele>54.0</ele><time>2026-05-01T08:41:14Z</time></trkpt><trkpt lat="43.17201394626597" lon="10.609265189015863"><ele>54.0</ele><time>2026-05-01T08:41:15Z</time></trkpt><trkpt lat="43.172140149596366" lon="10.609330646890683"><ele>54.0</ele><time>2026-05-01T08:41:16Z</time></trkpt><trkpt lat="43.172263368082795" lon="10.609403477656665"><ele>54.0</ele><time>2026-05-01T08:41:17Z</time></trkpt><trkpt lat="43.17239382943338" lon="10.609469931959492"><ele>54.0</ele><time>2026-05-01T08:41:18Z</time></trkpt><trkpt lat="43.172520677384114" lon="10.609543882218386"><ele>53.25</ele><time>2026-05-01T08:41:19Z</time></trkpt><trkpt lat="43.17264742062484" lon="10.60961881037927"><ele>52.5</ele><time>2026-05-01T08:41:20Z</time></trkpt><trkpt lat="43.172773656474476" lon="10.6096902120506"><ele>51.75</ele><time>2026-05-01T08:41:21Z</time></trkpt><trkpt lat="43.172902129315865" lon="10.609762500516458"><ele>51.0</ele><time>2026-05-01T08:41:22Z</time></trkpt><trkpt lat="43.17303019296859" lon="10.60983371530091"><ele>51.0</ele><time>2026-05-01T08:41:23Z</time></trkpt><trkpt lat="43.173155156689226" lon="10.609903714445737"><ele>51.0</ele><time>2026-05-01T08:41:24Z</time></trkpt><trkpt lat="43.17327602321326" lon="10.609975519817953"><ele>51.0</ele><time>2026-05-01T08:41:25Z</time></trkpt><trkpt lat="43.17338876946928" lon="10.610041969986229"><ele>51.0</ele><time>2026-05-01T08:41:26Z</time></trkpt><trkpt lat="43.17350438202623" lon="10.610109073567397"><ele>51.0</ele><time>2026-05-01T08:41:27Z</time></trkpt><trkpt lat="43.17362311152793" lon="10.610174203134767"><ele>51.0</ele><time>2026-05-01T08:41:28Z</time></trkpt><trkpt lat="43.1737460035308" lon="10.610235372541835"><ele>51.0</ele><time>2026-05-01T08:41:29Z</time></trkpt><trkpt lat="43.17387712892934" lon="10.610300610724476"><ele>51.0</ele><time>2026-05-01T08:41:30Z</time></trkpt><trkpt lat="43.174004032201076" lon="10.610368575638928"><ele>51.0</ele><time>2026-05-01T08:41:31Z</time></trkpt><trkpt lat="43.17413127975299" lon="10.610436561275678"><ele>51.0</ele><time>2026-05-01T08:41:32Z</time></trkpt><trkpt lat="43.174263351136325" lon="10.610500524637105"><ele>51.0</ele><time>2026-05-01T08:41:33Z</time></trkpt><trkpt lat="43.17440045883062" lon="10.610547854003123"><ele>51.0</ele><time>2026-05-01T08:41:34Z</time></trkpt><trkpt lat="43.17454058582778" lon="10.610580941005741"><ele>51.0</ele><time>2026-05-01T08:41:35Z</time></trkpt><trkpt lat="43.17468504962191" lon="10.610620114847075"><ele>51.0</ele><time>2026-05-01T08:41:36Z</time></trkpt><trkpt lat="43.17482351420703" lon="10.610658326404899"><ele>51.0</ele><time>2026-05-01T08:41:37Z</time></trkpt><trkpt lat="43.17495429490068" lon="10.610691920616036"><ele>51.0</ele><time>2026-05-01T08:41:38Z</time></trkpt><trkpt lat="43.17508092175573" lon="10.610716511048656"><ele>50.25</ele><time>2026-05-01T08:41:39Z</time></trkpt><trkpt lat="43.1752054455912" lon="10.610737893690857"><ele>49.5</ele><time>2026-05-01T08:41:40Z</time></trkpt><trkpt lat="43.17533048101411" lon="10.61076312775487"><ele>48.75</ele><time>2026-05-01T08:41:41Z</time></trkpt><trkpt lat="43.17545568617076" lon="10.610788399896213"><ele>48.0</ele><time>2026-05-01T08:41:42Z</time></trkpt><trkpt lat="43.17557944558548" lon="10.610814878110626"><ele>47.75</ele><time>2026-05-01T08:41:43Z</time></trkpt><trkpt lat="43.17570268874529" lon="10.610838131235969"><ele>47.5</ele><time>2026-05-01T08:41:44Z</time></trkpt><trkpt lat="43.175826954234836" lon="10.610863627836254"><ele>47.25</ele><time>2026-05-01T08:41:45Z</time></trkpt><trkpt lat="43.175949687573016" lon="10.610886482161591"><ele>47.0</ele><time>2026-05-01T08:41:46Z</time></trkpt><trkpt lat="43.17607575669272" lon="10.610901994749998"><ele>47.0</ele><time>2026-05-01T08:41:47Z</time></trkpt><trkpt lat="43.17620106416795" lon="10.610925515858368"><ele>47.0</ele><time>2026-05-01T08:41:48Z</time></trkpt><trkpt lat="43.17632985527389" lon="10.610950522294372"><ele>47.0</ele><time>2026-05-01T08:41:49Z</time></trkpt><trkpt lat="43.176455174748654" lon="10.610975526525483"><ele>47.0</ele><time>2026-05-01T08:41:50Z</time></trkpt><trkpt lat="43.17658252648099" lon="10.610997411711029"><ele>46.25</ele><time>2026-05-01T08:41:51Z</time></trkpt><trkpt lat="43.176712540008275" lon="10.611017522952668"><ele>45.5</ele><time>2026-05-01T08:41:52Z</time></trkpt><trkpt lat="43.1768444971489" lon="10.611048671774077"><ele>44.75</ele><time>2026-05-01T08:41:53Z</time></trkpt><trkpt lat="43.17697494190239" lon="10.61108560647679"><ele>44.0</ele><time>2026-05-01T08:41:54Z</time></trkpt><trkpt lat="43.177110425598904" lon="10.61111607733125"><ele>44.0</ele><time>2026-05-01T08:41:55Z</time></trkpt><trkpt lat="43.177247124104" lon="10.611141612054052"><ele>44.0</ele><time>2026-05-01T08:41:56Z</time></trkpt><trkpt lat="43.17738426551485" lon="10.611166821849409"><ele>44.0</ele><time>2026-05-01T08:41:57Z</time></trkpt><trkpt lat="43.17752361660862" lon="10.611193364956849"><ele>44.0</ele><time>2026-05-01T08:41:58Z</time></trkpt><trkpt lat="43.17766584013436" lon="10.611222273281573"><ele>44.25</ele><time>2026-05-01T08:41:59Z</time></trkpt><trkpt lat="43.17780622456605" lon="10.611252341015156"><ele>44.5</ele><time>2026-05-01T08:42:00Z</time></trkpt><trkpt lat="43.1779450757656" lon="10.611278753020477"><ele>44.75</ele><time>2026-05-01T08:42:01Z</time></trkpt><trkpt lat="43.17808617700173" lon="10.611306834592414"><ele>45.0</ele><time>2026-05-01T08:42:02Z</time></trkpt><trkpt lat="43.17822456629911" lon="10.61133213952789"><ele>45.0</ele><time>2026-05-01T08:42:03Z</time></trkpt><trkpt lat="43.178366363540995" lon="10.611358198570601"><ele>45.0</ele><time>2026-05-01T08:42:04Z</time></trkpt><trkpt lat="43.1785054826999" lon="10.611384519121502"><ele>45.0</ele><time>2026-05-01T08:42:05Z</time></trkpt><trkpt lat="43.1786439229966" lon="10.611417911193868"><ele>45.0</ele><time>2026-05-01T08:42:06Z</time></trkpt><trkpt lat="43.17878077629223" lon="10.6114524181128"><ele>45.0</ele><time>2026-05-01T08:42:07Z</time></trkpt><trkpt lat="43.17891810947107" lon="10.611481067868498"><ele>45.0</ele><time>2026-05-01T08:42:08Z</time></trkpt><trkpt lat="43.17905503600256" lon="10.611504977959186"><ele>45.0</ele><time>2026-05-01T08:42:09Z</time></trkpt><trkpt lat="43.179192816955684" lon="10.611527973797868"><ele>45.0</ele><time>2026-05-01T08:42:10Z</time></trkpt><trkpt lat="43.1793304296807" lon="10.611562003180746"><ele>45.0</ele><time>2026-05-01T08:42:11Z</time></trkpt><trkpt lat="43.17946765505691" lon="10.611588555399035"><ele>45.0</ele><time>2026-05-01T08:42:12Z</time></trkpt><trkpt lat="43.179607211971266" lon="10.61161350139662"><ele>45.0</ele><time>2026-05-01T08:42:13Z</time></trkpt><trkpt lat="43.17974663940318" lon="10.61164235807465"><ele>45.0</ele><time>2026-05-01T08:42:14Z</time></trkpt><trkpt lat="43.17988645961034" lon="10.611672775119807"><ele>44.0</ele><time>2026-05-01T08:42:15Z</time></trkpt><trkpt lat="43.180025968982136" lon="10.611698881097483"><ele>43.0</ele><time>2026-05-01T08:42:16Z</time></trkpt><trkpt lat="43.180173281483555" lon="10.61172593781499"><ele>42.0</ele><time>2026-05-01T08:42:17Z</time></trkpt><trkpt lat="43.180326785812504" lon="10.61175717996158"><ele>41.0</ele><time>2026-05-01T08:42:18Z</time></trkpt><trkpt lat="43.180483145115794" lon="10.611789657628655"><ele>41.0</ele><time>2026-05-01T08:42:19Z</time></trkpt><trkpt lat="43.18064192546853" lon="10.611821924028822"><ele>41.0</ele><time>2026-05-01T08:42:20Z</time></trkpt><trkpt lat="43.180792163365226" lon="10.611850151996101"><ele>41.0</ele><time>2026-05-01T08:42:21Z</time></trkpt><trkpt lat="43.18094931829084" lon="10.611877294475942"><ele>40.0</ele><time>2026-05-01T08:42:22Z</time></trkpt><trkpt lat="43.181112906943675" lon="10.611908575269084"><ele>39.0</ele><time>2026-05-01T08:42:23Z</time></trkpt><trkpt lat="43.18126740750328" lon="10.611943738066255"><ele>38.0</ele><time>2026-05-01T08:42:24Z</time></trkpt><trkpt lat="43.181420902009464" lon="10.611974974649026"><ele>38.33333333333333</ele><time>2026-05-01T08:42:25Z</time></trkpt><trkpt lat="43.181573508304766" lon="10.61200361782042"><ele>38.666666666666664</ele><time>2026-05-01T08:42:26Z</time></trkpt><trkpt lat="43.18172117031339" lon="10.612029001243297"><ele>39.0</ele><time>2026-05-01T08:42:27Z</time></trkpt><trkpt lat="43.181883170909444" lon="10.61206227073146"><ele>39.0</ele><time>2026-05-01T08:42:28Z</time></trkpt><trkpt lat="43.18205026800253" lon="10.612098001420563"><ele>39.0</ele><time>2026-05-01T08:42:29Z</time></trkpt><trkpt lat="43.182202408145876" lon="10.612130919286399"><ele>39.0</ele><time>2026-05-01T08:42:30Z</time></trkpt><trkpt lat="43.18234273070404" lon="10.612157283835682"><ele>38.5</ele><time>2026-05-01T08:42:31Z</time></trkpt><trkpt lat="43.18247684997611" lon="10.6121839428163"><ele>38.0</ele><time>2026-05-01T08:42:32Z</time></trkpt><trkpt lat="43.18261503051905" lon="10.61220741524947"><ele>37.5</ele><time>2026-05-01T08:42:33Z</time></trkpt><trkpt lat="43.182756719695824" lon="10.6122393741787"><ele>37.0</ele><time>2026-05-01T08:42:34Z</time></trkpt><trkpt lat="43.182896773514045" lon="10.612274329103478"><ele>37.0</ele><time>2026-05-01T08:42:35Z</time></trkpt><trkpt lat="43.18303875682795" lon="10.61230566268934"><ele>37.0</ele><time>2026-05-01T08:42:36Z</time></trkpt><trkpt lat="43.183183257998266" lon="10.61233243407695"><ele>37.0</ele><time>2026-05-01T08:42:37Z</time></trkpt><trkpt lat="43.183327648263784" lon="10.612355484169935"><ele>37.0</ele><time>2026-05-01T08:42:38Z</time></trkpt><trkpt lat="43.18347107541691" lon="10.612386662445923"><ele>36.75</ele><time>2026-05-01T08:42:39Z</time></trkpt><trkpt lat="43.1836152002835" lon="10.612419398318451"><ele>36.5</ele><time>2026-05-01T08:42:40Z</time></trkpt><trkpt lat="43.18376034053032" lon="10.612447784219093"><ele>36.25</ele><time>2026-05-01T08:42:41Z</time></trkpt><trkpt lat="43.18390815104725" lon="10.612472829448365"><ele>36.0</ele><time>2026-05-01T08:42:42Z</time></trkpt><trkpt lat="43.18405659595567" lon="10.612499741257942"><ele>35.75</ele><time>2026-05-01T08:42:43Z</time></trkpt><trkpt lat="43.18420224214668" lon="10.612531500998857"><ele>35.5</ele><time>2026-05-01T08:42:44Z</time></trkpt><trkpt lat="43.184346340772294" lon="10.612562802682056"><ele>35.25</ele><time>2026-05-01T08:42:45Z</time></trkpt><trkpt lat="43.18447906681197" lon="10.61259523876756"><ele>35.0</ele><time>2026-05-01T08:42:46Z</time></trkpt><trkpt lat="43.18461771346285" lon="10.61262496600506"><ele>35.0</ele><time>2026-05-01T08:42:47Z</time></trkpt><trkpt lat="43.18476003330515" lon="10.612646255825922"><ele>35.0</ele><time>2026-05-01T08:42:48Z</time></trkpt><trkpt lat="43.18490210759763" lon="10.612677492763906"><ele>35.0</ele><time>2026-05-01T08:42:49Z</time></trkpt><trkpt lat="43.18504235561118" lon="10.612692894487111"><ele>35.0</ele><time>2026-05-01T08:42:50Z</time></trkpt><trkpt lat="43.1851838792845" lon="10.6127007315377"><ele>34.75</ele><time>2026-05-01T08:42:51Z</time></trkpt><trkpt lat="43.18532747692855" lon="10.612689839102746"><ele>34.5</ele><time>2026-05-01T08:42:52Z</time></trkpt><trkpt lat="43.185476269215634" lon="10.61267301026917"><ele>34.25</ele><time>2026-05-01T08:42:53Z</time></trkpt><trkpt lat="43.18562684274826" lon="10.612641550161964"><ele>34.0</ele><time>2026-05-01T08:42:54Z</time></trkpt><trkpt lat="43.18577774801052" lon="10.612600850324187"><ele>33.5</ele><time>2026-05-01T08:42:55Z</time></trkpt><trkpt lat="43.18592518245622" lon="10.612561707315766"><ele>33.0</ele><time>2026-05-01T08:42:56Z</time></trkpt><trkpt lat="43.18606427765513" lon="10.612526779175841"><ele>32.5</ele><time>2026-05-01T08:42:57Z</time></trkpt><trkpt lat="43.18620250781887" lon="10.612493361737785"><ele>32.0</ele><time>2026-05-01T08:42:58Z</time></trkpt><trkpt lat="43.1863467550895" lon="10.612460025236038"><ele>32.0</ele><time>2026-05-01T08:42:59Z</time></trkpt><trkpt lat="43.18648855153642" lon="10.612417417289523"><ele>32.0</ele><time>2026-05-01T08:43:00Z</time></trkpt><trkpt lat="43.18663167925381" lon="10.612376762428696"><ele>32.0</ele><time>2026-05-01T08:43:01Z</time></trkpt><trkpt lat="43.18677512765436" lon="10.61233480497908"><ele>32.0</ele><time>2026-05-01T08:43:02Z</time></trkpt><trkpt lat="43.18691516469988" lon="10.61229609762287"><ele>31.75</ele><time>2026-05-01T08:43:03Z</time></trkpt><trkpt lat="43.18705198552718" lon="10.612262419402125"><ele>31.5</ele><time>2026-05-01T08:43:04Z</time></trkpt><trkpt lat="43.187188024038235" lon="10.612230893294846"><ele>31.25</ele><time>2026-05-01T08:43:05Z</time></trkpt><trkpt lat="43.18732382142133" lon="10.612199460982582"><ele>31.0</ele><time>2026-05-01T08:43:06Z</time></trkpt><trkpt lat="43.18745853723737" lon="10.612163600876384"><ele>30.75</ele><time>2026-05-01T08:43:07Z</time></trkpt><trkpt lat="43.187594012548175" lon="10.612126139634478"><ele>30.5</ele><time>2026-05-01T08:43:08Z</time></trkpt><trkpt lat="43.18773119219741" lon="10.612087546527784"><ele>30.25</ele><time>2026-05-01T08:43:09Z</time></trkpt><trkpt lat="43.1878724858201" lon="10.61205059335796"><ele>30.0</ele><time>2026-05-01T08:43:10Z</time></trkpt><trkpt lat="43.188012318613154" lon="10.612013690605213"><ele>29.75</ele><time>2026-05-01T08:43:11Z</time></trkpt><trkpt lat="43.188152276001276" lon="10.611975986577564"><ele>29.5</ele><time>2026-05-01T08:43:12Z</time></trkpt><trkpt lat="43.18829381942441" lon="10.611938035249704"><ele>29.25</ele><time>2026-05-01T08:43:13Z</time></trkpt><trkpt lat="43.188437347533956" lon="10.611898190505903"><ele>29.0</ele><time>2026-05-01T08:43:14Z</time></trkpt><trkpt lat="43.188577817517846" lon="10.611859808365814"><ele>29.0</ele><time>2026-05-01T08:43:15Z</time></trkpt><trkpt lat="43.18872271636981" lon="10.611815193777275"><ele>29.0</ele><time>2026-05-01T08:43:16Z</time></trkpt><trkpt lat="43.18886764476553" lon="10.611775187649592"><ele>29.0</ele><time>2026-05-01T08:43:17Z</time></trkpt><trkpt lat="43.18900907125215" lon="10.611736755064705"><ele>29.0</ele><time>2026-05-01T08:43:18Z</time></trkpt><trkpt lat="43.189145387240416" lon="10.611698814575819"><ele>29.0</ele><time>2026-05-01T08:43:19Z</time></trkpt><trkpt lat="43.18927552299559" lon="10.611661968548624"><ele>29.0</ele><time>2026-05-01T08:43:20Z</time></trkpt><trkpt lat="43.18940656038725" lon="10.611627323767253"><ele>29.0</ele><time>2026-05-01T08:43:21Z</time></trkpt><trkpt lat="43.18953439412591" lon="10.611592448873617"><ele>29.0</ele><time>2026-05-01T08:43:22Z</time></trkpt><trkpt lat="43.1896609367199" lon="10.61155708501316"><ele>29.0</ele><time>2026-05-01T08:43:23Z</time></trkpt><trkpt lat="43.189790581105385" lon="10.611530030103705"><ele>29.0</ele><time>2026-05-01T08:43:24Z</time></trkpt><trkpt lat="43.18991614521918" lon="10.611497651341855"><ele>29.0</ele><time>2026-05-01T08:43:25Z</time></trkpt><trkpt lat="43.19004882736756" lon="10.611457495051992"><ele>29.0</ele><time>2026-05-01T08:43:26Z</time></trkpt><trkpt lat="43.190182846917075" lon="10.611422400502377"><ele>29.25</ele><time>2026-05-01T08:43:27Z</time></trkpt><trkpt lat="43.19031943155329" lon="10.611388450339309"><ele>29.5</ele><time>2026-05-01T08:43:28Z</time></trkpt><trkpt lat="43.19045411623982" lon="10.611350931940061"><ele>29.75</ele><time>2026-05-01T08:43:29Z</time></trkpt><trkpt lat="43.19058814525578" lon="10.611312370638775"><ele>30.0</ele><time>2026-05-01T08:43:30Z</time></trkpt><trkpt lat="43.19071889714348" lon="10.611278075994042"><ele>30.25</ele><time>2026-05-01T08:43:31Z</time></trkpt><trkpt lat="43.1908396269785" lon="10.611248177471778"><ele>30.5</ele><time>2026-05-01T08:43:32Z</time></trkpt><trkpt lat="43.19096121879272" lon="10.611214922415176"><ele>30.75</ele><time>2026-05-01T08:43:33Z</time></trkpt><trkpt lat="43.1910851016863" lon="10.61118422860321"><ele>31.0</ele><time>2026-05-01T08:43:34Z</time></trkpt><trkpt lat="43.191211214572114" lon="10.61114896429504"><ele>31.25</ele><time>2026-05-01T08:43:35Z</time></trkpt><trkpt lat="43.19134080026176" lon="10.611112973469536"><ele>31.5</ele><time>2026-05-01T08:43:36Z</time></trkpt><trkpt lat="43.19147464616735" lon="10.61108207368928"><ele>31.75</ele><time>2026-05-01T08:43:37Z</time></trkpt><trkpt lat="43.19160844282828" lon="10.611046592881342"><ele>32.0</ele><time>2026-05-01T08:43:38Z</time></trkpt><trkpt lat="43.191743120062235" lon="10.611012440524442"><ele>31.25</ele><time>2026-05-01T08:43:39Z</time></trkpt><trkpt lat="43.191877669712845" lon="10.610981484235522"><ele>30.5</ele><time>2026-05-01T08:43:40Z</time></trkpt><trkpt lat="43.192015227992904" lon="10.610956934574522"><ele>29.75</ele><time>2026-05-01T08:43:41Z</time></trkpt><trkpt lat="43.19215285999373" lon="10.610944381992578"><ele>29.0</ele><time>2026-05-01T08:43:42Z</time></trkpt><trkpt lat="43.1922890232483" lon="10.610946584587134"><ele>29.25</ele><time>2026-05-01T08:43:43Z</time></trkpt><trkpt lat="43.1924228562137" lon="10.610951426838762"><ele>29.5</ele><time>2026-05-01T08:43:44Z</time></trkpt><trkpt lat="43.19255981420811" lon="10.610952207150603"><ele>29.75</ele><time>2026-05-01T08:43:45Z</time></trkpt><trkpt lat="43.19269893039294" lon="10.610959719218963"><ele>30.0</ele><time>2026-05-01T08:43:46Z</time></trkpt><trkpt lat="43.192833591497866" lon="10.610976736405815"><ele>30.0</ele><time>2026-05-01T08:43:47Z</time></trkpt><trkpt lat="43.192960858596166" lon="10.610990892447665"><ele>30.0</ele><time>2026-05-01T08:43:48Z</time></trkpt><trkpt lat="43.19308627452606" lon="10.611000262898077"><ele>30.0</ele><time>2026-05-01T08:43:49Z</time></trkpt><trkpt lat="43.193199974204596" lon="10.611015637387652"><ele>30.0</ele><time>2026-05-01T08:43:50Z</time></trkpt><trkpt lat="43.1933016463978" lon="10.611034861841786"><ele>30.0</ele><time>2026-05-01T08:43:51Z</time></trkpt><trkpt lat="43.19339421760613" lon="10.61104869821287"><ele>30.0</ele><time>2026-05-01T08:43:52Z</time></trkpt><trkpt lat="43.19348884302257" lon="10.611053751164487"><ele>30.0</ele><time>2026-05-01T08:43:53Z</time></trkpt><trkpt lat="43.19358860452553" lon="10.611072222671792"><ele>30.0</ele><time>2026-05-01T08:43:54Z</time></trkpt><trkpt lat="43.19368097852982" lon="10.611091866770765"><ele>30.0</ele><time>2026-05-01T08:43:55Z</time></trkpt><trkpt lat="43.19377854205504" lon="10.611117368691502"><ele>30.0</ele><time>2026-05-01T08:43:56Z</time></trkpt><trkpt lat="43.193881144292675" lon="10.611147931529498"><ele>30.0</ele><time>2026-05-01T08:43:57Z</time></trkpt><trkpt lat="43.19399055447705" lon="10.611190523472443"><ele>30.0</ele><time>2026-05-01T08:43:58Z</time></trkpt><trkpt lat="43.19409962778523" lon="10.611235031408388"><ele>30.0</ele><time>2026-05-01T08:43:59Z</time></trkpt><trkpt lat="43.194213675832785" lon="10.61128667029821"><ele>30.0</ele><time>2026-05-01T08:44:00Z</time></trkpt><trkpt lat="43.19431897690588" lon="10.611334866939503"><ele>30.0</ele><time>2026-05-01T08:44:01Z</time></trkpt><trkpt lat="43.19443289368158" lon="10.611378761861411"><ele>30.0</ele><time>2026-05-01T08:44:02Z</time></trkpt><trkpt lat="43.19454952820811" lon="10.611425898637599"><ele>30.0</ele><time>2026-05-01T08:44:03Z</time></trkpt><trkpt lat="43.1946591062995" lon="10.611470351583455"><ele>30.0</ele><time>2026-05-01T08:44:04Z</time></trkpt><trkpt lat="43.19474777582945" lon="10.611513691484097"><ele>30.0</ele><time>2026-05-01T08:44:05Z</time></trkpt><trkpt lat="43.19483469949443" lon="10.611550166550662"><ele>30.0</ele><time>2026-05-01T08:44:06Z</time></trkpt><trkpt lat="43.19491911806061" lon="10.611576427915104"><ele>30.0</ele><time>2026-05-01T08:44:07Z</time></trkpt><trkpt lat="43.19498934665425" lon="10.611604492882076"><ele>30.0</ele><time>2026-05-01T08:44:08Z</time></trkpt><trkpt lat="43.19506728847035" lon="10.611638864311258"><ele>30.0</ele><time>2026-05-01T08:44:09Z</time></trkpt><trkpt lat="43.195150132671266" lon="10.611680737296252"><ele>30.4</ele><time>2026-05-01T08:44:10Z</time></trkpt><trkpt lat="43.19524318670169" lon="10.611718489420927"><ele>30.8</ele><time>2026-05-01T08:44:11Z</time></trkpt><trkpt lat="43.195332549833346" lon="10.611751923181622"><ele>31.200000000000003</ele><time>2026-05-01T08:44:12Z</time></trkpt><trkpt lat="43.19542248853128" lon="10.611788070398635"><ele>31.6</ele><time>2026-05-01T08:44:13Z</time></trkpt><trkpt lat="43.195511332024616" lon="10.61182483334994"><ele>32.0</ele><time>2026-05-01T08:44:14Z</time></trkpt><trkpt lat="43.19558990130862" lon="10.611867419466236"><ele>31.999999999999996</ele><time>2026-05-01T08:44:15Z</time></trkpt><trkpt lat="43.19565247667666" lon="10.611889701105733"><ele>32.0</ele><time>2026-05-01T08:44:16Z</time></trkpt><trkpt lat="43.195719310496386" lon="10.611919215829404"><ele>32.0</ele><time>2026-05-01T08:44:17Z</time></trkpt><trkpt lat="43.19578333790262" lon="10.61194304912"><ele>32.0</ele><time>2026-05-01T08:44:18Z</time></trkpt><trkpt lat="43.195860781067715" lon="10.611967553317864"><ele>31.999999999999996</ele><time>2026-05-01T08:44:19Z</time></trkpt><trkpt lat="43.19595044632641" lon="10.611997989843847"><ele>32.0</ele><time>2026-05-01T08:44:20Z</time></trkpt><trkpt lat="43.196044456217365" lon="10.612039182426633"><ele>32.0</ele><time>2026-05-01T08:44:21Z</time></trkpt><trkpt lat="43.19614093282687" lon="10.612085536800473"><ele>32.0</ele><time>2026-05-01T08:44:22Z</time></trkpt><trkpt lat="43.19623807801321" lon="10.612129847704018"><ele>32.0</ele><time>2026-05-01T08:44:23Z</time></trkpt><trkpt lat="43.19633708996227" lon="10.612174631846415"><ele>32.0</ele><time>2026-05-01T08:44:24Z</time></trkpt><trkpt lat="43.19645098420032" lon="10.612221041767949"><ele>32.0</ele><time>2026-05-01T08:44:25Z</time></trkpt><trkpt lat="43.1965745614287" lon="10.612272394831804"><ele>32.0</ele><time>2026-05-01T08:44:26Z</time></trkpt><trkpt lat="43.196703560195864" lon="10.61233052221043"><ele>32.0</ele><time>2026-05-01T08:44:27Z</time></trkpt><trkpt lat="43.19683267530333" lon="10.61238697088864"><ele>32.0</ele><time>2026-05-01T08:44:28Z</time></trkpt><trkpt lat="43.19696324368649" lon="10.612438088855868"><ele>32.0</ele><time>2026-05-01T08:44:29Z</time></trkpt><trkpt lat="43.19708619237161" lon="10.612489162950427"><ele>32.0</ele><time>2026-05-01T08:44:30Z</time></trkpt><trkpt lat="43.197209515403046" lon="10.612535986090048"><ele>32.0</ele><time>2026-05-01T08:44:31Z</time></trkpt><trkpt lat="43.19733171496028" lon="10.61258693944905"><ele>32.0</ele><time>2026-05-01T08:44:32Z</time></trkpt><trkpt lat="43.19744987025073" lon="10.612638251023231"><ele>32.0</ele><time>2026-05-01T08:44:33Z</time></trkpt><trkpt lat="43.197571235241156" lon="10.612686634242486"><ele>32.0</ele><time>2026-05-01T08:44:34Z</time></trkpt><trkpt lat="43.1976987673185" lon="10.61272794665863"><ele>32.0</ele><time>2026-05-01T08:44:35Z</time></trkpt><trkpt lat="43.19782983628756" lon="10.612764715051116"><ele>32.0</ele><time>2026-05-01T08:44:36Z</time></trkpt><trkpt lat="43.19796391538287" lon="10.612799501184979"><ele>32.0</ele><time>2026-05-01T08:44:37Z</time></trkpt><trkpt lat="43.19809433161745" lon="10.612825583506105"><ele>32.5</ele><time>2026-05-01T08:44:38Z</time></trkpt><trkpt lat="43.19822382528891" lon="10.612855025544228"><ele>33.0</ele><time>2026-05-01T08:44:39Z</time></trkpt><trkpt lat="43.19835776629012" lon="10.61288205493004"><ele>33.5</ele><time>2026-05-01T08:44:40Z</time></trkpt><trkpt lat="43.19850091532763" lon="10.612915090749368"><ele>34.0</ele><time>2026-05-01T08:44:41Z</time></trkpt><trkpt lat="43.19864098096229" lon="10.612946552191122"><ele>34.0</ele><time>2026-05-01T08:44:42Z</time></trkpt><trkpt lat="43.198784251923314" lon="10.612983157569134"><ele>34.0</ele><time>2026-05-01T08:44:43Z</time></trkpt><trkpt lat="43.198928430709174" lon="10.613017487589326"><ele>34.0</ele><time>2026-05-01T08:44:44Z</time></trkpt><trkpt lat="43.199068608749265" lon="10.613048539930332"><ele>34.0</ele><time>2026-05-01T08:44:45Z</time></trkpt><trkpt lat="43.199210748238166" lon="10.613082263738185"><ele>34.333333333333336</ele><time>2026-05-01T08:44:46Z</time></trkpt><trkpt lat="43.19935779464491" lon="10.613111503766604"><ele>34.666666666666664</ele><time>2026-05-01T08:44:47Z</time></trkpt><trkpt lat="43.199502841242975" lon="10.61314314429067"><ele>35.0</ele><time>2026-05-01T08:44:48Z</time></trkpt><trkpt lat="43.199655648843475" lon="10.613179654538003"><ele>35.0</ele><time>2026-05-01T08:44:49Z</time></trkpt><trkpt lat="43.19979768896518" lon="10.6132089074228"><ele>35.0</ele><time>2026-05-01T08:44:50Z</time></trkpt><trkpt lat="43.19992107219724" lon="10.613238606866272"><ele>35.0</ele><time>2026-05-01T08:44:51Z</time></trkpt><trkpt lat="43.200047451319044" lon="10.61326658753908"><ele>35.0</ele><time>2026-05-01T08:44:52Z</time></trkpt><trkpt lat="43.200177109412984" lon="10.613295364547277"><ele>35.25</ele><time>2026-05-01T08:44:53Z</time></trkpt><trkpt lat="43.2003102380818" lon="10.613325548364543"><ele>35.5</ele><time>2026-05-01T08:44:54Z</time></trkpt><trkpt lat="43.200438530940986" lon="10.613351767007801"><ele>35.75</ele><time>2026-05-01T08:44:55Z</time></trkpt><trkpt lat="43.20057082192655" lon="10.613384563800002"><ele>36.0</ele><time>2026-05-01T08:44:56Z</time></trkpt><trkpt lat="43.200708633868466" lon="10.613410785250371"><ele>36.25</ele><time>2026-05-01T08:44:57Z</time></trkpt><trkpt lat="43.20083740266905" lon="10.613413820350857"><ele>36.5</ele><time>2026-05-01T08:44:58Z</time></trkpt><trkpt lat="43.20097699669992" lon="10.61340126721132"><ele>36.75</ele><time>2026-05-01T08:44:59Z</time></trkpt><trkpt lat="43.20112407540191" lon="10.6133756651985"><ele>37.0</ele><time>2026-05-01T08:45:00Z</time></trkpt><trkpt lat="43.201279168357225" lon="10.61335453112769"><ele>37.0</ele><time>2026-05-01T08:45:01Z</time></trkpt><trkpt lat="43.20143317800028" lon="10.613329110014403"><ele>37.0</ele><time>2026-05-01T08:45:02Z</time></trkpt><trkpt lat="43.20158042380087" lon="10.613302171869977"><ele>37.0</ele><time>2026-05-01T08:45:03Z</time></trkpt><trkpt lat="43.20172626384425" lon="10.613275250863342"><ele>37.66666666666667</ele><time>2026-05-01T08:45:04Z</time></trkpt><trkpt lat="43.2018761295022" lon="10.61324410022085"><ele>38.333333333333336</ele><time>2026-05-01T08:45:05Z</time></trkpt><trkpt lat="43.20202346695101" lon="10.613210121721234"><ele>39.0</ele><time>2026-05-01T08:45:06Z</time></trkpt><trkpt lat="43.202176629534684" lon="10.613183179036321"><ele>39.0</ele><time>2026-05-01T08:45:07Z</time></trkpt><trkpt lat="43.2023284532104" lon="10.613156209227594"><ele>39.0</ele><time>2026-05-01T08:45:08Z</time></trkpt><trkpt lat="43.20248806217173" lon="10.613126926808057"><ele>39.0</ele><time>2026-05-01T08:45:09Z</time></trkpt><trkpt lat="43.20265092109988" lon="10.613100351798352"><ele>39.333333333333336</ele><time>2026-05-01T08:45:10Z</time></trkpt><trkpt lat="43.20281408037498" lon="10.613062354020686"><ele>39.66666666666667</ele><time>2026-05-01T08:45:11Z</time></trkpt><trkpt lat="43.20299527673345" lon="10.61302514850292"><ele>40.0</ele><time>2026-05-01T08:45:12Z</time></trkpt><trkpt lat="43.20318876458649" lon="10.612997718847115"><ele>40.66666666666667</ele><time>2026-05-01T08:45:13Z</time></trkpt><trkpt lat="43.203354652153614" lon="10.612969009848992"><ele>41.333333333333336</ele><time>2026-05-01T08:45:14Z</time></trkpt><trkpt lat="43.203512469267174" lon="10.612947332008568"><ele>42.0</ele><time>2026-05-01T08:45:15Z</time></trkpt><trkpt lat="43.2036698542445" lon="10.612917374725393"><ele>42.0</ele><time>2026-05-01T08:45:16Z</time></trkpt><trkpt lat="43.20383303554222" lon="10.612887301874883"><ele>42.0</ele><time>2026-05-01T08:45:17Z</time></trkpt><trkpt lat="43.203998383613474" lon="10.61285896612799"><ele>42.0</ele><time>2026-05-01T08:45:18Z</time></trkpt><trkpt lat="43.20416265108412" lon="10.612829198920345"><ele>42.666666666666664</ele><time>2026-05-01T08:45:19Z</time></trkpt><trkpt lat="43.20432381073352" lon="10.612798871644197"><ele>43.33333333333333</ele><time>2026-05-01T08:45:20Z</time></trkpt><trkpt lat="43.20448200701558" lon="10.612766970742852"><ele>44.0</ele><time>2026-05-01T08:45:21Z</time></trkpt><trkpt lat="43.204634855460604" lon="10.612737700827365"><ele>44.0</ele><time>2026-05-01T08:45:22Z</time></trkpt><trkpt lat="43.20478181999125" lon="10.612707412916045"><ele>44.0</ele><time>2026-05-01T08:45:23Z</time></trkpt><trkpt lat="43.204929881231266" lon="10.61268994686989"><ele>44.0</ele><time>2026-05-01T08:45:24Z</time></trkpt><trkpt lat="43.20507779230966" lon="10.612665863321011"><ele>44.0</ele><time>2026-05-01T08:45:25Z</time></trkpt><trkpt lat="43.20522755394895" lon="10.6126409745351"><ele>44.666666666666664</ele><time>2026-05-01T08:45:26Z</time></trkpt><trkpt lat="43.20537966863809" lon="10.612611496642192"><ele>45.333333333333336</ele><time>2026-05-01T08:45:27Z</time></trkpt><trkpt lat="43.205533046572974" lon="10.612573463621718"><ele>46.0</ele><time>2026-05-01T08:45:28Z</time></trkpt><trkpt lat="43.205685863777774" lon="10.612547210358574"><ele>46.0</ele><time>2026-05-01T08:45:29Z</time></trkpt><trkpt lat="43.20584088232576" lon="10.612526649153658"><ele>46.0</ele><time>2026-05-01T08:45:30Z</time></trkpt><trkpt lat="43.2059988782557" lon="10.612492956733016"><ele>46.0</ele><time>2026-05-01T08:45:31Z</time></trkpt><trkpt lat="43.20616491480474" lon="10.61245828216156"><ele>46.0</ele><time>2026-05-01T08:45:32Z</time></trkpt><trkpt lat="43.20632787093732" lon="10.612431344616438"><ele>46.0</ele><time>2026-05-01T08:45:33Z</time></trkpt><trkpt lat="43.20648648577708" lon="10.612399938170627"><ele>46.0</ele><time>2026-05-01T08:45:34Z</time></trkpt><trkpt lat="43.206645407958085" lon="10.612372536079116"><ele>46.5</ele><time>2026-05-01T08:45:35Z</time></trkpt><trkpt lat="43.20679665065404" lon="10.612347753874534"><ele>47.0</ele><time>2026-05-01T08:45:36Z</time></trkpt><trkpt lat="43.206945688833464" lon="10.612322490898535"><ele>47.5</ele><time>2026-05-01T08:45:37Z</time></trkpt><trkpt lat="43.20709038192859" lon="10.612299337375621"><ele>48.0</ele><time>2026-05-01T08:45:38Z</time></trkpt><trkpt lat="43.207230861042646" lon="10.612271124650828"><ele>48.25</ele><time>2026-05-01T08:45:39Z</time></trkpt><trkpt lat="43.20737161695455" lon="10.612247148049239"><ele>48.5</ele><time>2026-05-01T08:45:40Z</time></trkpt><trkpt lat="43.207515991634274" lon="10.612224596322102"><ele>48.75</ele><time>2026-05-01T08:45:41Z</time></trkpt><trkpt lat="43.2076519006634" lon="10.612201276905108"><ele>49.0</ele><time>2026-05-01T08:45:42Z</time></trkpt><trkpt lat="43.20778909390303" lon="10.612174933323418"><ele>49.0</ele><time>2026-05-01T08:45:43Z</time></trkpt><trkpt lat="43.20792941826988" lon="10.612157119224307"><ele>49.0</ele><time>2026-05-01T08:45:44Z</time></trkpt><trkpt lat="43.208073216551924" lon="10.612133700144359"><ele>49.0</ele><time>2026-05-01T08:45:45Z</time></trkpt><trkpt lat="43.20821973771043" lon="10.612101053545267"><ele>49.0</ele><time>2026-05-01T08:45:46Z</time></trkpt><trkpt lat="43.20836365608125" lon="10.612069092629179"><ele>49.0</ele><time>2026-05-01T08:45:47Z</time></trkpt><trkpt lat="43.20849742949353" lon="10.61204681957273"><ele>49.0</ele><time>2026-05-01T08:45:48Z</time></trkpt><trkpt lat="43.20862798594049" lon="10.612022385190048"><ele>49.0</ele><time>2026-05-01T08:45:49Z</time></trkpt><trkpt lat="43.2087590684608" lon="10.61200233424407"><ele>49.0</ele><time>2026-05-01T08:45:50Z</time></trkpt><trkpt lat="43.2088900808151" lon="10.611987432388448"><ele>48.75</ele><time>2026-05-01T08:45:51Z</time></trkpt><trkpt lat="43.20902328288731" lon="10.611964329871205"><ele>48.5</ele><time>2026-05-01T08:45:52Z</time></trkpt><trkpt lat="43.20914931903368" lon="10.61193961528703"><ele>48.25</ele><time>2026-05-01T08:45:53Z</time></trkpt><trkpt lat="43.20926628811867" lon="10.611916589390189"><ele>48.0</ele><time>2026-05-01T08:45:54Z</time></trkpt><trkpt lat="43.20937841868524" lon="10.611893616087247"><ele>48.0</ele><time>2026-05-01T08:45:55Z</time></trkpt><trkpt lat="43.20949162790353" lon="10.611874921901695"><ele>48.0</ele><time>2026-05-01T08:45:56Z</time></trkpt><trkpt lat="43.20961074002968" lon="10.61185174478379"><ele>48.0</ele><time>2026-05-01T08:45:57Z</time></trkpt><trkpt lat="43.209722425244465" lon="10.61182858891608"><ele>48.0</ele><time>2026-05-01T08:45:58Z</time></trkpt><trkpt lat="43.20983921435795" lon="10.611808971157481"><ele>48.75</ele><time>2026-05-01T08:45:59Z</time></trkpt><trkpt lat="43.20996235209501" lon="10.611786567024028"><ele>49.5</ele><time>2026-05-01T08:46:00Z</time></trkpt><trkpt lat="43.21008945481815" lon="10.611766325302069"><ele>50.25</ele><time>2026-05-01T08:46:01Z</time></trkpt><trkpt lat="43.21021865007855" lon="10.611747948157147"><ele>51.0</ele><time>2026-05-01T08:46:02Z</time></trkpt><trkpt lat="43.21034798560689" lon="10.611724025838395"><ele>51.0</ele><time>2026-05-01T08:46:03Z</time></trkpt><trkpt lat="43.21046821090139" lon="10.611700993809787"><ele>51.0</ele><time>2026-05-01T08:46:04Z</time></trkpt><trkpt lat="43.21058782447922" lon="10.61167961813764"><ele>51.0</ele><time>2026-05-01T08:46:05Z</time></trkpt><trkpt lat="43.21070998886112" lon="10.611656449387107"><ele>51.0</ele><time>2026-05-01T08:46:06Z</time></trkpt><trkpt lat="43.210852800234065" lon="10.611630619881847"><ele>52.0</ele><time>2026-05-01T08:46:07Z</time></trkpt><trkpt lat="43.21099720460045" lon="10.61160577234613"><ele>53.0</ele><time>2026-05-01T08:46:08Z</time></trkpt><trkpt lat="43.211127674069175" lon="10.611585280137268"><ele>54.0</ele><time>2026-05-01T08:46:09Z</time></trkpt><trkpt lat="43.21125385028935" lon="10.611561493786807"><ele>55.0</ele><time>2026-05-01T08:46:10Z</time></trkpt><trkpt lat="43.21137878244427" lon="10.611533979852224"><ele>55.5</ele><time>2026-05-01T08:46:11Z</time></trkpt><trkpt lat="43.21150108261279" lon="10.611509348197007"><ele>56.0</ele><time>2026-05-01T08:46:12Z</time></trkpt><trkpt lat="43.21162061820024" lon="10.611490878335015"><ele>56.5</ele><time>2026-05-01T08:46:13Z</time></trkpt><trkpt lat="43.21173683230028" lon="10.611474031326475"><ele>57.0</ele><time>2026-05-01T08:46:14Z</time></trkpt><trkpt lat="43.211845515514455" lon="10.611456344093902"><ele>57.0</ele><time>2026-05-01T08:46:15Z</time></trkpt><trkpt lat="43.211947384374305" lon="10.611442611286455"><ele>57.0</ele><time>2026-05-01T08:46:16Z</time></trkpt><trkpt lat="43.212044263409005" lon="10.611427323251325"><ele>57.0</ele><time>2026-05-01T08:46:17Z</time></trkpt><trkpt lat="43.21214379348878" lon="10.611408764236083"><ele>57.0</ele><time>2026-05-01T08:46:18Z</time></trkpt><trkpt lat="43.21224196428108" lon="10.611390939159971"><ele>57.0</ele><time>2026-05-01T08:46:19Z</time></trkpt><trkpt lat="43.21234180337689" lon="10.61137837787003"><ele>58.0</ele><time>2026-05-01T08:46:20Z</time></trkpt><trkpt lat="43.212439952542816" lon="10.611360778809168"><ele>59.0</ele><time>2026-05-01T08:46:21Z</time></trkpt><trkpt lat="43.212540062133435" lon="10.611340357733708"><ele>60.0</ele><time>2026-05-01T08:46:22Z</time></trkpt><trkpt lat="43.212643563245926" lon="10.611318633303432"><ele>61.0</ele><time>2026-05-01T08:46:23Z</time></trkpt><trkpt lat="43.21275217055007" lon="10.611301729329469"><ele>62.0</ele><time>2026-05-01T08:46:24Z</time></trkpt><trkpt lat="43.21286525587748" lon="10.611282106183006"><ele>62.0</ele><time>2026-05-01T08:46:25Z</time></trkpt><trkpt lat="43.21298138449285" lon="10.611258356138604"><ele>62.0</ele><time>2026-05-01T08:46:26Z</time></trkpt><trkpt lat="43.21310063194814" lon="10.611235343695103"><ele>62.0</ele><time>2026-05-01T08:46:27Z</time></trkpt><trkpt lat="43.21322582933921" lon="10.6112115868303"><ele>62.0</ele><time>2026-05-01T08:46:28Z</time></trkpt><trkpt lat="43.21335163180879" lon="10.611192647260019"><ele>62.0</ele><time>2026-05-01T08:46:29Z</time></trkpt><trkpt lat="43.213479592834986" lon="10.611169524607504"><ele>62.0</ele><time>2026-05-01T08:46:30Z</time></trkpt><trkpt lat="43.21360900325426" lon="10.61114703766019"><ele>62.0</ele><time>2026-05-01T08:46:31Z</time></trkpt><trkpt lat="43.2137370413027" lon="10.611123125173739"><ele>62.0</ele><time>2026-05-01T08:46:32Z</time></trkpt><trkpt lat="43.21386889507964" lon="10.611096442992373"><ele>62.25</ele><time>2026-05-01T08:46:33Z</time></trkpt><trkpt lat="43.21399843177012" lon="10.611074193748099"><ele>62.5</ele><time>2026-05-01T08:46:34Z</time></trkpt><trkpt lat="43.21413059427391" lon="10.61104900176737"><ele>62.75</ele><time>2026-05-01T08:46:35Z</time></trkpt><trkpt lat="43.21426774186888" lon="10.611023896111991"><ele>63.0</ele><time>2026-05-01T08:46:36Z</time></trkpt><trkpt lat="43.214409452209914" lon="10.610998609531176"><ele>63.0</ele><time>2026-05-01T08:46:37Z</time></trkpt><trkpt lat="43.21455591741568" lon="10.610974107067955"><ele>63.0</ele><time>2026-05-01T08:46:38Z</time></trkpt><trkpt lat="43.21471158933168" lon="10.610949943386556"><ele>63.0</ele><time>2026-05-01T08:46:39Z</time></trkpt><trkpt lat="43.21485614400436" lon="10.610922429471852"><ele>62.75</ele><time>2026-05-01T08:46:40Z</time></trkpt><trkpt lat="43.21499199686356" lon="10.610890472384524"><ele>62.5</ele><time>2026-05-01T08:46:41Z</time></trkpt><trkpt lat="43.215131243110065" lon="10.610857300887096"><ele>62.25</ele><time>2026-05-01T08:46:42Z</time></trkpt><trkpt lat="43.2152547593342" lon="10.610833838368057"><ele>62.0</ele><time>2026-05-01T08:46:43Z</time></trkpt><trkpt lat="43.2153811386118" lon="10.61080798373349"><ele>62.0</ele><time>2026-05-01T08:46:44Z</time></trkpt><trkpt lat="43.21551324736409" lon="10.610789636606478"><ele>62.0</ele><time>2026-05-01T08:46:45Z</time></trkpt><trkpt lat="43.21564280901133" lon="10.61077255310803"><ele>62.0</ele><time>2026-05-01T08:46:46Z</time></trkpt><trkpt lat="43.215767891268165" lon="10.610751221023593"><ele>62.0</ele><time>2026-05-01T08:46:47Z</time></trkpt><trkpt lat="43.21589137741906" lon="10.610724272563559"><ele>62.5</ele><time>2026-05-01T08:46:48Z</time></trkpt><trkpt lat="43.2160161305241" lon="10.610699669470847"><ele>63.0</ele><time>2026-05-01T08:46:49Z</time></trkpt><trkpt lat="43.216145088554896" lon="10.610676558063728"><ele>63.5</ele><time>2026-05-01T08:46:50Z</time></trkpt><trkpt lat="43.21627852872559" lon="10.610656083852898"><ele>64.0</ele><time>2026-05-01T08:46:51Z</time></trkpt><trkpt lat="43.21641261542553" lon="10.610630500449329"><ele>64.5</ele><time>2026-05-01T08:46:52Z</time></trkpt><trkpt lat="43.216546401927495" lon="10.610599904713169"><ele>65.0</ele><time>2026-05-01T08:46:53Z</time></trkpt><trkpt lat="43.216668326929764" lon="10.610575803421126"><ele>65.5</ele><time>2026-05-01T08:46:54Z</time></trkpt><trkpt lat="43.21678131764308" lon="10.610556271879451"><ele>66.0</ele><time>2026-05-01T08:46:55Z</time></trkpt><trkpt lat="43.2169008024909" lon="10.610542003912158"><ele>66.0</ele><time>2026-05-01T08:46:56Z</time></trkpt><trkpt lat="43.21701734200206" lon="10.610522062607371"><ele>66.0</ele><time>2026-05-01T08:46:57Z</time></trkpt><trkpt lat="43.217133694720964" lon="10.610505457724623"><ele>66.0</ele><time>2026-05-01T08:46:58Z</time></trkpt><trkpt lat="43.21725373703378" lon="10.610483853493047"><ele>66.0</ele><time>2026-05-01T08:46:59Z</time></trkpt><trkpt lat="43.21736897131017" lon="10.610461843752946"><ele>66.0</ele><time>2026-05-01T08:47:00Z</time></trkpt><trkpt lat="43.21748497108795" lon="10.610449713444424"><ele>66.0</ele><time>2026-05-01T08:47:01Z</time></trkpt><trkpt lat="43.21761022944208" lon="10.61042444814623"><ele>66.0</ele><time>2026-05-01T08:47:02Z</time></trkpt><trkpt lat="43.21772896025475" lon="10.610403963517543"><ele>66.0</ele><time>2026-05-01T08:47:03Z</time></trkpt><trkpt lat="43.21784383576879" lon="10.610380228161993"><ele>66.0</ele><time>2026-05-01T08:47:04Z</time></trkpt><trkpt lat="43.217954824902804" lon="10.610356759253072"><ele>66.0</ele><time>2026-05-01T08:47:05Z</time></trkpt><trkpt lat="43.21806670276331" lon="10.610342607716907"><ele>66.0</ele><time>2026-05-01T08:47:06Z</time></trkpt><trkpt lat="43.21818189004704" lon="10.610325249105236"><ele>66.0</ele><time>2026-05-01T08:47:07Z</time></trkpt><trkpt lat="43.21830055336024" lon="10.610297190083731"><ele>64.5</ele><time>2026-05-01T08:47:08Z</time></trkpt><trkpt lat="43.21842074375192" lon="10.610277302247855"><ele>63.0</ele><time>2026-05-01T08:47:09Z</time></trkpt><trkpt lat="43.21854704242075" lon="10.610258072446356"><ele>61.5</ele><time>2026-05-01T08:47:10Z</time></trkpt><trkpt lat="43.21866570820282" lon="10.61023509376093"><ele>60.0</ele><time>2026-05-01T08:47:11Z</time></trkpt><trkpt lat="43.21878943299013" lon="10.610213805822154"><ele>60.0</ele><time>2026-05-01T08:47:12Z</time></trkpt><trkpt lat="43.21890535571399" lon="10.610192048403912"><ele>60.0</ele><time>2026-05-01T08:47:13Z</time></trkpt><trkpt lat="43.219018429815705" lon="10.610166223567573"><ele>60.0</ele><time>2026-05-01T08:47:14Z</time></trkpt><trkpt lat="43.219139078986224" lon="10.610146317339767"><ele>60.0</ele><time>2026-05-01T08:47:15Z</time></trkpt><trkpt lat="43.21926306574868" lon="10.61012977065165"><ele>59.75</ele><time>2026-05-01T08:47:16Z</time></trkpt><trkpt lat="43.21938849495611" lon="10.610110302417624"><ele>59.5</ele><time>2026-05-01T08:47:17Z</time></trkpt><trkpt lat="43.219518736250926" lon="10.610084922356814"><ele>59.25</ele><time>2026-05-01T08:47:18Z</time></trkpt><trkpt lat="43.21964375524019" lon="10.610057214316475"><ele>59.0</ele><time>2026-05-01T08:47:19Z</time></trkpt><trkpt lat="43.21976667967822" lon="10.6100367710389"><ele>59.5</ele><time>2026-05-01T08:47:20Z</time></trkpt><trkpt lat="43.21989829046347" lon="10.610031863789823"><ele>60.0</ele><time>2026-05-01T08:47:21Z</time></trkpt><trkpt lat="43.22002081974273" lon="10.609989828620499"><ele>60.5</ele><time>2026-05-01T08:47:22Z</time></trkpt><trkpt lat="43.22015045517019" lon="10.609977527772559"><ele>61.0</ele><time>2026-05-01T08:47:23Z</time></trkpt><trkpt lat="43.22027092794345" lon="10.609955704338425"><ele>61.0</ele><time>2026-05-01T08:47:24Z</time></trkpt><trkpt lat="43.22039735321765" lon="10.609940489311157"><ele>61.0</ele><time>2026-05-01T08:47:25Z</time></trkpt><trkpt lat="43.2205207430854" lon="10.609913326027602"><ele>61.0</ele><time>2026-05-01T08:47:26Z</time></trkpt><trkpt lat="43.22065245529116" lon="10.609887614146725"><ele>61.0</ele><time>2026-05-01T08:47:27Z</time></trkpt><trkpt lat="43.2207825721533" lon="10.609858885195095"><ele>61.25</ele><time>2026-05-01T08:47:28Z</time></trkpt><trkpt lat="43.22091392909131" lon="10.609828864987813"><ele>61.5</ele><time>2026-05-01T08:47:29Z</time></trkpt><trkpt lat="43.22104707597999" lon="10.609800161969398"><ele>61.75</ele><time>2026-05-01T08:47:30Z</time></trkpt><trkpt lat="43.221180443495285" lon="10.609780591660204"><ele>62.0</ele><time>2026-05-01T08:47:31Z</time></trkpt><trkpt lat="43.22131368722386" lon="10.609762199861924"><ele>62.0</ele><time>2026-05-01T08:47:32Z</time></trkpt><trkpt lat="43.22144645756845" lon="10.609746356029719"><ele>62.0</ele><time>2026-05-01T08:47:33Z</time></trkpt><trkpt lat="43.22157422113687" lon="10.609722064661316"><ele>62.0</ele><time>2026-05-01T08:47:34Z</time></trkpt><trkpt lat="43.221691450135204" lon="10.609694306711004"><ele>62.0</ele><time>2026-05-01T08:47:35Z</time></trkpt><trkpt lat="43.221808745436284" lon="10.60968166958242"><ele>62.0</ele><time>2026-05-01T08:47:36Z</time></trkpt><trkpt lat="43.22192928168609" lon="10.609660350028372"><ele>62.0</ele><time>2026-05-01T08:47:37Z</time></trkpt><trkpt lat="43.22204290809756" lon="10.609636016294306"><ele>62.0</ele><time>2026-05-01T08:47:38Z</time></trkpt><trkpt lat="43.22215621886851" lon="10.609615747903087"><ele>62.0</ele><time>2026-05-01T08:47:39Z</time></trkpt><trkpt lat="43.22225963199175" lon="10.609599334371671"><ele>61.8</ele><time>2026-05-01T08:47:40Z</time></trkpt><trkpt lat="43.222355721545576" lon="10.609584527718615"><ele>61.6</ele><time>2026-05-01T08:47:41Z</time></trkpt><trkpt lat="43.222450325974265" lon="10.609570510542959"><ele>61.39999999999999</ele><time>2026-05-01T08:47:42Z</time></trkpt><trkpt lat="43.222537477105526" lon="10.609558548842022"><ele>61.199999999999996</ele><time>2026-05-01T08:47:43Z</time></trkpt><trkpt lat="43.22261807027522" lon="10.609519410892922"><ele>61.0</ele><time>2026-05-01T08:47:44Z</time></trkpt><trkpt lat="43.222694443293264" lon="10.60944616459751"><ele>60.8</ele><time>2026-05-01T08:47:45Z</time></trkpt><trkpt lat="43.22277673695088" lon="10.609351429851348"><ele>60.599999999999994</ele><time>2026-05-01T08:47:46Z</time></trkpt><trkpt lat="43.22285765169648" lon="10.609273711088754"><ele>60.4</ele><time>2026-05-01T08:47:47Z</time></trkpt><trkpt lat="43.22294879282347" lon="10.6092124560332"><ele>60.2</ele><time>2026-05-01T08:47:48Z</time></trkpt><trkpt lat="43.22304284908431" lon="10.609172759678916"><ele>60.0</ele><time>2026-05-01T08:47:49Z</time></trkpt><trkpt lat="43.22314857516052" lon="10.609139894774575"><ele>59.8</ele><time>2026-05-01T08:47:50Z</time></trkpt><trkpt lat="43.223259365641965" lon="10.609124419561855"><ele>59.6</ele><time>2026-05-01T08:47:51Z</time></trkpt><trkpt lat="43.22336596954525" lon="10.609124754706528"><ele>59.400000000000006</ele><time>2026-05-01T08:47:52Z</time></trkpt><trkpt lat="43.223467866820194" lon="10.609114780516153"><ele>59.2</ele><time>2026-05-01T08:47:53Z</time></trkpt><trkpt lat="43.22354927902553" lon="10.60907628098744"><ele>59.0</ele><time>2026-05-01T08:47:54Z</time></trkpt><trkpt lat="43.22361015995536" lon="10.6090182133597"><ele>59.0</ele><time>2026-05-01T08:47:55Z</time></trkpt><trkpt lat="43.223656183955164" lon="10.608919830589016"><ele>59.00000000000001</ele><time>2026-05-01T08:47:56Z</time></trkpt><trkpt lat="43.22368809361168" lon="10.608791129891904"><ele>59.00000000000001</ele><time>2026-05-01T08:47:57Z</time></trkpt><trkpt lat="43.22370645782176" lon="10.608657167446578"><ele>59.0</ele><time>2026-05-01T08:47:58Z</time></trkpt><trkpt lat="43.22372494313526" lon="10.60853200349095"><ele>59.0</ele><time>2026-05-01T08:47:59Z</time></trkpt><trkpt lat="43.223758456143635" lon="10.608413850407267"><ele>58.50000000000001</ele><time>2026-05-01T08:48:00Z</time></trkpt><trkpt lat="43.223810242341514" lon="10.608323650490858"><ele>58.0</ele><time>2026-05-01T08:48:01Z</time></trkpt><trkpt lat="43.22387970018731" lon="10.60827547309898"><ele>57.5</ele><time>2026-05-01T08:48:02Z</time></trkpt><trkpt lat="43.22396665857259" lon="10.608255092333193"><ele>57.0</ele><time>2026-05-01T08:48:03Z</time></trkpt><trkpt lat="43.2240363085741" lon="10.608295446315303"><ele>56.50000000000001</ele><time>2026-05-01T08:48:04Z</time></trkpt><trkpt lat="43.22410700987926" lon="10.608296476562318"><ele>56.0</ele><time>2026-05-01T08:48:05Z</time></trkpt><trkpt lat="43.224196952166466" lon="10.60829752215106"><ele>56.0</ele><time>2026-05-01T08:48:06Z</time></trkpt><trkpt lat="43.22426759913393" lon="10.60817678718925"><ele>55.99999999999999</ele><time>2026-05-01T08:48:07Z</time></trkpt><trkpt lat="43.224313376887814" lon="10.60808431064531"><ele>55.99999999999999</ele><time>2026-05-01T08:48:08Z</time></trkpt><trkpt lat="43.22436216353324" lon="10.6079876679403"><ele>56.0</ele><time>2026-05-01T08:48:09Z</time></trkpt><trkpt lat="43.224412783477845" lon="10.60788946178756"><ele>56.0</ele><time>2026-05-01T08:48:10Z</time></trkpt><trkpt lat="43.22447109581424" lon="10.607753681572284"><ele>55.8</ele><time>2026-05-01T08:48:11Z</time></trkpt><trkpt lat="43.22455103067916" lon="10.607628573141513"><ele>55.599999999999994</ele><time>2026-05-01T08:48:12Z</time></trkpt><trkpt lat="43.224623355939286" lon="10.607519319199715"><ele>55.4</ele><time>2026-05-01T08:48:13Z</time></trkpt><trkpt lat="43.22469369191864" lon="10.607408469535748"><ele>55.2</ele><time>2026-05-01T08:48:14Z</time></trkpt><trkpt lat="43.22476014523023" lon="10.607315947455708"><ele>55.0</ele><time>2026-05-01T08:48:15Z</time></trkpt><trkpt lat="43.224830946105435" lon="10.607203024234826"><ele>54.8</ele><time>2026-05-01T08:48:16Z</time></trkpt><trkpt lat="43.2248969160948" lon="10.607088319954629"><ele>54.6</ele><time>2026-05-01T08:48:17Z</time></trkpt><trkpt lat="43.224955868463454" lon="10.60696414297927"><ele>54.400000000000006</ele><time>2026-05-01T08:48:18Z</time></trkpt><trkpt lat="43.225005430932136" lon="10.606841026841014"><ele>54.2</ele><time>2026-05-01T08:48:19Z</time></trkpt><trkpt lat="43.22504388352081" lon="10.606708461910072"><ele>54.0</ele><time>2026-05-01T08:48:20Z</time></trkpt><trkpt lat="43.22507086462094" lon="10.606575963655835"><ele>54.0</ele><time>2026-05-01T08:48:21Z</time></trkpt><trkpt lat="43.225087340768546" lon="10.606422801688144"><ele>54.00000000000001</ele><time>2026-05-01T08:48:22Z</time></trkpt><trkpt lat="43.22509090185797" lon="10.606269502463302"><ele>54.00000000000001</ele><time>2026-05-01T08:48:23Z</time></trkpt><trkpt lat="43.22508593474981" lon="10.606118484138143"><ele>54.0</ele><time>2026-05-01T08:48:24Z</time></trkpt><trkpt lat="43.22509190136159" lon="10.605967616528904"><ele>54.0</ele><time>2026-05-01T08:48:25Z</time></trkpt><trkpt lat="43.225085127001535" lon="10.60581073856273"><ele>54.0</ele><time>2026-05-01T08:48:26Z</time></trkpt><trkpt lat="43.225078490926855" lon="10.6056511708696"><ele>54.0</ele><time>2026-05-01T08:48:27Z</time></trkpt><trkpt lat="43.22507066956578" lon="10.605493568376874"><ele>54.0</ele><time>2026-05-01T08:48:28Z</time></trkpt><trkpt lat="43.22506837547761" lon="10.605337287412912"><ele>54.0</ele><time>2026-05-01T08:48:29Z</time></trkpt><trkpt lat="43.22506565861139" lon="10.605184816608604"><ele>53.75</ele><time>2026-05-01T08:48:30Z</time></trkpt><trkpt lat="43.22506282228762" lon="10.605028613669964"><ele>53.5</ele><time>2026-05-01T08:48:31Z</time></trkpt><trkpt lat="43.22505015567715" lon="10.60487352503787"><ele>53.25</ele><time>2026-05-01T08:48:32Z</time></trkpt><trkpt lat="43.22504344655632" lon="10.604729008841904"><ele>53.0</ele><time>2026-05-01T08:48:33Z</time></trkpt><trkpt lat="43.22503732906912" lon="10.604566870469649"><ele>52.25</ele><time>2026-05-01T08:48:34Z</time></trkpt><trkpt lat="43.22503838412279" lon="10.604425774186053"><ele>51.5</ele><time>2026-05-01T08:48:35Z</time></trkpt><trkpt lat="43.225036378746836" lon="10.604266103424763"><ele>50.75</ele><time>2026-05-01T08:48:36Z</time></trkpt><trkpt lat="43.2250541383734" lon="10.604080636940644"><ele>50.0</ele><time>2026-05-01T08:48:37Z</time></trkpt><trkpt lat="43.22507451688817" lon="10.603900892068053"><ele>50.0</ele><time>2026-05-01T08:48:38Z</time></trkpt><trkpt lat="43.22510443782199" lon="10.603735444389041"><ele>50.0</ele><time>2026-05-01T08:48:39Z</time></trkpt><trkpt lat="43.22514433400397" lon="10.603572870532608"><ele>50.0</ele><time>2026-05-01T08:48:40Z</time></trkpt><trkpt lat="43.22517892157544" lon="10.603413626958346"><ele>50.0</ele><time>2026-05-01T08:48:41Z</time></trkpt><trkpt lat="43.225209419549586" lon="10.60326127003584"><ele>49.8</ele><time>2026-05-01T08:48:42Z</time></trkpt><trkpt lat="43.22524687171493" lon="10.603118537668719"><ele>49.6</ele><time>2026-05-01T08:48:43Z</time></trkpt><trkpt lat="43.22528734181616" lon="10.602979841491058"><ele>49.400000000000006</ele><time>2026-05-01T08:48:44Z</time></trkpt><trkpt lat="43.225335968470375" lon="10.602852606322006"><ele>49.2</ele><time>2026-05-01T08:48:45Z</time></trkpt><trkpt lat="43.225396706487366" lon="10.602757793230781"><ele>49.0</ele><time>2026-05-01T08:48:46Z</time></trkpt><trkpt lat="43.225460152873204" lon="10.602674180751498"><ele>49.0</ele><time>2026-05-01T08:48:47Z</time></trkpt><trkpt lat="43.22554758266354" lon="10.602593932980906"><ele>49.0</ele><time>2026-05-01T08:48:48Z</time></trkpt><trkpt lat="43.22565360444563" lon="10.602535442185578"><ele>49.0</ele><time>2026-05-01T08:48:49Z</time></trkpt><trkpt lat="43.225765114375676" lon="10.602488962139581"><ele>49.0</ele><time>2026-05-01T08:48:50Z</time></trkpt><trkpt lat="43.225868564486724" lon="10.602434220723424"><ele>49.0</ele><time>2026-05-01T08:48:51Z</time></trkpt><trkpt lat="43.22595739553216" lon="10.602393213707348"><ele>49.0</ele><time>2026-05-01T08:48:52Z</time></trkpt><trkpt lat="43.2260351050379" lon="10.60234269968063"><ele>49.0</ele><time>2026-05-01T08:48:53Z</time></trkpt><trkpt lat="43.226111831263125" lon="10.602271565122477"><ele>49.0</ele><time>2026-05-01T08:48:54Z</time></trkpt><trkpt lat="43.226173979391795" lon="10.602175796363989"><ele>49.0</ele><time>2026-05-01T08:48:55Z</time></trkpt><trkpt lat="43.22623665726153" lon="10.602077236175765"><ele>49.0</ele><time>2026-05-01T08:48:56Z</time></trkpt><trkpt lat="43.22626843818735" lon="10.60195305809686"><ele>48.6</ele><time>2026-05-01T08:48:57Z</time></trkpt><trkpt lat="43.226288023910676" lon="10.601813687571347"><ele>48.2</ele><time>2026-05-01T08:48:58Z</time></trkpt><trkpt lat="43.226298125002025" lon="10.601672600255526"><ele>47.800000000000004</ele><time>2026-05-01T08:48:59Z</time></trkpt><trkpt lat="43.22629945199376" lon="10.601527214654247"><ele>47.400000000000006</ele><time>2026-05-01T08:49:00Z</time></trkpt><trkpt lat="43.226286625547324" lon="10.60137977271505"><ele>47.0</ele><time>2026-05-01T08:49:01Z</time></trkpt><trkpt lat="43.22625061696218" lon="10.601231869351063"><ele>47.25</ele><time>2026-05-01T08:49:02Z</time></trkpt><trkpt lat="43.22619497759926" lon="10.601087811294349"><ele>47.5</ele><time>2026-05-01T08:49:03Z</time></trkpt><trkpt lat="43.226133058541926" lon="10.600949767055749"><ele>47.75</ele><time>2026-05-01T08:49:04Z</time></trkpt><trkpt lat="43.226073182423214" lon="10.600820931422273"><ele>48.0</ele><time>2026-05-01T08:49:05Z</time></trkpt><trkpt lat="43.226003409347335" lon="10.600708799166938"><ele>48.0</ele><time>2026-05-01T08:49:06Z</time></trkpt><trkpt lat="43.22596680402679" lon="10.600582851175236"><ele>48.0</ele><time>2026-05-01T08:49:07Z</time></trkpt><trkpt lat="43.225931965017544" lon="10.600452854409262"><ele>48.0</ele><time>2026-05-01T08:49:08Z</time></trkpt><trkpt lat="43.22591584242356" lon="10.600304724170487"><ele>48.0</ele><time>2026-05-01T08:49:09Z</time></trkpt><trkpt lat="43.22592866575139" lon="10.600159992414806"><ele>48.0</ele><time>2026-05-01T08:49:10Z</time></trkpt><trkpt lat="43.22596459541753" lon="10.60002113519453"><ele>48.0</ele><time>2026-05-01T08:49:11Z</time></trkpt><trkpt lat="43.22600747379559" lon="10.599884877339646"><ele>48.0</ele><time>2026-05-01T08:49:12Z</time></trkpt><trkpt lat="43.226038243475756" lon="10.599750117534471"><ele>48.0</ele><time>2026-05-01T08:49:13Z</time></trkpt><trkpt lat="43.226076834803884" lon="10.599633496029801"><ele>48.0</ele><time>2026-05-01T08:49:14Z</time></trkpt><trkpt lat="43.2261178581654" lon="10.599519483435277"><ele>48.0</ele><time>2026-05-01T08:49:15Z</time></trkpt><trkpt lat="43.22618242655262" lon="10.599416454572996"><ele>47.8</ele><time>2026-05-01T08:49:16Z</time></trkpt><trkpt lat="43.226270195830395" lon="10.59933000396914"><ele>47.599999999999994</ele><time>2026-05-01T08:49:17Z</time></trkpt><trkpt lat="43.226371004282" lon="10.599291655776652"><ele>47.400000000000006</ele><time>2026-05-01T08:49:18Z</time></trkpt><trkpt lat="43.22647090177716" lon="10.599260517815196"><ele>47.2</ele><time>2026-05-01T08:49:19Z</time></trkpt><trkpt lat="43.226579367199115" lon="10.59924231812747"><ele>47.0</ele><time>2026-05-01T08:49:20Z</time></trkpt><trkpt lat="43.22667643685928" lon="10.599215564278174"><ele>47.0</ele><time>2026-05-01T08:49:21Z</time></trkpt><trkpt lat="43.22679337327967" lon="10.599211855102244"><ele>47.0</ele><time>2026-05-01T08:49:22Z</time></trkpt><trkpt lat="43.226906501790104" lon="10.599204488862375"><ele>47.0</ele><time>2026-05-01T08:49:23Z</time></trkpt><trkpt lat="43.227025296737004" lon="10.599200704875477"><ele>47.0</ele><time>2026-05-01T08:49:24Z</time></trkpt><trkpt lat="43.227137489273964" lon="10.599194735689757"><ele>47.0</ele><time>2026-05-01T08:49:25Z</time></trkpt><trkpt lat="43.22725798140819" lon="10.599186206289355"><ele>47.0</ele><time>2026-05-01T08:49:26Z</time></trkpt><trkpt lat="43.2273755832704" lon="10.59917733945035"><ele>47.0</ele><time>2026-05-01T08:49:27Z</time></trkpt><trkpt lat="43.22749044294944" lon="10.5991694940293"><ele>47.0</ele><time>2026-05-01T08:49:28Z</time></trkpt><trkpt lat="43.227594439061384" lon="10.599145183138027"><ele>47.0</ele><time>2026-05-01T08:49:29Z</time></trkpt><trkpt lat="43.22771288110966" lon="10.599138448900069"><ele>47.0</ele><time>2026-05-01T08:49:30Z</time></trkpt><trkpt lat="43.22783008793885" lon="10.599126713664754"><ele>47.0</ele><time>2026-05-01T08:49:31Z</time></trkpt><trkpt lat="43.22794881141096" lon="10.59911692787434"><ele>47.0</ele><time>2026-05-01T08:49:32Z</time></trkpt><trkpt lat="43.2280827642995" lon="10.599101606643307"><ele>47.0</ele><time>2026-05-01T08:49:33Z</time></trkpt><trkpt lat="43.2282311191566" lon="10.599081937447634"><ele>47.0</ele><time>2026-05-01T08:49:34Z</time></trkpt><trkpt lat="43.2283558681254" lon="10.599067071602182"><ele>47.0</ele><time>2026-05-01T08:49:35Z</time></trkpt><trkpt lat="43.22847042543044" lon="10.5990591172991"><ele>47.0</ele><time>2026-05-01T08:49:36Z</time></trkpt><trkpt lat="43.22857530796884" lon="10.599076175400025"><ele>47.0</ele><time>2026-05-01T08:49:37Z</time></trkpt><trkpt lat="43.228660998829994" lon="10.599137115012407"><ele>47.0</ele><time>2026-05-01T08:49:38Z</time></trkpt><trkpt lat="43.228742657062845" lon="10.599237615770145"><ele>47.0</ele><time>2026-05-01T08:49:39Z</time></trkpt><trkpt lat="43.228822540375766" lon="10.599372185012207"><ele>47.0</ele><time>2026-05-01T08:49:40Z</time></trkpt><trkpt lat="43.22890510421738" lon="10.599522578477654"><ele>47.25</ele><time>2026-05-01T08:49:41Z</time></trkpt><trkpt lat="43.22899017947755" lon="10.599681897656513"><ele>47.5</ele><time>2026-05-01T08:49:42Z</time></trkpt><trkpt lat="43.2290686564144" lon="10.599825282224424"><ele>47.75</ele><time>2026-05-01T08:49:43Z</time></trkpt><trkpt lat="43.22914946774937" lon="10.599976766619028"><ele>48.0</ele><time>2026-05-01T08:49:44Z</time></trkpt><trkpt lat="43.22923792683616" lon="10.600118846541141"><ele>48.0</ele><time>2026-05-01T08:49:45Z</time></trkpt><trkpt lat="43.229326672713064" lon="10.600261780498773"><ele>48.0</ele><time>2026-05-01T08:49:46Z</time></trkpt><trkpt lat="43.22940375709489" lon="10.60040103218964"><ele>48.0</ele><time>2026-05-01T08:49:47Z</time></trkpt><trkpt lat="43.229476201935846" lon="10.600534384355537"><ele>48.0</ele><time>2026-05-01T08:49:48Z</time></trkpt><trkpt lat="43.22955003843934" lon="10.600668176659038"><ele>48.75</ele><time>2026-05-01T08:49:49Z</time></trkpt><trkpt lat="43.2296268709797" lon="10.60080127269155"><ele>49.5</ele><time>2026-05-01T08:49:50Z</time></trkpt><trkpt lat="43.22971241312068" lon="10.600925848485835"><ele>50.25</ele><time>2026-05-01T08:49:51Z</time></trkpt><trkpt lat="43.2298088000779" lon="10.601014669379582"><ele>51.0</ele><time>2026-05-01T08:49:52Z</time></trkpt><trkpt lat="43.22990608315829" lon="10.601074164081746"><ele>51.25</ele><time>2026-05-01T08:49:53Z</time></trkpt><trkpt lat="43.230019891359625" lon="10.601089725747098"><ele>51.5</ele><time>2026-05-01T08:49:54Z</time></trkpt><trkpt lat="43.230137357432106" lon="10.601074995456077"><ele>51.75</ele><time>2026-05-01T08:49:55Z</time></trkpt><trkpt lat="43.23025887905226" lon="10.601041656407432"><ele>52.0</ele><time>2026-05-01T08:49:56Z</time></trkpt><trkpt lat="43.230412323081204" lon="10.600991039432985"><ele>52.0</ele><time>2026-05-01T08:49:57Z</time></trkpt><trkpt lat="43.230559758104455" lon="10.600947513212468"><ele>52.0</ele><time>2026-05-01T08:49:58Z</time></trkpt><trkpt lat="43.2306823691888" lon="10.600907605058044"><ele>52.0</ele><time>2026-05-01T08:49:59Z</time></trkpt><trkpt lat="43.23079696765556" lon="10.600871595723303"><ele>52.0</ele><time>2026-05-01T08:50:00Z</time></trkpt><trkpt lat="43.23089723728711" lon="10.600846274513597"><ele>52.400000000000006</ele><time>2026-05-01T08:50:01Z</time></trkpt><trkpt lat="43.23098612430465" lon="10.60081588177039"><ele>52.800000000000004</ele><time>2026-05-01T08:50:02Z</time></trkpt><trkpt lat="43.23108764410054" lon="10.600782259176146"><ele>53.2</ele><time>2026-05-01T08:50:03Z</time></trkpt><trkpt lat="43.231192430835236" lon="10.600747928668397"><ele>53.6</ele><time>2026-05-01T08:50:04Z</time></trkpt><trkpt lat="43.23128412893054" lon="10.60071298540739"><ele>54.0</ele><time>2026-05-01T08:50:05Z</time></trkpt><trkpt lat="43.23137780682859" lon="10.6006851132571"><ele>54.0</ele><time>2026-05-01T08:50:06Z</time></trkpt><trkpt lat="43.231466126839834" lon="10.600660154982506"><ele>54.0</ele><time>2026-05-01T08:50:07Z</time></trkpt><trkpt lat="43.23153468165347" lon="10.60062197123403"><ele>54.0</ele><time>2026-05-01T08:50:08Z</time></trkpt><trkpt lat="43.23164182452528" lon="10.600595137590457"><ele>54.0</ele><time>2026-05-01T08:50:10Z</time></trkpt><trkpt lat="43.23171970883004" lon="10.600580867113113"><ele>54.0</ele><time>2026-05-01T08:50:13Z</time></trkpt><trkpt lat="43.23177018753284" lon="10.600672719610873"><ele>54.0</ele><time>2026-05-01T08:50:16Z</time></trkpt><trkpt lat="43.231780488982125" lon="10.600802617961746"><ele>54.0</ele><time>2026-05-01T08:50:17Z</time></trkpt><trkpt lat="43.23178549998976" lon="10.600920467899192"><ele>54.00000000000001</ele><time>2026-05-01T08:50:18Z</time></trkpt><trkpt lat="43.23182677215475" lon="10.601054734422403"><ele>54.00000000000001</ele><time>2026-05-01T08:50:19Z</time></trkpt><trkpt lat="43.23185074624444" lon="10.601207589424352"><ele>54.0</ele><time>2026-05-01T08:50:20Z</time></trkpt><trkpt lat="43.23187065438273" lon="10.601369873363101"><ele>54.0</ele><time>2026-05-01T08:50:21Z</time></trkpt><trkpt lat="43.23190013095071" lon="10.601534420125212"><ele>54.0</ele><time>2026-05-01T08:50:22Z</time></trkpt><trkpt lat="43.2319301160935" lon="10.601703546454733"><ele>54.0</ele><time>2026-05-01T08:50:23Z</time></trkpt><trkpt lat="43.231955234952636" lon="10.601880795936358"><ele>54.0</ele><time>2026-05-01T08:50:24Z</time></trkpt><trkpt lat="43.23198546306701" lon="10.602050144732367"><ele>54.0</ele><time>2026-05-01T08:50:25Z</time></trkpt><trkpt lat="43.2320081415394" lon="10.602230982763478"><ele>54.25</ele><time>2026-05-01T08:50:26Z</time></trkpt><trkpt lat="43.23202850389027" lon="10.60240567562601"><ele>54.5</ele><time>2026-05-01T08:50:27Z</time></trkpt><trkpt lat="43.23205246395078" lon="10.602574969677011"><ele>54.75</ele><time>2026-05-01T08:50:28Z</time></trkpt><trkpt lat="43.232077186284" lon="10.60273657324481"><ele>55.0</ele><time>2026-05-01T08:50:29Z</time></trkpt><trkpt lat="43.23210200591666" lon="10.602905715040801"><ele>55.25</ele><time>2026-05-01T08:50:30Z</time></trkpt><trkpt lat="43.23211859339055" lon="10.603069638077155"><ele>55.5</ele><time>2026-05-01T08:50:31Z</time></trkpt><trkpt lat="43.23214682907273" lon="10.603248012058721"><ele>55.75</ele><time>2026-05-01T08:50:32Z</time></trkpt><trkpt lat="43.232182461051266" lon="10.603432995231298"><ele>56.0</ele><time>2026-05-01T08:50:33Z</time></trkpt><trkpt lat="43.23220930415135" lon="10.60360743206189"><ele>56.5</ele><time>2026-05-01T08:50:34Z</time></trkpt><trkpt lat="43.23222250004034" lon="10.603793882459172"><ele>57.0</ele><time>2026-05-01T08:50:35Z</time></trkpt><trkpt lat="43.23225042418489" lon="10.603987970197164"><ele>57.5</ele><time>2026-05-01T08:50:36Z</time></trkpt><trkpt lat="43.23229433891888" lon="10.604163535352779"><ele>58.0</ele><time>2026-05-01T08:50:37Z</time></trkpt><trkpt lat="43.232318297894004" lon="10.604355404613383"><ele>58.75</ele><time>2026-05-01T08:50:38Z</time></trkpt><trkpt lat="43.23234181071908" lon="10.60454289479233"><ele>59.5</ele><time>2026-05-01T08:50:39Z</time></trkpt><trkpt lat="43.23236338914936" lon="10.604723915604199"><ele>60.25</ele><time>2026-05-01T08:50:40Z</time></trkpt><trkpt lat="43.23238554471469" lon="10.604904887438158"><ele>61.0</ele><time>2026-05-01T08:50:41Z</time></trkpt><trkpt lat="43.23241264175396" lon="10.605076591523666"><ele>61.0</ele><time>2026-05-01T08:50:42Z</time></trkpt><trkpt lat="43.23244702021209" lon="10.605230692036967"><ele>61.0</ele><time>2026-05-01T08:50:43Z</time></trkpt><trkpt lat="43.23245739029049" lon="10.605401615579531"><ele>61.0</ele><time>2026-05-01T08:50:44Z</time></trkpt><trkpt lat="43.23248309611943" lon="10.605581705552963"><ele>61.0</ele><time>2026-05-01T08:50:45Z</time></trkpt><trkpt lat="43.232508324877834" lon="10.605753271867048"><ele>61.5</ele><time>2026-05-01T08:50:46Z</time></trkpt><trkpt lat="43.23253684538109" lon="10.605934366781186"><ele>62.0</ele><time>2026-05-01T08:50:47Z</time></trkpt><trkpt lat="43.23255893667199" lon="10.606119289728703"><ele>62.5</ele><time>2026-05-01T08:50:48Z</time></trkpt><trkpt lat="43.232580832158426" lon="10.606300648555335"><ele>63.0</ele><time>2026-05-01T08:50:49Z</time></trkpt><trkpt lat="43.2326124135963" lon="10.606484551248844"><ele>63.25</ele><time>2026-05-01T08:50:50Z</time></trkpt><trkpt lat="43.23264309857224" lon="10.606656118735122"><ele>63.5</ele><time>2026-05-01T08:50:51Z</time></trkpt><trkpt lat="43.23267194581549" lon="10.60685575908956"><ele>63.75</ele><time>2026-05-01T08:50:52Z</time></trkpt><trkpt lat="43.23270577284778" lon="10.607067502535395"><ele>64.0</ele><time>2026-05-01T08:50:53Z</time></trkpt><trkpt lat="43.232732968932304" lon="10.607272458979182"><ele>64.33333333333333</ele><time>2026-05-01T08:50:54Z</time></trkpt><trkpt lat="43.23276878014138" lon="10.607484674125448"><ele>64.66666666666667</ele><time>2026-05-01T08:50:55Z</time></trkpt><trkpt lat="43.23280194911046" lon="10.607700012732991"><ele>65.0</ele><time>2026-05-01T08:50:56Z</time></trkpt><trkpt lat="43.232831024519406" lon="10.60791331843545"><ele>66.5</ele><time>2026-05-01T08:50:57Z</time></trkpt><trkpt lat="43.23286195527364" lon="10.608120093701041"><ele>68.0</ele><time>2026-05-01T08:50:58Z</time></trkpt><trkpt lat="43.232887191636244" lon="10.608316947825756"><ele>69.5</ele><time>2026-05-01T08:50:59Z</time></trkpt><trkpt lat="43.23290630678828" lon="10.60850785834862"><ele>71.0</ele><time>2026-05-01T08:51:00Z</time></trkpt><trkpt lat="43.23293873336906" lon="10.608712512019082"><ele>72.0</ele><time>2026-05-01T08:51:01Z</time></trkpt><trkpt lat="43.23297706947214" lon="10.608915255401788"><ele>73.0</ele><time>2026-05-01T08:51:02Z</time></trkpt><trkpt lat="43.233000028476866" lon="10.609104110050286"><ele>74.0</ele><time>2026-05-01T08:51:03Z</time></trkpt><trkpt lat="43.233018187897464" lon="10.609289652798894"><ele>75.0</ele><time>2026-05-01T08:51:04Z</time></trkpt><trkpt lat="43.233043132230954" lon="10.609461816176141"><ele>76.0</ele><time>2026-05-01T08:51:05Z</time></trkpt><trkpt lat="43.23308089570164" lon="10.609637360575764"><ele>77.0</ele><time>2026-05-01T08:51:06Z</time></trkpt><trkpt lat="43.23310561629406" lon="10.609812542630252"><ele>78.0</ele><time>2026-05-01T08:51:07Z</time></trkpt><trkpt lat="43.233116714663424" lon="10.60996967479337"><ele>79.0</ele><time>2026-05-01T08:51:08Z</time></trkpt><trkpt lat="43.233136440107224" lon="10.610105817909021"><ele>79.2</ele><time>2026-05-01T08:51:09Z</time></trkpt><trkpt lat="43.233154128335414" lon="10.610227900365203"><ele>79.4</ele><time>2026-05-01T08:51:10Z</time></trkpt><trkpt lat="43.2331682738718" lon="10.610325531473242"><ele>79.6</ele><time>2026-05-01T08:51:11Z</time></trkpt><trkpt lat="43.23318679769815" lon="10.610453381096738"><ele>79.8</ele><time>2026-05-01T08:51:13Z</time></trkpt><trkpt lat="43.23320330172844" lon="10.610567290765472"><ele>80.0</ele><time>2026-05-01T08:51:17Z</time></trkpt><trkpt lat="43.23334729314332" lon="10.610498582487601"><ele>81.0</ele><time>2026-05-01T08:51:19Z</time></trkpt><trkpt lat="43.233430153903974" lon="10.61041394591129"><ele>82.0</ele><time>2026-05-01T08:51:20Z</time></trkpt><trkpt lat="43.233514116636236" lon="10.610386239646447"><ele>83.0</ele><time>2026-05-01T08:51:21Z</time></trkpt><trkpt lat="43.23363905357298" lon="10.61042657624719"><ele>84.0</ele><time>2026-05-01T08:51:22Z</time></trkpt><trkpt lat="43.23377059896902" lon="10.610451100334515"><ele>84.0</ele><time>2026-05-01T08:51:23Z</time></trkpt><trkpt lat="43.23390969261161" lon="10.610477560067887"><ele>84.0</ele><time>2026-05-01T08:51:24Z</time></trkpt><trkpt lat="43.23404711985442" lon="10.610504301095325"><ele>84.0</ele><time>2026-05-01T08:51:25Z</time></trkpt><trkpt lat="43.23418548637197" lon="10.61052557187443"><ele>84.0</ele><time>2026-05-01T08:51:26Z</time></trkpt><trkpt lat="43.23431593511917" lon="10.61055040335391"><ele>83.75</ele><time>2026-05-01T08:51:27Z</time></trkpt><trkpt lat="43.234436340691836" lon="10.610575089392702"><ele>83.5</ele><time>2026-05-01T08:51:28Z</time></trkpt><trkpt lat="43.234550052388755" lon="10.61059765720867"><ele>83.25</ele><time>2026-05-01T08:51:29Z</time></trkpt><trkpt lat="43.23466698044879" lon="10.610603201941974"><ele>83.0</ele><time>2026-05-01T08:51:30Z</time></trkpt><trkpt lat="43.23479053219533" lon="10.610625665498768"><ele>81.80000000000001</ele><time>2026-05-01T08:51:31Z</time></trkpt><trkpt lat="43.234909473912715" lon="10.610669242193543"><ele>80.60000000000001</ele><time>2026-05-01T08:51:32Z</time></trkpt><trkpt lat="43.23503409686569" lon="10.610691474646679"><ele>79.4</ele><time>2026-05-01T08:51:33Z</time></trkpt><trkpt lat="43.23513511653571" lon="10.610690595277664"><ele>78.2</ele><time>2026-05-01T08:51:34Z</time></trkpt><trkpt lat="43.23521953635037" lon="10.610701986639791"><ele>77.0</ele><time>2026-05-01T08:51:35Z</time></trkpt><trkpt lat="43.235294463215816" lon="10.610737752928731"><ele>77.0</ele><time>2026-05-01T08:51:36Z</time></trkpt><trkpt lat="43.2353778745351" lon="10.610733195544293"><ele>77.0</ele><time>2026-05-01T08:51:37Z</time></trkpt><trkpt lat="43.23546057256583" lon="10.610756750864846"><ele>77.0</ele><time>2026-05-01T08:51:38Z</time></trkpt><trkpt lat="43.235545897322694" lon="10.610755462294959"><ele>77.0</ele><time>2026-05-01T08:51:39Z</time></trkpt><trkpt lat="43.23563462307683" lon="10.610746526378502"><ele>77.0</ele><time>2026-05-01T08:51:40Z</time></trkpt><trkpt lat="43.23570925623328" lon="10.610715133014283"><ele>77.0</ele><time>2026-05-01T08:51:41Z</time></trkpt><trkpt lat="43.23577403923266" lon="10.610658025424788"><ele>75.83333333333334</ele><time>2026-05-01T08:51:42Z</time></trkpt><trkpt lat="43.23584130358891" lon="10.61060400853426"><ele>74.66666666666667</ele><time>2026-05-01T08:51:43Z</time></trkpt><trkpt lat="43.2359004952299" lon="10.610496083237061"><ele>73.5</ele><time>2026-05-01T08:51:44Z</time></trkpt><trkpt lat="43.23593625258466" lon="10.610418888148502"><ele>72.33333333333333</ele><time>2026-05-01T08:51:45Z</time></trkpt><trkpt lat="43.23598683905249" lon="10.610300124402599"><ele>71.16666666666666</ele><time>2026-05-01T08:51:46Z</time></trkpt><trkpt lat="43.23605943732081" lon="10.61019779450342"><ele>70.0</ele><time>2026-05-01T08:51:47Z</time></trkpt><trkpt lat="43.236187463570644" lon="10.61011742710688"><ele>69.75</ele><time>2026-05-01T08:51:48Z</time></trkpt><trkpt lat="43.23628697567833" lon="10.610013179081283"><ele>69.5</ele><time>2026-05-01T08:51:49Z</time></trkpt><trkpt lat="43.236372052316554" lon="10.609909434032947"><ele>69.25</ele><time>2026-05-01T08:51:50Z</time></trkpt><trkpt lat="43.236454520574775" lon="10.60981924209681"><ele>69.0</ele><time>2026-05-01T08:51:51Z</time></trkpt><trkpt lat="43.23652907693184" lon="10.609686611998494"><ele>68.75</ele><time>2026-05-01T08:51:52Z</time></trkpt><trkpt lat="43.236598393648556" lon="10.609559630602828"><ele>68.5</ele><time>2026-05-01T08:51:53Z</time></trkpt><trkpt lat="43.236679116370226" lon="10.609430463308154"><ele>68.25</ele><time>2026-05-01T08:51:54Z</time></trkpt><trkpt lat="43.23677203776203" lon="10.60931613352242"><ele>68.0</ele><time>2026-05-01T08:51:55Z</time></trkpt><trkpt lat="43.23686494918003" lon="10.609208107792684"><ele>68.4</ele><time>2026-05-01T08:51:56Z</time></trkpt><trkpt lat="43.236964278713636" lon="10.609116571818253"><ele>68.8</ele><time>2026-05-01T08:51:57Z</time></trkpt><trkpt lat="43.23706245135715" lon="10.609031665076172"><ele>69.2</ele><time>2026-05-01T08:51:58Z</time></trkpt><trkpt lat="43.23716066477083" lon="10.608960247513304"><ele>69.6</ele><time>2026-05-01T08:51:59Z</time></trkpt><trkpt lat="43.23724841844503" lon="10.608911450153927"><ele>70.0</ele><time>2026-05-01T08:52:00Z</time></trkpt><trkpt lat="43.23733214298714" lon="10.608861757010478"><ele>70.0</ele><time>2026-05-01T08:52:01Z</time></trkpt><trkpt lat="43.23740755034335" lon="10.60881992709974"><ele>70.0</ele><time>2026-05-01T08:52:02Z</time></trkpt><trkpt lat="43.23748340125516" lon="10.608776128007236"><ele>70.0</ele><time>2026-05-01T08:52:03Z</time></trkpt><trkpt lat="43.237554645768554" lon="10.608727866743163"><ele>70.0</ele><time>2026-05-01T08:52:04Z</time></trkpt><trkpt lat="43.23763680964145" lon="10.608682840495417"><ele>70.0</ele><time>2026-05-01T08:52:05Z</time></trkpt><trkpt lat="43.23772288420664" lon="10.608635120947271"><ele>70.0</ele><time>2026-05-01T08:52:06Z</time></trkpt><trkpt lat="43.23780975063151" lon="10.608598677463013"><ele>69.8</ele><time>2026-05-01T08:52:07Z</time></trkpt><trkpt lat="43.23788918975879" lon="10.608572564369297"><ele>69.6</ele><time>2026-05-01T08:52:08Z</time></trkpt><trkpt lat="43.23797996169176" lon="10.608545601635164"><ele>69.4</ele><time>2026-05-01T08:52:09Z</time></trkpt><trkpt lat="43.23807684621145" lon="10.6085163801395"><ele>69.2</ele><time>2026-05-01T08:52:10Z</time></trkpt><trkpt lat="43.23817607255282" lon="10.608489536752703"><ele>69.0</ele><time>2026-05-01T08:52:11Z</time></trkpt><trkpt lat="43.23827510298301" lon="10.608464634171401"><ele>70.4</ele><time>2026-05-01T08:52:12Z</time></trkpt><trkpt lat="43.238378641693004" lon="10.608443255994063"><ele>71.80000000000001</ele><time>2026-05-01T08:52:13Z</time></trkpt><trkpt lat="43.23848265378638" lon="10.608418301122876"><ele>73.19999999999999</ele><time>2026-05-01T08:52:14Z</time></trkpt><trkpt lat="43.23858857089039" lon="10.60838991328267"><ele>74.6</ele><time>2026-05-01T08:52:15Z</time></trkpt><trkpt lat="43.23869592581044" lon="10.608364727882645"><ele>76.0</ele><time>2026-05-01T08:52:16Z</time></trkpt><trkpt lat="43.238807218776444" lon="10.608339453256882"><ele>76.0</ele><time>2026-05-01T08:52:17Z</time></trkpt><trkpt lat="43.238917894128875" lon="10.608313561015283"><ele>76.0</ele><time>2026-05-01T08:52:18Z</time></trkpt><trkpt lat="43.23902638637376" lon="10.608283661615774"><ele>76.0</ele><time>2026-05-01T08:52:19Z</time></trkpt><trkpt lat="43.239139175295506" lon="10.608248490812649"><ele>76.0</ele><time>2026-05-01T08:52:20Z</time></trkpt><trkpt lat="43.23924790839075" lon="10.6082011368"><ele>76.75</ele><time>2026-05-01T08:52:21Z</time></trkpt><trkpt lat="43.239346166444186" lon="10.60812378604883"><ele>77.5</ele><time>2026-05-01T08:52:22Z</time></trkpt><trkpt lat="43.23943970175155" lon="10.608014792444816"><ele>78.25</ele><time>2026-05-01T08:52:23Z</time></trkpt><trkpt lat="43.23953596591231" lon="10.607904650838641"><ele>79.0</ele><time>2026-05-01T08:52:24Z</time></trkpt><trkpt lat="43.23963641159987" lon="10.607790126796553"><ele>79.0</ele><time>2026-05-01T08:52:25Z</time></trkpt><trkpt lat="43.23974370283106" lon="10.607666711508763"><ele>79.0</ele><time>2026-05-01T08:52:26Z</time></trkpt><trkpt lat="43.23985706077392" lon="10.607538348134328"><ele>79.0</ele><time>2026-05-01T08:52:27Z</time></trkpt><trkpt lat="43.23997468181922" lon="10.607412872153926"><ele>79.0</ele><time>2026-05-01T08:52:28Z</time></trkpt><trkpt lat="43.24009683158752" lon="10.607287433173411"><ele>77.0</ele><time>2026-05-01T08:52:29Z</time></trkpt><trkpt lat="43.24021903083108" lon="10.607156844706665"><ele>75.0</ele><time>2026-05-01T08:52:30Z</time></trkpt><trkpt lat="43.24033709778846" lon="10.607025068175787"><ele>73.0</ele><time>2026-05-01T08:52:31Z</time></trkpt><trkpt lat="43.24045644369812" lon="10.606899228288906"><ele>72.5</ele><time>2026-05-01T08:52:32Z</time></trkpt><trkpt lat="43.24057231272627" lon="10.606773186287088"><ele>72.0</ele><time>2026-05-01T08:52:33Z</time></trkpt><trkpt lat="43.24068829338383" lon="10.60665112659726"><ele>71.5</ele><time>2026-05-01T08:52:34Z</time></trkpt><trkpt lat="43.240795563647836" lon="10.606534336795365"><ele>71.0</ele><time>2026-05-01T08:52:35Z</time></trkpt><trkpt lat="43.24091076971609" lon="10.606413473876911"><ele>69.75</ele><time>2026-05-01T08:52:36Z</time></trkpt><trkpt lat="43.241016194444754" lon="10.606288890256609"><ele>68.5</ele><time>2026-05-01T08:52:37Z</time></trkpt><trkpt lat="43.24112865021685" lon="10.60616346673784"><ele>67.25</ele><time>2026-05-01T08:52:38Z</time></trkpt><trkpt lat="43.24124065735819" lon="10.606040306708865"><ele>66.0</ele><time>2026-05-01T08:52:39Z</time></trkpt><trkpt lat="43.24134794167016" lon="10.605909442367725"><ele>66.25</ele><time>2026-05-01T08:52:40Z</time></trkpt><trkpt lat="43.24143986882133" lon="10.605758764003838"><ele>66.5</ele><time>2026-05-01T08:52:41Z</time></trkpt><trkpt lat="43.24150617519596" lon="10.605595145425852"><ele>66.75</ele><time>2026-05-01T08:52:42Z</time></trkpt><trkpt lat="43.24156503717666" lon="10.605426339278239"><ele>67.0</ele><time>2026-05-01T08:52:43Z</time></trkpt><trkpt lat="43.24161711750744" lon="10.605250407241472"><ele>67.0</ele><time>2026-05-01T08:52:44Z</time></trkpt><trkpt lat="43.2416825025202" lon="10.605091031564836"><ele>67.0</ele><time>2026-05-01T08:52:45Z</time></trkpt><trkpt lat="43.24177260992173" lon="10.60496350638008"><ele>67.0</ele><time>2026-05-01T08:52:46Z</time></trkpt><trkpt lat="43.24188227657173" lon="10.604857412512766"><ele>67.0</ele><time>2026-05-01T08:52:47Z</time></trkpt><trkpt lat="43.24200477211346" lon="10.604772572915603"><ele>67.0</ele><time>2026-05-01T08:52:48Z</time></trkpt><trkpt lat="43.24212930439614" lon="10.60469122560644"><ele>67.0</ele><time>2026-05-01T08:52:49Z</time></trkpt><trkpt lat="43.24224344290802" lon="10.60460147232967"><ele>67.0</ele><time>2026-05-01T08:52:50Z</time></trkpt><trkpt lat="43.24235301001679" lon="10.604491325855998"><ele>67.0</ele><time>2026-05-01T08:52:51Z</time></trkpt><trkpt lat="43.24246007406349" lon="10.60436753460255"><ele>67.5</ele><time>2026-05-01T08:52:52Z</time></trkpt><trkpt lat="43.24256113440231" lon="10.604226392322225"><ele>68.0</ele><time>2026-05-01T08:52:53Z</time></trkpt><trkpt lat="43.242670331599406" lon="10.604091766117055"><ele>68.5</ele><time>2026-05-01T08:52:54Z</time></trkpt><trkpt lat="43.242781516292816" lon="10.603964159521936"><ele>69.0</ele><time>2026-05-01T08:52:55Z</time></trkpt><trkpt lat="43.242887070778785" lon="10.603823151501917"><ele>69.0</ele><time>2026-05-01T08:52:56Z</time></trkpt><trkpt lat="43.24299826126738" lon="10.603686199043615"><ele>69.0</ele><time>2026-05-01T08:52:57Z</time></trkpt><trkpt lat="43.24310041471878" lon="10.60356491012615"><ele>69.0</ele><time>2026-05-01T08:52:58Z</time></trkpt><trkpt lat="43.24320359297773" lon="10.603445360130776"><ele>69.0</ele><time>2026-05-01T08:52:59Z</time></trkpt><trkpt lat="43.24330918263307" lon="10.603321247293968"><ele>67.25</ele><time>2026-05-01T08:53:00Z</time></trkpt><trkpt lat="43.2434033627018" lon="10.603196798343664"><ele>65.5</ele><time>2026-05-01T08:53:01Z</time></trkpt><trkpt lat="43.24348830184602" lon="10.60306661527288"><ele>63.75</ele><time>2026-05-01T08:53:02Z</time></trkpt><trkpt lat="43.24356342169533" lon="10.60292974261361"><ele>62.0</ele><time>2026-05-01T08:53:03Z</time></trkpt><trkpt lat="43.24362875413598" lon="10.602782024254822"><ele>62.0</ele><time>2026-05-01T08:53:04Z</time></trkpt><trkpt lat="43.24370648232244" lon="10.602646446633917"><ele>62.0</ele><time>2026-05-01T08:53:05Z</time></trkpt><trkpt lat="43.243803613379484" lon="10.602538142237911"><ele>62.0</ele><time>2026-05-01T08:53:06Z</time></trkpt><trkpt lat="43.24390322906982" lon="10.602435037915143"><ele>62.0</ele><time>2026-05-01T08:53:07Z</time></trkpt><trkpt lat="43.24401108281463" lon="10.602344842883996"><ele>58.75</ele><time>2026-05-01T08:53:08Z</time></trkpt><trkpt lat="43.24412540500429" lon="10.602270594561164"><ele>55.5</ele><time>2026-05-01T08:53:09Z</time></trkpt><trkpt lat="43.24424925384046" lon="10.602214679975887"><ele>52.25</ele><time>2026-05-01T08:53:10Z</time></trkpt><trkpt lat="43.244371947788075" lon="10.60215425398387"><ele>49.0</ele><time>2026-05-01T08:53:11Z</time></trkpt><trkpt lat="43.24446970001942" lon="10.602077099946829"><ele>49.0</ele><time>2026-05-01T08:53:12Z</time></trkpt><trkpt lat="43.24455761583842" lon="10.601978496224618"><ele>49.0</ele><time>2026-05-01T08:53:13Z</time></trkpt><trkpt lat="43.24464254736442" lon="10.601873085416752"><ele>49.0</ele><time>2026-05-01T08:53:14Z</time></trkpt><trkpt lat="43.24472288391852" lon="10.601765805271711"><ele>49.0</ele><time>2026-05-01T08:53:15Z</time></trkpt><trkpt lat="43.24480300262812" lon="10.60165447140157"><ele>48.49999999999999</ele><time>2026-05-01T08:53:16Z</time></trkpt><trkpt lat="43.24487638366389" lon="10.601555037423958"><ele>48.0</ele><time>2026-05-01T08:53:17Z</time></trkpt><trkpt lat="43.24493118331435" lon="10.601477730075839"><ele>47.5</ele><time>2026-05-01T08:53:18Z</time></trkpt><trkpt lat="43.24498219266331" lon="10.601417370680185"><ele>47.0</ele><time>2026-05-01T08:53:19Z</time></trkpt><trkpt lat="43.245024147922585" lon="10.601335243633269"><ele>46.5</ele><time>2026-05-01T08:53:20Z</time></trkpt><trkpt lat="43.24506716885054" lon="10.601237281293146"><ele>46.0</ele><time>2026-05-01T08:53:21Z</time></trkpt><trkpt lat="43.24511110829228" lon="10.60111701546755"><ele>45.4</ele><time>2026-05-01T08:53:22Z</time></trkpt><trkpt lat="43.24515818783249" lon="10.600986759795683"><ele>44.8</ele><time>2026-05-01T08:53:23Z</time></trkpt><trkpt lat="43.245197402055915" lon="10.600854106440838"><ele>44.199999999999996</ele><time>2026-05-01T08:53:24Z</time></trkpt><trkpt lat="43.245225997437615" lon="10.60071217440448"><ele>43.599999999999994</ele><time>2026-05-01T08:53:25Z</time></trkpt><trkpt lat="43.245256285226695" lon="10.600580932985869"><ele>43.0</ele><time>2026-05-01T08:53:26Z</time></trkpt><trkpt lat="43.24527261071844" lon="10.600426255427688"><ele>43.0</ele><time>2026-05-01T08:53:27Z</time></trkpt><trkpt lat="43.245285558072155" lon="10.600270388713648"><ele>43.0</ele><time>2026-05-01T08:53:28Z</time></trkpt><trkpt lat="43.24528335056807" lon="10.600104619497024"><ele>43.0</ele><time>2026-05-01T08:53:29Z</time></trkpt><trkpt lat="43.245294735068555" lon="10.59994712777739"><ele>43.0</ele><time>2026-05-01T08:53:30Z</time></trkpt><trkpt lat="43.24530433532008" lon="10.5998027399108"><ele>43.0</ele><time>2026-05-01T08:53:31Z</time></trkpt><trkpt lat="43.2453126883823" lon="10.599664328846938"><ele>43.0</ele><time>2026-05-01T08:53:32Z</time></trkpt><trkpt lat="43.245323624967135" lon="10.599521236279122"><ele>43.0</ele><time>2026-05-01T08:53:33Z</time></trkpt><trkpt lat="43.24534647311343" lon="10.599376261644576"><ele>43.0</ele><time>2026-05-01T08:53:34Z</time></trkpt><trkpt lat="43.245379175398774" lon="10.599237331756182"><ele>43.0</ele><time>2026-05-01T08:53:35Z</time></trkpt><trkpt lat="43.245404386393346" lon="10.599090348170018"><ele>43.0</ele><time>2026-05-01T08:53:36Z</time></trkpt><trkpt lat="43.245413265869814" lon="10.598944628764508"><ele>43.0</ele><time>2026-05-01T08:53:37Z</time></trkpt><trkpt lat="43.24541428546054" lon="10.598798565920251"><ele>43.0</ele><time>2026-05-01T08:53:38Z</time></trkpt><trkpt lat="43.24541558049852" lon="10.59863520102402"><ele>43.0</ele><time>2026-05-01T08:53:39Z</time></trkpt><trkpt lat="43.24542535400941" lon="10.598484501869489"><ele>43.0</ele><time>2026-05-01T08:53:40Z</time></trkpt><trkpt lat="43.24545756300892" lon="10.598334746244205"><ele>43.0</ele><time>2026-05-01T08:53:41Z</time></trkpt><trkpt lat="43.24550305967562" lon="10.598176683852412"><ele>43.0</ele><time>2026-05-01T08:53:42Z</time></trkpt><trkpt lat="43.24554476822834" lon="10.59801377845192"><ele>43.0</ele><time>2026-05-01T08:53:43Z</time></trkpt><trkpt lat="43.245590331014846" lon="10.597853342268525"><ele>43.0</ele><time>2026-05-01T08:53:44Z</time></trkpt><trkpt lat="43.245630741856175" lon="10.5977083749812"><ele>42.0</ele><time>2026-05-01T08:53:45Z</time></trkpt><trkpt lat="43.24566805219264" lon="10.597560658023358"><ele>41.0</ele><time>2026-05-01T08:53:46Z</time></trkpt><trkpt lat="43.24570517158123" lon="10.597404568034785"><ele>40.0</ele><time>2026-05-01T08:53:47Z</time></trkpt><trkpt lat="43.24574613116394" lon="10.597238290860881"><ele>39.0</ele><time>2026-05-01T08:53:48Z</time></trkpt><trkpt lat="43.24578964680064" lon="10.597076172365098"><ele>39.2</ele><time>2026-05-01T08:53:49Z</time></trkpt><trkpt lat="43.24582853744593" lon="10.596927113803558"><ele>39.4</ele><time>2026-05-01T08:53:50Z</time></trkpt><trkpt lat="43.2458553619971" lon="10.59678328180971"><ele>39.6</ele><time>2026-05-01T08:53:51Z</time></trkpt><trkpt lat="43.245866062872466" lon="10.596645486054737"><ele>39.8</ele><time>2026-05-01T08:53:52Z</time></trkpt><trkpt lat="43.245864865705826" lon="10.596491638325746"><ele>40.0</ele><time>2026-05-01T08:53:53Z</time></trkpt><trkpt lat="43.24583480817105" lon="10.59631122979307"><ele>40.25</ele><time>2026-05-01T08:53:54Z</time></trkpt><trkpt lat="43.24581887818945" lon="10.596129389004034"><ele>40.5</ele><time>2026-05-01T08:53:55Z</time></trkpt><trkpt lat="43.245800038440755" lon="10.595953495486622"><ele>40.75</ele><time>2026-05-01T08:53:56Z</time></trkpt><trkpt lat="43.245772485060904" lon="10.59576614410475"><ele>41.0</ele><time>2026-05-01T08:53:57Z</time></trkpt><trkpt lat="43.24573330631028" lon="10.59556495951411"><ele>41.0</ele><time>2026-05-01T08:53:58Z</time></trkpt><trkpt lat="43.24569856693363" lon="10.595382807295644"><ele>41.0</ele><time>2026-05-01T08:53:59Z</time></trkpt><trkpt lat="43.245681336195666" lon="10.595222372595645"><ele>41.0</ele><time>2026-05-01T08:54:00Z</time></trkpt><trkpt lat="43.24566902170139" lon="10.595088364932023"><ele>41.0</ele><time>2026-05-01T08:54:01Z</time></trkpt><trkpt lat="43.245679910046775" lon="10.59497983663402"><ele>41.0</ele><time>2026-05-01T08:54:02Z</time></trkpt><trkpt lat="43.24571415447702" lon="10.59488416542678"><ele>40.8</ele><time>2026-05-01T08:54:03Z</time></trkpt><trkpt lat="43.24577190563926" lon="10.594808662927335"><ele>40.599999999999994</ele><time>2026-05-01T08:54:04Z</time></trkpt><trkpt lat="43.24585446079589" lon="10.594764267270978"><ele>40.4</ele><time>2026-05-01T08:54:05Z</time></trkpt><trkpt lat="43.24594935513577" lon="10.59473980447347"><ele>40.2</ele><time>2026-05-01T08:54:06Z</time></trkpt><trkpt lat="43.24605156382025" lon="10.594741247149152"><ele>40.0</ele><time>2026-05-01T08:54:07Z</time></trkpt><trkpt lat="43.24616828002173" lon="10.59475536068401"><ele>40.0</ele><time>2026-05-01T08:54:08Z</time></trkpt><trkpt lat="43.24627833253205" lon="10.594776363903447"><ele>40.0</ele><time>2026-05-01T08:54:09Z</time></trkpt><trkpt lat="43.246385844841114" lon="10.594803382099734"><ele>40.0</ele><time>2026-05-01T08:54:10Z</time></trkpt><trkpt lat="43.246510901568236" lon="10.594819996893357"><ele>40.0</ele><time>2026-05-01T08:54:11Z</time></trkpt><trkpt lat="43.24663336951336" lon="10.594829106291577"><ele>39.75</ele><time>2026-05-01T08:54:12Z</time></trkpt><trkpt lat="43.24675803325446" lon="10.594836335403603"><ele>39.5</ele><time>2026-05-01T08:54:13Z</time></trkpt><trkpt lat="43.24687367710629" lon="10.594842379139585"><ele>39.25</ele><time>2026-05-01T08:54:14Z</time></trkpt><trkpt lat="43.24698798958565" lon="10.59485853910634"><ele>39.0</ele><time>2026-05-01T08:54:15Z</time></trkpt><trkpt lat="43.24709998057428" lon="10.594891339074424"><ele>39.0</ele><time>2026-05-01T08:54:16Z</time></trkpt><trkpt lat="43.24721043754872" lon="10.594929426525315"><ele>39.0</ele><time>2026-05-01T08:54:17Z</time></trkpt><trkpt lat="43.24731291041752" lon="10.594980091873255"><ele>39.0</ele><time>2026-05-01T08:54:18Z</time></trkpt><trkpt lat="43.24742096074222" lon="10.595046224787207"><ele>39.0</ele><time>2026-05-01T08:54:19Z</time></trkpt><trkpt lat="43.24751362864371" lon="10.595132603365904"><ele>39.8</ele><time>2026-05-01T08:54:20Z</time></trkpt><trkpt lat="43.247595266770276" lon="10.595238774459407"><ele>40.599999999999994</ele><time>2026-05-01T08:54:21Z</time></trkpt><trkpt lat="43.24766541087431" lon="10.595361503168817"><ele>41.4</ele><time>2026-05-01T08:54:22Z</time></trkpt><trkpt lat="43.24773802797804" lon="10.595469121291039"><ele>42.199999999999996</ele><time>2026-05-01T08:54:23Z</time></trkpt><trkpt lat="43.247821362272155" lon="10.595554755338442"><ele>43.0</ele><time>2026-05-01T08:54:24Z</time></trkpt><trkpt lat="43.247914557806425" lon="10.595626865852426"><ele>43.8</ele><time>2026-05-01T08:54:25Z</time></trkpt><trkpt lat="43.24800942057692" lon="10.595696660450697"><ele>44.599999999999994</ele><time>2026-05-01T08:54:26Z</time></trkpt><trkpt lat="43.248096674576495" lon="10.595781294046795"><ele>45.400000000000006</ele><time>2026-05-01T08:54:27Z</time></trkpt><trkpt lat="43.24816646190803" lon="10.595889219896625"><ele>46.2</ele><time>2026-05-01T08:54:28Z</time></trkpt><trkpt lat="43.24822533851939" lon="10.59601275191135"><ele>47.0</ele><time>2026-05-01T08:54:29Z</time></trkpt><trkpt lat="43.24829466838583" lon="10.596130779748933"><ele>48.8</ele><time>2026-05-01T08:54:30Z</time></trkpt><trkpt lat="43.248383032333784" lon="10.596218502840044"><ele>50.6</ele><time>2026-05-01T08:54:31Z</time></trkpt><trkpt lat="43.248485359616396" lon="10.596267633705503"><ele>52.39999999999999</ele><time>2026-05-01T08:54:32Z</time></trkpt><trkpt lat="43.24859337628086" lon="10.596299027628353"><ele>54.199999999999996</ele><time>2026-05-01T08:54:33Z</time></trkpt><trkpt lat="43.248709520502956" lon="10.596304635279145"><ele>56.0</ele><time>2026-05-01T08:54:34Z</time></trkpt><trkpt lat="43.248833888023135" lon="10.596291769540903"><ele>56.25</ele><time>2026-05-01T08:54:35Z</time></trkpt><trkpt lat="43.24895938526421" lon="10.59627408486605"><ele>56.5</ele><time>2026-05-01T08:54:36Z</time></trkpt><trkpt lat="43.2490769367478" lon="10.596259555675562"><ele>56.75</ele><time>2026-05-01T08:54:37Z</time></trkpt><trkpt lat="43.249190274574765" lon="10.596246913877527"><ele>57.0</ele><time>2026-05-01T08:54:38Z</time></trkpt><trkpt lat="43.24929675597294" lon="10.596237101942949"><ele>57.0</ele><time>2026-05-01T08:54:39Z</time></trkpt><trkpt lat="43.249397341372706" lon="10.596228741612324"><ele>57.0</ele><time>2026-05-01T08:54:40Z</time></trkpt><trkpt lat="43.249499542422924" lon="10.596219106846698"><ele>57.0</ele><time>2026-05-01T08:54:41Z</time></trkpt><trkpt lat="43.24959993337748" lon="10.596208507519014"><ele>57.0</ele><time>2026-05-01T08:54:42Z</time></trkpt><trkpt lat="43.24970086699252" lon="10.596196427383298"><ele>57.0</ele><time>2026-05-01T08:54:43Z</time></trkpt><trkpt lat="43.24980532227892" lon="10.596189539286222"><ele>56.75</ele><time>2026-05-01T08:54:44Z</time></trkpt><trkpt lat="43.249913067459" lon="10.596189614293202"><ele>56.5</ele><time>2026-05-01T08:54:45Z</time></trkpt><trkpt lat="43.25002738974471" lon="10.596201977126961"><ele>56.25</ele><time>2026-05-01T08:54:46Z</time></trkpt><trkpt lat="43.25016160816029" lon="10.596222742092879"><ele>56.0</ele><time>2026-05-01T08:54:47Z</time></trkpt><trkpt lat="43.25030475761853" lon="10.596248137100385"><ele>56.0</ele><time>2026-05-01T08:54:48Z</time></trkpt><trkpt lat="43.25043519117947" lon="10.596276031118776"><ele>56.0</ele><time>2026-05-01T08:54:49Z</time></trkpt><trkpt lat="43.25055452672672" lon="10.596279479356829"><ele>56.0</ele><time>2026-05-01T08:54:50Z</time></trkpt><trkpt lat="43.25068040219767" lon="10.596248161715144"><ele>56.0</ele><time>2026-05-01T08:54:51Z</time></trkpt><trkpt lat="43.25081601552894" lon="10.596187973295084"><ele>55.5</ele><time>2026-05-01T08:54:52Z</time></trkpt><trkpt lat="43.25095875790807" lon="10.596128525181317"><ele>55.0</ele><time>2026-05-01T08:54:53Z</time></trkpt><trkpt lat="43.25110546299976" lon="10.596076429830088"><ele>54.5</ele><time>2026-05-01T08:54:54Z</time></trkpt><trkpt lat="43.25124280285242" lon="10.596051247425718"><ele>54.0</ele><time>2026-05-01T08:54:55Z</time></trkpt><trkpt lat="43.25137297783668" lon="10.59603374271863"><ele>53.25</ele><time>2026-05-01T08:54:56Z</time></trkpt><trkpt lat="43.25150693076841" lon="10.595995380719254"><ele>52.5</ele><time>2026-05-01T08:54:57Z</time></trkpt><trkpt lat="43.25164224634243" lon="10.59596593567849"><ele>51.75</ele><time>2026-05-01T08:54:58Z</time></trkpt><trkpt lat="43.251776237930436" lon="10.595933365706921"><ele>51.0</ele><time>2026-05-01T08:54:59Z</time></trkpt><trkpt lat="43.251896388789135" lon="10.595911417646354"><ele>51.0</ele><time>2026-05-01T08:55:00Z</time></trkpt><trkpt lat="43.25201284347944" lon="10.595891412447765"><ele>51.0</ele><time>2026-05-01T08:55:01Z</time></trkpt><trkpt lat="43.25213134468958" lon="10.595866992698289"><ele>51.0</ele><time>2026-05-01T08:55:02Z</time></trkpt><trkpt lat="43.25223839726869" lon="10.595838066302434"><ele>51.0</ele><time>2026-05-01T08:55:03Z</time></trkpt><trkpt lat="43.25234500627727" lon="10.59581442281157"><ele>50.8</ele><time>2026-05-01T08:55:04Z</time></trkpt><trkpt lat="43.25243922336921" lon="10.595805669690765"><ele>50.599999999999994</ele><time>2026-05-01T08:55:05Z</time></trkpt><trkpt lat="43.25252951610285" lon="10.595801678143983"><ele>50.4</ele><time>2026-05-01T08:55:06Z</time></trkpt><trkpt lat="43.2526289678963" lon="10.59580795710112"><ele>50.2</ele><time>2026-05-01T08:55:07Z</time></trkpt><trkpt lat="43.252733294753526" lon="10.595816149908515"><ele>50.0</ele><time>2026-05-01T08:55:08Z</time></trkpt><trkpt lat="43.252824322040354" lon="10.595793363062567"><ele>50.0</ele><time>2026-05-01T08:55:09Z</time></trkpt><trkpt lat="43.25290635313077" lon="10.595729701976865"><ele>50.0</ele><time>2026-05-01T08:55:10Z</time></trkpt><trkpt lat="43.252982778675495" lon="10.595642199024772"><ele>50.0</ele><time>2026-05-01T08:55:11Z</time></trkpt><trkpt lat="43.25306023846817" lon="10.595542787650507"><ele>50.0</ele><time>2026-05-01T08:55:12Z</time></trkpt><trkpt lat="43.253146803797016" lon="10.595423113725515"><ele>50.0</ele><time>2026-05-01T08:55:13Z</time></trkpt><trkpt lat="43.253240663684856" lon="10.595316711104187"><ele>48.8</ele><time>2026-05-01T08:55:14Z</time></trkpt><trkpt lat="43.253324980921505" lon="10.595231165174486"><ele>47.6</ele><time>2026-05-01T08:55:15Z</time></trkpt><trkpt lat="43.25341933142824" lon="10.59514785204046"><ele>46.400000000000006</ele><time>2026-05-01T08:55:16Z</time></trkpt><trkpt lat="43.25351795405654" lon="10.595077234501245"><ele>45.2</ele><time>2026-05-01T08:55:17Z</time></trkpt><trkpt lat="43.25362629746733" lon="10.595017042811092"><ele>44.0</ele><time>2026-05-01T08:55:18Z</time></trkpt><trkpt lat="43.25373826389358" lon="10.594959740259405"><ele>44.0</ele><time>2026-05-01T08:55:19Z</time></trkpt><trkpt lat="43.25385631542957" lon="10.59490803120347"><ele>44.0</ele><time>2026-05-01T08:55:20Z</time></trkpt><trkpt lat="43.25397752566308" lon="10.594858319206617"><ele>44.0</ele><time>2026-05-01T08:55:21Z</time></trkpt><trkpt lat="43.25410125295077" lon="10.594803753760903"><ele>44.0</ele><time>2026-05-01T08:55:22Z</time></trkpt><trkpt lat="43.254231328496445" lon="10.594751259477038"><ele>43.25</ele><time>2026-05-01T08:55:23Z</time></trkpt><trkpt lat="43.25435264255004" lon="10.594711757157173"><ele>42.5</ele><time>2026-05-01T08:55:24Z</time></trkpt><trkpt lat="43.254477445122546" lon="10.594680575182744"><ele>41.75</ele><time>2026-05-01T08:55:25Z</time></trkpt><trkpt lat="43.254613292180494" lon="10.594640375954581"><ele>41.0</ele><time>2026-05-01T08:55:26Z</time></trkpt><trkpt lat="43.25474613449448" lon="10.594604930077873"><ele>41.0</ele><time>2026-05-01T08:55:27Z</time></trkpt><trkpt lat="43.254880728502926" lon="10.594570687315372"><ele>41.0</ele><time>2026-05-01T08:55:28Z</time></trkpt><trkpt lat="43.25501805049068" lon="10.594538950739794"><ele>41.0</ele><time>2026-05-01T08:55:29Z</time></trkpt><trkpt lat="43.25515967884078" lon="10.594516425223404"><ele>41.0</ele><time>2026-05-01T08:55:30Z</time></trkpt><trkpt lat="43.25530008026028" lon="10.594504276006457"><ele>40.0</ele><time>2026-05-01T08:55:31Z</time></trkpt><trkpt lat="43.255440223980074" lon="10.594479993112554"><ele>39.0</ele><time>2026-05-01T08:55:32Z</time></trkpt><trkpt lat="43.25557718208217" lon="10.59444816227843"><ele>38.0</ele><time>2026-05-01T08:55:33Z</time></trkpt><trkpt lat="43.255701409489" lon="10.594397883492753"><ele>37.0</ele><time>2026-05-01T08:55:34Z</time></trkpt><trkpt lat="43.25581354856531" lon="10.594327618466952"><ele>37.0</ele><time>2026-05-01T08:55:35Z</time></trkpt><trkpt lat="43.2559223308051" lon="10.594246258879524"><ele>37.0</ele><time>2026-05-01T08:55:36Z</time></trkpt><trkpt lat="43.25603410989443" lon="10.594154264502379"><ele>37.0</ele><time>2026-05-01T08:55:37Z</time></trkpt><trkpt lat="43.25614386528052" lon="10.594057507116537"><ele>37.0</ele><time>2026-05-01T08:55:38Z</time></trkpt><trkpt lat="43.256246000309666" lon="10.593967266377378"><ele>37.0</ele><time>2026-05-01T08:55:39Z</time></trkpt><trkpt lat="43.25635217833896" lon="10.593874418090897"><ele>37.0</ele><time>2026-05-01T08:55:40Z</time></trkpt><trkpt lat="43.25646003795645" lon="10.59378732538846"><ele>37.0</ele><time>2026-05-01T08:55:41Z</time></trkpt><trkpt lat="43.256562797199926" lon="10.593695816056412"><ele>37.0</ele><time>2026-05-01T08:55:42Z</time></trkpt><trkpt lat="43.256671253075986" lon="10.593605262546184"><ele>36.25</ele><time>2026-05-01T08:55:43Z</time></trkpt><trkpt lat="43.256784834863076" lon="10.593534586126687"><ele>35.5</ele><time>2026-05-01T08:55:44Z</time></trkpt><trkpt lat="43.256914016504346" lon="10.593497534671481"><ele>34.75</ele><time>2026-05-01T08:55:45Z</time></trkpt><trkpt lat="43.257042888665126" lon="10.593487684390466"><ele>34.0</ele><time>2026-05-01T08:55:46Z</time></trkpt><trkpt lat="43.25715790092015" lon="10.593481280230648"><ele>34.0</ele><time>2026-05-01T08:55:47Z</time></trkpt><trkpt lat="43.257263186963115" lon="10.593477120925876"><ele>34.0</ele><time>2026-05-01T08:55:48Z</time></trkpt><trkpt lat="43.257360195776826" lon="10.593477750580288"><ele>34.0</ele><time>2026-05-01T08:55:49Z</time></trkpt><trkpt lat="43.257460598898724" lon="10.5934837541237"><ele>34.0</ele><time>2026-05-01T08:55:50Z</time></trkpt><trkpt lat="43.25758148112381" lon="10.593522664967882"><ele>34.0</ele><time>2026-05-01T08:55:51Z</time></trkpt><trkpt lat="43.2577100452419" lon="10.593617311480992"><ele>34.66666666666667</ele><time>2026-05-01T08:55:52Z</time></trkpt><trkpt lat="43.257848185184784" lon="10.593736489237576"><ele>35.333333333333336</ele><time>2026-05-01T08:55:53Z</time></trkpt><trkpt lat="43.25797524208388" lon="10.59388328992742"><ele>36.0</ele><time>2026-05-01T08:55:54Z</time></trkpt><trkpt lat="43.25811340309507" lon="10.594009176603645"><ele>38.333333333333336</ele><time>2026-05-01T08:55:55Z</time></trkpt><trkpt lat="43.258268214061665" lon="10.59412607138459"><ele>40.66666666666667</ele><time>2026-05-01T08:55:56Z</time></trkpt><trkpt lat="43.25842300039369" lon="10.594271707398958"><ele>43.0</ele><time>2026-05-01T08:55:57Z</time></trkpt><trkpt lat="43.258577978781275" lon="10.59441858633654"><ele>44.75</ele><time>2026-05-01T08:55:58Z</time></trkpt><trkpt lat="43.25870638070745" lon="10.59454956482198"><ele>46.5</ele><time>2026-05-01T08:55:59Z</time></trkpt><trkpt lat="43.25882862478333" lon="10.594664224677382"><ele>48.25</ele><time>2026-05-01T08:56:00Z</time></trkpt><trkpt lat="43.25894149929869" lon="10.594761868282356"><ele>50.0</ele><time>2026-05-01T08:56:01Z</time></trkpt><trkpt lat="43.25904771958286" lon="10.594851338297957"><ele>50.5</ele><time>2026-05-01T08:56:02Z</time></trkpt><trkpt lat="43.25915098354674" lon="10.594944682342447"><ele>51.0</ele><time>2026-05-01T08:56:03Z</time></trkpt><trkpt lat="43.25925840442463" lon="10.595015449074799"><ele>51.5</ele><time>2026-05-01T08:56:04Z</time></trkpt><trkpt lat="43.259370492014384" lon="10.595053516131978"><ele>52.0</ele><time>2026-05-01T08:56:05Z</time></trkpt><trkpt lat="43.25947794453991" lon="10.595049385452374"><ele>52.0</ele><time>2026-05-01T08:56:06Z</time></trkpt><trkpt lat="43.259581407869334" lon="10.595012695003772"><ele>52.0</ele><time>2026-05-01T08:56:07Z</time></trkpt><trkpt lat="43.259679116982106" lon="10.594932275345794"><ele>52.0</ele><time>2026-05-01T08:56:08Z</time></trkpt><trkpt lat="43.25976846218598" lon="10.594814482026024"><ele>52.0</ele><time>2026-05-01T08:56:09Z</time></trkpt><trkpt lat="43.259862141490494" lon="10.594676580680051"><ele>52.99999999999999</ele><time>2026-05-01T08:56:10Z</time></trkpt><trkpt lat="43.259947366697844" lon="10.594594601037821"><ele>54.0</ele><time>2026-05-01T08:56:11Z</time></trkpt><trkpt lat="43.260022197334415" lon="10.594564064601721"><ele>55.0</ele><time>2026-05-01T08:56:12Z</time></trkpt><trkpt lat="43.260104736005054" lon="10.594580508712259"><ele>56.0</ele><time>2026-05-01T08:56:13Z</time></trkpt><trkpt lat="43.26017854523254" lon="10.594648541976582"><ele>56.99999999999999</ele><time>2026-05-01T08:56:14Z</time></trkpt><trkpt lat="43.260232044292515" lon="10.594754370837055"><ele>58.0</ele><time>2026-05-01T08:56:15Z</time></trkpt><trkpt lat="43.26028478206009" lon="10.594879737955527"><ele>58.0</ele><time>2026-05-01T08:56:16Z</time></trkpt><trkpt lat="43.2603411367173" lon="10.595015902716716"><ele>58.0</ele><time>2026-05-01T08:56:17Z</time></trkpt><trkpt lat="43.26039557232768" lon="10.595154213180896"><ele>58.0</ele><time>2026-05-01T08:56:18Z</time></trkpt><trkpt lat="43.26045306208461" lon="10.595286068344267"><ele>58.0</ele><time>2026-05-01T08:56:19Z</time></trkpt><trkpt lat="43.26051348933523" lon="10.595422301455708"><ele>58.2</ele><time>2026-05-01T08:56:20Z</time></trkpt><trkpt lat="43.26054637445327" lon="10.595557371062773"><ele>58.4</ele><time>2026-05-01T08:56:21Z</time></trkpt><trkpt lat="43.26054581534737" lon="10.595700359950259"><ele>58.60000000000001</ele><time>2026-05-01T08:56:22Z</time></trkpt><trkpt lat="43.260516215410334" lon="10.595849569721441"><ele>58.800000000000004</ele><time>2026-05-01T08:56:23Z</time></trkpt><trkpt lat="43.26047536980513" lon="10.595995188940494"><ele>59.0</ele><time>2026-05-01T08:56:24Z</time></trkpt><trkpt lat="43.26046248517876" lon="10.596141358963898"><ele>60.0</ele><time>2026-05-01T08:56:25Z</time></trkpt><trkpt lat="43.26047781949491" lon="10.596302853782158"><ele>61.0</ele><time>2026-05-01T08:56:26Z</time></trkpt><trkpt lat="43.260504217972816" lon="10.596468124677573"><ele>62.0</ele><time>2026-05-01T08:56:27Z</time></trkpt><trkpt lat="43.2605414652745" lon="10.596635673428125"><ele>63.0</ele><time>2026-05-01T08:56:28Z</time></trkpt><trkpt lat="43.26058798351943" lon="10.596804862724671"><ele>64.5</ele><time>2026-05-01T08:56:29Z</time></trkpt><trkpt lat="43.26064864246917" lon="10.596957715861349"><ele>66.0</ele><time>2026-05-01T08:56:30Z</time></trkpt><trkpt lat="43.260731171535845" lon="10.59708844970402"><ele>67.5</ele><time>2026-05-01T08:56:31Z</time></trkpt><trkpt lat="43.26082815873016" lon="10.597208579427027"><ele>69.0</ele><time>2026-05-01T08:56:32Z</time></trkpt><trkpt lat="43.26093176595218" lon="10.59732279470435"><ele>69.75</ele><time>2026-05-01T08:56:33Z</time></trkpt><trkpt lat="43.26103798073183" lon="10.597429702857168"><ele>70.5</ele><time>2026-05-01T08:56:34Z</time></trkpt><trkpt lat="43.261147143797636" lon="10.597539256694912"><ele>71.25</ele><time>2026-05-01T08:56:35Z</time></trkpt><trkpt lat="43.26125454538432" lon="10.59765025920695"><ele>72.0</ele><time>2026-05-01T08:56:36Z</time></trkpt><trkpt lat="43.261361200731145" lon="10.597755799433783"><ele>72.5</ele><time>2026-05-01T08:56:37Z</time></trkpt><trkpt lat="43.26146480438393" lon="10.597863958251724"><ele>73.0</ele><time>2026-05-01T08:56:38Z</time></trkpt><trkpt lat="43.26156648987934" lon="10.597963526250009"><ele>73.5</ele><time>2026-05-01T08:56:39Z</time></trkpt><trkpt lat="43.26166810019097" lon="10.598058509645377"><ele>74.0</ele><time>2026-05-01T08:56:40Z</time></trkpt><trkpt lat="43.26178016902285" lon="10.59814897717387"><ele>74.0</ele><time>2026-05-01T08:56:41Z</time></trkpt><trkpt lat="43.261892198629496" lon="10.598229089243924"><ele>74.0</ele><time>2026-05-01T08:56:42Z</time></trkpt><trkpt lat="43.26200138070402" lon="10.598333476905925"><ele>74.0</ele><time>2026-05-01T08:56:43Z</time></trkpt><trkpt lat="43.26212515740894" lon="10.598407785478015"><ele>74.0</ele><time>2026-05-01T08:56:44Z</time></trkpt><trkpt lat="43.262242130744404" lon="10.598507127690226"><ele>74.25</ele><time>2026-05-01T08:56:45Z</time></trkpt><trkpt lat="43.26236247405213" lon="10.598602384393274"><ele>74.5</ele><time>2026-05-01T08:56:46Z</time></trkpt><trkpt lat="43.26248660093803" lon="10.598693118117282"><ele>74.75</ele><time>2026-05-01T08:56:47Z</time></trkpt><trkpt lat="43.26260770047103" lon="10.5987852038187"><ele>75.0</ele><time>2026-05-01T08:56:48Z</time></trkpt><trkpt lat="43.26272935195239" lon="10.59888282727609"><ele>75.0</ele><time>2026-05-01T08:56:49Z</time></trkpt><trkpt lat="43.262844872024345" lon="10.598974530205293"><ele>75.0</ele><time>2026-05-01T08:56:50Z</time></trkpt><trkpt lat="43.262973224147096" lon="10.599043446291123"><ele>75.0</ele><time>2026-05-01T08:56:51Z</time></trkpt><trkpt lat="43.26311875213167" lon="10.599084812181355"><ele>75.0</ele><time>2026-05-01T08:56:52Z</time></trkpt><trkpt lat="43.263267982036176" lon="10.599094215154732"><ele>76.33333333333333</ele><time>2026-05-01T08:56:53Z</time></trkpt><trkpt lat="43.263414135414706" lon="10.599079284845821"><ele>77.66666666666666</ele><time>2026-05-01T08:56:54Z</time></trkpt><trkpt lat="43.26356352145472" lon="10.599038599848887"><ele>79.0</ele><time>2026-05-01T08:56:55Z</time></trkpt><trkpt lat="43.26371683516532" lon="10.598969949608518"><ele>79.0</ele><time>2026-05-01T08:56:56Z</time></trkpt><trkpt lat="43.263875144954035" lon="10.598899536228357"><ele>79.0</ele><time>2026-05-01T08:56:57Z</time></trkpt><trkpt lat="43.26402293395234" lon="10.598843422800678"><ele>79.0</ele><time>2026-05-01T08:56:58Z</time></trkpt><trkpt lat="43.2641672724879" lon="10.598790940628238"><ele>78.75</ele><time>2026-05-01T08:56:59Z</time></trkpt><trkpt lat="43.26430506599901" lon="10.598732411892371"><ele>78.5</ele><time>2026-05-01T08:57:00Z</time></trkpt><trkpt lat="43.264441499157044" lon="10.598672096435129"><ele>78.25</ele><time>2026-05-01T08:57:01Z</time></trkpt><trkpt lat="43.26458156773302" lon="10.598614721167163"><ele>78.0</ele><time>2026-05-01T08:57:02Z</time></trkpt><trkpt lat="43.26471934973652" lon="10.598564431485554"><ele>77.25</ele><time>2026-05-01T08:57:03Z</time></trkpt><trkpt lat="43.264845386564446" lon="10.5985238985799"><ele>76.5</ele><time>2026-05-01T08:57:04Z</time></trkpt><trkpt lat="43.26497357400458" lon="10.598493248858308"><ele>75.75</ele><time>2026-05-01T08:57:05Z</time></trkpt><trkpt lat="43.26510568383274" lon="10.598506541412524"><ele>75.0</ele><time>2026-05-01T08:57:06Z</time></trkpt><trkpt lat="43.26523739080997" lon="10.598546272104437"><ele>75.0</ele><time>2026-05-01T08:57:07Z</time></trkpt><trkpt lat="43.26535438396017" lon="10.598583572629531"><ele>75.0</ele><time>2026-05-01T08:57:08Z</time></trkpt><trkpt lat="43.26545579577667" lon="10.59860662495898"><ele>75.0</ele><time>2026-05-01T08:57:09Z</time></trkpt><trkpt lat="43.26554350666589" lon="10.598612397298494"><ele>75.0</ele><time>2026-05-01T08:57:10Z</time></trkpt><trkpt lat="43.26560967302758" lon="10.59861525709149"><ele>75.0</ele><time>2026-05-01T08:57:11Z</time></trkpt><trkpt lat="43.265690072157135" lon="10.598689057580826"><ele>76.6</ele><time>2026-05-01T08:57:13Z</time></trkpt><trkpt lat="43.26577279717012" lon="10.598722635567281"><ele>78.2</ele><time>2026-05-01T08:57:15Z</time></trkpt><trkpt lat="43.26586777804311" lon="10.598748003795881"><ele>79.80000000000001</ele><time>2026-05-01T08:59:16Z</time></trkpt><trkpt lat="43.26597604690766" lon="10.598753002767927"><ele>81.4</ele><time>2026-05-01T08:59:18Z</time></trkpt><trkpt lat="43.26605244643904" lon="10.598766604258488"><ele>83.0</ele><time>2026-05-01T08:59:19Z</time></trkpt><trkpt lat="43.26614050461333" lon="10.598804082981765"><ele>83.0</ele><time>2026-05-01T08:59:20Z</time></trkpt><trkpt lat="43.26621445872084" lon="10.598813525924292"><ele>83.0</ele><time>2026-05-01T08:59:21Z</time></trkpt><trkpt lat="43.26634142760499" lon="10.598830926198831"><ele>83.0</ele><time>2026-05-01T08:59:23Z</time></trkpt><trkpt lat="43.266447460914115" lon="10.598881704124402"><ele>83.0</ele><time>2026-05-01T08:59:25Z</time></trkpt><trkpt lat="43.2665211495322" lon="10.59898710073509"><ele>83.0</ele><time>2026-05-01T08:59:27Z</time></trkpt><trkpt lat="43.26653244378882" lon="10.599108414498364"><ele>83.0</ele><time>2026-05-01T08:59:28Z</time></trkpt><trkpt lat="43.26651404442046" lon="10.599258750729671"><ele>83.0</ele><time>2026-05-01T08:59:29Z</time></trkpt><trkpt lat="43.2664685017383" lon="10.599385868106731"><ele>83.0</ele><time>2026-05-01T08:59:30Z</time></trkpt><trkpt lat="43.26642088233822" lon="10.599459629645255"><ele>83.0</ele><time>2026-05-01T08:59:31Z</time></trkpt><trkpt lat="43.26636107638671" lon="10.59959616118513"><ele>83.0</ele><time>2026-05-01T08:59:33Z</time></trkpt><trkpt lat="43.266316315589215" lon="10.599659037263665"><ele>83.33333333333334</ele><time>2026-05-01T08:59:34Z</time></trkpt><trkpt lat="43.26627726086845" lon="10.599747358701737"><ele>83.66666666666667</ele><time>2026-05-01T08:59:35Z</time></trkpt><trkpt lat="43.26625913671647" lon="10.599853680264994"><ele>84.0</ele><time>2026-05-01T08:59:36Z</time></trkpt><trkpt lat="43.26624548145015" lon="10.599981108696376"><ele>84.33333333333333</ele><time>2026-05-01T08:59:37Z</time></trkpt><trkpt lat="43.26624507234428" lon="10.600094937317712"><ele>84.66666666666666</ele><time>2026-05-01T08:59:38Z</time></trkpt><trkpt lat="43.266235890844214" lon="10.600227380659113"><ele>85.0</ele><time>2026-05-01T08:59:39Z</time></trkpt><trkpt lat="43.266233852984264" lon="10.60036915247616"><ele>85.6</ele><time>2026-05-01T08:59:40Z</time></trkpt><trkpt lat="43.266229140771614" lon="10.600546194198431"><ele>86.2</ele><time>2026-05-01T08:59:41Z</time></trkpt><trkpt lat="43.26624448303049" lon="10.60070054551248"><ele>86.80000000000001</ele><time>2026-05-01T08:59:42Z</time></trkpt><trkpt lat="43.266232908185465" lon="10.600856247919396"><ele>87.4</ele><time>2026-05-01T08:59:43Z</time></trkpt><trkpt lat="43.26623507313094" lon="10.60096418995294"><ele>88.0</ele><time>2026-05-01T08:59:44Z</time></trkpt><trkpt lat="43.2662288073302" lon="10.60106578854242"><ele>88.0</ele><time>2026-05-01T08:59:46Z</time></trkpt><trkpt lat="43.2661376448779" lon="10.60112844163049"><ele>88.0</ele><time>2026-05-01T08:59:48Z</time></trkpt><trkpt lat="43.26604413572599" lon="10.601138684546985"><ele>88.0</ele><time>2026-05-01T08:59:49Z</time></trkpt><trkpt lat="43.265920313727904" lon="10.601077695002404"><ele>88.0</ele><time>2026-05-01T08:59:50Z</time></trkpt><trkpt lat="43.265837476123195" lon="10.601068611476043"><ele>88.0</ele><time>2026-05-01T08:59:51Z</time></trkpt><trkpt lat="43.265773819913406" lon="10.601085195834855"><ele>88.0</ele><time>2026-05-01T08:59:52Z</time></trkpt><trkpt lat="43.265725176276696" lon="10.601153924458371"><ele>88.0</ele><time>2026-05-01T08:59:53Z</time></trkpt><trkpt lat="43.26565768723422" lon="10.601255944735657"><ele>88.0</ele><time>2026-05-01T08:59:54Z</time></trkpt><trkpt lat="43.26558796112118" lon="10.601323398663524"><ele>88.0</ele><time>2026-05-01T08:59:55Z</time></trkpt><trkpt lat="43.26553005237469" lon="10.60140152271289"><ele>88.0</ele><time>2026-05-01T08:59:56Z</time></trkpt><trkpt lat="43.26549149719349" lon="10.601470563938395"><ele>88.0</ele><time>2026-05-01T08:59:57Z</time></trkpt><trkpt lat="43.26548574983704" lon="10.60158215810412"><ele>87.80000000000001</ele><time>2026-05-01T08:59:58Z</time></trkpt><trkpt lat="43.26552420293987" lon="10.601716195416323"><ele>87.6</ele><time>2026-05-01T08:59:59Z</time></trkpt><trkpt lat="43.26553032624445" lon="10.60186079399078"><ele>87.4</ele><time>2026-05-01T09:00:00Z</time></trkpt><trkpt lat="43.26555135786206" lon="10.601999711934745"><ele>87.19999999999999</ele><time>2026-05-01T09:00:01Z</time></trkpt><trkpt lat="43.2655762210405" lon="10.602138211085512"><ele>87.0</ele><time>2026-05-01T09:00:02Z</time></trkpt><trkpt lat="43.26560567900131" lon="10.602277997123915"><ele>87.5</ele><time>2026-05-01T09:00:03Z</time></trkpt><trkpt lat="43.26563243682698" lon="10.602404970348967"><ele>88.0</ele><time>2026-05-01T09:00:04Z</time></trkpt><trkpt lat="43.26565286833689" lon="10.602501923396007"><ele>88.5</ele><time>2026-05-01T09:00:05Z</time></trkpt><trkpt lat="43.265671917235316" lon="10.602589829370482"><ele>89.0</ele><time>2026-05-01T09:00:06Z</time></trkpt><trkpt lat="43.265694196815794" lon="10.602690644475075"><ele>89.5</ele><time>2026-05-01T09:00:07Z</time></trkpt><trkpt lat="43.265715575774784" lon="10.602803593403923"><ele>90.0</ele><time>2026-05-01T09:00:08Z</time></trkpt><trkpt lat="43.26573868753469" lon="10.602928575922878"><ele>90.6</ele><time>2026-05-01T09:00:09Z</time></trkpt><trkpt lat="43.2657396606039" lon="10.603060462471431"><ele>91.2</ele><time>2026-05-01T09:00:10Z</time></trkpt><trkpt lat="43.26575713250871" lon="10.60318881349396"><ele>91.80000000000001</ele><time>2026-05-01T09:00:11Z</time></trkpt><trkpt lat="43.265767401776294" lon="10.603332051580198"><ele>92.4</ele><time>2026-05-01T09:00:12Z</time></trkpt><trkpt lat="43.26579680051601" lon="10.603459656729706"><ele>93.0</ele><time>2026-05-01T09:00:13Z</time></trkpt><trkpt lat="43.265829223401205" lon="10.603573007208977"><ele>93.16666666666667</ele><time>2026-05-01T09:00:14Z</time></trkpt><trkpt lat="43.265861865383826" lon="10.603669962442662"><ele>93.33333333333333</ele><time>2026-05-01T09:00:15Z</time></trkpt><trkpt lat="43.265906385883795" lon="10.60378828564513"><ele>93.5</ele><time>2026-05-01T09:00:16Z</time></trkpt><trkpt lat="43.265949186128964" lon="10.60388174966141"><ele>93.66666666666666</ele><time>2026-05-01T09:00:17Z</time></trkpt><trkpt lat="43.265993783666154" lon="10.60397337385923"><ele>93.83333333333333</ele><time>2026-05-01T09:00:18Z</time></trkpt><trkpt lat="43.26603164478887" lon="10.604049278565673"><ele>94.0</ele><time>2026-05-01T09:00:19Z</time></trkpt><trkpt lat="43.266199186203465" lon="10.604035311637256"><ele>94.0</ele><time>2026-05-01T09:00:20Z</time></trkpt><trkpt lat="43.266306693960686" lon="10.604027170781174"><ele>94.0</ele><time>2026-05-01T09:00:21Z</time></trkpt><trkpt lat="43.26642894513588" lon="10.604051990206784"><ele>94.0</ele><time>2026-05-01T09:00:22Z</time></trkpt><trkpt lat="43.26652861789928" lon="10.604070059804796"><ele>94.0</ele><time>2026-05-01T09:00:23Z</time></trkpt><trkpt lat="43.26660499137063" lon="10.604092112000595"><ele>94.0</ele><time>2026-05-01T09:00:24Z</time></trkpt><trkpt lat="43.266673905993976" lon="10.604155921579522"><ele>94.0</ele><time>2026-05-01T09:00:26Z</time></trkpt><trkpt lat="43.26677380881742" lon="10.604301322844245"><ele>94.0</ele><time>2026-05-01T09:00:28Z</time></trkpt><trkpt lat="43.26684289679209" lon="10.604451071933724"><ele>94.0</ele><time>2026-05-01T09:00:29Z</time></trkpt><trkpt lat="43.26690385390788" lon="10.604605523496991"><ele>94.0</ele><time>2026-05-01T09:00:30Z</time></trkpt><trkpt lat="43.26694784449692" lon="10.604756245900377"><ele>94.0</ele><time>2026-05-01T09:00:31Z</time></trkpt><trkpt lat="43.26700937110411" lon="10.604869931408052"><ele>94.0</ele><time>2026-05-01T09:00:32Z</time></trkpt><trkpt lat="43.26706954315254" lon="10.605002854519084"><ele>94.0</ele><time>2026-05-01T09:00:33Z</time></trkpt><trkpt lat="43.26713235287451" lon="10.605115191644813"><ele>94.0</ele><time>2026-05-01T09:00:34Z</time></trkpt><trkpt lat="43.26716411668978" lon="10.605217825894753"><ele>94.0</ele><time>2026-05-01T09:00:35Z</time></trkpt><trkpt lat="43.26722674475116" lon="10.605324149252557"><ele>94.2</ele><time>2026-05-01T09:00:36Z</time></trkpt><trkpt lat="43.26726328965248" lon="10.605447634204191"><ele>94.4</ele><time>2026-05-01T09:00:37Z</time></trkpt><trkpt lat="43.26731549145554" lon="10.605555949863746"><ele>94.6</ele><time>2026-05-01T09:00:38Z</time></trkpt><trkpt lat="43.267356583287544" lon="10.60567069423869"><ele>94.8</ele><time>2026-05-01T09:00:39Z</time></trkpt><trkpt lat="43.26740581073292" lon="10.605773645655349"><ele>95.0</ele><time>2026-05-01T09:00:40Z</time></trkpt><trkpt lat="43.267438426820924" lon="10.605869617498925"><ele>93.8</ele><time>2026-05-01T09:00:41Z</time></trkpt><trkpt lat="43.26745886846657" lon="10.605955261183905"><ele>92.6</ele><time>2026-05-01T09:00:42Z</time></trkpt><trkpt lat="43.26744284849173" lon="10.606079446409142"><ele>91.4</ele><time>2026-05-01T09:00:44Z</time></trkpt><trkpt lat="43.26752600896813" lon="10.606271608811943"><ele>90.2</ele><time>2026-05-01T09:00:46Z</time></trkpt><trkpt lat="43.26757211775292" lon="10.606408400144744"><ele>89.0</ele><time>2026-05-01T09:00:48Z</time></trkpt><trkpt lat="43.267583309069884" lon="10.606551008192838"><ele>88.2</ele><time>2026-05-01T09:00:50Z</time></trkpt><trkpt lat="43.26765158523245" lon="10.606681629279286"><ele>87.4</ele><time>2026-05-01T09:00:52Z</time></trkpt><trkpt lat="43.2677207669328" lon="10.606821841798709"><ele>86.6</ele><time>2026-05-01T09:00:54Z</time></trkpt><trkpt lat="43.26781844373355" lon="10.606932988501445"><ele>85.8</ele><time>2026-05-01T09:00:56Z</time></trkpt><trkpt lat="43.267879631728285" lon="10.606962897863646"><ele>85.0</ele><time>2026-05-01T09:00:57Z</time></trkpt><trkpt lat="43.267979123972616" lon="10.607055003694342"><ele>83.33333333333333</ele><time>2026-05-01T09:00:59Z</time></trkpt><trkpt lat="43.268048038264624" lon="10.607103972060013"><ele>81.66666666666666</ele><time>2026-05-01T09:01:00Z</time></trkpt><trkpt lat="43.268136035744" lon="10.607169490524338"><ele>80.0</ele><time>2026-05-01T09:01:01Z</time></trkpt><trkpt lat="43.26822586268221" lon="10.607217863469234"><ele>78.33333333333333</ele><time>2026-05-01T09:01:02Z</time></trkpt><trkpt lat="43.26830648491817" lon="10.607262389745484"><ele>76.66666666666667</ele><time>2026-05-01T09:01:03Z</time></trkpt><trkpt lat="43.26835996564978" lon="10.607310910491872"><ele>75.0</ele><time>2026-05-01T09:01:04Z</time></trkpt><trkpt lat="43.26845574154053" lon="10.607332876639104"><ele>75.0</ele><time>2026-05-01T09:01:06Z</time></trkpt><trkpt lat="43.26852832461325" lon="10.607360221586449"><ele>75.0</ele><time>2026-05-01T09:01:09Z</time></trkpt><trkpt lat="43.26849780243618" lon="10.60748952824091"><ele>75.0</ele><time>2026-05-01T09:01:13Z</time></trkpt><trkpt lat="43.26843146647072" lon="10.60760220583526"><ele>75.0</ele><time>2026-05-01T09:01:14Z</time></trkpt><trkpt lat="43.26837658845017" lon="10.607725054819557"><ele>75.0</ele><time>2026-05-01T09:01:15Z</time></trkpt><trkpt lat="43.26830375453288" lon="10.60780386230728"><ele>75.0</ele><time>2026-05-01T09:01:16Z</time></trkpt><trkpt lat="43.26823699051317" lon="10.60787648858488"><ele>75.0</ele><time>2026-05-01T09:01:18Z</time></trkpt><trkpt lat="43.268144885156985" lon="10.607978211081813"><ele>75.0</ele><time>2026-05-01T09:01:20Z</time></trkpt><trkpt lat="43.26807280678082" lon="10.608006796766414"><ele>75.0</ele><time>2026-05-01T09:01:21Z</time></trkpt><trkpt lat="43.268011625434134" lon="10.608064512877624"><ele>75.0</ele><time>2026-05-01T09:01:22Z</time></trkpt><trkpt lat="43.26793853366776" lon="10.608151232871098"><ele>75.0</ele><time>2026-05-01T09:01:23Z</time></trkpt><trkpt lat="43.26786527850109" lon="10.60825826414271"><ele>74.0</ele><time>2026-05-01T09:01:24Z</time></trkpt><trkpt lat="43.26780386638949" lon="10.608375750415961"><ele>73.0</ele><time>2026-05-01T09:01:25Z</time></trkpt><trkpt lat="43.26775317581475" lon="10.608488925329103"><ele>72.0</ele><time>2026-05-01T09:01:26Z</time></trkpt><trkpt lat="43.26770742192698" lon="10.608600537077715"><ele>71.0</ele><time>2026-05-01T09:01:27Z</time></trkpt><trkpt lat="43.26766240581123" lon="10.608722104720071"><ele>70.0</ele><time>2026-05-01T09:01:28Z</time></trkpt><trkpt lat="43.26762234756484" lon="10.608857801652668"><ele>69.0</ele><time>2026-05-01T09:01:29Z</time></trkpt><trkpt lat="43.267592178208034" lon="10.609004714222205"><ele>68.0</ele><time>2026-05-01T09:01:30Z</time></trkpt><trkpt lat="43.26756840056174" lon="10.609144587941474"><ele>67.0</ele><time>2026-05-01T09:01:31Z</time></trkpt><trkpt lat="43.267548620289865" lon="10.609282978546702"><ele>66.0</ele><time>2026-05-01T09:01:32Z</time></trkpt><trkpt lat="43.26752940457105" lon="10.609426908969036"><ele>65.0</ele><time>2026-05-01T09:01:33Z</time></trkpt><trkpt lat="43.26751127614223" lon="10.609571497406119"><ele>65.0</ele><time>2026-05-01T09:01:34Z</time></trkpt><trkpt lat="43.26749528997782" lon="10.609704110142378"><ele>65.0</ele><time>2026-05-01T09:01:35Z</time></trkpt><trkpt lat="43.26747414678024" lon="10.609824982567723"><ele>65.0</ele><time>2026-05-01T09:01:36Z</time></trkpt><trkpt lat="43.267443097434914" lon="10.609941284882932"><ele>65.0</ele><time>2026-05-01T09:01:37Z</time></trkpt><trkpt lat="43.267401299006856" lon="10.610066371197206"><ele>65.0</ele><time>2026-05-01T09:01:38Z</time></trkpt><trkpt lat="43.26734110016552" lon="10.61018090295935"><ele>65.0</ele><time>2026-05-01T09:01:39Z</time></trkpt><trkpt lat="43.26727870200605" lon="10.610293166376547"><ele>65.0</ele><time>2026-05-01T09:01:40Z</time></trkpt><trkpt lat="43.26721322100391" lon="10.610408841858568"><ele>65.0</ele><time>2026-05-01T09:01:41Z</time></trkpt><trkpt lat="43.2671480036042" lon="10.61052710849961"><ele>65.0</ele><time>2026-05-01T09:01:42Z</time></trkpt><trkpt lat="43.267084691148746" lon="10.610652793693363"><ele>65.0</ele><time>2026-05-01T09:01:43Z</time></trkpt><trkpt lat="43.267023186735614" lon="10.610780229964512"><ele>64.75</ele><time>2026-05-01T09:01:44Z</time></trkpt><trkpt lat="43.26696988256202" lon="10.610915399754406"><ele>64.5</ele><time>2026-05-01T09:01:45Z</time></trkpt><trkpt lat="43.266924356169746" lon="10.611058940192"><ele>64.25</ele><time>2026-05-01T09:01:46Z</time></trkpt><trkpt lat="43.26688855060521" lon="10.611212726288583"><ele>64.0</ele><time>2026-05-01T09:01:47Z</time></trkpt><trkpt lat="43.266871923553175" lon="10.611375496538995"><ele>64.75</ele><time>2026-05-01T09:01:48Z</time></trkpt><trkpt lat="43.266818509264155" lon="10.61152367930555"><ele>65.5</ele><time>2026-05-01T09:01:49Z</time></trkpt><trkpt lat="43.266777492672254" lon="10.611679989298217"><ele>66.25</ele><time>2026-05-01T09:01:50Z</time></trkpt><trkpt lat="43.266723198258234" lon="10.61181955768025"><ele>67.0</ele><time>2026-05-01T09:01:51Z</time></trkpt><trkpt lat="43.266685934177936" lon="10.61198881016043"><ele>66.8</ele><time>2026-05-01T09:01:52Z</time></trkpt><trkpt lat="43.26665847777257" lon="10.612149097481256"><ele>66.6</ele><time>2026-05-01T09:01:53Z</time></trkpt><trkpt lat="43.266635446054416" lon="10.612311966597382"><ele>66.39999999999999</ele><time>2026-05-01T09:01:54Z</time></trkpt><trkpt lat="43.26662324672875" lon="10.612464178463895"><ele>66.2</ele><time>2026-05-01T09:01:55Z</time></trkpt><trkpt lat="43.26662013418539" lon="10.612590327913168"><ele>66.0</ele><time>2026-05-01T09:01:56Z</time></trkpt><trkpt lat="43.26663735889997" lon="10.612703457189895"><ele>66.0</ele><time>2026-05-01T09:01:57Z</time></trkpt><trkpt lat="43.2666230166499" lon="10.612797853469129"><ele>66.0</ele><time>2026-05-01T09:01:58Z</time></trkpt><trkpt lat="43.26662353859293" lon="10.612916580799121"><ele>66.0</ele><time>2026-05-01T09:01:59Z</time></trkpt><trkpt lat="43.26662506448595" lon="10.613063906568353"><ele>66.0</ele><time>2026-05-01T09:02:00Z</time></trkpt><trkpt lat="43.26662785471038" lon="10.613218523329527"><ele>66.0</ele><time>2026-05-01T09:02:01Z</time></trkpt><trkpt lat="43.26662842400067" lon="10.613364375278357"><ele>66.6</ele><time>2026-05-01T09:02:02Z</time></trkpt><trkpt lat="43.26662779979178" lon="10.613505395538716"><ele>67.19999999999999</ele><time>2026-05-01T09:02:03Z</time></trkpt><trkpt lat="43.26662329075344" lon="10.613646857069016"><ele>67.80000000000001</ele><time>2026-05-01T09:02:04Z</time></trkpt><trkpt lat="43.26661444719467" lon="10.613793034056538"><ele>68.4</ele><time>2026-05-01T09:02:05Z</time></trkpt><trkpt lat="43.26659672364336" lon="10.613927112683774"><ele>69.0</ele><time>2026-05-01T09:02:06Z</time></trkpt><trkpt lat="43.26657576521061" lon="10.61406475165628"><ele>69.60000000000001</ele><time>2026-05-01T09:02:07Z</time></trkpt><trkpt lat="43.2665509830884" lon="10.614200106520524"><ele>70.2</ele><time>2026-05-01T09:02:08Z</time></trkpt><trkpt lat="43.266528549715524" lon="10.614340359566677"><ele>70.80000000000001</ele><time>2026-05-01T09:02:09Z</time></trkpt><trkpt lat="43.266508134393874" lon="10.614479033720801"><ele>71.4</ele><time>2026-05-01T09:02:10Z</time></trkpt><trkpt lat="43.26648598238568" lon="10.614613036168944"><ele>72.0</ele><time>2026-05-01T09:02:11Z</time></trkpt><trkpt lat="43.26646619456027" lon="10.61472948611301"><ele>72.2</ele><time>2026-05-01T09:02:12Z</time></trkpt><trkpt lat="43.266446250935786" lon="10.614846852936308"><ele>72.4</ele><time>2026-05-01T09:02:13Z</time></trkpt><trkpt lat="43.266424159129905" lon="10.614976861668257"><ele>72.6</ele><time>2026-05-01T09:02:14Z</time></trkpt><trkpt lat="43.26640045698695" lon="10.615116347093553"><ele>72.8</ele><time>2026-05-01T09:02:15Z</time></trkpt><trkpt lat="43.26637904661481" lon="10.615242345625175"><ele>73.0</ele><time>2026-05-01T09:02:16Z</time></trkpt><trkpt lat="43.26636311856342" lon="10.615351533528386"><ele>73.2</ele><time>2026-05-01T09:02:17Z</time></trkpt><trkpt lat="43.26635857931888" lon="10.615456716780747"><ele>73.4</ele><time>2026-05-01T09:02:18Z</time></trkpt><trkpt lat="43.26636509103814" lon="10.615552277375192"><ele>73.60000000000001</ele><time>2026-05-01T09:02:19Z</time></trkpt><trkpt lat="43.26641129009008" lon="10.615741483949755"><ele>73.8</ele><time>2026-05-01T09:02:21Z</time></trkpt><trkpt lat="43.26648624024782" lon="10.615855604675756"><ele>74.0</ele><time>2026-05-01T09:02:23Z</time></trkpt><trkpt lat="43.266525307077856" lon="10.61594693028434"><ele>74.0</ele><time>2026-05-01T09:02:25Z</time></trkpt><trkpt lat="43.266575458809804" lon="10.616002101973741"><ele>74.0</ele><time>2026-05-01T09:02:28Z</time></trkpt><trkpt lat="43.266638439004275" lon="10.61614722023663"><ele>74.0</ele><time>2026-05-01T09:02:30Z</time></trkpt><trkpt lat="43.266676967007946" lon="10.616321080163074"><ele>74.0</ele><time>2026-05-01T09:02:32Z</time></trkpt><trkpt lat="43.266702513306946" lon="10.616440846046778"><ele>74.0</ele><time>2026-05-01T09:02:33Z</time></trkpt><trkpt lat="43.26668627913965" lon="10.6167133089863"><ele>74.25</ele><time>2026-05-01T09:02:35Z</time></trkpt><trkpt lat="43.26673033835354" lon="10.616846837864134"><ele>74.5</ele><time>2026-05-01T09:02:36Z</time></trkpt><trkpt lat="43.26677770082707" lon="10.61694929375331"><ele>74.75</ele><time>2026-05-01T09:02:37Z</time></trkpt><trkpt lat="43.26683749449751" lon="10.617075987621199"><ele>75.0</ele><time>2026-05-01T09:02:38Z</time></trkpt><trkpt lat="43.267460601178676" lon="10.616853965702592"><ele>77.75</ele><time>2026-05-01T09:02:39Z</time></trkpt><trkpt lat="43.26756558527211" lon="10.616930590662385"><ele>80.5</ele><time>2026-05-01T09:02:40Z</time></trkpt><trkpt lat="43.267663134352034" lon="10.616997242027283"><ele>83.25</ele><time>2026-05-01T09:02:41Z</time></trkpt><trkpt lat="43.26777137524633" lon="10.617066935142946"><ele>86.0</ele><time>2026-05-01T09:02:42Z</time></trkpt><trkpt lat="43.26789646312546" lon="10.617137385491851"><ele>86.0</ele><time>2026-05-01T09:02:43Z</time></trkpt><trkpt lat="43.268017290337234" lon="10.617207572170015"><ele>86.0</ele><time>2026-05-01T09:02:44Z</time></trkpt><trkpt lat="43.26812274743947" lon="10.617269618647786"><ele>86.0</ele><time>2026-05-01T09:02:45Z</time></trkpt><trkpt lat="43.26822320337675" lon="10.617336265613877"><ele>86.0</ele><time>2026-05-01T09:02:46Z</time></trkpt><trkpt lat="43.268304041092264" lon="10.61739246197646"><ele>86.0</ele><time>2026-05-01T09:02:47Z</time></trkpt><trkpt lat="43.26837591950776" lon="10.617469573023024"><ele>88.0</ele><time>2026-05-01T09:02:49Z</time></trkpt><trkpt lat="43.268399210973634" lon="10.617551673729281"><ele>90.0</ele><time>2026-05-01T09:02:51Z</time></trkpt><trkpt lat="43.26848726471556" lon="10.617610346760689"><ele>92.0</ele><time>2026-05-01T09:03:05Z</time></trkpt><trkpt lat="43.2685827455205" lon="10.617604982494138"><ele>94.0</ele><time>2026-05-01T09:03:07Z</time></trkpt><trkpt lat="43.26867207631412" lon="10.617633513734086"><ele>96.0</ele><time>2026-05-01T09:03:08Z</time></trkpt><trkpt lat="43.26877618973211" lon="10.617659005549415"><ele>96.0</ele><time>2026-05-01T09:03:09Z</time></trkpt><trkpt lat="43.268899413800646" lon="10.61770199705859"><ele>96.0</ele><time>2026-05-01T09:03:10Z</time></trkpt><trkpt lat="43.26904940422871" lon="10.617753628055764"><ele>96.0</ele><time>2026-05-01T09:03:11Z</time></trkpt><trkpt lat="43.26921480642674" lon="10.617796714165056"><ele>96.0</ele><time>2026-05-01T09:03:12Z</time></trkpt><trkpt lat="43.26936989313777" lon="10.6178432406396"><ele>96.0</ele><time>2026-05-01T09:03:13Z</time></trkpt><trkpt lat="43.26949663548353" lon="10.617886170140256"><ele>96.0</ele><time>2026-05-01T09:03:14Z</time></trkpt><trkpt lat="43.269625915030474" lon="10.617918090436936"><ele>96.0</ele><time>2026-05-01T09:03:15Z</time></trkpt><trkpt lat="43.26973789877973" lon="10.61794190088897"><ele>96.83333333333333</ele><time>2026-05-01T09:03:16Z</time></trkpt><trkpt lat="43.269832844071814" lon="10.617958154910214"><ele>97.66666666666666</ele><time>2026-05-01T09:03:17Z</time></trkpt><trkpt lat="43.26991671725713" lon="10.617968410648501"><ele>98.5</ele><time>2026-05-01T09:03:18Z</time></trkpt><trkpt lat="43.26999424613374" lon="10.617966343073704"><ele>99.33333333333333</ele><time>2026-05-01T09:03:19Z</time></trkpt><trkpt lat="43.27006692308291" lon="10.617965357250293"><ele>100.16666666666666</ele><time>2026-05-01T09:03:20Z</time></trkpt><trkpt lat="43.270147362527894" lon="10.6179651907949"><ele>101.0</ele><time>2026-05-01T09:03:21Z</time></trkpt><trkpt lat="43.27022551009718" lon="10.617959645676468"><ele>101.0</ele><time>2026-05-01T09:03:22Z</time></trkpt><trkpt lat="43.27030303182987" lon="10.61795397895615"><ele>101.0</ele><time>2026-05-01T09:03:23Z</time></trkpt><trkpt lat="43.2703966283277" lon="10.61795261229773"><ele>101.0</ele><time>2026-05-01T09:03:24Z</time></trkpt><trkpt lat="43.270500540141676" lon="10.617962696717257"><ele>101.0</ele><time>2026-05-01T09:03:25Z</time></trkpt><trkpt lat="43.27060562038003" lon="10.617971680420114"><ele>101.0</ele><time>2026-05-01T09:03:26Z</time></trkpt><trkpt lat="43.27071299274582" lon="10.617976265786261"><ele>101.0</ele><time>2026-05-01T09:03:27Z</time></trkpt><trkpt lat="43.2708162532077" lon="10.61798642855433"><ele>101.0</ele><time>2026-05-01T09:03:28Z</time></trkpt><trkpt lat="43.27092754261078" lon="10.618026232206281"><ele>101.0</ele><time>2026-05-01T09:03:29Z</time></trkpt><trkpt lat="43.27104008728907" lon="10.618080717999309"><ele>101.0</ele><time>2026-05-01T09:03:30Z</time></trkpt><trkpt lat="43.271140570904194" lon="10.61813674751697"><ele>101.0</ele><time>2026-05-01T09:03:31Z</time></trkpt><trkpt lat="43.271236112716124" lon="10.61819622036412"><ele>101.0</ele><time>2026-05-01T09:03:32Z</time></trkpt><trkpt lat="43.271336413377774" lon="10.618259923157947"><ele>101.0</ele><time>2026-05-01T09:03:33Z</time></trkpt><trkpt lat="43.27143411546867" lon="10.618327054010075"><ele>101.0</ele><time>2026-05-01T09:03:34Z</time></trkpt><trkpt lat="43.271529771037194" lon="10.618387010181387"><ele>101.0</ele><time>2026-05-01T09:03:35Z</time></trkpt><trkpt lat="43.27161992691289" lon="10.61844334306852"><ele>101.0</ele><time>2026-05-01T09:03:36Z</time></trkpt><trkpt lat="43.27171608757173" lon="10.618498799201687"><ele>101.0</ele><time>2026-05-01T09:03:37Z</time></trkpt><trkpt lat="43.271816882678394" lon="10.618570667161094"><ele>101.0</ele><time>2026-05-01T09:03:38Z</time></trkpt><trkpt lat="43.27191321501941" lon="10.61864450085433"><ele>101.0</ele><time>2026-05-01T09:03:39Z</time></trkpt><trkpt lat="43.27200261865305" lon="10.618718352726653"><ele>101.0</ele><time>2026-05-01T09:03:40Z</time></trkpt><trkpt lat="43.27208570025804" lon="10.61879200078573"><ele>101.0</ele><time>2026-05-01T09:03:41Z</time></trkpt><trkpt lat="43.272159780383234" lon="10.6188611420245"><ele>100.99999999999999</ele><time>2026-05-01T09:03:42Z</time></trkpt><trkpt lat="43.272223625477416" lon="10.618929480383514"><ele>101.0</ele><time>2026-05-01T09:03:43Z</time></trkpt><trkpt lat="43.27227555987563" lon="10.618990158115185"><ele>101.0</ele><time>2026-05-01T09:03:44Z</time></trkpt><trkpt lat="43.272328668061014" lon="10.619045251850366"><ele>101.0</ele><time>2026-05-01T09:03:45Z</time></trkpt><trkpt lat="43.272424718612186" lon="10.619134586240838"><ele>100.99999999999999</ele><time>2026-05-01T09:03:47Z</time></trkpt><trkpt lat="43.27251604838502" lon="10.619207607266294"><ele>101.0</ele><time>2026-05-01T09:03:49Z</time></trkpt><trkpt lat="43.272616036796215" lon="10.619292913289106"><ele>101.16666666666666</ele><time>2026-05-01T09:03:51Z</time></trkpt><trkpt lat="43.27268046277416" lon="10.619367834334518"><ele>101.33333333333333</ele><time>2026-05-01T09:03:52Z</time></trkpt><trkpt lat="43.2727460461125" lon="10.619451756031111"><ele>101.5</ele><time>2026-05-01T09:03:53Z</time></trkpt><trkpt lat="43.272797486578426" lon="10.619540397529672"><ele>101.66666666666666</ele><time>2026-05-01T09:03:54Z</time></trkpt><trkpt lat="43.27283803911103" lon="10.619641131207583"><ele>101.83333333333333</ele><time>2026-05-01T09:03:55Z</time></trkpt><trkpt lat="43.272870404288575" lon="10.619747048080473"><ele>102.0</ele><time>2026-05-01T09:03:56Z</time></trkpt><trkpt lat="43.27288730589735" lon="10.619853510510499"><ele>102.0</ele><time>2026-05-01T09:03:57Z</time></trkpt><trkpt lat="43.27289361495031" lon="10.619970994701237"><ele>102.0</ele><time>2026-05-01T09:03:58Z</time></trkpt><trkpt lat="43.27289244025453" lon="10.620106745918124"><ele>102.0</ele><time>2026-05-01T09:03:59Z</time></trkpt><trkpt lat="43.27288974406218" lon="10.620221082060745"><ele>102.0</ele><time>2026-05-01T09:04:00Z</time></trkpt><trkpt lat="43.27288854582161" lon="10.620314741346446"><ele>102.0</ele><time>2026-05-01T09:04:01Z</time></trkpt><trkpt lat="43.272874468057765" lon="10.620469433966418"><ele>103.0</ele><time>2026-05-01T09:04:03Z</time></trkpt><trkpt lat="43.27286743219745" lon="10.620568848930258"><ele>104.0</ele><time>2026-05-01T09:04:05Z</time></trkpt><trkpt lat="43.27276564281673" lon="10.620607537655145"><ele>105.0</ele><time>2026-05-01T09:04:35Z</time></trkpt><trkpt lat="43.27269158050954" lon="10.620596806677877"><ele>106.0</ele><time>2026-05-01T09:04:36Z</time></trkpt><trkpt lat="43.27260938296874" lon="10.620591058466779"><ele>107.0</ele><time>2026-05-01T09:04:37Z</time></trkpt><trkpt lat="43.27252970995158" lon="10.620581605939927"><ele>108.0</ele><time>2026-05-01T09:04:38Z</time></trkpt><trkpt lat="43.272449593116505" lon="10.620571659875544"><ele>108.0</ele><time>2026-05-01T09:04:39Z</time></trkpt><trkpt lat="43.27234805101374" lon="10.620559997478379"><ele>108.00000000000001</ele><time>2026-05-01T09:04:40Z</time></trkpt><trkpt lat="43.272241278966085" lon="10.620549917126551"><ele>108.00000000000001</ele><time>2026-05-01T09:04:41Z</time></trkpt><trkpt lat="43.27214344501625" lon="10.620515860257962"><ele>108.0</ele><time>2026-05-01T09:04:42Z</time></trkpt><trkpt lat="43.2720452556349" lon="10.620503368084705"><ele>108.0</ele><time>2026-05-01T09:04:43Z</time></trkpt><trkpt lat="43.271950558117915" lon="10.620492317817519"><ele>106.80000000000001</ele><time>2026-05-01T09:04:44Z</time></trkpt><trkpt lat="43.27186264049843" lon="10.620482058708404"><ele>105.60000000000001</ele><time>2026-05-01T09:04:45Z</time></trkpt><trkpt lat="43.27177025604684" lon="10.62047127835779"><ele>104.4</ele><time>2026-05-01T09:04:46Z</time></trkpt><trkpt lat="43.27166749468616" lon="10.620459330048007"><ele>103.19999999999999</ele><time>2026-05-01T09:04:47Z</time></trkpt><trkpt lat="43.27156362574349" lon="10.620447377120241"><ele>102.0</ele><time>2026-05-01T09:04:48Z</time></trkpt><trkpt lat="43.27144951560591" lon="10.62043424565315"><ele>100.5</ele><time>2026-05-01T09:04:49Z</time></trkpt><trkpt lat="43.271341015177256" lon="10.620421759749707"><ele>99.0</ele><time>2026-05-01T09:04:50Z</time></trkpt><trkpt lat="43.27123685037594" lon="10.620409772772032"><ele>97.5</ele><time>2026-05-01T09:04:51Z</time></trkpt><trkpt lat="43.271117985554355" lon="10.620396094151953"><ele>96.0</ele><time>2026-05-01T09:04:52Z</time></trkpt><trkpt lat="43.271001047733435" lon="10.620382637295672"><ele>96.0</ele><time>2026-05-01T09:04:53Z</time></trkpt><trkpt lat="43.270875625157366" lon="10.620368204042427"><ele>96.0</ele><time>2026-05-01T09:04:54Z</time></trkpt><trkpt lat="43.27075614876633" lon="10.620354455039264"><ele>96.0</ele><time>2026-05-01T09:04:55Z</time></trkpt><trkpt lat="43.27062062090587" lon="10.620337834597457"><ele>96.0</ele><time>2026-05-01T09:04:56Z</time></trkpt><trkpt lat="43.27051350009055" lon="10.620323231111119"><ele>94.0</ele><time>2026-05-01T09:04:57Z</time></trkpt><trkpt lat="43.27040822745314" lon="10.620308879590652"><ele>92.0</ele><time>2026-05-01T09:04:58Z</time></trkpt><trkpt lat="43.27029467383943" lon="10.620293399147322"><ele>90.0</ele><time>2026-05-01T09:04:59Z</time></trkpt><trkpt lat="43.27019462977747" lon="10.620282364188768"><ele>88.0</ele><time>2026-05-01T09:05:00Z</time></trkpt><trkpt lat="43.27009608861462" lon="10.62027149448461"><ele>86.0</ele><time>2026-05-01T09:05:01Z</time></trkpt><trkpt lat="43.269996136424695" lon="10.6202604691373"><ele>86.0</ele><time>2026-05-01T09:05:02Z</time></trkpt><trkpt lat="43.26986834741319" lon="10.620248726761327"><ele>86.0</ele><time>2026-05-01T09:05:03Z</time></trkpt><trkpt lat="43.26975127064118" lon="10.620259315771731"><ele>86.0</ele><time>2026-05-01T09:05:04Z</time></trkpt><trkpt lat="43.26964652965653" lon="10.620228524973852"><ele>86.0</ele><time>2026-05-01T09:05:05Z</time></trkpt><trkpt lat="43.26955012528046" lon="10.620237018229217"><ele>86.0</ele><time>2026-05-01T09:05:06Z</time></trkpt><trkpt lat="43.26943859083057" lon="10.620224999874212"><ele>85.19999999999999</ele><time>2026-05-01T09:05:07Z</time></trkpt><trkpt lat="43.26930790940094" lon="10.62021312058838"><ele>84.39999999999999</ele><time>2026-05-01T09:05:08Z</time></trkpt><trkpt lat="43.26919473350109" lon="10.620197510731167"><ele>83.6</ele><time>2026-05-01T09:05:09Z</time></trkpt><trkpt lat="43.26909243135736" lon="10.62018591792306"><ele>82.8</ele><time>2026-05-01T09:05:10Z</time></trkpt><trkpt lat="43.2689965554687" lon="10.620171083841711"><ele>82.0</ele><time>2026-05-01T09:05:11Z</time></trkpt><trkpt lat="43.268903900071095" lon="10.620159632840178"><ele>81.39999999999999</ele><time>2026-05-01T09:05:12Z</time></trkpt><trkpt lat="43.268827052697326" lon="10.620153264254764"><ele>80.8</ele><time>2026-05-01T09:05:13Z</time></trkpt><trkpt lat="43.268717608834464" lon="10.620139394904463"><ele>80.2</ele><time>2026-05-01T09:05:15Z</time></trkpt><trkpt lat="43.26861468899152" lon="10.62010177089555"><ele>79.6</ele><time>2026-05-01T09:05:17Z</time></trkpt><trkpt lat="43.26854117157292" lon="10.620028733767626"><ele>79.0</ele><time>2026-05-01T09:05:18Z</time></trkpt><trkpt lat="43.268469746457725" lon="10.61993606121857"><ele>79.0</ele><time>2026-05-01T09:05:19Z</time></trkpt><trkpt lat="43.268409597654575" lon="10.619842455136977"><ele>79.0</ele><time>2026-05-01T09:05:20Z</time></trkpt><trkpt lat="43.26835250353219" lon="10.619736475839698"><ele>79.0</ele><time>2026-05-01T09:05:21Z</time></trkpt><trkpt lat="43.2682953024808" lon="10.619625646641195"><ele>79.0</ele><time>2026-05-01T09:05:22Z</time></trkpt><trkpt lat="43.268242266476975" lon="10.61952631974168"><ele>79.0</ele><time>2026-05-01T09:05:23Z</time></trkpt><trkpt lat="43.268180728781545" lon="10.619436333694866"><ele>78.8</ele><time>2026-05-01T09:05:24Z</time></trkpt><trkpt lat="43.268101859486535" lon="10.619336460357552"><ele>78.60000000000001</ele><time>2026-05-01T09:05:25Z</time></trkpt><trkpt lat="43.26800053207812" lon="10.619235046491703"><ele>78.4</ele><time>2026-05-01T09:05:26Z</time></trkpt><trkpt lat="43.267903744896266" lon="10.61915501053597"><ele>78.2</ele><time>2026-05-01T09:05:27Z</time></trkpt><trkpt lat="43.267811096094334" lon="10.619095407760678"><ele>78.0</ele><time>2026-05-01T09:05:28Z</time></trkpt><trkpt lat="43.267721482904456" lon="10.619050065330752"><ele>78.0</ele><time>2026-05-01T09:05:29Z</time></trkpt><trkpt lat="43.2676333683953" lon="10.619022204278263"><ele>78.0</ele><time>2026-05-01T09:05:30Z</time></trkpt><trkpt lat="43.26754936419638" lon="10.619005865427322"><ele>78.0</ele><time>2026-05-01T09:05:31Z</time></trkpt><trkpt lat="43.26746637104811" lon="10.618994257126534"><ele>78.0</ele><time>2026-05-01T09:05:32Z</time></trkpt><trkpt lat="43.26739080051634" lon="10.618982915108052"><ele>78.0</ele><time>2026-05-01T09:05:33Z</time></trkpt><trkpt lat="43.26728688923831" lon="10.618969685738092"><ele>78.0</ele><time>2026-05-01T09:05:35Z</time></trkpt><trkpt lat="43.26720930375425" lon="10.61897191626647"><ele>78.0</ele><time>2026-05-01T09:05:37Z</time></trkpt><trkpt lat="43.267167330722785" lon="10.619251058643147"><ele>78.0</ele><time>2026-05-01T09:05:40Z</time></trkpt><trkpt lat="43.26719132114551" lon="10.619359718864528"><ele>78.0</ele><time>2026-05-01T09:05:41Z</time></trkpt><trkpt lat="43.26722575834975" lon="10.619509564416253"><ele>78.0</ele><time>2026-05-01T09:05:42Z</time></trkpt><trkpt lat="43.267275821465965" lon="10.619658228808476"><ele>78.25</ele><time>2026-05-01T09:05:43Z</time></trkpt><trkpt lat="43.267311346622805" lon="10.619856125984958"><ele>78.5</ele><time>2026-05-01T09:05:44Z</time></trkpt><trkpt lat="43.26735132509181" lon="10.620044712109006"><ele>78.75</ele><time>2026-05-01T09:05:45Z</time></trkpt><trkpt lat="43.2673933716033" lon="10.620236078150644"><ele>79.0</ele><time>2026-05-01T09:05:46Z</time></trkpt><trkpt lat="43.26742743901727" lon="10.620412469009691"><ele>80.25</ele><time>2026-05-01T09:05:47Z</time></trkpt><trkpt lat="43.26747343952231" lon="10.62059928594984"><ele>81.5</ele><time>2026-05-01T09:05:48Z</time></trkpt><trkpt lat="43.267496673011046" lon="10.620783213654041"><ele>82.75</ele><time>2026-05-01T09:05:49Z</time></trkpt><trkpt lat="43.267549085263134" lon="10.620974890292718"><ele>84.0</ele><time>2026-05-01T09:05:50Z</time></trkpt><trkpt lat="43.26761389542644" lon="10.621176672955558"><ele>85.75</ele><time>2026-05-01T09:05:51Z</time></trkpt><trkpt lat="43.26767447439462" lon="10.621361092330378"><ele>87.5</ele><time>2026-05-01T09:05:52Z</time></trkpt><trkpt lat="43.267725040540334" lon="10.621523023196216"><ele>89.25</ele><time>2026-05-01T09:05:53Z</time></trkpt><trkpt lat="43.26777486927466" lon="10.621682714947992"><ele>91.0</ele><time>2026-05-01T09:05:54Z</time></trkpt><trkpt lat="43.267817466705935" lon="10.621819231738488"><ele>91.0</ele><time>2026-05-01T09:05:55Z</time></trkpt><trkpt lat="43.267844624406926" lon="10.621906267073825"><ele>91.0</ele><time>2026-05-01T09:05:56Z</time></trkpt><trkpt lat="43.267870754469655" lon="10.621986438974456"><ele>91.0</ele><time>2026-05-01T09:05:57Z</time></trkpt><trkpt lat="43.26791713580496" lon="10.622119155882075"><ele>91.0</ele><time>2026-05-01T09:05:59Z</time></trkpt><trkpt lat="43.26798002632604" lon="10.622271369280812"><ele>91.0</ele><time>2026-05-01T09:06:01Z</time></trkpt><trkpt lat="43.26801133372045" lon="10.622382555149011"><ele>90.57142857142857</ele><time>2026-05-01T09:06:02Z</time></trkpt><trkpt lat="43.26804018387092" lon="10.622460753631634"><ele>90.14285714285714</ele><time>2026-05-01T09:06:07Z</time></trkpt><trkpt lat="43.26808723401522" lon="10.622528995878062"><ele>89.71428571428572</ele><time>2026-05-01T09:06:51Z</time></trkpt><trkpt lat="43.268140084676546" lon="10.62262770887565"><ele>89.28571428571428</ele><time>2026-05-01T09:07:54Z</time></trkpt><trkpt lat="43.26808522405085" lon="10.622577433081716"><ele>88.85714285714286</ele><time>2026-05-01T09:08:16Z</time></trkpt><trkpt lat="43.2681169819772" lon="10.62268944622146"><ele>88.42857142857143</ele><time>2026-05-01T09:08:46Z</time></trkpt><trkpt lat="43.26812371508083" lon="10.622789007895031"><ele>88.0</ele><time>2026-05-01T09:08:47Z</time></trkpt><trkpt lat="43.26812144432647" lon="10.622934910494216"><ele>88.0</ele><time>2026-05-01T09:08:48Z</time></trkpt><trkpt lat="43.26810083492882" lon="10.623079497604376"><ele>88.0</ele><time>2026-05-01T09:08:49Z</time></trkpt><trkpt lat="43.26809675522913" lon="10.623209588736675"><ele>88.0</ele><time>2026-05-01T09:08:50Z</time></trkpt><trkpt lat="43.26810078931962" lon="10.623350404211546"><ele>88.0</ele><time>2026-05-01T09:08:51Z</time></trkpt><trkpt lat="43.26812631652228" lon="10.623474839470413"><ele>88.0</ele><time>2026-05-01T09:08:52Z</time></trkpt><trkpt lat="43.26816682954233" lon="10.623595770717072"><ele>89.2</ele><time>2026-05-01T09:08:53Z</time></trkpt><trkpt lat="43.268209631454596" lon="10.623732713807309"><ele>90.4</ele><time>2026-05-01T09:08:54Z</time></trkpt><trkpt lat="43.26826217222043" lon="10.623858270612962"><ele>91.60000000000001</ele><time>2026-05-01T09:08:55Z</time></trkpt><trkpt lat="43.26833868081245" lon="10.62396587135734"><ele>92.80000000000001</ele><time>2026-05-01T09:08:56Z</time></trkpt><trkpt lat="43.26839696051227" lon="10.624090848088505"><ele>94.0</ele><time>2026-05-01T09:08:57Z</time></trkpt><trkpt lat="43.268458763054454" lon="10.62417965219622"><ele>94.0</ele><time>2026-05-01T09:08:58Z</time></trkpt><trkpt lat="43.268479266493955" lon="10.624306259250472"><ele>94.0</ele><time>2026-05-01T09:08:59Z</time></trkpt><trkpt lat="43.26846763870937" lon="10.62440928167766"><ele>94.0</ele><time>2026-05-01T09:09:00Z</time></trkpt><trkpt lat="43.26849429426328" lon="10.624535140309941"><ele>94.0</ele><time>2026-05-01T09:09:02Z</time></trkpt><trkpt lat="43.26856007186356" lon="10.624644257255063"><ele>94.0</ele><time>2026-05-01T09:09:04Z</time></trkpt><trkpt lat="43.26861134761014" lon="10.624726807385239"><ele>94.0</ele><time>2026-05-01T09:09:06Z</time></trkpt><trkpt lat="43.26865838571976" lon="10.624817705681313"><ele>95.28571428571428</ele><time>2026-05-01T09:09:08Z</time></trkpt><trkpt lat="43.26870235714937" lon="10.624883309772287"><ele>96.57142857142857</ele><time>2026-05-01T09:09:09Z</time></trkpt><trkpt lat="43.26875094129604" lon="10.624950025424841"><ele>97.85714285714286</ele><time>2026-05-01T09:09:10Z</time></trkpt><trkpt lat="43.26880014765313" lon="10.625022880073839"><ele>99.14285714285714</ele><time>2026-05-01T09:09:11Z</time></trkpt><trkpt lat="43.26883490665656" lon="10.625103638638322"><ele>100.42857142857143</ele><time>2026-05-01T09:09:12Z</time></trkpt><trkpt lat="43.268879386045725" lon="10.62518991263998"><ele>101.71428571428571</ele><time>2026-05-01T09:09:13Z</time></trkpt><trkpt lat="43.26889113036643" lon="10.625308636611239"><ele>103.0</ele><time>2026-05-01T09:09:14Z</time></trkpt><trkpt lat="43.26889093656895" lon="10.62541411554003"><ele>104.2</ele><time>2026-05-01T09:09:15Z</time></trkpt><trkpt lat="43.26887226484839" lon="10.625527169271754"><ele>105.4</ele><time>2026-05-01T09:09:16Z</time></trkpt><trkpt lat="43.26882816372458" lon="10.625633766583299"><ele>106.60000000000001</ele><time>2026-05-01T09:09:17Z</time></trkpt><trkpt lat="43.268767906900976" lon="10.625737241971304"><ele>107.80000000000001</ele><time>2026-05-01T09:09:18Z</time></trkpt><trkpt lat="43.26867977824789" lon="10.625884987546902"><ele>109.0</ele><time>2026-05-01T09:09:19Z</time></trkpt><trkpt lat="43.26863721500389" lon="10.626009052606076"><ele>109.00000000000001</ele><time>2026-05-01T09:09:20Z</time></trkpt><trkpt lat="43.268598197505625" lon="10.626138726836029"><ele>109.0</ele><time>2026-05-01T09:09:22Z</time></trkpt><trkpt lat="43.2686576108521" lon="10.626188127943076"><ele>109.0</ele><time>2026-05-01T09:09:23Z</time></trkpt><trkpt lat="43.26872908878085" lon="10.626282369185304"><ele>109.0</ele><time>2026-05-01T09:09:25Z</time></trkpt><trkpt lat="43.26881956905947" lon="10.626294198474502"><ele>109.00000000000001</ele><time>2026-05-01T09:09:27Z</time></trkpt><trkpt lat="43.268892762420116" lon="10.626289079403069"><ele>109.0</ele><time>2026-05-01T09:09:28Z</time></trkpt><trkpt lat="43.26898745664754" lon="10.626284765142211"><ele>109.2</ele><time>2026-05-01T09:09:29Z</time></trkpt><trkpt lat="43.26906787599479" lon="10.626362359771365"><ele>109.4</ele><time>2026-05-01T09:09:30Z</time></trkpt><trkpt lat="43.26913380012089" lon="10.626403792504954"><ele>109.6</ele><time>2026-05-01T09:09:31Z</time></trkpt><trkpt lat="43.26919289305506" lon="10.626469485099959"><ele>109.8</ele><time>2026-05-01T09:09:32Z</time></trkpt><trkpt lat="43.269264362245835" lon="10.62657767223082"><ele>110.0</ele><time>2026-05-01T09:09:33Z</time></trkpt><trkpt lat="43.26933840718147" lon="10.626725799646382"><ele>110.0</ele><time>2026-05-01T09:09:34Z</time></trkpt><trkpt lat="43.26941377620621" lon="10.626873671036583"><ele>110.0</ele><time>2026-05-01T09:09:35Z</time></trkpt><trkpt lat="43.26945484455111" lon="10.627011116786823"><ele>110.0</ele><time>2026-05-01T09:09:36Z</time></trkpt><trkpt lat="43.26945756518547" lon="10.627106337062926"><ele>110.0</ele><time>2026-05-01T09:09:37Z</time></trkpt><trkpt lat="43.26945511459247" lon="10.62724927891469"><ele>110.0</ele><time>2026-05-01T09:09:40Z</time></trkpt><trkpt lat="43.269495422751724" lon="10.627175945438886"><ele>110.0</ele><time>2026-05-01T09:12:19Z</time></trkpt><trkpt lat="43.26946596557859" lon="10.627018530426172"><ele>110.0</ele><time>2026-05-01T09:12:21Z</time></trkpt><trkpt lat="43.26944094010902" lon="10.626929736404659"><ele>110.0</ele><time>2026-05-01T09:12:22Z</time></trkpt><trkpt lat="43.26940241142038" lon="10.626787511421588"><ele>110.0</ele><time>2026-05-01T09:12:24Z</time></trkpt><trkpt lat="43.26933762301801" lon="10.626665481018215"><ele>110.0</ele><time>2026-05-01T09:12:26Z</time></trkpt><trkpt lat="43.269285454546605" lon="10.626538111272351"><ele>110.0</ele><time>2026-05-01T09:12:28Z</time></trkpt><trkpt lat="43.26921225524214" lon="10.62642445782458"><ele>110.0</ele><time>2026-05-01T09:12:30Z</time></trkpt><trkpt lat="43.26909844978284" lon="10.626330272826738"><ele>110.0</ele><time>2026-05-01T09:12:32Z</time></trkpt><trkpt lat="43.269008058974556" lon="10.626312021319787"><ele>110.0</ele><time>2026-05-01T09:12:33Z</time></trkpt><trkpt lat="43.2689207178426" lon="10.626315092382965"><ele>110.0</ele><time>2026-05-01T09:12:34Z</time></trkpt><trkpt lat="43.26882438873306" lon="10.626323849855565"><ele>109.83333333333333</ele><time>2026-05-01T09:12:36Z</time></trkpt><trkpt lat="43.26874356829564" lon="10.626300516219889"><ele>109.66666666666666</ele><time>2026-05-01T09:12:38Z</time></trkpt><trkpt lat="43.26864936989135" lon="10.626204283127006"><ele>109.5</ele><time>2026-05-01T09:12:40Z</time></trkpt><trkpt lat="43.26863770682964" lon="10.626109281786812"><ele>109.33333333333334</ele><time>2026-05-01T09:12:41Z</time></trkpt><trkpt lat="43.26866392040569" lon="10.626015070025076"><ele>109.16666666666667</ele><time>2026-05-01T09:12:42Z</time></trkpt><trkpt lat="43.268731011381206" lon="10.62594077132116"><ele>109.0</ele><time>2026-05-01T09:12:43Z</time></trkpt><trkpt lat="43.268775859083775" lon="10.625854486383817"><ele>109.00000000000001</ele><time>2026-05-01T09:12:44Z</time></trkpt><trkpt lat="43.26882227423523" lon="10.625765810822719"><ele>109.0</ele><time>2026-05-01T09:12:45Z</time></trkpt><trkpt lat="43.26886573149057" lon="10.625680681171634"><ele>109.0</ele><time>2026-05-01T09:12:46Z</time></trkpt><trkpt lat="43.26889654612065" lon="10.625586244172599"><ele>109.0</ele><time>2026-05-01T09:12:47Z</time></trkpt><trkpt lat="43.268908853148126" lon="10.625483217455814"><ele>109.00000000000001</ele><time>2026-05-01T09:12:48Z</time></trkpt><trkpt lat="43.2689060959021" lon="10.625356915037575"><ele>109.0</ele><time>2026-05-01T09:12:49Z</time></trkpt><trkpt lat="43.268908857447194" lon="10.625231902918703"><ele>108.00000000000001</ele><time>2026-05-01T09:12:50Z</time></trkpt><trkpt lat="43.268878910867066" lon="10.625127514152016"><ele>107.0</ele><time>2026-05-01T09:12:51Z</time></trkpt><trkpt lat="43.2688410787738" lon="10.625026858890415"><ele>106.0</ele><time>2026-05-01T09:12:52Z</time></trkpt><trkpt lat="43.268805909444154" lon="10.624950463745604"><ele>105.0</ele><time>2026-05-01T09:12:53Z</time></trkpt><trkpt lat="43.26875162751708" lon="10.624886404082373"><ele>104.00000000000001</ele><time>2026-05-01T09:12:54Z</time></trkpt><trkpt lat="43.26870109340455" lon="10.62481365209595"><ele>103.0</ele><time>2026-05-01T09:12:56Z</time></trkpt><trkpt lat="43.26880843559198" lon="10.624855971670199"><ele>103.0</ele><time>2026-05-01T09:13:16Z</time></trkpt><trkpt lat="43.26889395707762" lon="10.624940396027029"><ele>103.0</ele><time>2026-05-01T09:13:18Z</time></trkpt><trkpt lat="43.26901689934385" lon="10.62503991690769"><ele>103.0</ele><time>2026-05-01T09:13:20Z</time></trkpt><trkpt lat="43.26909957975416" lon="10.625059985822807"><ele>103.0</ele><time>2026-05-01T09:13:21Z</time></trkpt><trkpt lat="43.26917466071268" lon="10.625064067387257"><ele>103.0</ele><time>2026-05-01T09:13:22Z</time></trkpt><trkpt lat="43.26925232064379" lon="10.625119448106059"><ele>102.50000000000001</ele><time>2026-05-01T09:13:23Z</time></trkpt><trkpt lat="43.26932820895358" lon="10.625173317634461"><ele>102.0</ele><time>2026-05-01T09:13:26Z</time></trkpt><trkpt lat="43.26940602613513" lon="10.625250570739468"><ele>101.5</ele><time>2026-05-01T09:13:29Z</time></trkpt><trkpt lat="43.26942305538617" lon="10.62536739945416"><ele>101.0</ele><time>2026-05-01T09:13:31Z</time></trkpt><trkpt lat="43.26946268527271" lon="10.625473901767275"><ele>100.50000000000001</ele><time>2026-05-01T09:13:33Z</time></trkpt><trkpt lat="43.26951687676721" lon="10.625543205620986"><ele>100.0</ele><time>2026-05-01T09:13:35Z</time></trkpt><trkpt lat="43.26955719698145" lon="10.62561381035961"><ele>100.00000000000001</ele><time>2026-05-01T09:13:44Z</time></trkpt><trkpt lat="43.26961625259105" lon="10.625657022326996"><ele>100.0</ele><time>2026-05-01T09:13:46Z</time></trkpt><trkpt lat="43.269705520126614" lon="10.625725644435803"><ele>100.0</ele><time>2026-05-01T09:13:50Z</time></trkpt><trkpt lat="43.269787758586645" lon="10.62582830673764"><ele>100.0</ele><time>2026-05-01T09:13:52Z</time></trkpt><trkpt lat="43.26979736122037" lon="10.625916078607494"><ele>100.00000000000001</ele><time>2026-05-01T09:13:53Z</time></trkpt><trkpt lat="43.269798542690566" lon="10.626019529330204"><ele>100.0</ele><time>2026-05-01T09:13:54Z</time></trkpt><trkpt lat="43.26981713372497" lon="10.626136715461293"><ele>100.33333333333334</ele><time>2026-05-01T09:13:55Z</time></trkpt><trkpt lat="43.26984297631915" lon="10.626247489041285"><ele>100.66666666666667</ele><time>2026-05-01T09:13:56Z</time></trkpt><trkpt lat="43.269881132416174" lon="10.626336912692846"><ele>101.0</ele><time>2026-05-01T09:13:57Z</time></trkpt><trkpt lat="43.26994454794194" lon="10.626406585256436"><ele>101.33333333333334</ele><time>2026-05-01T09:13:58Z</time></trkpt><trkpt lat="43.27002643886806" lon="10.626472857164993"><ele>101.66666666666667</ele><time>2026-05-01T09:13:59Z</time></trkpt><trkpt lat="43.2701148721462" lon="10.626544992815878"><ele>102.0</ele><time>2026-05-01T09:14:00Z</time></trkpt><trkpt lat="43.27018206787965" lon="10.626628277431728"><ele>102.0</ele><time>2026-05-01T09:14:01Z</time></trkpt><trkpt lat="43.27024785680379" lon="10.626726593734714"><ele>102.0</ele><time>2026-05-01T09:14:02Z</time></trkpt><trkpt lat="43.270316706943156" lon="10.626841938466145"><ele>102.0</ele><time>2026-05-01T09:14:03Z</time></trkpt><trkpt lat="43.270402217836555" lon="10.62696672698608"><ele>102.0</ele><time>2026-05-01T09:14:04Z</time></trkpt><trkpt lat="43.27049510492294" lon="10.627076058906617"><ele>102.8</ele><time>2026-05-01T09:14:05Z</time></trkpt><trkpt lat="43.27058798163873" lon="10.627184399138462"><ele>103.6</ele><time>2026-05-01T09:14:06Z</time></trkpt><trkpt lat="43.270661014298454" lon="10.627290345904298"><ele>104.39999999999999</ele><time>2026-05-01T09:14:07Z</time></trkpt><trkpt lat="43.27070569007038" lon="10.62738751469769"><ele>105.19999999999999</ele><time>2026-05-01T09:14:08Z</time></trkpt><trkpt lat="43.27073903853941" lon="10.627470759560618"><ele>106.0</ele><time>2026-05-01T09:14:09Z</time></trkpt><trkpt lat="43.27086259522875" lon="10.627542608019489"><ele>107.83333333333334</ele><time>2026-05-01T09:14:11Z</time></trkpt><trkpt lat="43.27094359808652" lon="10.627575724586743"><ele>109.66666666666667</ele><time>2026-05-01T09:14:12Z</time></trkpt><trkpt lat="43.27102941061894" lon="10.627604727088752"><ele>111.5</ele><time>2026-05-01T09:14:13Z</time></trkpt><trkpt lat="43.271105423136255" lon="10.627614559478893"><ele>113.33333333333334</ele><time>2026-05-01T09:14:14Z</time></trkpt><trkpt lat="43.27117393903251" lon="10.62759639198284"><ele>115.16666666666667</ele><time>2026-05-01T09:14:15Z</time></trkpt><trkpt lat="43.27124115770421" lon="10.627567923331247"><ele>117.0</ele><time>2026-05-01T09:14:16Z</time></trkpt><trkpt lat="43.271306615692794" lon="10.62754686985515"><ele>117.0</ele><time>2026-05-01T09:14:17Z</time></trkpt><trkpt lat="43.27137298711729" lon="10.627500593083061"><ele>117.0</ele><time>2026-05-01T09:14:18Z</time></trkpt><trkpt lat="43.2714338664746" lon="10.627440221363484"><ele>117.0</ele><time>2026-05-01T09:14:19Z</time></trkpt><trkpt lat="43.27148140564352" lon="10.627350785702442"><ele>117.0</ele><time>2026-05-01T09:14:20Z</time></trkpt><trkpt lat="43.271534538376486" lon="10.627255832225247"><ele>117.0</ele><time>2026-05-01T09:14:21Z</time></trkpt><trkpt lat="43.27159487056555" lon="10.627163281658504"><ele>117.0</ele><time>2026-05-01T09:14:22Z</time></trkpt><trkpt lat="43.27164958856377" lon="10.627078623195239"><ele>120.5</ele><time>2026-05-01T09:14:23Z</time></trkpt><trkpt lat="43.27171222036738" lon="10.626989400599113"><ele>124.0</ele><time>2026-05-01T09:14:24Z</time></trkpt><trkpt lat="43.27179204098656" lon="10.626897294978328"><ele>127.5</ele><time>2026-05-01T09:14:25Z</time></trkpt><trkpt lat="43.27185789177561" lon="10.626830023803087"><ele>131.0</ele><time>2026-05-01T09:14:26Z</time></trkpt><trkpt lat="43.27192775142658" lon="10.626824319546898"><ele>134.5</ele><time>2026-05-01T09:14:28Z</time></trkpt><trkpt lat="43.271960079123474" lon="10.62692150232022"><ele>138.0</ele><time>2026-05-01T09:14:30Z</time></trkpt><trkpt lat="43.27193169557604" lon="10.627089556925426"><ele>138.0</ele><time>2026-05-01T09:14:32Z</time></trkpt><trkpt lat="43.27193300326735" lon="10.627185472168991"><ele>138.0</ele><time>2026-05-01T09:14:33Z</time></trkpt><trkpt lat="43.27194824878528" lon="10.627298899523476"><ele>138.0</ele><time>2026-05-01T09:14:34Z</time></trkpt><trkpt lat="43.2719700362009" lon="10.627395917874733"><ele>138.0</ele><time>2026-05-01T09:14:35Z</time></trkpt><trkpt lat="43.272000311352464" lon="10.62749221238546"><ele>138.0</ele><time>2026-05-01T09:14:36Z</time></trkpt><trkpt lat="43.2720401889914" lon="10.627583630098778"><ele>138.0</ele><time>2026-05-01T09:14:37Z</time></trkpt><trkpt lat="43.27209987576251" lon="10.627687377966016"><ele>138.0</ele><time>2026-05-01T09:14:38Z</time></trkpt><trkpt lat="43.272145323745626" lon="10.627786356989693"><ele>138.0</ele><time>2026-05-01T09:14:39Z</time></trkpt><trkpt lat="43.27223228631805" lon="10.627889328790472"><ele>138.0</ele><time>2026-05-01T09:14:41Z</time></trkpt><trkpt lat="43.27230505468059" lon="10.627938621299585"><ele>138.0</ele><time>2026-05-01T09:14:42Z</time></trkpt><trkpt lat="43.272385904393154" lon="10.627988198133298"><ele>138.0</ele><time>2026-05-01T09:14:43Z</time></trkpt><trkpt lat="43.27246684422885" lon="10.628044590571143"><ele>140.20000000000002</ele><time>2026-05-01T09:14:44Z</time></trkpt><trkpt lat="43.27255194035839" lon="10.62809517967618"><ele>142.4</ele><time>2026-05-01T09:14:45Z</time></trkpt><trkpt lat="43.27263515456764" lon="10.628126534966524"><ele>144.60000000000002</ele><time>2026-05-01T09:14:46Z</time></trkpt><trkpt lat="43.27272821428222" lon="10.628142155350911"><ele>146.8</ele><time>2026-05-01T09:14:47Z</time></trkpt><trkpt lat="43.272833356057816" lon="10.628136393607809"><ele>149.0</ele><time>2026-05-01T09:14:48Z</time></trkpt><trkpt lat="43.27294681453128" lon="10.628113238227693"><ele>149.0</ele><time>2026-05-01T09:14:49Z</time></trkpt><trkpt lat="43.273062209672304" lon="10.628094500578138"><ele>149.0</ele><time>2026-05-01T09:14:50Z</time></trkpt><trkpt lat="43.273178899772894" lon="10.62810329918654"><ele>149.0</ele><time>2026-05-01T09:14:51Z</time></trkpt><trkpt lat="43.27328421608866" lon="10.628124651736998"><ele>149.0</ele><time>2026-05-01T09:14:52Z</time></trkpt><trkpt lat="43.2733957873881" lon="10.628164311527664"><ele>151.5</ele><time>2026-05-01T09:14:53Z</time></trkpt><trkpt lat="43.27352040434584" lon="10.628203988020156"><ele>154.0</ele><time>2026-05-01T09:14:54Z</time></trkpt><trkpt lat="43.273589140617425" lon="10.628229677887756"><ele>156.5</ele><time>2026-05-01T09:14:55Z</time></trkpt><trkpt lat="43.27364651693202" lon="10.628303056192316"><ele>159.0</ele><time>2026-05-01T09:14:57Z</time></trkpt><trkpt lat="43.273702848785" lon="10.628407574443225"><ele>161.5</ele><time>2026-05-01T09:14:58Z</time></trkpt><trkpt lat="43.27374662451204" lon="10.62848836664762"><ele>164.0</ele><time>2026-05-01T09:14:59Z</time></trkpt><trkpt lat="43.27379922678602" lon="10.628561109359223"><ele>164.0</ele><time>2026-05-01T09:15:01Z</time></trkpt><trkpt lat="43.27383168018745" lon="10.628691124634235"><ele>164.0</ele><time>2026-05-01T09:15:24Z</time></trkpt><trkpt lat="43.27385195631093" lon="10.628810932629666"><ele>164.0</ele><time>2026-05-01T09:15:25Z</time></trkpt><trkpt lat="43.273890176308335" lon="10.628951425731145"><ele>164.0</ele><time>2026-05-01T09:15:26Z</time></trkpt><trkpt lat="43.273946183176065" lon="10.629110684813515"><ele>164.0</ele><time>2026-05-01T09:15:27Z</time></trkpt><trkpt lat="43.27400363142621" lon="10.629281048561246"><ele>165.75</ele><time>2026-05-01T09:15:28Z</time></trkpt><trkpt lat="43.274068417941294" lon="10.629461663577315"><ele>167.5</ele><time>2026-05-01T09:15:29Z</time></trkpt><trkpt lat="43.274127346618684" lon="10.629590709908467"><ele>169.25</ele><time>2026-05-01T09:15:30Z</time></trkpt><trkpt lat="43.27415034203502" lon="10.629671470458257"><ele>171.0</ele><time>2026-05-01T09:15:31Z</time></trkpt><trkpt lat="43.274130785305886" lon="10.629868666904965"><ele>171.8</ele><time>2026-05-01T09:15:33Z</time></trkpt><trkpt lat="43.27411947206739" lon="10.629991542918285"><ele>172.60000000000002</ele><time>2026-05-01T09:15:34Z</time></trkpt><trkpt lat="43.27414301308948" lon="10.630110427424793"><ele>173.4</ele><time>2026-05-01T09:15:35Z</time></trkpt><trkpt lat="43.2742041284703" lon="10.630255254871704"><ele>174.2</ele><time>2026-05-01T09:15:36Z</time></trkpt><trkpt lat="43.27427702964439" lon="10.630415616145008"><ele>175.0</ele><time>2026-05-01T09:15:37Z</time></trkpt><trkpt lat="43.274354492678754" lon="10.63057964005831"><ele>175.5</ele><time>2026-05-01T09:15:38Z</time></trkpt><trkpt lat="43.27442201315735" lon="10.630716267876188"><ele>176.0</ele><time>2026-05-01T09:15:39Z</time></trkpt><trkpt lat="43.27449874625292" lon="10.630827297815046"><ele>176.5</ele><time>2026-05-01T09:15:40Z</time></trkpt><trkpt lat="43.27460513764621" lon="10.630914199847343"><ele>177.0</ele><time>2026-05-01T09:15:41Z</time></trkpt><trkpt lat="43.27470548887851" lon="10.631000023802505"><ele>177.0</ele><time>2026-05-01T09:15:42Z</time></trkpt><trkpt lat="43.274770905030806" lon="10.63109247631402"><ele>177.0</ele><time>2026-05-01T09:15:43Z</time></trkpt><trkpt lat="43.27482554670385" lon="10.631226222266514"><ele>177.0</ele><time>2026-05-01T09:15:44Z</time></trkpt><trkpt lat="43.27487305200354" lon="10.631395404902051"><ele>177.0</ele><time>2026-05-01T09:15:45Z</time></trkpt><trkpt lat="43.27492522287665" lon="10.631601378439695"><ele>179.2</ele><time>2026-05-01T09:15:46Z</time></trkpt><trkpt lat="43.27497257117051" lon="10.631779638656171"><ele>181.39999999999998</ele><time>2026-05-01T09:15:47Z</time></trkpt><trkpt lat="43.27500723445952" lon="10.631923923723841"><ele>183.60000000000002</ele><time>2026-05-01T09:15:48Z</time></trkpt><trkpt lat="43.27502562039899" lon="10.632034638193648"><ele>185.8</ele><time>2026-05-01T09:15:49Z</time></trkpt><trkpt lat="43.275022459512236" lon="10.632137178789076"><ele>188.0</ele><time>2026-05-01T09:15:50Z</time></trkpt><trkpt lat="43.27501146620311" lon="10.632280225895574"><ele>189.8</ele><time>2026-05-01T09:15:51Z</time></trkpt><trkpt lat="43.27499862176743" lon="10.632454754410404"><ele>191.60000000000002</ele><time>2026-05-01T09:15:52Z</time></trkpt><trkpt lat="43.2749741635482" lon="10.632609019700036"><ele>193.39999999999998</ele><time>2026-05-01T09:15:53Z</time></trkpt><trkpt lat="43.27494196835381" lon="10.632720944120875"><ele>195.2</ele><time>2026-05-01T09:15:54Z</time></trkpt><trkpt lat="43.27495091124501" lon="10.63286894390735"><ele>197.0</ele><time>2026-05-01T09:15:56Z</time></trkpt><trkpt lat="43.27499683787465" lon="10.632984224182621"><ele>197.5</ele><time>2026-05-01T09:15:57Z</time></trkpt><trkpt lat="43.27507015845837" lon="10.633117173941605"><ele>198.0</ele><time>2026-05-01T09:15:58Z</time></trkpt><trkpt lat="43.275152190829196" lon="10.63324736700852"><ele>198.5</ele><time>2026-05-01T09:15:59Z</time></trkpt><trkpt lat="43.27524698803315" lon="10.633348829518429"><ele>199.0</ele><time>2026-05-01T09:16:00Z</time></trkpt><trkpt lat="43.27534901692033" lon="10.633423874203512"><ele>199.0</ele><time>2026-05-01T09:16:01Z</time></trkpt><trkpt lat="43.275425940455364" lon="10.633480347532155"><ele>199.0</ele><time>2026-05-01T09:16:02Z</time></trkpt><trkpt lat="43.275485001755555" lon="10.633540807021072"><ele>199.0</ele><time>2026-05-01T09:16:03Z</time></trkpt><trkpt lat="43.27554396852705" lon="10.633639448949806"><ele>199.0</ele><time>2026-05-01T09:16:04Z</time></trkpt><trkpt lat="43.27560904101302" lon="10.633754136924406"><ele>199.0</ele><time>2026-05-01T09:16:05Z</time></trkpt><trkpt lat="43.27567975383143" lon="10.63387131665974"><ele>202.39999999999998</ele><time>2026-05-01T09:16:06Z</time></trkpt><trkpt lat="43.27575622739938" lon="10.633960791892218"><ele>205.8</ele><time>2026-05-01T09:16:07Z</time></trkpt><trkpt lat="43.2758189491889" lon="10.633999489559908"><ele>209.20000000000002</ele><time>2026-05-01T09:16:08Z</time></trkpt><trkpt lat="43.275949083530605" lon="10.63399418061361"><ele>212.60000000000002</ele><time>2026-05-01T09:16:10Z</time></trkpt><trkpt lat="43.27600988042967" lon="10.63396257547089"><ele>216.0</ele><time>2026-05-01T09:16:11Z</time></trkpt><trkpt lat="43.276072115286965" lon="10.633875420187813"><ele>216.0</ele><time>2026-05-01T09:16:12Z</time></trkpt><trkpt lat="43.276135531965316" lon="10.633782437869886"><ele>216.00000000000003</ele><time>2026-05-01T09:16:13Z</time></trkpt><trkpt lat="43.27623189568579" lon="10.63374491670994"><ele>216.00000000000003</ele><time>2026-05-01T09:16:15Z</time></trkpt><trkpt lat="43.276292451043304" lon="10.63380938354108"><ele>216.0</ele><time>2026-05-01T09:16:17Z</time></trkpt><trkpt lat="43.27630523630526" lon="10.633950698864398"><ele>216.0</ele><time>2026-05-01T09:16:19Z</time></trkpt><trkpt lat="43.27630159234594" lon="10.634077853559662"><ele>216.0</ele><time>2026-05-01T09:16:20Z</time></trkpt><trkpt lat="43.27630630037597" lon="10.634223758060356"><ele>216.00000000000003</ele><time>2026-05-01T09:16:21Z</time></trkpt><trkpt lat="43.27631357067313" lon="10.634376002876847"><ele>216.00000000000003</ele><time>2026-05-01T09:16:22Z</time></trkpt><trkpt lat="43.27630622452881" lon="10.634507562558802"><ele>216.0</ele><time>2026-05-01T09:16:23Z</time></trkpt><trkpt lat="43.27627918280237" lon="10.63463282273562"><ele>216.0</ele><time>2026-05-01T09:16:24Z</time></trkpt><trkpt lat="43.27629217545878" lon="10.634781361761213"><ele>216.8</ele><time>2026-05-01T09:16:26Z</time></trkpt><trkpt lat="43.27632690800067" lon="10.634869727272346"><ele>217.60000000000002</ele><time>2026-05-01T09:16:27Z</time></trkpt><trkpt lat="43.2763946647687" lon="10.634985950999253"><ele>218.4</ele><time>2026-05-01T09:16:28Z</time></trkpt><trkpt lat="43.276470346355104" lon="10.635076548784271"><ele>219.2</ele><time>2026-05-01T09:16:29Z</time></trkpt><trkpt lat="43.27655363374966" lon="10.635185250765351"><ele>220.0</ele><time>2026-05-01T09:16:30Z</time></trkpt><trkpt lat="43.27663007160499" lon="10.635275244928094"><ele>222.5</ele><time>2026-05-01T09:16:31Z</time></trkpt><trkpt lat="43.27669537924996" lon="10.635374479793768"><ele>225.0</ele><time>2026-05-01T09:16:32Z</time></trkpt><trkpt lat="43.276760789975945" lon="10.635497138012974"><ele>227.5</ele><time>2026-05-01T09:16:33Z</time></trkpt><trkpt lat="43.27684577231068" lon="10.635637508959757"><ele>230.0</ele><time>2026-05-01T09:16:34Z</time></trkpt><trkpt lat="43.27691887092781" lon="10.635768307487071"><ele>230.0</ele><time>2026-05-01T09:16:35Z</time></trkpt><trkpt lat="43.27699967419334" lon="10.635875353640033"><ele>230.0</ele><time>2026-05-01T09:16:37Z</time></trkpt><trkpt lat="43.27707250819999" lon="10.635927779278843"><ele>230.0</ele><time>2026-05-01T09:16:38Z</time></trkpt><trkpt lat="43.27716035046467" lon="10.635974004911326"><ele>230.0</ele><time>2026-05-01T09:16:39Z</time></trkpt><trkpt lat="43.277255301035886" lon="10.635999555896129"><ele>230.0</ele><time>2026-05-01T09:16:40Z</time></trkpt><trkpt lat="43.27733443950648" lon="10.636037637800262"><ele>231.0</ele><time>2026-05-01T09:16:41Z</time></trkpt><trkpt lat="43.27742281251826" lon="10.636073727044758"><ele>232.0</ele><time>2026-05-01T09:16:42Z</time></trkpt><trkpt lat="43.27749270441875" lon="10.636110826648073"><ele>233.0</ele><time>2026-05-01T09:16:43Z</time></trkpt><trkpt lat="43.277570326115516" lon="10.636240064507911"><ele>234.0</ele><time>2026-05-01T09:16:45Z</time></trkpt><trkpt lat="43.27759290797974" lon="10.636349005565766"><ele>235.0</ele><time>2026-05-01T09:16:46Z</time></trkpt><trkpt lat="43.27760780568748" lon="10.636484529241784"><ele>236.6</ele><time>2026-05-01T09:16:47Z</time></trkpt><trkpt lat="43.27762724861364" lon="10.63662908278065"><ele>238.2</ele><time>2026-05-01T09:16:48Z</time></trkpt><trkpt lat="43.27765193280534" lon="10.636754025264302"><ele>239.8</ele><time>2026-05-01T09:16:49Z</time></trkpt><trkpt lat="43.27767303591524" lon="10.63684366213311"><ele>241.4</ele><time>2026-05-01T09:16:50Z</time></trkpt><trkpt lat="43.27770026378983" lon="10.636993298131317"><ele>243.0</ele><time>2026-05-01T09:16:52Z</time></trkpt><trkpt lat="43.277697799504246" lon="10.637119344997235"><ele>244.4</ele><time>2026-05-01T09:16:53Z</time></trkpt><trkpt lat="43.27769076722361" lon="10.637234685612077"><ele>245.8</ele><time>2026-05-01T09:16:54Z</time></trkpt><trkpt lat="43.27775578380145" lon="10.637378615048048"><ele>247.2</ele><time>2026-05-01T09:16:56Z</time></trkpt><trkpt lat="43.27783076612841" lon="10.637477031199923"><ele>248.6</ele><time>2026-05-01T09:16:57Z</time></trkpt><trkpt lat="43.2779110142574" lon="10.637586911600502"><ele>250.0</ele><time>2026-05-01T09:16:58Z</time></trkpt><trkpt lat="43.277984728586475" lon="10.637688861869837"><ele>251.4</ele><time>2026-05-01T09:16:59Z</time></trkpt><trkpt lat="43.2780705790988" lon="10.637811464748529"><ele>252.8</ele><time>2026-05-01T09:17:00Z</time></trkpt><trkpt lat="43.2781390987577" lon="10.637914761787712"><ele>254.2</ele><time>2026-05-01T09:17:01Z</time></trkpt><trkpt lat="43.278182305417715" lon="10.638001176247585"><ele>255.6</ele><time>2026-05-01T09:17:02Z</time></trkpt><trkpt lat="43.2782201331238" lon="10.638121827313519"><ele>257.0</ele><time>2026-05-01T09:17:03Z</time></trkpt><trkpt lat="43.27824912508537" lon="10.63826969510643"><ele>257.5</ele><time>2026-05-01T09:17:04Z</time></trkpt><trkpt lat="43.27828888468987" lon="10.638429559767523"><ele>258.0</ele><time>2026-05-01T09:17:05Z</time></trkpt><trkpt lat="43.27833399706297" lon="10.638585513170865"><ele>258.5</ele><time>2026-05-01T09:17:06Z</time></trkpt><trkpt lat="43.27837025727069" lon="10.638731300525691"><ele>259.0</ele><time>2026-05-01T09:17:07Z</time></trkpt><trkpt lat="43.278389968092725" lon="10.63885946672845"><ele>261.2</ele><time>2026-05-01T09:17:08Z</time></trkpt><trkpt lat="43.27840930076724" lon="10.638997971519597"><ele>263.4</ele><time>2026-05-01T09:17:09Z</time></trkpt><trkpt lat="43.27844314818458" lon="10.639138544261804"><ele>265.6</ele><time>2026-05-01T09:17:10Z</time></trkpt><trkpt lat="43.278463542912164" lon="10.639238582957624"><ele>267.8</ele><time>2026-05-01T09:17:11Z</time></trkpt><trkpt lat="43.27846281576301" lon="10.639356091564576"><ele>270.0</ele><time>2026-05-01T09:17:12Z</time></trkpt><trkpt lat="43.2784700230495" lon="10.639538982570699"><ele>270.8333333333333</ele><time>2026-05-01T09:17:14Z</time></trkpt><trkpt lat="43.278513950613196" lon="10.63962440230142"><ele>271.6666666666667</ele><time>2026-05-01T09:17:15Z</time></trkpt><trkpt lat="43.27857684984744" lon="10.639708869489688"><ele>272.5</ele><time>2026-05-01T09:17:16Z</time></trkpt><trkpt lat="43.27863781511754" lon="10.63976597976518"><ele>273.33333333333337</ele><time>2026-05-01T09:17:17Z</time></trkpt><trkpt lat="43.27871716791178" lon="10.639778087981865"><ele>274.1666666666667</ele><time>2026-05-01T09:17:18Z</time></trkpt><trkpt lat="43.27880773690727" lon="10.63977020834476"><ele>275.0</ele><time>2026-05-01T09:17:19Z</time></trkpt><trkpt lat="43.27889633248859" lon="10.639762883439921"><ele>276.4</ele><time>2026-05-01T09:17:20Z</time></trkpt><trkpt lat="43.279011692304216" lon="10.639823882508358"><ele>277.8</ele><time>2026-05-01T09:17:22Z</time></trkpt><trkpt lat="43.279073244936285" lon="10.639875777352493"><ele>279.2</ele><time>2026-05-01T09:17:23Z</time></trkpt><trkpt lat="43.27914761545951" lon="10.63996849786784"><ele>280.6</ele><time>2026-05-01T09:17:24Z</time></trkpt><trkpt lat="43.279207247523495" lon="10.640072955337898"><ele>282.0</ele><time>2026-05-01T09:17:25Z</time></trkpt><trkpt lat="43.27927269062769" lon="10.64017850250282"><ele>283.6</ele><time>2026-05-01T09:17:26Z</time></trkpt><trkpt lat="43.27934617834307" lon="10.640310707411093"><ele>285.2</ele><time>2026-05-01T09:17:27Z</time></trkpt><trkpt lat="43.27942826670192" lon="10.640435783560404"><ele>286.8</ele><time>2026-05-01T09:17:28Z</time></trkpt><trkpt lat="43.279499701309305" lon="10.64055942176439"><ele>288.4</ele><time>2026-05-01T09:17:29Z</time></trkpt><trkpt lat="43.279551965662804" lon="10.640620828710063"><ele>290.0</ele><time>2026-05-01T09:17:30Z</time></trkpt><trkpt lat="43.279600251096305" lon="10.640713716127598"><ele>290.0</ele><time>2026-05-01T09:17:31Z</time></trkpt><trkpt lat="43.27963520906665" lon="10.64083218787994"><ele>290.0</ele><time>2026-05-01T09:17:32Z</time></trkpt><trkpt lat="43.27965912125031" lon="10.640967048390928"><ele>290.0</ele><time>2026-05-01T09:17:33Z</time></trkpt><trkpt lat="43.27976333779617" lon="10.641114435046987"><ele>290.0</ele><time>2026-05-01T09:17:35Z</time></trkpt><trkpt lat="43.27979981822547" lon="10.641216549244358"><ele>290.0</ele><time>2026-05-01T09:17:36Z</time></trkpt><trkpt lat="43.27981892481787" lon="10.641324246955438"><ele>290.1666666666667</ele><time>2026-05-01T09:17:37Z</time></trkpt><trkpt lat="43.27983825424114" lon="10.641474577804534"><ele>290.33333333333337</ele><time>2026-05-01T09:17:38Z</time></trkpt><trkpt lat="43.27985631980479" lon="10.641582302346158"><ele>290.5</ele><time>2026-05-01T09:17:39Z</time></trkpt><trkpt lat="43.27988510197291" lon="10.641709971426813"><ele>290.6666666666667</ele><time>2026-05-01T09:17:41Z</time></trkpt><trkpt lat="43.27990502249666" lon="10.641804571126444"><ele>290.8333333333333</ele><time>2026-05-01T09:17:43Z</time></trkpt><trkpt lat="43.27992778224204" lon="10.641908259757768"><ele>291.0</ele><time>2026-05-01T09:17:44Z</time></trkpt><trkpt lat="43.27996380021851" lon="10.642044739354759"><ele>291.0</ele><time>2026-05-01T09:17:45Z</time></trkpt><trkpt lat="43.27998157230499" lon="10.64220821715985"><ele>291.0</ele><time>2026-05-01T09:17:46Z</time></trkpt><trkpt lat="43.27998702273258" lon="10.642339504416707"><ele>291.0</ele><time>2026-05-01T09:17:47Z</time></trkpt><trkpt lat="43.28001034502857" lon="10.642469073613974"><ele>291.0</ele><time>2026-05-01T09:17:48Z</time></trkpt><trkpt lat="43.28006437096218" lon="10.642618738834644"><ele>291.0</ele><time>2026-05-01T09:17:49Z</time></trkpt><trkpt lat="43.28011256372769" lon="10.642756294377131"><ele>290.8</ele><time>2026-05-01T09:17:50Z</time></trkpt><trkpt lat="43.28015702548359" lon="10.642888646938324"><ele>290.6</ele><time>2026-05-01T09:17:51Z</time></trkpt><trkpt lat="43.28021188038461" lon="10.643011363229077"><ele>290.4</ele><time>2026-05-01T09:17:52Z</time></trkpt><trkpt lat="43.280247988668926" lon="10.643118331125399"><ele>290.2</ele><time>2026-05-01T09:17:53Z</time></trkpt><trkpt lat="43.28027550728174" lon="10.643241545991144"><ele>290.0</ele><time>2026-05-01T09:17:54Z</time></trkpt><trkpt lat="43.28028432608398" lon="10.643379404649146"><ele>290.0</ele><time>2026-05-01T09:17:55Z</time></trkpt><trkpt lat="43.28029530846255" lon="10.643535762712139"><ele>290.0</ele><time>2026-05-01T09:17:56Z</time></trkpt><trkpt lat="43.2803209817839" lon="10.64372028295557"><ele>290.0</ele><time>2026-05-01T09:17:57Z</time></trkpt><trkpt lat="43.28033995488814" lon="10.643857465179808"><ele>290.0</ele><time>2026-05-01T09:17:58Z</time></trkpt><trkpt lat="43.28035063309383" lon="10.643958304046189"><ele>290.0</ele><time>2026-05-01T09:17:59Z</time></trkpt><trkpt lat="43.28034186495505" lon="10.6440822042422"><ele>290.0</ele><time>2026-05-01T09:18:02Z</time></trkpt><trkpt lat="43.280309863562756" lon="10.644180733094135"><ele>290.0</ele><time>2026-05-01T09:18:03Z</time></trkpt><trkpt lat="43.28024781177277" lon="10.6443095651501"><ele>290.0</ele><time>2026-05-01T09:18:04Z</time></trkpt><trkpt lat="43.28017051055215" lon="10.644428477568681"><ele>290.0</ele><time>2026-05-01T09:18:05Z</time></trkpt><trkpt lat="43.28009860626954" lon="10.644559665127952"><ele>290.0</ele><time>2026-05-01T09:18:06Z</time></trkpt><trkpt lat="43.280033551268" lon="10.644717517749896"><ele>292.25</ele><time>2026-05-01T09:18:07Z</time></trkpt><trkpt lat="43.279978636318376" lon="10.644845925484272"><ele>294.5</ele><time>2026-05-01T09:18:08Z</time></trkpt><trkpt lat="43.27992626021494" lon="10.644946951981854"><ele>296.75</ele><time>2026-05-01T09:18:09Z</time></trkpt><trkpt lat="43.279862155129734" lon="10.64508597876313"><ele>299.0</ele><time>2026-05-01T09:18:11Z</time></trkpt><trkpt lat="43.27982554116029" lon="10.645274719293816"><ele>300.0</ele><time>2026-05-01T09:18:13Z</time></trkpt><trkpt lat="43.27981345704116" lon="10.645413558249476"><ele>301.0</ele><time>2026-05-01T09:18:14Z</time></trkpt><trkpt lat="43.27980030204329" lon="10.645554386888245"><ele>302.0</ele><time>2026-05-01T09:18:15Z</time></trkpt><trkpt lat="43.27979493699381" lon="10.64572727308659"><ele>303.0</ele><time>2026-05-01T09:18:16Z</time></trkpt><trkpt lat="43.279781858069306" lon="10.645887959739667"><ele>304.0</ele><time>2026-05-01T09:18:17Z</time></trkpt><trkpt lat="43.27976152065651" lon="10.645988039493798"><ele>302.5</ele><time>2026-05-01T09:18:18Z</time></trkpt><trkpt lat="43.27972400492956" lon="10.646170895755615"><ele>301.0</ele><time>2026-05-01T09:18:20Z</time></trkpt><trkpt lat="43.27969648424533" lon="10.646264248374136"><ele>299.5</ele><time>2026-05-01T09:18:21Z</time></trkpt><trkpt lat="43.279671802182484" lon="10.646365176749912"><ele>298.0</ele><time>2026-05-01T09:18:22Z</time></trkpt><trkpt lat="43.279646056312316" lon="10.646471935955171"><ele>296.5</ele><time>2026-05-01T09:18:23Z</time></trkpt><trkpt lat="43.2796003635626" lon="10.646550728771025"><ele>295.0</ele><time>2026-05-01T09:18:24Z</time></trkpt><trkpt lat="43.279566740991065" lon="10.646644932706208"><ele>295.0</ele><time>2026-05-01T09:18:25Z</time></trkpt><trkpt lat="43.279511983919754" lon="10.646727346302173"><ele>295.0</ele><time>2026-05-01T09:18:26Z</time></trkpt><trkpt lat="43.279432955044186" lon="10.646799510094015"><ele>295.0</ele><time>2026-05-01T09:18:27Z</time></trkpt><trkpt lat="43.279360536942235" lon="10.646865480894999"><ele>295.0</ele><time>2026-05-01T09:18:28Z</time></trkpt><trkpt lat="43.279306851281135" lon="10.646945939789715"><ele>295.0</ele><time>2026-05-01T09:18:29Z</time></trkpt><trkpt lat="43.27924851962252" lon="10.647062956365149"><ele>295.0</ele><time>2026-05-01T09:18:30Z</time></trkpt><trkpt lat="43.279174808333" lon="10.64717859076651"><ele>296.8</ele><time>2026-05-01T09:18:31Z</time></trkpt><trkpt lat="43.27909935539618" lon="10.64729988509358"><ele>298.6</ele><time>2026-05-01T09:18:32Z</time></trkpt><trkpt lat="43.27902254543087" lon="10.647425680965885"><ele>300.4</ele><time>2026-05-01T09:18:33Z</time></trkpt><trkpt lat="43.27895138079502" lon="10.64750875393528"><ele>302.2</ele><time>2026-05-01T09:18:34Z</time></trkpt><trkpt lat="43.27889290479155" lon="10.647595238949108"><ele>304.0</ele><time>2026-05-01T09:18:35Z</time></trkpt><trkpt lat="43.278828660999096" lon="10.647706283538032"><ele>304.8333333333333</ele><time>2026-05-01T09:18:36Z</time></trkpt><trkpt lat="43.27877673184658" lon="10.64782278480962"><ele>305.66666666666663</ele><time>2026-05-01T09:18:37Z</time></trkpt><trkpt lat="43.27872602059051" lon="10.64791015300144"><ele>306.5</ele><time>2026-05-01T09:18:38Z</time></trkpt><trkpt lat="43.27865466911786" lon="10.64800491114714"><ele>307.3333333333333</ele><time>2026-05-01T09:18:39Z</time></trkpt><trkpt lat="43.27860359951842" lon="10.648090826249211"><ele>308.1666666666667</ele><time>2026-05-01T09:18:40Z</time></trkpt><trkpt lat="43.27856885668664" lon="10.648175499913089"><ele>309.0</ele><time>2026-05-01T09:18:41Z</time></trkpt><trkpt lat="43.27853876357891" lon="10.64826528913565"><ele>309.0</ele><time>2026-05-01T09:18:42Z</time></trkpt><trkpt lat="43.27848890827247" lon="10.648350831653492"><ele>309.0</ele><time>2026-05-01T09:18:43Z</time></trkpt><trkpt lat="43.278409820111754" lon="10.648416816479585"><ele>309.0</ele><time>2026-05-01T09:18:44Z</time></trkpt><trkpt lat="43.278304061989154" lon="10.648516055863128"><ele>309.0</ele><time>2026-05-01T09:18:45Z</time></trkpt><trkpt lat="43.278210339545645" lon="10.648661647499546"><ele>309.0</ele><time>2026-05-01T09:18:46Z</time></trkpt><trkpt lat="43.27812828412449" lon="10.648774426120843"><ele>307.25</ele><time>2026-05-01T09:18:47Z</time></trkpt><trkpt lat="43.27802658714199" lon="10.64889239621991"><ele>305.5</ele><time>2026-05-01T09:18:48Z</time></trkpt><trkpt lat="43.27792543874381" lon="10.6490017465554"><ele>303.75</ele><time>2026-05-01T09:18:49Z</time></trkpt><trkpt lat="43.27782145391456" lon="10.649107774998607"><ele>302.0</ele><time>2026-05-01T09:18:50Z</time></trkpt><trkpt lat="43.277718808817134" lon="10.649216430430423"><ele>302.0</ele><time>2026-05-01T09:18:51Z</time></trkpt><trkpt lat="43.27761683210532" lon="10.649342521664282"><ele>302.0</ele><time>2026-05-01T09:18:52Z</time></trkpt><trkpt lat="43.277536012317576" lon="10.649453088556049"><ele>302.0</ele><time>2026-05-01T09:18:53Z</time></trkpt><trkpt lat="43.27743578757706" lon="10.649570729918453"><ele>302.0</ele><time>2026-05-01T09:18:54Z</time></trkpt><trkpt lat="43.27734668893166" lon="10.649663307732673"><ele>301.0</ele><time>2026-05-01T09:18:55Z</time></trkpt><trkpt lat="43.27723827197401" lon="10.649747680191254"><ele>300.0</ele><time>2026-05-01T09:18:56Z</time></trkpt><trkpt lat="43.27715390028036" lon="10.649798950668387"><ele>299.0</ele><time>2026-05-01T09:18:57Z</time></trkpt><trkpt lat="43.27706130384353" lon="10.649859999759773"><ele>298.0</ele><time>2026-05-01T09:18:58Z</time></trkpt><trkpt lat="43.27699342643186" lon="10.649928079184834"><ele>297.0</ele><time>2026-05-01T09:18:59Z</time></trkpt><trkpt lat="43.27691227212965" lon="10.650024212723933"><ele>297.0</ele><time>2026-05-01T09:19:00Z</time></trkpt><trkpt lat="43.27685469046281" lon="10.650124571528083"><ele>297.0</ele><time>2026-05-01T09:19:01Z</time></trkpt><trkpt lat="43.276791121570014" lon="10.650198514303666"><ele>297.0</ele><time>2026-05-01T09:19:02Z</time></trkpt><trkpt lat="43.276749875095376" lon="10.650275290153662"><ele>297.0</ele><time>2026-05-01T09:19:03Z</time></trkpt><trkpt lat="43.276717147911086" lon="10.650369641222028"><ele>297.0</ele><time>2026-05-01T09:19:04Z</time></trkpt><trkpt lat="43.27670011246939" lon="10.650481340398667"><ele>297.0</ele><time>2026-05-01T09:19:05Z</time></trkpt><trkpt lat="43.27670615015571" lon="10.650601728206682"><ele>297.0</ele><time>2026-05-01T09:19:06Z</time></trkpt><trkpt lat="43.2767273118934" lon="10.650730117669067"><ele>297.0</ele><time>2026-05-01T09:19:07Z</time></trkpt><trkpt lat="43.27676178514592" lon="10.650894764075211"><ele>297.0</ele><time>2026-05-01T09:19:08Z</time></trkpt><trkpt lat="43.27677527436846" lon="10.651046632951978"><ele>297.0</ele><time>2026-05-01T09:19:09Z</time></trkpt><trkpt lat="43.276801498436775" lon="10.65118135760745"><ele>297.0</ele><time>2026-05-01T09:19:10Z</time></trkpt><trkpt lat="43.27685017629211" lon="10.651314647443023"><ele>297.0</ele><time>2026-05-01T09:19:11Z</time></trkpt><trkpt lat="43.27689797090047" lon="10.651443807823656"><ele>297.0</ele><time>2026-05-01T09:19:12Z</time></trkpt><trkpt lat="43.276980799836096" lon="10.65162946998036"><ele>297.0</ele><time>2026-05-01T09:19:13Z</time></trkpt><trkpt lat="43.27703499599241" lon="10.651806362796263"><ele>297.0</ele><time>2026-05-01T09:19:14Z</time></trkpt><trkpt lat="43.27706494800401" lon="10.651971208004552"><ele>295.25</ele><time>2026-05-01T09:19:15Z</time></trkpt><trkpt lat="43.27708472746792" lon="10.652125489657791"><ele>293.5</ele><time>2026-05-01T09:19:16Z</time></trkpt><trkpt lat="43.277130388778545" lon="10.652284592514812"><ele>291.75</ele><time>2026-05-01T09:19:17Z</time></trkpt><trkpt lat="43.27717836632922" lon="10.652460884066214"><ele>290.0</ele><time>2026-05-01T09:19:18Z</time></trkpt><trkpt lat="43.27722213217776" lon="10.652630720985913"><ele>292.75</ele><time>2026-05-01T09:19:19Z</time></trkpt><trkpt lat="43.27726973466177" lon="10.652780754798593"><ele>295.5</ele><time>2026-05-01T09:19:20Z</time></trkpt><trkpt lat="43.27732178097381" lon="10.65292372890575"><ele>298.25</ele><time>2026-05-01T09:19:21Z</time></trkpt><trkpt lat="43.27738068110641" lon="10.653060392011197"><ele>301.0</ele><time>2026-05-01T09:19:22Z</time></trkpt><trkpt lat="43.27744007116789" lon="10.653171151410723"><ele>301.0</ele><time>2026-05-01T09:19:23Z</time></trkpt><trkpt lat="43.27749454792006" lon="10.653268479667469"><ele>301.0</ele><time>2026-05-01T09:19:24Z</time></trkpt><trkpt lat="43.27751286524779" lon="10.653371012038104"><ele>301.0</ele><time>2026-05-01T09:19:25Z</time></trkpt><trkpt lat="43.27752159902902" lon="10.653524540411883"><ele>301.0</ele><time>2026-05-01T09:19:26Z</time></trkpt><trkpt lat="43.27751071527724" lon="10.653678510374078"><ele>301.0</ele><time>2026-05-01T09:19:27Z</time></trkpt><trkpt lat="43.277528809755474" lon="10.653856417431195"><ele>299.25</ele><time>2026-05-01T09:19:28Z</time></trkpt><trkpt lat="43.27756792812812" lon="10.654044636869436"><ele>297.5</ele><time>2026-05-01T09:19:29Z</time></trkpt><trkpt lat="43.27759917533235" lon="10.6542207000649"><ele>295.75</ele><time>2026-05-01T09:19:30Z</time></trkpt><trkpt lat="43.277615367429156" lon="10.65437733365818"><ele>294.0</ele><time>2026-05-01T09:19:31Z</time></trkpt><trkpt lat="43.277608902730805" lon="10.654525785417306"><ele>293.59999999999997</ele><time>2026-05-01T09:19:32Z</time></trkpt><trkpt lat="43.27759241830649" lon="10.654641387831566"><ele>293.2</ele><time>2026-05-01T09:19:33Z</time></trkpt><trkpt lat="43.277563662495645" lon="10.654750166120536"><ele>292.79999999999995</ele><time>2026-05-01T09:19:34Z</time></trkpt><trkpt lat="43.277514194330664" lon="10.654888955558247"><ele>292.4</ele><time>2026-05-01T09:19:35Z</time></trkpt><trkpt lat="43.277452003282775" lon="10.655038749829382"><ele>292.0</ele><time>2026-05-01T09:19:36Z</time></trkpt><trkpt lat="43.277402752291735" lon="10.655187184261244"><ele>292.4</ele><time>2026-05-01T09:19:37Z</time></trkpt><trkpt lat="43.27736567000998" lon="10.655304783379467"><ele>292.79999999999995</ele><time>2026-05-01T09:19:38Z</time></trkpt><trkpt lat="43.277332556959315" lon="10.655389050057504"><ele>293.2</ele><time>2026-05-01T09:19:39Z</time></trkpt><trkpt lat="43.277231567193766" lon="10.655466267542414"><ele>293.59999999999997</ele><time>2026-05-01T09:19:41Z</time></trkpt><trkpt lat="43.27715309947328" lon="10.655496274415272"><ele>294.0</ele><time>2026-05-01T09:19:42Z</time></trkpt><trkpt lat="43.27705727223627" lon="10.655536731955731"><ele>294.0</ele><time>2026-05-01T09:19:43Z</time></trkpt><trkpt lat="43.27697586225446" lon="10.655589038694044"><ele>294.0</ele><time>2026-05-01T09:19:44Z</time></trkpt><trkpt lat="43.27692454426235" lon="10.655654398911356"><ele>294.0</ele><time>2026-05-01T09:19:45Z</time></trkpt><trkpt lat="43.27687294041651" lon="10.655734997804112"><ele>294.0</ele><time>2026-05-01T09:19:46Z</time></trkpt><trkpt lat="43.27683019829086" lon="10.655826636553584"><ele>294.0</ele><time>2026-05-01T09:19:47Z</time></trkpt><trkpt lat="43.27679024926903" lon="10.655928375740215"><ele>294.0</ele><time>2026-05-01T09:19:48Z</time></trkpt><trkpt lat="43.276748384677866" lon="10.65601552668216"><ele>294.0</ele><time>2026-05-01T09:19:49Z</time></trkpt><trkpt lat="43.276677682382605" lon="10.656054667069178"><ele>294.0</ele><time>2026-05-01T09:19:50Z</time></trkpt><trkpt lat="43.276586263922844" lon="10.65611617247828"><ele>294.0</ele><time>2026-05-01T09:19:51Z</time></trkpt><trkpt lat="43.27648291161367" lon="10.656173088000337"><ele>294.0</ele><time>2026-05-01T09:19:52Z</time></trkpt><trkpt lat="43.276394738236014" lon="10.656233892246753"><ele>294.0</ele><time>2026-05-01T09:19:53Z</time></trkpt><trkpt lat="43.276303389427206" lon="10.65629714194407"><ele>293.59999999999997</ele><time>2026-05-01T09:19:54Z</time></trkpt><trkpt lat="43.276212394729136" lon="10.656341483395817"><ele>293.2</ele><time>2026-05-01T09:19:55Z</time></trkpt><trkpt lat="43.276144599582956" lon="10.65640932050915"><ele>292.79999999999995</ele><time>2026-05-01T09:19:56Z</time></trkpt><trkpt lat="43.27607874422767" lon="10.656507796719854"><ele>292.4</ele><time>2026-05-01T09:19:57Z</time></trkpt><trkpt lat="43.27600047212395" lon="10.656615918053967"><ele>292.0</ele><time>2026-05-01T09:19:58Z</time></trkpt><trkpt lat="43.27591278056347" lon="10.656692005395962"><ele>292.0</ele><time>2026-05-01T09:19:59Z</time></trkpt><trkpt lat="43.27583779271343" lon="10.65674860844644"><ele>292.0</ele><time>2026-05-01T09:20:00Z</time></trkpt><trkpt lat="43.275749556383694" lon="10.656792267559009"><ele>292.0</ele><time>2026-05-01T09:20:01Z</time></trkpt><trkpt lat="43.275635034621104" lon="10.656806126642673"><ele>292.0</ele><time>2026-05-01T09:20:02Z</time></trkpt><trkpt lat="43.275514920273935" lon="10.656850993490556"><ele>292.0</ele><time>2026-05-01T09:20:03Z</time></trkpt><trkpt lat="43.27542296410879" lon="10.656887740751563"><ele>291.66666666666663</ele><time>2026-05-01T09:20:04Z</time></trkpt><trkpt lat="43.275369094589514" lon="10.656932920859031"><ele>291.3333333333333</ele><time>2026-05-01T09:20:05Z</time></trkpt><trkpt lat="43.275304025878114" lon="10.656963995816827"><ele>291.0</ele><time>2026-05-01T09:20:06Z</time></trkpt><trkpt lat="43.27522480245495" lon="10.656976720928451"><ele>290.6666666666667</ele><time>2026-05-01T09:20:07Z</time></trkpt><trkpt lat="43.27512717913323" lon="10.656955039378586"><ele>290.33333333333337</ele><time>2026-05-01T09:20:08Z</time></trkpt><trkpt lat="43.275016225824444" lon="10.65691544880943"><ele>290.0</ele><time>2026-05-01T09:20:09Z</time></trkpt><trkpt lat="43.274918484954355" lon="10.656890674468844"><ele>290.0</ele><time>2026-05-01T09:20:10Z</time></trkpt><trkpt lat="43.2748314503245" lon="10.656898482447778"><ele>290.0</ele><time>2026-05-01T09:20:11Z</time></trkpt><trkpt lat="43.27471191116782" lon="10.656935142802956"><ele>290.0</ele><time>2026-05-01T09:20:12Z</time></trkpt><trkpt lat="43.274608740689615" lon="10.65697930424327"><ele>290.0</ele><time>2026-05-01T09:20:13Z</time></trkpt><trkpt lat="43.27449908143208" lon="10.657033803597221"><ele>290.0</ele><time>2026-05-01T09:20:14Z</time></trkpt><trkpt lat="43.27438981438021" lon="10.657106659598814"><ele>288.25</ele><time>2026-05-01T09:20:15Z</time></trkpt><trkpt lat="43.27430315700784" lon="10.6571765536221"><ele>286.5</ele><time>2026-05-01T09:20:16Z</time></trkpt><trkpt lat="43.27418119279833" lon="10.657262121346289"><ele>284.75</ele><time>2026-05-01T09:20:17Z</time></trkpt><trkpt lat="43.27407200912814" lon="10.6573679886959"><ele>283.0</ele><time>2026-05-01T09:20:18Z</time></trkpt><trkpt lat="43.273952650356634" lon="10.6574569317573"><ele>284.75</ele><time>2026-05-01T09:20:19Z</time></trkpt><trkpt lat="43.27387854128547" lon="10.65751282059397"><ele>286.5</ele><time>2026-05-01T09:20:20Z</time></trkpt><trkpt lat="43.27376428994638" lon="10.6575583925439"><ele>288.25</ele><time>2026-05-01T09:20:22Z</time></trkpt><trkpt lat="43.27363440379189" lon="10.6575799455452"><ele>290.0</ele><time>2026-05-01T09:20:23Z</time></trkpt><trkpt lat="43.27350221169801" lon="10.657626987959024"><ele>290.0</ele><time>2026-05-01T09:20:24Z</time></trkpt><trkpt lat="43.27337423580919" lon="10.657661978530381"><ele>290.0</ele><time>2026-05-01T09:20:25Z</time></trkpt><trkpt lat="43.27328100159504" lon="10.65769336466293"><ele>290.0</ele><time>2026-05-01T09:20:26Z</time></trkpt><trkpt lat="43.273190713904434" lon="10.657740049336088"><ele>290.0</ele><time>2026-05-01T09:20:27Z</time></trkpt><trkpt lat="43.27312242834487" lon="10.657804444648066"><ele>290.0</ele><time>2026-05-01T09:20:28Z</time></trkpt><trkpt lat="43.2730222408499" lon="10.65786026672654"><ele>289.0</ele><time>2026-05-01T09:20:29Z</time></trkpt><trkpt lat="43.272922019430716" lon="10.657907693611271"><ele>288.0</ele><time>2026-05-01T09:20:30Z</time></trkpt><trkpt lat="43.272834287462494" lon="10.657941746741386"><ele>287.0</ele><time>2026-05-01T09:20:31Z</time></trkpt><trkpt lat="43.27275146203033" lon="10.658006023484166"><ele>286.0</ele><time>2026-05-01T09:20:32Z</time></trkpt><trkpt lat="43.27268448069737" lon="10.658040042780652"><ele>285.0</ele><time>2026-05-01T09:20:33Z</time></trkpt><trkpt lat="43.27259799020789" lon="10.658118260380672"><ele>285.0</ele><time>2026-05-01T09:20:35Z</time></trkpt><trkpt lat="43.27254252237756" lon="10.658199142581504"><ele>285.0</ele><time>2026-05-01T09:20:37Z</time></trkpt><trkpt lat="43.27246633453652" lon="10.658303154129861"><ele>285.0</ele><time>2026-05-01T09:20:40Z</time></trkpt><trkpt lat="43.27248119238968" lon="10.658387266938776"><ele>285.0</ele><time>2026-05-01T09:20:45Z</time></trkpt><trkpt lat="43.27249216461934" lon="10.658512765330823"><ele>285.0</ele><time>2026-05-01T09:20:47Z</time></trkpt><trkpt lat="43.272758514272375" lon="10.658508656185864"><ele>285.0</ele><time>2026-05-01T09:20:48Z</time></trkpt><trkpt lat="43.27285411078515" lon="10.658532793545039"><ele>285.0</ele><time>2026-05-01T09:20:49Z</time></trkpt><trkpt lat="43.272939025145035" lon="10.658522352945331"><ele>285.0</ele><time>2026-05-01T09:20:50Z</time></trkpt><trkpt lat="43.2730082468998" lon="10.658491023750502"><ele>285.0</ele><time>2026-05-01T09:20:51Z</time></trkpt><trkpt lat="43.27313551091186" lon="10.658434483063493"><ele>285.0</ele><time>2026-05-01T09:20:53Z</time></trkpt><trkpt lat="43.27322229852672" lon="10.658390922225383"><ele>283.0</ele><time>2026-05-01T09:20:54Z</time></trkpt><trkpt lat="43.27331670306238" lon="10.658335491893576"><ele>281.0</ele><time>2026-05-01T09:20:55Z</time></trkpt><trkpt lat="43.273396632311815" lon="10.658300457555315"><ele>279.0</ele><time>2026-05-01T09:20:56Z</time></trkpt><trkpt lat="43.273511528383935" lon="10.658264155194864"><ele>277.0</ele><time>2026-05-01T09:20:58Z</time></trkpt><trkpt lat="43.27360926392824" lon="10.658235085543229"><ele>275.0</ele><time>2026-05-01T09:21:00Z</time></trkpt><trkpt lat="43.27367223549426" lon="10.658235345471539"><ele>275.0</ele><time>2026-05-01T09:21:03Z</time></trkpt><trkpt lat="43.273761387497174" lon="10.658176082985328"><ele>275.0</ele><time>2026-05-01T09:21:08Z</time></trkpt><trkpt lat="43.27384805021283" lon="10.658159693116941"><ele>275.0</ele><time>2026-05-01T09:21:10Z</time></trkpt><trkpt lat="43.27396248022729" lon="10.658113096873521"><ele>275.0</ele><time>2026-05-01T09:21:12Z</time></trkpt><trkpt lat="43.274023579736436" lon="10.658047516947489"><ele>275.0</ele><time>2026-05-01T09:21:13Z</time></trkpt><trkpt lat="43.27412551390003" lon="10.658023847556734"><ele>273.5</ele><time>2026-05-01T09:21:15Z</time></trkpt><trkpt lat="43.27423862928415" lon="10.6580262632788"><ele>272.0</ele><time>2026-05-01T09:21:17Z</time></trkpt><trkpt lat="43.274339361818726" lon="10.658051308750833"><ele>270.5</ele><time>2026-05-01T09:21:19Z</time></trkpt><trkpt lat="43.274406428326685" lon="10.658078949366356"><ele>269.0</ele><time>2026-05-01T09:21:21Z</time></trkpt><trkpt lat="43.27448252005025" lon="10.658117291085029"><ele>267.5</ele><time>2026-05-01T09:21:23Z</time></trkpt><trkpt lat="43.27455084390197" lon="10.658176574593849"><ele>266.0</ele><time>2026-05-01T09:21:24Z</time></trkpt><trkpt lat="43.27462037087319" lon="10.658221747985948"><ele>266.0</ele><time>2026-05-01T09:21:25Z</time></trkpt><trkpt lat="43.27471145102928" lon="10.658345505021526"><ele>266.0</ele><time>2026-05-01T09:21:26Z</time></trkpt><trkpt lat="43.274821571398334" lon="10.658443166683384"><ele>266.0</ele><time>2026-05-01T09:21:27Z</time></trkpt><trkpt lat="43.27493805864519" lon="10.658556722006656"><ele>266.0</ele><time>2026-05-01T09:21:28Z</time></trkpt><trkpt lat="43.27506687414672" lon="10.658668002238993"><ele>264.40000000000003</ele><time>2026-05-01T09:21:29Z</time></trkpt><trkpt lat="43.27516750880071" lon="10.658755950522705"><ele>262.8</ele><time>2026-05-01T09:21:30Z</time></trkpt><trkpt lat="43.27523424231792" lon="10.658808724964992"><ele>261.20000000000005</ele><time>2026-05-01T09:21:31Z</time></trkpt><trkpt lat="43.27532193625828" lon="10.658889210574456"><ele>259.6</ele><time>2026-05-01T09:21:33Z</time></trkpt><trkpt lat="43.2753842506199" lon="10.658955100282201"><ele>258.0</ele><time>2026-05-01T09:21:36Z</time></trkpt><trkpt lat="43.27544931874457" lon="10.659032919845737"><ele>258.0</ele><time>2026-05-01T09:25:10Z</time></trkpt><trkpt lat="43.275528907830996" lon="10.659100006341115"><ele>258.0</ele><time>2026-05-01T09:41:12Z</time></trkpt><trkpt lat="43.275629467309685" lon="10.659194455671715"><ele>258.0</ele><time>2026-05-01T09:41:14Z</time></trkpt><trkpt lat="43.27569972016116" lon="10.659248838894516"><ele>258.0</ele><time>2026-05-01T09:41:16Z</time></trkpt><trkpt lat="43.27580555176465" lon="10.659330893042773"><ele>258.0</ele><time>2026-05-01T09:41:18Z</time></trkpt><trkpt lat="43.27585973623334" lon="10.659392395103092"><ele>256.8333333333333</ele><time>2026-05-01T09:41:19Z</time></trkpt><trkpt lat="43.2759509051048" lon="10.659468474012707"><ele>255.66666666666669</ele><time>2026-05-01T09:41:21Z</time></trkpt><trkpt lat="43.276016834481055" lon="10.65954394203435"><ele>254.5</ele><time>2026-05-01T09:41:23Z</time></trkpt><trkpt lat="43.27605910272092" lon="10.659611715423326"><ele>253.33333333333334</ele><time>2026-05-01T09:41:25Z</time></trkpt><trkpt lat="43.27610002936864" lon="10.659694039416996"><ele>252.16666666666669</ele><time>2026-05-01T09:41:27Z</time></trkpt><trkpt lat="43.276140095712854" lon="10.659773914162354"><ele>251.0</ele><time>2026-05-01T09:41:28Z</time></trkpt><trkpt lat="43.27617383937034" lon="10.659875248725958"><ele>251.0</ele><time>2026-05-01T09:41:29Z</time></trkpt><trkpt lat="43.27619600673927" lon="10.659990644421802"><ele>251.00000000000003</ele><time>2026-05-01T09:41:30Z</time></trkpt><trkpt lat="43.27620812499334" lon="10.660103776302716"><ele>251.00000000000003</ele><time>2026-05-01T09:41:31Z</time></trkpt><trkpt lat="43.27620891104854" lon="10.660223883699905"><ele>251.0</ele><time>2026-05-01T09:41:32Z</time></trkpt><trkpt lat="43.27620663025656" lon="10.660364124146342"><ele>251.0</ele><time>2026-05-01T09:41:33Z</time></trkpt><trkpt lat="43.27620280013556" lon="10.660527025905719"><ele>249.8</ele><time>2026-05-01T09:41:34Z</time></trkpt><trkpt lat="43.276186379301855" lon="10.660679362225164"><ele>248.60000000000002</ele><time>2026-05-01T09:41:35Z</time></trkpt><trkpt lat="43.27617306713717" lon="10.660811898586433"><ele>247.4</ele><time>2026-05-01T09:41:36Z</time></trkpt><trkpt lat="43.27615501095965" lon="10.66094326668104"><ele>246.2</ele><time>2026-05-01T09:41:37Z</time></trkpt><trkpt lat="43.27612581651141" lon="10.6610876134637"><ele>245.0</ele><time>2026-05-01T09:41:38Z</time></trkpt><trkpt lat="43.276105536079086" lon="10.66122215395127"><ele>244.0</ele><time>2026-05-01T09:41:39Z</time></trkpt><trkpt lat="43.27608120984908" lon="10.661365656145826"><ele>243.0</ele><time>2026-05-01T09:41:40Z</time></trkpt><trkpt lat="43.27606783355925" lon="10.661510639382977"><ele>242.0</ele><time>2026-05-01T09:41:41Z</time></trkpt><trkpt lat="43.27606633342147" lon="10.66162908284543"><ele>241.0</ele><time>2026-05-01T09:41:42Z</time></trkpt><trkpt lat="43.27609946002581" lon="10.66179219097677"><ele>240.0</ele><time>2026-05-01T09:41:44Z</time></trkpt><trkpt lat="43.27613838196163" lon="10.661911318075818"><ele>238.33333333333334</ele><time>2026-05-01T09:41:45Z</time></trkpt><trkpt lat="43.27616928680029" lon="10.662037745333649"><ele>236.66666666666669</ele><time>2026-05-01T09:41:46Z</time></trkpt><trkpt lat="43.27619963741531" lon="10.662140735018864"><ele>235.0</ele><time>2026-05-01T09:41:47Z</time></trkpt><trkpt lat="43.27623737383174" lon="10.662239862845274"><ele>233.33333333333334</ele><time>2026-05-01T09:41:48Z</time></trkpt><trkpt lat="43.27626768382498" lon="10.662332454413828"><ele>231.66666666666669</ele><time>2026-05-01T09:41:49Z</time></trkpt><trkpt lat="43.276297030306104" lon="10.662410845422134"><ele>230.0</ele><time>2026-05-01T09:41:50Z</time></trkpt><trkpt lat="43.27633085808135" lon="10.662485015793646"><ele>230.0</ele><time>2026-05-01T09:41:51Z</time></trkpt><trkpt lat="43.27639067437695" lon="10.662633537692809"><ele>230.0</ele><time>2026-05-01T09:41:53Z</time></trkpt><trkpt lat="43.27642481145324" lon="10.66272623028108"><ele>230.0</ele><time>2026-05-01T09:41:54Z</time></trkpt><trkpt lat="43.27647791626311" lon="10.662817016618753"><ele>230.0</ele><time>2026-05-01T09:41:55Z</time></trkpt><trkpt lat="43.276545691028694" lon="10.662887344800351"><ele>230.0</ele><time>2026-05-01T09:41:56Z</time></trkpt><trkpt lat="43.27662618986956" lon="10.662941171398385"><ele>231.00000000000003</ele><time>2026-05-01T09:41:57Z</time></trkpt><trkpt lat="43.276724539585935" lon="10.662979590527666"><ele>232.0</ele><time>2026-05-01T09:41:58Z</time></trkpt><trkpt lat="43.276815478325915" lon="10.663008616664422"><ele>233.0</ele><time>2026-05-01T09:41:59Z</time></trkpt><trkpt lat="43.27690007199073" lon="10.663113707222141"><ele>234.0</ele><time>2026-05-01T09:42:01Z</time></trkpt><trkpt lat="43.27692835824747" lon="10.663195197820368"><ele>235.00000000000003</ele><time>2026-05-01T09:42:02Z</time></trkpt><trkpt lat="43.276940983007" lon="10.663289157195294"><ele>236.0</ele><time>2026-05-01T09:42:03Z</time></trkpt><trkpt lat="43.276931531133194" lon="10.663410884209378"><ele>236.00000000000003</ele><time>2026-05-01T09:42:04Z</time></trkpt><trkpt lat="43.276923754878936" lon="10.663558042949791"><ele>236.0</ele><time>2026-05-01T09:42:05Z</time></trkpt><trkpt lat="43.27691198255501" lon="10.663683841658981"><ele>236.0</ele><time>2026-05-01T09:42:06Z</time></trkpt><trkpt lat="43.27689174870787" lon="10.66379802496417"><ele>236.0</ele><time>2026-05-01T09:42:07Z</time></trkpt><trkpt lat="43.27688250736186" lon="10.663907420986579"><ele>236.00000000000003</ele><time>2026-05-01T09:42:08Z</time></trkpt><trkpt lat="43.27687588170897" lon="10.664013537315455"><ele>236.0</ele><time>2026-05-01T09:42:09Z</time></trkpt><trkpt lat="43.27687404921635" lon="10.664127925275038"><ele>233.66666666666669</ele><time>2026-05-01T09:42:10Z</time></trkpt><trkpt lat="43.276877604150634" lon="10.664247659823314"><ele>231.33333333333334</ele><time>2026-05-01T09:42:11Z</time></trkpt><trkpt lat="43.27688326508829" lon="10.66435979877"><ele>229.0</ele><time>2026-05-01T09:42:12Z</time></trkpt><trkpt lat="43.27688420861119" lon="10.664480820026526"><ele>226.66666666666669</ele><time>2026-05-01T09:42:13Z</time></trkpt><trkpt lat="43.276885349390895" lon="10.664621149695453"><ele>224.33333333333334</ele><time>2026-05-01T09:42:14Z</time></trkpt><trkpt lat="43.27688684233583" lon="10.664742906517255"><ele>222.0</ele><time>2026-05-01T09:42:15Z</time></trkpt><trkpt lat="43.276883304612696" lon="10.66485647766563"><ele>219.39999999999998</ele><time>2026-05-01T09:42:16Z</time></trkpt><trkpt lat="43.276882487526606" lon="10.66496749251626"><ele>216.79999999999998</ele><time>2026-05-01T09:42:17Z</time></trkpt><trkpt lat="43.27687863477174" lon="10.665071403298477"><ele>214.2</ele><time>2026-05-01T09:42:18Z</time></trkpt><trkpt lat="43.27687241519349" lon="10.66516755842119"><ele>211.6</ele><time>2026-05-01T09:42:19Z</time></trkpt><trkpt lat="43.27688669336671" lon="10.66530855810502"><ele>209.0</ele><time>2026-05-01T09:42:21Z</time></trkpt><trkpt lat="43.276967155942565" lon="10.6654315430885"><ele>210.50000000000003</ele><time>2026-05-01T09:42:23Z</time></trkpt><trkpt lat="43.27702512024347" lon="10.665468301417476"><ele>212.0</ele><time>2026-05-01T09:42:24Z</time></trkpt><trkpt lat="43.277093880025646" lon="10.665504010144732"><ele>213.5</ele><time>2026-05-01T09:42:25Z</time></trkpt><trkpt lat="43.27719142042607" lon="10.665526557151365"><ele>215.0</ele><time>2026-05-01T09:42:26Z</time></trkpt><trkpt lat="43.27728646540155" lon="10.665520316284304"><ele>216.50000000000003</ele><time>2026-05-01T09:42:27Z</time></trkpt><trkpt lat="43.27736716304561" lon="10.665512340774008"><ele>218.0</ele><time>2026-05-01T09:42:28Z</time></trkpt><trkpt lat="43.27745621226555" lon="10.66550833689555"><ele>218.0</ele><time>2026-05-01T09:42:29Z</time></trkpt><trkpt lat="43.27753904416023" lon="10.665506540041859"><ele>218.0</ele><time>2026-05-01T09:42:30Z</time></trkpt><trkpt lat="43.27761242072756" lon="10.66551006454129"><ele>218.0</ele><time>2026-05-01T09:42:31Z</time></trkpt><trkpt lat="43.277682682566976" lon="10.66552091991161"><ele>218.0</ele><time>2026-05-01T09:42:32Z</time></trkpt><trkpt lat="43.27775445718664" lon="10.66553206252178"><ele>218.0</ele><time>2026-05-01T09:42:33Z</time></trkpt><trkpt lat="43.27782374274412" lon="10.665532820081058"><ele>218.0</ele><time>2026-05-01T09:42:34Z</time></trkpt><trkpt lat="43.27789058862301" lon="10.665588444475818"><ele>218.0</ele><time>2026-05-01T09:42:35Z</time></trkpt><trkpt lat="43.27795374354981" lon="10.665655024213589"><ele>218.00000000000003</ele><time>2026-05-01T09:42:36Z</time></trkpt><trkpt lat="43.27801219425537" lon="10.665735522865125"><ele>218.0</ele><time>2026-05-01T09:42:37Z</time></trkpt><trkpt lat="43.2780562573942" lon="10.665826313836181"><ele>218.0</ele><time>2026-05-01T09:42:38Z</time></trkpt><trkpt lat="43.27810491286843" lon="10.665938086096814"><ele>218.0</ele><time>2026-05-01T09:42:39Z</time></trkpt><trkpt lat="43.27814618300331" lon="10.666062635829705"><ele>218.00000000000003</ele><time>2026-05-01T09:42:40Z</time></trkpt><trkpt lat="43.278182293714245" lon="10.666178789820233"><ele>218.0</ele><time>2026-05-01T09:42:41Z</time></trkpt><trkpt lat="43.27821721492955" lon="10.66628829455579"><ele>216.16666666666669</ele><time>2026-05-01T09:42:42Z</time></trkpt><trkpt lat="43.27824810119053" lon="10.666372873049614"><ele>214.33333333333334</ele><time>2026-05-01T09:42:43Z</time></trkpt><trkpt lat="43.27828578736441" lon="10.666453171974261"><ele>212.5</ele><time>2026-05-01T09:42:44Z</time></trkpt><trkpt lat="43.27833236221574" lon="10.666516057201445"><ele>210.66666666666669</ele><time>2026-05-01T09:42:45Z</time></trkpt><trkpt lat="43.278450696435705" lon="10.666578440747289"><ele>208.83333333333334</ele><time>2026-05-01T09:42:47Z</time></trkpt><trkpt lat="43.27851396758643" lon="10.66661300308452"><ele>207.0</ele><time>2026-05-01T09:42:48Z</time></trkpt><trkpt lat="43.278585336101365" lon="10.666635623746764"><ele>207.0</ele><time>2026-05-01T09:42:49Z</time></trkpt><trkpt lat="43.278668262302524" lon="10.666661909835373"><ele>207.0</ele><time>2026-05-01T09:42:50Z</time></trkpt><trkpt lat="43.27875267823633" lon="10.666688666374087"><ele>207.0</ele><time>2026-05-01T09:42:51Z</time></trkpt><trkpt lat="43.278826633411285" lon="10.666716000081555"><ele>207.0</ele><time>2026-05-01T09:42:52Z</time></trkpt><trkpt lat="43.27889580832208" lon="10.666747032691031"><ele>207.0</ele><time>2026-05-01T09:42:53Z</time></trkpt><trkpt lat="43.27897696661543" lon="10.666799121900226"><ele>207.0</ele><time>2026-05-01T09:42:54Z</time></trkpt><trkpt lat="43.279063123236554" lon="10.666823375260407"><ele>207.0</ele><time>2026-05-01T09:42:55Z</time></trkpt><trkpt lat="43.279140652995125" lon="10.666838450844953"><ele>207.0</ele><time>2026-05-01T09:42:56Z</time></trkpt><trkpt lat="43.27921965223937" lon="10.666844286631422"><ele>207.0</ele><time>2026-05-01T09:42:57Z</time></trkpt><trkpt lat="43.27929474508463" lon="10.66685315417127"><ele>207.0</ele><time>2026-05-01T09:42:58Z</time></trkpt><trkpt lat="43.279367526853775" lon="10.66686151713922"><ele>207.0</ele><time>2026-05-01T09:42:59Z</time></trkpt><trkpt lat="43.27945089204097" lon="10.666872216558819"><ele>207.0</ele><time>2026-05-01T09:43:00Z</time></trkpt><trkpt lat="43.27954676507741" lon="10.66688524053328"><ele>207.0</ele><time>2026-05-01T09:43:01Z</time></trkpt><trkpt lat="43.27962732532982" lon="10.666895535467953"><ele>207.0</ele><time>2026-05-01T09:43:02Z</time></trkpt><trkpt lat="43.27970515731409" lon="10.666915318426708"><ele>207.0</ele><time>2026-05-01T09:43:03Z</time></trkpt><trkpt lat="43.279798828480665" lon="10.666938712487717"><ele>207.0</ele><time>2026-05-01T09:43:04Z</time></trkpt><trkpt lat="43.27988772848628" lon="10.666959824306792"><ele>207.0</ele><time>2026-05-01T09:43:05Z</time></trkpt><trkpt lat="43.279968468294754" lon="10.666977186747033"><ele>207.0</ele><time>2026-05-01T09:43:06Z</time></trkpt><trkpt lat="43.280044292052594" lon="10.666980593623297"><ele>206.57142857142858</ele><time>2026-05-01T09:43:07Z</time></trkpt><trkpt lat="43.28011597052073" lon="10.666974098586392"><ele>206.14285714285714</ele><time>2026-05-01T09:43:08Z</time></trkpt><trkpt lat="43.28019046388166" lon="10.666965445876462"><ele>205.71428571428572</ele><time>2026-05-01T09:43:09Z</time></trkpt><trkpt lat="43.28025471252259" lon="10.666942846486577"><ele>205.28571428571428</ele><time>2026-05-01T09:43:10Z</time></trkpt><trkpt lat="43.28032754478336" lon="10.666904931954823"><ele>204.85714285714286</ele><time>2026-05-01T09:43:11Z</time></trkpt><trkpt lat="43.28039717690657" lon="10.666851604473795"><ele>204.42857142857144</ele><time>2026-05-01T09:43:12Z</time></trkpt><trkpt lat="43.28046796907173" lon="10.666805821735258"><ele>204.0</ele><time>2026-05-01T09:43:13Z</time></trkpt><trkpt lat="43.280545692642185" lon="10.666763476519474"><ele>201.33333333333334</ele><time>2026-05-01T09:43:14Z</time></trkpt><trkpt lat="43.280618939842505" lon="10.666722505571533"><ele>198.66666666666666</ele><time>2026-05-01T09:43:15Z</time></trkpt><trkpt lat="43.280689859297205" lon="10.666690817401475"><ele>196.0</ele><time>2026-05-01T09:43:16Z</time></trkpt><trkpt lat="43.28077232051751" lon="10.666655648585424"><ele>193.33333333333331</ele><time>2026-05-01T09:43:17Z</time></trkpt><trkpt lat="43.280866300699" lon="10.666637751709473"><ele>190.66666666666666</ele><time>2026-05-01T09:43:18Z</time></trkpt><trkpt lat="43.28094469014223" lon="10.666621534112316"><ele>188.0</ele><time>2026-05-01T09:43:19Z</time></trkpt><trkpt lat="43.28102298240873" lon="10.6665994255843"><ele>188.0</ele><time>2026-05-01T09:43:20Z</time></trkpt><trkpt lat="43.28109235999967" lon="10.666568829375477"><ele>188.0</ele><time>2026-05-01T09:43:21Z</time></trkpt><trkpt lat="43.28116452048157" lon="10.666547204272103"><ele>188.0</ele><time>2026-05-01T09:43:22Z</time></trkpt><trkpt lat="43.281234471617395" lon="10.666533399638874"><ele>188.0</ele><time>2026-05-01T09:43:23Z</time></trkpt><trkpt lat="43.281302764770714" lon="10.66651833972142"><ele>188.0</ele><time>2026-05-01T09:43:24Z</time></trkpt><trkpt lat="43.28138012904351" lon="10.666492150924634"><ele>188.0</ele><time>2026-05-01T09:43:25Z</time></trkpt><trkpt lat="43.28146849893925" lon="10.666456193278368"><ele>186.16666666666666</ele><time>2026-05-01T09:43:26Z</time></trkpt><trkpt lat="43.28155008236268" lon="10.6664334018406"><ele>184.33333333333331</ele><time>2026-05-01T09:43:27Z</time></trkpt><trkpt lat="43.28162720566855" lon="10.666418566291046"><ele>182.5</ele><time>2026-05-01T09:43:28Z</time></trkpt><trkpt lat="43.28170633741051" lon="10.66639688923883"><ele>180.66666666666666</ele><time>2026-05-01T09:43:29Z</time></trkpt><trkpt lat="43.281788210421475" lon="10.666363495801384"><ele>178.83333333333334</ele><time>2026-05-01T09:43:30Z</time></trkpt><trkpt lat="43.28186783242207" lon="10.666327240533821"><ele>177.0</ele><time>2026-05-01T09:43:31Z</time></trkpt><trkpt lat="43.281944266519446" lon="10.666288327391875"><ele>177.0</ele><time>2026-05-01T09:43:32Z</time></trkpt><trkpt lat="43.28202012418036" lon="10.666256556033108"><ele>177.0</ele><time>2026-05-01T09:43:33Z</time></trkpt><trkpt lat="43.282110174401815" lon="10.666223460836704"><ele>177.0</ele><time>2026-05-01T09:43:34Z</time></trkpt><trkpt lat="43.28220834968236" lon="10.666188724161797"><ele>177.0</ele><time>2026-05-01T09:43:35Z</time></trkpt><trkpt lat="43.28230154633024" lon="10.666161225917012"><ele>177.0</ele><time>2026-05-01T09:43:36Z</time></trkpt><trkpt lat="43.28239303387994" lon="10.666135473620544"><ele>177.0</ele><time>2026-05-01T09:43:37Z</time></trkpt><trkpt lat="43.28249437888707" lon="10.666113442603915"><ele>177.0</ele><time>2026-05-01T09:43:38Z</time></trkpt><trkpt lat="43.282591624857474" lon="10.666096957718953"><ele>177.0</ele><time>2026-05-01T09:43:39Z</time></trkpt><trkpt lat="43.28267943561117" lon="10.666081495531827"><ele>177.0</ele><time>2026-05-01T09:43:40Z</time></trkpt><trkpt lat="43.282764783598836" lon="10.666061554581791"><ele>177.0</ele><time>2026-05-01T09:43:41Z</time></trkpt><trkpt lat="43.28285022155625" lon="10.66604562833413"><ele>177.0</ele><time>2026-05-01T09:43:42Z</time></trkpt><trkpt lat="43.282938974552515" lon="10.666030368282566"><ele>177.0</ele><time>2026-05-01T09:43:43Z</time></trkpt><trkpt lat="43.28302904742934" lon="10.665998509109917"><ele>177.0</ele><time>2026-05-01T09:43:44Z</time></trkpt><trkpt lat="43.28310998389383" lon="10.665983746018428"><ele>177.0</ele><time>2026-05-01T09:43:45Z</time></trkpt><trkpt lat="43.28318298501427" lon="10.66598563123789"><ele>177.0</ele><time>2026-05-01T09:43:46Z</time></trkpt><trkpt lat="43.28324912836771" lon="10.666008854423932"><ele>177.0</ele><time>2026-05-01T09:43:47Z</time></trkpt><trkpt lat="43.28332082620443" lon="10.666026872939472"><ele>174.66666666666666</ele><time>2026-05-01T09:43:49Z</time></trkpt><trkpt lat="43.28337906907902" lon="10.666060270989556"><ele>172.33333333333334</ele><time>2026-05-01T09:44:09Z</time></trkpt><trkpt lat="43.28344743540792" lon="10.666143867304115"><ele>170.0</ele><time>2026-05-01T09:44:12Z</time></trkpt><trkpt lat="43.28349023859827" lon="10.66624171740198"><ele>167.66666666666669</ele><time>2026-05-01T09:44:15Z</time></trkpt><trkpt lat="43.28352875369624" lon="10.666334633447088"><ele>165.33333333333334</ele><time>2026-05-01T09:44:18Z</time></trkpt><trkpt lat="43.28356897119589" lon="10.666420928752872"><ele>163.0</ele><time>2026-05-01T09:44:21Z</time></trkpt><trkpt lat="43.28360651938681" lon="10.666504223393218"><ele>161.83333333333334</ele><time>2026-05-01T09:44:24Z</time></trkpt><trkpt lat="43.283638727434386" lon="10.666593306103028"><ele>160.66666666666669</ele><time>2026-05-01T09:44:27Z</time></trkpt><trkpt lat="43.2836681838895" lon="10.666701428875221"><ele>159.5</ele><time>2026-05-01T09:44:30Z</time></trkpt><trkpt lat="43.283706021032856" lon="10.666810342779824"><ele>158.33333333333334</ele><time>2026-05-01T09:44:33Z</time></trkpt><trkpt lat="43.28373338831711" lon="10.666890356938001"><ele>157.16666666666666</ele><time>2026-05-01T09:44:35Z</time></trkpt><trkpt lat="43.283787418967826" lon="10.667012182897274"><ele>156.0</ele><time>2026-05-01T09:44:37Z</time></trkpt><trkpt lat="43.28383773204738" lon="10.667111623370014"><ele>155.2</ele><time>2026-05-01T09:44:38Z</time></trkpt><trkpt lat="43.2838775080528" lon="10.667195145678638"><ele>154.39999999999998</ele><time>2026-05-01T09:44:39Z</time></trkpt><trkpt lat="43.28392967468832" lon="10.667315076025123"><ele>153.6</ele><time>2026-05-01T09:44:41Z</time></trkpt><trkpt lat="43.28398819888701" lon="10.667466305726453"><ele>152.79999999999998</ele><time>2026-05-01T09:44:43Z</time></trkpt><trkpt lat="43.28403257140448" lon="10.667620698899437"><ele>152.0</ele><time>2026-05-01T09:44:45Z</time></trkpt><trkpt lat="43.28405891757506" lon="10.667700961908896"><ele>151.83333333333331</ele><time>2026-05-01T09:44:46Z</time></trkpt><trkpt lat="43.28411355274081" lon="10.667847255172305"><ele>151.66666666666666</ele><time>2026-05-01T09:44:48Z</time></trkpt><trkpt lat="43.28414190254145" lon="10.667925734245188"><ele>151.5</ele><time>2026-05-01T09:44:49Z</time></trkpt><trkpt lat="43.28417157316223" lon="10.668022623628348"><ele>151.33333333333334</ele><time>2026-05-01T09:44:50Z</time></trkpt><trkpt lat="43.28420133775347" lon="10.668124470727763"><ele>151.16666666666669</ele><time>2026-05-01T09:44:51Z</time></trkpt><trkpt lat="43.28423076282209" lon="10.668237065125762"><ele>151.0</ele><time>2026-05-01T09:44:52Z</time></trkpt><trkpt lat="43.28426030543263" lon="10.66835977934048"><ele>151.0</ele><time>2026-05-01T09:44:53Z</time></trkpt><trkpt lat="43.28428642100215" lon="10.668473315847175"><ele>151.0</ele><time>2026-05-01T09:44:54Z</time></trkpt><trkpt lat="43.28431384110901" lon="10.668579553614956"><ele>151.0</ele><time>2026-05-01T09:44:55Z</time></trkpt><trkpt lat="43.28434305421228" lon="10.668679001294409"><ele>151.0</ele><time>2026-05-01T09:44:56Z</time></trkpt><trkpt lat="43.284370772461635" lon="10.668775374588309"><ele>151.0</ele><time>2026-05-01T09:44:57Z</time></trkpt><trkpt lat="43.28439953336929" lon="10.668865740744296"><ele>151.0</ele><time>2026-05-01T09:44:58Z</time></trkpt><trkpt lat="43.284428730663876" lon="10.66897121862077"><ele>150.0</ele><time>2026-05-01T09:44:59Z</time></trkpt><trkpt lat="43.284465838286984" lon="10.669095034039485"><ele>149.0</ele><time>2026-05-01T09:45:00Z</time></trkpt><trkpt lat="43.284506417281925" lon="10.669237420715776"><ele>148.0</ele><time>2026-05-01T09:45:01Z</time></trkpt><trkpt lat="43.28454499255354" lon="10.669376331620457"><ele>147.0</ele><time>2026-05-01T09:45:02Z</time></trkpt><trkpt lat="43.28458516961321" lon="10.669488354264619"><ele>146.0</ele><time>2026-05-01T09:45:03Z</time></trkpt><trkpt lat="43.28462692192251" lon="10.66958987824189"><ele>146.0</ele><time>2026-05-01T09:45:04Z</time></trkpt><trkpt lat="43.284664118399625" lon="10.669686677628032"><ele>146.0</ele><time>2026-05-01T09:45:05Z</time></trkpt><trkpt lat="43.284700760982005" lon="10.669792272636345"><ele>146.0</ele><time>2026-05-01T09:45:06Z</time></trkpt><trkpt lat="43.28474139795725" lon="10.669904068574102"><ele>146.0</ele><time>2026-05-01T09:45:07Z</time></trkpt><trkpt lat="43.2847806368658" lon="10.670022840734173"><ele>146.0</ele><time>2026-05-01T09:45:08Z</time></trkpt><trkpt lat="43.2848198234033" lon="10.670121778583788"><ele>146.0</ele><time>2026-05-01T09:45:09Z</time></trkpt><trkpt lat="43.28486362687275" lon="10.670204483366767"><ele>144.8</ele><time>2026-05-01T09:45:10Z</time></trkpt><trkpt lat="43.28490488396064" lon="10.670280457509541"><ele>143.6</ele><time>2026-05-01T09:45:11Z</time></trkpt><trkpt lat="43.284991979315095" lon="10.670362434005153"><ele>142.4</ele><time>2026-05-01T09:45:13Z</time></trkpt><trkpt lat="43.2850602711892" lon="10.670410325026406"><ele>141.2</ele><time>2026-05-01T09:45:15Z</time></trkpt><trkpt lat="43.28516798020119" lon="10.670501826928172"><ele>140.0</ele><time>2026-05-01T09:45:17Z</time></trkpt><trkpt lat="43.28522976972606" lon="10.670561634557911"><ele>140.0</ele><time>2026-05-01T09:45:18Z</time></trkpt><trkpt lat="43.285298791826776" lon="10.670656642695896"><ele>140.0</ele><time>2026-05-01T09:45:19Z</time></trkpt><trkpt lat="43.28534942594872" lon="10.670751118597073"><ele>140.0</ele><time>2026-05-01T09:45:20Z</time></trkpt><trkpt lat="43.28539291143252" lon="10.670870671878339"><ele>140.0</ele><time>2026-05-01T09:45:21Z</time></trkpt><trkpt lat="43.285451185705504" lon="10.671028771537916"><ele>140.0</ele><time>2026-05-01T09:45:23Z</time></trkpt><trkpt lat="43.28550516572625" lon="10.671157310238392"><ele>140.0</ele><time>2026-05-01T09:45:25Z</time></trkpt><trkpt lat="43.28555117911228" lon="10.671235655946257"><ele>140.0</ele><time>2026-05-01T09:45:26Z</time></trkpt><trkpt lat="43.285614807024096" lon="10.671330001447869"><ele>140.0</ele><time>2026-05-01T09:45:27Z</time></trkpt><trkpt lat="43.28569265193843" lon="10.671454295744136"><ele>140.0</ele><time>2026-05-01T09:45:28Z</time></trkpt><trkpt lat="43.285774570357745" lon="10.67158775027727"><ele>140.0</ele><time>2026-05-01T09:45:29Z</time></trkpt><trkpt lat="43.285847078814236" lon="10.671701824721708"><ele>140.0</ele><time>2026-05-01T09:45:30Z</time></trkpt><trkpt lat="43.285913556578755" lon="10.67179791802555"><ele>140.0</ele><time>2026-05-01T09:45:31Z</time></trkpt><trkpt lat="43.285967615350934" lon="10.671869301443376"><ele>140.0</ele><time>2026-05-01T09:45:32Z</time></trkpt><trkpt lat="43.28601997165759" lon="10.671929522710528"><ele>140.0</ele><time>2026-05-01T09:45:33Z</time></trkpt><trkpt lat="43.286123837421826" lon="10.672025525852488"><ele>140.0</ele><time>2026-05-01T09:45:35Z</time></trkpt><trkpt lat="43.28619731814701" lon="10.672082770487728"><ele>140.0</ele><time>2026-05-01T09:45:36Z</time></trkpt><trkpt lat="43.28628527188793" lon="10.672129312296173"><ele>140.0</ele><time>2026-05-01T09:45:37Z</time></trkpt><trkpt lat="43.28636120805661" lon="10.672187045378385"><ele>140.0</ele><time>2026-05-01T09:45:38Z</time></trkpt><trkpt lat="43.28642883716192" lon="10.672243704195981"><ele>140.0</ele><time>2026-05-01T09:45:39Z</time></trkpt><trkpt lat="43.28649973611866" lon="10.672312746369931"><ele>140.0</ele><time>2026-05-01T09:45:40Z</time></trkpt><trkpt lat="43.28658283998413" lon="10.67239631089464"><ele>140.0</ele><time>2026-05-01T09:45:41Z</time></trkpt><trkpt lat="43.28667502139994" lon="10.672493528490788"><ele>139.83333333333331</ele><time>2026-05-01T09:45:42Z</time></trkpt><trkpt lat="43.28675666308645" lon="10.6725677909763"><ele>139.66666666666666</ele><time>2026-05-01T09:45:43Z</time></trkpt><trkpt lat="43.2868367568101" lon="10.672625240706282"><ele>139.5</ele><time>2026-05-01T09:45:44Z</time></trkpt><trkpt lat="43.2869185775377" lon="10.672678812470217"><ele>139.33333333333334</ele><time>2026-05-01T09:45:45Z</time></trkpt><trkpt lat="43.286997345573866" lon="10.672723173503359"><ele>139.16666666666669</ele><time>2026-05-01T09:45:46Z</time></trkpt><trkpt lat="43.28706659513454" lon="10.672748888440815"><ele>139.0</ele><time>2026-05-01T09:45:47Z</time></trkpt><trkpt lat="43.28717610892135" lon="10.672791657324442"><ele>137.83333333333334</ele><time>2026-05-01T09:45:49Z</time></trkpt><trkpt lat="43.287232366018536" lon="10.67284595519222"><ele>136.66666666666669</ele><time>2026-05-01T09:45:50Z</time></trkpt><trkpt lat="43.287282915185216" lon="10.672921845786343"><ele>135.5</ele><time>2026-05-01T09:45:51Z</time></trkpt><trkpt lat="43.28734248114828" lon="10.673006373076374"><ele>134.33333333333334</ele><time>2026-05-01T09:45:52Z</time></trkpt><trkpt lat="43.287415986548815" lon="10.673098077661278"><ele>133.16666666666666</ele><time>2026-05-01T09:45:53Z</time></trkpt><trkpt lat="43.287500584851564" lon="10.673193851114569"><ele>132.0</ele><time>2026-05-01T09:45:54Z</time></trkpt><trkpt lat="43.28757919411931" lon="10.673299634447353"><ele>131.2</ele><time>2026-05-01T09:45:55Z</time></trkpt><trkpt lat="43.2876461001063" lon="10.673403529008484"><ele>130.39999999999998</ele><time>2026-05-01T09:45:56Z</time></trkpt><trkpt lat="43.28770080367258" lon="10.67351411881662"><ele>129.60000000000002</ele><time>2026-05-01T09:45:57Z</time></trkpt><trkpt lat="43.287751825831066" lon="10.673622620130688"><ele>128.8</ele><time>2026-05-01T09:45:58Z</time></trkpt><trkpt lat="43.28779846989366" lon="10.673722399339482"><ele>128.0</ele><time>2026-05-01T09:45:59Z</time></trkpt><trkpt lat="43.287844984846544" lon="10.673808366513404"><ele>127.14285714285714</ele><time>2026-05-01T09:46:00Z</time></trkpt><trkpt lat="43.28789192080518" lon="10.673889695503293"><ele>126.28571428571428</ele><time>2026-05-01T09:46:01Z</time></trkpt><trkpt lat="43.2879364724086" lon="10.673955529166728"><ele>125.42857142857142</ele><time>2026-05-01T09:46:02Z</time></trkpt><trkpt lat="43.287979358737445" lon="10.674027524831427"><ele>124.57142857142856</ele><time>2026-05-01T09:46:03Z</time></trkpt><trkpt lat="43.28802539050238" lon="10.674087588231526"><ele>123.71428571428571</ele><time>2026-05-01T09:46:04Z</time></trkpt><trkpt lat="43.28807856391121" lon="10.67413564480349"><ele>122.85714285714283</ele><time>2026-05-01T09:46:05Z</time></trkpt><trkpt lat="43.28814374589766" lon="10.674178752689365"><ele>121.99999999999999</ele><time>2026-05-01T09:46:06Z</time></trkpt><trkpt lat="43.28821805269844" lon="10.674206305771653"><ele>121.6</ele><time>2026-05-01T09:46:07Z</time></trkpt><trkpt lat="43.28830281853764" lon="10.674211571407708"><ele>121.19999999999999</ele><time>2026-05-01T09:46:08Z</time></trkpt><trkpt lat="43.288394349381136" lon="10.67420798626969"><ele>120.8</ele><time>2026-05-01T09:46:09Z</time></trkpt><trkpt lat="43.288491590083396" lon="10.674208392895451"><ele>120.4</ele><time>2026-05-01T09:46:10Z</time></trkpt><trkpt lat="43.28861628600206" lon="10.674221136905969"><ele>120.0</ele><time>2026-05-01T09:46:11Z</time></trkpt><trkpt lat="43.288767500130064" lon="10.674246989933032"><ele>120.0</ele><time>2026-05-01T09:46:12Z</time></trkpt><trkpt lat="43.288923803108695" lon="10.674276788310653"><ele>120.0</ele><time>2026-05-01T09:46:13Z</time></trkpt><trkpt lat="43.28905191451006" lon="10.674307094736582"><ele>120.0</ele><time>2026-05-01T09:46:14Z</time></trkpt><trkpt lat="43.289171053691334" lon="10.674327399227494"><ele>120.0</ele><time>2026-05-01T09:46:15Z</time></trkpt><trkpt lat="43.28928474228412" lon="10.674344292394474"><ele>119.75</ele><time>2026-05-01T09:46:16Z</time></trkpt><trkpt lat="43.289408757225914" lon="10.67434648577165"><ele>119.5</ele><time>2026-05-01T09:46:17Z</time></trkpt><trkpt lat="43.28956202464935" lon="10.674332055228554"><ele>119.25</ele><time>2026-05-01T09:46:18Z</time></trkpt><trkpt lat="43.28972250007249" lon="10.67430331163027"><ele>119.0</ele><time>2026-05-01T09:46:19Z</time></trkpt><trkpt lat="43.28985969136796" lon="10.674276007907805"><ele>119.6</ele><time>2026-05-01T09:46:20Z</time></trkpt><trkpt lat="43.28995186349602" lon="10.674260555470113"><ele>120.2</ele><time>2026-05-01T09:46:21Z</time></trkpt><trkpt lat="43.290046556587704" lon="10.674270606549783"><ele>120.79999999999998</ele><time>2026-05-01T09:46:23Z</time></trkpt><trkpt lat="43.29013432692271" lon="10.674296636006938"><ele>121.39999999999999</ele><time>2026-05-01T09:46:24Z</time></trkpt><trkpt lat="43.29025390913482" lon="10.674338252667017"><ele>122.0</ele><time>2026-05-01T09:46:25Z</time></trkpt><trkpt lat="43.29038325083341" lon="10.674382494962515"><ele>122.0</ele><time>2026-05-01T09:46:26Z</time></trkpt><trkpt lat="43.290497898367725" lon="10.67443204847307"><ele>121.99999999999999</ele><time>2026-05-01T09:46:27Z</time></trkpt><trkpt lat="43.290602594709235" lon="10.674477284478275"><ele>121.99999999999999</ele><time>2026-05-01T09:46:28Z</time></trkpt><trkpt lat="43.29068135035156" lon="10.674524382352496"><ele>122.0</ele><time>2026-05-01T09:46:29Z</time></trkpt><trkpt lat="43.29075250887969" lon="10.67460303893172"><ele>122.0</ele><time>2026-05-01T09:46:30Z</time></trkpt><trkpt lat="43.29083721803815" lon="10.674720377444514"><ele>119.75</ele><time>2026-05-01T09:46:31Z</time></trkpt><trkpt lat="43.29092521108317" lon="10.674863280108768"><ele>117.5</ele><time>2026-05-01T09:46:32Z</time></trkpt><trkpt lat="43.29101665840278" lon="10.67501739473826"><ele>115.25</ele><time>2026-05-01T09:46:33Z</time></trkpt><trkpt lat="43.291100491463176" lon="10.675177084219191"><ele>113.0</ele><time>2026-05-01T09:46:34Z</time></trkpt><trkpt lat="43.291174222098476" lon="10.675322727949386"><ele>113.5</ele><time>2026-05-01T09:46:35Z</time></trkpt><trkpt lat="43.29124947949027" lon="10.675473206517674"><ele>114.0</ele><time>2026-05-01T09:46:36Z</time></trkpt><trkpt lat="43.29132086182697" lon="10.675613791207036"><ele>114.5</ele><time>2026-05-01T09:46:37Z</time></trkpt><trkpt lat="43.291384707928906" lon="10.675746530251704"><ele>115.0</ele><time>2026-05-01T09:46:38Z</time></trkpt><trkpt lat="43.2914352867334" lon="10.675878943207218"><ele>115.0</ele><time>2026-05-01T09:46:39Z</time></trkpt><trkpt lat="43.291478879957246" lon="10.676010258290717"><ele>115.0</ele><time>2026-05-01T09:46:40Z</time></trkpt><trkpt lat="43.29150896803852" lon="10.676141241502021"><ele>115.0</ele><time>2026-05-01T09:46:41Z</time></trkpt><trkpt lat="43.29152611878033" lon="10.676278649997633"><ele>115.0</ele><time>2026-05-01T09:46:42Z</time></trkpt><trkpt lat="43.29153380195688" lon="10.676395413190816"><ele>115.0</ele><time>2026-05-01T09:46:43Z</time></trkpt><trkpt lat="43.291531397528615" lon="10.676572463935315"><ele>115.0</ele><time>2026-05-01T09:46:45Z</time></trkpt><trkpt lat="43.29152200931073" lon="10.67669204870965"><ele>115.0</ele><time>2026-05-01T09:46:46Z</time></trkpt><trkpt lat="43.29150450053516" lon="10.676840018801345"><ele>115.0</ele><time>2026-05-01T09:46:47Z</time></trkpt><trkpt lat="43.291491756897784" lon="10.67698164038137"><ele>115.0</ele><time>2026-05-01T09:46:48Z</time></trkpt><trkpt lat="43.291476903666094" lon="10.677110037664912"><ele>115.0</ele><time>2026-05-01T09:46:49Z</time></trkpt><trkpt lat="43.29147036701358" lon="10.677216530187682"><ele>114.16666666666667</ele><time>2026-05-01T09:46:50Z</time></trkpt><trkpt lat="43.291467185414255" lon="10.677303580518343"><ele>113.33333333333334</ele><time>2026-05-01T09:46:51Z</time></trkpt><trkpt lat="43.29145525043489" lon="10.677397481243087"><ele>112.5</ele><time>2026-05-01T09:46:52Z</time></trkpt><trkpt lat="43.29147488705638" lon="10.677496260375676"><ele>111.66666666666666</ele><time>2026-05-01T09:46:53Z</time></trkpt><trkpt lat="43.291514990548706" lon="10.6776067416347"><ele>110.83333333333333</ele><time>2026-05-01T09:46:54Z</time></trkpt><trkpt lat="43.29155986897002" lon="10.677726735316677"><ele>110.0</ele><time>2026-05-01T09:46:55Z</time></trkpt><trkpt lat="43.29159573745985" lon="10.67783737036258"><ele>108.33333333333333</ele><time>2026-05-01T09:46:56Z</time></trkpt><trkpt lat="43.29164396068883" lon="10.677935873412562"><ele>106.66666666666666</ele><time>2026-05-01T09:46:57Z</time></trkpt><trkpt lat="43.29168154867711" lon="10.678028985543103"><ele>105.0</ele><time>2026-05-01T09:46:58Z</time></trkpt><trkpt lat="43.29173119661446" lon="10.678101032597397"><ele>103.33333333333334</ele><time>2026-05-01T09:46:59Z</time></trkpt><trkpt lat="43.291793249074196" lon="10.678175690010578"><ele>101.66666666666667</ele><time>2026-05-01T09:47:00Z</time></trkpt><trkpt lat="43.29188982860226" lon="10.678234599973344"><ele>100.0</ele><time>2026-05-01T09:47:01Z</time></trkpt><trkpt lat="43.291959035715024" lon="10.678303102533276"><ele>100.0</ele><time>2026-05-01T09:47:02Z</time></trkpt><trkpt lat="43.29200816969732" lon="10.67839279117885"><ele>100.0</ele><time>2026-05-01T09:47:03Z</time></trkpt><trkpt lat="43.29202938951746" lon="10.678492211698824"><ele>100.0</ele><time>2026-05-01T09:47:04Z</time></trkpt><trkpt lat="43.29202049230749" lon="10.678596294549951"><ele>100.0</ele><time>2026-05-01T09:47:05Z</time></trkpt><trkpt lat="43.29199684542345" lon="10.678755342612195"><ele>100.0</ele><time>2026-05-01T09:47:06Z</time></trkpt><trkpt lat="43.29200060313855" lon="10.6788917511736"><ele>97.8</ele><time>2026-05-01T09:47:07Z</time></trkpt><trkpt lat="43.29203081377167" lon="10.679015172075102"><ele>95.6</ele><time>2026-05-01T09:47:08Z</time></trkpt><trkpt lat="43.2920683357596" lon="10.679117456113515"><ele>93.4</ele><time>2026-05-01T09:47:09Z</time></trkpt><trkpt lat="43.29211102584454" lon="10.679225221155292"><ele>91.2</ele><time>2026-05-01T09:47:10Z</time></trkpt><trkpt lat="43.29215956800178" lon="10.679334740907107"><ele>89.0</ele><time>2026-05-01T09:47:11Z</time></trkpt><trkpt lat="43.29223120510844" lon="10.679462473618221"><ele>91.25</ele><time>2026-05-01T09:47:12Z</time></trkpt><trkpt lat="43.29232207016201" lon="10.679594245609504"><ele>93.5</ele><time>2026-05-01T09:47:13Z</time></trkpt><trkpt lat="43.29241391937364" lon="10.679703394650218"><ele>95.75</ele><time>2026-05-01T09:47:14Z</time></trkpt><trkpt lat="43.292496411434854" lon="10.679813645547648"><ele>98.0</ele><time>2026-05-01T09:47:15Z</time></trkpt><trkpt lat="43.292576945164434" lon="10.679914844053643"><ele>97.99999999999999</ele><time>2026-05-01T09:47:16Z</time></trkpt><trkpt lat="43.29265380667589" lon="10.680005812314128"><ele>98.0</ele><time>2026-05-01T09:47:17Z</time></trkpt><trkpt lat="43.29271439614933" lon="10.68007882142962"><ele>98.0</ele><time>2026-05-01T09:47:18Z</time></trkpt><trkpt lat="43.29277549612458" lon="10.680130754016988"><ele>98.0</ele><time>2026-05-01T09:47:19Z</time></trkpt><trkpt lat="43.29286168244875" lon="10.680165848760769"><ele>97.99999999999999</ele><time>2026-05-01T09:47:20Z</time></trkpt><trkpt lat="43.292964085266966" lon="10.680191643928069"><ele>98.0</ele><time>2026-05-01T09:47:21Z</time></trkpt><trkpt lat="43.29308571554407" lon="10.680189092690139"><ele>99.80000000000001</ele><time>2026-05-01T09:47:22Z</time></trkpt><trkpt lat="43.29320848662646" lon="10.680184674173207"><ele>101.6</ele><time>2026-05-01T09:47:23Z</time></trkpt><trkpt lat="43.29330214887098" lon="10.680175271459548"><ele>103.39999999999999</ele><time>2026-05-01T09:47:24Z</time></trkpt><trkpt lat="43.29340834853569" lon="10.68015927471608"><ele>105.19999999999999</ele><time>2026-05-01T09:47:25Z</time></trkpt><trkpt lat="43.29348726232815" lon="10.680104039415912"><ele>107.0</ele><time>2026-05-01T09:47:26Z</time></trkpt><trkpt lat="43.29357465958889" lon="10.680046715041051"><ele>107.0</ele><time>2026-05-01T09:47:27Z</time></trkpt><trkpt lat="43.29369231861445" lon="10.679993387541494"><ele>106.99999999999999</ele><time>2026-05-01T09:47:28Z</time></trkpt><trkpt lat="43.29378092426289" lon="10.679901876398347"><ele>106.99999999999999</ele><time>2026-05-01T09:47:29Z</time></trkpt><trkpt lat="43.29387387607159" lon="10.679863642810078"><ele>107.0</ele><time>2026-05-01T09:47:30Z</time></trkpt><trkpt lat="43.29396021916499" lon="10.679869103251885"><ele>107.0</ele><time>2026-05-01T09:47:31Z</time></trkpt><trkpt lat="43.294050709263246" lon="10.679866948442006"><ele>106.39999999999999</ele><time>2026-05-01T09:47:32Z</time></trkpt><trkpt lat="43.29414116162675" lon="10.679932364523278"><ele>105.79999999999998</ele><time>2026-05-01T09:47:33Z</time></trkpt><trkpt lat="43.29422111179708" lon="10.680014905734959"><ele>105.2</ele><time>2026-05-01T09:47:34Z</time></trkpt><trkpt lat="43.29429531905818" lon="10.680123742348856"><ele>104.6</ele><time>2026-05-01T09:47:35Z</time></trkpt><trkpt lat="43.29434837470816" lon="10.68022069457486"><ele>104.0</ele><time>2026-05-01T09:47:36Z</time></trkpt><trkpt lat="43.29434591915769" lon="10.680343076011937"><ele>101.99999999999999</ele><time>2026-05-01T09:47:37Z</time></trkpt><trkpt lat="43.294360726048" lon="10.680440740769512"><ele>100.0</ele><time>2026-05-01T09:47:38Z</time></trkpt><trkpt lat="43.29439017812606" lon="10.680525002510821"><ele>98.0</ele><time>2026-05-01T09:47:39Z</time></trkpt><trkpt lat="43.29444023754326" lon="10.680584947140513"><ele>96.0</ele><time>2026-05-01T09:47:40Z</time></trkpt><trkpt lat="43.29451676226024" lon="10.680630119377444"><ele>94.0</ele><time>2026-05-01T09:47:41Z</time></trkpt><trkpt lat="43.29461320342666" lon="10.680646953733733"><ele>92.0</ele><time>2026-05-01T09:47:42Z</time></trkpt><trkpt lat="43.294730346366705" lon="10.680649220131915"><ele>92.39999999999999</ele><time>2026-05-01T09:47:43Z</time></trkpt><trkpt lat="43.294859066417594" lon="10.68062573498688"><ele>92.8</ele><time>2026-05-01T09:47:44Z</time></trkpt><trkpt lat="43.29496387807549" lon="10.680593754841999"><ele>93.2</ele><time>2026-05-01T09:47:45Z</time></trkpt><trkpt lat="43.29504963809878" lon="10.680580863248034"><ele>93.6</ele><time>2026-05-01T09:47:46Z</time></trkpt><trkpt lat="43.29512561888401" lon="10.680568027824435"><ele>94.0</ele><time>2026-05-01T09:47:47Z</time></trkpt><trkpt lat="43.29518884097584" lon="10.680577337815864"><ele>94.0</ele><time>2026-05-01T09:47:48Z</time></trkpt><trkpt lat="43.29526210314067" lon="10.68061324372789"><ele>94.0</ele><time>2026-05-01T09:47:49Z</time></trkpt><trkpt lat="43.295325723620884" lon="10.680656822085801"><ele>94.0</ele><time>2026-05-01T09:47:50Z</time></trkpt><trkpt lat="43.29541229513784" lon="10.680778082275353"><ele>94.0</ele><time>2026-05-01T09:47:52Z</time></trkpt><trkpt lat="43.29545212525719" lon="10.680888747487428"><ele>94.0</ele><time>2026-05-01T09:47:53Z</time></trkpt><trkpt lat="43.295474566400955" lon="10.681022797558441"><ele>92.80000000000001</ele><time>2026-05-01T09:47:54Z</time></trkpt><trkpt lat="43.29547799787915" lon="10.681144831313086"><ele>91.60000000000001</ele><time>2026-05-01T09:47:55Z</time></trkpt><trkpt lat="43.29547238898776" lon="10.681275002835067"><ele>90.4</ele><time>2026-05-01T09:47:56Z</time></trkpt><trkpt lat="43.29546224542912" lon="10.681415402360596"><ele>89.2</ele><time>2026-05-01T09:47:57Z</time></trkpt><trkpt lat="43.295442154660535" lon="10.681555619990277"><ele>88.0</ele><time>2026-05-01T09:47:58Z</time></trkpt><trkpt lat="43.29539165671247" lon="10.68166476091068"><ele>88.0</ele><time>2026-05-01T09:47:59Z</time></trkpt><trkpt lat="43.29535457937026" lon="10.681762491151456"><ele>88.0</ele><time>2026-05-01T09:48:00Z</time></trkpt><trkpt lat="43.2953239662963" lon="10.68188818065853"><ele>88.0</ele><time>2026-05-01T09:48:01Z</time></trkpt><trkpt lat="43.29529375503515" lon="10.68201850710039"><ele>88.0</ele><time>2026-05-01T09:48:02Z</time></trkpt><trkpt lat="43.29527901238207" lon="10.682145503642168"><ele>88.0</ele><time>2026-05-01T09:48:03Z</time></trkpt><trkpt lat="43.29526582214385" lon="10.68227320818118"><ele>87.66666666666666</ele><time>2026-05-01T09:48:04Z</time></trkpt><trkpt lat="43.29525141569442" lon="10.682396953443929"><ele>87.33333333333333</ele><time>2026-05-01T09:48:05Z</time></trkpt><trkpt lat="43.295223902920775" lon="10.682516536348158"><ele>87.0</ele><time>2026-05-01T09:48:06Z</time></trkpt><trkpt lat="43.29518992468327" lon="10.682629276362034"><ele>86.66666666666667</ele><time>2026-05-01T09:48:07Z</time></trkpt><trkpt lat="43.29516415997858" lon="10.682736347677329"><ele>86.33333333333334</ele><time>2026-05-01T09:48:08Z</time></trkpt><trkpt lat="43.29514697520814" lon="10.682830565744386"><ele>86.0</ele><time>2026-05-01T09:48:09Z</time></trkpt><trkpt lat="43.295159179018185" lon="10.68301053628842"><ele>84.8</ele><time>2026-05-01T09:48:11Z</time></trkpt><trkpt lat="43.295182505609134" lon="10.683106146920288"><ele>83.6</ele><time>2026-05-01T09:48:12Z</time></trkpt><trkpt lat="43.29523462108775" lon="10.68320122222833"><ele>82.4</ele><time>2026-05-01T09:48:13Z</time></trkpt><trkpt lat="43.2953255550099" lon="10.683310983163627"><ele>81.2</ele><time>2026-05-01T09:48:14Z</time></trkpt><trkpt lat="43.29543925832593" lon="10.683419573596131"><ele>80.0</ele><time>2026-05-01T09:48:15Z</time></trkpt><trkpt lat="43.29554157212384" lon="10.683529884033607"><ele>78.25</ele><time>2026-05-01T09:48:16Z</time></trkpt><trkpt lat="43.2956334874054" lon="10.683635876761906"><ele>76.5</ele><time>2026-05-01T09:48:17Z</time></trkpt><trkpt lat="43.29572369361266" lon="10.68373903564422"><ele>74.75</ele><time>2026-05-01T09:48:18Z</time></trkpt><trkpt lat="43.29581608694202" lon="10.683838101761921"><ele>73.0</ele><time>2026-05-01T09:48:19Z</time></trkpt><trkpt lat="43.29591561155593" lon="10.683948811585347"><ele>73.0</ele><time>2026-05-01T09:48:20Z</time></trkpt><trkpt lat="43.29601796579854" lon="10.684063721275741"><ele>73.0</ele><time>2026-05-01T09:48:21Z</time></trkpt><trkpt lat="43.29612667566772" lon="10.684185266604084"><ele>73.0</ele><time>2026-05-01T09:48:22Z</time></trkpt><trkpt lat="43.29623695594899" lon="10.684304109874443"><ele>73.0</ele><time>2026-05-01T09:48:23Z</time></trkpt><trkpt lat="43.29634966888112" lon="10.68442863996196"><ele>71.0</ele><time>2026-05-01T09:48:24Z</time></trkpt><trkpt lat="43.29645607512953" lon="10.68454670151447"><ele>69.0</ele><time>2026-05-01T09:48:25Z</time></trkpt><trkpt lat="43.29655552166132" lon="10.68465492141181"><ele>67.0</ele><time>2026-05-01T09:48:26Z</time></trkpt><trkpt lat="43.296655918674595" lon="10.684757233624678"><ele>65.0</ele><time>2026-05-01T09:48:27Z</time></trkpt><trkpt lat="43.29675887326683" lon="10.684866277423831"><ele>65.0</ele><time>2026-05-01T09:48:28Z</time></trkpt><trkpt lat="43.29685744174347" lon="10.684973608897412"><ele>65.0</ele><time>2026-05-01T09:48:29Z</time></trkpt><trkpt lat="43.296954708132255" lon="10.685080283088073"><ele>65.0</ele><time>2026-05-01T09:48:30Z</time></trkpt><trkpt lat="43.29705123511114" lon="10.685174761474773"><ele>65.0</ele><time>2026-05-01T09:48:31Z</time></trkpt><trkpt lat="43.29714451898726" lon="10.685272523894401"><ele>65.0</ele><time>2026-05-01T09:48:32Z</time></trkpt><trkpt lat="43.29723306083943" lon="10.685364286636217"><ele>65.0</ele><time>2026-05-01T09:48:33Z</time></trkpt><trkpt lat="43.297317256671384" lon="10.685454838254323"><ele>65.0</ele><time>2026-05-01T09:48:34Z</time></trkpt><trkpt lat="43.297396086231146" lon="10.685538823786537"><ele>65.0</ele><time>2026-05-01T09:48:35Z</time></trkpt><trkpt lat="43.29746791178199" lon="10.685621151902629"><ele>65.0</ele><time>2026-05-01T09:48:36Z</time></trkpt><trkpt lat="43.29753846404672" lon="10.685697531867737"><ele>63.4</ele><time>2026-05-01T09:48:37Z</time></trkpt><trkpt lat="43.297604915245486" lon="10.685770642805064"><ele>61.8</ele><time>2026-05-01T09:48:38Z</time></trkpt><trkpt lat="43.297685551411824" lon="10.685858390763045"><ele>60.2</ele><time>2026-05-01T09:48:39Z</time></trkpt><trkpt lat="43.29777230896058" lon="10.685955224311105"><ele>58.6</ele><time>2026-05-01T09:48:40Z</time></trkpt><trkpt lat="43.29786417733265" lon="10.686056843026122"><ele>57.0</ele><time>2026-05-01T09:48:41Z</time></trkpt><trkpt lat="43.29795630727287" lon="10.686160919141347"><ele>56.25</ele><time>2026-05-01T09:48:42Z</time></trkpt><trkpt lat="43.2980472246296" lon="10.686267542362117"><ele>55.5</ele><time>2026-05-01T09:48:43Z</time></trkpt><trkpt lat="43.29814547553614" lon="10.686379697135395"><ele>54.75</ele><time>2026-05-01T09:48:44Z</time></trkpt><trkpt lat="43.298248463940624" lon="10.686484808234322"><ele>54.0</ele><time>2026-05-01T09:48:45Z</time></trkpt><trkpt lat="43.298348339883134" lon="10.686584125767252"><ele>53.0</ele><time>2026-05-01T09:48:46Z</time></trkpt><trkpt lat="43.29844761397587" lon="10.686691431532202"><ele>52.0</ele><time>2026-05-01T09:48:47Z</time></trkpt><trkpt lat="43.29854244447582" lon="10.68681416962759"><ele>51.0</ele><time>2026-05-01T09:48:48Z</time></trkpt><trkpt lat="43.298634900068855" lon="10.68692860749869"><ele>50.0</ele><time>2026-05-01T09:48:49Z</time></trkpt><trkpt lat="43.298710477639595" lon="10.687027048531645"><ele>49.0</ele><time>2026-05-01T09:48:50Z</time></trkpt><trkpt lat="43.29876430750818" lon="10.687125881903318"><ele>48.0</ele><time>2026-05-01T09:48:51Z</time></trkpt><trkpt lat="43.298791839818236" lon="10.687244565146715"><ele>47.0</ele><time>2026-05-01T09:48:52Z</time></trkpt><trkpt lat="43.29876910384238" lon="10.687381244167607"><ele>46.0</ele><time>2026-05-01T09:48:53Z</time></trkpt><trkpt lat="43.29874230725072" lon="10.68751065003215"><ele>45.0</ele><time>2026-05-01T09:48:54Z</time></trkpt><trkpt lat="43.29872343240988" lon="10.68763092332167"><ele>45.0</ele><time>2026-05-01T09:48:55Z</time></trkpt><trkpt lat="43.29869200932433" lon="10.687728150564197"><ele>45.0</ele><time>2026-05-01T09:48:56Z</time></trkpt><trkpt lat="43.29864779016873" lon="10.687880569512705"><ele>45.0</ele><time>2026-05-01T09:48:58Z</time></trkpt><trkpt lat="43.29862053509775" lon="10.68800421973902"><ele>45.0</ele><time>2026-05-01T09:49:00Z</time></trkpt><trkpt lat="43.29857986918133" lon="10.688176489226894"><ele>45.0</ele><time>2026-05-01T09:49:02Z</time></trkpt><trkpt lat="43.298560896183645" lon="10.688273847865663"><ele>45.0</ele><time>2026-05-01T09:49:03Z</time></trkpt><trkpt lat="43.29853719796515" lon="10.688382658293383"><ele>45.0</ele><time>2026-05-01T09:49:04Z</time></trkpt><trkpt lat="43.298506537162844" lon="10.688511027121457"><ele>45.0</ele><time>2026-05-01T09:49:05Z</time></trkpt><trkpt lat="43.29850659467629" lon="10.688617386296217"><ele>45.0</ele><time>2026-05-01T09:49:06Z</time></trkpt><trkpt lat="43.29854066053611" lon="10.6887888326998"><ele>45.0</ele><time>2026-05-01T09:49:08Z</time></trkpt><trkpt lat="43.29858608613058" lon="10.688876374323025"><ele>45.0</ele><time>2026-05-01T09:49:09Z</time></trkpt><trkpt lat="43.29864742730489" lon="10.68894811743877"><ele>45.0</ele><time>2026-05-01T09:49:10Z</time></trkpt><trkpt lat="43.29873535914758" lon="10.689020045850027"><ele>45.0</ele><time>2026-05-01T09:49:11Z</time></trkpt><trkpt lat="43.29882025073173" lon="10.689091802549527"><ele>45.0</ele><time>2026-05-01T09:49:12Z</time></trkpt><trkpt lat="43.29889155262875" lon="10.689184037998597"><ele>45.0</ele><time>2026-05-01T09:49:13Z</time></trkpt><trkpt lat="43.29897510528084" lon="10.689250605514694"><ele>44.8</ele><time>2026-05-01T09:49:14Z</time></trkpt><trkpt lat="43.299047456175735" lon="10.689344256094465"><ele>44.6</ele><time>2026-05-01T09:49:15Z</time></trkpt><trkpt lat="43.29911649443243" lon="10.689447207745967"><ele>44.400000000000006</ele><time>2026-05-01T09:49:16Z</time></trkpt><trkpt lat="43.29917445671118" lon="10.689543828149363"><ele>44.2</ele><time>2026-05-01T09:49:17Z</time></trkpt><trkpt lat="43.2992260220469" lon="10.689639673784873"><ele>44.0</ele><time>2026-05-01T09:49:18Z</time></trkpt><trkpt lat="43.29927461927171" lon="10.689749185090445"><ele>44.0</ele><time>2026-05-01T09:49:19Z</time></trkpt><trkpt lat="43.299319672975585" lon="10.689868761464433"><ele>44.0</ele><time>2026-05-01T09:49:20Z</time></trkpt><trkpt lat="43.29936370006404" lon="10.690001908082598"><ele>44.0</ele><time>2026-05-01T09:49:21Z</time></trkpt><trkpt lat="43.29941725584484" lon="10.690150364362331"><ele>44.0</ele><time>2026-05-01T09:49:22Z</time></trkpt><trkpt lat="43.299457771530435" lon="10.690279386473415"><ele>44.0</ele><time>2026-05-01T09:49:23Z</time></trkpt><trkpt lat="43.29948686015072" lon="10.690378210327173"><ele>43.83333333333333</ele><time>2026-05-01T09:49:24Z</time></trkpt><trkpt lat="43.29952148570687" lon="10.69048232467158"><ele>43.666666666666664</ele><time>2026-05-01T09:49:25Z</time></trkpt><trkpt lat="43.29954919135721" lon="10.690572843619597"><ele>43.5</ele><time>2026-05-01T09:49:26Z</time></trkpt><trkpt lat="43.29957343439266" lon="10.690670980549656"><ele>43.333333333333336</ele><time>2026-05-01T09:49:27Z</time></trkpt><trkpt lat="43.29960050527761" lon="10.69076748852798"><ele>43.16666666666667</ele><time>2026-05-01T09:49:28Z</time></trkpt><trkpt lat="43.29962173666236" lon="10.690860821294702"><ele>43.0</ele><time>2026-05-01T09:49:29Z</time></trkpt><trkpt lat="43.29966595953609" lon="10.691024214218503"><ele>43.16666666666667</ele><time>2026-05-01T09:49:31Z</time></trkpt><trkpt lat="43.29969375560456" lon="10.691120797728964"><ele>43.333333333333336</ele><time>2026-05-01T09:49:32Z</time></trkpt><trkpt lat="43.29972533306252" lon="10.691227114763993"><ele>43.5</ele><time>2026-05-01T09:49:33Z</time></trkpt><trkpt lat="43.29975601871124" lon="10.691329050286727"><ele>43.666666666666664</ele><time>2026-05-01T09:49:34Z</time></trkpt><trkpt lat="43.299782669326014" lon="10.69142128068931"><ele>43.83333333333333</ele><time>2026-05-01T09:49:35Z</time></trkpt><trkpt lat="43.29980531489651" lon="10.691502105829068"><ele>44.0</ele><time>2026-05-01T09:49:36Z</time></trkpt><trkpt lat="43.299856080543265" lon="10.69166597403021"><ele>44.5</ele><time>2026-05-01T09:49:38Z</time></trkpt><trkpt lat="43.299884644073366" lon="10.691759377320974"><ele>45.0</ele><time>2026-05-01T09:49:39Z</time></trkpt><trkpt lat="43.29991739170005" lon="10.691860192507438"><ele>45.5</ele><time>2026-05-01T09:49:40Z</time></trkpt><trkpt lat="43.29995242086825" lon="10.691961856537578"><ele>46.0</ele><time>2026-05-01T09:49:41Z</time></trkpt><trkpt lat="43.299983623376114" lon="10.692064640835913"><ele>46.5</ele><time>2026-05-01T09:49:42Z</time></trkpt><trkpt lat="43.30000674672371" lon="10.692149402530168"><ele>47.0</ele><time>2026-05-01T09:49:43Z</time></trkpt><trkpt lat="43.30004714434436" lon="10.692317266490454"><ele>47.0</ele><time>2026-05-01T09:49:45Z</time></trkpt><trkpt lat="43.3000692088965" lon="10.692401429716652"><ele>47.0</ele><time>2026-05-01T09:49:46Z</time></trkpt><trkpt lat="43.30011023672968" lon="10.692516656447586"><ele>47.0</ele><time>2026-05-01T09:49:48Z</time></trkpt><trkpt lat="43.30011997780274" lon="10.692607139039774"><ele>47.0</ele><time>2026-05-01T09:50:36Z</time></trkpt><trkpt lat="43.30003050335346" lon="10.692724034451858"><ele>47.0</ele><time>2026-05-01T09:50:38Z</time></trkpt><trkpt lat="43.29994407210341" lon="10.692789946547107"><ele>47.0</ele><time>2026-05-01T09:50:39Z</time></trkpt><trkpt lat="43.29985094959426" lon="10.692885418962701"><ele>46.8</ele><time>2026-05-01T09:50:40Z</time></trkpt><trkpt lat="43.2997510766307" lon="10.69298035994141"><ele>46.6</ele><time>2026-05-01T09:50:41Z</time></trkpt><trkpt lat="43.29965425838151" lon="10.69307128138714"><ele>46.4</ele><time>2026-05-01T09:50:42Z</time></trkpt><trkpt lat="43.29956696744645" lon="10.693147879727189"><ele>46.199999999999996</ele><time>2026-05-01T09:50:43Z</time></trkpt><trkpt lat="43.29948101216468" lon="10.693224182150324"><ele>46.0</ele><time>2026-05-01T09:50:44Z</time></trkpt><trkpt lat="43.2993939368073" lon="10.693303947077903"><ele>46.0</ele><time>2026-05-01T09:50:45Z</time></trkpt><trkpt lat="43.29930806307128" lon="10.693384136938871"><ele>46.0</ele><time>2026-05-01T09:50:46Z</time></trkpt><trkpt lat="43.299224525030915" lon="10.693456632469498"><ele>46.0</ele><time>2026-05-01T09:50:47Z</time></trkpt><trkpt lat="43.29914350452199" lon="10.693521299436679"><ele>46.0</ele><time>2026-05-01T09:50:48Z</time></trkpt><trkpt lat="43.2990628153577" lon="10.693593633859926"><ele>46.0</ele><time>2026-05-01T09:50:49Z</time></trkpt><trkpt lat="43.29897743212146" lon="10.693673969367271"><ele>46.0</ele><time>2026-05-01T09:50:50Z</time></trkpt><trkpt lat="43.29888827861522" lon="10.69375536571227"><ele>46.0</ele><time>2026-05-01T09:50:51Z</time></trkpt><trkpt lat="43.29880535163208" lon="10.693829687624863"><ele>46.0</ele><time>2026-05-01T09:50:52Z</time></trkpt><trkpt lat="43.298724234646976" lon="10.693903716032372"><ele>46.0</ele><time>2026-05-01T09:50:53Z</time></trkpt><trkpt lat="43.29863826663014" lon="10.693980922366682"><ele>46.0</ele><time>2026-05-01T09:50:54Z</time></trkpt><trkpt lat="43.298544394202956" lon="10.694061682984657"><ele>46.0</ele><time>2026-05-01T09:50:55Z</time></trkpt><trkpt lat="43.29844010728584" lon="10.694153747578225"><ele>46.0</ele><time>2026-05-01T09:50:56Z</time></trkpt><trkpt lat="43.29832767751699" lon="10.694254418003652"><ele>46.0</ele><time>2026-05-01T09:50:57Z</time></trkpt><trkpt lat="43.298223345363375" lon="10.694347009731173"><ele>46.0</ele><time>2026-05-01T09:50:58Z</time></trkpt><trkpt lat="43.29811910463634" lon="10.694439620982047"><ele>47.0</ele><time>2026-05-01T09:50:59Z</time></trkpt><trkpt lat="43.29801484953569" lon="10.694533943663139"><ele>48.0</ele><time>2026-05-01T09:51:00Z</time></trkpt><trkpt lat="43.297909729535846" lon="10.694630079642284"><ele>49.0</ele><time>2026-05-01T09:51:01Z</time></trkpt><trkpt lat="43.29780210903465" lon="10.694726864219252"><ele>50.0</ele><time>2026-05-01T09:51:02Z</time></trkpt><trkpt lat="43.29769367063685" lon="10.6948259095131"><ele>50.0</ele><time>2026-05-01T09:51:03Z</time></trkpt><trkpt lat="43.297587062439085" lon="10.694921551792275"><ele>50.0</ele><time>2026-05-01T09:51:04Z</time></trkpt><trkpt lat="43.2974782931331" lon="10.69501806533577"><ele>50.0</ele><time>2026-05-01T09:51:05Z</time></trkpt><trkpt lat="43.2973665150241" lon="10.695116870308471"><ele>50.0</ele><time>2026-05-01T09:51:06Z</time></trkpt><trkpt lat="43.297255109339055" lon="10.695221448617136"><ele>50.0</ele><time>2026-05-01T09:51:07Z</time></trkpt><trkpt lat="43.29714621734832" lon="10.695321084510008"><ele>50.0</ele><time>2026-05-01T09:51:08Z</time></trkpt><trkpt lat="43.297038046802264" lon="10.695421177723693"><ele>50.0</ele><time>2026-05-01T09:51:09Z</time></trkpt><trkpt lat="43.29693233861795" lon="10.69551478028943"><ele>50.0</ele><time>2026-05-01T09:51:10Z</time></trkpt><trkpt lat="43.29682498593267" lon="10.695614411947727"><ele>50.0</ele><time>2026-05-01T09:51:11Z</time></trkpt><trkpt lat="43.29671366837192" lon="10.695714177850688"><ele>50.0</ele><time>2026-05-01T09:51:12Z</time></trkpt><trkpt lat="43.2965937323609" lon="10.695819855889756"><ele>50.0</ele><time>2026-05-01T09:51:13Z</time></trkpt><trkpt lat="43.29647556983239" lon="10.695927203018474"><ele>50.0</ele><time>2026-05-01T09:51:14Z</time></trkpt><trkpt lat="43.29636011898608" lon="10.696034470187561"><ele>50.5</ele><time>2026-05-01T09:51:15Z</time></trkpt><trkpt lat="43.296240779027315" lon="10.696138065321723"><ele>51.0</ele><time>2026-05-01T09:51:16Z</time></trkpt><trkpt lat="43.296119794352755" lon="10.696247343192013"><ele>51.5</ele><time>2026-05-01T09:51:17Z</time></trkpt><trkpt lat="43.295999032631876" lon="10.69635360874026"><ele>52.0</ele><time>2026-05-01T09:51:18Z</time></trkpt><trkpt lat="43.29587688962819" lon="10.696466335521958"><ele>52.0</ele><time>2026-05-01T09:51:19Z</time></trkpt><trkpt lat="43.29574747451062" lon="10.69658581815274"><ele>52.0</ele><time>2026-05-01T09:51:20Z</time></trkpt><trkpt lat="43.29560656892633" lon="10.696714797487962"><ele>52.0</ele><time>2026-05-01T09:51:21Z</time></trkpt><trkpt lat="43.295472029011385" lon="10.696834305612335"><ele>51.666666666666664</ele><time>2026-05-01T09:51:22Z</time></trkpt><trkpt lat="43.295345822114434" lon="10.696952897167385"><ele>51.33333333333333</ele><time>2026-05-01T09:51:23Z</time></trkpt><trkpt lat="43.295215064590145" lon="10.697075159782996"><ele>51.0</ele><time>2026-05-01T09:51:24Z</time></trkpt><trkpt lat="43.29508103434801" lon="10.697197596648245"><ele>51.0</ele><time>2026-05-01T09:51:25Z</time></trkpt><trkpt lat="43.294950014454415" lon="10.697313643289737"><ele>51.0</ele><time>2026-05-01T09:51:26Z</time></trkpt><trkpt lat="43.29482473045734" lon="10.697419984126533"><ele>51.0</ele><time>2026-05-01T09:51:27Z</time></trkpt><trkpt lat="43.29470605749753" lon="10.697529346130635"><ele>51.0</ele><time>2026-05-01T09:51:28Z</time></trkpt><trkpt lat="43.29458031922189" lon="10.697648624642575"><ele>51.0</ele><time>2026-05-01T09:51:29Z</time></trkpt><trkpt lat="43.29445896144799" lon="10.697770721697717"><ele>51.0</ele><time>2026-05-01T09:51:30Z</time></trkpt><trkpt lat="43.29433023028263" lon="10.697883473954601"><ele>51.0</ele><time>2026-05-01T09:51:31Z</time></trkpt><trkpt lat="43.29420790607232" lon="10.697991001474579"><ele>51.0</ele><time>2026-05-01T09:51:32Z</time></trkpt><trkpt lat="43.29408945390466" lon="10.698096967079547"><ele>51.0</ele><time>2026-05-01T09:51:33Z</time></trkpt><trkpt lat="43.29396736103833" lon="10.698201400218622"><ele>51.0</ele><time>2026-05-01T09:51:34Z</time></trkpt><trkpt lat="43.29383445489017" lon="10.698291064172087"><ele>51.0</ele><time>2026-05-01T09:51:35Z</time></trkpt><trkpt lat="43.293701403881386" lon="10.698370618777117"><ele>51.0</ele><time>2026-05-01T09:51:36Z</time></trkpt><trkpt lat="43.29356517529552" lon="10.698444840000397"><ele>51.0</ele><time>2026-05-01T09:51:37Z</time></trkpt><trkpt lat="43.29342268059594" lon="10.69851333464768"><ele>51.0</ele><time>2026-05-01T09:51:38Z</time></trkpt><trkpt lat="43.293283999194976" lon="10.698573945127382"><ele>51.0</ele><time>2026-05-01T09:51:39Z</time></trkpt><trkpt lat="43.29314525336066" lon="10.698632806681115"><ele>51.0</ele><time>2026-05-01T09:51:40Z</time></trkpt><trkpt lat="43.29300768584098" lon="10.698696241715657"><ele>52.75</ele><time>2026-05-01T09:51:41Z</time></trkpt><trkpt lat="43.29286871431339" lon="10.698761917456615"><ele>54.5</ele><time>2026-05-01T09:51:42Z</time></trkpt><trkpt lat="43.292728585546115" lon="10.698827207084735"><ele>56.25</ele><time>2026-05-01T09:51:43Z</time></trkpt><trkpt lat="43.292588767567814" lon="10.698892677461139"><ele>58.0</ele><time>2026-05-01T09:51:44Z</time></trkpt><trkpt lat="43.29244632136338" lon="10.698956147917784"><ele>58.0</ele><time>2026-05-01T09:51:45Z</time></trkpt><trkpt lat="43.292302833380425" lon="10.699021230511374"><ele>58.0</ele><time>2026-05-01T09:51:46Z</time></trkpt><trkpt lat="43.29215665330213" lon="10.699086953172287"><ele>58.0</ele><time>2026-05-01T09:51:47Z</time></trkpt><trkpt lat="43.29200746682127" lon="10.699150155965059"><ele>56.0</ele><time>2026-05-01T09:51:48Z</time></trkpt><trkpt lat="43.291859215669355" lon="10.699208844628613"><ele>54.0</ele><time>2026-05-01T09:51:49Z</time></trkpt><trkpt lat="43.29170709190681" lon="10.699245902109528"><ele>52.0</ele><time>2026-05-01T09:51:50Z</time></trkpt><trkpt lat="43.291558614129414" lon="10.699266264190754"><ele>51.5</ele><time>2026-05-01T09:51:51Z</time></trkpt><trkpt lat="43.2914092907503" lon="10.699273740020098"><ele>51.0</ele><time>2026-05-01T09:51:52Z</time></trkpt><trkpt lat="43.29126524453305" lon="10.699275497397227"><ele>50.5</ele><time>2026-05-01T09:51:53Z</time></trkpt><trkpt lat="43.29112319873745" lon="10.699262654643146"><ele>50.0</ele><time>2026-05-01T09:51:54Z</time></trkpt><trkpt lat="43.29098160432077" lon="10.699248161151475"><ele>50.0</ele><time>2026-05-01T09:51:55Z</time></trkpt><trkpt lat="43.290837294767215" lon="10.699242584445928"><ele>50.0</ele><time>2026-05-01T09:51:56Z</time></trkpt><trkpt lat="43.29068704968448" lon="10.69923915254655"><ele>50.0</ele><time>2026-05-01T09:51:57Z</time></trkpt><trkpt lat="43.290539727671344" lon="10.699229267372491"><ele>50.0</ele><time>2026-05-01T09:51:58Z</time></trkpt><trkpt lat="43.29039142976467" lon="10.699216751763247"><ele>51.0</ele><time>2026-05-01T09:51:59Z</time></trkpt><trkpt lat="43.29024139612096" lon="10.699207797999765"><ele>52.0</ele><time>2026-05-01T09:52:00Z</time></trkpt><trkpt lat="43.29009091689057" lon="10.699199633850059"><ele>53.0</ele><time>2026-05-01T09:52:01Z</time></trkpt><trkpt lat="43.289939237289666" lon="10.699189456027348"><ele>53.0</ele><time>2026-05-01T09:52:02Z</time></trkpt><trkpt lat="43.28978714755984" lon="10.699178813068563"><ele>53.0</ele><time>2026-05-01T09:52:03Z</time></trkpt><trkpt lat="43.2896353859949" lon="10.699167801425805"><ele>53.0</ele><time>2026-05-01T09:52:04Z</time></trkpt><trkpt lat="43.2894847251268" lon="10.699158638378501"><ele>53.5</ele><time>2026-05-01T09:52:05Z</time></trkpt><trkpt lat="43.28933582490613" lon="10.699152777470974"><ele>54.0</ele><time>2026-05-01T09:52:06Z</time></trkpt><trkpt lat="43.28918873902324" lon="10.699143586015047"><ele>54.5</ele><time>2026-05-01T09:52:07Z</time></trkpt><trkpt lat="43.28904281531233" lon="10.699132860659121"><ele>55.0</ele><time>2026-05-01T09:52:08Z</time></trkpt><trkpt lat="43.288900988144825" lon="10.699123908889097"><ele>55.5</ele><time>2026-05-01T09:52:09Z</time></trkpt><trkpt lat="43.28875872316099" lon="10.699114636003568"><ele>56.0</ele><time>2026-05-01T09:52:10Z</time></trkpt><trkpt lat="43.28861613609793" lon="10.69910369647207"><ele>56.5</ele><time>2026-05-01T09:52:11Z</time></trkpt><trkpt lat="43.28846622343733" lon="10.699096004408908"><ele>57.0</ele><time>2026-05-01T09:52:12Z</time></trkpt><trkpt lat="43.28831853651209" lon="10.699083978262735"><ele>57.0</ele><time>2026-05-01T09:52:13Z</time></trkpt><trkpt lat="43.28816971202858" lon="10.699072990652029"><ele>57.0</ele><time>2026-05-01T09:52:14Z</time></trkpt><trkpt lat="43.288023582909" lon="10.699063922091195"><ele>57.0</ele><time>2026-05-01T09:52:15Z</time></trkpt><trkpt lat="43.28787803932441" lon="10.699057740400823"><ele>57.0</ele><time>2026-05-01T09:52:16Z</time></trkpt><trkpt lat="43.28773631090743" lon="10.699061959152665"><ele>57.0</ele><time>2026-05-01T09:52:17Z</time></trkpt><trkpt lat="43.287594731330614" lon="10.699076506965302"><ele>57.0</ele><time>2026-05-01T09:52:18Z</time></trkpt><trkpt lat="43.287456410954995" lon="10.699102892440544"><ele>57.0</ele><time>2026-05-01T09:52:19Z</time></trkpt><trkpt lat="43.28731397618808" lon="10.699144366784411"><ele>57.0</ele><time>2026-05-01T09:52:20Z</time></trkpt><trkpt lat="43.28717384756033" lon="10.699191214509522"><ele>56.75</ele><time>2026-05-01T09:52:21Z</time></trkpt><trkpt lat="43.28703161271563" lon="10.699238932927885"><ele>56.5</ele><time>2026-05-01T09:52:22Z</time></trkpt><trkpt lat="43.28688951316896" lon="10.699296566256491"><ele>56.25</ele><time>2026-05-01T09:52:23Z</time></trkpt><trkpt lat="43.286750596638406" lon="10.69937056625703"><ele>56.0</ele><time>2026-05-01T09:52:24Z</time></trkpt><trkpt lat="43.28660956802826" lon="10.699455069550337"><ele>56.66666666666667</ele><time>2026-05-01T09:52:25Z</time></trkpt><trkpt lat="43.286467428016046" lon="10.699553227126154"><ele>57.33333333333333</ele><time>2026-05-01T09:52:26Z</time></trkpt><trkpt lat="43.286323721875746" lon="10.699646919708485"><ele>58.0</ele><time>2026-05-01T09:52:27Z</time></trkpt><trkpt lat="43.286178037931705" lon="10.699743691469434"><ele>58.0</ele><time>2026-05-01T09:52:28Z</time></trkpt><trkpt lat="43.286032406273534" lon="10.699840944160394"><ele>58.0</ele><time>2026-05-01T09:52:29Z</time></trkpt><trkpt lat="43.28588605738352" lon="10.69993642402116"><ele>58.0</ele><time>2026-05-01T09:52:30Z</time></trkpt><trkpt lat="43.28574087389867" lon="10.700032105500211"><ele>58.0</ele><time>2026-05-01T09:52:31Z</time></trkpt><trkpt lat="43.28559748479575" lon="10.700131238456533"><ele>58.0</ele><time>2026-05-01T09:52:32Z</time></trkpt><trkpt lat="43.285454110813106" lon="10.700232241864727"><ele>58.0</ele><time>2026-05-01T09:52:33Z</time></trkpt><trkpt lat="43.28531101901003" lon="10.700330162305772"><ele>58.0</ele><time>2026-05-01T09:52:34Z</time></trkpt><trkpt lat="43.2851674060628" lon="10.700425659181976"><ele>58.0</ele><time>2026-05-01T09:52:35Z</time></trkpt><trkpt lat="43.28502417370045" lon="10.700521038477863"><ele>58.0</ele><time>2026-05-01T09:52:36Z</time></trkpt><trkpt lat="43.28488265813849" lon="10.700616662620124"><ele>57.33333333333333</ele><time>2026-05-01T09:52:37Z</time></trkpt><trkpt lat="43.284741645679276" lon="10.700713491079567"><ele>56.66666666666667</ele><time>2026-05-01T09:52:38Z</time></trkpt><trkpt lat="43.28460268836308" lon="10.700808566046172"><ele>56.0</ele><time>2026-05-01T09:52:39Z</time></trkpt><trkpt lat="43.284465517102724" lon="10.70090148304573"><ele>56.0</ele><time>2026-05-01T09:52:40Z</time></trkpt><trkpt lat="43.28432919964002" lon="10.700993916688718"><ele>56.0</ele><time>2026-05-01T09:52:41Z</time></trkpt><trkpt lat="43.28419705208981" lon="10.70108316169505"><ele>56.0</ele><time>2026-05-01T09:52:42Z</time></trkpt><trkpt lat="43.28406993036639" lon="10.701165626056902"><ele>56.0</ele><time>2026-05-01T09:52:43Z</time></trkpt><trkpt lat="43.283943465864894" lon="10.701250448735909"><ele>56.75</ele><time>2026-05-01T09:52:44Z</time></trkpt><trkpt lat="43.28381560762592" lon="10.701336990766817"><ele>57.5</ele><time>2026-05-01T09:52:45Z</time></trkpt><trkpt lat="43.28368501482355" lon="10.701425854247393"><ele>58.25</ele><time>2026-05-01T09:52:46Z</time></trkpt><trkpt lat="43.28355019976197" lon="10.701510345100859"><ele>59.0</ele><time>2026-05-01T09:52:47Z</time></trkpt><trkpt lat="43.28341022061043" lon="10.701599979738257"><ele>59.0</ele><time>2026-05-01T09:52:48Z</time></trkpt><trkpt lat="43.28327361438346" lon="10.701694340999648"><ele>59.0</ele><time>2026-05-01T09:52:49Z</time></trkpt><trkpt lat="43.28314325286367" lon="10.701782394084287"><ele>59.0</ele><time>2026-05-01T09:52:50Z</time></trkpt><trkpt lat="43.28301908847827" lon="10.7018706863046"><ele>59.0</ele><time>2026-05-01T09:52:51Z</time></trkpt><trkpt lat="43.28289724484901" lon="10.701972742673368"><ele>60.25</ele><time>2026-05-01T09:52:52Z</time></trkpt><trkpt lat="43.28277504356912" lon="10.702086189573427"><ele>61.5</ele><time>2026-05-01T09:52:53Z</time></trkpt><trkpt lat="43.28265824980031" lon="10.702206943696597"><ele>62.75</ele><time>2026-05-01T09:52:54Z</time></trkpt><trkpt lat="43.28254706508903" lon="10.702338514136963"><ele>64.0</ele><time>2026-05-01T09:52:55Z</time></trkpt><trkpt lat="43.2824391395218" lon="10.702477726009464"><ele>64.0</ele><time>2026-05-01T09:52:56Z</time></trkpt><trkpt lat="43.282330708949495" lon="10.702614673473722"><ele>64.0</ele><time>2026-05-01T09:52:57Z</time></trkpt><trkpt lat="43.28222258464023" lon="10.70274895462089"><ele>64.0</ele><time>2026-05-01T09:52:58Z</time></trkpt><trkpt lat="43.282114253583536" lon="10.70288298874836"><ele>64.0</ele><time>2026-05-01T09:52:59Z</time></trkpt><trkpt lat="43.28200728688538" lon="10.703021961479996"><ele>62.75</ele><time>2026-05-01T09:53:00Z</time></trkpt><trkpt lat="43.28189678434826" lon="10.703157643709257"><ele>61.5</ele><time>2026-05-01T09:53:01Z</time></trkpt><trkpt lat="43.28178751450755" lon="10.70329545152521"><ele>60.25</ele><time>2026-05-01T09:53:02Z</time></trkpt><trkpt lat="43.28167736625128" lon="10.703436138910305"><ele>59.0</ele><time>2026-05-01T09:53:03Z</time></trkpt><trkpt lat="43.28156367110831" lon="10.70357254524412"><ele>59.66666666666667</ele><time>2026-05-01T09:53:04Z</time></trkpt><trkpt lat="43.2814495891307" lon="10.703707088469132"><ele>60.33333333333333</ele><time>2026-05-01T09:53:05Z</time></trkpt><trkpt lat="43.28133833775149" lon="10.703846692552961"><ele>61.0</ele><time>2026-05-01T09:53:06Z</time></trkpt><trkpt lat="43.2812292672217" lon="10.70399056300609"><ele>61.0</ele><time>2026-05-01T09:53:07Z</time></trkpt><trkpt lat="43.28111847815332" lon="10.704130159663363"><ele>61.0</ele><time>2026-05-01T09:53:08Z</time></trkpt><trkpt lat="43.281001254072606" lon="10.704267227297079"><ele>61.0</ele><time>2026-05-01T09:53:09Z</time></trkpt><trkpt lat="43.2808730039157" lon="10.70441151103417"><ele>63.0</ele><time>2026-05-01T09:53:10Z</time></trkpt><trkpt lat="43.28073264041112" lon="10.704545874992329"><ele>65.0</ele><time>2026-05-01T09:53:11Z</time></trkpt><trkpt lat="43.2805868319785" lon="10.704663777554885"><ele>67.0</ele><time>2026-05-01T09:53:12Z</time></trkpt><trkpt lat="43.28044402375533" lon="10.704764099443393"><ele>67.0</ele><time>2026-05-01T09:53:13Z</time></trkpt><trkpt lat="43.28030012308552" lon="10.704847389947615"><ele>67.0</ele><time>2026-05-01T09:53:14Z</time></trkpt><trkpt lat="43.28015824875227" lon="10.704918904323343"><ele>67.0</ele><time>2026-05-01T09:53:15Z</time></trkpt><trkpt lat="43.28001697695043" lon="10.704995805876871"><ele>67.0</ele><time>2026-05-01T09:53:16Z</time></trkpt><trkpt lat="43.279875102387436" lon="10.705077710309265"><ele>67.0</ele><time>2026-05-01T09:53:17Z</time></trkpt><trkpt lat="43.2797281280151" lon="10.705153792183008"><ele>67.0</ele><time>2026-05-01T09:53:18Z</time></trkpt><trkpt lat="43.27958342445395" lon="10.705230544083252"><ele>67.75</ele><time>2026-05-01T09:53:19Z</time></trkpt><trkpt lat="43.27944085972454" lon="10.705309427886377"><ele>68.5</ele><time>2026-05-01T09:53:20Z</time></trkpt><trkpt lat="43.27930804562354" lon="10.7053845172325"><ele>69.25</ele><time>2026-05-01T09:53:21Z</time></trkpt><trkpt lat="43.27918104424619" lon="10.705455442865658"><ele>70.0</ele><time>2026-05-01T09:53:22Z</time></trkpt><trkpt lat="43.27905114668695" lon="10.705525522491053"><ele>68.5</ele><time>2026-05-01T09:53:23Z</time></trkpt><trkpt lat="43.278922797559524" lon="10.705593773061105"><ele>67.0</ele><time>2026-05-01T09:53:24Z</time></trkpt><trkpt lat="43.278788889531974" lon="10.70566265642222"><ele>65.5</ele><time>2026-05-01T09:53:25Z</time></trkpt><trkpt lat="43.278655775770616" lon="10.705732187800542"><ele>64.0</ele><time>2026-05-01T09:53:26Z</time></trkpt><trkpt lat="43.27851878253378" lon="10.705791232738973"><ele>64.0</ele><time>2026-05-01T09:53:27Z</time></trkpt><trkpt lat="43.27838474564236" lon="10.705831526627849"><ele>64.0</ele><time>2026-05-01T09:53:28Z</time></trkpt><trkpt lat="43.278241656886735" lon="10.705854185525432"><ele>64.0</ele><time>2026-05-01T09:53:29Z</time></trkpt><trkpt lat="43.27809311541735" lon="10.705859801202974"><ele>64.0</ele><time>2026-05-01T09:53:30Z</time></trkpt><trkpt lat="43.277943121765354" lon="10.705843383416813"><ele>64.0</ele><time>2026-05-01T09:53:31Z</time></trkpt><trkpt lat="43.27777970017477" lon="10.705820607889223"><ele>64.0</ele><time>2026-05-01T09:53:32Z</time></trkpt><trkpt lat="43.27762883676654" lon="10.705783529068848"><ele>64.0</ele><time>2026-05-01T09:53:33Z</time></trkpt><trkpt lat="43.27747562360964" lon="10.70574315555685"><ele>64.0</ele><time>2026-05-01T09:53:34Z</time></trkpt><trkpt lat="43.277329669618524" lon="10.705707347513652"><ele>64.0</ele><time>2026-05-01T09:53:35Z</time></trkpt><trkpt lat="43.27718227765628" lon="10.70566276276354"><ele>64.0</ele><time>2026-05-01T09:53:36Z</time></trkpt><trkpt lat="43.277036283548796" lon="10.70562179480241"><ele>64.0</ele><time>2026-05-01T09:53:37Z</time></trkpt><trkpt lat="43.27689197596053" lon="10.705584079376827"><ele>64.25</ele><time>2026-05-01T09:53:38Z</time></trkpt><trkpt lat="43.276748926556344" lon="10.7055450337127"><ele>64.5</ele><time>2026-05-01T09:53:39Z</time></trkpt><trkpt lat="43.27660328643067" lon="10.705508160618422"><ele>64.75</ele><time>2026-05-01T09:53:40Z</time></trkpt><trkpt lat="43.276458011628826" lon="10.705470328966506"><ele>65.0</ele><time>2026-05-01T09:53:41Z</time></trkpt><trkpt lat="43.27630956341551" lon="10.705431135608377"><ele>68.25</ele><time>2026-05-01T09:53:42Z</time></trkpt><trkpt lat="43.27616334078456" lon="10.705386748204843"><ele>71.5</ele><time>2026-05-01T09:53:43Z</time></trkpt><trkpt lat="43.27601831391302" lon="10.705348105733052"><ele>74.75</ele><time>2026-05-01T09:53:44Z</time></trkpt><trkpt lat="43.27587338632072" lon="10.705310493970087"><ele>78.0</ele><time>2026-05-01T09:53:45Z</time></trkpt><trkpt lat="43.275731028788364" lon="10.705275137248979"><ele>74.0</ele><time>2026-05-01T09:53:46Z</time></trkpt><trkpt lat="43.27558587483046" lon="10.70524136379846"><ele>70.0</ele><time>2026-05-01T09:53:47Z</time></trkpt><trkpt lat="43.275440529936176" lon="10.705197623942592"><ele>66.0</ele><time>2026-05-01T09:53:48Z</time></trkpt><trkpt lat="43.27530012049957" lon="10.705155155572136"><ele>62.0</ele><time>2026-05-01T09:53:49Z</time></trkpt><trkpt lat="43.27514575286395" lon="10.70512024331262"><ele>62.0</ele><time>2026-05-01T09:53:50Z</time></trkpt><trkpt lat="43.275005905692325" lon="10.705080729369291"><ele>62.0</ele><time>2026-05-01T09:53:51Z</time></trkpt><trkpt lat="43.27486554654103" lon="10.70504243558048"><ele>62.0</ele><time>2026-05-01T09:53:52Z</time></trkpt><trkpt lat="43.274725837201025" lon="10.705000231715186"><ele>62.0</ele><time>2026-05-01T09:53:53Z</time></trkpt><trkpt lat="43.27458419615885" lon="10.704963222431548"><ele>63.25</ele><time>2026-05-01T09:53:54Z</time></trkpt><trkpt lat="43.27444282700874" lon="10.704926218864198"><ele>64.5</ele><time>2026-05-01T09:53:55Z</time></trkpt><trkpt lat="43.274299329600574" lon="10.704890350848341"><ele>65.75</ele><time>2026-05-01T09:53:56Z</time></trkpt><trkpt lat="43.27415519345674" lon="10.704854003849993"><ele>67.0</ele><time>2026-05-01T09:53:57Z</time></trkpt><trkpt lat="43.274011152439215" lon="10.70482661632327"><ele>67.25</ele><time>2026-05-01T09:53:58Z</time></trkpt><trkpt lat="43.27386595533073" lon="10.704803431741903"><ele>67.5</ele><time>2026-05-01T09:53:59Z</time></trkpt><trkpt lat="43.273720155434845" lon="10.704796386609779"><ele>67.75</ele><time>2026-05-01T09:54:00Z</time></trkpt><trkpt lat="43.27357150797263" lon="10.704809619712103"><ele>68.0</ele><time>2026-05-01T09:54:01Z</time></trkpt><trkpt lat="43.27342562541484" lon="10.704837641544437"><ele>68.0</ele><time>2026-05-01T09:54:02Z</time></trkpt><trkpt lat="43.27327954330124" lon="10.704880841178849"><ele>68.0</ele><time>2026-05-01T09:54:03Z</time></trkpt><trkpt lat="43.27313461119753" lon="10.704926576458531"><ele>68.0</ele><time>2026-05-01T09:54:04Z</time></trkpt><trkpt lat="43.272989316714046" lon="10.704974851462044"><ele>68.0</ele><time>2026-05-01T09:54:05Z</time></trkpt><trkpt lat="43.27285165058855" lon="10.705024757291886"><ele>67.0</ele><time>2026-05-01T09:54:06Z</time></trkpt><trkpt lat="43.27271036240519" lon="10.705080555252797"><ele>66.0</ele><time>2026-05-01T09:54:07Z</time></trkpt><trkpt lat="43.27257209093121" lon="10.705132963292277"><ele>65.0</ele><time>2026-05-01T09:54:08Z</time></trkpt><trkpt lat="43.27244205728816" lon="10.705177841689869"><ele>64.0</ele><time>2026-05-01T09:54:09Z</time></trkpt><trkpt lat="43.27232620154018" lon="10.705221097361457"><ele>63.75</ele><time>2026-05-01T09:54:10Z</time></trkpt><trkpt lat="43.27220327445652" lon="10.705268120917506"><ele>63.5</ele><time>2026-05-01T09:54:11Z</time></trkpt><trkpt lat="43.272078137324286" lon="10.705315947441218"><ele>63.25</ele><time>2026-05-01T09:54:12Z</time></trkpt><trkpt lat="43.27195040945369" lon="10.705360955298994"><ele>63.0</ele><time>2026-05-01T09:54:13Z</time></trkpt><trkpt lat="43.27181754636507" lon="10.705408546375208"><ele>63.0</ele><time>2026-05-01T09:54:14Z</time></trkpt><trkpt lat="43.271683892991156" lon="10.705451797040151"><ele>63.0</ele><time>2026-05-01T09:54:15Z</time></trkpt><trkpt lat="43.271546382124775" lon="10.705496073825909"><ele>63.0</ele><time>2026-05-01T09:54:16Z</time></trkpt><trkpt lat="43.27140614112802" lon="10.705542495200369"><ele>63.0</ele><time>2026-05-01T09:54:17Z</time></trkpt><trkpt lat="43.27126399485431" lon="10.705593654448323"><ele>63.0</ele><time>2026-05-01T09:54:18Z</time></trkpt><trkpt lat="43.27111971689918" lon="10.70564858117396"><ele>63.0</ele><time>2026-05-01T09:54:19Z</time></trkpt><trkpt lat="43.270971627155916" lon="10.705698052408911"><ele>63.0</ele><time>2026-05-01T09:54:20Z</time></trkpt><trkpt lat="43.270824045475784" lon="10.705751675679414"><ele>63.0</ele><time>2026-05-01T09:54:21Z</time></trkpt><trkpt lat="43.27067482178061" lon="10.705805608239029"><ele>63.0</ele><time>2026-05-01T09:54:22Z</time></trkpt><trkpt lat="43.27053370922902" lon="10.70585279785886"><ele>63.0</ele><time>2026-05-01T09:54:23Z</time></trkpt><trkpt lat="43.27040027863773" lon="10.705902174026736"><ele>63.0</ele><time>2026-05-01T09:54:24Z</time></trkpt><trkpt lat="43.2702635723093" lon="10.70595099045041"><ele>63.0</ele><time>2026-05-01T09:54:25Z</time></trkpt><trkpt lat="43.27012814129428" lon="10.706001845273812"><ele>63.0</ele><time>2026-05-01T09:54:26Z</time></trkpt><trkpt lat="43.269989352848164" lon="10.706050302117136"><ele>63.0</ele><time>2026-05-01T09:54:27Z</time></trkpt><trkpt lat="43.26984883792672" lon="10.706102515086657"><ele>63.0</ele><time>2026-05-01T09:54:28Z</time></trkpt><trkpt lat="43.26970616798068" lon="10.70615546697132"><ele>63.0</ele><time>2026-05-01T09:54:29Z</time></trkpt><trkpt lat="43.26956029905026" lon="10.706203378139504"><ele>63.0</ele><time>2026-05-01T09:54:30Z</time></trkpt><trkpt lat="43.26941275318087" lon="10.706254137990104"><ele>63.0</ele><time>2026-05-01T09:54:31Z</time></trkpt><trkpt lat="43.26926865549717" lon="10.706307818262802"><ele>63.0</ele><time>2026-05-01T09:54:32Z</time></trkpt><trkpt lat="43.2691300366514" lon="10.706357832151795"><ele>63.0</ele><time>2026-05-01T09:54:33Z</time></trkpt><trkpt lat="43.26900180452085" lon="10.70640305838244"><ele>63.0</ele><time>2026-05-01T09:54:34Z</time></trkpt><trkpt lat="43.268875592034604" lon="10.706449763331975"><ele>63.0</ele><time>2026-05-01T09:54:35Z</time></trkpt><trkpt lat="43.26875983087108" lon="10.706493080973578"><ele>63.75</ele><time>2026-05-01T09:54:36Z</time></trkpt><trkpt lat="43.268643691447146" lon="10.706532924810194"><ele>64.5</ele><time>2026-05-01T09:54:37Z</time></trkpt><trkpt lat="43.26852237189007" lon="10.706578294465471"><ele>65.25</ele><time>2026-05-01T09:54:38Z</time></trkpt><trkpt lat="43.26840390819387" lon="10.706622210308096"><ele>66.0</ele><time>2026-05-01T09:54:39Z</time></trkpt><trkpt lat="43.268292751998175" lon="10.706661019171884"><ele>66.0</ele><time>2026-05-01T09:54:40Z</time></trkpt><trkpt lat="43.26817977244073" lon="10.706707557346173"><ele>66.0</ele><time>2026-05-01T09:54:41Z</time></trkpt><trkpt lat="43.2680620067681" lon="10.706753065490199"><ele>66.0</ele><time>2026-05-01T09:54:42Z</time></trkpt><trkpt lat="43.26794020854192" lon="10.706787117834402"><ele>66.0</ele><time>2026-05-01T09:54:43Z</time></trkpt><trkpt lat="43.267815092965684" lon="10.706822440625158"><ele>66.0</ele><time>2026-05-01T09:54:44Z</time></trkpt><trkpt lat="43.2676950955046" lon="10.706852529726664"><ele>66.0</ele><time>2026-05-01T09:54:45Z</time></trkpt><trkpt lat="43.26757309928961" lon="10.706875420393075"><ele>66.0</ele><time>2026-05-01T09:54:46Z</time></trkpt><trkpt lat="43.26744745659476" lon="10.70688460445563"><ele>66.0</ele><time>2026-05-01T09:54:47Z</time></trkpt><trkpt lat="43.26731775571146" lon="10.70687774712332"><ele>66.5</ele><time>2026-05-01T09:54:48Z</time></trkpt><trkpt lat="43.267181014923096" lon="10.706866826484626"><ele>67.0</ele><time>2026-05-01T09:54:49Z</time></trkpt><trkpt lat="43.26704159104065" lon="10.706854212619685"><ele>67.5</ele><time>2026-05-01T09:54:50Z</time></trkpt><trkpt lat="43.26689839735796" lon="10.706838557983382"><ele>68.0</ele><time>2026-05-01T09:54:51Z</time></trkpt><trkpt lat="43.26675546811649" lon="10.706821520532682"><ele>68.0</ele><time>2026-05-01T09:54:52Z</time></trkpt><trkpt lat="43.26660871351887" lon="10.706803726277883"><ele>68.0</ele><time>2026-05-01T09:54:53Z</time></trkpt><trkpt lat="43.26645847386927" lon="10.706782683340512"><ele>68.0</ele><time>2026-05-01T09:54:54Z</time></trkpt><trkpt lat="43.26630773981174" lon="10.70676283683279"><ele>68.5</ele><time>2026-05-01T09:54:55Z</time></trkpt><trkpt lat="43.26615631093836" lon="10.706744283082438"><ele>69.0</ele><time>2026-05-01T09:54:56Z</time></trkpt><trkpt lat="43.2660075756713" lon="10.706725734978066"><ele>69.5</ele><time>2026-05-01T09:54:57Z</time></trkpt><trkpt lat="43.265864400133026" lon="10.70670902750301"><ele>70.0</ele><time>2026-05-01T09:54:58Z</time></trkpt><trkpt lat="43.265717946456995" lon="10.706690310245248"><ele>69.5</ele><time>2026-05-01T09:54:59Z</time></trkpt><trkpt lat="43.26557101417671" lon="10.706671205104431"><ele>69.0</ele><time>2026-05-01T09:55:00Z</time></trkpt><trkpt lat="43.26542300687444" lon="10.706654296238067"><ele>68.5</ele><time>2026-05-01T09:55:01Z</time></trkpt><trkpt lat="43.265272738909715" lon="10.706632190690877"><ele>68.0</ele><time>2026-05-01T09:55:02Z</time></trkpt><trkpt lat="43.265124959563266" lon="10.706606983511579"><ele>68.0</ele><time>2026-05-01T09:55:03Z</time></trkpt><trkpt lat="43.2649769418049" lon="10.706587616885514"><ele>68.0</ele><time>2026-05-01T09:55:04Z</time></trkpt><trkpt lat="43.26482908447299" lon="10.7065687617275"><ele>68.0</ele><time>2026-05-01T09:55:05Z</time></trkpt><trkpt lat="43.2646789942292" lon="10.706549483012202"><ele>68.0</ele><time>2026-05-01T09:55:06Z</time></trkpt><trkpt lat="43.26452844701678" lon="10.70654380345762"><ele>68.33333333333334</ele><time>2026-05-01T09:55:07Z</time></trkpt><trkpt lat="43.264379891286595" lon="10.706555757464333"><ele>68.66666666666667</ele><time>2026-05-01T09:55:08Z</time></trkpt><trkpt lat="43.26423046705331" lon="10.70657966614922"><ele>69.0</ele><time>2026-05-01T09:55:09Z</time></trkpt><trkpt lat="43.26408126483048" lon="10.706620705281797"><ele>69.66666666666667</ele><time>2026-05-01T09:55:10Z</time></trkpt><trkpt lat="43.26393332073536" lon="10.706682655913305"><ele>70.33333333333334</ele><time>2026-05-01T09:55:11Z</time></trkpt><trkpt lat="43.26378619924371" lon="10.706768063484816"><ele>71.0</ele><time>2026-05-01T09:55:12Z</time></trkpt><trkpt lat="43.263643057011976" lon="10.706869618573819"><ele>70.66666666666667</ele><time>2026-05-01T09:55:13Z</time></trkpt><trkpt lat="43.26349690177532" lon="10.706962815744067"><ele>70.33333333333333</ele><time>2026-05-01T09:55:14Z</time></trkpt><trkpt lat="43.263376909209136" lon="10.707097959771907"><ele>70.0</ele><time>2026-05-01T09:55:15Z</time></trkpt><trkpt lat="43.263248814902575" lon="10.707213355578789"><ele>70.0</ele><time>2026-05-01T09:55:16Z</time></trkpt><trkpt lat="43.26312390828759" lon="10.707332721884146"><ele>70.0</ele><time>2026-05-01T09:55:17Z</time></trkpt><trkpt lat="43.262997749989005" lon="10.707456331837042"><ele>70.0</ele><time>2026-05-01T09:55:18Z</time></trkpt><trkpt lat="43.262869391682024" lon="10.70758042360104"><ele>69.66666666666666</ele><time>2026-05-01T09:55:19Z</time></trkpt><trkpt lat="43.26274079005138" lon="10.707708594843949"><ele>69.33333333333333</ele><time>2026-05-01T09:55:20Z</time></trkpt><trkpt lat="43.26260978928476" lon="10.70783772810414"><ele>69.0</ele><time>2026-05-01T09:55:21Z</time></trkpt><trkpt lat="43.262480279931005" lon="10.707962563184442"><ele>69.0</ele><time>2026-05-01T09:55:22Z</time></trkpt><trkpt lat="43.262356872719685" lon="10.708087751579903"><ele>69.0</ele><time>2026-05-01T09:55:23Z</time></trkpt><trkpt lat="43.262228525818536" lon="10.708188589687895"><ele>69.0</ele><time>2026-05-01T09:55:24Z</time></trkpt><trkpt lat="43.262113871771184" lon="10.708300064779138"><ele>69.0</ele><time>2026-05-01T09:55:25Z</time></trkpt><trkpt lat="43.26200596240493" lon="10.708431396405091"><ele>69.0</ele><time>2026-05-01T09:55:26Z</time></trkpt><trkpt lat="43.26188978732715" lon="10.708544096392599"><ele>69.0</ele><time>2026-05-01T09:55:27Z</time></trkpt><trkpt lat="43.26176822052083" lon="10.708636009336862"><ele>69.0</ele><time>2026-05-01T09:55:28Z</time></trkpt><trkpt lat="43.261661451541784" lon="10.708739387797744"><ele>69.0</ele><time>2026-05-01T09:55:29Z</time></trkpt><trkpt lat="43.261569368132676" lon="10.708851871055845"><ele>69.60000000000001</ele><time>2026-05-01T09:55:30Z</time></trkpt><trkpt lat="43.2614763820579" lon="10.70894003649413"><ele>70.2</ele><time>2026-05-01T09:55:31Z</time></trkpt><trkpt lat="43.26138656485752" lon="10.708994010938243"><ele>70.80000000000001</ele><time>2026-05-01T09:55:32Z</time></trkpt><trkpt lat="43.26132692964332" lon="10.709042316087087"><ele>71.4</ele><time>2026-05-01T09:55:33Z</time></trkpt><trkpt lat="43.26125825694907" lon="10.709094650535109"><ele>72.0</ele><time>2026-05-01T09:55:35Z</time></trkpt><trkpt lat="43.26112214882744" lon="10.709190743958953"><ele>72.0</ele><time>2026-05-01T09:56:05Z</time></trkpt><trkpt lat="43.261029745498945" lon="10.709230818061036"><ele>72.0</ele><time>2026-05-01T09:56:06Z</time></trkpt><trkpt lat="43.26093364554997" lon="10.709296126489402"><ele>72.0</ele><time>2026-05-01T09:56:07Z</time></trkpt><trkpt lat="43.26083042960625" lon="10.709362788076898"><ele>72.0</ele><time>2026-05-01T09:56:08Z</time></trkpt><trkpt lat="43.26073796291811" lon="10.70941702156948"><ele>72.0</ele><time>2026-05-01T09:56:09Z</time></trkpt><trkpt lat="43.26065847019915" lon="10.7094638261732"><ele>72.8</ele><time>2026-05-01T09:56:10Z</time></trkpt><trkpt lat="43.260580155980065" lon="10.709506421539627"><ele>73.6</ele><time>2026-05-01T09:56:11Z</time></trkpt><trkpt lat="43.26048779355614" lon="10.709560455351575"><ele>74.39999999999999</ele><time>2026-05-01T09:56:12Z</time></trkpt><trkpt lat="43.26037017365172" lon="10.709628659953513"><ele>75.2</ele><time>2026-05-01T09:56:13Z</time></trkpt><trkpt lat="43.26024805037873" lon="10.709698721248316"><ele>76.0</ele><time>2026-05-01T09:56:14Z</time></trkpt><trkpt lat="43.26012168537237" lon="10.70977216055856"><ele>76.0</ele><time>2026-05-01T09:56:15Z</time></trkpt><trkpt lat="43.25999962693742" lon="10.709839640758027"><ele>76.0</ele><time>2026-05-01T09:56:16Z</time></trkpt><trkpt lat="43.25987763220237" lon="10.709908047509863"><ele>76.0</ele><time>2026-05-01T09:56:17Z</time></trkpt><trkpt lat="43.259773255157555" lon="10.709968632006165"><ele>76.0</ele><time>2026-05-01T09:56:18Z</time></trkpt><trkpt lat="43.259670119036144" lon="10.710006866089193"><ele>76.0</ele><time>2026-05-01T09:56:19Z</time></trkpt><trkpt lat="43.259574733657956" lon="10.710060139039962"><ele>76.0</ele><time>2026-05-01T09:56:20Z</time></trkpt><trkpt lat="43.259478932141" lon="10.71011364412922"><ele>76.0</ele><time>2026-05-01T09:56:21Z</time></trkpt><trkpt lat="43.259394420454164" lon="10.710160843984214"><ele>76.0</ele><time>2026-05-01T09:56:22Z</time></trkpt><trkpt lat="43.259313156890414" lon="10.710206229748056"><ele>76.0</ele><time>2026-05-01T09:56:23Z</time></trkpt><trkpt lat="43.259235066691346" lon="10.710249843221321"><ele>76.0</ele><time>2026-05-01T09:56:24Z</time></trkpt><trkpt lat="43.25916893524512" lon="10.710307863561125"><ele>76.0</ele><time>2026-05-01T09:56:25Z</time></trkpt><trkpt lat="43.259095140741564" lon="10.710326816222471"><ele>76.0</ele><time>2026-05-01T09:56:27Z</time></trkpt><trkpt lat="43.25915639804294" lon="10.710499075468784"><ele>76.0</ele><time>2026-05-01T09:56:31Z</time></trkpt><trkpt lat="43.259212659795516" lon="10.710585233439888"><ele>76.0</ele><time>2026-05-01T09:56:33Z</time></trkpt><trkpt lat="43.25928243764465" lon="10.71073609553672"><ele>76.0</ele><time>2026-05-01T09:56:35Z</time></trkpt><trkpt lat="43.259304167049635" lon="10.710859608380353"><ele>76.0</ele><time>2026-05-01T09:56:36Z</time></trkpt><trkpt lat="43.25930908740719" lon="10.711008200257154"><ele>76.0</ele><time>2026-05-01T09:56:37Z</time></trkpt><trkpt lat="43.2593008477503" lon="10.71114911777547"><ele>76.0</ele><time>2026-05-01T09:56:38Z</time></trkpt><trkpt lat="43.259295361609176" lon="10.711269327913065"><ele>76.0</ele><time>2026-05-01T09:56:39Z</time></trkpt><trkpt lat="43.25930269829851" lon="10.711367626016964"><ele>76.66666666666666</ele><time>2026-05-01T09:56:40Z</time></trkpt><trkpt lat="43.25937411055251" lon="10.711483283438042"><ele>77.33333333333333</ele><time>2026-05-01T09:56:42Z</time></trkpt><trkpt lat="43.25942910861769" lon="10.7115284820352"><ele>78.0</ele><time>2026-05-01T09:56:44Z</time></trkpt><trkpt lat="43.25951943194206" lon="10.711502319136708"><ele>78.66666666666667</ele><time>2026-05-01T09:56:46Z</time></trkpt><trkpt lat="43.25956228480463" lon="10.711435954837105"><ele>79.33333333333334</ele><time>2026-05-01T09:56:47Z</time></trkpt><trkpt lat="43.259638872568786" lon="10.71136687964641"><ele>80.0</ele><time>2026-05-01T09:56:50Z</time></trkpt><trkpt lat="43.25973082140362" lon="10.711295613936112"><ele>81.8</ele><time>2026-05-01T09:56:52Z</time></trkpt><trkpt lat="43.259817902875334" lon="10.711223544295278"><ele>83.6</ele><time>2026-05-01T09:56:54Z</time></trkpt><trkpt lat="43.259913291915176" lon="10.711191587705406"><ele>85.4</ele><time>2026-05-01T09:56:56Z</time></trkpt><trkpt lat="43.26002257584044" lon="10.711227520086632"><ele>87.2</ele><time>2026-05-01T09:56:58Z</time></trkpt><trkpt lat="43.260074761558016" lon="10.711280353916381"><ele>89.0</ele><time>2026-05-01T09:56:59Z</time></trkpt><trkpt lat="43.26013061497244" lon="10.711349278276199"><ele>89.0</ele><time>2026-05-01T09:57:00Z</time></trkpt><trkpt lat="43.26018200149976" lon="10.7114072704133"><ele>89.0</ele><time>2026-05-01T09:57:01Z</time></trkpt><trkpt lat="43.2602772531914" lon="10.711533900006062"><ele>89.0</ele><time>2026-05-01T09:57:03Z</time></trkpt><trkpt lat="43.260323530585694" lon="10.711612350231004"><ele>89.0</ele><time>2026-05-01T09:57:04Z</time></trkpt><trkpt lat="43.26036710479909" lon="10.711717442872741"><ele>89.0</ele><time>2026-05-01T09:57:05Z</time></trkpt><trkpt lat="43.26040109249237" lon="10.711807159565849"><ele>89.0</ele><time>2026-05-01T09:57:06Z</time></trkpt><trkpt lat="43.260458249198635" lon="10.711885588664519"><ele>90.80000000000001</ele><time>2026-05-01T09:57:07Z</time></trkpt><trkpt lat="43.26051392553764" lon="10.71196554476892"><ele>92.60000000000001</ele><time>2026-05-01T09:57:08Z</time></trkpt><trkpt lat="43.260574499133995" lon="10.712050518851777"><ele>94.4</ele><time>2026-05-01T09:57:09Z</time></trkpt><trkpt lat="43.26065064891317" lon="10.712148537733668"><ele>96.2</ele><time>2026-05-01T09:57:10Z</time></trkpt><trkpt lat="43.260744921988916" lon="10.71226857569174"><ele>98.0</ele><time>2026-05-01T09:57:11Z</time></trkpt><trkpt lat="43.26084101388259" lon="10.712391849674042"><ele>100.2</ele><time>2026-05-01T09:57:12Z</time></trkpt><trkpt lat="43.260908386133" lon="10.71249560899427"><ele>102.4</ele><time>2026-05-01T09:57:13Z</time></trkpt><trkpt lat="43.26096501980642" lon="10.712624401164856"><ele>104.60000000000001</ele><time>2026-05-01T09:57:14Z</time></trkpt><trkpt lat="43.261015000248705" lon="10.712751154733294"><ele>106.80000000000001</ele><time>2026-05-01T09:57:15Z</time></trkpt><trkpt lat="43.26105292767451" lon="10.712825585304586"><ele>109.0</ele><time>2026-05-01T09:57:16Z</time></trkpt><trkpt lat="43.2611088282091" lon="10.71290494403873"><ele>110.6</ele><time>2026-05-01T09:57:17Z</time></trkpt><trkpt lat="43.26118947400844" lon="10.712977748704807"><ele>112.2</ele><time>2026-05-01T09:57:18Z</time></trkpt><trkpt lat="43.26130551983241" lon="10.713054419148728"><ele>113.79999999999998</ele><time>2026-05-01T09:57:19Z</time></trkpt><trkpt lat="43.2613991451203" lon="10.713133317979764"><ele>115.39999999999999</ele><time>2026-05-01T09:57:20Z</time></trkpt><trkpt lat="43.261461855434604" lon="10.713203293813967"><ele>117.0</ele><time>2026-05-01T09:57:21Z</time></trkpt><trkpt lat="43.26153477559436" lon="10.713289981620248"><ele>118.0</ele><time>2026-05-01T09:57:23Z</time></trkpt><trkpt lat="43.261622684740644" lon="10.713264702346455"><ele>119.0</ele><time>2026-05-01T09:57:25Z</time></trkpt><trkpt lat="43.26167394239842" lon="10.713202407950968"><ele>120.0</ele><time>2026-05-01T09:57:26Z</time></trkpt><trkpt lat="43.261740416406695" lon="10.71313531726112"><ele>121.0</ele><time>2026-05-01T09:57:27Z</time></trkpt><trkpt lat="43.26183124359548" lon="10.713099020878527"><ele>122.0</ele><time>2026-05-01T09:57:28Z</time></trkpt><trkpt lat="43.261938008820856" lon="10.713088515115182"><ele>123.0</ele><time>2026-05-01T09:57:29Z</time></trkpt><trkpt lat="43.26205815702352" lon="10.713073225806424"><ele>123.0</ele><time>2026-05-01T09:57:30Z</time></trkpt><trkpt lat="43.26214263324383" lon="10.713033474183549"><ele>123.0</ele><time>2026-05-01T09:57:31Z</time></trkpt><trkpt lat="43.262212731427354" lon="10.712974516349341"><ele>123.0</ele><time>2026-05-01T09:57:32Z</time></trkpt><trkpt lat="43.26227561032253" lon="10.712965624318084"><ele>123.0</ele><time>2026-05-01T09:57:33Z</time></trkpt><trkpt lat="43.262375076926205" lon="10.71307915623822"><ele>123.0</ele><time>2026-05-01T09:57:35Z</time></trkpt><trkpt lat="43.26241357011979" lon="10.713165198185807"><ele>123.0</ele><time>2026-05-01T09:57:36Z</time></trkpt><trkpt lat="43.26246118870877" lon="10.713283748552378"><ele>125.0</ele><time>2026-05-01T09:57:37Z</time></trkpt><trkpt lat="43.262521670758105" lon="10.713403589590039"><ele>127.00000000000001</ele><time>2026-05-01T09:57:38Z</time></trkpt><trkpt lat="43.26257371837501" lon="10.713517758104503"><ele>129.0</ele><time>2026-05-01T09:57:39Z</time></trkpt><trkpt lat="43.262605715706414" lon="10.713627802618978"><ele>131.0</ele><time>2026-05-01T09:57:40Z</time></trkpt><trkpt lat="43.262644536701785" lon="10.713756724666585"><ele>133.0</ele><time>2026-05-01T09:57:41Z</time></trkpt><trkpt lat="43.26269347141124" lon="10.713876749934652"><ele>134.8</ele><time>2026-05-01T09:57:42Z</time></trkpt><trkpt lat="43.262751835803414" lon="10.71398744451704"><ele>136.60000000000002</ele><time>2026-05-01T09:57:43Z</time></trkpt><trkpt lat="43.2628043749181" lon="10.714099396124286"><ele>138.39999999999998</ele><time>2026-05-01T09:57:44Z</time></trkpt><trkpt lat="43.26283777876968" lon="10.714208823072262"><ele>140.2</ele><time>2026-05-01T09:57:45Z</time></trkpt><trkpt lat="43.26284482116677" lon="10.714369513833013"><ele>142.0</ele><time>2026-05-01T09:57:47Z</time></trkpt><trkpt lat="43.26284980770567" lon="10.714494287005834"><ele>145.25</ele><time>2026-05-01T09:57:48Z</time></trkpt><trkpt lat="43.26281925997363" lon="10.71464684186474"><ele>148.5</ele><time>2026-05-01T09:57:49Z</time></trkpt><trkpt lat="43.26281473901404" lon="10.714810915383842"><ele>151.75</ele><time>2026-05-01T09:57:50Z</time></trkpt><trkpt lat="43.26279548087448" lon="10.71498263166751"><ele>155.0</ele><time>2026-05-01T09:57:51Z</time></trkpt><trkpt lat="43.26279243084769" lon="10.715111347064298"><ele>158.6</ele><time>2026-05-01T09:57:52Z</time></trkpt><trkpt lat="43.262793367814" lon="10.715279334885874"><ele>162.2</ele><time>2026-05-01T09:57:54Z</time></trkpt><trkpt lat="43.262709603420134" lon="10.715377158351302"><ele>165.8</ele><time>2026-05-01T09:57:56Z</time></trkpt><trkpt lat="43.26257958023912" lon="10.715418009627431"><ele>169.4</ele><time>2026-05-01T09:57:58Z</time></trkpt><trkpt lat="43.26250026787252" lon="10.715442552572412"><ele>173.0</ele><time>2026-05-01T09:57:59Z</time></trkpt><trkpt lat="43.262417462479746" lon="10.715463236968418"><ele>173.0</ele><time>2026-05-01T09:58:00Z</time></trkpt><trkpt lat="43.262319297113976" lon="10.715478001119784"><ele>173.0</ele><time>2026-05-01T09:58:01Z</time></trkpt><trkpt lat="43.26220577945041" lon="10.715484886402045"><ele>173.0</ele><time>2026-05-01T09:58:02Z</time></trkpt><trkpt lat="43.26210506450387" lon="10.715505415521855"><ele>173.0</ele><time>2026-05-01T09:58:03Z</time></trkpt><trkpt lat="43.26202063700469" lon="10.715500780901"><ele>173.0</ele><time>2026-05-01T09:58:04Z</time></trkpt><trkpt lat="43.26194257523888" lon="10.715488118640351"><ele>172.66666666666666</ele><time>2026-05-01T09:58:05Z</time></trkpt><trkpt lat="43.26187985100388" lon="10.715515863908442"><ele>172.33333333333331</ele><time>2026-05-01T09:58:06Z</time></trkpt><trkpt lat="43.26179230729774" lon="10.715599054231449"><ele>172.0</ele><time>2026-05-01T09:58:08Z</time></trkpt><trkpt lat="43.26177479348529" lon="10.715710224233773"><ele>171.66666666666666</ele><time>2026-05-01T09:58:09Z</time></trkpt><trkpt lat="43.261775778603756" lon="10.71583073236822"><ele>171.33333333333334</ele><time>2026-05-01T09:58:10Z</time></trkpt><trkpt lat="43.26178934730871" lon="10.715957118416773"><ele>171.0</ele><time>2026-05-01T09:58:11Z</time></trkpt><trkpt lat="43.2617982212158" lon="10.71609921375192"><ele>171.0</ele><time>2026-05-01T09:58:12Z</time></trkpt><trkpt lat="43.26180822794124" lon="10.716256062204534"><ele>171.0</ele><time>2026-05-01T09:58:13Z</time></trkpt><trkpt lat="43.261833974105144" lon="10.716385508446498"><ele>171.0</ele><time>2026-05-01T09:58:14Z</time></trkpt><trkpt lat="43.261866114194156" lon="10.716556915886407"><ele>171.0</ele><time>2026-05-01T09:58:16Z</time></trkpt><trkpt lat="43.2619315746156" lon="10.716657914398288"><ele>171.0</ele><time>2026-05-01T09:58:17Z</time></trkpt><trkpt lat="43.26201282310308" lon="10.7167559611995"><ele>171.0</ele><time>2026-05-01T09:58:18Z</time></trkpt><trkpt lat="43.26207590996067" lon="10.716843157502028"><ele>171.0</ele><time>2026-05-01T09:58:19Z</time></trkpt><trkpt lat="43.262146648063734" lon="10.716903474302"><ele>171.0</ele><time>2026-05-01T09:58:20Z</time></trkpt><trkpt lat="43.26220210940637" lon="10.716945365937423"><ele>171.0</ele><time>2026-05-01T09:58:21Z</time></trkpt><trkpt lat="43.26228055023648" lon="10.716971700399203"><ele>171.0</ele><time>2026-05-01T09:58:23Z</time></trkpt><trkpt lat="43.26235852237183" lon="10.716985894652383"><ele>171.0</ele><time>2026-05-01T09:58:25Z</time></trkpt><trkpt lat="43.26245456705714" lon="10.716999734255994"><ele>173.16666666666666</ele><time>2026-05-01T09:58:27Z</time></trkpt><trkpt lat="43.26256832668928" lon="10.717009436671802"><ele>175.33333333333334</ele><time>2026-05-01T09:58:29Z</time></trkpt><trkpt lat="43.26266946641173" lon="10.717010099136537"><ele>177.5</ele><time>2026-05-01T09:58:31Z</time></trkpt><trkpt lat="43.26273878120638" lon="10.717013516898492"><ele>179.66666666666669</ele><time>2026-05-01T09:58:33Z</time></trkpt><trkpt lat="43.26281406506192" lon="10.717039749246007"><ele>181.83333333333334</ele><time>2026-05-01T09:58:35Z</time></trkpt><trkpt lat="43.262898844788666" lon="10.717068441605694"><ele>184.0</ele><time>2026-05-01T09:58:37Z</time></trkpt><trkpt lat="43.26300616204479" lon="10.717065189131443"><ele>184.0</ele><time>2026-05-01T09:58:39Z</time></trkpt><trkpt lat="43.26307280946738" lon="10.717001562983205"><ele>184.0</ele><time>2026-05-01T09:58:41Z</time></trkpt><trkpt lat="43.263138140113355" lon="10.716966167788003"><ele>184.0</ele><time>2026-05-01T09:58:42Z</time></trkpt><trkpt lat="43.26323941679267" lon="10.716926089293867"><ele>184.0</ele><time>2026-05-01T09:58:43Z</time></trkpt><trkpt lat="43.26330045237355" lon="10.716880834090809"><ele>184.0</ele><time>2026-05-01T09:58:44Z</time></trkpt><trkpt lat="43.26336626711713" lon="10.716860405956197"><ele>184.0</ele><time>2026-05-01T09:58:45Z</time></trkpt><trkpt lat="43.263474006361" lon="10.716865674475567"><ele>186.16666666666669</ele><time>2026-05-01T09:58:47Z</time></trkpt><trkpt lat="43.263593744611676" lon="10.716914402514297"><ele>188.33333333333334</ele><time>2026-05-01T09:58:49Z</time></trkpt><trkpt lat="43.26367129540016" lon="10.716964965861791"><ele>190.5</ele><time>2026-05-01T09:58:50Z</time></trkpt><trkpt lat="43.26372813233182" lon="10.717027519646752"><ele>192.66666666666669</ele><time>2026-05-01T09:58:51Z</time></trkpt><trkpt lat="43.26376487762606" lon="10.717104494413807"><ele>194.83333333333334</ele><time>2026-05-01T09:58:52Z</time></trkpt><trkpt lat="43.263816951483705" lon="10.717186966177154"><ele>197.0</ele><time>2026-05-01T09:58:53Z</time></trkpt><trkpt lat="43.26385688347616" lon="10.717290562852076"><ele>197.0</ele><time>2026-05-01T09:58:54Z</time></trkpt><trkpt lat="43.26387714025" lon="10.717394565863241"><ele>197.0</ele><time>2026-05-01T09:58:55Z</time></trkpt><trkpt lat="43.26390249704992" lon="10.717548435387773"><ele>197.0</ele><time>2026-05-01T09:58:56Z</time></trkpt><trkpt lat="43.2639427588104" lon="10.71768730871491"><ele>197.0</ele><time>2026-05-01T09:58:57Z</time></trkpt><trkpt lat="43.26397881453275" lon="10.717825113711232"><ele>197.0</ele><time>2026-05-01T09:58:58Z</time></trkpt><trkpt lat="43.26399061927314" lon="10.7179287303769"><ele>199.0</ele><time>2026-05-01T09:58:59Z</time></trkpt><trkpt lat="43.263991550130584" lon="10.718028156712197"><ele>201.0</ele><time>2026-05-01T09:59:00Z</time></trkpt><trkpt lat="43.26398172985035" lon="10.718150229538253"><ele>203.0</ele><time>2026-05-01T09:59:01Z</time></trkpt><trkpt lat="43.263972281621506" lon="10.718296835236591"><ele>205.0</ele><time>2026-05-01T09:59:02Z</time></trkpt><trkpt lat="43.2639773003204" lon="10.718450845421732"><ele>207.0</ele><time>2026-05-01T09:59:03Z</time></trkpt><trkpt lat="43.26399565661886" lon="10.718613950812045"><ele>208.6</ele><time>2026-05-01T09:59:04Z</time></trkpt><trkpt lat="43.26402955537869" lon="10.718747868034297"><ele>210.2</ele><time>2026-05-01T09:59:05Z</time></trkpt><trkpt lat="43.264077790702984" lon="10.718850512129169"><ele>211.8</ele><time>2026-05-01T09:59:06Z</time></trkpt><trkpt lat="43.26412894036381" lon="10.718928838477312"><ele>213.4</ele><time>2026-05-01T09:59:08Z</time></trkpt><trkpt lat="43.26409066110801" lon="10.719014736562048"><ele>215.0</ele><time>2026-05-01T09:59:11Z</time></trkpt><trkpt lat="43.26398513081376" lon="10.718953948561518"><ele>213.8</ele><time>2026-05-01T09:59:13Z</time></trkpt><trkpt lat="43.26387084915804" lon="10.718934892319384"><ele>212.6</ele><time>2026-05-01T09:59:15Z</time></trkpt><trkpt lat="43.26377270871482" lon="10.719044158724708"><ele>211.39999999999998</ele><time>2026-05-01T09:59:17Z</time></trkpt><trkpt lat="43.26374329171613" lon="10.719162916039062"><ele>210.2</ele><time>2026-05-01T09:59:18Z</time></trkpt><trkpt lat="43.26373750625448" lon="10.719274898977593"><ele>209.0</ele><time>2026-05-01T09:59:19Z</time></trkpt><trkpt lat="43.26372939678031" lon="10.719376835607633"><ele>211.2</ele><time>2026-05-01T09:59:20Z</time></trkpt><trkpt lat="43.26372644969407" lon="10.719499744561741"><ele>213.39999999999998</ele><time>2026-05-01T09:59:21Z</time></trkpt><trkpt lat="43.26375039250522" lon="10.71965947900152"><ele>215.6</ele><time>2026-05-01T09:59:22Z</time></trkpt><trkpt lat="43.263732379884985" lon="10.719811662780003"><ele>217.8</ele><time>2026-05-01T09:59:23Z</time></trkpt><trkpt lat="43.26370866633843" lon="10.719933319274508"><ele>220.0</ele><time>2026-05-01T09:59:24Z</time></trkpt><trkpt lat="43.263654842735946" lon="10.720013162441793"><ele>220.0</ele><time>2026-05-01T09:59:25Z</time></trkpt><trkpt lat="43.26360619708183" lon="10.720129244558624"><ele>220.0</ele><time>2026-05-01T09:59:26Z</time></trkpt><trkpt lat="43.263587705630044" lon="10.720222936006683"><ele>220.0</ele><time>2026-05-01T09:59:27Z</time></trkpt><trkpt lat="43.26360893458557" lon="10.720375627445112"><ele>220.0</ele><time>2026-05-01T09:59:29Z</time></trkpt><trkpt lat="43.26363331724679" lon="10.720488657724763"><ele>220.0</ele><time>2026-05-01T09:59:30Z</time></trkpt><trkpt lat="43.26367739952046" lon="10.720621215015802"><ele>221.8</ele><time>2026-05-01T09:59:31Z</time></trkpt><trkpt lat="43.263696111615225" lon="10.720792153814498"><ele>223.6</ele><time>2026-05-01T09:59:32Z</time></trkpt><trkpt lat="43.26373365223098" lon="10.720912792284638"><ele>225.39999999999998</ele><time>2026-05-01T09:59:33Z</time></trkpt><trkpt lat="43.26379602112417" lon="10.720993143120962"><ele>227.2</ele><time>2026-05-01T09:59:34Z</time></trkpt><trkpt lat="43.26385606687963" lon="10.72106729437618"><ele>229.0</ele><time>2026-05-01T09:59:35Z</time></trkpt><trkpt lat="43.263940675913474" lon="10.721152057821774"><ele>232.6</ele><time>2026-05-01T09:59:36Z</time></trkpt><trkpt lat="43.26403797087003" lon="10.721241452223417"><ele>236.2</ele><time>2026-05-01T09:59:37Z</time></trkpt><trkpt lat="43.2641102360076" lon="10.721326858537784"><ele>239.79999999999998</ele><time>2026-05-01T09:59:38Z</time></trkpt><trkpt lat="43.264173917190156" lon="10.72141680442019"><ele>243.39999999999998</ele><time>2026-05-01T09:59:39Z</time></trkpt><trkpt lat="43.264228981493225" lon="10.721538206272939"><ele>247.0</ele><time>2026-05-01T09:59:40Z</time></trkpt><trkpt lat="43.26428745766508" lon="10.721680988981658"><ele>247.0</ele><time>2026-05-01T09:59:41Z</time></trkpt><trkpt lat="43.26437455720139" lon="10.721817239039906"><ele>247.0</ele><time>2026-05-01T09:59:42Z</time></trkpt><trkpt lat="43.264436657290325" lon="10.721952609648323"><ele>247.0</ele><time>2026-05-01T09:59:43Z</time></trkpt><trkpt lat="43.264483892001785" lon="10.722082577962894"><ele>247.0</ele><time>2026-05-01T09:59:44Z</time></trkpt><trkpt lat="43.26452670968971" lon="10.722188757610283"><ele>247.0</ele><time>2026-05-01T09:59:45Z</time></trkpt><trkpt lat="43.264557730377284" lon="10.722286469379386"><ele>247.33333333333331</ele><time>2026-05-01T09:59:46Z</time></trkpt><trkpt lat="43.26457907161965" lon="10.72239365609602"><ele>247.66666666666666</ele><time>2026-05-01T09:59:47Z</time></trkpt><trkpt lat="43.2646002264233" lon="10.7224947354835"><ele>248.0</ele><time>2026-05-01T09:59:48Z</time></trkpt><trkpt lat="43.26456946338882" lon="10.722605090399036"><ele>248.33333333333331</ele><time>2026-05-01T09:59:49Z</time></trkpt><trkpt lat="43.26454387992368" lon="10.72269195023156"><ele>248.66666666666666</ele><time>2026-05-01T09:59:50Z</time></trkpt><trkpt lat="43.26450178978156" lon="10.722783395636299"><ele>249.0</ele><time>2026-05-01T09:59:51Z</time></trkpt><trkpt lat="43.26444594989445" lon="10.722905518065899"><ele>250.0</ele><time>2026-05-01T09:59:52Z</time></trkpt><trkpt lat="43.26440430189781" lon="10.723011771966735"><ele>251.0</ele><time>2026-05-01T09:59:53Z</time></trkpt><trkpt lat="43.264414918424464" lon="10.72310721941384"><ele>252.0</ele><time>2026-05-01T09:59:54Z</time></trkpt><trkpt lat="43.264391127288484" lon="10.72320608335698"><ele>253.0</ele><time>2026-05-01T09:59:55Z</time></trkpt><trkpt lat="43.26438110305958" lon="10.723301617351309"><ele>254.0</ele><time>2026-05-01T09:59:56Z</time></trkpt><trkpt lat="43.2643240418715" lon="10.723392759701113"><ele>255.0</ele><time>2026-05-01T09:59:57Z</time></trkpt><trkpt lat="43.264265879133696" lon="10.723488400828849"><ele>256.4</ele><time>2026-05-01T09:59:58Z</time></trkpt><trkpt lat="43.26424880480374" lon="10.723582012092898"><ele>257.8</ele><time>2026-05-01T09:59:59Z</time></trkpt><trkpt lat="43.26425352962587" lon="10.723687335647007"><ele>259.2</ele><time>2026-05-01T10:00:00Z</time></trkpt><trkpt lat="43.26426363502263" lon="10.723808313583579"><ele>260.6</ele><time>2026-05-01T10:00:01Z</time></trkpt><trkpt lat="43.264251081952615" lon="10.72394164291968"><ele>262.0</ele><time>2026-05-01T10:00:02Z</time></trkpt><trkpt lat="43.26425431432272" lon="10.724109345899961"><ele>262.0</ele><time>2026-05-01T10:00:03Z</time></trkpt><trkpt lat="43.264256116870946" lon="10.724284450171606"><ele>262.0</ele><time>2026-05-01T10:00:04Z</time></trkpt><trkpt lat="43.264254876185255" lon="10.724443228394176"><ele>262.0</ele><time>2026-05-01T10:00:05Z</time></trkpt><trkpt lat="43.264250840310936" lon="10.72458060781847"><ele>262.0</ele><time>2026-05-01T10:00:06Z</time></trkpt><trkpt lat="43.264244948165036" lon="10.724716001629792"><ele>262.0</ele><time>2026-05-01T10:00:07Z</time></trkpt><trkpt lat="43.264251540348575" lon="10.724838703080366"><ele>263.0</ele><time>2026-05-01T10:00:08Z</time></trkpt><trkpt lat="43.264231974659694" lon="10.72496343547754"><ele>264.0</ele><time>2026-05-01T10:00:09Z</time></trkpt><trkpt lat="43.26420753911065" lon="10.725062749736379"><ele>265.0</ele><time>2026-05-01T10:00:10Z</time></trkpt><trkpt lat="43.26416230273418" lon="10.725194937621254"><ele>266.0</ele><time>2026-05-01T10:00:11Z</time></trkpt><trkpt lat="43.264095217024064" lon="10.725322927258516"><ele>267.0</ele><time>2026-05-01T10:00:12Z</time></trkpt><trkpt lat="43.26404853547596" lon="10.725429630475723"><ele>267.6</ele><time>2026-05-01T10:00:13Z</time></trkpt><trkpt lat="43.26400245832489" lon="10.725525243731681"><ele>268.2</ele><time>2026-05-01T10:00:14Z</time></trkpt><trkpt lat="43.263950521328674" lon="10.725627332284873"><ele>268.8</ele><time>2026-05-01T10:00:15Z</time></trkpt><trkpt lat="43.26389955637186" lon="10.725738796756557"><ele>269.4</ele><time>2026-05-01T10:00:16Z</time></trkpt><trkpt lat="43.26386918409184" lon="10.725872382451488"><ele>270.0</ele><time>2026-05-01T10:00:17Z</time></trkpt><trkpt lat="43.26381387242913" lon="10.725974848583254"><ele>272.5</ele><time>2026-05-01T10:00:18Z</time></trkpt><trkpt lat="43.26375681686876" lon="10.726072684662427"><ele>275.0</ele><time>2026-05-01T10:00:19Z</time></trkpt><trkpt lat="43.26368891448172" lon="10.726181176845374"><ele>277.5</ele><time>2026-05-01T10:00:20Z</time></trkpt><trkpt lat="43.263622750437264" lon="10.726322012405934"><ele>280.0</ele><time>2026-05-01T10:00:21Z</time></trkpt><trkpt lat="43.263532913811105" lon="10.72646454757196"><ele>280.0</ele><time>2026-05-01T10:00:22Z</time></trkpt><trkpt lat="43.263439290611" lon="10.726550185765872"><ele>280.0</ele><time>2026-05-01T10:00:23Z</time></trkpt><trkpt lat="43.263352185804656" lon="10.726631325429253"><ele>280.0</ele><time>2026-05-01T10:00:24Z</time></trkpt><trkpt lat="43.26323949266425" lon="10.726721175353976"><ele>280.0</ele><time>2026-05-01T10:00:25Z</time></trkpt><trkpt lat="43.263108879251654" lon="10.726808446939044"><ele>284.25</ele><time>2026-05-01T10:00:26Z</time></trkpt><trkpt lat="43.262974723709995" lon="10.726902449073316"><ele>288.5</ele><time>2026-05-01T10:00:27Z</time></trkpt><trkpt lat="43.26288583305849" lon="10.727027446789386"><ele>292.75</ele><time>2026-05-01T10:00:28Z</time></trkpt><trkpt lat="43.262786700781696" lon="10.72711687902755"><ele>297.0</ele><time>2026-05-01T10:00:29Z</time></trkpt><trkpt lat="43.26269463289194" lon="10.727210964405682"><ele>297.0</ele><time>2026-05-01T10:00:30Z</time></trkpt><trkpt lat="43.26260655374416" lon="10.72728970014254"><ele>297.0</ele><time>2026-05-01T10:00:31Z</time></trkpt><trkpt lat="43.26252110233066" lon="10.727362886246189"><ele>297.0</ele><time>2026-05-01T10:00:32Z</time></trkpt><trkpt lat="43.2624249638627" lon="10.727451830531152"><ele>297.0</ele><time>2026-05-01T10:00:33Z</time></trkpt><trkpt lat="43.262328095687124" lon="10.727565051569835"><ele>297.0</ele><time>2026-05-01T10:00:34Z</time></trkpt><trkpt lat="43.2622389602464" lon="10.727633371372981"><ele>297.2</ele><time>2026-05-01T10:00:35Z</time></trkpt><trkpt lat="43.26216403642452" lon="10.72767715031786"><ele>297.4</ele><time>2026-05-01T10:00:36Z</time></trkpt><trkpt lat="43.26207839683339" lon="10.727684244771803"><ele>297.6</ele><time>2026-05-01T10:00:37Z</time></trkpt><trkpt lat="43.26198169644984" lon="10.72774594089728"><ele>297.8</ele><time>2026-05-01T10:00:38Z</time></trkpt><trkpt lat="43.26187087972271" lon="10.727789777042162"><ele>298.0</ele><time>2026-05-01T10:00:39Z</time></trkpt><trkpt lat="43.26177592393333" lon="10.727837220668405"><ele>300.75</ele><time>2026-05-01T10:00:40Z</time></trkpt><trkpt lat="43.26168932085566" lon="10.727899558939534"><ele>303.5</ele><time>2026-05-01T10:00:41Z</time></trkpt><trkpt lat="43.26161448428987" lon="10.727981543131062"><ele>306.25</ele><time>2026-05-01T10:00:42Z</time></trkpt><trkpt lat="43.26152652169182" lon="10.728094956091823"><ele>309.0</ele><time>2026-05-01T10:00:43Z</time></trkpt><trkpt lat="43.26143337866128" lon="10.728236114797552"><ele>309.0</ele><time>2026-05-01T10:00:44Z</time></trkpt><trkpt lat="43.26133691907169" lon="10.72832828123383"><ele>309.0</ele><time>2026-05-01T10:00:45Z</time></trkpt><trkpt lat="43.26125082248211" lon="10.728424325428424"><ele>309.0</ele><time>2026-05-01T10:00:46Z</time></trkpt><trkpt lat="43.261185437071106" lon="10.72850796155428"><ele>309.0</ele><time>2026-05-01T10:00:47Z</time></trkpt><trkpt lat="43.261151070348966" lon="10.72859847619323"><ele>309.0</ele><time>2026-05-01T10:00:48Z</time></trkpt><trkpt lat="43.26110280114379" lon="10.728686096813561"><ele>309.3333333333333</ele><time>2026-05-01T10:00:50Z</time></trkpt><trkpt lat="43.26107208531624" lon="10.728769442937933"><ele>309.6666666666667</ele><time>2026-05-01T10:00:52Z</time></trkpt><trkpt lat="43.26102973455333" lon="10.728891767613874"><ele>310.0</ele><time>2026-05-01T10:00:54Z</time></trkpt><trkpt lat="43.26103478630783" lon="10.728993655997872"><ele>310.33333333333337</ele><time>2026-05-01T10:03:48Z</time></trkpt><trkpt lat="43.2609929102478" lon="10.729080965137602"><ele>310.6666666666667</ele><time>2026-05-01T10:03:57Z</time></trkpt><trkpt lat="43.26093266780407" lon="10.729177089131852"><ele>311.0</ele><time>2026-05-01T10:03:59Z</time></trkpt><trkpt lat="43.26091033445899" lon="10.729283057069694"><ele>311.8</ele><time>2026-05-01T10:04:00Z</time></trkpt><trkpt lat="43.26089519922558" lon="10.729399981772568"><ele>312.6</ele><time>2026-05-01T10:04:01Z</time></trkpt><trkpt lat="43.260885287740415" lon="10.72952132470212"><ele>313.4</ele><time>2026-05-01T10:04:02Z</time></trkpt><trkpt lat="43.260882656999016" lon="10.729636982070172"><ele>314.2</ele><time>2026-05-01T10:04:03Z</time></trkpt><trkpt lat="43.260885318538236" lon="10.729745012896618"><ele>315.0</ele><time>2026-05-01T10:04:04Z</time></trkpt><trkpt lat="43.2608887933675" lon="10.729912531842823"><ele>315.0</ele><time>2026-05-01T10:04:06Z</time></trkpt><trkpt lat="43.26086940871088" lon="10.730004954493296"><ele>315.0</ele><time>2026-05-01T10:04:07Z</time></trkpt><trkpt lat="43.26087451124595" lon="10.730100789282442"><ele>315.0</ele><time>2026-05-01T10:04:08Z</time></trkpt><trkpt lat="43.260864520291435" lon="10.730193499128973"><ele>315.0</ele><time>2026-05-01T10:04:09Z</time></trkpt><trkpt lat="43.26086051978837" lon="10.730289041944305"><ele>315.0</ele><time>2026-05-01T10:04:10Z</time></trkpt><trkpt lat="43.26084832989778" lon="10.730414036878374"><ele>315.0</ele><time>2026-05-01T10:04:12Z</time></trkpt><trkpt lat="43.260834170436155" lon="10.730567725890705"><ele>316.1666666666667</ele><time>2026-05-01T10:04:14Z</time></trkpt><trkpt lat="43.260811733916206" lon="10.730723687325934"><ele>317.3333333333333</ele><time>2026-05-01T10:04:16Z</time></trkpt><trkpt lat="43.26078481276089" lon="10.730874485508307"><ele>318.5</ele><time>2026-05-01T10:04:18Z</time></trkpt><trkpt lat="43.26076716769843" lon="10.73097927466142"><ele>319.66666666666663</ele><time>2026-05-01T10:04:20Z</time></trkpt><trkpt lat="43.26073447417674" lon="10.731073467602906"><ele>320.8333333333333</ele><time>2026-05-01T10:04:27Z</time></trkpt><trkpt lat="43.260704249082295" lon="10.73115296485511"><ele>322.0</ele><time>2026-05-01T10:04:28Z</time></trkpt><trkpt lat="43.260667423273176" lon="10.731264961120303"><ele>321.40000000000003</ele><time>2026-05-01T10:04:29Z</time></trkpt><trkpt lat="43.26063482430496" lon="10.73136774699666"><ele>320.8</ele><time>2026-05-01T10:04:30Z</time></trkpt><trkpt lat="43.26059925189648" lon="10.731488821168591"><ele>320.2</ele><time>2026-05-01T10:04:31Z</time></trkpt><trkpt lat="43.260560854153994" lon="10.73160683399247"><ele>319.6</ele><time>2026-05-01T10:04:32Z</time></trkpt><trkpt lat="43.26050095678701" lon="10.731714542607424"><ele>319.0</ele><time>2026-05-01T10:04:33Z</time></trkpt><trkpt lat="43.26047381533376" lon="10.73182316433349"><ele>319.6</ele><time>2026-05-01T10:04:34Z</time></trkpt><trkpt lat="43.26043995538849" lon="10.731919614030678"><ele>320.2</ele><time>2026-05-01T10:04:35Z</time></trkpt><trkpt lat="43.26042609640326" lon="10.732009149769677"><ele>320.8</ele><time>2026-05-01T10:04:36Z</time></trkpt><trkpt lat="43.26047803023078" lon="10.732168981945083"><ele>321.40000000000003</ele><time>2026-05-01T10:04:38Z</time></trkpt><trkpt lat="43.26056381089614" lon="10.732221919031437"><ele>322.0</ele><time>2026-05-01T10:04:39Z</time></trkpt><trkpt lat="43.26065037817716" lon="10.732258204002441"><ele>325.0</ele><time>2026-05-01T10:04:40Z</time></trkpt><trkpt lat="43.26073269446233" lon="10.732333065194762"><ele>328.0</ele><time>2026-05-01T10:04:41Z</time></trkpt><trkpt lat="43.26082470844276" lon="10.732400789784425"><ele>331.0</ele><time>2026-05-01T10:04:42Z</time></trkpt><trkpt lat="43.26092368582661" lon="10.732463583656704"><ele>334.0</ele><time>2026-05-01T10:04:43Z</time></trkpt><trkpt lat="43.26100903686926" lon="10.732571457909033"><ele>337.0</ele><time>2026-05-01T10:04:44Z</time></trkpt><trkpt lat="43.261084153039704" lon="10.73266009802995"><ele>336.8333333333333</ele><time>2026-05-01T10:04:45Z</time></trkpt><trkpt lat="43.261137529875356" lon="10.732748543080273"><ele>336.66666666666663</ele><time>2026-05-01T10:04:46Z</time></trkpt><trkpt lat="43.261167644531064" lon="10.732852075694046"><ele>336.5</ele><time>2026-05-01T10:04:47Z</time></trkpt><trkpt lat="43.26118370785632" lon="10.7329725345264"><ele>336.3333333333333</ele><time>2026-05-01T10:04:48Z</time></trkpt><trkpt lat="43.261190113742174" lon="10.733101391028466"><ele>336.1666666666667</ele><time>2026-05-01T10:04:49Z</time></trkpt><trkpt lat="43.261185548920054" lon="10.733239604606009"><ele>336.0</ele><time>2026-05-01T10:04:50Z</time></trkpt><trkpt lat="43.26119741389052" lon="10.733384895219585"><ele>336.0</ele><time>2026-05-01T10:04:51Z</time></trkpt><trkpt lat="43.26122791424782" lon="10.733502084938399"><ele>336.0</ele><time>2026-05-01T10:04:52Z</time></trkpt><trkpt lat="43.261243035630905" lon="10.733613382883123"><ele>336.0</ele><time>2026-05-01T10:04:53Z</time></trkpt><trkpt lat="43.26128410523981" lon="10.733742817935866"><ele>336.0</ele><time>2026-05-01T10:04:54Z</time></trkpt><trkpt lat="43.261334258338216" lon="10.7338924519835"><ele>336.0</ele><time>2026-05-01T10:04:55Z</time></trkpt><trkpt lat="43.261383155258116" lon="10.734033201342125"><ele>335.8</ele><time>2026-05-01T10:04:56Z</time></trkpt><trkpt lat="43.26143950425413" lon="10.734133573438813"><ele>335.6</ele><time>2026-05-01T10:04:57Z</time></trkpt><trkpt lat="43.261468269672875" lon="10.734251753128799"><ele>335.4</ele><time>2026-05-01T10:04:58Z</time></trkpt><trkpt lat="43.26153747379032" lon="10.734367365623205"><ele>335.2</ele><time>2026-05-01T10:04:59Z</time></trkpt><trkpt lat="43.261598490852904" lon="10.734513849534753"><ele>335.0</ele><time>2026-05-01T10:05:00Z</time></trkpt><trkpt lat="43.26166631970172" lon="10.734657567478257"><ele>337.6</ele><time>2026-05-01T10:05:01Z</time></trkpt><trkpt lat="43.26170352519395" lon="10.734802862538494"><ele>340.2</ele><time>2026-05-01T10:05:02Z</time></trkpt><trkpt lat="43.26173268831809" lon="10.734916444576045"><ele>342.79999999999995</ele><time>2026-05-01T10:05:03Z</time></trkpt><trkpt lat="43.26175955523434" lon="10.735095428870867"><ele>345.4</ele><time>2026-05-01T10:05:05Z</time></trkpt><trkpt lat="43.261737028590005" lon="10.735217570916"><ele>348.0</ele><time>2026-05-01T10:05:06Z</time></trkpt><trkpt lat="43.26167744583752" lon="10.73532836192452"><ele>348.4</ele><time>2026-05-01T10:05:07Z</time></trkpt><trkpt lat="43.26160792762176" lon="10.735468725252472"><ele>348.79999999999995</ele><time>2026-05-01T10:05:08Z</time></trkpt><trkpt lat="43.2615627890784" lon="10.735621256884992"><ele>349.2</ele><time>2026-05-01T10:05:09Z</time></trkpt><trkpt lat="43.261496059445996" lon="10.735708637700887"><ele>349.6</ele><time>2026-05-01T10:05:10Z</time></trkpt><trkpt lat="43.2614345254193" lon="10.73579260431236"><ele>350.0</ele><time>2026-05-01T10:05:11Z</time></trkpt><trkpt lat="43.26138020398467" lon="10.735894431114811"><ele>350.1666666666667</ele><time>2026-05-01T10:05:12Z</time></trkpt><trkpt lat="43.26132945625999" lon="10.735970483856297"><ele>350.33333333333337</ele><time>2026-05-01T10:05:13Z</time></trkpt><trkpt lat="43.26128237371035" lon="10.736064484542068"><ele>350.5</ele><time>2026-05-01T10:05:14Z</time></trkpt><trkpt lat="43.26124872609266" lon="10.736162655420094"><ele>350.6666666666667</ele><time>2026-05-01T10:05:15Z</time></trkpt><trkpt lat="43.2612187179519" lon="10.736292617945443"><ele>350.8333333333333</ele><time>2026-05-01T10:05:16Z</time></trkpt><trkpt lat="43.261185083196395" lon="10.736396120429532"><ele>351.0</ele><time>2026-05-01T10:05:17Z</time></trkpt><trkpt lat="43.261140685456525" lon="10.736476951848054"><ele>351.3333333333333</ele><time>2026-05-01T10:05:18Z</time></trkpt><trkpt lat="43.26107113456948" lon="10.736562830182827"><ele>351.6666666666667</ele><time>2026-05-01T10:05:19Z</time></trkpt><trkpt lat="43.260985295588426" lon="10.736646503747336"><ele>352.0</ele><time>2026-05-01T10:05:20Z</time></trkpt><trkpt lat="43.26090853995396" lon="10.736719967147753"><ele>352.33333333333337</ele><time>2026-05-01T10:05:21Z</time></trkpt><trkpt lat="43.26085173279617" lon="10.73678895526358"><ele>352.6666666666667</ele><time>2026-05-01T10:05:22Z</time></trkpt><trkpt lat="43.26081764052097" lon="10.736867600902912"><ele>353.0</ele><time>2026-05-01T10:05:23Z</time></trkpt><trkpt lat="43.260803126352286" lon="10.736980750904031"><ele>353.0</ele><time>2026-05-01T10:05:24Z</time></trkpt><trkpt lat="43.260786668241" lon="10.737129807147692"><ele>353.0</ele><time>2026-05-01T10:05:25Z</time></trkpt><trkpt lat="43.2607711032759" lon="10.737303185683"><ele>353.0</ele><time>2026-05-01T10:05:26Z</time></trkpt><trkpt lat="43.26073234147669" lon="10.737467514737574"><ele>353.0</ele><time>2026-05-01T10:05:27Z</time></trkpt><trkpt lat="43.26069884535265" lon="10.737627398259683"><ele>353.59999999999997</ele><time>2026-05-01T10:05:28Z</time></trkpt><trkpt lat="43.26067997022654" lon="10.737764544298026"><ele>354.2</ele><time>2026-05-01T10:05:29Z</time></trkpt><trkpt lat="43.260701596965404" lon="10.737894939523748"><ele>354.8</ele><time>2026-05-01T10:05:30Z</time></trkpt><trkpt lat="43.26073215876859" lon="10.738038987103607"><ele>355.4</ele><time>2026-05-01T10:05:31Z</time></trkpt><trkpt lat="43.26076045522538" lon="10.738206434312376"><ele>356.0</ele><time>2026-05-01T10:05:32Z</time></trkpt><trkpt lat="43.26080385193675" lon="10.73837334022317"><ele>356.0</ele><time>2026-05-01T10:05:33Z</time></trkpt><trkpt lat="43.26084757615604" lon="10.738527371627844"><ele>356.0</ele><time>2026-05-01T10:05:34Z</time></trkpt><trkpt lat="43.260907688876344" lon="10.738673586730355"><ele>356.0</ele><time>2026-05-01T10:05:35Z</time></trkpt><trkpt lat="43.2609422433988" lon="10.738820188225583"><ele>356.0</ele><time>2026-05-01T10:05:36Z</time></trkpt><trkpt lat="43.26098785906562" lon="10.738949699558097"><ele>356.8</ele><time>2026-05-01T10:05:37Z</time></trkpt><trkpt lat="43.26105333426045" lon="10.739068299674942"><ele>357.6</ele><time>2026-05-01T10:05:38Z</time></trkpt><trkpt lat="43.2611329542395" lon="10.739199327831416"><ele>358.4</ele><time>2026-05-01T10:05:39Z</time></trkpt><trkpt lat="43.26118104882566" lon="10.739342478762527"><ele>359.2</ele><time>2026-05-01T10:05:40Z</time></trkpt><trkpt lat="43.26122193451003" lon="10.739459348332504"><ele>360.0</ele><time>2026-05-01T10:05:41Z</time></trkpt><trkpt lat="43.261250578581034" lon="10.739580436798423"><ele>361.0</ele><time>2026-05-01T10:05:42Z</time></trkpt><trkpt lat="43.261286025874114" lon="10.73970716269479"><ele>362.0</ele><time>2026-05-01T10:05:43Z</time></trkpt><trkpt lat="43.261309053014045" lon="10.739844848086328"><ele>363.0</ele><time>2026-05-01T10:05:44Z</time></trkpt><trkpt lat="43.26133880646551" lon="10.739977764055853"><ele>364.0</ele><time>2026-05-01T10:05:45Z</time></trkpt><trkpt lat="43.26138488351713" lon="10.740119863438078"><ele>365.0</ele><time>2026-05-01T10:05:46Z</time></trkpt><trkpt lat="43.26143791493066" lon="10.74026765009432"><ele>367.0</ele><time>2026-05-01T10:05:47Z</time></trkpt><trkpt lat="43.26150018531485" lon="10.740423234518946"><ele>369.0</ele><time>2026-05-01T10:05:48Z</time></trkpt><trkpt lat="43.2615551767768" lon="10.740561193900675"><ele>371.0</ele><time>2026-05-01T10:05:49Z</time></trkpt><trkpt lat="43.261599415541426" lon="10.740673564478348"><ele>373.0</ele><time>2026-05-01T10:05:50Z</time></trkpt><trkpt lat="43.26164189185673" lon="10.740755576699335"><ele>375.0</ele><time>2026-05-01T10:05:51Z</time></trkpt><trkpt lat="43.26169769121768" lon="10.740828871688144"><ele>375.0</ele><time>2026-05-01T10:05:52Z</time></trkpt><trkpt lat="43.26177518795459" lon="10.740904083888884"><ele>375.0</ele><time>2026-05-01T10:05:53Z</time></trkpt><trkpt lat="43.26183379100641" lon="10.740996372987748"><ele>375.0</ele><time>2026-05-01T10:05:54Z</time></trkpt><trkpt lat="43.261906395620834" lon="10.741063384617409"><ele>375.0</ele><time>2026-05-01T10:05:55Z</time></trkpt><trkpt lat="43.26192368845306" lon="10.741194423665643"><ele>375.0</ele><time>2026-05-01T10:05:56Z</time></trkpt><trkpt lat="43.26198565318414" lon="10.741291316435625"><ele>377.4</ele><time>2026-05-01T10:05:57Z</time></trkpt><trkpt lat="43.262042722748646" lon="10.74139877822333"><ele>379.8</ele><time>2026-05-01T10:05:58Z</time></trkpt><trkpt lat="43.262123922579846" lon="10.7415236270949"><ele>382.20000000000005</ele><time>2026-05-01T10:05:59Z</time></trkpt><trkpt lat="43.26218159334687" lon="10.741629406182332"><ele>384.6</ele><time>2026-05-01T10:06:00Z</time></trkpt><trkpt lat="43.26216426386342" lon="10.741737713556706"><ele>387.0</ele><time>2026-05-01T10:06:02Z</time></trkpt><trkpt lat="43.26206620203" lon="10.741802059309048"><ele>387.0</ele><time>2026-05-01T10:06:04Z</time></trkpt><trkpt lat="43.26197536366174" lon="10.741816239045637"><ele>387.0</ele><time>2026-05-01T10:06:05Z</time></trkpt><trkpt lat="43.26188592877788" lon="10.741808389732968"><ele>387.0</ele><time>2026-05-01T10:06:06Z</time></trkpt><trkpt lat="43.26177658087787" lon="10.741779753474923"><ele>387.0</ele><time>2026-05-01T10:06:07Z</time></trkpt><trkpt lat="43.2616881194302" lon="10.741761433709756"><ele>387.0</ele><time>2026-05-01T10:06:08Z</time></trkpt><trkpt lat="43.2615931956255" lon="10.74181319498935"><ele>390.8</ele><time>2026-05-01T10:06:10Z</time></trkpt><trkpt lat="43.261560649037364" lon="10.741951654220406"><ele>394.6</ele><time>2026-05-01T10:06:12Z</time></trkpt><trkpt lat="43.26162472247771" lon="10.742058759704722"><ele>398.40000000000003</ele><time>2026-05-01T10:06:13Z</time></trkpt><trkpt lat="43.261726123761036" lon="10.742094931254485"><ele>402.20000000000005</ele><time>2026-05-01T10:06:14Z</time></trkpt><trkpt lat="43.26181826325674" lon="10.742138179590667"><ele>406.0</ele><time>2026-05-01T10:06:15Z</time></trkpt><trkpt lat="43.26191867135105" lon="10.74218581134059"><ele>406.0</ele><time>2026-05-01T10:06:16Z</time></trkpt><trkpt lat="43.262029918597065" lon="10.742246928954431"><ele>406.0</ele><time>2026-05-01T10:06:17Z</time></trkpt><trkpt lat="43.26214131931227" lon="10.742300520922997"><ele>406.0</ele><time>2026-05-01T10:06:18Z</time></trkpt><trkpt lat="43.26222491048051" lon="10.742352148479526"><ele>406.0</ele><time>2026-05-01T10:06:19Z</time></trkpt><trkpt lat="43.262311801370494" lon="10.742387389872578"><ele>406.0</ele><time>2026-05-01T10:06:20Z</time></trkpt><trkpt lat="43.262415262425066" lon="10.742403733246276"><ele>405.5</ele><time>2026-05-01T10:06:21Z</time></trkpt><trkpt lat="43.262527964675975" lon="10.742413508778904"><ele>405.0</ele><time>2026-05-01T10:06:22Z</time></trkpt><trkpt lat="43.26265696293349" lon="10.742422973240272"><ele>404.5</ele><time>2026-05-01T10:06:23Z</time></trkpt><trkpt lat="43.26278056849678" lon="10.742441742104017"><ele>404.0</ele><time>2026-05-01T10:06:24Z</time></trkpt><trkpt lat="43.26286976208973" lon="10.742449872848464"><ele>404.0</ele><time>2026-05-01T10:06:25Z</time></trkpt><trkpt lat="43.26294944129713" lon="10.742524613036197"><ele>404.0</ele><time>2026-05-01T10:06:27Z</time></trkpt><trkpt lat="43.262919915324076" lon="10.742664584520686"><ele>404.0</ele><time>2026-05-01T10:06:29Z</time></trkpt><trkpt lat="43.262926567330524" lon="10.742756239294268"><ele>404.0</ele><time>2026-05-01T10:06:30Z</time></trkpt><trkpt lat="43.26292685438857" lon="10.742897789203967"><ele>404.0</ele><time>2026-05-01T10:06:31Z</time></trkpt><trkpt lat="43.26291982936502" lon="10.743043843062493"><ele>407.6</ele><time>2026-05-01T10:06:32Z</time></trkpt><trkpt lat="43.26289621069784" lon="10.74316932982902"><ele>411.2</ele><time>2026-05-01T10:06:33Z</time></trkpt><trkpt lat="43.2628633596639" lon="10.743311457456866"><ele>414.8</ele><time>2026-05-01T10:06:34Z</time></trkpt><trkpt lat="43.26285777067929" lon="10.743452770376189"><ele>418.40000000000003</ele><time>2026-05-01T10:06:35Z</time></trkpt><trkpt lat="43.26284273446003" lon="10.743589199687449"><ele>422.0</ele><time>2026-05-01T10:06:36Z</time></trkpt><trkpt lat="43.262824098578314" lon="10.74374233547889"><ele>423.40000000000003</ele><time>2026-05-01T10:06:37Z</time></trkpt><trkpt lat="43.26279976248914" lon="10.74390476456502"><ele>424.8</ele><time>2026-05-01T10:06:38Z</time></trkpt><trkpt lat="43.262769160607824" lon="10.744077222186117"><ele>426.2</ele><time>2026-05-01T10:06:39Z</time></trkpt><trkpt lat="43.26273958608707" lon="10.74420528381082"><ele>427.6</ele><time>2026-05-01T10:06:40Z</time></trkpt><trkpt lat="43.26270299347905" lon="10.744295386525106"><ele>429.0</ele><time>2026-05-01T10:06:41Z</time></trkpt><trkpt lat="43.262680765266325" lon="10.744408232861753"><ele>429.2</ele><time>2026-05-01T10:06:42Z</time></trkpt><trkpt lat="43.262643763526654" lon="10.74453391127154"><ele>429.4</ele><time>2026-05-01T10:06:43Z</time></trkpt><trkpt lat="43.2625887121355" lon="10.744693062323911"><ele>429.6</ele><time>2026-05-01T10:06:44Z</time></trkpt><trkpt lat="43.26252693286274" lon="10.744832187943496"><ele>429.8</ele><time>2026-05-01T10:06:45Z</time></trkpt><trkpt lat="43.26247651328824" lon="10.744922321008957"><ele>430.0</ele><time>2026-05-01T10:06:46Z</time></trkpt><trkpt lat="43.2623827250775" lon="10.745018305890394"><ele>430.00000000000006</ele><time>2026-05-01T10:06:48Z</time></trkpt><trkpt lat="43.262316328368435" lon="10.74508960967388"><ele>430.0</ele><time>2026-05-01T10:06:49Z</time></trkpt><trkpt lat="43.26223148259382" lon="10.745163747254939"><ele>430.0</ele><time>2026-05-01T10:06:50Z</time></trkpt><trkpt lat="43.26216838694949" lon="10.745235735879463"><ele>430.0</ele><time>2026-05-01T10:06:51Z</time></trkpt><trkpt lat="43.262154244305364" lon="10.745360558582497"><ele>430.00000000000006</ele><time>2026-05-01T10:06:53Z</time></trkpt><trkpt lat="43.26217158718413" lon="10.74545046574686"><ele>430.0</ele><time>2026-05-01T10:06:54Z</time></trkpt><trkpt lat="43.26215069558148" lon="10.745579359943823"><ele>433.8</ele><time>2026-05-01T10:06:55Z</time></trkpt><trkpt lat="43.26214304817212" lon="10.745683735401357"><ele>437.6</ele><time>2026-05-01T10:06:56Z</time></trkpt><trkpt lat="43.26209225157761" lon="10.745860818719697"><ele>441.4</ele><time>2026-05-01T10:06:58Z</time></trkpt><trkpt lat="43.26207147860725" lon="10.745967465516712"><ele>445.2</ele><time>2026-05-01T10:06:59Z</time></trkpt><trkpt lat="43.262085611507416" lon="10.746117236776103"><ele>449.0</ele><time>2026-05-01T10:07:01Z</time></trkpt><trkpt lat="43.26216643351371" lon="10.74623436982946"><ele>450.2</ele><time>2026-05-01T10:07:03Z</time></trkpt><trkpt lat="43.262264534467384" lon="10.746209518721505"><ele>451.4</ele><time>2026-05-01T10:07:04Z</time></trkpt><trkpt lat="43.262360544455326" lon="10.746182171725822"><ele>452.6</ele><time>2026-05-01T10:07:05Z</time></trkpt><trkpt lat="43.26246058076202" lon="10.746131032858298"><ele>453.8</ele><time>2026-05-01T10:07:06Z</time></trkpt><trkpt lat="43.26255016123974" lon="10.7460932571725"><ele>455.0</ele><time>2026-05-01T10:07:07Z</time></trkpt><trkpt lat="43.26265095343819" lon="10.746072741281143"><ele>455.0</ele><time>2026-05-01T10:07:08Z</time></trkpt><trkpt lat="43.26275057216229" lon="10.74607246756467"><ele>455.0</ele><time>2026-05-01T10:07:09Z</time></trkpt><trkpt lat="43.26284666828288" lon="10.745996610482804"><ele>455.0</ele><time>2026-05-01T10:07:10Z</time></trkpt><trkpt lat="43.26292873795991" lon="10.745876798384053"><ele>455.0</ele><time>2026-05-01T10:07:11Z</time></trkpt><trkpt lat="43.263021185400646" lon="10.745779701898442"><ele>455.0</ele><time>2026-05-01T10:07:12Z</time></trkpt><trkpt lat="43.263099618436755" lon="10.745730904095048"><ele>453.2</ele><time>2026-05-01T10:07:13Z</time></trkpt><trkpt lat="43.26318950423668" lon="10.745704648792715"><ele>451.4</ele><time>2026-05-01T10:07:14Z</time></trkpt><trkpt lat="43.26331592156724" lon="10.745661060233886"><ele>449.6</ele><time>2026-05-01T10:07:15Z</time></trkpt><trkpt lat="43.26342230225401" lon="10.745631949352992"><ele>447.8</ele><time>2026-05-01T10:07:16Z</time></trkpt><trkpt lat="43.26351243180071" lon="10.745623765780264"><ele>446.0</ele><time>2026-05-01T10:07:17Z</time></trkpt><trkpt lat="43.26358032639039" lon="10.745630493651676"><ele>445.99999999999994</ele><time>2026-05-01T10:07:18Z</time></trkpt><trkpt lat="43.263654949687016" lon="10.745680683931646"><ele>446.0</ele><time>2026-05-01T10:07:20Z</time></trkpt><trkpt lat="43.263653635479706" lon="10.74578539200336"><ele>446.0</ele><time>2026-05-01T10:07:21Z</time></trkpt><trkpt lat="43.26364340080034" lon="10.74587602240908"><ele>446.0</ele><time>2026-05-01T10:07:22Z</time></trkpt><trkpt lat="43.26363505947979" lon="10.746039097698704"><ele>445.99999999999994</ele><time>2026-05-01T10:07:24Z</time></trkpt><trkpt lat="43.26361353940399" lon="10.746126240632027"><ele>446.0</ele><time>2026-05-01T10:07:25Z</time></trkpt><trkpt lat="43.26358065746832" lon="10.746215225495321"><ele>447.4</ele><time>2026-05-01T10:07:26Z</time></trkpt><trkpt lat="43.26354099358477" lon="10.746294325229144"><ele>448.8</ele><time>2026-05-01T10:07:27Z</time></trkpt><trkpt lat="43.26350546355114" lon="10.746379210321464"><ele>450.19999999999993</ele><time>2026-05-01T10:07:28Z</time></trkpt><trkpt lat="43.263457483766" lon="10.746488629619165"><ele>451.59999999999997</ele><time>2026-05-01T10:07:29Z</time></trkpt><trkpt lat="43.26339728911959" lon="10.746608639374559"><ele>453.0</ele><time>2026-05-01T10:07:30Z</time></trkpt><trkpt lat="43.26332866204906" lon="10.746748460004282"><ele>453.0</ele><time>2026-05-01T10:07:31Z</time></trkpt><trkpt lat="43.263272085899665" lon="10.746875991247709"><ele>452.99999999999994</ele><time>2026-05-01T10:07:32Z</time></trkpt><trkpt lat="43.26321994745701" lon="10.74700205329746"><ele>452.99999999999994</ele><time>2026-05-01T10:07:33Z</time></trkpt><trkpt lat="43.263179152246664" lon="10.747153624484989"><ele>453.0</ele><time>2026-05-01T10:07:34Z</time></trkpt><trkpt lat="43.263174589099506" lon="10.74730745531388"><ele>453.0</ele><time>2026-05-01T10:07:35Z</time></trkpt><trkpt lat="43.26311858951705" lon="10.747424997382751"><ele>452.0</ele><time>2026-05-01T10:07:36Z</time></trkpt><trkpt lat="43.26309336969773" lon="10.747531955567805"><ele>451.0</ele><time>2026-05-01T10:07:37Z</time></trkpt><trkpt lat="43.26305036048709" lon="10.74762097469875"><ele>450.0</ele><time>2026-05-01T10:07:38Z</time></trkpt><trkpt lat="43.26304678095078" lon="10.747723768787553"><ele>449.0</ele><time>2026-05-01T10:07:39Z</time></trkpt><trkpt lat="43.26307524416294" lon="10.747824670704807"><ele>448.0</ele><time>2026-05-01T10:07:40Z</time></trkpt><trkpt lat="43.263146286876754" lon="10.747922578905076"><ele>447.0</ele><time>2026-05-01T10:07:41Z</time></trkpt><trkpt lat="43.26320566604742" lon="10.74804122425871"><ele>447.0</ele><time>2026-05-01T10:07:42Z</time></trkpt><trkpt lat="43.263252650961135" lon="10.748161594931897"><ele>447.00000000000006</ele><time>2026-05-01T10:07:43Z</time></trkpt><trkpt lat="43.26331093490407" lon="10.748296634847865"><ele>447.00000000000006</ele><time>2026-05-01T10:07:44Z</time></trkpt><trkpt lat="43.263373138132934" lon="10.748395431835997"><ele>447.0</ele><time>2026-05-01T10:07:45Z</time></trkpt><trkpt lat="43.26343533868778" lon="10.748456209354218"><ele>447.0</ele><time>2026-05-01T10:07:46Z</time></trkpt><trkpt lat="43.26352405935694" lon="10.748488441548693"><ele>447.0</ele><time>2026-05-01T10:07:47Z</time></trkpt><trkpt lat="43.263595474390435" lon="10.748540132661892"><ele>447.00000000000006</ele><time>2026-05-01T10:07:48Z</time></trkpt><trkpt lat="43.26365346879047" lon="10.74864117217887"><ele>447.00000000000006</ele><time>2026-05-01T10:07:50Z</time></trkpt><trkpt lat="43.26360433619415" lon="10.748801693569455"><ele>447.0</ele><time>2026-05-01T10:07:52Z</time></trkpt><trkpt lat="43.26351993896539" lon="10.748858089307376"><ele>447.0</ele><time>2026-05-01T10:07:53Z</time></trkpt><trkpt lat="43.263457972799145" lon="10.748941497249943"><ele>446.0</ele><time>2026-05-01T10:07:54Z</time></trkpt><trkpt lat="43.26338292468608" lon="10.748992771130787"><ele>445.00000000000006</ele><time>2026-05-01T10:07:55Z</time></trkpt><trkpt lat="43.26331092415885" lon="10.7490718653849"><ele>444.00000000000006</ele><time>2026-05-01T10:07:56Z</time></trkpt><trkpt lat="43.263249580942386" lon="10.749188433586806"><ele>443.0</ele><time>2026-05-01T10:07:57Z</time></trkpt><trkpt lat="43.2631728934698" lon="10.749303790758667"><ele>442.0</ele><time>2026-05-01T10:07:58Z</time></trkpt><trkpt lat="43.263103559316306" lon="10.749431027646473"><ele>446.20000000000005</ele><time>2026-05-01T10:07:59Z</time></trkpt><trkpt lat="43.26302840813892" lon="10.749531718351308"><ele>450.40000000000003</ele><time>2026-05-01T10:08:00Z</time></trkpt><trkpt lat="43.26295744868981" lon="10.74966220607326"><ele>454.59999999999997</ele><time>2026-05-01T10:08:01Z</time></trkpt><trkpt lat="43.26288602849742" lon="10.749774112137338"><ele>458.79999999999995</ele><time>2026-05-01T10:08:02Z</time></trkpt><trkpt lat="43.26282238906912" lon="10.749885739833367"><ele>463.0</ele><time>2026-05-01T10:08:03Z</time></trkpt><trkpt lat="43.26277448137734" lon="10.749982462609752"><ele>463.00000000000006</ele><time>2026-05-01T10:08:04Z</time></trkpt><trkpt lat="43.262751258507414" lon="10.750069672891886"><ele>463.0</ele><time>2026-05-01T10:08:05Z</time></trkpt><trkpt lat="43.26273476338148" lon="10.750171725662009"><ele>463.0</ele><time>2026-05-01T10:08:07Z</time></trkpt><trkpt lat="43.262761123290844" lon="10.750255168876834"><ele>463.0</ele><time>2026-05-01T10:08:08Z</time></trkpt><trkpt lat="43.26277442634492" lon="10.750372076752855"><ele>463.00000000000006</ele><time>2026-05-01T10:08:09Z</time></trkpt><trkpt lat="43.26282333738746" lon="10.75052358907644"><ele>463.0</ele><time>2026-05-01T10:08:10Z</time></trkpt><trkpt lat="43.262893471000424" lon="10.750627306520567"><ele>462.2</ele><time>2026-05-01T10:08:11Z</time></trkpt><trkpt lat="43.26297121628323" lon="10.750724644227486"><ele>461.4</ele><time>2026-05-01T10:08:12Z</time></trkpt><trkpt lat="43.26306295770937" lon="10.750830391164156"><ele>460.59999999999997</ele><time>2026-05-01T10:08:13Z</time></trkpt><trkpt lat="43.26314548571032" lon="10.750909607601681"><ele>459.79999999999995</ele><time>2026-05-01T10:08:14Z</time></trkpt><trkpt lat="43.26321536552063" lon="10.750989828830996"><ele>459.0</ele><time>2026-05-01T10:08:15Z</time></trkpt><trkpt lat="43.26330888153431" lon="10.75105034049482"><ele>459.0</ele><time>2026-05-01T10:08:16Z</time></trkpt><trkpt lat="43.263395498639134" lon="10.751150427440649"><ele>459.0</ele><time>2026-05-01T10:08:17Z</time></trkpt><trkpt lat="43.263458299559886" lon="10.751226523396106"><ele>459.0</ele><time>2026-05-01T10:08:18Z</time></trkpt><trkpt lat="43.263493135133935" lon="10.751302367170851"><ele>459.0</ele><time>2026-05-01T10:08:19Z</time></trkpt><trkpt lat="43.2635232852441" lon="10.751393541705596"><ele>459.0</ele><time>2026-05-01T10:08:20Z</time></trkpt><trkpt lat="43.2635265942712" lon="10.751501033205818"><ele>459.0</ele><time>2026-05-01T10:08:21Z</time></trkpt><trkpt lat="43.26349697772118" lon="10.751619776504127"><ele>459.0</ele><time>2026-05-01T10:08:22Z</time></trkpt><trkpt lat="43.26349619159417" lon="10.751769106475441"><ele>459.0</ele><time>2026-05-01T10:08:23Z</time></trkpt><trkpt lat="43.2634870472285" lon="10.751886783729644"><ele>459.0</ele><time>2026-05-01T10:08:24Z</time></trkpt><trkpt lat="43.26351604477539" lon="10.752017682636579"><ele>459.0</ele><time>2026-05-01T10:08:25Z</time></trkpt><trkpt lat="43.263555320745624" lon="10.7521581306066"><ele>459.0</ele><time>2026-05-01T10:08:26Z</time></trkpt><trkpt lat="43.26359420901067" lon="10.752367111812063"><ele>458.6</ele><time>2026-05-01T10:08:27Z</time></trkpt><trkpt lat="43.26364721271641" lon="10.752552372093623"><ele>458.2</ele><time>2026-05-01T10:08:28Z</time></trkpt><trkpt lat="43.26370096072911" lon="10.752697711725876"><ele>457.80000000000007</ele><time>2026-05-01T10:08:29Z</time></trkpt><trkpt lat="43.263718822177694" lon="10.752822033775752"><ele>457.40000000000003</ele><time>2026-05-01T10:08:30Z</time></trkpt><trkpt lat="43.26372299936638" lon="10.75292097912159"><ele>457.0</ele><time>2026-05-01T10:08:31Z</time></trkpt><trkpt lat="43.263691610659684" lon="10.75300722458018"><ele>457.00000000000006</ele><time>2026-05-01T10:08:32Z</time></trkpt><trkpt lat="43.26366415001844" lon="10.753133861059585"><ele>457.0</ele><time>2026-05-01T10:08:33Z</time></trkpt><trkpt lat="43.26365483762937" lon="10.75323750357127"><ele>457.0</ele><time>2026-05-01T10:08:35Z</time></trkpt><trkpt lat="43.263635963588364" lon="10.753345545465699"><ele>457.0</ele><time>2026-05-01T10:08:44Z</time></trkpt><trkpt lat="43.263580450920024" lon="10.753470105935014"><ele>457.00000000000006</ele><time>2026-05-01T10:08:46Z</time></trkpt><trkpt lat="43.2635768927898" lon="10.753568437552461"><ele>457.0</ele><time>2026-05-01T10:08:48Z</time></trkpt><trkpt lat="43.26357616817687" lon="10.75369892325782"><ele>454.8</ele><time>2026-05-01T10:09:00Z</time></trkpt><trkpt lat="43.26362561571412" lon="10.753768451430586"><ele>452.6</ele><time>2026-05-01T10:09:01Z</time></trkpt><trkpt lat="43.26365562594204" lon="10.753907076190277"><ele>450.40000000000003</ele><time>2026-05-01T10:09:02Z</time></trkpt><trkpt lat="43.263689958195705" lon="10.754060979747216"><ele>448.20000000000005</ele><time>2026-05-01T10:09:03Z</time></trkpt><trkpt lat="43.263727399138745" lon="10.754220790146462"><ele>446.0</ele><time>2026-05-01T10:09:04Z</time></trkpt><trkpt lat="43.26377825839674" lon="10.754334852465856"><ele>447.6</ele><time>2026-05-01T10:09:05Z</time></trkpt><trkpt lat="43.26382283691702" lon="10.754461610775428"><ele>449.20000000000005</ele><time>2026-05-01T10:09:06Z</time></trkpt><trkpt lat="43.26387668291087" lon="10.754584817266304"><ele>450.79999999999995</ele><time>2026-05-01T10:09:07Z</time></trkpt><trkpt lat="43.26392860156541" lon="10.754689138912621"><ele>452.4</ele><time>2026-05-01T10:09:08Z</time></trkpt><trkpt lat="43.263992697421344" lon="10.754762680760372"><ele>454.0</ele><time>2026-05-01T10:09:09Z</time></trkpt><trkpt lat="43.26406036292182" lon="10.75481626683975"><ele>454.0</ele><time>2026-05-01T10:09:10Z</time></trkpt><trkpt lat="43.26414399206533" lon="10.754880344388658"><ele>454.0</ele><time>2026-05-01T10:09:11Z</time></trkpt><trkpt lat="43.26424058030106" lon="10.754917105368834"><ele>454.0</ele><time>2026-05-01T10:09:12Z</time></trkpt><trkpt lat="43.26435971933774" lon="10.754940903524018"><ele>454.0</ele><time>2026-05-01T10:09:13Z</time></trkpt><trkpt lat="43.26448832968509" lon="10.754943841858491"><ele>454.0</ele><time>2026-05-01T10:09:14Z</time></trkpt><trkpt lat="43.264593318338044" lon="10.754955712848119"><ele>454.0</ele><time>2026-05-01T10:09:15Z</time></trkpt><trkpt lat="43.26469530398174" lon="10.754995282822874"><ele>454.0</ele><time>2026-05-01T10:09:16Z</time></trkpt><trkpt lat="43.26477999437846" lon="10.755062172620766"><ele>454.0</ele><time>2026-05-01T10:09:17Z</time></trkpt><trkpt lat="43.26486847179662" lon="10.75512495281243"><ele>454.0</ele><time>2026-05-01T10:09:18Z</time></trkpt><trkpt lat="43.2649732817767" lon="10.755148566814437"><ele>454.0</ele><time>2026-05-01T10:09:19Z</time></trkpt><trkpt lat="43.26508629215927" lon="10.755152004306352"><ele>455.79999999999995</ele><time>2026-05-01T10:09:20Z</time></trkpt><trkpt lat="43.265176465683666" lon="10.755144643296351"><ele>457.59999999999997</ele><time>2026-05-01T10:09:21Z</time></trkpt><trkpt lat="43.265271552395944" lon="10.755131241196697"><ele>459.4</ele><time>2026-05-01T10:09:22Z</time></trkpt><trkpt lat="43.26536785851533" lon="10.755098781734493"><ele>461.2</ele><time>2026-05-01T10:09:23Z</time></trkpt><trkpt lat="43.26545641439138" lon="10.755060795033422"><ele>463.0</ele><time>2026-05-01T10:09:24Z</time></trkpt><trkpt lat="43.265556069599384" lon="10.755035038593679"><ele>461.00000000000006</ele><time>2026-05-01T10:09:25Z</time></trkpt><trkpt lat="43.265647205274696" lon="10.755018055457846"><ele>459.0</ele><time>2026-05-01T10:09:26Z</time></trkpt><trkpt lat="43.26574203390727" lon="10.755020968782576"><ele>457.0</ele><time>2026-05-01T10:09:27Z</time></trkpt><trkpt lat="43.265831386585184" lon="10.755016015516812"><ele>455.0</ele><time>2026-05-01T10:09:28Z</time></trkpt><trkpt lat="43.26591363136845" lon="10.754994499690698"><ele>453.00000000000006</ele><time>2026-05-01T10:09:29Z</time></trkpt><trkpt lat="43.265994686738765" lon="10.754963292502637"><ele>451.0</ele><time>2026-05-01T10:09:30Z</time></trkpt><trkpt lat="43.26607684904519" lon="10.754954871083415"><ele>451.0</ele><time>2026-05-01T10:09:31Z</time></trkpt><trkpt lat="43.26615389863419" lon="10.75492988688768"><ele>451.0</ele><time>2026-05-01T10:09:32Z</time></trkpt><trkpt lat="43.26624543759795" lon="10.75492628606398"><ele>451.0</ele><time>2026-05-01T10:09:33Z</time></trkpt><trkpt lat="43.26634643175152" lon="10.754947414201778"><ele>451.0</ele><time>2026-05-01T10:09:34Z</time></trkpt><trkpt lat="43.266443043652586" lon="10.754992500601144"><ele>451.0</ele><time>2026-05-01T10:09:35Z</time></trkpt><trkpt lat="43.26653966776306" lon="10.755059229304617"><ele>448.75</ele><time>2026-05-01T10:09:36Z</time></trkpt><trkpt lat="43.26663633528657" lon="10.755137614735213"><ele>446.5</ele><time>2026-05-01T10:09:37Z</time></trkpt><trkpt lat="43.26673208668424" lon="10.75521897912914"><ele>444.25</ele><time>2026-05-01T10:09:38Z</time></trkpt><trkpt lat="43.26683898981775" lon="10.755301209157434"><ele>442.0</ele><time>2026-05-01T10:09:39Z</time></trkpt><trkpt lat="43.26695363521961" lon="10.755380730384553"><ele>442.0</ele><time>2026-05-01T10:09:40Z</time></trkpt><trkpt lat="43.2670734326899" lon="10.755441109520463"><ele>442.0</ele><time>2026-05-01T10:09:41Z</time></trkpt><trkpt lat="43.267181972530494" lon="10.755487233909598"><ele>442.0</ele><time>2026-05-01T10:09:42Z</time></trkpt><trkpt lat="43.267290430411805" lon="10.755519768729677"><ele>442.0</ele><time>2026-05-01T10:09:43Z</time></trkpt><trkpt lat="43.267397484810274" lon="10.755522070224474"><ele>442.0</ele><time>2026-05-01T10:09:44Z</time></trkpt><trkpt lat="43.26750991994789" lon="10.755486080666365"><ele>442.0</ele><time>2026-05-01T10:09:45Z</time></trkpt><trkpt lat="43.267616149062896" lon="10.755422139934034"><ele>442.0</ele><time>2026-05-01T10:09:46Z</time></trkpt><trkpt lat="43.26772081515987" lon="10.75533262160197"><ele>442.0</ele><time>2026-05-01T10:09:47Z</time></trkpt><trkpt lat="43.26781344429471" lon="10.755221712110446"><ele>441.40000000000003</ele><time>2026-05-01T10:09:48Z</time></trkpt><trkpt lat="43.26788661259901" lon="10.755109986373204"><ele>440.80000000000007</ele><time>2026-05-01T10:09:49Z</time></trkpt><trkpt lat="43.26794263130758" lon="10.755051253389777"><ele>440.2</ele><time>2026-05-01T10:09:50Z</time></trkpt><trkpt lat="43.268013475489504" lon="10.75503673017618"><ele>439.6</ele><time>2026-05-01T10:09:51Z</time></trkpt><trkpt lat="43.26812145526512" lon="10.755103184509315"><ele>439.0</ele><time>2026-05-01T10:09:53Z</time></trkpt><trkpt lat="43.268176220789165" lon="10.75519002613579"><ele>440.0</ele><time>2026-05-01T10:09:54Z</time></trkpt><trkpt lat="43.26823339823481" lon="10.755310480752721"><ele>441.0</ele><time>2026-05-01T10:09:55Z</time></trkpt><trkpt lat="43.26830303053597" lon="10.75545695147146"><ele>442.0</ele><time>2026-05-01T10:09:56Z</time></trkpt><trkpt lat="43.26840405573613" lon="10.755602921899422"><ele>443.0</ele><time>2026-05-01T10:09:57Z</time></trkpt><trkpt lat="43.268521916376606" lon="10.755744117887186"><ele>443.0</ele><time>2026-05-01T10:09:58Z</time></trkpt><trkpt lat="43.268655658178766" lon="10.755891155466065"><ele>443.0</ele><time>2026-05-01T10:09:59Z</time></trkpt><trkpt lat="43.26879455751067" lon="10.756049528848207"><ele>443.0</ele><time>2026-05-01T10:10:00Z</time></trkpt><trkpt lat="43.26892043390276" lon="10.756191904271368"><ele>442.25</ele><time>2026-05-01T10:10:01Z</time></trkpt><trkpt lat="43.26903889091976" lon="10.756317005725016"><ele>441.5</ele><time>2026-05-01T10:10:02Z</time></trkpt><trkpt lat="43.269161737665065" lon="10.756429157651727"><ele>440.75</ele><time>2026-05-01T10:10:03Z</time></trkpt><trkpt lat="43.269287873485304" lon="10.756527850050992"><ele>440.0</ele><time>2026-05-01T10:10:04Z</time></trkpt><trkpt lat="43.26941296968103" lon="10.756625737606127"><ele>440.0</ele><time>2026-05-01T10:10:05Z</time></trkpt><trkpt lat="43.26953334451341" lon="10.756720961129396"><ele>440.0</ele><time>2026-05-01T10:10:06Z</time></trkpt><trkpt lat="43.2696562449203" lon="10.756796866776872"><ele>440.0</ele><time>2026-05-01T10:10:07Z</time></trkpt><trkpt lat="43.269769570513" lon="10.756845515255074"><ele>440.0</ele><time>2026-05-01T10:10:08Z</time></trkpt><trkpt lat="43.26989407638703" lon="10.756861846128082"><ele>440.25</ele><time>2026-05-01T10:10:09Z</time></trkpt><trkpt lat="43.27003245044332" lon="10.75686213952084"><ele>440.5</ele><time>2026-05-01T10:10:10Z</time></trkpt><trkpt lat="43.27016860930994" lon="10.756878293852433"><ele>440.75</ele><time>2026-05-01T10:10:11Z</time></trkpt><trkpt lat="43.27028953338546" lon="10.756897608206346"><ele>441.0</ele><time>2026-05-01T10:10:12Z</time></trkpt><trkpt lat="43.270402359917" lon="10.75693187189283"><ele>441.0</ele><time>2026-05-01T10:10:13Z</time></trkpt><trkpt lat="43.27051962721347" lon="10.756995548674931"><ele>441.0</ele><time>2026-05-01T10:10:14Z</time></trkpt><trkpt lat="43.27061862967671" lon="10.75706411159258"><ele>441.0</ele><time>2026-05-01T10:10:15Z</time></trkpt><trkpt lat="43.27069974100755" lon="10.75713392283797"><ele>441.0</ele><time>2026-05-01T10:10:16Z</time></trkpt><trkpt lat="43.27076574009669" lon="10.757222153615087"><ele>441.0</ele><time>2026-05-01T10:10:17Z</time></trkpt><trkpt lat="43.270800428170304" lon="10.757325735891065"><ele>443.4</ele><time>2026-05-01T10:10:18Z</time></trkpt><trkpt lat="43.27077641737661" lon="10.7574363433986"><ele>445.8</ele><time>2026-05-01T10:10:19Z</time></trkpt><trkpt lat="43.270766635110704" lon="10.757560323847352"><ele>448.19999999999993</ele><time>2026-05-01T10:10:20Z</time></trkpt><trkpt lat="43.270769083811516" lon="10.75770079312232"><ele>450.59999999999997</ele><time>2026-05-01T10:10:21Z</time></trkpt><trkpt lat="43.27075470978392" lon="10.757813860611808"><ele>453.0</ele><time>2026-05-01T10:10:22Z</time></trkpt><trkpt lat="43.270792600309" lon="10.757927676642241"><ele>453.59999999999997</ele><time>2026-05-01T10:10:23Z</time></trkpt><trkpt lat="43.27083713117935" lon="10.758054939953809"><ele>454.19999999999993</ele><time>2026-05-01T10:10:24Z</time></trkpt><trkpt lat="43.270896015589685" lon="10.758185786495218"><ele>454.8</ele><time>2026-05-01T10:10:25Z</time></trkpt><trkpt lat="43.27093665352369" lon="10.75833631377857"><ele>455.4</ele><time>2026-05-01T10:10:26Z</time></trkpt><trkpt lat="43.27094955636075" lon="10.75845103759966"><ele>456.0</ele><time>2026-05-01T10:10:27Z</time></trkpt><trkpt lat="43.270917452650735" lon="10.75853206284837"><ele>457.0</ele><time>2026-05-01T10:10:28Z</time></trkpt><trkpt lat="43.27089625742836" lon="10.758672090308773"><ele>458.0</ele><time>2026-05-01T10:10:29Z</time></trkpt><trkpt lat="43.27087140028847" lon="10.75883818610638"><ele>459.0</ele><time>2026-05-01T10:10:30Z</time></trkpt><trkpt lat="43.2708409861481" lon="10.758997613113003"><ele>460.0</ele><time>2026-05-01T10:10:31Z</time></trkpt><trkpt lat="43.27080166249403" lon="10.759142040160837"><ele>460.00000000000006</ele><time>2026-05-01T10:10:32Z</time></trkpt><trkpt lat="43.27075258109522" lon="10.75925324988228"><ele>460.0</ele><time>2026-05-01T10:10:33Z</time></trkpt><trkpt lat="43.270742196141896" lon="10.75935022141447"><ele>460.0</ele><time>2026-05-01T10:10:34Z</time></trkpt><trkpt lat="43.2707505796027" lon="10.759462607353594"><ele>460.0</ele><time>2026-05-01T10:10:35Z</time></trkpt><trkpt lat="43.270787462330134" lon="10.759563488621996"><ele>460.00000000000006</ele><time>2026-05-01T10:10:36Z</time></trkpt><trkpt lat="43.270823903277744" lon="10.759691478105017"><ele>460.0</ele><time>2026-05-01T10:10:37Z</time></trkpt><trkpt lat="43.2708332141796" lon="10.759813743095936"><ele>460.25</ele><time>2026-05-01T10:10:38Z</time></trkpt><trkpt lat="43.27082472978667" lon="10.759948284940451"><ele>460.5</ele><time>2026-05-01T10:10:39Z</time></trkpt><trkpt lat="43.270798232583346" lon="10.760122722492115"><ele>460.75</ele><time>2026-05-01T10:10:40Z</time></trkpt><trkpt lat="43.270779926436234" lon="10.760310132412197"><ele>461.0</ele><time>2026-05-01T10:10:41Z</time></trkpt><trkpt lat="43.27077250397443" lon="10.760514275313305"><ele>461.0</ele><time>2026-05-01T10:10:42Z</time></trkpt><trkpt lat="43.27077187891034" lon="10.760739285731665"><ele>461.0</ele><time>2026-05-01T10:10:43Z</time></trkpt><trkpt lat="43.27076555642549" lon="10.760905796613578"><ele>461.0</ele><time>2026-05-01T10:10:44Z</time></trkpt><trkpt lat="43.270757797179776" lon="10.761026941688963"><ele>461.0</ele><time>2026-05-01T10:10:45Z</time></trkpt><trkpt lat="43.27080439356661" lon="10.761173625056179"><ele>460.99999999999994</ele><time>2026-05-01T10:10:47Z</time></trkpt><trkpt lat="43.2708700289531" lon="10.761239501744074"><ele>461.0</ele><time>2026-05-01T10:10:48Z</time></trkpt><trkpt lat="43.270941876221634" lon="10.761288726878568"><ele>461.0</ele><time>2026-05-01T10:10:49Z</time></trkpt><trkpt lat="43.271016717305535" lon="10.761318604382716"><ele>461.0</ele><time>2026-05-01T10:10:50Z</time></trkpt><trkpt lat="43.2711078060029" lon="10.761323622583955"><ele>460.99999999999994</ele><time>2026-05-01T10:10:51Z</time></trkpt><trkpt lat="43.27121718309825" lon="10.761315082734427"><ele>461.0</ele><time>2026-05-01T10:10:52Z</time></trkpt><trkpt lat="43.27133181307632" lon="10.761329995466983"><ele>461.0</ele><time>2026-05-01T10:10:53Z</time></trkpt><trkpt lat="43.271436725122484" lon="10.761293539539416"><ele>461.0</ele><time>2026-05-01T10:10:54Z</time></trkpt><trkpt lat="43.27152890335112" lon="10.76126783625277"><ele>461.0</ele><time>2026-05-01T10:10:55Z</time></trkpt><trkpt lat="43.27160255100863" lon="10.761222821949776"><ele>461.0</ele><time>2026-05-01T10:10:56Z</time></trkpt><trkpt lat="43.27167714777174" lon="10.761097432644238"><ele>461.0</ele><time>2026-05-01T10:10:58Z</time></trkpt><trkpt lat="43.27171074529501" lon="10.760983404149139"><ele>463.8</ele><time>2026-05-01T10:10:59Z</time></trkpt><trkpt lat="43.27174408711837" lon="10.760850157867617"><ele>466.6</ele><time>2026-05-01T10:11:00Z</time></trkpt><trkpt lat="43.27177269411085" lon="10.760715936803672"><ele>469.4</ele><time>2026-05-01T10:11:01Z</time></trkpt><trkpt lat="43.27180688086261" lon="10.760563451660596"><ele>472.2</ele><time>2026-05-01T10:11:02Z</time></trkpt><trkpt lat="43.2718427461687" lon="10.760413324675527"><ele>475.0</ele><time>2026-05-01T10:11:03Z</time></trkpt><trkpt lat="43.27188524287461" lon="10.7603087626825"><ele>475.0</ele><time>2026-05-01T10:11:04Z</time></trkpt><trkpt lat="43.2719555395765" lon="10.760205587342949"><ele>475.0</ele><time>2026-05-01T10:11:05Z</time></trkpt><trkpt lat="43.27204353354959" lon="10.760120375685608"><ele>475.0</ele><time>2026-05-01T10:11:06Z</time></trkpt><trkpt lat="43.272136018046865" lon="10.760066166706613"><ele>475.0</ele><time>2026-05-01T10:11:07Z</time></trkpt><trkpt lat="43.27223098149494" lon="10.7600564965686"><ele>475.0</ele><time>2026-05-01T10:11:08Z</time></trkpt><trkpt lat="43.27233760066374" lon="10.760093527278418"><ele>475.2</ele><time>2026-05-01T10:11:09Z</time></trkpt><trkpt lat="43.272446737314944" lon="10.760138679898304"><ele>475.4</ele><time>2026-05-01T10:11:10Z</time></trkpt><trkpt lat="43.27254297061253" lon="10.760158974324614"><ele>475.6</ele><time>2026-05-01T10:11:11Z</time></trkpt><trkpt lat="43.27261014785789" lon="10.76018526933029"><ele>475.8</ele><time>2026-05-01T10:11:12Z</time></trkpt><trkpt lat="43.2726899367158" lon="10.760196725034252"><ele>476.0</ele><time>2026-05-01T10:11:13Z</time></trkpt><trkpt lat="43.27278480065563" lon="10.760204087764684"><ele>477.4</ele><time>2026-05-01T10:11:14Z</time></trkpt><trkpt lat="43.272877908398485" lon="10.760168590739692"><ele>478.8</ele><time>2026-05-01T10:11:15Z</time></trkpt><trkpt lat="43.272969748434484" lon="10.760096041178985"><ele>480.19999999999993</ele><time>2026-05-01T10:11:16Z</time></trkpt><trkpt lat="43.27304763351894" lon="10.759996190300267"><ele>481.59999999999997</ele><time>2026-05-01T10:11:17Z</time></trkpt><trkpt lat="43.273138755463435" lon="10.759864418071732"><ele>483.0</ele><time>2026-05-01T10:11:18Z</time></trkpt><trkpt lat="43.27324347415535" lon="10.759718804599093"><ele>485.5</ele><time>2026-05-01T10:11:19Z</time></trkpt><trkpt lat="43.273353322994346" lon="10.759573430457646"><ele>488.0</ele><time>2026-05-01T10:11:20Z</time></trkpt><trkpt lat="43.273428212364344" lon="10.759454985264378"><ele>490.5</ele><time>2026-05-01T10:11:21Z</time></trkpt><trkpt lat="43.27350537204273" lon="10.759388598888345"><ele>493.0</ele><time>2026-05-01T10:11:23Z</time></trkpt><trkpt lat="43.273505274088905" lon="10.759547559390157"><ele>493.00000000000006</ele><time>2026-05-01T10:11:27Z</time></trkpt><trkpt lat="43.27341616436829" lon="10.7595858078476"><ele>493.0</ele><time>2026-05-01T10:11:28Z</time></trkpt><trkpt lat="43.273327970184404" lon="10.759692403094714"><ele>493.0</ele><time>2026-05-01T10:11:29Z</time></trkpt><trkpt lat="43.27325579942668" lon="10.759789592533835"><ele>493.0</ele><time>2026-05-01T10:11:30Z</time></trkpt><trkpt lat="43.27322510498132" lon="10.75987348071686"><ele>493.00000000000006</ele><time>2026-05-01T10:11:31Z</time></trkpt><trkpt lat="43.2731785986957" lon="10.759938702296807"><ele>493.0</ele><time>2026-05-01T10:11:32Z</time></trkpt><trkpt lat="43.273166347414936" lon="10.760045232072743"><ele>493.0</ele><time>2026-05-01T10:11:33Z</time></trkpt><trkpt lat="43.273187164682305" lon="10.760148202661789"><ele>492.99999999999994</ele><time>2026-05-01T10:11:34Z</time></trkpt><trkpt lat="43.27320692778625" lon="10.760276442354062"><ele>492.99999999999994</ele><time>2026-05-01T10:11:35Z</time></trkpt><trkpt lat="43.27323514044933" lon="10.76043063378018"><ele>493.0</ele><time>2026-05-01T10:11:36Z</time></trkpt><trkpt lat="43.273276461310175" lon="10.760603629220286"><ele>493.0</ele><time>2026-05-01T10:11:37Z</time></trkpt><trkpt lat="43.273307550180206" lon="10.76078604045906"><ele>492.59999999999997</ele><time>2026-05-01T10:11:38Z</time></trkpt><trkpt lat="43.273348522055954" lon="10.760924518912221"><ele>492.19999999999993</ele><time>2026-05-01T10:11:39Z</time></trkpt><trkpt lat="43.27340291988523" lon="10.76102234405513"><ele>491.8</ele><time>2026-05-01T10:11:40Z</time></trkpt><trkpt lat="43.27345828535222" lon="10.76110411804016"><ele>491.4</ele><time>2026-05-01T10:11:41Z</time></trkpt><trkpt lat="43.27354760611207" lon="10.761180583210693"><ele>491.0</ele><time>2026-05-01T10:11:42Z</time></trkpt><trkpt lat="43.27366884027097" lon="10.761266795003607"><ele>488.20000000000005</ele><time>2026-05-01T10:11:43Z</time></trkpt><trkpt lat="43.27375661788522" lon="10.761337320236207"><ele>485.40000000000003</ele><time>2026-05-01T10:11:44Z</time></trkpt><trkpt lat="43.27381048558025" lon="10.76141345397606"><ele>482.6</ele><time>2026-05-01T10:11:45Z</time></trkpt><trkpt lat="43.273843663887895" lon="10.761503681541155"><ele>479.8</ele><time>2026-05-01T10:11:46Z</time></trkpt><trkpt lat="43.27382772104329" lon="10.76165826982709"><ele>477.0</ele><time>2026-05-01T10:11:47Z</time></trkpt><trkpt lat="43.27385531001333" lon="10.76181774268352"><ele>478.0</ele><time>2026-05-01T10:11:48Z</time></trkpt><trkpt lat="43.2738719702429" lon="10.761939493464228"><ele>479.00000000000006</ele><time>2026-05-01T10:11:49Z</time></trkpt><trkpt lat="43.273910774520374" lon="10.762067544720122"><ele>480.00000000000006</ele><time>2026-05-01T10:11:50Z</time></trkpt><trkpt lat="43.273952134913735" lon="10.762174899589185"><ele>481.0</ele><time>2026-05-01T10:11:51Z</time></trkpt><trkpt lat="43.27400285882206" lon="10.762263144983914"><ele>482.0</ele><time>2026-05-01T10:11:52Z</time></trkpt><trkpt lat="43.27407580979412" lon="10.762337382628806"><ele>481.99999999999994</ele><time>2026-05-01T10:11:53Z</time></trkpt><trkpt lat="43.2741581653931" lon="10.762421255465016"><ele>482.0</ele><time>2026-05-01T10:11:54Z</time></trkpt><trkpt lat="43.274241273574226" lon="10.762483060530267"><ele>482.0</ele><time>2026-05-01T10:11:55Z</time></trkpt><trkpt lat="43.27432158366994" lon="10.762520275139554"><ele>482.0</ele><time>2026-05-01T10:11:56Z</time></trkpt><trkpt lat="43.274400788316505" lon="10.762554531072835"><ele>481.99999999999994</ele><time>2026-05-01T10:11:57Z</time></trkpt><trkpt lat="43.27447330135909" lon="10.762580595083913"><ele>482.0</ele><time>2026-05-01T10:11:58Z</time></trkpt><trkpt lat="43.27454681525355" lon="10.762612241302769"><ele>482.0</ele><time>2026-05-01T10:11:59Z</time></trkpt><trkpt lat="43.27461856776387" lon="10.762682557967787"><ele>482.00000000000006</ele><time>2026-05-01T10:12:00Z</time></trkpt><trkpt lat="43.27469994245516" lon="10.762797674979938"><ele>482.00000000000006</ele><time>2026-05-01T10:12:01Z</time></trkpt><trkpt lat="43.27476762258857" lon="10.762907812746159"><ele>482.0</ele><time>2026-05-01T10:12:02Z</time></trkpt><trkpt lat="43.274839769984496" lon="10.763040343192142"><ele>482.0</ele><time>2026-05-01T10:12:03Z</time></trkpt><trkpt lat="43.27489422681962" lon="10.76318870782051"><ele>482.0</ele><time>2026-05-01T10:12:04Z</time></trkpt><trkpt lat="43.274948329800196" lon="10.763326902955399"><ele>482.0</ele><time>2026-05-01T10:12:05Z</time></trkpt><trkpt lat="43.27501971450625" lon="10.763470553157287"><ele>482.0</ele><time>2026-05-01T10:12:06Z</time></trkpt><trkpt lat="43.27509967043442" lon="10.763615646173289"><ele>482.0</ele><time>2026-05-01T10:12:07Z</time></trkpt><trkpt lat="43.27517096217832" lon="10.763778194587166"><ele>479.25</ele><time>2026-05-01T10:12:08Z</time></trkpt><trkpt lat="43.27522884476021" lon="10.763957637442676"><ele>476.5</ele><time>2026-05-01T10:12:09Z</time></trkpt><trkpt lat="43.27528440960656" lon="10.764124822572338"><ele>473.75</ele><time>2026-05-01T10:12:10Z</time></trkpt><trkpt lat="43.2753458898229" lon="10.764274911948586"><ele>471.0</ele><time>2026-05-01T10:12:11Z</time></trkpt><trkpt lat="43.27541542661616" lon="10.76441281710461"><ele>471.0</ele><time>2026-05-01T10:12:12Z</time></trkpt><trkpt lat="43.27547740999708" lon="10.764519159980601"><ele>471.0</ele><time>2026-05-01T10:12:13Z</time></trkpt><trkpt lat="43.275518766552395" lon="10.76460822111183"><ele>471.0</ele><time>2026-05-01T10:12:14Z</time></trkpt><trkpt lat="43.27551785502767" lon="10.764779492441086"><ele>471.0</ele><time>2026-05-01T10:12:16Z</time></trkpt><trkpt lat="43.27550098825847" lon="10.764871937970259"><ele>471.0</ele><time>2026-05-01T10:12:17Z</time></trkpt><trkpt lat="43.275424395095335" lon="10.764885865563336"><ele>471.0</ele><time>2026-05-01T10:12:18Z</time></trkpt><trkpt lat="43.275324244619746" lon="10.764866829365058"><ele>471.0</ele><time>2026-05-01T10:12:20Z</time></trkpt><trkpt lat="43.275240199870574" lon="10.764818497286528"><ele>471.0</ele><time>2026-05-01T10:12:21Z</time></trkpt><trkpt lat="43.275138553260845" lon="10.764792292273528"><ele>471.0</ele><time>2026-05-01T10:12:22Z</time></trkpt><trkpt lat="43.27504001471518" lon="10.76482673102466"><ele>471.0</ele><time>2026-05-01T10:12:23Z</time></trkpt><trkpt lat="43.27496888158546" lon="10.764861913880912"><ele>471.0</ele><time>2026-05-01T10:12:24Z</time></trkpt><trkpt lat="43.274889296064856" lon="10.764909788163639"><ele>471.0</ele><time>2026-05-01T10:12:25Z</time></trkpt><trkpt lat="43.27483666021434" lon="10.765034160619145"><ele>471.0</ele><time>2026-05-01T10:12:26Z</time></trkpt><trkpt lat="43.27478450687895" lon="10.765157830450692"><ele>471.0</ele><time>2026-05-01T10:12:27Z</time></trkpt><trkpt lat="43.274757298965035" lon="10.765257606966866"><ele>471.0</ele><time>2026-05-01T10:12:28Z</time></trkpt><trkpt lat="43.27474996479438" lon="10.76535368544893"><ele>471.0</ele><time>2026-05-01T10:12:29Z</time></trkpt><trkpt lat="43.27476820786685" lon="10.765475593841144"><ele>471.0</ele><time>2026-05-01T10:12:30Z</time></trkpt><trkpt lat="43.27481102037443" lon="10.765594668002226"><ele>470.5</ele><time>2026-05-01T10:12:31Z</time></trkpt><trkpt lat="43.274861639717734" lon="10.765685127981385"><ele>470.0</ele><time>2026-05-01T10:12:32Z</time></trkpt><trkpt lat="43.274939925363256" lon="10.7657605597721"><ele>469.5</ele><time>2026-05-01T10:12:33Z</time></trkpt><trkpt lat="43.27505614308105" lon="10.76583331674959"><ele>469.0</ele><time>2026-05-01T10:12:34Z</time></trkpt><trkpt lat="43.275203570468584" lon="10.765912429636153"><ele>469.0</ele><time>2026-05-01T10:12:35Z</time></trkpt><trkpt lat="43.27531879345682" lon="10.765990038703082"><ele>469.0</ele><time>2026-05-01T10:12:36Z</time></trkpt><trkpt lat="43.275401777382925" lon="10.76606194571275"><ele>469.0</ele><time>2026-05-01T10:12:37Z</time></trkpt><trkpt lat="43.27545356269718" lon="10.766124213865119"><ele>469.0</ele><time>2026-05-01T10:12:38Z</time></trkpt><trkpt lat="43.27546318890775" lon="10.766292117420866"><ele>469.0</ele><time>2026-05-01T10:12:40Z</time></trkpt><trkpt lat="43.27543202452051" lon="10.766406175030356"><ele>466.2</ele><time>2026-05-01T10:12:41Z</time></trkpt><trkpt lat="43.27536993773702" lon="10.76655421503021"><ele>463.4</ele><time>2026-05-01T10:12:42Z</time></trkpt><trkpt lat="43.27534707184019" lon="10.766717863797005"><ele>460.6</ele><time>2026-05-01T10:12:43Z</time></trkpt><trkpt lat="43.275325541074864" lon="10.7668348004229"><ele>457.8</ele><time>2026-05-01T10:12:44Z</time></trkpt><trkpt lat="43.27532308717425" lon="10.766940533915864"><ele>455.0</ele><time>2026-05-01T10:12:45Z</time></trkpt><trkpt lat="43.275334921465756" lon="10.767029963892838"><ele>456.4</ele><time>2026-05-01T10:12:46Z</time></trkpt><trkpt lat="43.275349709314185" lon="10.76711412719376"><ele>457.8</ele><time>2026-05-01T10:12:47Z</time></trkpt><trkpt lat="43.27541463204976" lon="10.767173016352768"><ele>459.20000000000005</ele><time>2026-05-01T10:12:48Z</time></trkpt><trkpt lat="43.27555558994433" lon="10.767140378063752"><ele>460.6</ele><time>2026-05-01T10:12:49Z</time></trkpt><trkpt lat="43.27566012820562" lon="10.767163072900386"><ele>462.0</ele><time>2026-05-01T10:12:50Z</time></trkpt><trkpt lat="43.27572470307471" lon="10.76727435896818"><ele>462.0</ele><time>2026-05-01T10:12:51Z</time></trkpt><trkpt lat="43.275820755943315" lon="10.767380981027834"><ele>462.0</ele><time>2026-05-01T10:12:52Z</time></trkpt><trkpt lat="43.2759095547879" lon="10.767536798049615"><ele>462.0</ele><time>2026-05-01T10:12:53Z</time></trkpt><trkpt lat="43.2759717342749" lon="10.767696059888257"><ele>462.0</ele><time>2026-05-01T10:12:54Z</time></trkpt><trkpt lat="43.27603466779585" lon="10.767824502312461"><ele>459.40000000000003</ele><time>2026-05-01T10:12:55Z</time></trkpt><trkpt lat="43.2760562817523" lon="10.767955649618123"><ele>456.80000000000007</ele><time>2026-05-01T10:12:56Z</time></trkpt><trkpt lat="43.276065325300024" lon="10.768080308404743"><ele>454.2</ele><time>2026-05-01T10:12:57Z</time></trkpt><trkpt lat="43.27607497965823" lon="10.76822890258572"><ele>451.6</ele><time>2026-05-01T10:12:58Z</time></trkpt><trkpt lat="43.27609460425979" lon="10.768398633350538"><ele>449.0</ele><time>2026-05-01T10:12:59Z</time></trkpt><trkpt lat="43.276075116408684" lon="10.768554734420256"><ele>448.0</ele><time>2026-05-01T10:13:00Z</time></trkpt><trkpt lat="43.27604706400087" lon="10.768654846108713"><ele>447.0</ele><time>2026-05-01T10:13:01Z</time></trkpt><trkpt lat="43.27599557102117" lon="10.768772420966451"><ele>446.0</ele><time>2026-05-01T10:13:02Z</time></trkpt><trkpt lat="43.27592776784425" lon="10.768903074305856"><ele>445.0</ele><time>2026-05-01T10:13:03Z</time></trkpt><trkpt lat="43.27585896790944" lon="10.76902748713363"><ele>444.0</ele><time>2026-05-01T10:13:04Z</time></trkpt><trkpt lat="43.27578832922091" lon="10.769161103642002"><ele>444.0</ele><time>2026-05-01T10:13:05Z</time></trkpt><trkpt lat="43.27573077094792" lon="10.769317489359814"><ele>444.0</ele><time>2026-05-01T10:13:06Z</time></trkpt><trkpt lat="43.27572291350814" lon="10.769532434544619"><ele>444.0</ele><time>2026-05-01T10:13:07Z</time></trkpt><trkpt lat="43.27565459831256" lon="10.769670344401858"><ele>444.0</ele><time>2026-05-01T10:13:08Z</time></trkpt><trkpt lat="43.27557840138395" lon="10.769839803278566"><ele>443.79999999999995</ele><time>2026-05-01T10:13:09Z</time></trkpt><trkpt lat="43.27550130392721" lon="10.770016417906925"><ele>443.59999999999997</ele><time>2026-05-01T10:13:10Z</time></trkpt><trkpt lat="43.27546533889123" lon="10.770159361284271"><ele>443.4</ele><time>2026-05-01T10:13:11Z</time></trkpt><trkpt lat="43.27544135653889" lon="10.770286844455057"><ele>443.2</ele><time>2026-05-01T10:13:12Z</time></trkpt><trkpt lat="43.275421861247715" lon="10.770383653985114"><ele>443.0</ele><time>2026-05-01T10:13:13Z</time></trkpt><trkpt lat="43.27540985846522" lon="10.770490256665452"><ele>446.59999999999997</ele><time>2026-05-01T10:13:14Z</time></trkpt><trkpt lat="43.2754186949367" lon="10.770594823409972"><ele>450.19999999999993</ele><time>2026-05-01T10:13:15Z</time></trkpt><trkpt lat="43.27545178146632" lon="10.770701772244418"><ele>453.8</ele><time>2026-05-01T10:13:16Z</time></trkpt><trkpt lat="43.27546165722271" lon="10.770828777147129"><ele>457.4</ele><time>2026-05-01T10:13:17Z</time></trkpt><trkpt lat="43.27544171107079" lon="10.77099231979232"><ele>461.0</ele><time>2026-05-01T10:13:18Z</time></trkpt><trkpt lat="43.275417392351265" lon="10.771177799086486"><ele>462.0</ele><time>2026-05-01T10:13:19Z</time></trkpt><trkpt lat="43.27539777628634" lon="10.771378532995719"><ele>463.0</ele><time>2026-05-01T10:13:20Z</time></trkpt><trkpt lat="43.27540378468157" lon="10.771520449487774"><ele>464.0</ele><time>2026-05-01T10:13:21Z</time></trkpt><trkpt lat="43.27538967180457" lon="10.771664933684233"><ele>465.0</ele><time>2026-05-01T10:13:22Z</time></trkpt><trkpt lat="43.27540881516889" lon="10.771800936613879"><ele>462.5</ele><time>2026-05-01T10:13:23Z</time></trkpt><trkpt lat="43.27544218132904" lon="10.771961308771788"><ele>460.0</ele><time>2026-05-01T10:13:24Z</time></trkpt><trkpt lat="43.27548297071172" lon="10.772116490066846"><ele>457.5</ele><time>2026-05-01T10:13:25Z</time></trkpt><trkpt lat="43.27555955322766" lon="10.772249132800484"><ele>455.0</ele><time>2026-05-01T10:13:26Z</time></trkpt><trkpt lat="43.275628535524056" lon="10.772410282795585"><ele>455.0</ele><time>2026-05-01T10:13:27Z</time></trkpt><trkpt lat="43.275707118002835" lon="10.77257299839862"><ele>455.0</ele><time>2026-05-01T10:13:28Z</time></trkpt><trkpt lat="43.27576069368432" lon="10.772739957457846"><ele>455.0</ele><time>2026-05-01T10:13:29Z</time></trkpt><trkpt lat="43.27580315528824" lon="10.772874727185874"><ele>455.0</ele><time>2026-05-01T10:13:30Z</time></trkpt><trkpt lat="43.27585199832513" lon="10.77296054642543"><ele>452.5</ele><time>2026-05-01T10:13:31Z</time></trkpt><trkpt lat="43.275947464579595" lon="10.773087973590496"><ele>450.0</ele><time>2026-05-01T10:13:33Z</time></trkpt><trkpt lat="43.276058958839776" lon="10.773076473020074"><ele>447.5</ele><time>2026-05-01T10:13:34Z</time></trkpt><trkpt lat="43.27617691696037" lon="10.773098994725816"><ele>445.0</ele><time>2026-05-01T10:13:35Z</time></trkpt><trkpt lat="43.276254545473385" lon="10.7731610745906"><ele>445.0</ele><time>2026-05-01T10:13:36Z</time></trkpt><trkpt lat="43.27630547279555" lon="10.773267764077644"><ele>445.0</ele><time>2026-05-01T10:13:37Z</time></trkpt><trkpt lat="43.27631359265231" lon="10.773424197951833"><ele>445.0</ele><time>2026-05-01T10:13:38Z</time></trkpt><trkpt lat="43.27635033705099" lon="10.773563519043192"><ele>445.0</ele><time>2026-05-01T10:13:39Z</time></trkpt><trkpt lat="43.276402792944886" lon="10.77367375913939"><ele>445.0</ele><time>2026-05-01T10:13:40Z</time></trkpt><trkpt lat="43.27650798013927" lon="10.773768522281147"><ele>446.75</ele><time>2026-05-01T10:13:41Z</time></trkpt><trkpt lat="43.276589609979446" lon="10.773866103323558"><ele>448.5</ele><time>2026-05-01T10:13:42Z</time></trkpt><trkpt lat="43.27664062451153" lon="10.773983561437744"><ele>450.25</ele><time>2026-05-01T10:13:43Z</time></trkpt><trkpt lat="43.27664598016882" lon="10.77416442689243"><ele>452.0</ele><time>2026-05-01T10:13:44Z</time></trkpt><trkpt lat="43.27670855974214" lon="10.774318545396387"><ele>451.40000000000003</ele><time>2026-05-01T10:13:45Z</time></trkpt><trkpt lat="43.27674552515487" lon="10.77443046059697"><ele>450.80000000000007</ele><time>2026-05-01T10:13:46Z</time></trkpt><trkpt lat="43.276764800004905" lon="10.7745134543028"><ele>450.2</ele><time>2026-05-01T10:13:47Z</time></trkpt><trkpt lat="43.27674534935575" lon="10.774605860976498"><ele>449.6</ele><time>2026-05-01T10:13:48Z</time></trkpt><trkpt lat="43.27663939948136" lon="10.77468246509018"><ele>449.0</ele><time>2026-05-01T10:13:49Z</time></trkpt><trkpt lat="43.27655677105771" lon="10.774792146523902"><ele>449.0</ele><time>2026-05-01T10:13:50Z</time></trkpt><trkpt lat="43.27645480530471" lon="10.77491413167322"><ele>449.0</ele><time>2026-05-01T10:13:51Z</time></trkpt><trkpt lat="43.276410251099385" lon="10.775008872990911"><ele>449.0</ele><time>2026-05-01T10:13:52Z</time></trkpt><trkpt lat="43.2763805461121" lon="10.775097320814556"><ele>449.0</ele><time>2026-05-01T10:13:53Z</time></trkpt><trkpt lat="43.27637415552994" lon="10.775227945351409"><ele>449.0</ele><time>2026-05-01T10:13:54Z</time></trkpt><trkpt lat="43.27639975598357" lon="10.775404361243574"><ele>444.79999999999995</ele><time>2026-05-01T10:13:55Z</time></trkpt><trkpt lat="43.276393749205305" lon="10.775554073007287"><ele>440.59999999999997</ele><time>2026-05-01T10:13:56Z</time></trkpt><trkpt lat="43.27638115986663" lon="10.775651682554688"><ele>436.4</ele><time>2026-05-01T10:13:57Z</time></trkpt><trkpt lat="43.27631905878199" lon="10.77572628454719"><ele>432.2</ele><time>2026-05-01T10:13:58Z</time></trkpt><trkpt lat="43.276242771003005" lon="10.77582561621429"><ele>428.0</ele><time>2026-05-01T10:13:59Z</time></trkpt><trkpt lat="43.27619102057486" lon="10.775934377593407"><ele>426.4</ele><time>2026-05-01T10:14:00Z</time></trkpt><trkpt lat="43.27616037474179" lon="10.776025510925933"><ele>424.79999999999995</ele><time>2026-05-01T10:14:01Z</time></trkpt><trkpt lat="43.27617304919747" lon="10.776128357183364"><ele>423.2</ele><time>2026-05-01T10:14:02Z</time></trkpt><trkpt lat="43.276243313089324" lon="10.776223264685818"><ele>421.6</ele><time>2026-05-01T10:14:03Z</time></trkpt><trkpt lat="43.276321254556976" lon="10.776304936830831"><ele>420.0</ele><time>2026-05-01T10:14:04Z</time></trkpt><trkpt lat="43.27641846938357" lon="10.776374381450344"><ele>421.2</ele><time>2026-05-01T10:14:05Z</time></trkpt><trkpt lat="43.27648962106694" lon="10.776424315217602"><ele>422.4</ele><time>2026-05-01T10:14:06Z</time></trkpt><trkpt lat="43.27656855477521" lon="10.776434682022263"><ele>423.6</ele><time>2026-05-01T10:14:07Z</time></trkpt><trkpt lat="43.276670900054015" lon="10.776404825603576"><ele>424.8</ele><time>2026-05-01T10:14:08Z</time></trkpt><trkpt lat="43.2767813046886" lon="10.77634240833902"><ele>426.0</ele><time>2026-05-01T10:14:09Z</time></trkpt><trkpt lat="43.27689047442048" lon="10.776274260964893"><ele>426.0</ele><time>2026-05-01T10:14:10Z</time></trkpt><trkpt lat="43.276964613477254" lon="10.776236043069176"><ele>426.0</ele><time>2026-05-01T10:14:11Z</time></trkpt><trkpt lat="43.2770310982397" lon="10.776214940459859"><ele>426.0</ele><time>2026-05-01T10:14:12Z</time></trkpt><trkpt lat="43.277095278707286" lon="10.77624692492835"><ele>426.0</ele><time>2026-05-01T10:14:13Z</time></trkpt><trkpt lat="43.277183837314446" lon="10.776328869194234"><ele>426.0</ele><time>2026-05-01T10:14:14Z</time></trkpt><trkpt lat="43.27726156493952" lon="10.776392885947768"><ele>426.0</ele><time>2026-05-01T10:14:15Z</time></trkpt><trkpt lat="43.27733486666225" lon="10.776401434666912"><ele>425.6666666666667</ele><time>2026-05-01T10:14:16Z</time></trkpt><trkpt lat="43.277411336656094" lon="10.776362593052376"><ele>425.33333333333337</ele><time>2026-05-01T10:14:17Z</time></trkpt><trkpt lat="43.277501563917404" lon="10.776272309529494"><ele>425.0</ele><time>2026-05-01T10:14:18Z</time></trkpt><trkpt lat="43.277579236569046" lon="10.77617923665653"><ele>424.6666666666667</ele><time>2026-05-01T10:14:19Z</time></trkpt><trkpt lat="43.27764092654382" lon="10.776149354431158"><ele>424.33333333333337</ele><time>2026-05-01T10:14:20Z</time></trkpt><trkpt lat="43.27770725427705" lon="10.776180107494392"><ele>424.0</ele><time>2026-05-01T10:14:21Z</time></trkpt><trkpt lat="43.27774868675227" lon="10.776297829583996"><ele>424.0</ele><time>2026-05-01T10:14:22Z</time></trkpt><trkpt lat="43.277781078049934" lon="10.77642956775998"><ele>424.0</ele><time>2026-05-01T10:14:23Z</time></trkpt><trkpt lat="43.27782009139457" lon="10.776605861479572"><ele>424.0</ele><time>2026-05-01T10:14:24Z</time></trkpt><trkpt lat="43.27787483750838" lon="10.776765763522047"><ele>424.0</ele><time>2026-05-01T10:14:25Z</time></trkpt><trkpt lat="43.27794633669695" lon="10.776898709799388"><ele>422.83333333333337</ele><time>2026-05-01T10:14:26Z</time></trkpt><trkpt lat="43.27797337102943" lon="10.77704443254479"><ele>421.6666666666667</ele><time>2026-05-01T10:14:27Z</time></trkpt><trkpt lat="43.27801119808518" lon="10.777142264947871"><ele>420.5</ele><time>2026-05-01T10:14:28Z</time></trkpt><trkpt lat="43.27804752920936" lon="10.77729065443635"><ele>419.33333333333337</ele><time>2026-05-01T10:14:30Z</time></trkpt><trkpt lat="43.27810419664652" lon="10.777329058484986"><ele>418.1666666666667</ele><time>2026-05-01T10:14:31Z</time></trkpt><trkpt lat="43.27817334666218" lon="10.777318342537807"><ele>417.0</ele><time>2026-05-01T10:14:32Z</time></trkpt><trkpt lat="43.278238320999726" lon="10.777248224513457"><ele>417.0</ele><time>2026-05-01T10:14:33Z</time></trkpt><trkpt lat="43.27830966038141" lon="10.777127460219603"><ele>417.0</ele><time>2026-05-01T10:14:34Z</time></trkpt><trkpt lat="43.27840172614073" lon="10.776996323088477"><ele>417.0</ele><time>2026-05-01T10:14:35Z</time></trkpt><trkpt lat="43.27849744910156" lon="10.77691139926534"><ele>417.0</ele><time>2026-05-01T10:14:36Z</time></trkpt><trkpt lat="43.27856468772775" lon="10.776872651606839"><ele>417.0</ele><time>2026-05-01T10:14:37Z</time></trkpt><trkpt lat="43.27867638615825" lon="10.776887326207763"><ele>417.0</ele><time>2026-05-01T10:14:39Z</time></trkpt><trkpt lat="43.278730344939206" lon="10.77702038895854"><ele>417.0</ele><time>2026-05-01T10:14:40Z</time></trkpt><trkpt lat="43.278815818030004" lon="10.777110093178502"><ele>417.0</ele><time>2026-05-01T10:14:41Z</time></trkpt><trkpt lat="43.278886514183796" lon="10.77718944052148"><ele>417.0</ele><time>2026-05-01T10:14:42Z</time></trkpt><trkpt lat="43.278961265107206" lon="10.77720149860717"><ele>417.0</ele><time>2026-05-01T10:14:43Z</time></trkpt><trkpt lat="43.27904883504954" lon="10.777183078104237"><ele>417.6</ele><time>2026-05-01T10:14:44Z</time></trkpt><trkpt lat="43.279137803906416" lon="10.777163230516074"><ele>418.20000000000005</ele><time>2026-05-01T10:14:45Z</time></trkpt><trkpt lat="43.27921835963172" lon="10.777190689423781"><ele>418.8</ele><time>2026-05-01T10:14:46Z</time></trkpt><trkpt lat="43.27930797682022" lon="10.777237674108001"><ele>419.4</ele><time>2026-05-01T10:14:47Z</time></trkpt><trkpt lat="43.279411354554675" lon="10.777291527088774"><ele>420.0</ele><time>2026-05-01T10:14:48Z</time></trkpt><trkpt lat="43.27948800822997" lon="10.777359885782463"><ele>420.0</ele><time>2026-05-01T10:14:49Z</time></trkpt><trkpt lat="43.27955540049197" lon="10.77743398674224"><ele>420.0</ele><time>2026-05-01T10:14:50Z</time></trkpt><trkpt lat="43.279637220324084" lon="10.77756102138637"><ele>420.0</ele><time>2026-05-01T10:14:51Z</time></trkpt><trkpt lat="43.27971448245223" lon="10.777718002833693"><ele>420.0</ele><time>2026-05-01T10:14:52Z</time></trkpt><trkpt lat="43.27979826676523" lon="10.77787987773683"><ele>417.8</ele><time>2026-05-01T10:14:53Z</time></trkpt><trkpt lat="43.279869127976525" lon="10.778013340146611"><ele>415.6</ele><time>2026-05-01T10:14:54Z</time></trkpt><trkpt lat="43.27993837436697" lon="10.77814769244075"><ele>413.4</ele><time>2026-05-01T10:14:55Z</time></trkpt><trkpt lat="43.28000140610675" lon="10.778267296240497"><ele>411.2</ele><time>2026-05-01T10:14:56Z</time></trkpt><trkpt lat="43.28005420773412" lon="10.778361993052066"><ele>409.0</ele><time>2026-05-01T10:14:57Z</time></trkpt><trkpt lat="43.280134240010874" lon="10.778445631923319"><ele>406.75</ele><time>2026-05-01T10:14:58Z</time></trkpt><trkpt lat="43.28024601384911" lon="10.778535993197671"><ele>404.5</ele><time>2026-05-01T10:14:59Z</time></trkpt><trkpt lat="43.280380191526696" lon="10.778627786611239"><ele>402.25</ele><time>2026-05-01T10:15:00Z</time></trkpt><trkpt lat="43.28051349464182" lon="10.778717425832946"><ele>400.0</ele><time>2026-05-01T10:15:01Z</time></trkpt><trkpt lat="43.28061842481236" lon="10.778798077009133"><ele>400.00000000000006</ele><time>2026-05-01T10:15:02Z</time></trkpt><trkpt lat="43.280702764450886" lon="10.778854883109638"><ele>400.0</ele><time>2026-05-01T10:15:03Z</time></trkpt><trkpt lat="43.28076664558089" lon="10.778909661892575"><ele>400.0</ele><time>2026-05-01T10:15:04Z</time></trkpt><trkpt lat="43.280810199449164" lon="10.779000810129117"><ele>400.0</ele><time>2026-05-01T10:15:05Z</time></trkpt><trkpt lat="43.280857696016284" lon="10.779100795717657"><ele>400.00000000000006</ele><time>2026-05-01T10:15:06Z</time></trkpt><trkpt lat="43.28089868231044" lon="10.779216345798222"><ele>400.0</ele><time>2026-05-01T10:15:07Z</time></trkpt><trkpt lat="43.280923911734796" lon="10.779340088056799"><ele>398.2</ele><time>2026-05-01T10:15:08Z</time></trkpt><trkpt lat="43.2809358559749" lon="10.779450935314003"><ele>396.4</ele><time>2026-05-01T10:15:09Z</time></trkpt><trkpt lat="43.28096277125745" lon="10.779633479361594"><ele>394.6</ele><time>2026-05-01T10:15:11Z</time></trkpt><trkpt lat="43.28099585744645" lon="10.779727473338912"><ele>392.8</ele><time>2026-05-01T10:15:12Z</time></trkpt><trkpt lat="43.28104807448204" lon="10.779815171491983"><ele>391.0</ele><time>2026-05-01T10:15:13Z</time></trkpt><trkpt lat="43.28111709930942" lon="10.779919289636755"><ele>391.0</ele><time>2026-05-01T10:15:14Z</time></trkpt><trkpt lat="43.28120611265631" lon="10.780038099192252"><ele>391.0</ele><time>2026-05-01T10:15:15Z</time></trkpt><trkpt lat="43.281290198515464" lon="10.780149731176497"><ele>391.0</ele><time>2026-05-01T10:15:16Z</time></trkpt><trkpt lat="43.2813685631709" lon="10.780280387318744"><ele>391.0</ele><time>2026-05-01T10:15:17Z</time></trkpt><trkpt lat="43.28144793334166" lon="10.780382254034752"><ele>391.6666666666667</ele><time>2026-05-01T10:15:18Z</time></trkpt><trkpt lat="43.2815249980844" lon="10.780473138314212"><ele>392.33333333333337</ele><time>2026-05-01T10:15:19Z</time></trkpt><trkpt lat="43.28160149540129" lon="10.780552937170112"><ele>393.0</ele><time>2026-05-01T10:15:20Z</time></trkpt><trkpt lat="43.28166163507919" lon="10.780586855336955"><ele>393.66666666666663</ele><time>2026-05-01T10:15:21Z</time></trkpt><trkpt lat="43.28167879558175" lon="10.780670796000122"><ele>394.3333333333333</ele><time>2026-05-01T10:15:22Z</time></trkpt><trkpt lat="43.28172558491155" lon="10.780788932015248"><ele>395.0</ele><time>2026-05-01T10:15:24Z</time></trkpt><trkpt lat="43.281787139843836" lon="10.78091762413657"><ele>394.99999999999994</ele><time>2026-05-01T10:15:26Z</time></trkpt><trkpt lat="43.28181878137371" lon="10.780996597891006"><ele>395.0</ele><time>2026-05-01T10:15:27Z</time></trkpt><trkpt lat="43.281868452737456" lon="10.781154158209024"><ele>395.0</ele><time>2026-05-01T10:15:29Z</time></trkpt><trkpt lat="43.28191593290634" lon="10.781312646200538"><ele>395.0</ele><time>2026-05-01T10:15:31Z</time></trkpt><trkpt lat="43.281935629101916" lon="10.781395754853003"><ele>394.99999999999994</ele><time>2026-05-01T10:15:32Z</time></trkpt><trkpt lat="43.28195893020776" lon="10.781481031551575"><ele>395.0</ele><time>2026-05-01T10:15:33Z</time></trkpt><trkpt lat="43.28199900643309" lon="10.781626635163057"><ele>394.66666666666663</ele><time>2026-05-01T10:15:35Z</time></trkpt><trkpt lat="43.28202037789698" lon="10.781729785434433"><ele>394.3333333333333</ele><time>2026-05-01T10:15:37Z</time></trkpt><trkpt lat="43.28203899358491" lon="10.781819438516099"><ele>394.0</ele><time>2026-05-01T10:15:58Z</time></trkpt><trkpt lat="43.2820040502961" lon="10.781907372784879"><ele>393.66666666666663</ele><time>2026-05-01T10:16:00Z</time></trkpt><trkpt lat="43.28193449626889" lon="10.78192479153175"><ele>393.3333333333333</ele><time>2026-05-01T10:16:03Z</time></trkpt><trkpt lat="43.28186103860685" lon="10.781859624557896"><ele>393.0</ele><time>2026-05-01T10:16:06Z</time></trkpt><trkpt lat="43.28178100239672" lon="10.7818065900107"><ele>393.0</ele><time>2026-05-01T10:16:20Z</time></trkpt><trkpt lat="43.281710799748495" lon="10.781735292793426"><ele>393.0</ele><time>2026-05-01T10:16:23Z</time></trkpt><trkpt lat="43.28163179425338" lon="10.781682455660262"><ele>393.0</ele><time>2026-05-01T10:16:26Z</time></trkpt><trkpt lat="43.2815674902478" lon="10.781663803976635"><ele>393.0</ele><time>2026-05-01T10:16:28Z</time></trkpt><trkpt lat="43.28146889661501" lon="10.781636505537532"><ele>393.0</ele><time>2026-05-01T10:16:30Z</time></trkpt><trkpt lat="43.28137872797096" lon="10.781597538548533"><ele>393.0</ele><time>2026-05-01T10:16:32Z</time></trkpt><trkpt lat="43.28128431499527" lon="10.781570040833145"><ele>387.4</ele><time>2026-05-01T10:16:34Z</time></trkpt><trkpt lat="43.28118108048828" lon="10.781540158945385"><ele>381.79999999999995</ele><time>2026-05-01T10:16:36Z</time></trkpt><trkpt lat="43.28107999462046" lon="10.781529966297096"><ele>376.2</ele><time>2026-05-01T10:16:38Z</time></trkpt><trkpt lat="43.28099790003947" lon="10.78149326427587"><ele>370.6</ele><time>2026-05-01T10:16:41Z</time></trkpt><trkpt lat="43.280957620863084" lon="10.781419332068191"><ele>365.0</ele><time>2026-05-01T10:16:43Z</time></trkpt><trkpt lat="43.28089592288748" lon="10.781330918569068"><ele>365.0</ele><time>2026-05-01T10:16:45Z</time></trkpt><trkpt lat="43.280850274117995" lon="10.781203962799049"><ele>365.0</ele><time>2026-05-01T10:16:47Z</time></trkpt><trkpt lat="43.28081812135631" lon="10.781065086288416"><ele>365.0</ele><time>2026-05-01T10:16:49Z</time></trkpt><trkpt lat="43.28079874395324" lon="10.780963189700756"><ele>365.0</ele><time>2026-05-01T10:16:51Z</time></trkpt><trkpt lat="43.280814324842474" lon="10.78086473492091"><ele>365.0</ele><time>2026-05-01T10:16:52Z</time></trkpt><trkpt lat="43.28080210139839" lon="10.780764434842647"><ele>365.0</ele><time>2026-05-01T10:16:53Z</time></trkpt><trkpt lat="43.28076861722323" lon="10.780688465928343"><ele>363.5</ele><time>2026-05-01T10:16:54Z</time></trkpt><trkpt lat="43.280714614523504" lon="10.780629394088809"><ele>362.0</ele><time>2026-05-01T10:16:55Z</time></trkpt><trkpt lat="43.280630481456704" lon="10.780542068186374"><ele>360.5</ele><time>2026-05-01T10:16:56Z</time></trkpt><trkpt lat="43.280556759537596" lon="10.780445524929899"><ele>359.0</ele><time>2026-05-01T10:16:57Z</time></trkpt><trkpt lat="43.28049450206388" lon="10.78037843462287"><ele>357.5</ele><time>2026-05-01T10:16:58Z</time></trkpt><trkpt lat="43.280418918169566" lon="10.780340387698999"><ele>356.0</ele><time>2026-05-01T10:17:00Z</time></trkpt><trkpt lat="43.28033047765901" lon="10.780293270292383"><ele>356.0</ele><time>2026-05-01T10:17:02Z</time></trkpt><trkpt lat="43.28026600894596" lon="10.780229658624101"><ele>356.0</ele><time>2026-05-01T10:17:24Z</time></trkpt><trkpt lat="43.280187900087554" lon="10.780217369538418"><ele>356.0</ele><time>2026-05-01T10:17:30Z</time></trkpt><trkpt lat="43.28008466932764" lon="10.78019311701071"><ele>356.0</ele><time>2026-05-01T10:17:32Z</time></trkpt><trkpt lat="43.280020008493864" lon="10.780218854070995"><ele>356.0</ele><time>2026-05-01T10:17:33Z</time></trkpt><trkpt lat="43.27995392500029" lon="10.780276675325638"><ele>356.0</ele><time>2026-05-01T10:17:34Z</time></trkpt><trkpt lat="43.2798912995499" lon="10.780340669865737"><ele>356.0</ele><time>2026-05-01T10:17:35Z</time></trkpt><trkpt lat="43.27983840781033" lon="10.780398166623455"><ele>356.0</ele><time>2026-05-01T10:17:36Z</time></trkpt><trkpt lat="43.27974912738955" lon="10.780494976714019"><ele>356.0</ele><time>2026-05-01T10:17:38Z</time></trkpt><trkpt lat="43.27968103848982" lon="10.78056091651267"><ele>356.0</ele><time>2026-05-01T10:17:40Z</time></trkpt><trkpt lat="43.27957565360389" lon="10.780629030465422"><ele>356.0</ele><time>2026-05-01T10:17:42Z</time></trkpt><trkpt lat="43.27951565291134" lon="10.780664749384766"><ele>356.0</ele><time>2026-05-01T10:17:43Z</time></trkpt><trkpt lat="43.27942425062453" lon="10.780765611635776"><ele>356.0</ele><time>2026-05-01T10:17:45Z</time></trkpt><trkpt lat="43.27934099593088" lon="10.780860504947244"><ele>356.0</ele><time>2026-05-01T10:17:47Z</time></trkpt><trkpt lat="43.279274532872805" lon="10.780935722567156"><ele>356.0</ele><time>2026-05-01T10:17:49Z</time></trkpt><trkpt lat="43.27928361433903" lon="10.781056685542291"><ele>356.0</ele><time>2026-05-01T10:17:51Z</time></trkpt><trkpt lat="43.27927732349" lon="10.781172672332897"><ele>356.0</ele><time>2026-05-01T10:17:52Z</time></trkpt><trkpt lat="43.27926917942335" lon="10.781260567033302"><ele>356.0</ele><time>2026-05-01T10:17:53Z</time></trkpt><trkpt lat="43.279267081631446" lon="10.781354973955137"><ele>354.1666666666667</ele><time>2026-05-01T10:17:55Z</time></trkpt><trkpt lat="43.27926976482213" lon="10.78154509442066"><ele>352.33333333333337</ele><time>2026-05-01T10:17:57Z</time></trkpt><trkpt lat="43.27929157724628" lon="10.781629911476552"><ele>350.5</ele><time>2026-05-01T10:17:58Z</time></trkpt><trkpt lat="43.27932493104001" lon="10.781714815797207"><ele>348.6666666666667</ele><time>2026-05-01T10:17:59Z</time></trkpt><trkpt lat="43.2793311957139" lon="10.781801644589589"><ele>346.8333333333333</ele><time>2026-05-01T10:18:01Z</time></trkpt><trkpt lat="43.27926763341801" lon="10.78185723190209"><ele>345.0</ele><time>2026-05-01T10:18:10Z</time></trkpt><trkpt lat="43.279207871143676" lon="10.781822511212974"><ele>345.0</ele><time>2026-05-01T10:18:13Z</time></trkpt><trkpt lat="43.27918189686745" lon="10.781730622304718"><ele>345.0</ele><time>2026-05-01T10:18:15Z</time></trkpt><trkpt lat="43.27914309151952" lon="10.78163825040289"><ele>345.0</ele><time>2026-05-01T10:18:17Z</time></trkpt><trkpt lat="43.27908056013161" lon="10.78154369398735"><ele>345.0</ele><time>2026-05-01T10:18:19Z</time></trkpt><trkpt lat="43.279034217184915" lon="10.78147964752889"><ele>345.0</ele><time>2026-05-01T10:18:21Z</time></trkpt><trkpt lat="43.27896035963158" lon="10.781468257911927"><ele>345.0</ele><time>2026-05-01T10:18:33Z</time></trkpt><trkpt lat="43.27895727054698" lon="10.781567878894068"><ele>345.0</ele><time>2026-05-01T10:18:35Z</time></trkpt><trkpt lat="43.278954089617166" lon="10.781694299652916"><ele>345.0</ele><time>2026-05-01T10:18:38Z</time></trkpt><trkpt lat="43.27894158936078" lon="10.781804239252155"><ele>345.0</ele><time>2026-05-01T10:18:40Z</time></trkpt><trkpt lat="43.27888089269922" lon="10.781924577855948"><ele>345.0</ele><time>2026-05-01T10:18:42Z</time></trkpt><trkpt lat="43.27885554249908" lon="10.782006476058877"><ele>345.0</ele><time>2026-05-01T10:18:43Z</time></trkpt><trkpt lat="43.278818784332564" lon="10.78214074408067"><ele>345.0</ele><time>2026-05-01T10:18:45Z</time></trkpt><trkpt lat="43.27877614429868" lon="10.782243220638534"><ele>339.5</ele><time>2026-05-01T10:18:47Z</time></trkpt><trkpt lat="43.278732104138754" lon="10.782367498495741"><ele>334.0</ele><time>2026-05-01T10:18:49Z</time></trkpt><trkpt lat="43.27867705352315" lon="10.782471332991262"><ele>328.5</ele><time>2026-05-01T10:18:51Z</time></trkpt><trkpt lat="43.278626360961205" lon="10.782574975006975"><ele>323.0</ele><time>2026-05-01T10:18:53Z</time></trkpt><trkpt lat="43.27860257086911" lon="10.782664398172972"><ele>317.5</ele><time>2026-05-01T10:18:55Z</time></trkpt><trkpt lat="43.278574403700325" lon="10.782756474572427"><ele>312.0</ele><time>2026-05-01T10:18:57Z</time></trkpt><trkpt lat="43.278561678796386" lon="10.78285657747754"><ele>308.75</ele><time>2026-05-01T10:18:59Z</time></trkpt><trkpt lat="43.27856637974853" lon="10.782997636949826"><ele>305.5</ele><time>2026-05-01T10:19:01Z</time></trkpt><trkpt lat="43.27857831887223" lon="10.783148101841398"><ele>302.25</ele><time>2026-05-01T10:19:03Z</time></trkpt><trkpt lat="43.278627571233955" lon="10.783306088980877"><ele>299.0</ele><time>2026-05-01T10:19:05Z</time></trkpt><trkpt lat="43.27868547221775" lon="10.783443926429229"><ele>297.0</ele><time>2026-05-01T10:19:07Z</time></trkpt><trkpt lat="43.27871153235973" lon="10.783532334658197"><ele>295.0</ele><time>2026-05-01T10:19:08Z</time></trkpt><trkpt lat="43.27870341501838" lon="10.783655705022177"><ele>293.0</ele><time>2026-05-01T10:19:10Z</time></trkpt><trkpt lat="43.27870081992859" lon="10.783752179488948"><ele>291.0</ele><time>2026-05-01T10:19:12Z</time></trkpt><trkpt lat="43.27873166436279" lon="10.783858416600518"><ele>289.0</ele><time>2026-05-01T10:19:14Z</time></trkpt><trkpt lat="43.27876490927596" lon="10.783936946040097"><ele>287.0</ele><time>2026-05-01T10:19:23Z</time></trkpt><trkpt lat="43.27879529236616" lon="10.784040048660264"><ele>287.0</ele><time>2026-05-01T10:19:28Z</time></trkpt><trkpt lat="43.27882558375024" lon="10.784144811854215"><ele>287.0</ele><time>2026-05-01T10:19:32Z</time></trkpt><trkpt lat="43.27881968230783" lon="10.784247411359738"><ele>287.0</ele><time>2026-05-01T10:19:38Z</time></trkpt><trkpt lat="43.27874504701744" lon="10.78429215238041"><ele>287.0</ele><time>2026-05-01T10:19:41Z</time></trkpt><trkpt lat="43.27868749423626" lon="10.784337381291557"><ele>287.0</ele><time>2026-05-01T10:19:47Z</time></trkpt><trkpt lat="43.27871456055982" lon="10.784423179389732"><ele>287.0</ele><time>2026-05-01T10:19:50Z</time></trkpt><trkpt lat="43.2787726421696" lon="10.784514139955508"><ele>283.0</ele><time>2026-05-01T10:19:52Z</time></trkpt><trkpt lat="43.27884797776989" lon="10.784532094179013"><ele>279.0</ele><time>2026-05-01T10:19:57Z</time></trkpt><trkpt lat="43.27885640843079" lon="10.784634510655259"><ele>275.0</ele><time>2026-05-01T10:20:02Z</time></trkpt><trkpt lat="43.2787760800746" lon="10.784675621401531"><ele>271.0</ele><time>2026-05-01T10:20:05Z</time></trkpt><trkpt lat="43.27864167929096" lon="10.784747147985277"><ele>267.0</ele><time>2026-05-01T10:20:07Z</time></trkpt><trkpt lat="43.2785503390316" lon="10.784756048803251"><ele>267.0</ele><time>2026-05-01T10:20:09Z</time></trkpt><trkpt lat="43.27849287335564" lon="10.784820515830656"><ele>267.0</ele><time>2026-05-01T10:20:11Z</time></trkpt><trkpt lat="43.278414173161664" lon="10.784834724828343"><ele>267.0</ele><time>2026-05-01T10:20:14Z</time></trkpt><trkpt lat="43.27835140241421" lon="10.78485674434486"><ele>267.0</ele><time>2026-05-01T10:20:16Z</time></trkpt><trkpt lat="43.2782702424644" lon="10.784868688135857"><ele>267.0</ele><time>2026-05-01T10:20:18Z</time></trkpt><trkpt lat="43.27818894120054" lon="10.784893425323405"><ele>267.0</ele><time>2026-05-01T10:20:22Z</time></trkpt><trkpt lat="43.278123261853274" lon="10.784974259221059"><ele>267.0</ele><time>2026-05-01T10:20:25Z</time></trkpt><trkpt lat="43.27808831530652" lon="10.785083453794496"><ele>267.0</ele><time>2026-05-01T10:20:27Z</time></trkpt><trkpt lat="43.278051721405426" lon="10.785158836495125"><ele>267.0</ele><time>2026-05-01T10:20:30Z</time></trkpt><trkpt lat="43.27801375969513" lon="10.785274719573131"><ele>267.0</ele><time>2026-05-01T10:20:33Z</time></trkpt><trkpt lat="43.2779595921474" lon="10.785370802634757"><ele>267.0</ele><time>2026-05-01T10:20:36Z</time></trkpt><trkpt lat="43.277898068713974" lon="10.78542760808053"><ele>267.0</ele><time>2026-05-01T10:20:41Z</time></trkpt><trkpt lat="43.277833095538234" lon="10.78548753035412"><ele>263.3333333333333</ele><time>2026-05-01T10:20:45Z</time></trkpt><trkpt lat="43.27778332451147" lon="10.785557622083006"><ele>259.6666666666667</ele><time>2026-05-01T10:20:48Z</time></trkpt><trkpt lat="43.277787376505344" lon="10.785672945503372"><ele>256.0</ele><time>2026-05-01T10:20:52Z</time></trkpt><trkpt lat="43.27779343675852" lon="10.785773118054427"><ele>252.33333333333334</ele><time>2026-05-01T10:20:56Z</time></trkpt><trkpt lat="43.27778463597177" lon="10.785869835027315"><ele>248.66666666666669</ele><time>2026-05-01T10:20:59Z</time></trkpt><trkpt lat="43.27780640524061" lon="10.785963559643527"><ele>245.0</ele><time>2026-05-01T10:21:02Z</time></trkpt><trkpt lat="43.277929653979925" lon="10.785973007827483"><ele>245.00000000000003</ele><time>2026-05-01T10:21:05Z</time></trkpt><trkpt lat="43.278017805138774" lon="10.785966509723409"><ele>245.0</ele><time>2026-05-01T10:21:09Z</time></trkpt><trkpt lat="43.27814734231848" lon="10.78595325477828"><ele>245.0</ele><time>2026-05-01T10:21:12Z</time></trkpt><trkpt lat="43.27822307176158" lon="10.785968007123198"><ele>245.0</ele><time>2026-05-01T10:21:15Z</time></trkpt><trkpt lat="43.27828683994277" lon="10.78601599523764"><ele>245.00000000000003</ele><time>2026-05-01T10:21:18Z</time></trkpt><trkpt lat="43.278286959165875" lon="10.78610545461747"><ele>245.0</ele><time>2026-05-01T10:21:22Z</time></trkpt><trkpt lat="43.27822792558605" lon="10.786215424666377"><ele>241.16666666666669</ele><time>2026-05-01T10:21:25Z</time></trkpt><trkpt lat="43.27822910153934" lon="10.786304872774599"><ele>237.33333333333334</ele><time>2026-05-01T10:21:27Z</time></trkpt><trkpt lat="43.27823007887453" lon="10.786397679966639"><ele>233.5</ele><time>2026-05-01T10:21:30Z</time></trkpt><trkpt lat="43.278173115962296" lon="10.786481042736177"><ele>229.66666666666669</ele><time>2026-05-01T10:21:33Z</time></trkpt><trkpt lat="43.27815737112768" lon="10.786583420475493"><ele>225.83333333333334</ele><time>2026-05-01T10:21:35Z</time></trkpt><trkpt lat="43.27806853135836" lon="10.786631999417649"><ele>222.0</ele><time>2026-05-01T10:21:37Z</time></trkpt><trkpt lat="43.27801019610513" lon="10.786677545650502"><ele>222.0</ele><time>2026-05-01T10:21:39Z</time></trkpt><trkpt lat="43.27796089985553" lon="10.786731546206072"><ele>222.0</ele><time>2026-05-01T10:21:42Z</time></trkpt><trkpt lat="43.277919726458435" lon="10.78679942204874"><ele>222.0</ele><time>2026-05-01T10:21:45Z</time></trkpt><trkpt lat="43.277866505760464" lon="10.786855221431379"><ele>222.0</ele><time>2026-05-01T10:21:57Z</time></trkpt><trkpt lat="43.27783113442699" lon="10.786955783395623"><ele>222.0</ele><time>2026-05-01T10:22:01Z</time></trkpt><trkpt lat="43.27779858574606" lon="10.787052981443168"><ele>222.0</ele><time>2026-05-01T10:22:04Z</time></trkpt><trkpt lat="43.27776492156173" lon="10.787179333437008"><ele>220.6</ele><time>2026-05-01T10:22:06Z</time></trkpt><trkpt lat="43.27775641613013" lon="10.787283978880836"><ele>219.2</ele><time>2026-05-01T10:22:08Z</time></trkpt><trkpt lat="43.277831861244735" lon="10.787373193054117"><ele>217.8</ele><time>2026-05-01T10:22:10Z</time></trkpt><trkpt lat="43.27791363930274" lon="10.787453649986622"><ele>216.4</ele><time>2026-05-01T10:22:12Z</time></trkpt><trkpt lat="43.2779478156487" lon="10.787561042794955"><ele>215.0</ele><time>2026-05-01T10:22:14Z</time></trkpt><trkpt lat="43.27802763724697" lon="10.787642343404308"><ele>215.2</ele><time>2026-05-01T10:22:16Z</time></trkpt><trkpt lat="43.27808101103391" lon="10.78768942178774"><ele>215.4</ele><time>2026-05-01T10:22:17Z</time></trkpt><trkpt lat="43.278138069879354" lon="10.787788559505865"><ele>215.60000000000002</ele><time>2026-05-01T10:22:19Z</time></trkpt><trkpt lat="43.278220636891575" lon="10.787935011611697"><ele>215.8</ele><time>2026-05-01T10:22:21Z</time></trkpt><trkpt lat="43.278277253145774" lon="10.788034840069152"><ele>216.0</ele><time>2026-05-01T10:22:23Z</time></trkpt><trkpt lat="43.2783085688577" lon="10.788167596428556"><ele>216.0</ele><time>2026-05-01T10:22:25Z</time></trkpt><trkpt lat="43.27835772066039" lon="10.788260228823184"><ele>216.0</ele><time>2026-05-01T10:24:34Z</time></trkpt><trkpt lat="43.278419255931844" lon="10.788313259803738"><ele>216.0</ele><time>2026-05-01T10:24:36Z</time></trkpt><trkpt lat="43.27850527604604" lon="10.788402551669398"><ele>216.0</ele><time>2026-05-01T10:26:04Z</time></trkpt><trkpt lat="43.27855807763094" lon="10.788465131143436"><ele>216.0</ele><time>2026-05-01T10:26:07Z</time></trkpt><trkpt lat="43.278614496058346" lon="10.78857012908103"><ele>216.0</ele><time>2026-05-01T10:26:10Z</time></trkpt><trkpt lat="43.27870397511432" lon="10.788629717378669"><ele>218.33333333333334</ele><time>2026-05-01T10:26:12Z</time></trkpt><trkpt lat="43.27877921877722" lon="10.788698246923348"><ele>220.66666666666669</ele><time>2026-05-01T10:26:14Z</time></trkpt><trkpt lat="43.27879392046459" lon="10.788820444446484"><ele>223.0</ele><time>2026-05-01T10:26:17Z</time></trkpt><trkpt lat="43.278829812958904" lon="10.788951030567238"><ele>225.33333333333334</ele><time>2026-05-01T10:26:20Z</time></trkpt><trkpt lat="43.27886192146921" lon="10.789034588710376"><ele>227.66666666666669</ele><time>2026-05-01T10:26:21Z</time></trkpt><trkpt lat="43.2788034729379" lon="10.789108439918213"><ele>230.0</ele><time>2026-05-01T10:26:24Z</time></trkpt><trkpt lat="43.278739586836245" lon="10.789169152001007"><ele>230.0</ele><time>2026-05-01T10:26:27Z</time></trkpt><trkpt lat="43.278669850119584" lon="10.789235198097797"><ele>230.0</ele><time>2026-05-01T10:26:30Z</time></trkpt><trkpt lat="43.27867254205654" lon="10.789348569814491"><ele>230.0</ele><time>2026-05-01T10:26:32Z</time></trkpt><trkpt lat="43.27872350987443" lon="10.78948290534573"><ele>230.0</ele><time>2026-05-01T10:26:34Z</time></trkpt><trkpt lat="43.27879398255859" lon="10.789550082063093"><ele>230.0</ele><time>2026-05-01T10:26:36Z</time></trkpt><trkpt lat="43.278882743874554" lon="10.789530145283864"><ele>231.85714285714283</ele><time>2026-05-01T10:26:38Z</time></trkpt><trkpt lat="43.278946155836465" lon="10.78953974590045"><ele>233.71428571428572</ele><time>2026-05-01T10:26:40Z</time></trkpt><trkpt lat="43.27901504620672" lon="10.789623959036932"><ele>235.57142857142856</ele><time>2026-05-01T10:26:42Z</time></trkpt><trkpt lat="43.27907157437746" lon="10.789669898643927"><ele>237.42857142857142</ele><time>2026-05-01T10:27:40Z</time></trkpt><trkpt lat="43.279119149071896" lon="10.789752707378934"><ele>239.28571428571428</ele><time>2026-05-01T10:27:42Z</time></trkpt><trkpt lat="43.27916258959546" lon="10.789823457019429"><ele>241.14285714285714</ele><time>2026-05-01T10:27:44Z</time></trkpt><trkpt lat="43.27912675983966" lon="10.789916650067928"><ele>243.0</ele><time>2026-05-01T10:27:47Z</time></trkpt><trkpt lat="43.2790542548566" lon="10.790008221339205"><ele>243.0</ele><time>2026-05-01T10:27:49Z</time></trkpt><trkpt lat="43.27901504454274" lon="10.790087057185136"><ele>243.0</ele><time>2026-05-01T10:27:50Z</time></trkpt><trkpt lat="43.27897461355905" lon="10.790193732968683"><ele>243.0</ele><time>2026-05-01T10:27:52Z</time></trkpt><trkpt lat="43.27898383252451" lon="10.790287892519654"><ele>243.0</ele><time>2026-05-01T10:27:54Z</time></trkpt><trkpt lat="43.279002758906834" lon="10.79037108500646"><ele>243.0</ele><time>2026-05-01T10:27:56Z</time></trkpt><trkpt lat="43.27906483046474" lon="10.790472724641509"><ele>243.0</ele><time>2026-05-01T10:27:59Z</time></trkpt><trkpt lat="43.279160357843175" lon="10.790543024455294"><ele>246.2</ele><time>2026-05-01T10:28:01Z</time></trkpt><trkpt lat="43.2792474821608" lon="10.790601545686373"><ele>249.4</ele><time>2026-05-01T10:28:03Z</time></trkpt><trkpt lat="43.27933370319656" lon="10.790650253002648"><ele>252.59999999999997</ele><time>2026-05-01T10:28:05Z</time></trkpt><trkpt lat="43.27946252266406" lon="10.790740413442744"><ele>255.79999999999998</ele><time>2026-05-01T10:28:07Z</time></trkpt><trkpt lat="43.27955652960943" lon="10.790796962696003"><ele>259.0</ele><time>2026-05-01T10:28:08Z</time></trkpt><trkpt lat="43.27962134922364" lon="10.790835932249365"><ele>259.0</ele><time>2026-05-01T10:28:09Z</time></trkpt><trkpt lat="43.27971379150102" lon="10.790903225513654"><ele>259.0</ele><time>2026-05-01T10:28:11Z</time></trkpt><trkpt lat="43.279819573751396" lon="10.790899310313183"><ele>259.0</ele><time>2026-05-01T10:28:13Z</time></trkpt><trkpt lat="43.27989860130839" lon="10.790854740594352"><ele>259.0</ele><time>2026-05-01T10:28:14Z</time></trkpt><trkpt lat="43.279967035786996" lon="10.790829735862184"><ele>259.0</ele><time>2026-05-01T10:28:15Z</time></trkpt><trkpt lat="43.280053836623274" lon="10.790865126531289"><ele>259.59999999999997</ele><time>2026-05-01T10:28:17Z</time></trkpt><trkpt lat="43.28011399054532" lon="10.790988707866651"><ele>260.2</ele><time>2026-05-01T10:28:19Z</time></trkpt><trkpt lat="43.280127088799276" lon="10.791074565407047"><ele>260.79999999999995</ele><time>2026-05-01T10:28:20Z</time></trkpt><trkpt lat="43.280167920774545" lon="10.79121618222487"><ele>261.4</ele><time>2026-05-01T10:28:22Z</time></trkpt><trkpt lat="43.280112702125095" lon="10.79133467986157"><ele>262.0</ele><time>2026-05-01T10:28:24Z</time></trkpt><trkpt lat="43.280062878780775" lon="10.791410777868085"><ele>265.6</ele><time>2026-05-01T10:28:25Z</time></trkpt><trkpt lat="43.280025650615734" lon="10.791511634178566"><ele>269.2</ele><time>2026-05-01T10:28:27Z</time></trkpt><trkpt lat="43.28000121919319" lon="10.791659719277916"><ele>272.8</ele><time>2026-05-01T10:28:29Z</time></trkpt><trkpt lat="43.27999638543836" lon="10.79184330829148"><ele>276.4</ele><time>2026-05-01T10:28:31Z</time></trkpt><trkpt lat="43.280011534824304" lon="10.791997908422957"><ele>280.0</ele><time>2026-05-01T10:28:32Z</time></trkpt><trkpt lat="43.280018302668935" lon="10.792100649421446"><ele>281.0</ele><time>2026-05-01T10:28:33Z</time></trkpt><trkpt lat="43.28003961333107" lon="10.79218810778511"><ele>282.0</ele><time>2026-05-01T10:28:34Z</time></trkpt><trkpt lat="43.28007793295459" lon="10.792266705058289"><ele>283.0</ele><time>2026-05-01T10:28:35Z</time></trkpt><trkpt lat="43.280120661227194" lon="10.792344060455822"><ele>284.0</ele><time>2026-05-01T10:28:36Z</time></trkpt><trkpt lat="43.28017395033983" lon="10.792481307428083"><ele>285.0</ele><time>2026-05-01T10:28:38Z</time></trkpt><trkpt lat="43.28018159984214" lon="10.792649249410184"><ele>286.0</ele><time>2026-05-01T10:28:40Z</time></trkpt><trkpt lat="43.280186126857394" lon="10.792762394479125"><ele>286.0</ele><time>2026-05-01T10:28:41Z</time></trkpt><trkpt lat="43.280181011210495" lon="10.792857580367276"><ele>286.0</ele><time>2026-05-01T10:28:42Z</time></trkpt><trkpt lat="43.2801962403132" lon="10.79301760410288"><ele>286.0</ele><time>2026-05-01T10:28:44Z</time></trkpt><trkpt lat="43.28020744841219" lon="10.793108788046078"><ele>286.0</ele><time>2026-05-01T10:28:45Z</time></trkpt><trkpt lat="43.280187554240825" lon="10.793232179661219"><ele>286.0</ele><time>2026-05-01T10:28:47Z</time></trkpt><trkpt lat="43.28011160192398" lon="10.793310394409293"><ele>286.0</ele><time>2026-05-01T10:28:49Z</time></trkpt><trkpt lat="43.28005344777736" lon="10.793217051183216"><ele>286.0</ele><time>2026-05-01T10:28:51Z</time></trkpt><trkpt lat="43.28003390014765" lon="10.793130327708154"><ele>286.0</ele><time>2026-05-01T10:28:52Z</time></trkpt><trkpt lat="43.27999991225923" lon="10.79300805941465"><ele>286.0</ele><time>2026-05-01T10:28:54Z</time></trkpt><trkpt lat="43.27994475077315" lon="10.792878938819369"><ele>286.0</ele><time>2026-05-01T10:28:56Z</time></trkpt><trkpt lat="43.27990563719113" lon="10.79276706189317"><ele>286.0</ele><time>2026-05-01T10:28:57Z</time></trkpt><trkpt lat="43.279845843417306" lon="10.792662189537817"><ele>286.0</ele><time>2026-05-01T10:28:58Z</time></trkpt><trkpt lat="43.279774534448094" lon="10.79259147356308"><ele>286.0</ele><time>2026-05-01T10:28:59Z</time></trkpt><trkpt lat="43.27970962470111" lon="10.792544211739536"><ele>286.0</ele><time>2026-05-01T10:29:00Z</time></trkpt><trkpt lat="43.27956032948052" lon="10.792522624191035"><ele>286.0</ele><time>2026-05-01T10:29:02Z</time></trkpt><trkpt lat="43.27946585000636" lon="10.7925127684291"><ele>286.0</ele><time>2026-05-01T10:29:03Z</time></trkpt><trkpt lat="43.279405683258894" lon="10.792483953374937"><ele>289.0</ele><time>2026-05-01T10:29:04Z</time></trkpt><trkpt lat="43.27931915956918" lon="10.792311657665365"><ele>292.0</ele><time>2026-05-01T10:29:06Z</time></trkpt><trkpt lat="43.27927242421223" lon="10.792195366958435"><ele>295.0</ele><time>2026-05-01T10:29:07Z</time></trkpt><trkpt lat="43.279220122930454" lon="10.792117924935662"><ele>298.0</ele><time>2026-05-01T10:29:08Z</time></trkpt><trkpt lat="43.27916646343626" lon="10.792071565820759"><ele>301.0</ele><time>2026-05-01T10:29:09Z</time></trkpt><trkpt lat="43.27904771419441" lon="10.79211928833937"><ele>301.0</ele><time>2026-05-01T10:29:11Z</time></trkpt><trkpt lat="43.27898139307084" lon="10.792160566039865"><ele>301.0</ele><time>2026-05-01T10:29:12Z</time></trkpt><trkpt lat="43.278903292717416" lon="10.79221720116431"><ele>301.0</ele><time>2026-05-01T10:29:13Z</time></trkpt><trkpt lat="43.27883776918081" lon="10.792288531234835"><ele>301.0</ele><time>2026-05-01T10:29:14Z</time></trkpt><trkpt lat="43.278776931191715" lon="10.79235583480549"><ele>301.0</ele><time>2026-05-01T10:29:15Z</time></trkpt><trkpt lat="43.27872352449656" lon="10.792435557384472"><ele>301.0</ele><time>2026-05-01T10:29:16Z</time></trkpt><trkpt lat="43.27869203164952" lon="10.792510732697652"><ele>301.0</ele><time>2026-05-01T10:29:17Z</time></trkpt><trkpt lat="43.27867159184752" lon="10.792609524027919"><ele>301.0</ele><time>2026-05-01T10:29:18Z</time></trkpt><trkpt lat="43.27862454278043" lon="10.79274119961038"><ele>301.0</ele><time>2026-05-01T10:29:19Z</time></trkpt><trkpt lat="43.27856103436081" lon="10.792905590348035"><ele>301.0</ele><time>2026-05-01T10:29:20Z</time></trkpt><trkpt lat="43.27851043209374" lon="10.793047558257113"><ele>301.0</ele><time>2026-05-01T10:29:21Z</time></trkpt><trkpt lat="43.2784633850759" lon="10.793166432600513"><ele>301.0</ele><time>2026-05-01T10:29:22Z</time></trkpt><trkpt lat="43.27842261951145" lon="10.793265383331644"><ele>301.0</ele><time>2026-05-01T10:29:23Z</time></trkpt><trkpt lat="43.27838989872109" lon="10.793357191261945"><ele>301.0</ele><time>2026-05-01T10:29:24Z</time></trkpt><trkpt lat="43.27835452434681" lon="10.79344885575623"><ele>301.0</ele><time>2026-05-01T10:29:25Z</time></trkpt><trkpt lat="43.27832048393468" lon="10.793536002731205"><ele>301.0</ele><time>2026-05-01T10:29:26Z</time></trkpt><trkpt lat="43.2782699568348" lon="10.793654686587347"><ele>301.0</ele><time>2026-05-01T10:29:28Z</time></trkpt><trkpt lat="43.278245225135905" lon="10.793736063731066"><ele>300.8</ele><time>2026-05-01T10:47:25.002Z</time></trkpt><trkpt lat="43.27823925724023" lon="10.793833749725076"><ele>300.6</ele><time>2026-05-01T11:02:45.001Z</time></trkpt><trkpt lat="43.278257734529326" lon="10.793986980742009"><ele>300.4</ele><time>2026-05-01T11:02:47.001Z</time></trkpt><trkpt lat="43.27826220535647" lon="10.794152378935616"><ele>300.2</ele><time>2026-05-01T11:02:49.001Z</time></trkpt><trkpt lat="43.278262693351394" lon="10.794244147348637"><ele>300.0</ele><time>2026-05-01T11:02:51.001Z</time></trkpt><trkpt lat="43.278227038753194" lon="10.794365320759034"><ele>301.0</ele><time>2026-05-01T11:02:53.001Z</time></trkpt><trkpt lat="43.27819131506307" lon="10.794446638894858"><ele>302.0</ele><time>2026-05-01T11:02:54.001Z</time></trkpt><trkpt lat="43.278159963284125" lon="10.794522104752414"><ele>303.0</ele><time>2026-05-01T11:02:55.001Z</time></trkpt><trkpt lat="43.27813614357826" lon="10.794650517300463"><ele>304.0</ele><time>2026-05-01T11:02:57.001Z</time></trkpt><trkpt lat="43.278149511351685" lon="10.794754555587918"><ele>305.0</ele><time>2026-05-01T11:02:59.001Z</time></trkpt><trkpt lat="43.27822152367892" lon="10.794808267676684"><ele>306.0</ele><time>2026-05-01T11:03:01.001Z</time></trkpt><trkpt lat="43.27830164163224" lon="10.794763284785166"><ele>306.0</ele><time>2026-05-01T11:03:03.001Z</time></trkpt><trkpt lat="43.27836838407188" lon="10.79472477557199"><ele>306.0</ele><time>2026-05-01T11:03:05.001Z</time></trkpt><trkpt lat="43.27843124128894" lon="10.794708931140399"><ele>306.0</ele><time>2026-05-01T11:04:24Z</time></trkpt><trkpt lat="43.27849090560506" lon="10.794671961363912"><ele>306.0</ele><time>2026-05-01T11:04:51.001Z</time></trkpt><trkpt lat="43.27856432379892" lon="10.794686715058454"><ele>306.0</ele><time>2026-05-01T11:04:53.001Z</time></trkpt><trkpt lat="43.27862733435137" lon="10.794723945683451"><ele>306.0</ele><time>2026-05-01T11:04:54.001Z</time></trkpt><trkpt lat="43.27869114150795" lon="10.794755276994186"><ele>306.0</ele><time>2026-05-01T11:04:55.001Z</time></trkpt><trkpt lat="43.27880196580235" lon="10.79478958121015"><ele>306.0</ele><time>2026-05-01T11:04:57.001Z</time></trkpt><trkpt lat="43.278859918539645" lon="10.794750276664502"><ele>306.0</ele><time>2026-05-01T11:04:58.001Z</time></trkpt><trkpt lat="43.278997878212174" lon="10.79470997568565"><ele>306.0</ele><time>2026-05-01T11:05:00.001Z</time></trkpt><trkpt lat="43.27908100918877" lon="10.794650682925099"><ele>306.0</ele><time>2026-05-01T11:05:01.001Z</time></trkpt><trkpt lat="43.279156420759065" lon="10.79462482782468"><ele>306.0</ele><time>2026-05-01T11:05:02.001Z</time></trkpt><trkpt lat="43.279224469361715" lon="10.79456124320756"><ele>306.0</ele><time>2026-05-01T11:05:03.001Z</time></trkpt><trkpt lat="43.279265490618016" lon="10.7944350826347"><ele>306.0</ele><time>2026-05-01T11:05:05.001Z</time></trkpt><trkpt lat="43.27936950637132" lon="10.79439463889574"><ele>306.0</ele><time>2026-05-01T11:05:07.001Z</time></trkpt><trkpt lat="43.27945360666008" lon="10.794336292490417"><ele>306.0</ele><time>2026-05-01T11:05:08.001Z</time></trkpt><trkpt lat="43.27952730453077" lon="10.794290565207994"><ele>306.0</ele><time>2026-05-01T11:05:09.001Z</time></trkpt><trkpt lat="43.27958629947793" lon="10.79424469365001"><ele>304.40000000000003</ele><time>2026-05-01T11:05:10.001Z</time></trkpt><trkpt lat="43.27967360811349" lon="10.794219698249208"><ele>302.8</ele><time>2026-05-01T11:05:12.001Z</time></trkpt><trkpt lat="43.27977286762379" lon="10.794218335936401"><ele>301.20000000000005</ele><time>2026-05-01T11:05:14.001Z</time></trkpt><trkpt lat="43.27983526881619" lon="10.794262084265636"><ele>299.6</ele><time>2026-05-01T11:05:15.001Z</time></trkpt><trkpt lat="43.27990622396245" lon="10.794324483981347"><ele>298.0</ele><time>2026-05-01T11:05:16.001Z</time></trkpt><trkpt lat="43.2799858445061" lon="10.794431643809695"><ele>296.16666666666663</ele><time>2026-05-01T11:05:18.001Z</time></trkpt><trkpt lat="43.28006359567336" lon="10.79453610720087"><ele>294.3333333333333</ele><time>2026-05-01T11:05:20.001Z</time></trkpt><trkpt lat="43.28010640938165" lon="10.794619050269565"><ele>292.5</ele><time>2026-05-01T11:05:21.001Z</time></trkpt><trkpt lat="43.2801400643766" lon="10.794717074408528"><ele>290.6666666666667</ele><time>2026-05-01T11:05:22.001Z</time></trkpt><trkpt lat="43.28015034394664" lon="10.794844674095172"><ele>288.83333333333337</ele><time>2026-05-01T11:05:24.001Z</time></trkpt><trkpt lat="43.28013011727266" lon="10.794948836652996"><ele>287.0</ele><time>2026-05-01T11:05:25.001Z</time></trkpt><trkpt lat="43.2801156363188" lon="10.795082398953433"><ele>287.6666666666667</ele><time>2026-05-01T11:05:26.001Z</time></trkpt><trkpt lat="43.28010284528918" lon="10.79520854488641"><ele>288.33333333333337</ele><time>2026-05-01T11:05:28.001Z</time></trkpt><trkpt lat="43.28009641182932" lon="10.79536623522465"><ele>289.0</ele><time>2026-05-01T11:05:30.001Z</time></trkpt><trkpt lat="43.280089076688036" lon="10.79545217710493"><ele>289.6666666666667</ele><time>2026-05-01T11:05:31.001Z</time></trkpt><trkpt lat="43.28015348112559" lon="10.7955377532531"><ele>290.3333333333333</ele><time>2026-05-01T11:05:34.001Z</time></trkpt><trkpt lat="43.28023404984208" lon="10.795516671976026"><ele>291.0</ele><time>2026-05-01T11:05:36.001Z</time></trkpt><trkpt lat="43.28031445255603" lon="10.795444057811267"><ele>291.0</ele><time>2026-05-01T11:05:51.002Z</time></trkpt><trkpt lat="43.280383834798215" lon="10.795415342217108"><ele>291.0</ele><time>2026-05-01T11:05:53.002Z</time></trkpt><trkpt lat="43.28044856146381" lon="10.79540193910006"><ele>291.0</ele><time>2026-05-01T11:06:02.002Z</time></trkpt><trkpt lat="43.28052825911845" lon="10.79537419928369"><ele>291.0</ele><time>2026-05-01T11:06:04.002Z</time></trkpt><trkpt lat="43.280605050212436" lon="10.795297756164961"><ele>291.0</ele><time>2026-05-01T11:06:06.002Z</time></trkpt><trkpt lat="43.280700392463146" lon="10.795330816110276"><ele>291.0</ele><time>2026-05-01T11:06:08.002Z</time></trkpt><trkpt lat="43.280760898444505" lon="10.795355695395994"><ele>290.0</ele><time>2026-05-01T11:06:09.002Z</time></trkpt><trkpt lat="43.28084093210995" lon="10.795386455128881"><ele>289.0</ele><time>2026-05-01T11:06:21.001Z</time></trkpt><trkpt lat="43.280953473061125" lon="10.795457843469793"><ele>288.0</ele><time>2026-05-01T11:06:23.001Z</time></trkpt><trkpt lat="43.28101983204974" lon="10.795477379268306"><ele>287.0</ele><time>2026-05-01T11:06:24.001Z</time></trkpt><trkpt lat="43.28110201929485" lon="10.795482036679392"><ele>286.0</ele><time>2026-05-01T11:06:25.001Z</time></trkpt><trkpt lat="43.28120616806691" lon="10.79548407021775"><ele>286.0</ele><time>2026-05-01T11:06:26.001Z</time></trkpt><trkpt lat="43.28128681946044" lon="10.795484733115629"><ele>286.0</ele><time>2026-05-01T11:06:27.001Z</time></trkpt><trkpt lat="43.28135210575061" lon="10.795486756391663"><ele>286.0</ele><time>2026-05-01T11:06:28.001Z</time></trkpt><trkpt lat="43.28142564676037" lon="10.795502472658285"><ele>286.0</ele><time>2026-05-01T11:06:29.001Z</time></trkpt><trkpt lat="43.28151136339665" lon="10.795532524170383"><ele>286.0</ele><time>2026-05-01T11:06:30.001Z</time></trkpt><trkpt lat="43.28158953023715" lon="10.795594027805304"><ele>286.0</ele><time>2026-05-01T11:06:31.001Z</time></trkpt><trkpt lat="43.281690995999" lon="10.795696567117574"><ele>285.3333333333333</ele><time>2026-05-01T11:06:33.001Z</time></trkpt><trkpt lat="43.28174217549884" lon="10.795793475790536"><ele>284.66666666666663</ele><time>2026-05-01T11:06:34.001Z</time></trkpt><trkpt lat="43.28179323974818" lon="10.795861506137815"><ele>284.0</ele><time>2026-05-01T11:06:35.001Z</time></trkpt><trkpt lat="43.281864433319214" lon="10.795869363300172"><ele>283.3333333333333</ele><time>2026-05-01T11:06:36.001Z</time></trkpt><trkpt lat="43.281926231012534" lon="10.795909696461145"><ele>282.6666666666667</ele><time>2026-05-01T11:06:37.001Z</time></trkpt><trkpt lat="43.28200121759127" lon="10.795986175862101"><ele>282.0</ele><time>2026-05-01T11:06:39.001Z</time></trkpt><trkpt lat="43.282033762473944" lon="10.796073027088092"><ele>281.6</ele><time>2026-05-01T11:06:40.001Z</time></trkpt><trkpt lat="43.282059833973754" lon="10.796168724914226"><ele>281.2</ele><time>2026-05-01T11:06:41.001Z</time></trkpt><trkpt lat="43.282117692554934" lon="10.79625579681448"><ele>280.8</ele><time>2026-05-01T11:06:42.001Z</time></trkpt><trkpt lat="43.28217860659538" lon="10.796323625772924"><ele>280.4</ele><time>2026-05-01T11:06:43.001Z</time></trkpt><trkpt lat="43.28224572916857" lon="10.796379354715153"><ele>280.0</ele><time>2026-05-01T11:06:48.001Z</time></trkpt><trkpt lat="43.28236447164973" lon="10.79646740534707"><ele>280.0</ele><time>2026-05-01T11:06:50.001Z</time></trkpt><trkpt lat="43.282435125770206" lon="10.796509206266526"><ele>280.0</ele><time>2026-05-01T11:06:51.001Z</time></trkpt><trkpt lat="43.282495751018416" lon="10.796551589231859"><ele>280.0</ele><time>2026-05-01T11:06:52.001Z</time></trkpt><trkpt lat="43.282580016574855" lon="10.796600470250779"><ele>280.0</ele><time>2026-05-01T11:06:54.001Z</time></trkpt><trkpt lat="43.282646392491074" lon="10.79666623782641"><ele>280.0</ele><time>2026-05-01T11:06:56.001Z</time></trkpt><trkpt lat="43.28269947606954" lon="10.796731234977806"><ele>280.0</ele><time>2026-05-01T11:06:57.001Z</time></trkpt><trkpt lat="43.282765520938554" lon="10.796764506418993"><ele>280.0</ele><time>2026-05-01T11:06:59.001Z</time></trkpt><trkpt lat="43.282845532819586" lon="10.796779337184214"><ele>280.0</ele><time>2026-05-01T11:07:01.001Z</time></trkpt><trkpt lat="43.28296518571443" lon="10.796802250263557"><ele>280.0</ele><time>2026-05-01T11:07:03.001Z</time></trkpt><trkpt lat="43.2830559040971" lon="10.796783721184292"><ele>280.0</ele><time>2026-05-01T11:07:05.001Z</time></trkpt><trkpt lat="43.283167475396255" lon="10.796862214902124"><ele>280.0</ele><time>2026-05-01T11:07:07.001Z</time></trkpt><trkpt lat="43.283241613836225" lon="10.796930710452273"><ele>278.16666666666663</ele><time>2026-05-01T11:07:08.001Z</time></trkpt><trkpt lat="43.28331029302204" lon="10.797011206141539"><ele>276.3333333333333</ele><time>2026-05-01T11:07:11.001Z</time></trkpt><trkpt lat="43.2832842746504" lon="10.797139804845399"><ele>274.5</ele><time>2026-05-01T11:07:13.001Z</time></trkpt><trkpt lat="43.28328751138126" lon="10.797255824048412"><ele>272.6666666666667</ele><time>2026-05-01T11:07:15.001Z</time></trkpt><trkpt lat="43.28335993322" lon="10.797340505456742"><ele>270.83333333333337</ele><time>2026-05-01T11:07:17.001Z</time></trkpt><trkpt lat="43.2834215297261" lon="10.797377670884616"><ele>269.0</ele><time>2026-05-01T11:07:18.001Z</time></trkpt><trkpt lat="43.28348762813732" lon="10.797424624104709"><ele>269.0</ele><time>2026-05-01T11:07:19.001Z</time></trkpt><trkpt lat="43.283548956616606" lon="10.797468407731941"><ele>269.0</ele><time>2026-05-01T11:07:20.001Z</time></trkpt><trkpt lat="43.28363803497895" lon="10.797540702699164"><ele>269.0</ele><time>2026-05-01T11:07:22.001Z</time></trkpt><trkpt lat="43.2837018723701" lon="10.79760973872289"><ele>269.0</ele><time>2026-05-01T11:07:24.001Z</time></trkpt><trkpt lat="43.283786911173536" lon="10.797649883441336"><ele>269.0</ele><time>2026-05-01T11:07:26.001Z</time></trkpt><trkpt lat="43.28380919736063" lon="10.797744588040768"><ele>269.0</ele><time>2026-05-01T11:07:29.001Z</time></trkpt><trkpt lat="43.28374543609947" lon="10.79787124608802"><ele>268.4</ele><time>2026-05-01T11:07:31.001Z</time></trkpt><trkpt lat="43.28374276187771" lon="10.798006336247507"><ele>267.79999999999995</ele><time>2026-05-01T11:07:34.001Z</time></trkpt><trkpt lat="43.2837191317284" lon="10.798156052074615"><ele>267.20000000000005</ele><time>2026-05-01T11:07:37.002Z</time></trkpt><trkpt lat="43.28367725908032" lon="10.798267494779614"><ele>266.6</ele><time>2026-05-01T11:07:38.002Z</time></trkpt><trkpt lat="43.283670867209935" lon="10.79839350427413"><ele>266.0</ele><time>2026-05-01T11:07:40.002Z</time></trkpt><trkpt lat="43.28372940156919" lon="10.79848700871002"><ele>268.0</ele><time>2026-05-01T11:07:42.002Z</time></trkpt><trkpt lat="43.283801791167775" lon="10.798552050489263"><ele>270.0</ele><time>2026-05-01T11:07:44.002Z</time></trkpt><trkpt lat="43.28386018359689" lon="10.79861178062603"><ele>272.0</ele><time>2026-05-01T11:07:46.002Z</time></trkpt><trkpt lat="43.283951157449586" lon="10.798667459656844"><ele>274.0</ele><time>2026-05-01T11:07:48.002Z</time></trkpt><trkpt lat="43.28403995427469" lon="10.798707850965855"><ele>276.0</ele><time>2026-05-01T11:07:50.002Z</time></trkpt><trkpt lat="43.28410870572409" lon="10.798737588878334"><ele>278.0</ele><time>2026-05-01T11:07:53.002Z</time></trkpt><trkpt lat="43.28418420104787" lon="10.79874376209634"><ele>272.33333333333337</ele><time>2026-05-01T11:07:56.002Z</time></trkpt><trkpt lat="43.28422299746453" lon="10.798649264857517"><ele>266.6666666666667</ele><time>2026-05-01T11:07:59.002Z</time></trkpt><trkpt lat="43.28427137634583" lon="10.798546398019212"><ele>261.0</ele><time>2026-05-01T11:08:01.002Z</time></trkpt><trkpt lat="43.284351224075074" lon="10.798522152938995"><ele>255.33333333333331</ele><time>2026-05-01T11:08:03.002Z</time></trkpt><trkpt lat="43.28444261448147" lon="10.79847522459767"><ele>249.66666666666666</ele><time>2026-05-01T11:08:06.002Z</time></trkpt><trkpt lat="43.284510765601425" lon="10.798455096590798"><ele>244.0</ele><time>2026-05-01T11:08:08.002Z</time></trkpt><trkpt lat="43.28457096698931" lon="10.798403591099568"><ele>243.83333333333331</ele><time>2026-05-01T11:08:10.002Z</time></trkpt><trkpt lat="43.284672987559915" lon="10.798401317239628"><ele>243.66666666666666</ele><time>2026-05-01T11:08:13.002Z</time></trkpt><trkpt lat="43.28473739713125" lon="10.798411428854212"><ele>243.5</ele><time>2026-05-01T11:08:15.002Z</time></trkpt><trkpt lat="43.28482408043836" lon="10.79844699399895"><ele>243.33333333333331</ele><time>2026-05-01T11:08:18.002Z</time></trkpt><trkpt lat="43.28491226485975" lon="10.79845113304143"><ele>243.16666666666666</ele><time>2026-05-01T11:08:20.002Z</time></trkpt><trkpt lat="43.28498510571625" lon="10.798370116304651"><ele>243.0</ele><time>2026-05-01T11:08:22.002Z</time></trkpt><trkpt lat="43.285044883326954" lon="10.798295952472929"><ele>238.16666666666666</ele><time>2026-05-01T11:08:24.001Z</time></trkpt><trkpt lat="43.285113495682396" lon="10.798275027274402"><ele>233.33333333333331</ele><time>2026-05-01T11:08:26.001Z</time></trkpt><trkpt lat="43.285193181522274" lon="10.798225887268563"><ele>228.5</ele><time>2026-05-01T11:08:28.001Z</time></trkpt><trkpt lat="43.28524569677985" lon="10.798152044846063"><ele>223.66666666666666</ele><time>2026-05-01T11:08:30.001Z</time></trkpt><trkpt lat="43.285291656673905" lon="10.798063769731407"><ele>218.83333333333331</ele><time>2026-05-01T11:08:32.001Z</time></trkpt><trkpt lat="43.28533697215571" lon="10.797962499170385"><ele>214.0</ele><time>2026-05-01T11:08:34.001Z</time></trkpt><trkpt lat="43.285399774599135" lon="10.797919550116214"><ele>214.0</ele><time>2026-05-01T11:08:36.001Z</time></trkpt><trkpt lat="43.285470919253875" lon="10.798011009876891"><ele>213.99999999999997</ele><time>2026-05-01T11:08:38.001Z</time></trkpt><trkpt lat="43.285499013382314" lon="10.798132432506465"><ele>213.99999999999997</ele><time>2026-05-01T11:08:40.001Z</time></trkpt><trkpt lat="43.2855253742834" lon="10.798215719771559"><ele>214.0</ele><time>2026-05-01T11:08:42.001Z</time></trkpt><trkpt lat="43.285535790419324" lon="10.798378593873318"><ele>214.0</ele><time>2026-05-01T11:08:45.001Z</time></trkpt><trkpt lat="43.285589832500655" lon="10.798465323007331"><ele>209.2</ele><time>2026-05-01T11:08:48.001Z</time></trkpt><trkpt lat="43.28571437511855" lon="10.798477444265304"><ele>204.39999999999998</ele><time>2026-05-01T11:08:50.001Z</time></trkpt><trkpt lat="43.28579150724472" lon="10.798489079884595"><ele>199.6</ele><time>2026-05-01T11:08:51.001Z</time></trkpt><trkpt lat="43.28587025347704" lon="10.798489329830392"><ele>194.8</ele><time>2026-05-01T11:08:52.001Z</time></trkpt><trkpt lat="43.28594557547546" lon="10.798485330154971"><ele>190.0</ele><time>2026-05-01T11:08:53.001Z</time></trkpt><trkpt lat="43.286043331098355" lon="10.798481848244379"><ele>190.0</ele><time>2026-05-01T11:08:54.001Z</time></trkpt><trkpt lat="43.286142221322905" lon="10.798486444861052"><ele>190.0</ele><time>2026-05-01T11:08:55.001Z</time></trkpt><trkpt lat="43.286226109665" lon="10.798494485439901"><ele>190.0</ele><time>2026-05-01T11:08:56.001Z</time></trkpt><trkpt lat="43.28629618767548" lon="10.798527153753287"><ele>190.0</ele><time>2026-05-01T11:08:57.001Z</time></trkpt><trkpt lat="43.28639001251587" lon="10.798635002867973"><ele>190.0</ele><time>2026-05-01T11:08:59.001Z</time></trkpt><trkpt lat="43.28646126157379" lon="10.798752604056235"><ele>189.0</ele><time>2026-05-01T11:09:01.001Z</time></trkpt><trkpt lat="43.286489075275945" lon="10.798862822355629"><ele>188.0</ele><time>2026-05-01T11:09:03.001Z</time></trkpt><trkpt lat="43.28647416407789" lon="10.798957349481304"><ele>187.0</ele><time>2026-05-01T11:09:06.001Z</time></trkpt><trkpt lat="43.28647319531376" lon="10.799048361341564"><ele>186.0</ele><time>2026-05-01T11:10:16.002Z</time></trkpt><trkpt lat="43.28651752999382" lon="10.799124386383644"><ele>185.0</ele><time>2026-05-01T11:10:24.002Z</time></trkpt><trkpt lat="43.28657869762456" lon="10.799157737896106"><ele>184.0</ele><time>2026-05-01T11:10:29.001Z</time></trkpt><trkpt lat="43.28651578351487" lon="10.799130801798215"><ele>183.0</ele><time>2026-05-01T11:10:49.001Z</time></trkpt><trkpt lat="43.28646810671373" lon="10.799068127633118"><ele>183.0</ele><time>2026-05-01T11:10:56.001Z</time></trkpt><trkpt lat="43.28647423600779" lon="10.798979505301027"><ele>183.0</ele><time>2026-05-01T11:12:14.002Z</time></trkpt><trkpt lat="43.286481986190225" lon="10.799090553005476"><ele>183.0</ele><time>2026-05-01T11:12:50.001Z</time></trkpt><trkpt lat="43.286537959810786" lon="10.799134681091344"><ele>183.0</ele><time>2026-05-01T11:13:06.001Z</time></trkpt><trkpt lat="43.286596456529445" lon="10.799173151966794"><ele>183.0</ele><time>2026-05-01T11:13:14.001Z</time></trkpt><trkpt lat="43.28665972943313" lon="10.799159717423187"><ele>183.0</ele><time>2026-05-01T11:13:26.001Z</time></trkpt><trkpt lat="43.28673529611659" lon="10.799159138231644"><ele>183.0</ele><time>2026-05-01T11:13:29.001Z</time></trkpt><trkpt lat="43.28680184432518" lon="10.799170494878672"><ele>183.0</ele><time>2026-05-01T11:13:44.001Z</time></trkpt><trkpt lat="43.286879277551016" lon="10.799161476035325"><ele>183.0</ele><time>2026-05-01T11:13:46.001Z</time></trkpt><trkpt lat="43.28695579130276" lon="10.799142323290866"><ele>183.0</ele><time>2026-05-01T11:13:48.001Z</time></trkpt><trkpt lat="43.287025858295074" lon="10.799132482891645"><ele>183.0</ele><time>2026-05-01T11:13:50.001Z</time></trkpt><trkpt lat="43.28709788417158" lon="10.799210460835848"><ele>183.0</ele><time>2026-05-01T11:13:52.001Z</time></trkpt><trkpt lat="43.2871871857926" lon="10.79931700633306"><ele>183.0</ele><time>2026-05-01T11:13:54.001Z</time></trkpt><trkpt lat="43.28725559684823" lon="10.799414902888467"><ele>182.5</ele><time>2026-05-01T11:13:56.001Z</time></trkpt><trkpt lat="43.28728691560826" lon="10.799510668369669"><ele>182.0</ele><time>2026-05-01T11:13:58.001Z</time></trkpt><trkpt lat="43.28736146481375" lon="10.799614943001641"><ele>181.5</ele><time>2026-05-01T11:14:00.001Z</time></trkpt><trkpt lat="43.28741796104304" lon="10.799702453677238"><ele>181.0</ele><time>2026-05-01T11:14:02.001Z</time></trkpt><trkpt lat="43.28748013045148" lon="10.799760650489457"><ele>180.5</ele><time>2026-05-01T11:14:08.001Z</time></trkpt><trkpt lat="43.28753792029955" lon="10.799807857046387"><ele>180.0</ele><time>2026-05-01T11:14:11.001Z</time></trkpt><trkpt lat="43.287589814673034" lon="10.799857029427523"><ele>180.0</ele><time>2026-05-01T11:14:13.001Z</time></trkpt><trkpt lat="43.28766817987233" lon="10.799935705020667"><ele>180.0</ele><time>2026-05-01T11:14:15.001Z</time></trkpt><trkpt lat="43.28771331115676" lon="10.80002392487378"><ele>180.0</ele><time>2026-05-01T11:14:17.001Z</time></trkpt><trkpt lat="43.287769231636815" lon="10.800116505725788"><ele>180.0</ele><time>2026-05-01T11:14:20.001Z</time></trkpt><trkpt lat="43.28782246852292" lon="10.800200330767403"><ele>180.0</ele><time>2026-05-01T11:14:22.001Z</time></trkpt><trkpt lat="43.28785438797262" lon="10.800274948508147"><ele>180.0</ele><time>2026-05-01T11:14:23.001Z</time></trkpt><trkpt lat="43.28790866046543" lon="10.800354733847426"><ele>179.16666666666666</ele><time>2026-05-01T11:14:25.001Z</time></trkpt><trkpt lat="43.28794994486079" lon="10.800446499612052"><ele>178.33333333333334</ele><time>2026-05-01T11:14:27.002Z</time></trkpt><trkpt lat="43.287993751599664" lon="10.800512386680607"><ele>177.5</ele><time>2026-05-01T11:14:45.001Z</time></trkpt><trkpt lat="43.28802638353845" lon="10.800598524271035"><ele>176.66666666666669</ele><time>2026-05-01T11:14:53.001Z</time></trkpt><trkpt lat="43.28806742502725" lon="10.800680259469363"><ele>175.83333333333334</ele><time>2026-05-01T11:15:03Z</time></trkpt><trkpt lat="43.28810845965182" lon="10.800780210542182"><ele>175.0</ele><time>2026-05-01T11:15:06Z</time></trkpt><trkpt lat="43.288167848029936" lon="10.800924023755064"><ele>179.4</ele><time>2026-05-01T11:15:08Z</time></trkpt><trkpt lat="43.288224140645625" lon="10.801002870833475"><ele>183.8</ele><time>2026-05-01T11:15:09Z</time></trkpt><trkpt lat="43.288257190966995" lon="10.801090259323866"><ele>188.2</ele><time>2026-05-01T11:15:10Z</time></trkpt><trkpt lat="43.288295881215774" lon="10.801206302235935"><ele>192.6</ele><time>2026-05-01T11:15:12Z</time></trkpt><trkpt lat="43.288350186987" lon="10.801288101744515"><ele>197.0</ele><time>2026-05-01T11:15:14.001Z</time></trkpt><trkpt lat="43.28846092467516" lon="10.801371187588137"><ele>197.00000000000003</ele><time>2026-05-01T11:15:17.001Z</time></trkpt><trkpt lat="43.28853041609359" lon="10.801402058560317"><ele>197.0</ele><time>2026-05-01T11:15:18.001Z</time></trkpt><trkpt lat="43.28861699054331" lon="10.80141240055571"><ele>197.0</ele><time>2026-05-01T11:15:20.001Z</time></trkpt><trkpt lat="43.288710567562255" lon="10.801340108161217"><ele>197.0</ele><time>2026-05-01T11:15:22.001Z</time></trkpt><trkpt lat="43.28877653904867" lon="10.80128220147204"><ele>197.00000000000003</ele><time>2026-05-01T11:15:23.001Z</time></trkpt><trkpt lat="43.28886015669852" lon="10.801229960277329"><ele>197.0</ele><time>2026-05-01T11:15:24.001Z</time></trkpt><trkpt lat="43.28892023544653" lon="10.801202191735538"><ele>195.14285714285714</ele><time>2026-05-01T11:15:25.001Z</time></trkpt><trkpt lat="43.2889921140898" lon="10.80122180957578"><ele>193.28571428571428</ele><time>2026-05-01T11:15:27.001Z</time></trkpt><trkpt lat="43.28902515437633" lon="10.801334041486712"><ele>191.42857142857144</ele><time>2026-05-01T11:15:30.001Z</time></trkpt><trkpt lat="43.28901059151946" lon="10.801418775257984"><ele>189.57142857142856</ele><time>2026-05-01T11:15:31.001Z</time></trkpt><trkpt lat="43.28899075948721" lon="10.801506670145912"><ele>187.7142857142857</ele><time>2026-05-01T11:15:32.001Z</time></trkpt><trkpt lat="43.289012357676924" lon="10.801593997502444"><ele>185.85714285714286</ele><time>2026-05-01T11:15:34.001Z</time></trkpt><trkpt lat="43.289054219755734" lon="10.801691682216633"><ele>184.0</ele><time>2026-05-01T11:15:36.001Z</time></trkpt><trkpt lat="43.289107647301066" lon="10.80181090810399"><ele>189.33333333333334</ele><time>2026-05-01T11:15:38.001Z</time></trkpt><trkpt lat="43.289167707284776" lon="10.80191131537627"><ele>194.66666666666669</ele><time>2026-05-01T11:15:40.001Z</time></trkpt><trkpt lat="43.2892154907753" lon="10.801991454452049"><ele>200.0</ele><time>2026-05-01T11:15:42.001Z</time></trkpt><trkpt lat="43.28927275959758" lon="10.802037968947477"><ele>205.33333333333334</ele><time>2026-05-01T11:15:43.001Z</time></trkpt><trkpt lat="43.289332749154" lon="10.802083401779157"><ele>210.66666666666666</ele><time>2026-05-01T11:15:44.001Z</time></trkpt><trkpt lat="43.289435148343905" lon="10.80210606989982"><ele>216.0</ele><time>2026-05-01T11:15:46.001Z</time></trkpt><trkpt lat="43.28954326590337" lon="10.802182814070806"><ele>216.0</ele><time>2026-05-01T11:15:48.001Z</time></trkpt><trkpt lat="43.28964902117533" lon="10.8022211246345"><ele>216.0</ele><time>2026-05-01T11:15:50.001Z</time></trkpt><trkpt lat="43.28970454412367" lon="10.802273678995405"><ele>216.0</ele><time>2026-05-01T11:15:51.001Z</time></trkpt><trkpt lat="43.2897795635303" lon="10.802298365530973"><ele>216.0</ele><time>2026-05-01T11:15:52.001Z</time></trkpt><trkpt lat="43.28985792869043" lon="10.802313690128825"><ele>216.0</ele><time>2026-05-01T11:15:54.001Z</time></trkpt><trkpt lat="43.28990217985461" lon="10.802396664975147"><ele>216.0</ele><time>2026-05-01T11:15:56.001Z</time></trkpt><trkpt lat="43.289927248670836" lon="10.802477903194227"><ele>209.60000000000002</ele><time>2026-05-01T11:15:57.001Z</time></trkpt><trkpt lat="43.28995590258799" lon="10.802638011134984"><ele>203.20000000000002</ele><time>2026-05-01T11:15:59.001Z</time></trkpt><trkpt lat="43.28999365929727" lon="10.802793086651818"><ele>196.8</ele><time>2026-05-01T11:16:01.001Z</time></trkpt><trkpt lat="43.290025753422555" lon="10.802942280367766"><ele>190.39999999999998</ele><time>2026-05-01T11:16:03.001Z</time></trkpt><trkpt lat="43.29004561945399" lon="10.803052615428479"><ele>184.0</ele><time>2026-05-01T11:16:05.001Z</time></trkpt><trkpt lat="43.29000249890678" lon="10.803207988087198"><ele>184.0</ele><time>2026-05-01T11:16:07.001Z</time></trkpt><trkpt lat="43.28994741022692" lon="10.803292704019697"><ele>184.0</ele><time>2026-05-01T11:16:08.001Z</time></trkpt><trkpt lat="43.28989889664691" lon="10.803384373723903"><ele>184.0</ele><time>2026-05-01T11:16:09.001Z</time></trkpt><trkpt lat="43.2898585378138" lon="10.803451592134506"><ele>184.0</ele><time>2026-05-01T11:16:10.001Z</time></trkpt><trkpt lat="43.289851931547574" lon="10.803583779843189"><ele>184.0</ele><time>2026-05-01T11:16:12.001Z</time></trkpt><trkpt lat="43.28977565114465" lon="10.803695881608373"><ele>184.0</ele><time>2026-05-01T11:16:14.001Z</time></trkpt><trkpt lat="43.289686988296445" lon="10.803782689548555"><ele>189.0</ele><time>2026-05-01T11:16:16.001Z</time></trkpt><trkpt lat="43.28959715514586" lon="10.803864537494121"><ele>194.0</ele><time>2026-05-01T11:16:18.001Z</time></trkpt><trkpt lat="43.289540815572636" lon="10.803993614467796"><ele>199.0</ele><time>2026-05-01T11:16:20.001Z</time></trkpt><trkpt lat="43.289501620953715" lon="10.804141073686928"><ele>204.0</ele><time>2026-05-01T11:16:22.001Z</time></trkpt><trkpt lat="43.28947663445698" lon="10.804235018172392"><ele>209.0</ele><time>2026-05-01T11:16:24.001Z</time></trkpt><trkpt lat="43.28943584955302" lon="10.80430917843374"><ele>208.79999999999998</ele><time>2026-05-01T11:16:27.001Z</time></trkpt><trkpt lat="43.28940068126007" lon="10.804413548749425"><ele>208.6</ele><time>2026-05-01T11:16:48Z</time></trkpt><trkpt lat="43.289327990992845" lon="10.80453894912312"><ele>208.4</ele><time>2026-05-01T11:16:50Z</time></trkpt><trkpt lat="43.28927071246543" lon="10.80464947506939"><ele>208.2</ele><time>2026-05-01T11:16:52Z</time></trkpt><trkpt lat="43.289236125290955" lon="10.804764836037098"><ele>208.0</ele><time>2026-05-01T11:16:54Z</time></trkpt><trkpt lat="43.289238478448354" lon="10.804911095954926"><ele>207.99999999999997</ele><time>2026-05-01T11:16:56Z</time></trkpt><trkpt lat="43.28925290833396" lon="10.80499562895767"><ele>208.0</ele><time>2026-05-01T11:16:57Z</time></trkpt><trkpt lat="43.289238019800884" lon="10.805135646407305"><ele>208.0</ele><time>2026-05-01T11:16:59Z</time></trkpt><trkpt lat="43.28918312356974" lon="10.805236945497791"><ele>208.0</ele><time>2026-05-01T11:17:01Z</time></trkpt><trkpt lat="43.28913598048313" lon="10.805301578601824"><ele>207.99999999999997</ele><time>2026-05-01T11:17:03Z</time></trkpt><trkpt lat="43.28905521167212" lon="10.805352828209278"><ele>208.0</ele><time>2026-05-01T11:17:05Z</time></trkpt><trkpt lat="43.288966764687906" lon="10.805375747731667"><ele>212.33333333333331</ele><time>2026-05-01T11:17:07Z</time></trkpt><trkpt lat="43.288883246982856" lon="10.805383139811303"><ele>216.66666666666666</ele><time>2026-05-01T11:17:10Z</time></trkpt><trkpt lat="43.288815770218015" lon="10.80536803740567"><ele>221.0</ele><time>2026-05-01T11:17:12Z</time></trkpt><trkpt lat="43.288737092534525" lon="10.80536268114848"><ele>225.33333333333331</ele><time>2026-05-01T11:17:14Z</time></trkpt><trkpt lat="43.288661257292965" lon="10.805368506637059"><ele>229.66666666666666</ele><time>2026-05-01T11:17:17Z</time></trkpt><trkpt lat="43.288610218754116" lon="10.80530278067259"><ele>234.0</ele><time>2026-05-01T11:17:21Z</time></trkpt><trkpt lat="43.28857763585557" lon="10.805190705216019"><ele>234.0</ele><time>2026-05-01T11:17:24Z</time></trkpt><trkpt lat="43.28853985144074" lon="10.805105570965283"><ele>234.0</ele><time>2026-05-01T11:17:27Z</time></trkpt><trkpt lat="43.288473586472655" lon="10.805144068549414"><ele>234.0</ele><time>2026-05-01T11:17:29Z</time></trkpt><trkpt lat="43.2884089306045" lon="10.805240237121907"><ele>234.0</ele><time>2026-05-01T11:17:31Z</time></trkpt><trkpt lat="43.288344471016806" lon="10.805273803826156"><ele>234.0</ele><time>2026-05-01T11:17:35Z</time></trkpt><trkpt lat="43.288262212701646" lon="10.805207221801975"><ele>234.0</ele><time>2026-05-01T11:17:38Z</time></trkpt><trkpt lat="43.28817678632756" lon="10.805148326913171"><ele>234.16666666666666</ele><time>2026-05-01T11:17:40Z</time></trkpt><trkpt lat="43.288110552904385" lon="10.805108324149831"><ele>234.33333333333331</ele><time>2026-05-01T11:17:42.001Z</time></trkpt><trkpt lat="43.28808479276486" lon="10.805023714950405"><ele>234.5</ele><time>2026-05-01T11:17:45.001Z</time></trkpt><trkpt lat="43.28803809064709" lon="10.804899807472458"><ele>234.66666666666666</ele><time>2026-05-01T11:17:47.001Z</time></trkpt><trkpt lat="43.287997808474074" lon="10.804801331294616"><ele>234.83333333333331</ele><time>2026-05-01T11:17:50.001Z</time></trkpt><trkpt lat="43.28797065571934" lon="10.804670745416326"><ele>235.0</ele><time>2026-05-01T11:17:52.001Z</time></trkpt><trkpt lat="43.28792236926287" lon="10.804601712176046"><ele>237.7142857142857</ele><time>2026-05-01T11:17:54.001Z</time></trkpt><trkpt lat="43.28786757035861" lon="10.804529331442252"><ele>240.4285714285714</ele><time>2026-05-01T11:17:56.001Z</time></trkpt><trkpt lat="43.287919744607876" lon="10.80457802474872"><ele>243.14285714285714</ele><time>2026-05-01T11:19:34Z</time></trkpt><trkpt lat="43.28796127064273" lon="10.804658769304389"><ele>245.85714285714283</ele><time>2026-05-01T11:19:45Z</time></trkpt><trkpt lat="43.28797258224833" lon="10.80474626679331"><ele>248.57142857142856</ele><time>2026-05-01T11:19:57Z</time></trkpt><trkpt lat="43.28797095214543" lon="10.804843418686898"><ele>251.28571428571428</ele><time>2026-05-01T11:20:04.001Z</time></trkpt><trkpt lat="43.28801091176025" lon="10.80494288333441"><ele>254.0</ele><time>2026-05-01T11:20:25.001Z</time></trkpt><trkpt lat="43.288056916453584" lon="10.805014653574611"><ele>254.0</ele><time>2026-05-01T11:20:54.001Z</time></trkpt><trkpt lat="43.28808867121955" lon="10.805090769047023"><ele>254.0</ele><time>2026-05-01T11:21:10Z</time></trkpt><trkpt lat="43.288128564321994" lon="10.805165674694603"><ele>254.0</ele><time>2026-05-01T11:21:25Z</time></trkpt><trkpt lat="43.28820066925498" lon="10.80519456826"><ele>254.0</ele><time>2026-05-01T11:21:40Z</time></trkpt><trkpt lat="43.288267211003024" lon="10.80522000439854"><ele>254.0</ele><time>2026-05-01T11:21:48Z</time></trkpt><trkpt lat="43.2883233811094" lon="10.805281520157388"><ele>254.0</ele><time>2026-05-01T11:21:58Z</time></trkpt><trkpt lat="43.28838662190036" lon="10.805243178056275"><ele>254.0</ele><time>2026-05-01T11:22:10Z</time></trkpt><trkpt lat="43.288407893994126" lon="10.805153577050243"><ele>251.28571428571428</ele><time>2026-05-01T11:22:21.001Z</time></trkpt><trkpt lat="43.2884720307046" lon="10.805166751490347"><ele>248.57142857142856</ele><time>2026-05-01T11:23:06Z</time></trkpt><trkpt lat="43.288490221220066" lon="10.805082845018026"><ele>245.85714285714283</ele><time>2026-05-01T11:23:59Z</time></trkpt><trkpt lat="43.28845329061419" lon="10.8051529068379"><ele>243.14285714285714</ele><time>2026-05-01T11:26:27Z</time></trkpt><trkpt lat="43.288406184181675" lon="10.8052243562046"><ele>240.4285714285714</ele><time>2026-05-01T11:26:38.001Z</time></trkpt><trkpt lat="43.28834829333541" lon="10.805270004883301"><ele>237.7142857142857</ele><time>2026-05-01T11:26:48.001Z</time></trkpt><trkpt lat="43.28828318264778" lon="10.805244514233602"><ele>235.0</ele><time>2026-05-01T11:26:59.001Z</time></trkpt><trkpt lat="43.28821347752556" lon="10.805197410357836"><ele>234.99999999999997</ele><time>2026-05-01T11:27:18Z</time></trkpt><trkpt lat="43.28812226925232" lon="10.805149287191435"><ele>235.0</ele><time>2026-05-01T11:28:07Z</time></trkpt><trkpt lat="43.288081653984094" lon="10.805073610716612"><ele>235.0</ele><time>2026-05-01T11:28:20.001Z</time></trkpt><trkpt lat="43.28804861968783" lon="10.804994336436444"><ele>235.0</ele><time>2026-05-01T11:28:32.001Z</time></trkpt><trkpt lat="43.28800150753215" lon="10.804913019599342"><ele>234.99999999999997</ele><time>2026-05-01T11:28:42.001Z</time></trkpt><trkpt lat="43.287978857623465" lon="10.804796722773965"><ele>235.0</ele><time>2026-05-01T11:29:38Z</time></trkpt><trkpt lat="43.28796191829831" lon="10.804702254492573"><ele>237.7142857142857</ele><time>2026-05-01T11:30:08Z</time></trkpt><trkpt lat="43.28794531309594" lon="10.80461279955982"><ele>240.4285714285714</ele><time>2026-05-01T11:30:22.001Z</time></trkpt><trkpt lat="43.287862048950956" lon="10.804569731032187"><ele>243.14285714285714</ele><time>2026-05-01T11:32:02Z</time></trkpt><trkpt lat="43.28786546295929" lon="10.804468302082322"><ele>245.85714285714283</ele><time>2026-05-01T11:37:20.001Z</time></trkpt><trkpt lat="43.2878459201372" lon="10.80456667921189"><ele>248.57142857142856</ele><time>2026-05-01T11:40:53Z</time></trkpt><trkpt lat="43.287804942776916" lon="10.804492488215486"><ele>251.28571428571428</ele><time>2026-05-01T11:45:20.001Z</time></trkpt><trkpt lat="43.28774026086362" lon="10.804461467350162"><ele>254.0</ele><time>2026-05-01T11:45:22.001Z</time></trkpt><trkpt lat="43.28767142603048" lon="10.804457129409995"><ele>254.00000000000003</ele><time>2026-05-01T11:45:24.001Z</time></trkpt><trkpt lat="43.28759611181279" lon="10.804434663420011"><ele>254.0</ele><time>2026-05-01T11:45:26.001Z</time></trkpt><trkpt lat="43.287498671741496" lon="10.804372484422291"><ele>254.0</ele><time>2026-05-01T11:45:28.001Z</time></trkpt><trkpt lat="43.28741131964733" lon="10.804311507184284"><ele>254.0</ele><time>2026-05-01T11:45:30.001Z</time></trkpt><trkpt lat="43.287357029381084" lon="10.804230466131452"><ele>254.00000000000003</ele><time>2026-05-01T11:45:32.001Z</time></trkpt><trkpt lat="43.287336650932296" lon="10.80411664981492"><ele>254.0</ele><time>2026-05-01T11:45:34.001Z</time></trkpt><trkpt lat="43.28735748452877" lon="10.804018762143926"><ele>255.79999999999998</ele><time>2026-05-01T11:45:36.001Z</time></trkpt><trkpt lat="43.287388233418085" lon="10.803929987066123"><ele>257.59999999999997</ele><time>2026-05-01T11:45:38.001Z</time></trkpt><trkpt lat="43.28737186688499" lon="10.803782383271264"><ele>259.4</ele><time>2026-05-01T11:45:40.001Z</time></trkpt><trkpt lat="43.287312237866274" lon="10.803695187186937"><ele>261.2</ele><time>2026-05-01T11:45:42.001Z</time></trkpt><trkpt lat="43.287224992905905" lon="10.803659452278554"><ele>263.0</ele><time>2026-05-01T11:45:44.001Z</time></trkpt><trkpt lat="43.287113570244934" lon="10.80368085490119"><ele>265.2857142857143</ele><time>2026-05-01T11:45:46.001Z</time></trkpt><trkpt lat="43.2870503035414" lon="10.803662750094709"><ele>267.57142857142856</ele><time>2026-05-01T11:45:47.001Z</time></trkpt><trkpt lat="43.28697957405798" lon="10.803652847634526"><ele>269.85714285714283</ele><time>2026-05-01T11:45:48.001Z</time></trkpt><trkpt lat="43.28690449938873" lon="10.803645655661876"><ele>272.1428571428571</ele><time>2026-05-01T11:45:49.001Z</time></trkpt><trkpt lat="43.28682717712927" lon="10.803675114442326"><ele>274.42857142857144</ele><time>2026-05-01T11:45:51.001Z</time></trkpt><trkpt lat="43.28677106552826" lon="10.8037424211385"><ele>276.71428571428567</ele><time>2026-05-01T11:45:53.001Z</time></trkpt><trkpt lat="43.28673346179305" lon="10.803832948656051"><ele>279.0</ele><time>2026-05-01T11:45:55.001Z</time></trkpt><trkpt lat="43.28664190002934" lon="10.803816464754844"><ele>279.0</ele><time>2026-05-01T11:45:58.001Z</time></trkpt><trkpt lat="43.2865579120706" lon="10.80377038998137"><ele>279.0</ele><time>2026-05-01T11:46:00.001Z</time></trkpt><trkpt lat="43.28646908336246" lon="10.80367472529069"><ele>279.0</ele><time>2026-05-01T11:46:01.001Z</time></trkpt><trkpt lat="43.286385115292774" lon="10.80353435442321"><ele>279.0</ele><time>2026-05-01T11:46:03.001Z</time></trkpt><trkpt lat="43.286318336830796" lon="10.803418666182257"><ele>279.0</ele><time>2026-05-01T11:46:04.001Z</time></trkpt><trkpt lat="43.28630447890067" lon="10.80333375239873"><ele>284.8</ele><time>2026-05-01T11:46:05.001Z</time></trkpt><trkpt lat="43.28625699331756" lon="10.803260280049482"><ele>290.59999999999997</ele><time>2026-05-01T11:46:09.001Z</time></trkpt><trkpt lat="43.28617794228092" lon="10.803217859578256"><ele>296.4</ele><time>2026-05-01T11:46:15Z</time></trkpt><trkpt lat="43.28607501111201" lon="10.803234143393771"><ele>302.2</ele><time>2026-05-01T11:46:16Z</time></trkpt><trkpt lat="43.28598677975907" lon="10.803269749000206"><ele>308.0</ele><time>2026-05-01T11:46:17Z</time></trkpt><trkpt lat="43.28588448921877" lon="10.803303078945849"><ele>308.0</ele><time>2026-05-01T11:46:18Z</time></trkpt><trkpt lat="43.285804182231466" lon="10.803349930633107"><ele>308.0</ele><time>2026-05-01T11:46:19Z</time></trkpt><trkpt lat="43.28573330803449" lon="10.803431652097732"><ele>308.0</ele><time>2026-05-01T11:46:20Z</time></trkpt><trkpt lat="43.285671324639196" lon="10.803529839871546"><ele>308.0</ele><time>2026-05-01T11:46:21Z</time></trkpt><trkpt lat="43.285604250992556" lon="10.803611066771532"><ele>308.0</ele><time>2026-05-01T11:46:22Z</time></trkpt><trkpt lat="43.28555383113457" lon="10.80369672414791"><ele>308.0</ele><time>2026-05-01T11:46:23Z</time></trkpt><trkpt lat="43.28551786283147" lon="10.80380040348209"><ele>314.0</ele><time>2026-05-01T11:46:24Z</time></trkpt><trkpt lat="43.28548844049581" lon="10.803918889428255"><ele>320.0</ele><time>2026-05-01T11:46:25Z</time></trkpt><trkpt lat="43.28543676607139" lon="10.804038161331546"><ele>326.0</ele><time>2026-05-01T11:46:26Z</time></trkpt><trkpt lat="43.28536762526776" lon="10.804147086077379"><ele>332.0</ele><time>2026-05-01T11:46:28Z</time></trkpt><trkpt lat="43.28529614181071" lon="10.804261212618872"><ele>338.0</ele><time>2026-05-01T11:46:30Z</time></trkpt><trkpt lat="43.28523449784317" lon="10.804332204374067"><ele>338.0</ele><time>2026-05-01T11:46:31Z</time></trkpt><trkpt lat="43.28517445813666" lon="10.804422970837695"><ele>338.0</ele><time>2026-05-01T11:46:32Z</time></trkpt><trkpt lat="43.28511012556541" lon="10.804552912995947"><ele>338.0</ele><time>2026-05-01T11:46:34Z</time></trkpt><trkpt lat="43.28505791719485" lon="10.804683508972433"><ele>338.0</ele><time>2026-05-01T11:46:36Z</time></trkpt><trkpt lat="43.28499719053613" lon="10.804828836304948"><ele>338.0</ele><time>2026-05-01T11:46:38Z</time></trkpt><trkpt lat="43.28495763789171" lon="10.804906833976018"><ele>338.0</ele><time>2026-05-01T11:46:39Z</time></trkpt><trkpt lat="43.28493610714606" lon="10.805022939387989"><ele>338.0</ele><time>2026-05-01T11:46:41Z</time></trkpt><trkpt lat="43.284919273564995" lon="10.804875260116486"><ele>338.0</ele><time>2026-05-01T11:46:50Z</time></trkpt><trkpt lat="43.28490935508862" lon="10.804763834684374"><ele>338.0</ele><time>2026-05-01T11:46:51Z</time></trkpt><trkpt lat="43.28490354215382" lon="10.804649644799127"><ele>338.0</ele><time>2026-05-01T11:46:52Z</time></trkpt><trkpt lat="43.28490793672303" lon="10.804521635166159"><ele>338.0</ele><time>2026-05-01T11:46:53Z</time></trkpt><trkpt lat="43.28493161323889" lon="10.804393136257888"><ele>338.0</ele><time>2026-05-01T11:46:54Z</time></trkpt><trkpt lat="43.28500003480467" lon="10.804283702021733"><ele>338.0</ele><time>2026-05-01T11:46:55Z</time></trkpt><trkpt lat="43.285044120840105" lon="10.804189015231513"><ele>338.0</ele><time>2026-05-01T11:46:56Z</time></trkpt><trkpt lat="43.28509124539847" lon="10.804086609390335"><ele>338.0</ele><time>2026-05-01T11:46:57Z</time></trkpt><trkpt lat="43.2851189663467" lon="10.80399762928172"><ele>338.0</ele><time>2026-05-01T11:46:58Z</time></trkpt><trkpt lat="43.28509214106324" lon="10.803812487606093"><ele>338.1666666666667</ele><time>2026-05-01T11:47:00Z</time></trkpt><trkpt lat="43.28506987884384" lon="10.803715254681475"><ele>338.33333333333337</ele><time>2026-05-01T11:47:01Z</time></trkpt><trkpt lat="43.285006189796995" lon="10.803635525769215"><ele>338.5</ele><time>2026-05-01T11:47:02Z</time></trkpt><trkpt lat="43.2849394251415" lon="10.803569211003095"><ele>338.6666666666667</ele><time>2026-05-01T11:47:03Z</time></trkpt><trkpt lat="43.28487384851319" lon="10.803502035472544"><ele>338.8333333333333</ele><time>2026-05-01T11:47:04Z</time></trkpt><trkpt lat="43.28481591373487" lon="10.803409862179395"><ele>339.0</ele><time>2026-05-01T11:47:05Z</time></trkpt><trkpt lat="43.28476931736612" lon="10.803334124424536"><ele>342.3333333333333</ele><time>2026-05-01T11:47:06.001Z</time></trkpt><trkpt lat="43.284715994029334" lon="10.803283170105992"><ele>345.6666666666667</ele><time>2026-05-01T11:47:07.001Z</time></trkpt><trkpt lat="43.28463700765434" lon="10.80326904933461"><ele>349.0</ele><time>2026-05-01T11:47:08.001Z</time></trkpt><trkpt lat="43.28456135788512" lon="10.803324319024608"><ele>352.33333333333337</ele><time>2026-05-01T11:47:09.001Z</time></trkpt><trkpt lat="43.28453689176991" lon="10.803430488352262"><ele>355.6666666666667</ele><time>2026-05-01T11:47:10.001Z</time></trkpt><trkpt lat="43.284555019382026" lon="10.803541729220129"><ele>359.0</ele><time>2026-05-01T11:47:11.001Z</time></trkpt><trkpt lat="43.28465931927019" lon="10.80359904685097"><ele>361.5</ele><time>2026-05-01T11:47:12.001Z</time></trkpt><trkpt lat="43.28473780445282" lon="10.803644026501432"><ele>364.0</ele><time>2026-05-01T11:47:13.001Z</time></trkpt><trkpt lat="43.28476991340687" lon="10.803727988971753"><ele>366.5</ele><time>2026-05-01T11:47:14.001Z</time></trkpt><trkpt lat="43.28476584740705" lon="10.80384593320499"><ele>369.0</ele><time>2026-05-01T11:47:16.001Z</time></trkpt><trkpt lat="43.284738607780284" lon="10.80392941730137"><ele>371.5</ele><time>2026-05-01T11:48:10.001Z</time></trkpt><trkpt lat="43.28469356465827" lon="10.804008603249796"><ele>374.0</ele><time>2026-05-01T11:54:25.001Z</time></trkpt><trkpt lat="43.28464946763832" lon="10.804105494955028"><ele>374.0</ele><time>2026-05-01T11:54:27.001Z</time></trkpt><trkpt lat="43.2846074435325" lon="10.804225827601433"><ele>374.0</ele><time>2026-05-01T11:54:29.001Z</time></trkpt><trkpt lat="43.284578457894725" lon="10.804349986470251"><ele>374.0</ele><time>2026-05-01T11:54:31.001Z</time></trkpt><trkpt lat="43.28454690059232" lon="10.80448638219729"><ele>374.0</ele><time>2026-05-01T11:54:33.001Z</time></trkpt><trkpt lat="43.28450697054559" lon="10.804631649164623"><ele>374.0</ele><time>2026-05-01T11:54:35Z</time></trkpt><trkpt lat="43.284446225321254" lon="10.804751206717306"><ele>373.1666666666667</ele><time>2026-05-01T11:54:37Z</time></trkpt><trkpt lat="43.284345172932376" lon="10.80482651576625"><ele>372.33333333333337</ele><time>2026-05-01T11:54:39Z</time></trkpt><trkpt lat="43.28428493184645" lon="10.804867045058993"><ele>371.5</ele><time>2026-05-01T11:54:40Z</time></trkpt><trkpt lat="43.284232836799475" lon="10.804917709876117"><ele>370.6666666666667</ele><time>2026-05-01T11:54:41Z</time></trkpt><trkpt lat="43.284179303609804" lon="10.804977552602502"><ele>369.8333333333333</ele><time>2026-05-01T11:54:42Z</time></trkpt><trkpt lat="43.28412772761255" lon="10.805043479990793"><ele>369.0</ele><time>2026-05-01T11:54:43Z</time></trkpt><trkpt lat="43.28408746305033" lon="10.805115369546925"><ele>368.0</ele><time>2026-05-01T11:54:44Z</time></trkpt><trkpt lat="43.28404898182661" lon="10.805217491245692"><ele>367.0</ele><time>2026-05-01T11:54:45Z</time></trkpt><trkpt lat="43.28404473103119" lon="10.805342450264998"><ele>366.0</ele><time>2026-05-01T11:54:46Z</time></trkpt><trkpt lat="43.2840159403115" lon="10.805420531187147"><ele>365.0</ele><time>2026-05-01T11:54:47Z</time></trkpt><trkpt lat="43.28394345882819" lon="10.805508596389654"><ele>364.0</ele><time>2026-05-01T11:54:49Z</time></trkpt><trkpt lat="43.28387196756482" lon="10.805588578457012"><ele>363.0</ele><time>2026-05-01T11:54:51Z</time></trkpt><trkpt lat="43.28377747228194" lon="10.80568879116652"><ele>366.6666666666667</ele><time>2026-05-01T11:54:53Z</time></trkpt><trkpt lat="43.283722451413766" lon="10.805748208665237"><ele>370.33333333333337</ele><time>2026-05-01T11:54:54Z</time></trkpt><trkpt lat="43.28367101583224" lon="10.805813905637939"><ele>374.0</ele><time>2026-05-01T11:54:55Z</time></trkpt><trkpt lat="43.28362703790595" lon="10.80588780707292"><ele>377.6666666666667</ele><time>2026-05-01T11:54:56Z</time></trkpt><trkpt lat="43.28358284530445" lon="10.80599014168314"><ele>381.33333333333337</ele><time>2026-05-01T11:54:57Z</time></trkpt><trkpt lat="43.28355268732998" lon="10.806099392717037"><ele>385.0</ele><time>2026-05-01T11:54:58Z</time></trkpt><trkpt lat="43.283541320687945" lon="10.806230341172839"><ele>386.6</ele><time>2026-05-01T11:54:59Z</time></trkpt><trkpt lat="43.28357027997161" lon="10.806365461305766"><ele>388.2</ele><time>2026-05-01T11:55:00Z</time></trkpt><trkpt lat="43.28364918446023" lon="10.80650266810475"><ele>389.79999999999995</ele><time>2026-05-01T11:55:02Z</time></trkpt><trkpt lat="43.28373146860159" lon="10.806635005882727"><ele>391.4</ele><time>2026-05-01T11:55:04Z</time></trkpt><trkpt lat="43.283774365355676" lon="10.806710298095602"><ele>393.0</ele><time>2026-05-01T11:55:05Z</time></trkpt><trkpt lat="43.28382277853295" lon="10.806795272720473"><ele>393.7142857142857</ele><time>2026-05-01T11:55:06Z</time></trkpt><trkpt lat="43.283869696459526" lon="10.806881025272926"><ele>394.42857142857144</ele><time>2026-05-01T11:55:07Z</time></trkpt><trkpt lat="43.28392273773566" lon="10.806959325808076"><ele>395.1428571428571</ele><time>2026-05-01T11:55:08Z</time></trkpt><trkpt lat="43.283955856598816" lon="10.807037714757456"><ele>395.8571428571429</ele><time>2026-05-01T11:55:09Z</time></trkpt><trkpt lat="43.283988010834776" lon="10.807118388163998"><ele>396.57142857142856</ele><time>2026-05-01T11:55:10Z</time></trkpt><trkpt lat="43.28399485431956" lon="10.807217860863197"><ele>397.2857142857143</ele><time>2026-05-01T11:55:11Z</time></trkpt><trkpt lat="43.28399983472276" lon="10.807308905661007"><ele>398.0</ele><time>2026-05-01T11:55:12Z</time></trkpt><trkpt lat="43.284002368860044" lon="10.807398677475877"><ele>397.99999999999994</ele><time>2026-05-01T11:55:13Z</time></trkpt><trkpt lat="43.28390271062712" lon="10.80744754844738"><ele>398.0</ele><time>2026-05-01T11:55:15Z</time></trkpt><trkpt lat="43.28383718472125" lon="10.807461239787369"><ele>398.0</ele><time>2026-05-01T11:55:16Z</time></trkpt><trkpt lat="43.2837637492695" lon="10.807466033128659"><ele>398.0</ele><time>2026-05-01T11:55:17Z</time></trkpt><trkpt lat="43.28368535236395" lon="10.80742481903973"><ele>397.99999999999994</ele><time>2026-05-01T11:55:18Z</time></trkpt><trkpt lat="43.28360107471619" lon="10.80741132335991"><ele>398.0</ele><time>2026-05-01T11:55:19Z</time></trkpt><trkpt lat="43.28352181563119" lon="10.807419707251142"><ele>397.99999999999994</ele><time>2026-05-01T11:55:20Z</time></trkpt><trkpt lat="43.28345889766074" lon="10.807443288942602"><ele>398.0</ele><time>2026-05-01T11:55:21Z</time></trkpt><trkpt lat="43.28340459076111" lon="10.80749024886115"><ele>398.0</ele><time>2026-05-01T11:55:22Z</time></trkpt><trkpt lat="43.28339338172697" lon="10.807603146358048"><ele>398.0</ele><time>2026-05-01T11:55:23Z</time></trkpt><trkpt lat="43.28341310849491" lon="10.807701485652924"><ele>397.99999999999994</ele><time>2026-05-01T11:55:24Z</time></trkpt><trkpt lat="43.2834478582129" lon="10.807817196487479"><ele>398.0</ele><time>2026-05-01T11:55:25Z</time></trkpt><trkpt lat="43.28350029168827" lon="10.807919333569984"><ele>399.66666666666663</ele><time>2026-05-01T11:55:26Z</time></trkpt><trkpt lat="43.2835577502094" lon="10.808018853687248"><ele>401.3333333333333</ele><time>2026-05-01T11:55:27Z</time></trkpt><trkpt lat="43.28360753019885" lon="10.80811057847211"><ele>403.0</ele><time>2026-05-01T11:55:28Z</time></trkpt><trkpt lat="43.28364931304035" lon="10.80820488150786"><ele>404.66666666666663</ele><time>2026-05-01T11:55:29Z</time></trkpt><trkpt lat="43.28368872398677" lon="10.808301443837822"><ele>406.3333333333333</ele><time>2026-05-01T11:55:30Z</time></trkpt><trkpt lat="43.28372156773038" lon="10.808398006506776"><ele>408.0</ele><time>2026-05-01T11:55:31Z</time></trkpt><trkpt lat="43.283747265260736" lon="10.80849301023434"><ele>409.1666666666667</ele><time>2026-05-01T11:55:32Z</time></trkpt><trkpt lat="43.28375126918184" lon="10.808656773693308"><ele>410.33333333333337</ele><time>2026-05-01T11:55:34Z</time></trkpt><trkpt lat="43.28374208442893" lon="10.808752264866271"><ele>411.5</ele><time>2026-05-01T11:55:35Z</time></trkpt><trkpt lat="43.283724937712975" lon="10.808855890376025"><ele>412.6666666666667</ele><time>2026-05-01T11:55:36Z</time></trkpt><trkpt lat="43.28370396835949" lon="10.808974148670446"><ele>413.83333333333337</ele><time>2026-05-01T11:55:37Z</time></trkpt><trkpt lat="43.28369116810707" lon="10.809091294333596"><ele>415.0</ele><time>2026-05-01T11:55:38Z</time></trkpt><trkpt lat="43.283695870058196" lon="10.809211740462768"><ele>414.33333333333337</ele><time>2026-05-01T11:55:39Z</time></trkpt><trkpt lat="43.283730703576396" lon="10.809325750673297"><ele>413.6666666666667</ele><time>2026-05-01T11:55:40Z</time></trkpt><trkpt lat="43.28377820218448" lon="10.80942672005182"><ele>413.0</ele><time>2026-05-01T11:55:41Z</time></trkpt><trkpt lat="43.28384273057903" lon="10.809519001959824"><ele>412.33333333333337</ele><time>2026-05-01T11:55:42Z</time></trkpt><trkpt lat="43.283896690766255" lon="10.8095962719288"><ele>411.6666666666667</ele><time>2026-05-01T11:55:43Z</time></trkpt><trkpt lat="43.283949257814285" lon="10.80970965458956"><ele>411.0</ele><time>2026-05-01T11:55:45Z</time></trkpt><trkpt lat="43.2839677547182" lon="10.809792872024056"><ele>411.0</ele><time>2026-05-01T11:55:46Z</time></trkpt><trkpt lat="43.28397625873435" lon="10.809883671894564"><ele>411.0</ele><time>2026-05-01T11:55:47Z</time></trkpt><trkpt lat="43.28394293669414" lon="10.810037137596169"><ele>411.0</ele><time>2026-05-01T11:55:49Z</time></trkpt><trkpt lat="43.28390570147224" lon="10.810108657615995"><ele>411.0</ele><time>2026-05-01T11:55:50Z</time></trkpt><trkpt lat="43.28380132822326" lon="10.810205332793798"><ele>411.0</ele><time>2026-05-01T11:55:52Z</time></trkpt><trkpt lat="43.28374242630989" lon="10.810238651302512"><ele>411.0</ele><time>2026-05-01T11:55:53Z</time></trkpt><trkpt lat="43.28368263873112" lon="10.810288801946921"><ele>408.6666666666667</ele><time>2026-05-01T11:55:54Z</time></trkpt><trkpt lat="43.2836131659485" lon="10.810312524507353"><ele>406.33333333333337</ele><time>2026-05-01T11:55:55Z</time></trkpt><trkpt lat="43.28353447294701" lon="10.810332637492264"><ele>404.0</ele><time>2026-05-01T11:55:56Z</time></trkpt><trkpt lat="43.28345363338639" lon="10.810357454040771"><ele>401.6666666666667</ele><time>2026-05-01T11:55:57Z</time></trkpt><trkpt lat="43.28337200691625" lon="10.810349483379333"><ele>399.33333333333337</ele><time>2026-05-01T11:55:58Z</time></trkpt><trkpt lat="43.2833036904271" lon="10.810348203243779"><ele>397.0</ele><time>2026-05-01T11:55:59Z</time></trkpt><trkpt lat="43.28323322065807" lon="10.810340675038972"><ele>397.00000000000006</ele><time>2026-05-01T11:56:00Z</time></trkpt><trkpt lat="43.28316344615854" lon="10.810327497496766"><ele>397.0</ele><time>2026-05-01T11:56:01Z</time></trkpt><trkpt lat="43.28311632982598" lon="10.810250979441893"><ele>397.0</ele><time>2026-05-01T11:56:02Z</time></trkpt><trkpt lat="43.2830579037579" lon="10.810184116512161"><ele>397.0</ele><time>2026-05-01T11:56:03Z</time></trkpt><trkpt lat="43.28300170775635" lon="10.810103112038862"><ele>397.00000000000006</ele><time>2026-05-01T11:56:04Z</time></trkpt><trkpt lat="43.28294583087018" lon="10.810015587423678"><ele>397.0</ele><time>2026-05-01T11:56:05Z</time></trkpt><trkpt lat="43.282894072796296" lon="10.809936363204468"><ele>399.00000000000006</ele><time>2026-05-01T11:56:06Z</time></trkpt><trkpt lat="43.282830243138946" lon="10.809862169751945"><ele>401.0</ele><time>2026-05-01T11:56:07Z</time></trkpt><trkpt lat="43.28279132132638" lon="10.809762273036336"><ele>403.0</ele><time>2026-05-01T11:56:08Z</time></trkpt><trkpt lat="43.2827344269111" lon="10.809693934711195"><ele>405.0</ele><time>2026-05-01T11:56:09Z</time></trkpt><trkpt lat="43.28266313819216" lon="10.809638889517739"><ele>407.00000000000006</ele><time>2026-05-01T11:56:10Z</time></trkpt><trkpt lat="43.28257788566623" lon="10.809632137297998"><ele>409.0</ele><time>2026-05-01T11:56:11Z</time></trkpt><trkpt lat="43.282496563755025" lon="10.809621626284418"><ele>409.00000000000006</ele><time>2026-05-01T11:56:12Z</time></trkpt><trkpt lat="43.28240891851314" lon="10.809616891317527"><ele>409.0</ele><time>2026-05-01T11:56:13Z</time></trkpt><trkpt lat="43.28231994902888" lon="10.80966190296826"><ele>409.0</ele><time>2026-05-01T11:56:14Z</time></trkpt><trkpt lat="43.28221908886544" lon="10.809707415915646"><ele>409.0</ele><time>2026-05-01T11:56:16Z</time></trkpt><trkpt lat="43.28219834462756" lon="10.809594007501563"><ele>409.00000000000006</ele><time>2026-05-01T11:56:19Z</time></trkpt><trkpt lat="43.28225525715772" lon="10.809543986379294"><ele>409.0</ele><time>2026-05-01T11:56:20Z</time></trkpt><trkpt lat="43.28232698799748" lon="10.809510336618814"><ele>409.00000000000006</ele><time>2026-05-01T11:56:21Z</time></trkpt><trkpt lat="43.28239585125623" lon="10.809460727905565"><ele>409.0</ele><time>2026-05-01T11:56:22Z</time></trkpt><trkpt lat="43.28247635521592" lon="10.809464034833193"><ele>409.0</ele><time>2026-05-01T11:56:23Z</time></trkpt><trkpt lat="43.282557189571186" lon="10.809475693338113"><ele>409.0</ele><time>2026-05-01T11:56:24Z</time></trkpt><trkpt lat="43.282636483548686" lon="10.80948588749874"><ele>409.00000000000006</ele><time>2026-05-01T11:56:25Z</time></trkpt><trkpt lat="43.282719042001204" lon="10.809488087249369"><ele>409.0</ele><time>2026-05-01T11:56:26Z</time></trkpt><trkpt lat="43.28281037412156" lon="10.80953432173472"><ele>409.0</ele><time>2026-05-01T11:56:27Z</time></trkpt><trkpt lat="43.28291669500858" lon="10.809557363108144"><ele>409.0</ele><time>2026-05-01T11:56:28Z</time></trkpt><trkpt lat="43.28301608810313" lon="10.809578345041546"><ele>409.0</ele><time>2026-05-01T11:56:29Z</time></trkpt><trkpt lat="43.28308682201247" lon="10.809600194598751"><ele>409.0</ele><time>2026-05-01T11:56:30.001Z</time></trkpt><trkpt lat="43.283189367386015" lon="10.809558642823541"><ele>409.0</ele><time>2026-05-01T11:56:32.001Z</time></trkpt><trkpt lat="43.28319415087331" lon="10.809385451390257"><ele>409.85714285714283</ele><time>2026-05-01T11:56:34.001Z</time></trkpt><trkpt lat="43.28317281938047" lon="10.809278503976394"><ele>410.7142857142857</ele><time>2026-05-01T11:56:35.001Z</time></trkpt><trkpt lat="43.2831407274243" lon="10.809181208810784"><ele>411.57142857142856</ele><time>2026-05-01T11:56:36.001Z</time></trkpt><trkpt lat="43.283094828219035" lon="10.809099051114632"><ele>412.42857142857144</ele><time>2026-05-01T11:56:37.001Z</time></trkpt><trkpt lat="43.28306832985269" lon="10.809009415545708"><ele>413.28571428571433</ele><time>2026-05-01T11:56:38.001Z</time></trkpt><trkpt lat="43.28303315127545" lon="10.808930290843676"><ele>414.14285714285717</ele><time>2026-05-01T11:56:39.001Z</time></trkpt><trkpt lat="43.28300885459693" lon="10.808845103185638"><ele>415.0</ele><time>2026-05-01T11:56:40.001Z</time></trkpt><trkpt lat="43.28295932333936" lon="10.808766586650544"><ele>417.33333333333337</ele><time>2026-05-01T11:56:41Z</time></trkpt><trkpt lat="43.28289875225032" lon="10.808706399367502"><ele>419.6666666666667</ele><time>2026-05-01T11:56:42Z</time></trkpt><trkpt lat="43.282825511383955" lon="10.80868285660596"><ele>422.0</ele><time>2026-05-01T11:56:43Z</time></trkpt><trkpt lat="43.28273827295182" lon="10.808745325183486"><ele>424.33333333333337</ele><time>2026-05-01T11:56:44Z</time></trkpt><trkpt lat="43.28266656666085" lon="10.808786764997038"><ele>426.6666666666667</ele><time>2026-05-01T11:56:45Z</time></trkpt><trkpt lat="43.28259215648371" lon="10.8088097654329"><ele>429.0</ele><time>2026-05-01T11:56:46Z</time></trkpt><trkpt lat="43.28251394490558" lon="10.808814432414106"><ele>429.0</ele><time>2026-05-01T11:56:47Z</time></trkpt><trkpt lat="43.28243380154187" lon="10.808816607783013"><ele>429.0</ele><time>2026-05-01T11:56:48Z</time></trkpt><trkpt lat="43.282362227025445" lon="10.80881499991618"><ele>429.0</ele><time>2026-05-01T11:56:49Z</time></trkpt><trkpt lat="43.28229150010571" lon="10.808810147749927"><ele>429.0</ele><time>2026-05-01T11:56:50Z</time></trkpt><trkpt lat="43.2822170483846" lon="10.80879947023312"><ele>429.0</ele><time>2026-05-01T11:56:51Z</time></trkpt><trkpt lat="43.282144482235076" lon="10.808785364719828"><ele>429.0</ele><time>2026-05-01T11:56:52Z</time></trkpt><trkpt lat="43.2820746780657" lon="10.808771796081285"><ele>429.0</ele><time>2026-05-01T11:56:53Z</time></trkpt><trkpt lat="43.28201115680165" lon="10.80875945440938"><ele>428.79999999999995</ele><time>2026-05-01T11:56:54Z</time></trkpt><trkpt lat="43.28190673728068" lon="10.808755551516928"><ele>428.59999999999997</ele><time>2026-05-01T11:56:56Z</time></trkpt><trkpt lat="43.281822412523006" lon="10.808714163947545"><ele>428.4</ele><time>2026-05-01T11:56:59Z</time></trkpt><trkpt lat="43.28171784743341" lon="10.808649781329619"><ele>428.2</ele><time>2026-05-01T11:57:01Z</time></trkpt><trkpt lat="43.281638412999285" lon="10.808574288569528"><ele>428.0</ele><time>2026-05-01T11:57:03Z</time></trkpt><trkpt lat="43.28167353736871" lon="10.808437673108386"><ele>431.59999999999997</ele><time>2026-05-01T11:57:04Z</time></trkpt><trkpt lat="43.281738073678625" lon="10.808337354736988"><ele>435.19999999999993</ele><time>2026-05-01T11:57:06Z</time></trkpt><trkpt lat="43.2816496417332" lon="10.808184579906143"><ele>438.8</ele><time>2026-05-01T11:57:27Z</time></trkpt><trkpt lat="43.281576349189514" lon="10.808111549662108"><ele>442.4</ele><time>2026-05-01T11:57:30Z</time></trkpt><trkpt lat="43.281517663898406" lon="10.808066253131482"><ele>446.0</ele><time>2026-05-01T11:57:32Z</time></trkpt><trkpt lat="43.2814585151323" lon="10.808015508344814"><ele>445.99999999999994</ele><time>2026-05-01T11:57:34Z</time></trkpt><trkpt lat="43.28140746743905" lon="10.807962194798709"><ele>446.0</ele><time>2026-05-01T11:59:01Z</time></trkpt><trkpt lat="43.28146893639222" lon="10.80802585623581"><ele>446.0</ele><time>2026-05-01T11:59:06Z</time></trkpt><trkpt lat="43.281537692060574" lon="10.808081712014614"><ele>446.0</ele><time>2026-05-01T12:09:36Z</time></trkpt><trkpt lat="43.28158809739999" lon="10.808024190830182"><ele>445.99999999999994</ele><time>2026-05-01T12:09:37Z</time></trkpt><trkpt lat="43.28167775313027" lon="10.808038744681498"><ele>446.0</ele><time>2026-05-01T12:09:40Z</time></trkpt><trkpt lat="43.281749750198095" lon="10.807999954532978"><ele>445.99999999999994</ele><time>2026-05-01T12:09:44Z</time></trkpt><trkpt lat="43.28176443091258" lon="10.807909869317422"><ele>446.0</ele><time>2026-05-01T12:09:45Z</time></trkpt><trkpt lat="43.281822001337375" lon="10.807798740612395"><ele>446.0</ele><time>2026-05-01T12:09:48Z</time></trkpt><trkpt lat="43.28182971219559" lon="10.807701447744737"><ele>446.0</ele><time>2026-05-01T12:09:50Z</time></trkpt><trkpt lat="43.28185630341088" lon="10.807617144457142"><ele>445.99999999999994</ele><time>2026-05-01T12:09:52Z</time></trkpt><trkpt lat="43.28188398453864" lon="10.80751546755789"><ele>446.0</ele><time>2026-05-01T12:09:56Z</time></trkpt><trkpt lat="43.28191286356288" lon="10.80741567810657"><ele>449.25</ele><time>2026-05-01T12:10:00Z</time></trkpt><trkpt lat="43.28194220768282" lon="10.80730396555448"><ele>452.5</ele><time>2026-05-01T12:10:03Z</time></trkpt><trkpt lat="43.28194861708961" lon="10.807183542083449"><ele>455.75</ele><time>2026-05-01T12:10:06Z</time></trkpt><trkpt lat="43.281949590110706" lon="10.807094839604932"><ele>459.0</ele><time>2026-05-01T12:10:10Z</time></trkpt><trkpt lat="43.28219805073216" lon="10.807075052066304"><ele>459.0</ele><time>2026-05-01T12:10:11Z</time></trkpt><trkpt lat="43.28214049478719" lon="10.806967230458737"><ele>459.0</ele><time>2026-05-01T12:10:19Z</time></trkpt><trkpt lat="43.2821776133231" lon="10.807065390362892"><ele>459.0</ele><time>2026-05-01T12:10:23Z</time></trkpt><trkpt lat="43.282196983898906" lon="10.807150167417163"><ele>459.0</ele><time>2026-05-01T12:10:26Z</time></trkpt><trkpt lat="43.28219805074721" lon="10.807241468198415"><ele>459.0</ele><time>2026-05-01T12:12:38Z</time></trkpt><trkpt lat="43.28216932716842" lon="10.807351556850303"><ele>459.0</ele><time>2026-05-01T12:12:40Z</time></trkpt><trkpt lat="43.28212718652253" lon="10.807465834741583"><ele>459.0</ele><time>2026-05-01T12:12:42Z</time></trkpt><trkpt lat="43.282092496372705" lon="10.807550062685564"><ele>459.0</ele><time>2026-05-01T12:12:44Z</time></trkpt><trkpt lat="43.28203146945843" lon="10.80762641596257"><ele>459.0</ele><time>2026-05-01T12:12:46Z</time></trkpt><trkpt lat="43.28201805362325" lon="10.807747981074344"><ele>459.0</ele><time>2026-05-01T12:12:48Z</time></trkpt><trkpt lat="43.28203214903251" lon="10.807889933768903"><ele>459.0</ele><time>2026-05-01T12:12:50Z</time></trkpt><trkpt lat="43.282023480254566" lon="10.808016450650227"><ele>459.0</ele><time>2026-05-01T12:12:52Z</time></trkpt><trkpt lat="43.282010293159914" lon="10.80811061524658"><ele>456.4</ele><time>2026-05-01T12:12:54Z</time></trkpt><trkpt lat="43.28197618985718" lon="10.808198501152393"><ele>453.79999999999995</ele><time>2026-05-01T12:12:56Z</time></trkpt><trkpt lat="43.281931705573555" lon="10.808263526128282"><ele>451.20000000000005</ele><time>2026-05-01T12:12:58Z</time></trkpt><trkpt lat="43.28183929652814" lon="10.808246276737117"><ele>448.6</ele><time>2026-05-01T12:13:00Z</time></trkpt><trkpt lat="43.28176656345919" lon="10.808293105232373"><ele>446.0</ele><time>2026-05-01T12:13:03Z</time></trkpt><trkpt lat="43.281667229471985" lon="10.808496301673706"><ele>442.4</ele><time>2026-05-01T12:13:07Z</time></trkpt><trkpt lat="43.28171170906347" lon="10.808614915543362"><ele>438.8</ele><time>2026-05-01T12:13:09Z</time></trkpt><trkpt lat="43.28177764168624" lon="10.808685436338148"><ele>435.19999999999993</ele><time>2026-05-01T12:13:11Z</time></trkpt><trkpt lat="43.281766770629616" lon="10.808800161769643"><ele>431.59999999999997</ele><time>2026-05-01T12:13:13Z</time></trkpt><trkpt lat="43.28188693508159" lon="10.808786083642984"><ele>428.0</ele><time>2026-05-01T12:13:14Z</time></trkpt><trkpt lat="43.28198460587093" lon="10.808791125322104"><ele>428.0</ele><time>2026-05-01T12:13:15Z</time></trkpt><trkpt lat="43.2820964555461" lon="10.80880869864975"><ele>428.0</ele><time>2026-05-01T12:13:16Z</time></trkpt><trkpt lat="43.282217484585715" lon="10.808842815487603"><ele>428.0</ele><time>2026-05-01T12:13:17.001Z</time></trkpt><trkpt lat="43.282340161466585" lon="10.808868872533106"><ele>428.0</ele><time>2026-05-01T12:13:18.001Z</time></trkpt><trkpt lat="43.282446587928284" lon="10.80887259147757"><ele>428.16666666666663</ele><time>2026-05-01T12:13:19.001Z</time></trkpt><trkpt lat="43.282539049862834" lon="10.808858145937178"><ele>428.3333333333333</ele><time>2026-05-01T12:13:20.001Z</time></trkpt><trkpt lat="43.28260919647784" lon="10.80883768602614"><ele>428.5</ele><time>2026-05-01T12:13:21.001Z</time></trkpt><trkpt lat="43.28267843866371" lon="10.80883269509376"><ele>428.66666666666663</ele><time>2026-05-01T12:13:22.001Z</time></trkpt><trkpt lat="43.28273812679266" lon="10.808780721009507"><ele>428.8333333333333</ele><time>2026-05-01T12:13:24.001Z</time></trkpt><trkpt lat="43.2826814315136" lon="10.808828770428638"><ele>429.0</ele><time>2026-05-01T12:14:00Z</time></trkpt><trkpt lat="43.282567494977734" lon="10.80885042390932"><ele>429.0</ele><time>2026-05-01T12:14:02Z</time></trkpt><trkpt lat="43.28250357005098" lon="10.80886517176153"><ele>429.0</ele><time>2026-05-01T12:14:03Z</time></trkpt><trkpt lat="43.282431957659774" lon="10.808869823564144"><ele>429.0</ele><time>2026-05-01T12:14:04Z</time></trkpt><trkpt lat="43.28235961034821" lon="10.808863703879679"><ele>429.0</ele><time>2026-05-01T12:14:05Z</time></trkpt><trkpt lat="43.28229013123537" lon="10.808855185275974"><ele>429.0</ele><time>2026-05-01T12:14:06Z</time></trkpt><trkpt lat="43.282217046474706" lon="10.808842535770397"><ele>429.0</ele><time>2026-05-01T12:14:07Z</time></trkpt><trkpt lat="43.2821392599912" lon="10.808824252045067"><ele>429.0</ele><time>2026-05-01T12:14:08Z</time></trkpt><trkpt lat="43.28200313329615" lon="10.808799743388674"><ele>428.8333333333333</ele><time>2026-05-01T12:14:09Z</time></trkpt><trkpt lat="43.28193787831508" lon="10.808794948987513"><ele>428.66666666666663</ele><time>2026-05-01T12:14:10Z</time></trkpt><trkpt lat="43.281852372836845" lon="10.808799262194423"><ele>428.5</ele><time>2026-05-01T12:14:12Z</time></trkpt><trkpt lat="43.28175515773789" lon="10.808800867861477"><ele>428.3333333333333</ele><time>2026-05-01T12:14:15Z</time></trkpt><trkpt lat="43.28172509028257" lon="10.80866278429308"><ele>428.16666666666663</ele><time>2026-05-01T12:14:17Z</time></trkpt><trkpt lat="43.281655185549184" lon="10.808602297267976"><ele>428.0</ele><time>2026-05-01T12:14:19Z</time></trkpt><trkpt lat="43.281573784190186" lon="10.808527733841347"><ele>429.4</ele><time>2026-05-01T12:14:21Z</time></trkpt><trkpt lat="43.28149479566129" lon="10.808451868294243"><ele>430.79999999999995</ele><time>2026-05-01T12:14:23Z</time></trkpt><trkpt lat="43.281385902017135" lon="10.808353233101846"><ele>432.2</ele><time>2026-05-01T12:14:25Z</time></trkpt><trkpt lat="43.281316134820855" lon="10.80830003348585"><ele>433.6</ele><time>2026-05-01T12:14:26Z</time></trkpt><trkpt lat="43.28124096225341" lon="10.8082597067973"><ele>435.0</ele><time>2026-05-01T12:14:27Z</time></trkpt><trkpt lat="43.28116258288765" lon="10.808237321350203"><ele>435.0</ele><time>2026-05-01T12:14:28Z</time></trkpt><trkpt lat="43.281091806570245" lon="10.808229534327497"><ele>435.0</ele><time>2026-05-01T12:14:29Z</time></trkpt><trkpt lat="43.280973749330954" lon="10.808215175535766"><ele>435.0</ele><time>2026-05-01T12:14:31Z</time></trkpt><trkpt lat="43.28087130604758" lon="10.808211678799506"><ele>435.0</ele><time>2026-05-01T12:14:33Z</time></trkpt><trkpt lat="43.28080165957824" lon="10.808211709571099"><ele>435.0</ele><time>2026-05-01T12:14:34Z</time></trkpt><trkpt lat="43.28072314323882" lon="10.808216526342669"><ele>435.0</ele><time>2026-05-01T12:14:35Z</time></trkpt><trkpt lat="43.28064447906392" lon="10.808227784112844"><ele>435.6</ele><time>2026-05-01T12:14:36Z</time></trkpt><trkpt lat="43.280569601111225" lon="10.808254468348515"><ele>436.2</ele><time>2026-05-01T12:14:37Z</time></trkpt><trkpt lat="43.28047891440352" lon="10.808294932444708"><ele>436.79999999999995</ele><time>2026-05-01T12:14:39Z</time></trkpt><trkpt lat="43.280412148872315" lon="10.808334049763088"><ele>437.4</ele><time>2026-05-01T12:14:52Z</time></trkpt><trkpt lat="43.28033303252744" lon="10.808430178393822"><ele>438.0</ele><time>2026-05-01T12:14:54Z</time></trkpt><trkpt lat="43.28021190121388" lon="10.808459373936484"><ele>438.0</ele><time>2026-05-01T12:14:56Z</time></trkpt><trkpt lat="43.28009214617023" lon="10.80847227936226"><ele>438.0</ele><time>2026-05-01T12:14:58Z</time></trkpt><trkpt lat="43.28003116483152" lon="10.808503823885157"><ele>438.0</ele><time>2026-05-01T12:14:59Z</time></trkpt><trkpt lat="43.279967647915456" lon="10.808515766065852"><ele>438.0</ele><time>2026-05-01T12:15:00Z</time></trkpt><trkpt lat="43.27984374968515" lon="10.808571581026161"><ele>438.0</ele><time>2026-05-01T12:15:02Z</time></trkpt><trkpt lat="43.279788403185364" lon="10.80862094274002"><ele>438.0</ele><time>2026-05-01T12:15:03Z</time></trkpt><trkpt lat="43.27973712931771" lon="10.808688428421263"><ele>439.6666666666667</ele><time>2026-05-01T12:15:04Z</time></trkpt><trkpt lat="43.27966969482555" lon="10.808748631876425"><ele>441.33333333333337</ele><time>2026-05-01T12:15:05Z</time></trkpt><trkpt lat="43.27959884741609" lon="10.808818243974454"><ele>443.0</ele><time>2026-05-01T12:15:06Z</time></trkpt><trkpt lat="43.27952616618098" lon="10.808889977899987"><ele>444.6666666666667</ele><time>2026-05-01T12:15:07Z</time></trkpt><trkpt lat="43.27946914730736" lon="10.80895813820326"><ele>446.33333333333337</ele><time>2026-05-01T12:15:08Z</time></trkpt><trkpt lat="43.27939254422625" lon="10.80902978190209"><ele>448.0</ele><time>2026-05-01T12:15:10.001Z</time></trkpt><trkpt lat="43.27933125816656" lon="10.809060454126108"><ele>448.00000000000006</ele><time>2026-05-01T12:15:12.001Z</time></trkpt><trkpt lat="43.279238411378195" lon="10.809034324269513"><ele>448.0</ele><time>2026-05-01T12:15:14.001Z</time></trkpt><trkpt lat="43.27915449059355" lon="10.80891919914986"><ele>448.0</ele><time>2026-05-01T12:15:16.001Z</time></trkpt><trkpt lat="43.2791188960752" lon="10.80884520939601"><ele>448.0</ele><time>2026-05-01T12:15:17.001Z</time></trkpt><trkpt lat="43.279098416993115" lon="10.808760207936214"><ele>448.00000000000006</ele><time>2026-05-01T12:15:18.001Z</time></trkpt><trkpt lat="43.279095031449025" lon="10.808665929307036"><ele>448.0</ele><time>2026-05-01T12:15:19.001Z</time></trkpt><trkpt lat="43.27909321701286" lon="10.808558502272424"><ele>450.1666666666667</ele><time>2026-05-01T12:15:20.001Z</time></trkpt><trkpt lat="43.27908791427107" lon="10.808451203001198"><ele>452.33333333333337</ele><time>2026-05-01T12:15:21.001Z</time></trkpt><trkpt lat="43.279075656349065" lon="10.808359375709788"><ele>454.5</ele><time>2026-05-01T12:15:22.001Z</time></trkpt><trkpt lat="43.279052136002726" lon="10.808249385934651"><ele>456.66666666666663</ele><time>2026-05-01T12:15:23.001Z</time></trkpt><trkpt lat="43.279028822686705" lon="10.808132878247648"><ele>458.8333333333333</ele><time>2026-05-01T12:15:24.001Z</time></trkpt><trkpt lat="43.27902306887682" lon="10.808027505328615"><ele>461.0</ele><time>2026-05-01T12:15:25.001Z</time></trkpt><trkpt lat="43.27899714420205" lon="10.807934944422566"><ele>460.99999999999994</ele><time>2026-05-01T12:15:27.001Z</time></trkpt><trkpt lat="43.27896514274039" lon="10.807857943243262"><ele>461.0</ele><time>2026-05-01T12:15:29.001Z</time></trkpt><trkpt lat="43.2788779234876" lon="10.80775589540251"><ele>461.0</ele><time>2026-05-01T12:15:31.001Z</time></trkpt><trkpt lat="43.27881041686138" lon="10.807721762042405"><ele>461.0</ele><time>2026-05-01T12:15:32.001Z</time></trkpt><trkpt lat="43.27874112315107" lon="10.807693138813635"><ele>460.99999999999994</ele><time>2026-05-01T12:15:33.001Z</time></trkpt><trkpt lat="43.278677054742865" lon="10.80766848104248"><ele>461.0</ele><time>2026-05-01T12:15:34.001Z</time></trkpt><trkpt lat="43.278560066522374" lon="10.80760747541449"><ele>461.16666666666663</ele><time>2026-05-01T12:15:36Z</time></trkpt><trkpt lat="43.27847525212588" lon="10.807507216324485"><ele>461.3333333333333</ele><time>2026-05-01T12:15:38Z</time></trkpt><trkpt lat="43.27844233753738" lon="10.807430688808068"><ele>461.5</ele><time>2026-05-01T12:15:39Z</time></trkpt><trkpt lat="43.27839848774547" lon="10.807326171935879"><ele>461.66666666666663</ele><time>2026-05-01T12:15:40Z</time></trkpt><trkpt lat="43.278353134554926" lon="10.807209920841627"><ele>461.8333333333333</ele><time>2026-05-01T12:15:41Z</time></trkpt><trkpt lat="43.27832473412749" lon="10.807105792730502"><ele>462.0</ele><time>2026-05-01T12:15:42Z</time></trkpt><trkpt lat="43.27829556740306" lon="10.806997486734444"><ele>462.0</ele><time>2026-05-01T12:15:43Z</time></trkpt><trkpt lat="43.27825610131403" lon="10.806897815972578"><ele>462.00000000000006</ele><time>2026-05-01T12:15:44Z</time></trkpt><trkpt lat="43.27819551094478" lon="10.806808970154924"><ele>462.00000000000006</ele><time>2026-05-01T12:15:45Z</time></trkpt><trkpt lat="43.27811187338004" lon="10.80675646533987"><ele>462.0</ele><time>2026-05-01T12:15:46Z</time></trkpt><trkpt lat="43.277994822000835" lon="10.806761725589432"><ele>462.0</ele><time>2026-05-01T12:15:47Z</time></trkpt><trkpt lat="43.27788547453653" lon="10.806759258869906"><ele>463.0</ele><time>2026-05-01T12:15:48Z</time></trkpt><trkpt lat="43.277792254146526" lon="10.806752011454039"><ele>464.00000000000006</ele><time>2026-05-01T12:15:49Z</time></trkpt><trkpt lat="43.27772926730798" lon="10.806737344604784"><ele>465.00000000000006</ele><time>2026-05-01T12:15:50Z</time></trkpt><trkpt lat="43.277627526622474" lon="10.80668780103806"><ele>466.0</ele><time>2026-05-01T12:15:52Z</time></trkpt><trkpt lat="43.27757813197592" lon="10.806587894108036"><ele>467.0</ele><time>2026-05-01T12:15:53Z</time></trkpt><trkpt lat="43.27750058338121" lon="10.806490966629893"><ele>467.0</ele><time>2026-05-01T12:15:54Z</time></trkpt><trkpt lat="43.277432967841385" lon="10.8063913927314"><ele>467.00000000000006</ele><time>2026-05-01T12:15:55Z</time></trkpt><trkpt lat="43.27737774041629" lon="10.806293287435372"><ele>467.00000000000006</ele><time>2026-05-01T12:15:56Z</time></trkpt><trkpt lat="43.27731998841322" lon="10.806171750722422"><ele>467.0</ele><time>2026-05-01T12:15:57Z</time></trkpt><trkpt lat="43.277259414127165" lon="10.806023706346194"><ele>467.0</ele><time>2026-05-01T12:15:58Z</time></trkpt><trkpt lat="43.27720507963124" lon="10.805889501900765"><ele>467.6</ele><time>2026-05-01T12:15:59Z</time></trkpt><trkpt lat="43.277148814513886" lon="10.805764941554354"><ele>468.20000000000005</ele><time>2026-05-01T12:16:00Z</time></trkpt><trkpt lat="43.27709259581284" lon="10.805649843083499"><ele>468.8</ele><time>2026-05-01T12:16:01Z</time></trkpt><trkpt lat="43.27703332837989" lon="10.805535327039072"><ele>469.4</ele><time>2026-05-01T12:16:02Z</time></trkpt><trkpt lat="43.27697383464056" lon="10.805456922538054"><ele>470.0</ele><time>2026-05-01T12:16:03Z</time></trkpt><trkpt lat="43.276890602615644" lon="10.805411001912093"><ele>470.0</ele><time>2026-05-01T12:16:04Z</time></trkpt><trkpt lat="43.27677971214894" lon="10.805438008599705"><ele>470.0</ele><time>2026-05-01T12:16:05Z</time></trkpt><trkpt lat="43.27668217210257" lon="10.805529916844673"><ele>470.0</ele><time>2026-05-01T12:16:06Z</time></trkpt><trkpt lat="43.27656256683256" lon="10.805574312113283"><ele>470.0</ele><time>2026-05-01T12:16:07Z</time></trkpt><trkpt lat="43.276471597173675" lon="10.805582760559533"><ele>470.0</ele><time>2026-05-01T12:16:08Z</time></trkpt><trkpt lat="43.2763723717153" lon="10.805586843402033"><ele>469.0</ele><time>2026-05-01T12:16:09Z</time></trkpt><trkpt lat="43.27628419321481" lon="10.805583284751103"><ele>468.0</ele><time>2026-05-01T12:16:10Z</time></trkpt><trkpt lat="43.27621102334304" lon="10.805569553938048"><ele>467.0</ele><time>2026-05-01T12:16:11Z</time></trkpt><trkpt lat="43.276094267394136" lon="10.805503880999533"><ele>466.0</ele><time>2026-05-01T12:16:13Z</time></trkpt><trkpt lat="43.276039225397845" lon="10.805446299569311"><ele>465.0</ele><time>2026-05-01T12:16:14Z</time></trkpt><trkpt lat="43.27597644151921" lon="10.805344035877964"><ele>465.0</ele><time>2026-05-01T12:16:16Z</time></trkpt><trkpt lat="43.27590868668569" lon="10.805231129102603"><ele>465.0</ele><time>2026-05-01T12:16:18Z</time></trkpt><trkpt lat="43.2758741036741" lon="10.805156333174185"><ele>465.0</ele><time>2026-05-01T12:16:19Z</time></trkpt><trkpt lat="43.27583583068218" lon="10.805077211414806"><ele>465.0</ele><time>2026-05-01T12:16:20Z</time></trkpt><trkpt lat="43.27577099756479" lon="10.804985724959304"><ele>465.0</ele><time>2026-05-01T12:16:21Z</time></trkpt><trkpt lat="43.275667851482" lon="10.804910380013675"><ele>465.0</ele><time>2026-05-01T12:16:22Z</time></trkpt><trkpt lat="43.27556989350975" lon="10.804861724022148"><ele>465.0</ele><time>2026-05-01T12:16:23Z</time></trkpt><trkpt lat="43.27547111787998" lon="10.804831233220476"><ele>465.0</ele><time>2026-05-01T12:16:24Z</time></trkpt><trkpt lat="43.27536305770379" lon="10.804821490199355"><ele>465.0</ele><time>2026-05-01T12:16:25Z</time></trkpt><trkpt lat="43.27525069531606" lon="10.804852720109269"><ele>465.0</ele><time>2026-05-01T12:16:26Z</time></trkpt><trkpt lat="43.275153824207024" lon="10.804877335291529"><ele>465.0</ele><time>2026-05-01T12:16:27Z</time></trkpt><trkpt lat="43.27503359791073" lon="10.804917256042568"><ele>465.0</ele><time>2026-05-01T12:16:28Z</time></trkpt><trkpt lat="43.27493546236073" lon="10.804949641158952"><ele>465.0</ele><time>2026-05-01T12:16:29Z</time></trkpt><trkpt lat="43.27482850133662" lon="10.804984938674904"><ele>465.0</ele><time>2026-05-01T12:16:30Z</time></trkpt><trkpt lat="43.27473831702454" lon="10.80501486226769"><ele>465.0</ele><time>2026-05-01T12:16:31Z</time></trkpt><trkpt lat="43.27464422563483" lon="10.805047551588977"><ele>463.0</ele><time>2026-05-01T12:16:32Z</time></trkpt><trkpt lat="43.274531552218754" lon="10.805089587757994"><ele>461.0</ele><time>2026-05-01T12:16:33Z</time></trkpt><trkpt lat="43.27439453643727" lon="10.805134856783965"><ele>459.0</ele><time>2026-05-01T12:16:34Z</time></trkpt><trkpt lat="43.274244731541295" lon="10.805172925725083"><ele>457.0</ele><time>2026-05-01T12:16:35Z</time></trkpt><trkpt lat="43.27408414675839" lon="10.805203865041037"><ele>455.0</ele><time>2026-05-01T12:16:36Z</time></trkpt><trkpt lat="43.27392571261256" lon="10.805227215653373"><ele>453.0</ele><time>2026-05-01T12:16:37Z</time></trkpt><trkpt lat="43.27377758365148" lon="10.805246719224463"><ele>451.0</ele><time>2026-05-01T12:16:38Z</time></trkpt><trkpt lat="43.27362744576939" lon="10.80526478967642"><ele>451.0</ele><time>2026-05-01T12:16:39Z</time></trkpt><trkpt lat="43.27347116892919" lon="10.805279311936069"><ele>451.0</ele><time>2026-05-01T12:16:40Z</time></trkpt><trkpt lat="43.27331517910893" lon="10.805291032245577"><ele>451.0</ele><time>2026-05-01T12:16:41Z</time></trkpt><trkpt lat="43.27316587429099" lon="10.805300557008938"><ele>450.75</ele><time>2026-05-01T12:16:42Z</time></trkpt><trkpt lat="43.27302850480382" lon="10.805309320365707"><ele>450.5</ele><time>2026-05-01T12:16:43Z</time></trkpt><trkpt lat="43.27290801079597" lon="10.805322888908957"><ele>450.25</ele><time>2026-05-01T12:16:44Z</time></trkpt><trkpt lat="43.27279004439731" lon="10.80533946339802"><ele>450.0</ele><time>2026-05-01T12:16:45Z</time></trkpt><trkpt lat="43.272681769870985" lon="10.805359575699882"><ele>450.0</ele><time>2026-05-01T12:16:46Z</time></trkpt><trkpt lat="43.27257675004971" lon="10.805391463036731"><ele>450.0</ele><time>2026-05-01T12:16:47Z</time></trkpt><trkpt lat="43.272482309599766" lon="10.805422801703324"><ele>450.0</ele><time>2026-05-01T12:16:48Z</time></trkpt><trkpt lat="43.2723804208777" lon="10.805456698738048"><ele>450.0</ele><time>2026-05-01T12:16:49Z</time></trkpt><trkpt lat="43.27228598853655" lon="10.805495291565387"><ele>450.0</ele><time>2026-05-01T12:16:50Z</time></trkpt><trkpt lat="43.2722063406977" lon="10.805531103826798"><ele>450.0</ele><time>2026-05-01T12:16:51Z</time></trkpt><trkpt lat="43.272144253024344" lon="10.80555952087059"><ele>450.0</ele><time>2026-05-01T12:16:52Z</time></trkpt><trkpt lat="43.27203913888442" lon="10.805608592592868"><ele>450.0</ele><time>2026-05-01T12:16:54Z</time></trkpt><trkpt lat="43.27194022702719" lon="10.805659744882055"><ele>450.0</ele><time>2026-05-01T12:16:56Z</time></trkpt><trkpt lat="43.271891979052114" lon="10.805739204582231"><ele>450.0</ele><time>2026-05-01T12:16:58Z</time></trkpt><trkpt lat="43.2718088258638" lon="10.805764742662108"><ele>450.0</ele><time>2026-05-01T12:41:48.001Z</time></trkpt><trkpt lat="43.27174428189793" lon="10.805785101545077"><ele>450.0</ele><time>2026-05-01T12:41:49.001Z</time></trkpt><trkpt lat="43.27168105697038" lon="10.805797054947337"><ele>450.0</ele><time>2026-05-01T12:41:50.001Z</time></trkpt><trkpt lat="43.27160481503019" lon="10.805803069547235"><ele>450.0</ele><time>2026-05-01T12:41:51.001Z</time></trkpt><trkpt lat="43.271526570556496" lon="10.805806677525581"><ele>450.0</ele><time>2026-05-01T12:41:52.001Z</time></trkpt><trkpt lat="43.27145375871209" lon="10.805809642842203"><ele>450.0</ele><time>2026-05-01T12:41:53.001Z</time></trkpt><trkpt lat="43.271378323857434" lon="10.80577672943105"><ele>450.0</ele><time>2026-05-01T12:41:54.001Z</time></trkpt><trkpt lat="43.271287981359514" lon="10.805776242511833"><ele>450.2</ele><time>2026-05-01T12:41:55.001Z</time></trkpt><trkpt lat="43.271189225957265" lon="10.805777110645566"><ele>450.4</ele><time>2026-05-01T12:41:56.001Z</time></trkpt><trkpt lat="43.271090355507845" lon="10.805787284229705"><ele>450.6</ele><time>2026-05-01T12:41:57.001Z</time></trkpt><trkpt lat="43.27099481812784" lon="10.80580397539471"><ele>450.8</ele><time>2026-05-01T12:41:58.001Z</time></trkpt><trkpt lat="43.27088666547557" lon="10.8058228854412"><ele>451.0</ele><time>2026-05-01T12:41:59.001Z</time></trkpt><trkpt lat="43.27077344009259" lon="10.805839919934538"><ele>451.0</ele><time>2026-05-01T12:42:00.001Z</time></trkpt><trkpt lat="43.27066371778001" lon="10.80585031647781"><ele>451.0</ele><time>2026-05-01T12:42:01.001Z</time></trkpt><trkpt lat="43.27055443763123" lon="10.805854826503158"><ele>451.0</ele><time>2026-05-01T12:42:02.001Z</time></trkpt><trkpt lat="43.270439904293575" lon="10.805860301280838"><ele>451.0</ele><time>2026-05-01T12:42:03.001Z</time></trkpt><trkpt lat="43.27032362557114" lon="10.805873303930893"><ele>451.25</ele><time>2026-05-01T12:42:04.001Z</time></trkpt><trkpt lat="43.270218323709905" lon="10.805889476791997"><ele>451.5</ele><time>2026-05-01T12:42:05.001Z</time></trkpt><trkpt lat="43.27010292738323" lon="10.805906365645903"><ele>451.75</ele><time>2026-05-01T12:42:06.001Z</time></trkpt><trkpt lat="43.26997675766306" lon="10.805919855830696"><ele>452.0</ele><time>2026-05-01T12:42:07.001Z</time></trkpt><trkpt lat="43.26985246625393" lon="10.805932052891476"><ele>453.0</ele><time>2026-05-01T12:42:08.001Z</time></trkpt><trkpt lat="43.26973040335698" lon="10.805941304270675"><ele>454.00000000000006</ele><time>2026-05-01T12:42:09.001Z</time></trkpt><trkpt lat="43.26963009257972" lon="10.805946505439637"><ele>455.00000000000006</ele><time>2026-05-01T12:42:10.001Z</time></trkpt><trkpt lat="43.269544170421035" lon="10.805934052556715"><ele>456.0</ele><time>2026-05-01T12:42:11.001Z</time></trkpt><trkpt lat="43.26945378018963" lon="10.80590933527091"><ele>457.0</ele><time>2026-05-01T12:42:12.001Z</time></trkpt><trkpt lat="43.26936679307315" lon="10.805845091164214"><ele>457.0</ele><time>2026-05-01T12:42:13.001Z</time></trkpt><trkpt lat="43.26927690384634" lon="10.80576477136141"><ele>457.00000000000006</ele><time>2026-05-01T12:42:14.001Z</time></trkpt><trkpt lat="43.26918051490913" lon="10.805691572658175"><ele>457.00000000000006</ele><time>2026-05-01T12:42:15.001Z</time></trkpt><trkpt lat="43.269085102681395" lon="10.805635034744542"><ele>457.0</ele><time>2026-05-01T12:42:16.001Z</time></trkpt><trkpt lat="43.26899779138721" lon="10.805605012839303"><ele>457.0</ele><time>2026-05-01T12:42:17.001Z</time></trkpt><trkpt lat="43.26892594153685" lon="10.805574237701224"><ele>457.00000000000006</ele><time>2026-05-01T12:42:18.001Z</time></trkpt><trkpt lat="43.268848937080094" lon="10.805602486175477"><ele>457.0</ele><time>2026-05-01T12:42:19.001Z</time></trkpt><trkpt lat="43.268769593973445" lon="10.805593401887096"><ele>457.0</ele><time>2026-05-01T12:42:20.001Z</time></trkpt><trkpt lat="43.26868785751825" lon="10.805604741062782"><ele>457.0</ele><time>2026-05-01T12:42:21.001Z</time></trkpt><trkpt lat="43.26860437784973" lon="10.80561632204322"><ele>457.00000000000006</ele><time>2026-05-01T12:42:22.001Z</time></trkpt><trkpt lat="43.2685287139346" lon="10.8056284902345"><ele>457.0</ele><time>2026-05-01T12:42:23.001Z</time></trkpt><trkpt lat="43.26844924856685" lon="10.80564084495095"><ele>457.00000000000006</ele><time>2026-05-01T12:42:24.001Z</time></trkpt><trkpt lat="43.268364685790594" lon="10.805648440356393"><ele>457.0</ele><time>2026-05-01T12:42:25.001Z</time></trkpt><trkpt lat="43.26827740732551" lon="10.80565233950103"><ele>457.0</ele><time>2026-05-01T12:42:26.001Z</time></trkpt><trkpt lat="43.26819308219156" lon="10.805651194977994"><ele>457.0</ele><time>2026-05-01T12:42:27.001Z</time></trkpt><trkpt lat="43.26810751581341" lon="10.805641963162396"><ele>457.00000000000006</ele><time>2026-05-01T12:42:28.001Z</time></trkpt><trkpt lat="43.268025443579674" lon="10.805625701920926"><ele>457.0</ele><time>2026-05-01T12:42:29.001Z</time></trkpt><trkpt lat="43.26793858835377" lon="10.805603083836909"><ele>457.20000000000005</ele><time>2026-05-01T12:42:30.001Z</time></trkpt><trkpt lat="43.26785759567458" lon="10.805593122064398"><ele>457.40000000000003</ele><time>2026-05-01T12:42:31.001Z</time></trkpt><trkpt lat="43.26776996955597" lon="10.805556314851327"><ele>457.59999999999997</ele><time>2026-05-01T12:42:32.001Z</time></trkpt><trkpt lat="43.26767947839609" lon="10.80550855585775"><ele>457.79999999999995</ele><time>2026-05-01T12:42:33.001Z</time></trkpt><trkpt lat="43.267584406358715" lon="10.805461605631658"><ele>458.0</ele><time>2026-05-01T12:42:34.001Z</time></trkpt><trkpt lat="43.267480004452416" lon="10.805404309883857"><ele>458.0</ele><time>2026-05-01T12:42:35.001Z</time></trkpt><trkpt lat="43.267377978408305" lon="10.805345540898127"><ele>458.0</ele><time>2026-05-01T12:42:36.001Z</time></trkpt><trkpt lat="43.2672640940071" lon="10.805301174695817"><ele>458.0</ele><time>2026-05-01T12:42:37.001Z</time></trkpt><trkpt lat="43.26712438417699" lon="10.80527192157016"><ele>458.0</ele><time>2026-05-01T12:42:38.001Z</time></trkpt><trkpt lat="43.26699419600559" lon="10.805244315613379"><ele>457.25</ele><time>2026-05-01T12:42:39.001Z</time></trkpt><trkpt lat="43.2668666078268" lon="10.80518984157235"><ele>456.5</ele><time>2026-05-01T12:42:40.001Z</time></trkpt><trkpt lat="43.26674416685184" lon="10.805106531847064"><ele>455.75</ele><time>2026-05-01T12:42:41.001Z</time></trkpt><trkpt lat="43.26661580313242" lon="10.805015440183197"><ele>455.0</ele><time>2026-05-01T12:42:42.001Z</time></trkpt><trkpt lat="43.26649263483513" lon="10.804918466092895"><ele>460.0</ele><time>2026-05-01T12:42:43.001Z</time></trkpt><trkpt lat="43.266368125635395" lon="10.804812961880186"><ele>465.0</ele><time>2026-05-01T12:42:44.001Z</time></trkpt><trkpt lat="43.26624036375867" lon="10.804695951678097"><ele>470.0</ele><time>2026-05-01T12:42:45.001Z</time></trkpt><trkpt lat="43.26611997843778" lon="10.804570516239062"><ele>470.0</ele><time>2026-05-01T12:42:46.001Z</time></trkpt><trkpt lat="43.26600861320829" lon="10.80444280810192"><ele>470.0</ele><time>2026-05-01T12:42:47.001Z</time></trkpt><trkpt lat="43.26591330197769" lon="10.804349356390606"><ele>470.0</ele><time>2026-05-01T12:42:48.001Z</time></trkpt><trkpt lat="43.265810396376224" lon="10.804266950665573"><ele>470.0</ele><time>2026-05-01T12:42:49.001Z</time></trkpt><trkpt lat="43.26569521922459" lon="10.804190610061088"><ele>470.6</ele><time>2026-05-01T12:42:50.001Z</time></trkpt><trkpt lat="43.26559495178492" lon="10.804118592454046"><ele>471.2</ele><time>2026-05-01T12:42:51.001Z</time></trkpt><trkpt lat="43.265531896553284" lon="10.804018621043056"><ele>471.79999999999995</ele><time>2026-05-01T12:42:52.001Z</time></trkpt><trkpt lat="43.265474660725765" lon="10.803919614337094"><ele>472.4</ele><time>2026-05-01T12:42:53Z</time></trkpt><trkpt lat="43.26542632698163" lon="10.803819361751914"><ele>473.0</ele><time>2026-05-01T12:42:54Z</time></trkpt><trkpt lat="43.26540861922919" lon="10.803696233895337"><ele>473.0</ele><time>2026-05-01T12:42:55Z</time></trkpt><trkpt lat="43.265375729148566" lon="10.803599434961253"><ele>472.99999999999994</ele><time>2026-05-01T12:42:56Z</time></trkpt><trkpt lat="43.26531086810874" lon="10.803543848946603"><ele>472.99999999999994</ele><time>2026-05-01T12:42:57Z</time></trkpt><trkpt lat="43.26521764389558" lon="10.803513045008865"><ele>473.0</ele><time>2026-05-01T12:42:58Z</time></trkpt><trkpt lat="43.265115004930855" lon="10.803481027506024"><ele>473.0</ele><time>2026-05-01T12:42:59Z</time></trkpt><trkpt lat="43.264991830336825" lon="10.803474620436479"><ele>474.25</ele><time>2026-05-01T12:43:00Z</time></trkpt><trkpt lat="43.26486176744822" lon="10.803476529068126"><ele>475.5</ele><time>2026-05-01T12:43:01Z</time></trkpt><trkpt lat="43.26472194729866" lon="10.803483040207192"><ele>476.75</ele><time>2026-05-01T12:43:02Z</time></trkpt><trkpt lat="43.26457848190871" lon="10.803494982231756"><ele>478.0</ele><time>2026-05-01T12:43:03Z</time></trkpt><trkpt lat="43.264454146402564" lon="10.803515908583229"><ele>478.0</ele><time>2026-05-01T12:43:04Z</time></trkpt><trkpt lat="43.264344719593254" lon="10.803529138825805"><ele>477.99999999999994</ele><time>2026-05-01T12:43:05Z</time></trkpt><trkpt lat="43.26425248146948" lon="10.80353071505503"><ele>477.99999999999994</ele><time>2026-05-01T12:43:06Z</time></trkpt><trkpt lat="43.264163873939275" lon="10.80351248410257"><ele>478.0</ele><time>2026-05-01T12:43:07Z</time></trkpt><trkpt lat="43.26408018775322" lon="10.803482663442614"><ele>478.0</ele><time>2026-05-01T12:43:08Z</time></trkpt><trkpt lat="43.26400111741916" lon="10.803390629810377"><ele>474.75</ele><time>2026-05-01T12:43:09Z</time></trkpt><trkpt lat="43.263910542654045" lon="10.80327378766289"><ele>471.5</ele><time>2026-05-01T12:43:10Z</time></trkpt><trkpt lat="43.26380985074279" lon="10.803150489620272"><ele>468.25</ele><time>2026-05-01T12:43:11Z</time></trkpt><trkpt lat="43.263725217440694" lon="10.803046218189305"><ele>465.0</ele><time>2026-05-01T12:43:12Z</time></trkpt><trkpt lat="43.263673817588334" lon="10.802926203732172"><ele>465.0</ele><time>2026-05-01T12:43:13Z</time></trkpt><trkpt lat="43.26362956451724" lon="10.802797629030175"><ele>465.0</ele><time>2026-05-01T12:43:14Z</time></trkpt><trkpt lat="43.26358314632344" lon="10.802650489906682"><ele>465.0</ele><time>2026-05-01T12:43:15Z</time></trkpt><trkpt lat="43.263575220254914" lon="10.802505382051121"><ele>465.0</ele><time>2026-05-01T12:43:16Z</time></trkpt><trkpt lat="43.26358735642933" lon="10.802351286788333"><ele>465.0</ele><time>2026-05-01T12:43:17Z</time></trkpt><trkpt lat="43.26362208355546" lon="10.802170636423236"><ele>465.25</ele><time>2026-05-01T12:43:18Z</time></trkpt><trkpt lat="43.26367583384069" lon="10.801966213530829"><ele>465.5</ele><time>2026-05-01T12:43:19Z</time></trkpt><trkpt lat="43.2636985494993" lon="10.801785423332957"><ele>465.75</ele><time>2026-05-01T12:43:20Z</time></trkpt><trkpt lat="43.26372748335395" lon="10.801626550262188"><ele>466.0</ele><time>2026-05-01T12:43:21Z</time></trkpt><trkpt lat="43.26377699925643" lon="10.801483603296505"><ele>466.0</ele><time>2026-05-01T12:43:22Z</time></trkpt><trkpt lat="43.26383248888554" lon="10.801347744592055"><ele>466.0</ele><time>2026-05-01T12:43:23Z</time></trkpt><trkpt lat="43.26387347389523" lon="10.801235508133285"><ele>466.0</ele><time>2026-05-01T12:43:24Z</time></trkpt><trkpt lat="43.26390477417637" lon="10.801123370785833"><ele>466.0</ele><time>2026-05-01T12:43:25Z</time></trkpt><trkpt lat="43.263931118749554" lon="10.801006777744641"><ele>466.0</ele><time>2026-05-01T12:43:26Z</time></trkpt><trkpt lat="43.26390990598134" lon="10.800885934995526"><ele>465.25</ele><time>2026-05-01T12:43:27Z</time></trkpt><trkpt lat="43.26384154066578" lon="10.800768894510949"><ele>464.5</ele><time>2026-05-01T12:43:28Z</time></trkpt><trkpt lat="43.263747957538726" lon="10.800663113569627"><ele>463.75</ele><time>2026-05-01T12:43:29Z</time></trkpt><trkpt lat="43.26362500214893" lon="10.800547791824869"><ele>463.0</ele><time>2026-05-01T12:43:30Z</time></trkpt><trkpt lat="43.26351875724476" lon="10.80041500047985"><ele>463.0</ele><time>2026-05-01T12:43:31Z</time></trkpt><trkpt lat="43.26339949893632" lon="10.800289968760781"><ele>463.0</ele><time>2026-05-01T12:43:32Z</time></trkpt><trkpt lat="43.26326823375906" lon="10.800158258807619"><ele>463.0</ele><time>2026-05-01T12:43:33Z</time></trkpt><trkpt lat="43.26311903675414" lon="10.800017446038966"><ele>465.0</ele><time>2026-05-01T12:43:34Z</time></trkpt><trkpt lat="43.26295240215381" lon="10.799887681628917"><ele>467.0</ele><time>2026-05-01T12:43:35Z</time></trkpt><trkpt lat="43.262818913708195" lon="10.799756567237434"><ele>469.0</ele><time>2026-05-01T12:43:36Z</time></trkpt><trkpt lat="43.26270240630948" lon="10.799627985576143"><ele>469.0</ele><time>2026-05-01T12:43:37Z</time></trkpt><trkpt lat="43.26259695739866" lon="10.799526910900397"><ele>469.0</ele><time>2026-05-01T12:43:38Z</time></trkpt><trkpt lat="43.26252920101839" lon="10.799438266406723"><ele>469.0</ele><time>2026-05-01T12:43:39Z</time></trkpt><trkpt lat="43.262462963427254" lon="10.799359707798647"><ele>469.0</ele><time>2026-05-01T12:43:40Z</time></trkpt><trkpt lat="43.262406994512524" lon="10.799264764688514"><ele>469.0</ele><time>2026-05-01T12:43:41Z</time></trkpt><trkpt lat="43.262357232928764" lon="10.79913342615509"><ele>470.5</ele><time>2026-05-01T12:43:42Z</time></trkpt><trkpt lat="43.26231255033864" lon="10.798968349255503"><ele>472.0</ele><time>2026-05-01T12:43:43Z</time></trkpt><trkpt lat="43.262250024418755" lon="10.798790394363522"><ele>473.5</ele><time>2026-05-01T12:43:44Z</time></trkpt><trkpt lat="43.262214367087495" lon="10.798625673685438"><ele>475.0</ele><time>2026-05-01T12:43:45Z</time></trkpt><trkpt lat="43.26217857606031" lon="10.798482348723354"><ele>477.8</ele><time>2026-05-01T12:43:46Z</time></trkpt><trkpt lat="43.26214745270425" lon="10.798351474778954"><ele>480.6</ele><time>2026-05-01T12:43:47Z</time></trkpt><trkpt lat="43.2621239031451" lon="10.79823227617904"><ele>483.4</ele><time>2026-05-01T12:43:48Z</time></trkpt><trkpt lat="43.262098622861785" lon="10.798122594323855"><ele>486.2</ele><time>2026-05-01T12:43:49Z</time></trkpt><trkpt lat="43.26207334474813" lon="10.798019334156963"><ele>489.0</ele><time>2026-05-01T12:43:50Z</time></trkpt><trkpt lat="43.262043555404844" lon="10.797881696570187"><ele>489.0</ele><time>2026-05-01T12:43:51Z</time></trkpt><trkpt lat="43.262011007372564" lon="10.797720840048548"><ele>489.0</ele><time>2026-05-01T12:43:52Z</time></trkpt><trkpt lat="43.26196583628898" lon="10.797548765400261"><ele>489.0</ele><time>2026-05-01T12:43:53Z</time></trkpt><trkpt lat="43.26190493754536" lon="10.797363528534527"><ele>489.0</ele><time>2026-05-01T12:43:54Z</time></trkpt><trkpt lat="43.26186695081799" lon="10.797173428188955"><ele>488.5</ele><time>2026-05-01T12:43:55Z</time></trkpt><trkpt lat="43.261818403032585" lon="10.797016262006057"><ele>488.0</ele><time>2026-05-01T12:43:56Z</time></trkpt><trkpt lat="43.26179101723396" lon="10.796876668849487"><ele>487.5</ele><time>2026-05-01T12:43:57Z</time></trkpt><trkpt lat="43.26174149096641" lon="10.79671722824239"><ele>487.0</ele><time>2026-05-01T12:43:58Z</time></trkpt><trkpt lat="43.26166825419983" lon="10.79654400450862"><ele>484.6666666666667</ele><time>2026-05-01T12:43:59Z</time></trkpt><trkpt lat="43.261594457720705" lon="10.79636666588326"><ele>482.33333333333337</ele><time>2026-05-01T12:44:00Z</time></trkpt><trkpt lat="43.261530742256305" lon="10.796164057107852"><ele>480.0</ele><time>2026-05-01T12:44:01Z</time></trkpt><trkpt lat="43.26147996617221" lon="10.795979706622909"><ele>479.0</ele><time>2026-05-01T12:44:02Z</time></trkpt><trkpt lat="43.26142459163809" lon="10.795792392865438"><ele>478.0</ele><time>2026-05-01T12:44:03.001Z</time></trkpt><trkpt lat="43.26135914097713" lon="10.795604134923863"><ele>477.0</ele><time>2026-05-01T12:44:04.001Z</time></trkpt><trkpt lat="43.26128092071674" lon="10.795408113960079"><ele>477.0</ele><time>2026-05-01T12:44:05.001Z</time></trkpt><trkpt lat="43.261177341710244" lon="10.795203067695798"><ele>477.0</ele><time>2026-05-01T12:44:06.001Z</time></trkpt><trkpt lat="43.261052079529804" lon="10.794977138964374"><ele>477.0</ele><time>2026-05-01T12:44:07.001Z</time></trkpt><trkpt lat="43.260935256208384" lon="10.794750381755856"><ele>474.33333333333337</ele><time>2026-05-01T12:44:08.001Z</time></trkpt><trkpt lat="43.2608314724467" lon="10.794549894498877"><ele>471.6666666666667</ele><time>2026-05-01T12:44:09.001Z</time></trkpt><trkpt lat="43.260739769366694" lon="10.794369655062885"><ele>469.0</ele><time>2026-05-01T12:44:10.001Z</time></trkpt><trkpt lat="43.260682512500054" lon="10.794200719457077"><ele>466.5</ele><time>2026-05-01T12:44:11.001Z</time></trkpt><trkpt lat="43.260615306156346" lon="10.794043245537779"><ele>464.0</ele><time>2026-05-01T12:44:12.001Z</time></trkpt><trkpt lat="43.2605479534781" lon="10.79387131954646"><ele>461.5</ele><time>2026-05-01T12:44:13.001Z</time></trkpt><trkpt lat="43.26047174568493" lon="10.79368654052459"><ele>459.0</ele><time>2026-05-01T12:44:14.001Z</time></trkpt><trkpt lat="43.26042959255962" lon="10.793494550862354"><ele>459.0</ele><time>2026-05-01T12:44:15.001Z</time></trkpt><trkpt lat="43.260378642739575" lon="10.79330160275896"><ele>459.0</ele><time>2026-05-01T12:44:16.001Z</time></trkpt><trkpt lat="43.26029486583067" lon="10.79308892709223"><ele>459.0</ele><time>2026-05-01T12:44:17.001Z</time></trkpt><trkpt lat="43.26019862212192" lon="10.792876015724111"><ele>460.0</ele><time>2026-05-01T12:44:18.001Z</time></trkpt><trkpt lat="43.26010479486676" lon="10.792668298621669"><ele>461.0</ele><time>2026-05-01T12:44:19.001Z</time></trkpt><trkpt lat="43.25999823593162" lon="10.79246162733454"><ele>462.0</ele><time>2026-05-01T12:44:20.001Z</time></trkpt><trkpt lat="43.25986574751087" lon="10.792231916195746"><ele>460.66666666666663</ele><time>2026-05-01T12:44:21.001Z</time></trkpt><trkpt lat="43.259736688243876" lon="10.792002548607659"><ele>459.3333333333333</ele><time>2026-05-01T12:44:22.001Z</time></trkpt><trkpt lat="43.25960855384772" lon="10.7918074902396"><ele>458.0</ele><time>2026-05-01T12:44:23.001Z</time></trkpt><trkpt lat="43.25948239224998" lon="10.791637374930916"><ele>458.0</ele><time>2026-05-01T12:44:24.001Z</time></trkpt><trkpt lat="43.25936831851087" lon="10.791443144761088"><ele>458.0</ele><time>2026-05-01T12:44:25.001Z</time></trkpt><trkpt lat="43.25926545349281" lon="10.791245135421386"><ele>458.0</ele><time>2026-05-01T12:44:26.001Z</time></trkpt><trkpt lat="43.25916906391908" lon="10.791058556709324"><ele>458.0</ele><time>2026-05-01T12:44:27.001Z</time></trkpt><trkpt lat="43.25907768682996" lon="10.79086663982824"><ele>458.0</ele><time>2026-05-01T12:44:28.001Z</time></trkpt><trkpt lat="43.25899295833365" lon="10.790663173694973"><ele>458.0</ele><time>2026-05-01T12:44:29.001Z</time></trkpt><trkpt lat="43.25891615854847" lon="10.790476162331222"><ele>457.66666666666663</ele><time>2026-05-01T12:44:30.001Z</time></trkpt><trkpt lat="43.258828657957245" lon="10.790267086859807"><ele>457.33333333333337</ele><time>2026-05-01T12:44:31.001Z</time></trkpt><trkpt lat="43.25876055240366" lon="10.790048977713829"><ele>457.0</ele><time>2026-05-01T12:44:32.001Z</time></trkpt><trkpt lat="43.25869236379163" lon="10.789847837243721"><ele>457.0</ele><time>2026-05-01T12:44:33.001Z</time></trkpt><trkpt lat="43.258620194417325" lon="10.789604761939305"><ele>457.0</ele><time>2026-05-01T12:44:34.001Z</time></trkpt><trkpt lat="43.258552868531474" lon="10.789373939236512"><ele>457.0</ele><time>2026-05-01T12:44:35.001Z</time></trkpt><trkpt lat="43.25850171034843" lon="10.78916109422596"><ele>456.33333333333337</ele><time>2026-05-01T12:44:36.001Z</time></trkpt><trkpt lat="43.25846867302118" lon="10.78893936056234"><ele>455.66666666666663</ele><time>2026-05-01T12:44:37.001Z</time></trkpt><trkpt lat="43.2584499809469" lon="10.788717825297683"><ele>455.0</ele><time>2026-05-01T12:44:38.001Z</time></trkpt><trkpt lat="43.25843524012153" lon="10.788497099052117"><ele>455.0</ele><time>2026-05-01T12:44:39.001Z</time></trkpt><trkpt lat="43.258431161790234" lon="10.788264804160091"><ele>455.0</ele><time>2026-05-01T12:44:40.001Z</time></trkpt><trkpt lat="43.2584283443593" lon="10.788057280726498"><ele>455.0</ele><time>2026-05-01T12:44:41.001Z</time></trkpt><trkpt lat="43.258444444270765" lon="10.787874069330183"><ele>455.0</ele><time>2026-05-01T12:44:42.001Z</time></trkpt><trkpt lat="43.258442117674115" lon="10.787717497415885"><ele>455.0</ele><time>2026-05-01T12:44:43.001Z</time></trkpt><trkpt lat="43.25841263375764" lon="10.787569004103759"><ele>455.0</ele><time>2026-05-01T12:44:44.001Z</time></trkpt><trkpt lat="43.25839789126686" lon="10.787424987810146"><ele>455.0</ele><time>2026-05-01T12:44:45.001Z</time></trkpt><trkpt lat="43.25835406950636" lon="10.787316157104282"><ele>455.0</ele><time>2026-05-01T12:44:46.001Z</time></trkpt><trkpt lat="43.25829521853059" lon="10.78721794263252"><ele>455.3333333333333</ele><time>2026-05-01T12:44:47.001Z</time></trkpt><trkpt lat="43.25824296255878" lon="10.787166000468476"><ele>455.66666666666663</ele><time>2026-05-01T12:44:48.001Z</time></trkpt><trkpt lat="43.25817800713448" lon="10.787113237401247"><ele>456.0</ele><time>2026-05-01T12:44:50.001Z</time></trkpt><trkpt lat="43.258098048322715" lon="10.787044315266721"><ele>456.33333333333337</ele><time>2026-05-01T12:45:27Z</time></trkpt><trkpt lat="43.25802835503248" lon="10.786985859872814"><ele>456.6666666666667</ele><time>2026-05-01T12:45:28Z</time></trkpt><trkpt lat="43.25794191646188" lon="10.786914305298767"><ele>457.0</ele><time>2026-05-01T12:45:29Z</time></trkpt><trkpt lat="43.25786655584752" lon="10.786849760567744"><ele>455.50000000000006</ele><time>2026-05-01T12:45:30Z</time></trkpt><trkpt lat="43.25780436347419" lon="10.786790307200746"><ele>454.0</ele><time>2026-05-01T12:45:31Z</time></trkpt><trkpt lat="43.257745067019535" lon="10.786729736417811"><ele>452.5</ele><time>2026-05-01T12:45:32Z</time></trkpt><trkpt lat="43.257683649809266" lon="10.786659198659217"><ele>451.0</ele><time>2026-05-01T12:45:33Z</time></trkpt><trkpt lat="43.257620192590174" lon="10.78658335212908"><ele>449.50000000000006</ele><time>2026-05-01T12:45:34Z</time></trkpt><trkpt lat="43.25756090464722" lon="10.786511672024593"><ele>448.0</ele><time>2026-05-01T12:45:35Z</time></trkpt><trkpt lat="43.25750647147912" lon="10.786443573531214"><ele>448.00000000000006</ele><time>2026-05-01T12:45:36Z</time></trkpt><trkpt lat="43.25744744787124" lon="10.786367903712245"><ele>448.0</ele><time>2026-05-01T12:45:37Z</time></trkpt><trkpt lat="43.257380964991874" lon="10.786277174579563"><ele>448.0</ele><time>2026-05-01T12:45:38Z</time></trkpt><trkpt lat="43.25732327227488" lon="10.786197234208593"><ele>448.0</ele><time>2026-05-01T12:45:39Z</time></trkpt><trkpt lat="43.25727504945603" lon="10.786131070199458"><ele>448.00000000000006</ele><time>2026-05-01T12:45:40Z</time></trkpt><trkpt lat="43.25722949827463" lon="10.786057203781667"><ele>448.0</ele><time>2026-05-01T12:45:41Z</time></trkpt><trkpt lat="43.257185212908546" lon="10.785986487673505"><ele>445.59999999999997</ele><time>2026-05-01T12:45:42Z</time></trkpt><trkpt lat="43.25717237350953" lon="10.7858829015195"><ele>443.19999999999993</ele><time>2026-05-01T12:45:43Z</time></trkpt><trkpt lat="43.257178753259055" lon="10.78574489809487"><ele>440.8</ele><time>2026-05-01T12:45:44Z</time></trkpt><trkpt lat="43.25721042714997" lon="10.78558655466627"><ele>438.4</ele><time>2026-05-01T12:45:45Z</time></trkpt><trkpt lat="43.25722498625222" lon="10.785437570029156"><ele>436.0</ele><time>2026-05-01T12:45:46Z</time></trkpt><trkpt lat="43.257208933624504" lon="10.785299111487019"><ele>437.0</ele><time>2026-05-01T12:45:47Z</time></trkpt><trkpt lat="43.2571872802213" lon="10.785148215283966"><ele>438.0</ele><time>2026-05-01T12:45:48Z</time></trkpt><trkpt lat="43.25709443299181" lon="10.785009002943196"><ele>439.0</ele><time>2026-05-01T12:45:49Z</time></trkpt><trkpt lat="43.257026176533024" lon="10.784879156892167"><ele>440.0</ele><time>2026-05-01T12:45:50Z</time></trkpt><trkpt lat="43.25697450730422" lon="10.784770661537197"><ele>440.0</ele><time>2026-05-01T12:45:51Z</time></trkpt><trkpt lat="43.256931951230094" lon="10.784653198792721"><ele>440.0</ele><time>2026-05-01T12:45:52Z</time></trkpt><trkpt lat="43.2568840661059" lon="10.784494074793647"><ele>440.0</ele><time>2026-05-01T12:45:53Z</time></trkpt><trkpt lat="43.25686339266701" lon="10.784355402613208"><ele>440.0</ele><time>2026-05-01T12:45:54Z</time></trkpt><trkpt lat="43.25684610834068" lon="10.78423494033248"><ele>440.0</ele><time>2026-05-01T12:45:55Z</time></trkpt><trkpt lat="43.25681873550645" lon="10.784114095524378"><ele>440.66666666666663</ele><time>2026-05-01T12:45:56Z</time></trkpt><trkpt lat="43.256792268899275" lon="10.784007747553636"><ele>441.3333333333333</ele><time>2026-05-01T12:45:57Z</time></trkpt><trkpt lat="43.25677151357286" lon="10.783903503392725"><ele>442.0</ele><time>2026-05-01T12:45:58Z</time></trkpt><trkpt lat="43.25675840734136" lon="10.783800101767405"><ele>442.66666666666663</ele><time>2026-05-01T12:45:59Z</time></trkpt><trkpt lat="43.256757872073344" lon="10.78370153433289"><ele>443.3333333333333</ele><time>2026-05-01T12:46:00Z</time></trkpt><trkpt lat="43.25675355605791" lon="10.783609766667468"><ele>444.0</ele><time>2026-05-01T12:46:01Z</time></trkpt><trkpt lat="43.2567443908093" lon="10.783493392177288"><ele>445.0</ele><time>2026-05-01T12:46:02Z</time></trkpt><trkpt lat="43.25672393336861" lon="10.783355201320846"><ele>446.0</ele><time>2026-05-01T12:46:03Z</time></trkpt><trkpt lat="43.25668049521369" lon="10.783248681994156"><ele>447.0</ele><time>2026-05-01T12:46:04Z</time></trkpt><trkpt lat="43.25665205402922" lon="10.783137859395184"><ele>448.0</ele><time>2026-05-01T12:46:05Z</time></trkpt><trkpt lat="43.25657069119276" lon="10.783056585906483"><ele>449.0</ele><time>2026-05-01T12:46:06Z</time></trkpt><trkpt lat="43.256460311247146" lon="10.783042167190077"><ele>449.5</ele><time>2026-05-01T12:46:07Z</time></trkpt><trkpt lat="43.25633047327237" lon="10.783037518663983"><ele>450.0</ele><time>2026-05-01T12:46:08Z</time></trkpt><trkpt lat="43.25619636570331" lon="10.783036188009685"><ele>450.5</ele><time>2026-05-01T12:46:09Z</time></trkpt><trkpt lat="43.256053363468574" lon="10.783028961264009"><ele>451.0</ele><time>2026-05-01T12:46:10Z</time></trkpt><trkpt lat="43.25595088743249" lon="10.783015605040767"><ele>451.0</ele><time>2026-05-01T12:46:11Z</time></trkpt><trkpt lat="43.25587104955442" lon="10.78298834970975"><ele>451.0</ele><time>2026-05-01T12:46:12Z</time></trkpt><trkpt lat="43.25580552551091" lon="10.782926861770164"><ele>451.0</ele><time>2026-05-01T12:46:13Z</time></trkpt><trkpt lat="43.25572350980101" lon="10.78283337536332"><ele>451.0</ele><time>2026-05-01T12:46:14Z</time></trkpt><trkpt lat="43.255609307706415" lon="10.782699819609665"><ele>451.0</ele><time>2026-05-01T12:46:15Z</time></trkpt><trkpt lat="43.255498982278986" lon="10.78255501613223"><ele>451.0</ele><time>2026-05-01T12:46:16Z</time></trkpt><trkpt lat="43.25542330753017" lon="10.782440852102054"><ele>451.0</ele><time>2026-05-01T12:46:17Z</time></trkpt><trkpt lat="43.25537770140521" lon="10.782357562738072"><ele>451.0</ele><time>2026-05-01T12:46:18Z</time></trkpt><trkpt lat="43.255351048850684" lon="10.782177749124077"><ele>451.0</ele><time>2026-05-01T12:46:20Z</time></trkpt><trkpt lat="43.2553543355728" lon="10.782033737618738"><ele>451.0</ele><time>2026-05-01T12:46:21Z</time></trkpt><trkpt lat="43.255327936105836" lon="10.781851903557657"><ele>454.0</ele><time>2026-05-01T12:46:22Z</time></trkpt><trkpt lat="43.25527419879512" lon="10.781685645715891"><ele>457.0</ele><time>2026-05-01T12:46:23Z</time></trkpt><trkpt lat="43.255194218449205" lon="10.781543216110713"><ele>460.0</ele><time>2026-05-01T12:46:24Z</time></trkpt><trkpt lat="43.25511062950246" lon="10.781418734175826"><ele>463.0</ele><time>2026-05-01T12:46:25Z</time></trkpt><trkpt lat="43.2550254669821" lon="10.78131818831726"><ele>463.0</ele><time>2026-05-01T12:46:26Z</time></trkpt><trkpt lat="43.25493589865416" lon="10.78122107790105"><ele>462.99999999999994</ele><time>2026-05-01T12:46:27Z</time></trkpt><trkpt lat="43.2548439295636" lon="10.781139324320797"><ele>462.99999999999994</ele><time>2026-05-01T12:46:28Z</time></trkpt><trkpt lat="43.254762219729685" lon="10.781099480320606"><ele>463.0</ele><time>2026-05-01T12:46:29Z</time></trkpt><trkpt lat="43.254671429388495" lon="10.781087699594929"><ele>463.0</ele><time>2026-05-01T12:46:30.001Z</time></trkpt><trkpt lat="43.25456079379141" lon="10.781115945044315"><ele>462.0</ele><time>2026-05-01T12:46:31.001Z</time></trkpt><trkpt lat="43.2544380613801" lon="10.781177164142397"><ele>460.99999999999994</ele><time>2026-05-01T12:46:32.001Z</time></trkpt><trkpt lat="43.254337497674875" lon="10.781225372580252"><ele>459.99999999999994</ele><time>2026-05-01T12:46:33.001Z</time></trkpt><trkpt lat="43.254246458577036" lon="10.781247320839164"><ele>459.0</ele><time>2026-05-01T12:46:34.001Z</time></trkpt><trkpt lat="43.25415280426569" lon="10.781238565411071"><ele>458.0</ele><time>2026-05-01T12:46:35.001Z</time></trkpt><trkpt lat="43.254054142464966" lon="10.781156028465068"><ele>459.0</ele><time>2026-05-01T12:46:36.001Z</time></trkpt><trkpt lat="43.25393274031194" lon="10.781043797978182"><ele>460.0</ele><time>2026-05-01T12:46:37.001Z</time></trkpt><trkpt lat="43.25381282235387" lon="10.780928527688184"><ele>461.0</ele><time>2026-05-01T12:46:38.001Z</time></trkpt><trkpt lat="43.25372240813246" lon="10.780831389719657"><ele>462.0</ele><time>2026-05-01T12:46:39.001Z</time></trkpt><trkpt lat="43.25366797220119" lon="10.780746970152792"><ele>462.0</ele><time>2026-05-01T12:46:40.001Z</time></trkpt><trkpt lat="43.253616215771366" lon="10.780620716361442"><ele>462.0</ele><time>2026-05-01T12:46:41.001Z</time></trkpt><trkpt lat="43.253572968851934" lon="10.780454009442993"><ele>462.0</ele><time>2026-05-01T12:46:42.001Z</time></trkpt><trkpt lat="43.25350581497879" lon="10.780269980231964"><ele>462.0</ele><time>2026-05-01T12:46:43.001Z</time></trkpt><trkpt lat="43.25341907604967" lon="10.780100161721064"><ele>461.33333333333337</ele><time>2026-05-01T12:46:44.001Z</time></trkpt><trkpt lat="43.25331938153911" lon="10.779945075832602"><ele>460.6666666666667</ele><time>2026-05-01T12:46:45.001Z</time></trkpt><trkpt lat="43.253188969851685" lon="10.779795182595638"><ele>460.0</ele><time>2026-05-01T12:46:46.001Z</time></trkpt><trkpt lat="43.25304585337849" lon="10.779643605469236"><ele>460.0</ele><time>2026-05-01T12:46:47.001Z</time></trkpt><trkpt lat="43.25292589147186" lon="10.779513465064875"><ele>460.0</ele><time>2026-05-01T12:46:48.001Z</time></trkpt><trkpt lat="43.25281388015215" lon="10.779401005165617"><ele>460.0</ele><time>2026-05-01T12:46:49.001Z</time></trkpt><trkpt lat="43.25270703005554" lon="10.77930727786442"><ele>460.0</ele><time>2026-05-01T12:46:50.001Z</time></trkpt><trkpt lat="43.25260413437126" lon="10.779229304076525"><ele>461.5</ele><time>2026-05-01T12:46:51.001Z</time></trkpt><trkpt lat="43.25249475489695" lon="10.779139533530673"><ele>463.0</ele><time>2026-05-01T12:46:52.001Z</time></trkpt><trkpt lat="43.252375408892355" lon="10.779039512458235"><ele>464.5</ele><time>2026-05-01T12:46:53.001Z</time></trkpt><trkpt lat="43.25224834923429" lon="10.77893243282324"><ele>466.0</ele><time>2026-05-01T12:46:54.001Z</time></trkpt><trkpt lat="43.252114429023074" lon="10.778808741478551"><ele>466.0</ele><time>2026-05-01T12:46:55.001Z</time></trkpt><trkpt lat="43.251978883388055" lon="10.778706411361414"><ele>466.0</ele><time>2026-05-01T12:46:56.001Z</time></trkpt><trkpt lat="43.251849507896125" lon="10.778583391270242"><ele>466.0</ele><time>2026-05-01T12:46:57.001Z</time></trkpt><trkpt lat="43.25169222049856" lon="10.778462215058893"><ele>467.33333333333337</ele><time>2026-05-01T12:46:58.001Z</time></trkpt><trkpt lat="43.25150970488998" lon="10.778357234546396"><ele>468.66666666666663</ele><time>2026-05-01T12:46:59.001Z</time></trkpt><trkpt lat="43.25136846700967" lon="10.778238169638234"><ele>470.0</ele><time>2026-05-01T12:47:00.001Z</time></trkpt><trkpt lat="43.2512387325281" lon="10.778150491654317"><ele>470.4</ele><time>2026-05-01T12:47:01.001Z</time></trkpt><trkpt lat="43.25112885330835" lon="10.778078768207378"><ele>470.8</ele><time>2026-05-01T12:47:02.001Z</time></trkpt><trkpt lat="43.25104142196807" lon="10.778023344820076"><ele>471.20000000000005</ele><time>2026-05-01T12:47:03.001Z</time></trkpt><trkpt lat="43.25097492360868" lon="10.777987812394661"><ele>471.6</ele><time>2026-05-01T12:47:04.001Z</time></trkpt><trkpt lat="43.2509121363398" lon="10.777957339893323"><ele>472.0</ele><time>2026-05-01T12:47:05Z</time></trkpt><trkpt lat="43.25081786935484" lon="10.777937200994115"><ele>472.0</ele><time>2026-05-01T12:47:06Z</time></trkpt><trkpt lat="43.250696105779554" lon="10.77797618901242"><ele>472.0</ele><time>2026-05-01T12:47:07Z</time></trkpt><trkpt lat="43.25058272415385" lon="10.77804934836762"><ele>472.0</ele><time>2026-05-01T12:47:08Z</time></trkpt><trkpt lat="43.25048379306484" lon="10.778087725367959"><ele>472.0</ele><time>2026-05-01T12:47:09Z</time></trkpt><trkpt lat="43.250365939379805" lon="10.778121457859802"><ele>473.0</ele><time>2026-05-01T12:47:10Z</time></trkpt><trkpt lat="43.25023061319447" lon="10.778107370477628"><ele>474.0</ele><time>2026-05-01T12:47:11Z</time></trkpt><trkpt lat="43.250077749321015" lon="10.778103995132744"><ele>475.0</ele><time>2026-05-01T12:47:12Z</time></trkpt><trkpt lat="43.24997892400012" lon="10.778061015204534"><ele>476.0</ele><time>2026-05-01T12:47:13Z</time></trkpt><trkpt lat="43.24984387500051" lon="10.777976605829542"><ele>481.5</ele><time>2026-05-01T12:47:15Z</time></trkpt><trkpt lat="43.24976557168315" lon="10.777910265682765"><ele>487.0</ele><time>2026-05-01T12:47:16Z</time></trkpt><trkpt lat="43.249667632071365" lon="10.77780688988548"><ele>492.5</ele><time>2026-05-01T12:47:17Z</time></trkpt><trkpt lat="43.24955784903792" lon="10.777683587781567"><ele>498.0</ele><time>2026-05-01T12:47:18Z</time></trkpt><trkpt lat="43.249446970169274" lon="10.77754574947081"><ele>498.0</ele><time>2026-05-01T12:47:19Z</time></trkpt><trkpt lat="43.24933854696001" lon="10.777397800328531"><ele>498.0</ele><time>2026-05-01T12:47:20Z</time></trkpt><trkpt lat="43.24925792060719" lon="10.777269063496181"><ele>498.0</ele><time>2026-05-01T12:47:21Z</time></trkpt><trkpt lat="43.24922892310537" lon="10.777125492662813"><ele>498.0</ele><time>2026-05-01T12:47:22Z</time></trkpt><trkpt lat="43.24919553986204" lon="10.776984608572661"><ele>497.0</ele><time>2026-05-01T12:47:23Z</time></trkpt><trkpt lat="43.24915065836385" lon="10.776840238761812"><ele>495.99999999999994</ele><time>2026-05-01T12:47:24Z</time></trkpt><trkpt lat="43.24913674132223" lon="10.776698278560868"><ele>494.99999999999994</ele><time>2026-05-01T12:47:25Z</time></trkpt><trkpt lat="43.24908863972373" lon="10.776606986343914"><ele>494.0</ele><time>2026-05-01T12:47:26Z</time></trkpt><trkpt lat="43.24904961760069" lon="10.776500089203237"><ele>493.0</ele><time>2026-05-01T12:47:27Z</time></trkpt><trkpt lat="43.2489488756614" lon="10.77641551994674"><ele>495.5</ele><time>2026-05-01T12:47:28Z</time></trkpt><trkpt lat="43.24884172237057" lon="10.776295006027617"><ele>498.0</ele><time>2026-05-01T12:47:29Z</time></trkpt><trkpt lat="43.248754090252824" lon="10.776175312522218"><ele>500.5</ele><time>2026-05-01T12:47:30Z</time></trkpt><trkpt lat="43.2486714801636" lon="10.776057667474877"><ele>503.0</ele><time>2026-05-01T12:47:31Z</time></trkpt><trkpt lat="43.24863763893181" lon="10.775926049065074"><ele>503.0</ele><time>2026-05-01T12:47:32Z</time></trkpt><trkpt lat="43.24858103426813" lon="10.775841471843895"><ele>502.99999999999994</ele><time>2026-05-01T12:47:33Z</time></trkpt><trkpt lat="43.248522521172454" lon="10.77576283188228"><ele>502.99999999999994</ele><time>2026-05-01T12:47:34Z</time></trkpt><trkpt lat="43.248459266924755" lon="10.775749596005628"><ele>503.0</ele><time>2026-05-01T12:47:35Z</time></trkpt><trkpt lat="43.24835971316149" lon="10.77576480939026"><ele>503.0</ele><time>2026-05-01T12:47:37Z</time></trkpt><trkpt lat="43.248242831014885" lon="10.775820636368747"><ele>502.99999999999994</ele><time>2026-05-01T12:47:39Z</time></trkpt><trkpt lat="43.24816325468898" lon="10.775870954314867"><ele>503.0</ele><time>2026-05-01T12:47:41Z</time></trkpt><trkpt lat="43.248048908890624" lon="10.775938509052894"><ele>503.0</ele><time>2026-05-01T12:47:43Z</time></trkpt><trkpt lat="43.24799033458236" lon="10.77598759504548"><ele>503.0</ele><time>2026-05-01T12:47:44Z</time></trkpt><trkpt lat="43.24791915628927" lon="10.775971872031748"><ele>502.99999999999994</ele><time>2026-05-01T12:47:45Z</time></trkpt><trkpt lat="43.24784860877948" lon="10.775956867818026"><ele>503.0</ele><time>2026-05-01T12:47:46Z</time></trkpt><trkpt lat="43.24777187296387" lon="10.775928215771057"><ele>503.4</ele><time>2026-05-01T12:47:47Z</time></trkpt><trkpt lat="43.24770490205044" lon="10.775911037066631"><ele>503.79999999999995</ele><time>2026-05-01T12:47:48Z</time></trkpt><trkpt lat="43.2475599802368" lon="10.775862214805212"><ele>504.2</ele><time>2026-05-01T12:47:50Z</time></trkpt><trkpt lat="43.24746490638447" lon="10.775892268974335"><ele>504.6</ele><time>2026-05-01T12:47:51Z</time></trkpt><trkpt lat="43.247370032306" lon="10.775959339714067"><ele>505.0</ele><time>2026-05-01T12:47:52Z</time></trkpt><trkpt lat="43.247283184916675" lon="10.776048404692848"><ele>509.2</ele><time>2026-05-01T12:47:53Z</time></trkpt><trkpt lat="43.247180222007856" lon="10.77609840648888"><ele>513.4</ele><time>2026-05-01T12:47:54Z</time></trkpt><trkpt lat="43.24709028139828" lon="10.77615888485151"><ele>517.6</ele><time>2026-05-01T12:47:55Z</time></trkpt><trkpt lat="43.2469850416441" lon="10.776152692500398"><ele>521.8</ele><time>2026-05-01T12:47:56Z</time></trkpt><trkpt lat="43.24690292544573" lon="10.77613865512826"><ele>526.0</ele><time>2026-05-01T12:47:57Z</time></trkpt><trkpt lat="43.24683245256957" lon="10.77610024902477"><ele>526.0</ele><time>2026-05-01T12:47:58Z</time></trkpt><trkpt lat="43.24674175237739" lon="10.776029781377408"><ele>526.0</ele><time>2026-05-01T12:47:59Z</time></trkpt><trkpt lat="43.24666325191464" lon="10.775907956941227"><ele>526.0</ele><time>2026-05-01T12:48:00Z</time></trkpt><trkpt lat="43.24656785349646" lon="10.775793345435952"><ele>526.0</ele><time>2026-05-01T12:48:01Z</time></trkpt><trkpt lat="43.246464834545556" lon="10.775684233066743"><ele>523.6</ele><time>2026-05-01T12:48:02Z</time></trkpt><trkpt lat="43.24638387647916" lon="10.775590678925623"><ele>521.2</ele><time>2026-05-01T12:48:03Z</time></trkpt><trkpt lat="43.24631703985641" lon="10.775499748563577"><ele>518.8</ele><time>2026-05-01T12:48:04Z</time></trkpt><trkpt lat="43.246261647176276" lon="10.775380515197815"><ele>516.4</ele><time>2026-05-01T12:48:05Z</time></trkpt><trkpt lat="43.246212265386106" lon="10.775248311127005"><ele>514.0</ele><time>2026-05-01T12:48:06Z</time></trkpt><trkpt lat="43.246145900110285" lon="10.775142762717557"><ele>512.2</ele><time>2026-05-01T12:48:07Z</time></trkpt><trkpt lat="43.24609396235385" lon="10.775075736226881"><ele>510.4</ele><time>2026-05-01T12:48:08Z</time></trkpt><trkpt lat="43.2459930477317" lon="10.774986168983054"><ele>508.6</ele><time>2026-05-01T12:48:10Z</time></trkpt><trkpt lat="43.2459014302156" lon="10.774982004332772"><ele>506.8</ele><time>2026-05-01T12:48:12Z</time></trkpt><trkpt lat="43.2457672196805" lon="10.775044578040575"><ele>505.0</ele><time>2026-05-01T12:48:14Z</time></trkpt><trkpt lat="43.24568686210856" lon="10.775058753221035"><ele>505.00000000000006</ele><time>2026-05-01T12:48:15Z</time></trkpt><trkpt lat="43.24562952510996" lon="10.77509609029158"><ele>505.0</ele><time>2026-05-01T12:48:16Z</time></trkpt><trkpt lat="43.24552080861961" lon="10.775119045425114"><ele>505.0</ele><time>2026-05-01T12:48:18Z</time></trkpt><trkpt lat="43.24544644821295" lon="10.775091652858013"><ele>505.0</ele><time>2026-05-01T12:48:19Z</time></trkpt><trkpt lat="43.245362532088464" lon="10.7750363733729"><ele>505.00000000000006</ele><time>2026-05-01T12:48:20Z</time></trkpt><trkpt lat="43.245280327278294" lon="10.774973495635233"><ele>505.0</ele><time>2026-05-01T12:48:21Z</time></trkpt><trkpt lat="43.24519081656368" lon="10.774882164520015"><ele>504.5</ele><time>2026-05-01T12:48:22Z</time></trkpt><trkpt lat="43.245083738882045" lon="10.774814864617804"><ele>504.0</ele><time>2026-05-01T12:48:23Z</time></trkpt><trkpt lat="43.24496957129194" lon="10.774757357304324"><ele>503.5</ele><time>2026-05-01T12:48:24Z</time></trkpt><trkpt lat="43.244865236025255" lon="10.77467888685671"><ele>503.0</ele><time>2026-05-01T12:48:25Z</time></trkpt><trkpt lat="43.244757981330686" lon="10.77460623443152"><ele>502.5</ele><time>2026-05-01T12:48:26Z</time></trkpt><trkpt lat="43.24464864850188" lon="10.774523247140428"><ele>502.0</ele><time>2026-05-01T12:48:27Z</time></trkpt><trkpt lat="43.24452901664237" lon="10.774438598717019"><ele>501.5</ele><time>2026-05-01T12:48:28Z</time></trkpt><trkpt lat="43.24441511393944" lon="10.774360721538898"><ele>501.0</ele><time>2026-05-01T12:48:29Z</time></trkpt><trkpt lat="43.24431126107054" lon="10.774286440892652"><ele>501.0</ele><time>2026-05-01T12:48:30Z</time></trkpt><trkpt lat="43.24421192458848" lon="10.774207669249911"><ele>501.0</ele><time>2026-05-01T12:48:31Z</time></trkpt><trkpt lat="43.24413545651153" lon="10.77411786084895"><ele>501.0</ele><time>2026-05-01T12:48:32Z</time></trkpt><trkpt lat="43.244081064947345" lon="10.774009278058786"><ele>501.0</ele><time>2026-05-01T12:48:33.001Z</time></trkpt><trkpt lat="43.24404434926048" lon="10.773871335784966"><ele>501.0</ele><time>2026-05-01T12:48:34.001Z</time></trkpt><trkpt lat="43.24402385459712" lon="10.77369546465113"><ele>501.0</ele><time>2026-05-01T12:48:35.001Z</time></trkpt><trkpt lat="43.24399630134217" lon="10.77353695218126"><ele>501.0</ele><time>2026-05-01T12:48:36.001Z</time></trkpt><trkpt lat="43.24396451116379" lon="10.773409254383969"><ele>501.0</ele><time>2026-05-01T12:48:37.001Z</time></trkpt><trkpt lat="43.243910395144326" lon="10.773308073555498"><ele>501.0</ele><time>2026-05-01T12:48:38.001Z</time></trkpt><trkpt lat="43.2438361259972" lon="10.773205652547563"><ele>501.0</ele><time>2026-05-01T12:48:39.001Z</time></trkpt><trkpt lat="43.24374761681656" lon="10.773109743598232"><ele>501.4</ele><time>2026-05-01T12:48:40.001Z</time></trkpt><trkpt lat="43.24367733456123" lon="10.773025603354233"><ele>501.8</ele><time>2026-05-01T12:48:41.001Z</time></trkpt><trkpt lat="43.243651366562744" lon="10.772912898756816"><ele>502.19999999999993</ele><time>2026-05-01T12:48:42.001Z</time></trkpt><trkpt lat="43.24362432870544" lon="10.772777630895044"><ele>502.59999999999997</ele><time>2026-05-01T12:48:43.001Z</time></trkpt><trkpt lat="43.243622893707936" lon="10.772610083184917"><ele>503.0</ele><time>2026-05-01T12:48:44.001Z</time></trkpt><trkpt lat="43.24363335716336" lon="10.772445074579444"><ele>503.0</ele><time>2026-05-01T12:48:45.001Z</time></trkpt><trkpt lat="43.2436437948798" lon="10.772269172268626"><ele>503.0</ele><time>2026-05-01T12:48:46.001Z</time></trkpt><trkpt lat="43.24365976648551" lon="10.772069852442828"><ele>503.0</ele><time>2026-05-01T12:48:47.001Z</time></trkpt><trkpt lat="43.24366652918705" lon="10.771904949699469"><ele>503.0</ele><time>2026-05-01T12:48:48.001Z</time></trkpt><trkpt lat="43.24366987151385" lon="10.771774227733449"><ele>503.0</ele><time>2026-05-01T12:48:49.001Z</time></trkpt><trkpt lat="43.24366590961414" lon="10.771671096419853"><ele>502.99999999999994</ele><time>2026-05-01T12:48:50.001Z</time></trkpt><trkpt lat="43.2435974638606" lon="10.77152393212192"><ele>502.99999999999994</ele><time>2026-05-01T12:48:52.001Z</time></trkpt><trkpt lat="43.24352363534503" lon="10.771450293843564"><ele>503.0</ele><time>2026-05-01T12:48:53.001Z</time></trkpt><trkpt lat="43.24341013270229" lon="10.771415332248479"><ele>503.0</ele><time>2026-05-01T12:48:54.001Z</time></trkpt><trkpt lat="43.2432835727115" lon="10.771430377264998"><ele>503.0</ele><time>2026-05-01T12:48:55.001Z</time></trkpt><trkpt lat="43.24320100592099" lon="10.77141925977156"><ele>502.99999999999994</ele><time>2026-05-01T12:48:56.001Z</time></trkpt><trkpt lat="43.243141084797685" lon="10.771384604800598"><ele>502.99999999999994</ele><time>2026-05-01T12:48:57.001Z</time></trkpt><trkpt lat="43.24309146499813" lon="10.771300217627019"><ele>503.0</ele><time>2026-05-01T12:48:58.001Z</time></trkpt><trkpt lat="43.24307158365384" lon="10.771127247320898"><ele>503.0</ele><time>2026-05-01T12:48:59.001Z</time></trkpt><trkpt lat="43.24304247442202" lon="10.770943697028647"><ele>503.75</ele><time>2026-05-01T12:49:00.001Z</time></trkpt><trkpt lat="43.24301378011834" lon="10.770774545916924"><ele>504.5</ele><time>2026-05-01T12:49:01.001Z</time></trkpt><trkpt lat="43.24298987509278" lon="10.770624640293839"><ele>505.25</ele><time>2026-05-01T12:49:02.001Z</time></trkpt><trkpt lat="43.24295988320737" lon="10.770482091650747"><ele>506.0</ele><time>2026-05-01T12:49:03.001Z</time></trkpt><trkpt lat="43.242893316781306" lon="10.770338480686409"><ele>502.5</ele><time>2026-05-01T12:49:04.001Z</time></trkpt><trkpt lat="43.24280130998132" lon="10.770163598587324"><ele>499.0</ele><time>2026-05-01T12:49:05.001Z</time></trkpt><trkpt lat="43.24273528453652" lon="10.769981656348774"><ele>495.5</ele><time>2026-05-01T12:49:06.001Z</time></trkpt><trkpt lat="43.24269115375855" lon="10.769817282077211"><ele>492.0</ele><time>2026-05-01T12:49:07.001Z</time></trkpt><trkpt lat="43.24265877193923" lon="10.769633917522086"><ele>492.0</ele><time>2026-05-01T12:49:08.001Z</time></trkpt><trkpt lat="43.24264512003283" lon="10.769474572451262"><ele>492.0</ele><time>2026-05-01T12:49:09.001Z</time></trkpt><trkpt lat="43.24263290516709" lon="10.769361797720721"><ele>492.0</ele><time>2026-05-01T12:49:10.001Z</time></trkpt><trkpt lat="43.24261640552162" lon="10.769275310160955"><ele>492.0</ele><time>2026-05-01T12:49:11Z</time></trkpt><trkpt lat="43.24257605575747" lon="10.769204005574535"><ele>492.0</ele><time>2026-05-01T12:49:12Z</time></trkpt><trkpt lat="43.24253318809931" lon="10.769106232952321"><ele>492.0</ele><time>2026-05-01T12:49:13Z</time></trkpt><trkpt lat="43.24241557316123" lon="10.769034545325725"><ele>489.25</ele><time>2026-05-01T12:49:14Z</time></trkpt><trkpt lat="43.24228411109657" lon="10.768984470577053"><ele>486.5</ele><time>2026-05-01T12:49:15Z</time></trkpt><trkpt lat="43.24214048800133" lon="10.768935782863444"><ele>483.75</ele><time>2026-05-01T12:49:16Z</time></trkpt><trkpt lat="43.24199045662664" lon="10.768881885700587"><ele>481.0</ele><time>2026-05-01T12:49:17Z</time></trkpt><trkpt lat="43.24186606967319" lon="10.768828396238522"><ele>481.0</ele><time>2026-05-01T12:49:18Z</time></trkpt><trkpt lat="43.24176445263843" lon="10.768782597481177"><ele>481.0</ele><time>2026-05-01T12:49:19Z</time></trkpt><trkpt lat="43.24164812169761" lon="10.768748152347847"><ele>481.0</ele><time>2026-05-01T12:49:20Z</time></trkpt><trkpt lat="43.24152068264234" lon="10.768762305419585"><ele>481.0</ele><time>2026-05-01T12:49:21Z</time></trkpt><trkpt lat="43.24141752495277" lon="10.768779242566502"><ele>479.20000000000005</ele><time>2026-05-01T12:49:22Z</time></trkpt><trkpt lat="43.24133798780399" lon="10.76877524900588"><ele>477.40000000000003</ele><time>2026-05-01T12:49:23Z</time></trkpt><trkpt lat="43.24126346569919" lon="10.768752088270245"><ele>475.6</ele><time>2026-05-01T12:49:24Z</time></trkpt><trkpt lat="43.241156157209545" lon="10.76870668921102"><ele>473.8</ele><time>2026-05-01T12:49:25Z</time></trkpt><trkpt lat="43.241027160226636" lon="10.768634970113956"><ele>472.0</ele><time>2026-05-01T12:49:26Z</time></trkpt><trkpt lat="43.240922591998455" lon="10.768573312627458"><ele>472.0</ele><time>2026-05-01T12:49:27Z</time></trkpt><trkpt lat="43.24081141664431" lon="10.768537580665026"><ele>472.00000000000006</ele><time>2026-05-01T12:49:28Z</time></trkpt><trkpt lat="43.24073468031329" lon="10.768486716240929"><ele>472.00000000000006</ele><time>2026-05-01T12:49:29Z</time></trkpt><trkpt lat="43.24063320289536" lon="10.768433522111765"><ele>472.0</ele><time>2026-05-01T12:49:31Z</time></trkpt><trkpt lat="43.24055223728819" lon="10.768386892748094"><ele>472.0</ele><time>2026-05-01T12:49:33Z</time></trkpt><trkpt lat="43.24042709272821" lon="10.768300704584309"><ele>469.20000000000005</ele><time>2026-05-01T12:49:35Z</time></trkpt><trkpt lat="43.240341073662876" lon="10.768269887774855"><ele>466.40000000000003</ele><time>2026-05-01T12:49:36Z</time></trkpt><trkpt lat="43.240246509780114" lon="10.768185375700718"><ele>463.59999999999997</ele><time>2026-05-01T12:49:37Z</time></trkpt><trkpt lat="43.240128596131925" lon="10.768142401721061"><ele>460.79999999999995</ele><time>2026-05-01T12:49:38Z</time></trkpt><trkpt lat="43.24002045276206" lon="10.768087506042848"><ele>458.0</ele><time>2026-05-01T12:49:39Z</time></trkpt><trkpt lat="43.239895282925296" lon="10.768128101392875"><ele>457.2</ele><time>2026-05-01T12:49:40Z</time></trkpt><trkpt lat="43.23975662822036" lon="10.768137101084777"><ele>456.4</ele><time>2026-05-01T12:49:41Z</time></trkpt><trkpt lat="43.23965992151388" lon="10.768152567323256"><ele>455.59999999999997</ele><time>2026-05-01T12:49:42Z</time></trkpt><trkpt lat="43.23958837104593" lon="10.768153161403289"><ele>454.79999999999995</ele><time>2026-05-01T12:49:43Z</time></trkpt><trkpt lat="43.23952214963811" lon="10.768109754691192"><ele>454.0</ele><time>2026-05-01T12:49:44Z</time></trkpt><trkpt lat="43.239415550876686" lon="10.768024711587852"><ele>454.0</ele><time>2026-05-01T12:49:45Z</time></trkpt><trkpt lat="43.2392857284663" lon="10.767990913100954"><ele>454.0</ele><time>2026-05-01T12:49:46Z</time></trkpt><trkpt lat="43.23912923169529" lon="10.768034670691158"><ele>454.0</ele><time>2026-05-01T12:49:47Z</time></trkpt><trkpt lat="43.23895623817529" lon="10.768024778360262"><ele>452.6666666666667</ele><time>2026-05-01T12:49:48Z</time></trkpt><trkpt lat="43.238768192144875" lon="10.768027954401271"><ele>451.33333333333337</ele><time>2026-05-01T12:49:49Z</time></trkpt><trkpt lat="43.23858194584108" lon="10.768034672259832"><ele>450.0</ele><time>2026-05-01T12:49:50Z</time></trkpt><trkpt lat="43.23842995479887" lon="10.768047346093883"><ele>450.0</ele><time>2026-05-01T12:49:51Z</time></trkpt><trkpt lat="43.23829924687904" lon="10.76804889336649"><ele>450.0</ele><time>2026-05-01T12:49:52Z</time></trkpt><trkpt lat="43.238194594767144" lon="10.768046182167494"><ele>450.0</ele><time>2026-05-01T12:49:53Z</time></trkpt><trkpt lat="43.238110125187994" lon="10.768034024212527"><ele>450.0</ele><time>2026-05-01T12:49:54Z</time></trkpt><trkpt lat="43.23804463214218" lon="10.768034024210959"><ele>450.0</ele><time>2026-05-01T12:49:55Z</time></trkpt><trkpt lat="43.23790306436179" lon="10.76810014810021"><ele>449.2</ele><time>2026-05-01T12:49:57Z</time></trkpt><trkpt lat="43.23783563035614" lon="10.768184117132297"><ele>448.4</ele><time>2026-05-01T12:49:58Z</time></trkpt><trkpt lat="43.237789721500754" lon="10.76829940346253"><ele>447.6</ele><time>2026-05-01T12:49:59Z</time></trkpt><trkpt lat="43.237771155531384" lon="10.768434624938722"><ele>446.8</ele><time>2026-05-01T12:50:00Z</time></trkpt><trkpt lat="43.23775919724329" lon="10.768580669112112"><ele>446.0</ele><time>2026-05-01T12:50:01Z</time></trkpt><trkpt lat="43.237747856652646" lon="10.768779257424029"><ele>445.75</ele><time>2026-05-01T12:50:02Z</time></trkpt><trkpt lat="43.23774056512692" lon="10.768999211757706"><ele>445.5</ele><time>2026-05-01T12:50:03Z</time></trkpt><trkpt lat="43.23773768356456" lon="10.769195281804754"><ele>445.25</ele><time>2026-05-01T12:50:04Z</time></trkpt><trkpt lat="43.23772436721862" lon="10.769338110843528"><ele>445.0</ele><time>2026-05-01T12:50:05Z</time></trkpt><trkpt lat="43.23771038739523" lon="10.769445681299645"><ele>444.6</ele><time>2026-05-01T12:50:06Z</time></trkpt><trkpt lat="43.23768667974855" lon="10.76953838224437"><ele>444.2</ele><time>2026-05-01T12:50:07Z</time></trkpt><trkpt lat="43.23764194365891" lon="10.769611548108589"><ele>443.79999999999995</ele><time>2026-05-01T12:50:08Z</time></trkpt><trkpt lat="43.237574517750055" lon="10.769676660025198"><ele>443.4</ele><time>2026-05-01T12:50:09Z</time></trkpt><trkpt lat="43.237472956666664" lon="10.769747597380602"><ele>443.0</ele><time>2026-05-01T12:50:10Z</time></trkpt><trkpt lat="43.23734046441871" lon="10.769815710633097"><ele>441.0</ele><time>2026-05-01T12:50:11Z</time></trkpt><trkpt lat="43.23723219702254" lon="10.769874352728905"><ele>439.0</ele><time>2026-05-01T12:50:12Z</time></trkpt><trkpt lat="43.23711359202263" lon="10.769941791227481"><ele>437.0</ele><time>2026-05-01T12:50:13Z</time></trkpt><trkpt lat="43.23701089738727" lon="10.770022125006417"><ele>435.0</ele><time>2026-05-01T12:50:14Z</time></trkpt><trkpt lat="43.23694717793383" lon="10.770120384002208"><ele>437.0</ele><time>2026-05-01T12:50:15Z</time></trkpt><trkpt lat="43.23690530761707" lon="10.77025097804583"><ele>439.0</ele><time>2026-05-01T12:50:16Z</time></trkpt><trkpt lat="43.2368823848539" lon="10.770416778037326"><ele>441.0</ele><time>2026-05-01T12:50:17Z</time></trkpt><trkpt lat="43.23687787570059" lon="10.770572923065284"><ele>443.0</ele><time>2026-05-01T12:50:18Z</time></trkpt><trkpt lat="43.23689102784083" lon="10.77070128977644"><ele>445.0</ele><time>2026-05-01T12:50:19Z</time></trkpt><trkpt lat="43.23692716233301" lon="10.770803784727665"><ele>445.0</ele><time>2026-05-01T12:50:20Z</time></trkpt><trkpt lat="43.23706651649401" lon="10.770843251382908"><ele>445.0</ele><time>2026-05-01T12:50:21Z</time></trkpt><trkpt lat="43.23716308917511" lon="10.770899224807343"><ele>445.0</ele><time>2026-05-01T12:50:22Z</time></trkpt><trkpt lat="43.237234634145004" lon="10.770984844484651"><ele>445.0</ele><time>2026-05-01T12:50:23Z</time></trkpt><trkpt lat="43.237266206949336" lon="10.771060752474833"><ele>445.0</ele><time>2026-05-01T12:50:24Z</time></trkpt><trkpt lat="43.23724007379784" lon="10.77115841706917"><ele>447.6</ele><time>2026-05-01T12:50:25Z</time></trkpt><trkpt lat="43.237203439750516" lon="10.771294074937316"><ele>450.2</ele><time>2026-05-01T12:50:26Z</time></trkpt><trkpt lat="43.237192140706085" lon="10.771501127189143"><ele>452.79999999999995</ele><time>2026-05-01T12:50:27Z</time></trkpt><trkpt lat="43.237183523612515" lon="10.771668917012303"><ele>455.4</ele><time>2026-05-01T12:50:28Z</time></trkpt><trkpt lat="43.23716347418797" lon="10.771756310868819"><ele>458.0</ele><time>2026-05-01T12:50:29Z</time></trkpt><trkpt lat="43.237088028891016" lon="10.771795036488541"><ele>458.0</ele><time>2026-05-01T12:50:31Z</time></trkpt><trkpt lat="43.23702147900331" lon="10.771789950363207"><ele>458.0</ele><time>2026-05-01T12:50:32Z</time></trkpt><trkpt lat="43.23691436237387" lon="10.771767471083896"><ele>458.0</ele><time>2026-05-01T12:50:33Z</time></trkpt><trkpt lat="43.236788032732655" lon="10.771755443023414"><ele>458.0</ele><time>2026-05-01T12:50:34Z</time></trkpt><trkpt lat="43.23663963391729" lon="10.771751271196274"><ele>458.0</ele><time>2026-05-01T12:50:35Z</time></trkpt><trkpt lat="43.236517627494074" lon="10.771766732600126"><ele>457.99999999999994</ele><time>2026-05-01T12:50:36Z</time></trkpt><trkpt lat="43.23641394226729" lon="10.771796386569338"><ele>457.99999999999994</ele><time>2026-05-01T12:50:37Z</time></trkpt><trkpt lat="43.2363221112989" lon="10.771846224565085"><ele>458.0</ele><time>2026-05-01T12:50:38Z</time></trkpt><trkpt lat="43.23623688001473" lon="10.771937583758255"><ele>458.0</ele><time>2026-05-01T12:50:39Z</time></trkpt><trkpt lat="43.23616012374471" lon="10.77206808369234"><ele>458.25</ele><time>2026-05-01T12:50:40Z</time></trkpt><trkpt lat="43.236094810387954" lon="10.772225760069235"><ele>458.5</ele><time>2026-05-01T12:50:41Z</time></trkpt><trkpt lat="43.23603850657121" lon="10.77240528934194"><ele>458.75</ele><time>2026-05-01T12:50:42Z</time></trkpt><trkpt lat="43.23597287786926" lon="10.772586995849055"><ele>459.0</ele><time>2026-05-01T12:50:43Z</time></trkpt><trkpt lat="43.235908211121746" lon="10.772789873727454"><ele>461.66666666666663</ele><time>2026-05-01T12:50:44Z</time></trkpt><trkpt lat="43.23584399023754" lon="10.773002833114976"><ele>464.3333333333333</ele><time>2026-05-01T12:50:45Z</time></trkpt><trkpt lat="43.23577656390334" lon="10.773226421893643"><ele>467.0</ele><time>2026-05-01T12:50:46Z</time></trkpt><trkpt lat="43.235707217474335" lon="10.773456377793744"><ele>470.0</ele><time>2026-05-01T12:50:47Z</time></trkpt><trkpt lat="43.23563882642114" lon="10.773683165404933"><ele>473.0</ele><time>2026-05-01T12:50:48Z</time></trkpt><trkpt lat="43.2355654351297" lon="10.77391926468902"><ele>476.0</ele><time>2026-05-01T12:50:49Z</time></trkpt><trkpt lat="43.23549178102323" lon="10.774155007985115"><ele>471.3333333333333</ele><time>2026-05-01T12:50:50Z</time></trkpt><trkpt lat="43.23542273219209" lon="10.774388810561222"><ele>466.66666666666663</ele><time>2026-05-01T12:50:51Z</time></trkpt><trkpt lat="43.23536034670855" lon="10.774597935686517"><ele>462.0</ele><time>2026-05-01T12:50:52Z</time></trkpt><trkpt lat="43.23529466962252" lon="10.774803442463687"><ele>462.0</ele><time>2026-05-01T12:50:53Z</time></trkpt><trkpt lat="43.235226874426836" lon="10.775012677841666"><ele>462.0</ele><time>2026-05-01T12:50:54.001Z</time></trkpt><trkpt lat="43.235155313455984" lon="10.775233535569013"><ele>462.0</ele><time>2026-05-01T12:50:55.001Z</time></trkpt><trkpt lat="43.235082310715995" lon="10.775471604577932"><ele>461.75</ele><time>2026-05-01T12:50:56.001Z</time></trkpt><trkpt lat="43.23501898552159" lon="10.77567093862129"><ele>461.5</ele><time>2026-05-01T12:50:57.001Z</time></trkpt><trkpt lat="43.234959162947845" lon="10.775841663543513"><ele>461.25</ele><time>2026-05-01T12:50:58.001Z</time></trkpt><trkpt lat="43.23490245412807" lon="10.775977436189073"><ele>461.0</ele><time>2026-05-01T12:50:59.001Z</time></trkpt><trkpt lat="43.234853243693024" lon="10.776067171493073"><ele>463.6</ele><time>2026-05-01T12:51:00.001Z</time></trkpt><trkpt lat="43.23479835670518" lon="10.77612552164853"><ele>466.20000000000005</ele><time>2026-05-01T12:51:01.001Z</time></trkpt><trkpt lat="43.23473026970551" lon="10.77615420720641"><ele>468.79999999999995</ele><time>2026-05-01T12:51:02.001Z</time></trkpt><trkpt lat="43.23462246156511" lon="10.776144906145213"><ele>471.4</ele><time>2026-05-01T12:51:04.001Z</time></trkpt><trkpt lat="43.23455864243812" lon="10.776057147516255"><ele>474.0</ele><time>2026-05-01T12:51:05.001Z</time></trkpt><trkpt lat="43.23446322857" lon="10.775949280406696"><ele>474.0</ele><time>2026-05-01T12:51:06.001Z</time></trkpt><trkpt lat="43.23433510741767" lon="10.775821840100411"><ele>474.0</ele><time>2026-05-01T12:51:07.001Z</time></trkpt><trkpt lat="43.234210137524485" lon="10.77569119422231"><ele>474.0</ele><time>2026-05-01T12:51:08.001Z</time></trkpt><trkpt lat="43.23407291570553" lon="10.775557854246445"><ele>476.75</ele><time>2026-05-01T12:51:09.001Z</time></trkpt><trkpt lat="43.23393117168955" lon="10.775436476189846"><ele>479.5</ele><time>2026-05-01T12:51:10.001Z</time></trkpt><trkpt lat="43.23381403000302" lon="10.775336469604497"><ele>482.25</ele><time>2026-05-01T12:51:11.001Z</time></trkpt><trkpt lat="43.233720886181956" lon="10.775261476849332"><ele>485.0</ele><time>2026-05-01T12:51:12.001Z</time></trkpt><trkpt lat="43.23363117452367" lon="10.775208188766165"><ele>481.5</ele><time>2026-05-01T12:51:13.001Z</time></trkpt><trkpt lat="43.233534925140184" lon="10.775181281587079"><ele>478.0</ele><time>2026-05-01T12:51:14.001Z</time></trkpt><trkpt lat="43.23342681875703" lon="10.775175281751215"><ele>474.5</ele><time>2026-05-01T12:51:15.001Z</time></trkpt><trkpt lat="43.233294840903746" lon="10.775147019791218"><ele>471.0</ele><time>2026-05-01T12:51:16.001Z</time></trkpt><trkpt lat="43.23314130176583" lon="10.775137762460213"><ele>472.25</ele><time>2026-05-01T12:51:17Z</time></trkpt><trkpt lat="43.232990668818125" lon="10.775132252942022"><ele>473.5</ele><time>2026-05-01T12:51:18Z</time></trkpt><trkpt lat="43.232856390548825" lon="10.775125049901373"><ele>474.75</ele><time>2026-05-01T12:51:19Z</time></trkpt><trkpt lat="43.23272925850825" lon="10.775115594591979"><ele>476.0</ele><time>2026-05-01T12:51:20Z</time></trkpt><trkpt lat="43.23259348259635" lon="10.775104487555081"><ele>476.0</ele><time>2026-05-01T12:51:21Z</time></trkpt><trkpt lat="43.232457654036764" lon="10.775039626497627"><ele>476.0</ele><time>2026-05-01T12:51:22Z</time></trkpt><trkpt lat="43.23233011131443" lon="10.774954912561581"><ele>476.0</ele><time>2026-05-01T12:51:23Z</time></trkpt><trkpt lat="43.23221498402245" lon="10.774871547008248"><ele>476.0</ele><time>2026-05-01T12:51:24Z</time></trkpt><trkpt lat="43.23212076506067" lon="10.774799327276654"><ele>474.75</ele><time>2026-05-01T12:51:25Z</time></trkpt><trkpt lat="43.2320081618185" lon="10.774692195451289"><ele>473.5</ele><time>2026-05-01T12:51:26Z</time></trkpt><trkpt lat="43.231886092268695" lon="10.77457200323379"><ele>472.25</ele><time>2026-05-01T12:51:27Z</time></trkpt><trkpt lat="43.23178720741054" lon="10.774463697911571"><ele>471.0</ele><time>2026-05-01T12:51:28Z</time></trkpt><trkpt lat="43.231698124359916" lon="10.77435768103764"><ele>472.25</ele><time>2026-05-01T12:51:29Z</time></trkpt><trkpt lat="43.23160600401372" lon="10.774213137264702"><ele>473.5</ele><time>2026-05-01T12:51:30Z</time></trkpt><trkpt lat="43.23150433567891" lon="10.774046697451755"><ele>474.75</ele><time>2026-05-01T12:51:31Z</time></trkpt><trkpt lat="43.23142498811901" lon="10.773900684884964"><ele>476.0</ele><time>2026-05-01T12:51:32Z</time></trkpt><trkpt lat="43.23135278988911" lon="10.773768692590535"><ele>475.25</ele><time>2026-05-01T12:51:33Z</time></trkpt><trkpt lat="43.23126707412743" lon="10.773650297631093"><ele>474.5</ele><time>2026-05-01T12:51:34Z</time></trkpt><trkpt lat="43.231163658100456" lon="10.773539627316408"><ele>473.75</ele><time>2026-05-01T12:51:35Z</time></trkpt><trkpt lat="43.23103464211856" lon="10.773435245802087"><ele>473.0</ele><time>2026-05-01T12:51:36Z</time></trkpt><trkpt lat="43.23089086033157" lon="10.773323471020156"><ele>473.0</ele><time>2026-05-01T12:51:37Z</time></trkpt><trkpt lat="43.23073554947289" lon="10.773229284534892"><ele>473.0</ele><time>2026-05-01T12:51:38Z</time></trkpt><trkpt lat="43.23060539481423" lon="10.77316207260644"><ele>473.0</ele><time>2026-05-01T12:51:39Z</time></trkpt><trkpt lat="43.230487650717734" lon="10.773115187791205"><ele>473.0</ele><time>2026-05-01T12:51:40Z</time></trkpt><trkpt lat="43.230372096664844" lon="10.773052379139235"><ele>470.66666666666663</ele><time>2026-05-01T12:51:41Z</time></trkpt><trkpt lat="43.23022375120079" lon="10.773030327791611"><ele>468.33333333333337</ele><time>2026-05-01T12:51:42Z</time></trkpt><trkpt lat="43.230061196456234" lon="10.773043007957867"><ele>466.0</ele><time>2026-05-01T12:51:43Z</time></trkpt><trkpt lat="43.229881791278885" lon="10.773055975821025"><ele>466.0</ele><time>2026-05-01T12:51:44Z</time></trkpt><trkpt lat="43.229688197632285" lon="10.773055727787938"><ele>466.0</ele><time>2026-05-01T12:51:45Z</time></trkpt><trkpt lat="43.22947903368276" lon="10.773055727787238"><ele>466.0</ele><time>2026-05-01T12:51:46Z</time></trkpt><trkpt lat="43.22928527031939" lon="10.773055727785973"><ele>466.0</ele><time>2026-05-01T12:51:47Z</time></trkpt><trkpt lat="43.229131698936555" lon="10.773056252272157"><ele>466.0</ele><time>2026-05-01T12:51:48Z</time></trkpt><trkpt lat="43.22899802996111" lon="10.773058670728703"><ele>466.0</ele><time>2026-05-01T12:51:49Z</time></trkpt><trkpt lat="43.228892598487754" lon="10.77306578788957"><ele>466.0</ele><time>2026-05-01T12:51:50Z</time></trkpt><trkpt lat="43.22881207036799" lon="10.773076480655247"><ele>467.20000000000005</ele><time>2026-05-01T12:51:51Z</time></trkpt><trkpt lat="43.228737368847675" lon="10.773096828040824"><ele>468.40000000000003</ele><time>2026-05-01T12:51:52Z</time></trkpt><trkpt lat="43.22865985291639" lon="10.773152846422114"><ele>469.6</ele><time>2026-05-01T12:51:53Z</time></trkpt><trkpt lat="43.22858824681596" lon="10.773271761458368"><ele>470.8</ele><time>2026-05-01T12:51:54Z</time></trkpt><trkpt lat="43.22857628846373" lon="10.773460467332413"><ele>472.0</ele><time>2026-05-01T12:51:55Z</time></trkpt><trkpt lat="43.2285588151504" lon="10.773629825895767"><ele>472.25</ele><time>2026-05-01T12:51:56Z</time></trkpt><trkpt lat="43.2285304167789" lon="10.773812238592154"><ele>472.5</ele><time>2026-05-01T12:51:57Z</time></trkpt><trkpt lat="43.228490595713076" lon="10.773992827380864"><ele>472.75</ele><time>2026-05-01T12:51:58Z</time></trkpt><trkpt lat="43.22844669240604" lon="10.774134109636679"><ele>473.0</ele><time>2026-05-01T12:51:59Z</time></trkpt><trkpt lat="43.2284000447885" lon="10.774243993194045"><ele>473.0</ele><time>2026-05-01T12:52:00Z</time></trkpt><trkpt lat="43.22833832675843" lon="10.774345523374178"><ele>473.0</ele><time>2026-05-01T12:52:01Z</time></trkpt><trkpt lat="43.228254377458406" lon="10.774461674731581"><ele>473.0</ele><time>2026-05-01T12:52:02Z</time></trkpt><trkpt lat="43.22814625813678" lon="10.774578639028036"><ele>473.0</ele><time>2026-05-01T12:52:03Z</time></trkpt><trkpt lat="43.22803302344788" lon="10.774702730515413"><ele>472.0</ele><time>2026-05-01T12:52:04Z</time></trkpt><trkpt lat="43.227913674616275" lon="10.77476455350853"><ele>471.0</ele><time>2026-05-01T12:52:05Z</time></trkpt><trkpt lat="43.227817689742494" lon="10.774821750545414"><ele>470.0</ele><time>2026-05-01T12:52:06Z</time></trkpt><trkpt lat="43.22772041989508" lon="10.77487006261713"><ele>469.0</ele><time>2026-05-01T12:52:07Z</time></trkpt><trkpt lat="43.227595353794" lon="10.77491694581156"><ele>469.0</ele><time>2026-05-01T12:52:08Z</time></trkpt><trkpt lat="43.22749142867499" lon="10.774938087208461"><ele>469.0</ele><time>2026-05-01T12:52:09Z</time></trkpt><trkpt lat="43.227416376283394" lon="10.774968508040228"><ele>469.0</ele><time>2026-05-01T12:52:10Z</time></trkpt><trkpt lat="43.22735432329604" lon="10.775022714107166"><ele>469.0</ele><time>2026-05-01T12:52:11Z</time></trkpt><trkpt lat="43.22735386142466" lon="10.775194278826982"><ele>469.0</ele><time>2026-05-01T12:52:12Z</time></trkpt><trkpt lat="43.227316463123096" lon="10.775345814208706"><ele>468.75</ele><time>2026-05-01T12:52:13Z</time></trkpt><trkpt lat="43.2272862229556" lon="10.775496081454838"><ele>468.5</ele><time>2026-05-01T12:52:14Z</time></trkpt><trkpt lat="43.22724017569928" lon="10.775632897357282"><ele>468.25</ele><time>2026-05-01T12:52:15Z</time></trkpt><trkpt lat="43.22716838005713" lon="10.775781300250951"><ele>468.0</ele><time>2026-05-01T12:52:16Z</time></trkpt><trkpt lat="43.22708789650292" lon="10.775915739312849"><ele>465.5</ele><time>2026-05-01T12:52:17Z</time></trkpt><trkpt lat="43.22700893232488" lon="10.77602854919867"><ele>463.0</ele><time>2026-05-01T12:52:18Z</time></trkpt><trkpt lat="43.22691714140705" lon="10.776125614385057"><ele>460.5</ele><time>2026-05-01T12:52:19Z</time></trkpt><trkpt lat="43.22681123410412" lon="10.776225317744725"><ele>458.0</ele><time>2026-05-01T12:52:20Z</time></trkpt><trkpt lat="43.22668653387694" lon="10.77633927855702"><ele>458.0</ele><time>2026-05-01T12:52:21Z</time></trkpt><trkpt lat="43.226572449466374" lon="10.77644516110555"><ele>458.0</ele><time>2026-05-01T12:52:22Z</time></trkpt><trkpt lat="43.22648153481007" lon="10.776546958073325"><ele>458.0</ele><time>2026-05-01T12:52:23Z</time></trkpt><trkpt lat="43.226404654688544" lon="10.77668374946114"><ele>458.0</ele><time>2026-05-01T12:52:24Z</time></trkpt><trkpt lat="43.22636039563683" lon="10.776831317160385"><ele>456.0</ele><time>2026-05-01T12:52:25Z</time></trkpt><trkpt lat="43.226273241169146" lon="10.777043230379018"><ele>453.99999999999994</ele><time>2026-05-01T12:52:27Z</time></trkpt><trkpt lat="43.22620336145824" lon="10.777114944309034"><ele>451.99999999999994</ele><time>2026-05-01T12:52:28Z</time></trkpt><trkpt lat="43.22613004967279" lon="10.777144868087413"><ele>450.0</ele><time>2026-05-01T12:52:29Z</time></trkpt><trkpt lat="43.22605038600498" lon="10.777140905091107"><ele>448.0</ele><time>2026-05-01T12:52:30Z</time></trkpt><trkpt lat="43.2259653922385" lon="10.777090024089775"><ele>448.0</ele><time>2026-05-01T12:52:31Z</time></trkpt><trkpt lat="43.225862038392435" lon="10.776989562358427"><ele>447.99999999999994</ele><time>2026-05-01T12:52:32Z</time></trkpt><trkpt lat="43.225776765469526" lon="10.776892510406498"><ele>447.99999999999994</ele><time>2026-05-01T12:52:33Z</time></trkpt><trkpt lat="43.22571517838265" lon="10.776845709417842"><ele>448.0</ele><time>2026-05-01T12:52:34Z</time></trkpt><trkpt lat="43.22562460204085" lon="10.776829556603378"><ele>448.0</ele><time>2026-05-01T12:52:36Z</time></trkpt><trkpt lat="43.22551891943053" lon="10.776847685896051"><ele>447.75</ele><time>2026-05-01T12:52:38Z</time></trkpt><trkpt lat="43.2254150579192" lon="10.776935195824901"><ele>447.5</ele><time>2026-05-01T12:52:39Z</time></trkpt><trkpt lat="43.22533380063611" lon="10.777037937082223"><ele>447.25</ele><time>2026-05-01T12:52:40Z</time></trkpt><trkpt lat="43.22521681122716" lon="10.777102461232875"><ele>447.0</ele><time>2026-05-01T12:52:41Z</time></trkpt><trkpt lat="43.22508169985446" lon="10.777170385699083"><ele>447.0</ele><time>2026-05-01T12:52:42Z</time></trkpt><trkpt lat="43.22494289571946" lon="10.777222242067756"><ele>447.0</ele><time>2026-05-01T12:52:43Z</time></trkpt><trkpt lat="43.22478317456444" lon="10.777246044165238"><ele>447.0</ele><time>2026-05-01T12:52:44Z</time></trkpt><trkpt lat="43.224627522052934" lon="10.777306871963766"><ele>450.40000000000003</ele><time>2026-05-01T12:52:45Z</time></trkpt><trkpt lat="43.22451245417258" lon="10.777383245576042"><ele>453.80000000000007</ele><time>2026-05-01T12:52:46Z</time></trkpt><trkpt lat="43.22443829701468" lon="10.777426983612223"><ele>457.2</ele><time>2026-05-01T12:52:47Z</time></trkpt><trkpt lat="43.22433813082516" lon="10.777454223959522"><ele>460.6</ele><time>2026-05-01T12:52:49Z</time></trkpt><trkpt lat="43.224275250857325" lon="10.777366100173273"><ele>464.0</ele><time>2026-05-01T12:52:51Z</time></trkpt><trkpt lat="43.22432876879653" lon="10.777236190354518"><ele>463.99999999999994</ele><time>2026-05-01T12:52:52Z</time></trkpt><trkpt lat="43.224378923063526" lon="10.777117567595258"><ele>464.0</ele><time>2026-05-01T12:52:53Z</time></trkpt><trkpt lat="43.22440939579639" lon="10.777002676084335"><ele>464.0</ele><time>2026-05-01T12:52:54Z</time></trkpt><trkpt lat="43.224391346436825" lon="10.776902509943291"><ele>464.0</ele><time>2026-05-01T12:52:55Z</time></trkpt><trkpt lat="43.22433518595127" lon="10.776840244549598"><ele>463.99999999999994</ele><time>2026-05-01T12:52:56Z</time></trkpt><trkpt lat="43.224246660626825" lon="10.776781791616273"><ele>464.0</ele><time>2026-05-01T12:52:57Z</time></trkpt><trkpt lat="43.22414516781467" lon="10.776745042091063"><ele>462.4</ele><time>2026-05-01T12:52:58Z</time></trkpt><trkpt lat="43.2240243730939" lon="10.776712735035035"><ele>460.79999999999995</ele><time>2026-05-01T12:52:59Z</time></trkpt><trkpt lat="43.223898780217276" lon="10.77669336198429"><ele>459.20000000000005</ele><time>2026-05-01T12:53:00Z</time></trkpt><trkpt lat="43.22381680636516" lon="10.776686701670775"><ele>457.6</ele><time>2026-05-01T12:53:01Z</time></trkpt><trkpt lat="43.22372723876208" lon="10.776708111111374"><ele>456.0</ele><time>2026-05-01T12:53:02Z</time></trkpt><trkpt lat="43.22361164846665" lon="10.776786731860362"><ele>459.0</ele><time>2026-05-01T12:53:03Z</time></trkpt><trkpt lat="43.223484271846935" lon="10.77688869760248"><ele>462.0</ele><time>2026-05-01T12:53:04Z</time></trkpt><trkpt lat="43.22337092906454" lon="10.776978069910557"><ele>465.0</ele><time>2026-05-01T12:53:05Z</time></trkpt><trkpt lat="43.22327884235049" lon="10.777024001478905"><ele>468.0</ele><time>2026-05-01T12:53:06Z</time></trkpt><trkpt lat="43.22315876386247" lon="10.777063537635458"><ele>466.0</ele><time>2026-05-01T12:53:07Z</time></trkpt><trkpt lat="43.223005314733186" lon="10.777075464811691"><ele>464.0</ele><time>2026-05-01T12:53:08.001Z</time></trkpt><trkpt lat="43.22286636271983" lon="10.777111582801718"><ele>462.0</ele><time>2026-05-01T12:53:09.001Z</time></trkpt><trkpt lat="43.222734349793534" lon="10.777158262473893"><ele>460.0</ele><time>2026-05-01T12:53:10.001Z</time></trkpt><trkpt lat="43.22259167428855" lon="10.777224321126944"><ele>460.0</ele><time>2026-05-01T12:53:11.001Z</time></trkpt><trkpt lat="43.22243192747035" lon="10.777296588079405"><ele>460.0</ele><time>2026-05-01T12:53:12.001Z</time></trkpt><trkpt lat="43.22231012282341" lon="10.777345772858263"><ele>460.0</ele><time>2026-05-01T12:53:13.001Z</time></trkpt><trkpt lat="43.22222322992394" lon="10.777381519246795"><ele>460.0</ele><time>2026-05-01T12:53:14.001Z</time></trkpt><trkpt lat="43.222162553707264" lon="10.777413084615437"><ele>458.00000000000006</ele><time>2026-05-01T12:53:15.001Z</time></trkpt><trkpt lat="43.222108783076386" lon="10.777461888802103"><ele>456.0</ele><time>2026-05-01T12:53:16.001Z</time></trkpt><trkpt lat="43.222064133031445" lon="10.777609603984969"><ele>454.0</ele><time>2026-05-01T12:53:17.001Z</time></trkpt><trkpt lat="43.222042429762894" lon="10.7777232791079"><ele>452.0</ele><time>2026-05-01T12:53:18.001Z</time></trkpt><trkpt lat="43.22203565122634" lon="10.777836973713299"><ele>450.00000000000006</ele><time>2026-05-01T12:53:19.001Z</time></trkpt><trkpt lat="43.22202457950214" lon="10.777953824392648"><ele>448.0</ele><time>2026-05-01T12:53:20.001Z</time></trkpt><trkpt lat="43.222013961680325" lon="10.778063689452747"><ele>448.0</ele><time>2026-05-01T12:53:21.001Z</time></trkpt><trkpt lat="43.22199889025146" lon="10.778203781070896"><ele>447.99999999999994</ele><time>2026-05-01T12:53:22.001Z</time></trkpt><trkpt lat="43.22198224455194" lon="10.778313968672515"><ele>447.99999999999994</ele><time>2026-05-01T12:53:23Z</time></trkpt><trkpt lat="43.22195492373103" lon="10.778447718432805"><ele>448.0</ele><time>2026-05-01T12:53:24Z</time></trkpt><trkpt lat="43.221922027584" lon="10.778557877552899"><ele>448.0</ele><time>2026-05-01T12:53:25Z</time></trkpt><trkpt lat="43.22187769766831" lon="10.778668618614232"><ele>448.75</ele><time>2026-05-01T12:53:26Z</time></trkpt><trkpt lat="43.22180419743028" lon="10.778776987122129"><ele>449.5</ele><time>2026-05-01T12:53:27Z</time></trkpt><trkpt lat="43.221711286646496" lon="10.7789109402471"><ele>450.25</ele><time>2026-05-01T12:53:28Z</time></trkpt><trkpt lat="43.221638914487116" lon="10.77903542742202"><ele>451.0</ele><time>2026-05-01T12:53:29Z</time></trkpt><trkpt lat="43.221578390767824" lon="10.779161423150882"><ele>451.0</ele><time>2026-05-01T12:53:30Z</time></trkpt><trkpt lat="43.22152117979771" lon="10.779301951194384"><ele>451.0</ele><time>2026-05-01T12:53:31Z</time></trkpt><trkpt lat="43.22146275376282" lon="10.779457363275524"><ele>451.0</ele><time>2026-05-01T12:53:32Z</time></trkpt><trkpt lat="43.221404063936816" lon="10.779610435260848"><ele>451.0</ele><time>2026-05-01T12:53:33Z</time></trkpt><trkpt lat="43.221345527971756" lon="10.77974187607576"><ele>450.75</ele><time>2026-05-01T12:53:34Z</time></trkpt><trkpt lat="43.22127913785461" lon="10.779872758770736"><ele>450.5</ele><time>2026-05-01T12:53:35Z</time></trkpt><trkpt lat="43.22118132519476" lon="10.780018877957296"><ele>450.25</ele><time>2026-05-01T12:53:36Z</time></trkpt><trkpt lat="43.22107001584871" lon="10.780173481703729"><ele>450.0</ele><time>2026-05-01T12:53:37Z</time></trkpt><trkpt lat="43.220942016246774" lon="10.780351267582953"><ele>450.0</ele><time>2026-05-01T12:53:38Z</time></trkpt><trkpt lat="43.22083269917882" lon="10.780508062537796"><ele>450.0</ele><time>2026-05-01T12:53:39Z</time></trkpt><trkpt lat="43.22074101082434" lon="10.780639180046684"><ele>450.0</ele><time>2026-05-01T12:53:40Z</time></trkpt><trkpt lat="43.22065589783125" lon="10.78076143390463"><ele>450.0</ele><time>2026-05-01T12:53:41Z</time></trkpt><trkpt lat="43.22058404185503" lon="10.780894132024645"><ele>449.8</ele><time>2026-05-01T12:53:42Z</time></trkpt><trkpt lat="43.2205369015146" lon="10.781039717493133"><ele>449.6</ele><time>2026-05-01T12:53:43Z</time></trkpt><trkpt lat="43.220513010049736" lon="10.781182676061517"><ele>449.4</ele><time>2026-05-01T12:53:44Z</time></trkpt><trkpt lat="43.22051264172924" lon="10.781324017028354"><ele>449.2</ele><time>2026-05-01T12:53:45Z</time></trkpt><trkpt lat="43.22053552472693" lon="10.781468113030666"><ele>449.0</ele><time>2026-05-01T12:53:46Z</time></trkpt><trkpt lat="43.22058465577251" lon="10.781634134901127"><ele>449.0</ele><time>2026-05-01T12:53:47Z</time></trkpt><trkpt lat="43.22063792306143" lon="10.781807016466535"><ele>449.0</ele><time>2026-05-01T12:53:48Z</time></trkpt><trkpt lat="43.22066647875917" lon="10.781948146199404"><ele>449.0</ele><time>2026-05-01T12:53:49Z</time></trkpt><trkpt lat="43.220675448513106" lon="10.782063381867088"><ele>449.0</ele><time>2026-05-01T12:53:50Z</time></trkpt><trkpt lat="43.22066319420851" lon="10.782188691913689"><ele>449.0</ele><time>2026-05-01T12:53:51Z</time></trkpt><trkpt lat="43.220632041091676" lon="10.782343294323939"><ele>450.0</ele><time>2026-05-01T12:53:52Z</time></trkpt><trkpt lat="43.22058205581914" lon="10.782524107070337"><ele>451.0</ele><time>2026-05-01T12:53:53Z</time></trkpt><trkpt lat="43.22052000993432" lon="10.78270431986496"><ele>452.0</ele><time>2026-05-01T12:53:54Z</time></trkpt><trkpt lat="43.22046717592848" lon="10.782896659069861"><ele>453.0</ele><time>2026-05-01T12:53:55Z</time></trkpt><trkpt lat="43.22043683746516" lon="10.783114042089881"><ele>453.33333333333337</ele><time>2026-05-01T12:53:56Z</time></trkpt><trkpt lat="43.22036850498733" lon="10.783344637082724"><ele>453.6666666666667</ele><time>2026-05-01T12:53:57Z</time></trkpt><trkpt lat="43.22031234031394" lon="10.783587380204851"><ele>454.0</ele><time>2026-05-01T12:53:58Z</time></trkpt><trkpt lat="43.220260109179975" lon="10.783805229292199"><ele>454.0</ele><time>2026-05-01T12:53:59Z</time></trkpt><trkpt lat="43.220208140489255" lon="10.784001887536634"><ele>454.0</ele><time>2026-05-01T12:54:00Z</time></trkpt><trkpt lat="43.22016820184153" lon="10.784190963060732"><ele>454.0</ele><time>2026-05-01T12:54:01Z</time></trkpt><trkpt lat="43.22014648760604" lon="10.784379932754964"><ele>454.0</ele><time>2026-05-01T12:54:02Z</time></trkpt><trkpt lat="43.22014284909399" lon="10.784550224516254"><ele>454.25</ele><time>2026-05-01T12:54:03Z</time></trkpt><trkpt lat="43.22016244105731" lon="10.78474168014649"><ele>454.5</ele><time>2026-05-01T12:54:04Z</time></trkpt><trkpt lat="43.22017285242552" lon="10.784963211361713"><ele>454.75</ele><time>2026-05-01T12:54:05Z</time></trkpt><trkpt lat="43.22016975450071" lon="10.785145818291381"><ele>455.0</ele><time>2026-05-01T12:54:06Z</time></trkpt><trkpt lat="43.22015460759761" lon="10.785298074184466"><ele>455.8</ele><time>2026-05-01T12:54:07Z</time></trkpt><trkpt lat="43.220132139781576" lon="10.785444420257289"><ele>456.6</ele><time>2026-05-01T12:54:08Z</time></trkpt><trkpt lat="43.22009913867122" lon="10.785582022597616"><ele>457.4</ele><time>2026-05-01T12:54:09Z</time></trkpt><trkpt lat="43.220053717380075" lon="10.785718208350152"><ele>458.2</ele><time>2026-05-01T12:54:10Z</time></trkpt><trkpt lat="43.22000760244062" lon="10.785840342814124"><ele>459.0</ele><time>2026-05-01T12:54:11Z</time></trkpt><trkpt lat="43.219960012694486" lon="10.785958270314032"><ele>459.2</ele><time>2026-05-01T12:54:12Z</time></trkpt><trkpt lat="43.21991162074599" lon="10.786084071938541"><ele>459.4</ele><time>2026-05-01T12:54:13Z</time></trkpt><trkpt lat="43.21985994427257" lon="10.786209668650091"><ele>459.6</ele><time>2026-05-01T12:54:14Z</time></trkpt><trkpt lat="43.21980650842123" lon="10.786339317697939"><ele>459.8</ele><time>2026-05-01T12:54:15Z</time></trkpt><trkpt lat="43.21976374053445" lon="10.786487016368056"><ele>460.0</ele><time>2026-05-01T12:54:16Z</time></trkpt><trkpt lat="43.2197351918885" lon="10.786653209957937"><ele>460.0</ele><time>2026-05-01T12:54:17Z</time></trkpt><trkpt lat="43.21971031969834" lon="10.786827487505924"><ele>460.0</ele><time>2026-05-01T12:54:18Z</time></trkpt><trkpt lat="43.21967220918224" lon="10.786987016291466"><ele>460.0</ele><time>2026-05-01T12:54:19Z</time></trkpt><trkpt lat="43.21961754042718" lon="10.787146147512964"><ele>460.0</ele><time>2026-05-01T12:54:20Z</time></trkpt><trkpt lat="43.21956680824317" lon="10.787283312713377"><ele>460.5</ele><time>2026-05-01T12:54:21Z</time></trkpt><trkpt lat="43.219508989318456" lon="10.78739374183306"><ele>461.0</ele><time>2026-05-01T12:54:22Z</time></trkpt><trkpt lat="43.21943168030694" lon="10.787514137572822"><ele>461.5</ele><time>2026-05-01T12:54:23Z</time></trkpt><trkpt lat="43.219337061089824" lon="10.787637272076681"><ele>462.0</ele><time>2026-05-01T12:54:24Z</time></trkpt><trkpt lat="43.219240104579775" lon="10.787774947066843"><ele>462.0</ele><time>2026-05-01T12:54:25Z</time></trkpt><trkpt lat="43.219151968248504" lon="10.787921664628126"><ele>462.0</ele><time>2026-05-01T12:54:26Z</time></trkpt><trkpt lat="43.21906839095392" lon="10.788063353812522"><ele>462.0</ele><time>2026-05-01T12:54:27Z</time></trkpt><trkpt lat="43.21899419728979" lon="10.788188780490191"><ele>462.0</ele><time>2026-05-01T12:54:28Z</time></trkpt><trkpt lat="43.218908724285086" lon="10.788302871013304"><ele>462.5</ele><time>2026-05-01T12:54:29Z</time></trkpt><trkpt lat="43.218804588787044" lon="10.788419623967314"><ele>463.0</ele><time>2026-05-01T12:54:30Z</time></trkpt><trkpt lat="43.21867991298358" lon="10.788540107668588"><ele>463.5</ele><time>2026-05-01T12:54:31Z</time></trkpt><trkpt lat="43.21856980091701" lon="10.788669701876701"><ele>464.0</ele><time>2026-05-01T12:54:32Z</time></trkpt><trkpt lat="43.21847959588588" lon="10.788796780854474"><ele>464.0</ele><time>2026-05-01T12:54:33Z</time></trkpt><trkpt lat="43.21840304703337" lon="10.7889323678217"><ele>464.0</ele><time>2026-05-01T12:54:34Z</time></trkpt><trkpt lat="43.21833997203815" lon="10.789088736310367"><ele>464.0</ele><time>2026-05-01T12:54:35Z</time></trkpt><trkpt lat="43.218277729952085" lon="10.789238135590402"><ele>464.0</ele><time>2026-05-01T12:54:36Z</time></trkpt><trkpt lat="43.218181645075695" lon="10.789384995167588"><ele>463.25</ele><time>2026-05-01T12:54:37Z</time></trkpt><trkpt lat="43.21807067312958" lon="10.789518568491195"><ele>462.5</ele><time>2026-05-01T12:54:38Z</time></trkpt><trkpt lat="43.21798828602273" lon="10.789636967973319"><ele>461.75</ele><time>2026-05-01T12:54:39Z</time></trkpt><trkpt lat="43.21791384283451" lon="10.789748709744485"><ele>461.0</ele><time>2026-05-01T12:54:40Z</time></trkpt><trkpt lat="43.217842212180315" lon="10.789854823856324"><ele>461.0</ele><time>2026-05-01T12:54:41Z</time></trkpt><trkpt lat="43.217777624324526" lon="10.789942309744383"><ele>461.0</ele><time>2026-05-01T12:54:42Z</time></trkpt><trkpt lat="43.21769799326442" lon="10.789997415968296"><ele>461.0</ele><time>2026-05-01T12:54:43Z</time></trkpt><trkpt lat="43.217598417196655" lon="10.790017591528663"><ele>461.0</ele><time>2026-05-01T12:54:44Z</time></trkpt><trkpt lat="43.21748468133363" lon="10.79001684572778"><ele>461.0</ele><time>2026-05-01T12:54:45Z</time></trkpt><trkpt lat="43.217382840089265" lon="10.790031701305166"><ele>459.0</ele><time>2026-05-01T12:54:46Z</time></trkpt><trkpt lat="43.21728715824076" lon="10.790072252146214"><ele>457.0</ele><time>2026-05-01T12:54:47Z</time></trkpt><trkpt lat="43.217188356427755" lon="10.790147090545407"><ele>455.0</ele><time>2026-05-01T12:54:48Z</time></trkpt><trkpt lat="43.217088664682606" lon="10.79026793221761"><ele>453.0</ele><time>2026-05-01T12:54:49Z</time></trkpt><trkpt lat="43.21699606653612" lon="10.790429971868049"><ele>453.0</ele><time>2026-05-01T12:54:50Z</time></trkpt><trkpt lat="43.21690193022101" lon="10.79059895406346"><ele>453.0</ele><time>2026-05-01T12:54:51Z</time></trkpt><trkpt lat="43.216800810764866" lon="10.790728286481249"><ele>453.0</ele><time>2026-05-01T12:54:52Z</time></trkpt><trkpt lat="43.216676667685846" lon="10.790860193901251"><ele>453.0</ele><time>2026-05-01T12:54:53Z</time></trkpt><trkpt lat="43.216575424346104" lon="10.790982996461697"><ele>453.0</ele><time>2026-05-01T12:54:54Z</time></trkpt><trkpt lat="43.216486097705754" lon="10.791106469786463"><ele>453.0</ele><time>2026-05-01T12:54:55Z</time></trkpt><trkpt lat="43.21641757068145" lon="10.791233609301393"><ele>453.0</ele><time>2026-05-01T12:54:56Z</time></trkpt><trkpt lat="43.21636438567161" lon="10.791378499325624"><ele>450.75</ele><time>2026-05-01T12:54:57Z</time></trkpt><trkpt lat="43.216337990570814" lon="10.79154721510727"><ele>448.5</ele><time>2026-05-01T12:54:58Z</time></trkpt><trkpt lat="43.21633273099803" lon="10.791734134172083"><ele>446.25</ele><time>2026-05-01T12:54:59Z</time></trkpt><trkpt lat="43.21631772998043" lon="10.791893585573451"><ele>444.0</ele><time>2026-05-01T12:55:00Z</time></trkpt><trkpt lat="43.216290858485756" lon="10.792013537754626"><ele>444.0</ele><time>2026-05-01T12:55:01Z</time></trkpt><trkpt lat="43.21623173801721" lon="10.79211592672868"><ele>444.0</ele><time>2026-05-01T12:55:02Z</time></trkpt><trkpt lat="43.216145010871664" lon="10.792249040238396"><ele>444.0</ele><time>2026-05-01T12:55:03Z</time></trkpt><trkpt lat="43.21604614191234" lon="10.79238370571296"><ele>444.0</ele><time>2026-05-01T12:55:04Z</time></trkpt><trkpt lat="43.215955068548986" lon="10.792503790974179"><ele>444.0</ele><time>2026-05-01T12:55:05Z</time></trkpt><trkpt lat="43.215864692582855" lon="10.792622908212309"><ele>444.0</ele><time>2026-05-01T12:55:06Z</time></trkpt><trkpt lat="43.215783192383626" lon="10.792726903210074"><ele>444.0</ele><time>2026-05-01T12:55:07Z</time></trkpt><trkpt lat="43.215700189894456" lon="10.792818600179615"><ele>444.0</ele><time>2026-05-01T12:55:08Z</time></trkpt><trkpt lat="43.215622352836995" lon="10.792890385488102"><ele>444.0</ele><time>2026-05-01T12:55:09Z</time></trkpt><trkpt lat="43.21554694414563" lon="10.792925004991025"><ele>443.75</ele><time>2026-05-01T12:55:10Z</time></trkpt><trkpt lat="43.215457275436684" lon="10.792945104316683"><ele>443.5</ele><time>2026-05-01T12:55:11Z</time></trkpt><trkpt lat="43.21535373095603" lon="10.79295698726634"><ele>443.25</ele><time>2026-05-01T12:55:12Z</time></trkpt><trkpt lat="43.215232419989015" lon="10.792959655536817"><ele>443.0</ele><time>2026-05-01T12:55:13Z</time></trkpt><trkpt lat="43.215089109605515" lon="10.792961533095168"><ele>443.0</ele><time>2026-05-01T12:55:14Z</time></trkpt><trkpt lat="43.21492838098765" lon="10.792961230550313"><ele>443.0</ele><time>2026-05-01T12:55:15Z</time></trkpt><trkpt lat="43.214769374771905" lon="10.79295569187463"><ele>443.0</ele><time>2026-05-01T12:55:16Z</time></trkpt><trkpt lat="43.21462445806793" lon="10.792945850883346"><ele>442.2</ele><time>2026-05-01T12:55:17Z</time></trkpt><trkpt lat="43.21451051222391" lon="10.792924719656055"><ele>441.4</ele><time>2026-05-01T12:55:18Z</time></trkpt><trkpt lat="43.21440313996642" lon="10.792888815779031"><ele>440.59999999999997</ele><time>2026-05-01T12:55:19Z</time></trkpt><trkpt lat="43.21431099471764" lon="10.792861431578444"><ele>439.79999999999995</ele><time>2026-05-01T12:55:20.001Z</time></trkpt><trkpt lat="43.21423470549265" lon="10.792853700906814"><ele>439.0</ele><time>2026-05-01T12:55:21.001Z</time></trkpt><trkpt lat="43.214158885140044" lon="10.792885699770169"><ele>439.0</ele><time>2026-05-01T12:55:22.001Z</time></trkpt><trkpt lat="43.21407568546719" lon="10.792949285992131"><ele>439.0</ele><time>2026-05-01T12:55:23.001Z</time></trkpt><trkpt lat="43.21399990167753" lon="10.793089295709125"><ele>439.0</ele><time>2026-05-01T12:55:24.001Z</time></trkpt><trkpt lat="43.2139214127986" lon="10.793238461271043"><ele>439.0</ele><time>2026-05-01T12:55:25.001Z</time></trkpt><trkpt lat="43.21383953547363" lon="10.79338631791676"><ele>439.33333333333337</ele><time>2026-05-01T12:55:26.001Z</time></trkpt><trkpt lat="43.213745657518935" lon="10.793547240074643"><ele>439.66666666666663</ele><time>2026-05-01T12:55:27.001Z</time></trkpt><trkpt lat="43.21363648863243" lon="10.793715646499875"><ele>440.0</ele><time>2026-05-01T12:55:28Z</time></trkpt><trkpt lat="43.21353125305274" lon="10.793877956119177"><ele>440.0</ele><time>2026-05-01T12:55:29Z</time></trkpt><trkpt lat="43.213454978868384" lon="10.793995597272533"><ele>440.0</ele><time>2026-05-01T12:55:30Z</time></trkpt><trkpt lat="43.213384409720575" lon="10.794110761656997"><ele>440.0</ele><time>2026-05-01T12:55:31Z</time></trkpt><trkpt lat="43.213322351712826" lon="10.79423662827741"><ele>440.0</ele><time>2026-05-01T12:55:32Z</time></trkpt><trkpt lat="43.21327414521866" lon="10.794399913437221"><ele>438.3333333333333</ele><time>2026-05-01T12:55:33Z</time></trkpt><trkpt lat="43.21323417437068" lon="10.794603077360392"><ele>436.66666666666663</ele><time>2026-05-01T12:55:34Z</time></trkpt><trkpt lat="43.21318968389722" lon="10.794818715329775"><ele>435.0</ele><time>2026-05-01T12:55:35Z</time></trkpt><trkpt lat="43.21314423515879" lon="10.79503563337402"><ele>436.5</ele><time>2026-05-01T12:55:36Z</time></trkpt><trkpt lat="43.21310176202791" lon="10.795249559972422"><ele>438.0</ele><time>2026-05-01T12:55:37Z</time></trkpt><trkpt lat="43.21306637032816" lon="10.795463212110445"><ele>439.5</ele><time>2026-05-01T12:55:38Z</time></trkpt><trkpt lat="43.21304113346438" lon="10.795634853952224"><ele>441.0</ele><time>2026-05-01T12:55:39Z</time></trkpt><trkpt lat="43.21302726124106" lon="10.795749981513291"><ele>441.0</ele><time>2026-05-01T12:55:40Z</time></trkpt><trkpt lat="43.213009482799485" lon="10.795884317248499"><ele>441.0</ele><time>2026-05-01T12:55:41Z</time></trkpt><trkpt lat="43.212985717891485" lon="10.795985310688586"><ele>441.0</ele><time>2026-05-01T12:55:42Z</time></trkpt><trkpt lat="43.21293609295139" lon="10.796068595562144"><ele>441.0</ele><time>2026-05-01T12:55:43Z</time></trkpt><trkpt lat="43.2128645600795" lon="10.796143412702232"><ele>441.0</ele><time>2026-05-01T12:55:44Z</time></trkpt><trkpt lat="43.21276265912638" lon="10.796232190618426"><ele>437.75</ele><time>2026-05-01T12:55:45Z</time></trkpt><trkpt lat="43.212650465459156" lon="10.796319523185874"><ele>434.5</ele><time>2026-05-01T12:55:46Z</time></trkpt><trkpt lat="43.21252928631135" lon="10.796412978005131"><ele>431.25</ele><time>2026-05-01T12:55:47Z</time></trkpt><trkpt lat="43.21241140949481" lon="10.796495376654482"><ele>428.0</ele><time>2026-05-01T12:55:48Z</time></trkpt><trkpt lat="43.21230738216273" lon="10.796555784383319"><ele>427.75</ele><time>2026-05-01T12:55:49Z</time></trkpt><trkpt lat="43.2121836040675" lon="10.796580945396096"><ele>427.5</ele><time>2026-05-01T12:55:50Z</time></trkpt><trkpt lat="43.212064478299446" lon="10.796595670967069"><ele>427.25</ele><time>2026-05-01T12:55:51Z</time></trkpt><trkpt lat="43.211924831351425" lon="10.79660178714032"><ele>427.0</ele><time>2026-05-01T12:55:52Z</time></trkpt><trkpt lat="43.21177991639154" lon="10.796629290017124"><ele>427.0</ele><time>2026-05-01T12:55:53Z</time></trkpt><trkpt lat="43.21165725406137" lon="10.796627167646475"><ele>427.0</ele><time>2026-05-01T12:55:54Z</time></trkpt><trkpt lat="43.21153961534596" lon="10.79659233045053"><ele>427.0</ele><time>2026-05-01T12:55:55Z</time></trkpt><trkpt lat="43.21142513075307" lon="10.796595546606097"><ele>427.0</ele><time>2026-05-01T12:55:56Z</time></trkpt><trkpt lat="43.21133078244575" lon="10.79656758203466"><ele>427.00000000000006</ele><time>2026-05-01T12:55:57Z</time></trkpt><trkpt lat="43.21126594765247" lon="10.796551185001652"><ele>427.0</ele><time>2026-05-01T12:55:58Z</time></trkpt><trkpt lat="43.21120435702275" lon="10.796573719704096"><ele>427.0</ele><time>2026-05-01T12:55:59Z</time></trkpt><trkpt lat="43.21114562491941" lon="10.79660989734189"><ele>427.0</ele><time>2026-05-01T12:56:00Z</time></trkpt><trkpt lat="43.21110821662963" lon="10.796692686182778"><ele>427.00000000000006</ele><time>2026-05-01T12:56:01Z</time></trkpt><trkpt lat="43.21110581475293" lon="10.796823828807446"><ele>427.0</ele><time>2026-05-01T12:56:02Z</time></trkpt><trkpt lat="43.211148344121554" lon="10.796962554643494"><ele>426.40000000000003</ele><time>2026-05-01T12:56:03Z</time></trkpt><trkpt lat="43.21120613870422" lon="10.79709772232572"><ele>425.80000000000007</ele><time>2026-05-01T12:56:04Z</time></trkpt><trkpt lat="43.21122636728287" lon="10.797211812821564"><ele>425.2</ele><time>2026-05-01T12:56:06Z</time></trkpt><trkpt lat="43.21110452407331" lon="10.797146596812222"><ele>424.6</ele><time>2026-05-01T12:56:13Z</time></trkpt><trkpt lat="43.21104563742028" lon="10.797080986142802"><ele>424.0</ele><time>2026-05-01T12:56:14Z</time></trkpt><trkpt lat="43.21095194075266" lon="10.797005501904387"><ele>424.0</ele><time>2026-05-01T12:56:15Z</time></trkpt><trkpt lat="43.210841880663835" lon="10.796944638030318"><ele>424.0</ele><time>2026-05-01T12:56:16Z</time></trkpt><trkpt lat="43.21073190193498" lon="10.796895922540163"><ele>424.0</ele><time>2026-05-01T12:56:17Z</time></trkpt><trkpt lat="43.210631066476786" lon="10.796860100887658"><ele>424.0</ele><time>2026-05-01T12:56:18Z</time></trkpt><trkpt lat="43.210532779383385" lon="10.796832576784768"><ele>424.0</ele><time>2026-05-01T12:56:19Z</time></trkpt><trkpt lat="43.210436044425734" lon="10.79681060592326"><ele>424.0</ele><time>2026-05-01T12:56:20Z</time></trkpt><trkpt lat="43.21032878729066" lon="10.79679329677772"><ele>424.0</ele><time>2026-05-01T12:56:21Z</time></trkpt><trkpt lat="43.21021250911524" lon="10.796777251581018"><ele>424.0</ele><time>2026-05-01T12:56:22Z</time></trkpt><trkpt lat="43.210100603384994" lon="10.79675663640883"><ele>424.0</ele><time>2026-05-01T12:56:23Z</time></trkpt><trkpt lat="43.209996663103304" lon="10.79674599898961"><ele>424.0</ele><time>2026-05-01T12:56:24Z</time></trkpt><trkpt lat="43.20989789625924" lon="10.796730147513431"><ele>423.4</ele><time>2026-05-01T12:56:25Z</time></trkpt><trkpt lat="43.209807137743596" lon="10.796709738579127"><ele>422.79999999999995</ele><time>2026-05-01T12:56:26Z</time></trkpt><trkpt lat="43.20971629365621" lon="10.796697913101767"><ele>422.20000000000005</ele><time>2026-05-01T12:56:27Z</time></trkpt><trkpt lat="43.20962251384701" lon="10.796684682058643"><ele>421.6</ele><time>2026-05-01T12:56:28Z</time></trkpt><trkpt lat="43.209526301912476" lon="10.796666895693187"><ele>421.0</ele><time>2026-05-01T12:56:29Z</time></trkpt><trkpt lat="43.2094330944235" lon="10.796655140488319"><ele>421.0</ele><time>2026-05-01T12:56:30Z</time></trkpt><trkpt lat="43.20934834187206" lon="10.796627030763942"><ele>421.0</ele><time>2026-05-01T12:56:31Z</time></trkpt><trkpt lat="43.20926061890806" lon="10.796614717096942"><ele>421.0</ele><time>2026-05-01T12:56:32Z</time></trkpt><trkpt lat="43.20916477274489" lon="10.79661629451581"><ele>421.0</ele><time>2026-05-01T12:56:33Z</time></trkpt><trkpt lat="43.20906565980554" lon="10.796599973919832"><ele>421.0</ele><time>2026-05-01T12:56:34Z</time></trkpt><trkpt lat="43.20897092567795" lon="10.796586238060412"><ele>419.0</ele><time>2026-05-01T12:56:35Z</time></trkpt><trkpt lat="43.20888067696724" lon="10.796577212063257"><ele>417.0</ele><time>2026-05-01T12:56:36Z</time></trkpt><trkpt lat="43.20879407924777" lon="10.796551036655764"><ele>415.0</ele><time>2026-05-01T12:56:37Z</time></trkpt><trkpt lat="43.20871463624656" lon="10.79649583056273"><ele>413.0</ele><time>2026-05-01T12:56:38Z</time></trkpt><trkpt lat="43.20864311499385" lon="10.796416935294586"><ele>411.0</ele><time>2026-05-01T12:56:39Z</time></trkpt><trkpt lat="43.20857352631519" lon="10.796307023701473"><ele>411.0</ele><time>2026-05-01T12:56:40Z</time></trkpt><trkpt lat="43.20851227919834" lon="10.796179925951597"><ele>411.0</ele><time>2026-05-01T12:56:41Z</time></trkpt><trkpt lat="43.20844878891812" lon="10.796057985780603"><ele>411.0</ele><time>2026-05-01T12:56:42Z</time></trkpt><trkpt lat="43.20838704481252" lon="10.795937142752415"><ele>411.0</ele><time>2026-05-01T12:56:43Z</time></trkpt><trkpt lat="43.20833582795586" lon="10.79581804310916"><ele>411.0</ele><time>2026-05-01T12:56:44Z</time></trkpt><trkpt lat="43.20829066633174" lon="10.795698747350402"><ele>411.6</ele><time>2026-05-01T12:56:45Z</time></trkpt><trkpt lat="43.208229165597096" lon="10.795592387369279"><ele>412.20000000000005</ele><time>2026-05-01T12:56:46Z</time></trkpt><trkpt lat="43.2081459197946" lon="10.795485531172048"><ele>412.79999999999995</ele><time>2026-05-01T12:56:47Z</time></trkpt><trkpt lat="43.20805564109562" lon="10.79539628613837"><ele>413.4</ele><time>2026-05-01T12:56:48Z</time></trkpt><trkpt lat="43.20795517397105" lon="10.795332740282968"><ele>414.0</ele><time>2026-05-01T12:56:49Z</time></trkpt><trkpt lat="43.207850927959484" lon="10.79530250471319"><ele>412.6</ele><time>2026-05-01T12:56:50Z</time></trkpt><trkpt lat="43.207747089447835" lon="10.79528227498121"><ele>411.2</ele><time>2026-05-01T12:56:51Z</time></trkpt><trkpt lat="43.20764827035705" lon="10.795272384878682"><ele>409.8</ele><time>2026-05-01T12:56:52Z</time></trkpt><trkpt lat="43.20753823231425" lon="10.795281515613276"><ele>408.40000000000003</ele><time>2026-05-01T12:56:53Z</time></trkpt><trkpt lat="43.20742095831068" lon="10.795249634818234"><ele>407.0</ele><time>2026-05-01T12:56:54Z</time></trkpt><trkpt lat="43.207302677419726" lon="10.795239215931135"><ele>404.6</ele><time>2026-05-01T12:56:55Z</time></trkpt><trkpt lat="43.207193821696606" lon="10.795254149877456"><ele>402.20000000000005</ele><time>2026-05-01T12:56:56Z</time></trkpt><trkpt lat="43.207090063534686" lon="10.795224828903397"><ele>399.8</ele><time>2026-05-01T12:56:57Z</time></trkpt><trkpt lat="43.206980961166174" lon="10.79523656758593"><ele>397.4</ele><time>2026-05-01T12:56:58Z</time></trkpt><trkpt lat="43.20687140125018" lon="10.795209339126439"><ele>395.0</ele><time>2026-05-01T12:56:59Z</time></trkpt><trkpt lat="43.20675777105112" lon="10.795174373117362"><ele>397.75</ele><time>2026-05-01T12:57:00Z</time></trkpt><trkpt lat="43.206645668393705" lon="10.795123929778363"><ele>400.5</ele><time>2026-05-01T12:57:01Z</time></trkpt><trkpt lat="43.20653688777217" lon="10.795062553296976"><ele>403.25</ele><time>2026-05-01T12:57:02Z</time></trkpt><trkpt lat="43.20642608677387" lon="10.795003153151233"><ele>406.0</ele><time>2026-05-01T12:57:03Z</time></trkpt><trkpt lat="43.20631553482509" lon="10.794943038388782"><ele>406.0</ele><time>2026-05-01T12:57:04Z</time></trkpt><trkpt lat="43.20620783833124" lon="10.794877153339844"><ele>406.0</ele><time>2026-05-01T12:57:05Z</time></trkpt><trkpt lat="43.20610524493733" lon="10.794805915273162"><ele>406.0</ele><time>2026-05-01T12:57:06Z</time></trkpt><trkpt lat="43.205995590494666" lon="10.794742936037323"><ele>406.0</ele><time>2026-05-01T12:57:07Z</time></trkpt><trkpt lat="43.20588164638122" lon="10.794688092327332"><ele>406.0</ele><time>2026-05-01T12:57:08Z</time></trkpt><trkpt lat="43.20576729011927" lon="10.794635028436455"><ele>406.0</ele><time>2026-05-01T12:57:09Z</time></trkpt><trkpt lat="43.20565898962721" lon="10.794580226538233"><ele>406.0</ele><time>2026-05-01T12:57:10Z</time></trkpt><trkpt lat="43.20554671772856" lon="10.79454278628083"><ele>406.0</ele><time>2026-05-01T12:57:11Z</time></trkpt><trkpt lat="43.205433240195354" lon="10.794499857938916"><ele>405.20000000000005</ele><time>2026-05-01T12:57:12Z</time></trkpt><trkpt lat="43.205313984752465" lon="10.794501026288899"><ele>404.40000000000003</ele><time>2026-05-01T12:57:13Z</time></trkpt><trkpt lat="43.205204851031674" lon="10.794534754252528"><ele>403.6</ele><time>2026-05-01T12:57:14Z</time></trkpt><trkpt lat="43.2051031136854" lon="10.794586831462103"><ele>402.8</ele><time>2026-05-01T12:57:15Z</time></trkpt><trkpt lat="43.20500977584505" lon="10.794623661323536"><ele>402.0</ele><time>2026-05-01T12:57:16Z</time></trkpt><trkpt lat="43.20490695998337" lon="10.794593479840586"><ele>400.25</ele><time>2026-05-01T12:57:17Z</time></trkpt><trkpt lat="43.20479326239513" lon="10.794544432325509"><ele>398.5</ele><time>2026-05-01T12:57:18Z</time></trkpt><trkpt lat="43.2046692013355" lon="10.794473477594304"><ele>396.75</ele><time>2026-05-01T12:57:19Z</time></trkpt><trkpt lat="43.20454739456759" lon="10.794404069552911"><ele>395.0</ele><time>2026-05-01T12:57:20Z</time></trkpt><trkpt lat="43.20443409992798" lon="10.794340962037017"><ele>395.0</ele><time>2026-05-01T12:57:21Z</time></trkpt><trkpt lat="43.20431509181939" lon="10.794353171870073"><ele>395.0</ele><time>2026-05-01T12:57:22Z</time></trkpt><trkpt lat="43.20421431673022" lon="10.79435153538495"><ele>395.0</ele><time>2026-05-01T12:57:23Z</time></trkpt><trkpt lat="43.204130110934805" lon="10.794341852632199"><ele>395.0</ele><time>2026-05-01T12:57:24Z</time></trkpt><trkpt lat="43.20405975921184" lon="10.794294537167731"><ele>395.0</ele><time>2026-05-01T12:57:25Z</time></trkpt><trkpt lat="43.20400653085958" lon="10.79420560067042"><ele>394.6</ele><time>2026-05-01T12:57:26Z</time></trkpt><trkpt lat="43.2039716417644" lon="10.794092571447846"><ele>394.2</ele><time>2026-05-01T12:57:27Z</time></trkpt><trkpt lat="43.203937323687555" lon="10.7939749826485"><ele>393.79999999999995</ele><time>2026-05-01T12:57:28Z</time></trkpt><trkpt lat="43.20388719098396" lon="10.793852857526003"><ele>393.4</ele><time>2026-05-01T12:57:29Z</time></trkpt><trkpt lat="43.203806551768935" lon="10.79374910418005"><ele>393.0</ele><time>2026-05-01T12:57:30Z</time></trkpt><trkpt lat="43.20370866756766" lon="10.793672285924208"><ele>393.0</ele><time>2026-05-01T12:57:31Z</time></trkpt><trkpt lat="43.20359958258565" lon="10.793604897161114"><ele>393.0</ele><time>2026-05-01T12:57:32.001Z</time></trkpt><trkpt lat="43.203484684544044" lon="10.793543311393966"><ele>393.0</ele><time>2026-05-01T12:57:33.001Z</time></trkpt><trkpt lat="43.20336443033055" lon="10.793485574144919"><ele>393.0</ele><time>2026-05-01T12:57:34Z</time></trkpt><trkpt lat="43.20324301809205" lon="10.793423633818112"><ele>393.75</ele><time>2026-05-01T12:57:35Z</time></trkpt><trkpt lat="43.20313284608465" lon="10.79336081674206"><ele>394.5</ele><time>2026-05-01T12:57:36Z</time></trkpt><trkpt lat="43.203028564440736" lon="10.793295764907233"><ele>395.25</ele><time>2026-05-01T12:57:37Z</time></trkpt><trkpt lat="43.20292543290021" lon="10.793242309908607"><ele>396.0</ele><time>2026-05-01T12:57:38Z</time></trkpt><trkpt lat="43.20282403810768" lon="10.793194897332626"><ele>396.0</ele><time>2026-05-01T12:57:39Z</time></trkpt><trkpt lat="43.202723118531146" lon="10.793138366663923"><ele>396.0</ele><time>2026-05-01T12:57:40Z</time></trkpt><trkpt lat="43.2026132533327" lon="10.793072805182991"><ele>396.0</ele><time>2026-05-01T12:57:41Z</time></trkpt><trkpt lat="43.2024918804243" lon="10.793003579609287"><ele>396.0</ele><time>2026-05-01T12:57:42Z</time></trkpt><trkpt lat="43.20236876186934" lon="10.79292850779419"><ele>396.25</ele><time>2026-05-01T12:57:43Z</time></trkpt><trkpt lat="43.202251658420195" lon="10.792857885276673"><ele>396.5</ele><time>2026-05-01T12:57:44Z</time></trkpt><trkpt lat="43.202140307531806" lon="10.792793496472418"><ele>396.75</ele><time>2026-05-01T12:57:45Z</time></trkpt><trkpt lat="43.20203292826404" lon="10.792732962106019"><ele>397.0</ele><time>2026-05-01T12:57:46Z</time></trkpt><trkpt lat="43.20193016302427" lon="10.792667667478238"><ele>397.0</ele><time>2026-05-01T12:57:47Z</time></trkpt><trkpt lat="43.20183286483805" lon="10.792598136286939"><ele>397.0</ele><time>2026-05-01T12:57:48Z</time></trkpt><trkpt lat="43.20173084543022" lon="10.792521156634649"><ele>397.0</ele><time>2026-05-01T12:57:49Z</time></trkpt><trkpt lat="43.20161447879307" lon="10.7924376886423"><ele>397.0</ele><time>2026-05-01T12:57:50Z</time></trkpt><trkpt lat="43.20150082349629" lon="10.792345198334028"><ele>394.0</ele><time>2026-05-01T12:57:51Z</time></trkpt><trkpt lat="43.20137855618102" lon="10.792244348351652"><ele>391.0</ele><time>2026-05-01T12:57:52Z</time></trkpt><trkpt lat="43.20125842394885" lon="10.792140262562398"><ele>388.0</ele><time>2026-05-01T12:57:53Z</time></trkpt><trkpt lat="43.201137858727876" lon="10.792037559399482"><ele>385.0</ele><time>2026-05-01T12:57:54Z</time></trkpt><trkpt lat="43.20101752531764" lon="10.791937404593956"><ele>385.33333333333337</ele><time>2026-05-01T12:57:55Z</time></trkpt><trkpt lat="43.2008943613975" lon="10.791835850819107"><ele>385.66666666666663</ele><time>2026-05-01T12:57:56Z</time></trkpt><trkpt lat="43.20076528863027" lon="10.791724006751748"><ele>386.0</ele><time>2026-05-01T12:57:57Z</time></trkpt><trkpt lat="43.200632834344766" lon="10.791610785748675"><ele>386.0</ele><time>2026-05-01T12:57:58Z</time></trkpt><trkpt lat="43.200495423276315" lon="10.791498530666487"><ele>386.0</ele><time>2026-05-01T12:57:59Z</time></trkpt><trkpt lat="43.20035557214379" lon="10.791385198508666"><ele>386.0</ele><time>2026-05-01T12:58:00Z</time></trkpt><trkpt lat="43.20021588484516" lon="10.791269044552546"><ele>386.0</ele><time>2026-05-01T12:58:01Z</time></trkpt><trkpt lat="43.20007680556012" lon="10.791150702401822"><ele>386.0</ele><time>2026-05-01T12:58:02Z</time></trkpt><trkpt lat="43.19994125369828" lon="10.79103398062894"><ele>386.0</ele><time>2026-05-01T12:58:03Z</time></trkpt><trkpt lat="43.19980927386689" lon="10.79092250155113"><ele>385.3333333333333</ele><time>2026-05-01T12:58:04Z</time></trkpt><trkpt lat="43.19967069135039" lon="10.790804643013661"><ele>384.66666666666663</ele><time>2026-05-01T12:58:05Z</time></trkpt><trkpt lat="43.199526394138964" lon="10.790684308080971"><ele>384.0</ele><time>2026-05-01T12:58:06Z</time></trkpt><trkpt lat="43.19938691434013" lon="10.790570665064473"><ele>384.0</ele><time>2026-05-01T12:58:07Z</time></trkpt><trkpt lat="43.199253655475324" lon="10.79045590417009"><ele>384.0</ele><time>2026-05-01T12:58:08Z</time></trkpt><trkpt lat="43.19912760332337" lon="10.790335972273324"><ele>384.0</ele><time>2026-05-01T12:58:09Z</time></trkpt><trkpt lat="43.199013804364334" lon="10.790212495382105"><ele>384.0</ele><time>2026-05-01T12:58:10Z</time></trkpt><trkpt lat="43.19891304683979" lon="10.790094393969424"><ele>384.0</ele><time>2026-05-01T12:58:11Z</time></trkpt><trkpt lat="43.19882816592139" lon="10.78997005453181"><ele>384.0</ele><time>2026-05-01T12:58:12Z</time></trkpt><trkpt lat="43.198758898816926" lon="10.78984544749833"><ele>384.0</ele><time>2026-05-01T12:58:13Z</time></trkpt><trkpt lat="43.19868963964508" lon="10.789720609171301"><ele>384.0</ele><time>2026-05-01T12:58:14Z</time></trkpt><trkpt lat="43.19862433551138" lon="10.78959183457701"><ele>384.0</ele><time>2026-05-01T12:58:15Z</time></trkpt><trkpt lat="43.19855452967627" lon="10.789442545179575"><ele>384.0</ele><time>2026-05-01T12:58:16Z</time></trkpt><trkpt lat="43.19848642515735" lon="10.789273062073915"><ele>384.0</ele><time>2026-05-01T12:58:17Z</time></trkpt><trkpt lat="43.198425646943576" lon="10.789095395161892"><ele>385.75</ele><time>2026-05-01T12:58:18Z</time></trkpt><trkpt lat="43.198374335038146" lon="10.78891886263243"><ele>387.5</ele><time>2026-05-01T12:58:19Z</time></trkpt><trkpt lat="43.1983332376321" lon="10.788728992934956"><ele>389.25</ele><time>2026-05-01T12:58:20Z</time></trkpt><trkpt lat="43.19829642367392" lon="10.788517760362987"><ele>391.0</ele><time>2026-05-01T12:58:21Z</time></trkpt><trkpt lat="43.198263461341206" lon="10.78828640478827"><ele>393.0</ele><time>2026-05-01T12:58:22Z</time></trkpt><trkpt lat="43.198235370393874" lon="10.788057464519284"><ele>395.0</ele><time>2026-05-01T12:58:23Z</time></trkpt><trkpt lat="43.19822336370466" lon="10.787857313170857"><ele>397.0</ele><time>2026-05-01T12:58:24Z</time></trkpt><trkpt lat="43.198222782173545" lon="10.787657481773097"><ele>397.0</ele><time>2026-05-01T12:58:25Z</time></trkpt><trkpt lat="43.19820007819851" lon="10.787475541595878"><ele>397.0</ele><time>2026-05-01T12:58:26Z</time></trkpt><trkpt lat="43.19818825758484" lon="10.787296241909212"><ele>397.0</ele><time>2026-05-01T12:58:27Z</time></trkpt><trkpt lat="43.198179254925115" lon="10.787111007290925"><ele>397.0</ele><time>2026-05-01T12:58:28Z</time></trkpt><trkpt lat="43.19813948666683" lon="10.786929135507455"><ele>394.75</ele><time>2026-05-01T12:58:29Z</time></trkpt><trkpt lat="43.19808995240612" lon="10.786746199296738"><ele>392.5</ele><time>2026-05-01T12:58:30Z</time></trkpt><trkpt lat="43.198026206582846" lon="10.786562227315676"><ele>390.25</ele><time>2026-05-01T12:58:31Z</time></trkpt><trkpt lat="43.19794772660355" lon="10.786378520852718"><ele>388.0</ele><time>2026-05-01T12:58:32Z</time></trkpt><trkpt lat="43.19785633886861" lon="10.78619848367327"><ele>388.0</ele><time>2026-05-01T12:58:33Z</time></trkpt><trkpt lat="43.19775517412698" lon="10.786028648616876"><ele>388.0</ele><time>2026-05-01T12:58:34Z</time></trkpt><trkpt lat="43.19764502372607" lon="10.785869544408852"><ele>388.0</ele><time>2026-05-01T12:58:35Z</time></trkpt><trkpt lat="43.19752731725049" lon="10.785718896973838"><ele>387.6666666666667</ele><time>2026-05-01T12:58:36Z</time></trkpt><trkpt lat="43.19740987385709" lon="10.785576686704315"><ele>387.33333333333337</ele><time>2026-05-01T12:58:37Z</time></trkpt><trkpt lat="43.19729542149416" lon="10.785436566030464"><ele>387.0</ele><time>2026-05-01T12:58:38Z</time></trkpt><trkpt lat="43.19718288371969" lon="10.785295796629093"><ele>386.0</ele><time>2026-05-01T12:58:39Z</time></trkpt><trkpt lat="43.19707377733341" lon="10.785160540922075"><ele>385.0</ele><time>2026-05-01T12:58:40Z</time></trkpt><trkpt lat="43.19696309289362" lon="10.785023166626456"><ele>384.0</ele><time>2026-05-01T12:58:41Z</time></trkpt><trkpt lat="43.19685227585887" lon="10.784890304528243"><ele>383.0</ele><time>2026-05-01T12:58:42Z</time></trkpt><trkpt lat="43.19673804936129" lon="10.784761957055233"><ele>383.0</ele><time>2026-05-01T12:58:43Z</time></trkpt><trkpt lat="43.19662652600087" lon="10.784637249073668"><ele>383.0</ele><time>2026-05-01T12:58:44Z</time></trkpt><trkpt lat="43.19652523398678" lon="10.784513358225942"><ele>383.0</ele><time>2026-05-01T12:58:45Z</time></trkpt><trkpt lat="43.196429038458284" lon="10.784387760810402"><ele>383.0</ele><time>2026-05-01T12:58:46Z</time></trkpt><trkpt lat="43.19633151248203" lon="10.784256903535029"><ele>382.75</ele><time>2026-05-01T12:58:47Z</time></trkpt><trkpt lat="43.19622971922532" lon="10.784125472381833"><ele>382.5</ele><time>2026-05-01T12:58:48Z</time></trkpt><trkpt lat="43.196132984197305" lon="10.783985513159521"><ele>382.25</ele><time>2026-05-01T12:58:49Z</time></trkpt><trkpt lat="43.19604307762685" lon="10.783834985968813"><ele>382.0</ele><time>2026-05-01T12:58:50Z</time></trkpt><trkpt lat="43.19595136214655" lon="10.783681228827282"><ele>382.0</ele><time>2026-05-01T12:58:51Z</time></trkpt><trkpt lat="43.19585797604091" lon="10.783521168090227"><ele>382.0</ele><time>2026-05-01T12:58:52Z</time></trkpt><trkpt lat="43.1957641945002" lon="10.783359206115897"><ele>382.0</ele><time>2026-05-01T12:58:53Z</time></trkpt><trkpt lat="43.19566338504999" lon="10.783196419006426"><ele>381.0</ele><time>2026-05-01T12:58:54Z</time></trkpt><trkpt lat="43.19556432638248" lon="10.783037247945012"><ele>380.0</ele><time>2026-05-01T12:58:55Z</time></trkpt><trkpt lat="43.195465908323946" lon="10.782870815479628"><ele>379.0</ele><time>2026-05-01T12:58:56Z</time></trkpt><trkpt lat="43.1953690650712" lon="10.782695758361605"><ele>381.3333333333333</ele><time>2026-05-01T12:58:57Z</time></trkpt><trkpt lat="43.19526939407702" lon="10.782518488461108"><ele>383.66666666666663</ele><time>2026-05-01T12:58:58Z</time></trkpt><trkpt lat="43.19516274735025" lon="10.782347315965968"><ele>386.0</ele><time>2026-05-01T12:58:59Z</time></trkpt><trkpt lat="43.19505480967847" lon="10.782178713084313"><ele>386.0</ele><time>2026-05-01T12:59:00Z</time></trkpt><trkpt lat="43.194949402430446" lon="10.782001008648464"><ele>386.0</ele><time>2026-05-01T12:59:01Z</time></trkpt><trkpt lat="43.194850276981086" lon="10.781821929606453"><ele>386.0</ele><time>2026-05-01T12:59:02Z</time></trkpt><trkpt lat="43.19474613935444" lon="10.781649963407126"><ele>386.3333333333333</ele><time>2026-05-01T12:59:03Z</time></trkpt><trkpt lat="43.19463994371014" lon="10.781483601365546"><ele>386.66666666666663</ele><time>2026-05-01T12:59:04Z</time></trkpt><trkpt lat="43.194534663894714" lon="10.781315045329988"><ele>387.0</ele><time>2026-05-01T12:59:05Z</time></trkpt><trkpt lat="43.19444272516882" lon="10.781153133551795"><ele>388.75</ele><time>2026-05-01T12:59:06Z</time></trkpt><trkpt lat="43.194368787736984" lon="10.780989792933386"><ele>390.5</ele><time>2026-05-01T12:59:07Z</time></trkpt><trkpt lat="43.19430971372713" lon="10.780818993589037"><ele>392.25</ele><time>2026-05-01T12:59:08Z</time></trkpt><trkpt lat="43.19426016438616" lon="10.78064093808043"><ele>394.0</ele><time>2026-05-01T12:59:09Z</time></trkpt><trkpt lat="43.19423059706287" lon="10.780457644007425"><ele>394.0</ele><time>2026-05-01T12:59:10Z</time></trkpt><trkpt lat="43.19422094580438" lon="10.780262589559689"><ele>394.0</ele><time>2026-05-01T12:59:11Z</time></trkpt><trkpt lat="43.19422384755694" lon="10.780061790098218"><ele>394.0</ele><time>2026-05-01T12:59:12Z</time></trkpt><trkpt lat="43.19422804830798" lon="10.779866261947777"><ele>394.0</ele><time>2026-05-01T12:59:13Z</time></trkpt><trkpt lat="43.19423417570744" lon="10.779673744273893"><ele>394.0</ele><time>2026-05-01T12:59:14Z</time></trkpt><trkpt lat="43.19425553545769" lon="10.77949418392645"><ele>394.0</ele><time>2026-05-01T12:59:15Z</time></trkpt><trkpt lat="43.19429202636005" lon="10.77932344905594"><ele>394.0</ele><time>2026-05-01T12:59:16Z</time></trkpt><trkpt lat="43.1943488732266" lon="10.779154890986133"><ele>394.0</ele><time>2026-05-01T12:59:17.001Z</time></trkpt><trkpt lat="43.1944184476624" lon="10.778992955325817"><ele>394.0</ele><time>2026-05-01T12:59:18.001Z</time></trkpt><trkpt lat="43.19449440380238" lon="10.778836377938008"><ele>394.0</ele><time>2026-05-01T12:59:19.001Z</time></trkpt><trkpt lat="43.19457265067259" lon="10.778677685214495"><ele>394.0</ele><time>2026-05-01T12:59:20.001Z</time></trkpt><trkpt lat="43.194643071953564" lon="10.778513746171292"><ele>394.0</ele><time>2026-05-01T12:59:21.001Z</time></trkpt><trkpt lat="43.19469727522641" lon="10.778341222133617"><ele>393.25</ele><time>2026-05-01T12:59:22.001Z</time></trkpt><trkpt lat="43.19473084959172" lon="10.778159732174997"><ele>392.5</ele><time>2026-05-01T12:59:23.001Z</time></trkpt><trkpt lat="43.194747555197914" lon="10.777970672572899"><ele>391.75</ele><time>2026-05-01T12:59:24.001Z</time></trkpt><trkpt lat="43.19475415803423" lon="10.777773142477741"><ele>391.0</ele><time>2026-05-01T12:59:25.001Z</time></trkpt><trkpt lat="43.194753490251415" lon="10.777574365768501"><ele>391.0</ele><time>2026-05-01T12:59:26.001Z</time></trkpt><trkpt lat="43.19474032685451" lon="10.777375330883922"><ele>391.0</ele><time>2026-05-01T12:59:27.001Z</time></trkpt><trkpt lat="43.19471563225635" lon="10.777181839245783"><ele>391.0</ele><time>2026-05-01T12:59:28.001Z</time></trkpt><trkpt lat="43.194681039056626" lon="10.77699212243106"><ele>391.0</ele><time>2026-05-01T12:59:29.001Z</time></trkpt><trkpt lat="43.19464843508229" lon="10.776804279687264"><ele>392.25</ele><time>2026-05-01T12:59:30.001Z</time></trkpt><trkpt lat="43.19461532302909" lon="10.776617572444243"><ele>393.5</ele><time>2026-05-01T12:59:31.001Z</time></trkpt><trkpt lat="43.194574483264205" lon="10.776434178236652"><ele>394.75</ele><time>2026-05-01T12:59:32.001Z</time></trkpt><trkpt lat="43.19452774370066" lon="10.776253149951742"><ele>396.0</ele><time>2026-05-01T12:59:33.001Z</time></trkpt><trkpt lat="43.194472417419775" lon="10.776077427924054"><ele>396.25</ele><time>2026-05-01T12:59:34.001Z</time></trkpt><trkpt lat="43.194410383551514" lon="10.775902980242632"><ele>396.5</ele><time>2026-05-01T12:59:35.001Z</time></trkpt><trkpt lat="43.19433345277727" lon="10.775726006843902"><ele>396.75</ele><time>2026-05-01T12:59:36.001Z</time></trkpt><trkpt lat="43.194252509822896" lon="10.775550750092782"><ele>397.0</ele><time>2026-05-01T12:59:37.001Z</time></trkpt><trkpt lat="43.19416485028776" lon="10.775380289501843"><ele>397.0</ele><time>2026-05-01T12:59:38.001Z</time></trkpt><trkpt lat="43.19406749805738" lon="10.775221690354238"><ele>397.0</ele><time>2026-05-01T12:59:39.001Z</time></trkpt><trkpt lat="43.19396119559015" lon="10.775075183792813"><ele>397.0</ele><time>2026-05-01T12:59:40Z</time></trkpt><trkpt lat="43.1938664357552" lon="10.774918470269798"><ele>397.6666666666667</ele><time>2026-05-01T12:59:41Z</time></trkpt><trkpt lat="43.19379154755958" lon="10.77473903692786"><ele>398.33333333333337</ele><time>2026-05-01T12:59:42Z</time></trkpt><trkpt lat="43.19372557215854" lon="10.774541446929485"><ele>399.0</ele><time>2026-05-01T12:59:43Z</time></trkpt><trkpt lat="43.19366017707862" lon="10.774350419438866"><ele>399.0</ele><time>2026-05-01T12:59:44Z</time></trkpt><trkpt lat="43.193598629137526" lon="10.774173747583013"><ele>399.0</ele><time>2026-05-01T12:59:45Z</time></trkpt><trkpt lat="43.19354025186023" lon="10.77400862759539"><ele>399.0</ele><time>2026-05-01T12:59:46Z</time></trkpt><trkpt lat="43.19347936254686" lon="10.773847941701113"><ele>399.0</ele><time>2026-05-01T12:59:47Z</time></trkpt><trkpt lat="43.19342235040143" lon="10.773681612775924"><ele>400.0</ele><time>2026-05-01T12:59:48Z</time></trkpt><trkpt lat="43.19337311316458" lon="10.773502737876434"><ele>401.0</ele><time>2026-05-01T12:59:49Z</time></trkpt><trkpt lat="43.193333965887234" lon="10.773319781416573"><ele>402.0</ele><time>2026-05-01T12:59:50Z</time></trkpt><trkpt lat="43.19330466008608" lon="10.773141506071921"><ele>403.0</ele><time>2026-05-01T12:59:51Z</time></trkpt><trkpt lat="43.19328632188009" lon="10.772967167507485"><ele>403.0</ele><time>2026-05-01T12:59:52Z</time></trkpt><trkpt lat="43.19327859530283" lon="10.772792215788975"><ele>403.0</ele><time>2026-05-01T12:59:53Z</time></trkpt><trkpt lat="43.19327349407775" lon="10.772611196896968"><ele>403.0</ele><time>2026-05-01T12:59:54Z</time></trkpt><trkpt lat="43.19325106608027" lon="10.772420387278261"><ele>403.0</ele><time>2026-05-01T12:59:55Z</time></trkpt><trkpt lat="43.19320750257111" lon="10.772232307172317"><ele>404.25</ele><time>2026-05-01T12:59:56Z</time></trkpt><trkpt lat="43.19315490152236" lon="10.772035953034354"><ele>405.5</ele><time>2026-05-01T12:59:57Z</time></trkpt><trkpt lat="43.193097310257656" lon="10.771840040927513"><ele>406.75</ele><time>2026-05-01T12:59:58Z</time></trkpt><trkpt lat="43.193049614822584" lon="10.771663244977788"><ele>408.0</ele><time>2026-05-01T12:59:59Z</time></trkpt><trkpt lat="43.19300787038877" lon="10.771498872338064"><ele>409.0</ele><time>2026-05-01T13:00:00Z</time></trkpt><trkpt lat="43.19296416749292" lon="10.771347931476571"><ele>410.0</ele><time>2026-05-01T13:00:01Z</time></trkpt><trkpt lat="43.192907230175884" lon="10.77122015680685"><ele>411.0</ele><time>2026-05-01T13:00:02Z</time></trkpt><trkpt lat="43.1928273321721" lon="10.771128433115473"><ele>412.0</ele><time>2026-05-01T13:00:03Z</time></trkpt><trkpt lat="43.19273332820207" lon="10.771072059146372"><ele>413.0</ele><time>2026-05-01T13:00:04Z</time></trkpt><trkpt lat="43.19262679092504" lon="10.771031652059648"><ele>413.5</ele><time>2026-05-01T13:00:05Z</time></trkpt><trkpt lat="43.1925156896966" lon="10.770988218111546"><ele>414.0</ele><time>2026-05-01T13:00:06Z</time></trkpt><trkpt lat="43.192392131793376" lon="10.77094817596392"><ele>414.5</ele><time>2026-05-01T13:00:07Z</time></trkpt><trkpt lat="43.192270923173055" lon="10.770910663815386"><ele>415.0</ele><time>2026-05-01T13:00:08Z</time></trkpt><trkpt lat="43.19215118702652" lon="10.77084706673263"><ele>415.0</ele><time>2026-05-01T13:00:09Z</time></trkpt><trkpt lat="43.19205057056156" lon="10.770751215455416"><ele>415.0</ele><time>2026-05-01T13:00:10Z</time></trkpt><trkpt lat="43.19195698373875" lon="10.7706326137232"><ele>415.0</ele><time>2026-05-01T13:00:11Z</time></trkpt><trkpt lat="43.191874555828264" lon="10.770501433501746"><ele>415.0</ele><time>2026-05-01T13:00:12Z</time></trkpt><trkpt lat="43.191788207648266" lon="10.770361978619006"><ele>415.0</ele><time>2026-05-01T13:00:13Z</time></trkpt><trkpt lat="43.19169978994276" lon="10.770223537815587"><ele>415.0</ele><time>2026-05-01T13:00:14Z</time></trkpt><trkpt lat="43.19161383101352" lon="10.77008575023731"><ele>415.0</ele><time>2026-05-01T13:00:15Z</time></trkpt><trkpt lat="43.19152352832179" lon="10.769944079565485"><ele>415.0</ele><time>2026-05-01T13:00:16Z</time></trkpt><trkpt lat="43.19143685291839" lon="10.76979878045967"><ele>415.0</ele><time>2026-05-01T13:00:17Z</time></trkpt><trkpt lat="43.19135041522266" lon="10.769651659035313"><ele>415.0</ele><time>2026-05-01T13:00:18Z</time></trkpt><trkpt lat="43.19126040230067" lon="10.769512077813719"><ele>415.0</ele><time>2026-05-01T13:00:19Z</time></trkpt><trkpt lat="43.19117776653877" lon="10.769380119671125"><ele>415.0</ele><time>2026-05-01T13:00:20Z</time></trkpt><trkpt lat="43.19109322359943" lon="10.769245533359644"><ele>415.0</ele><time>2026-05-01T13:00:21Z</time></trkpt><trkpt lat="43.191007550307596" lon="10.76910543601611"><ele>415.0</ele><time>2026-05-01T13:00:22Z</time></trkpt><trkpt lat="43.19092574954749" lon="10.76897088077124"><ele>415.0</ele><time>2026-05-01T13:00:23Z</time></trkpt><trkpt lat="43.190843063777166" lon="10.768837164351215"><ele>415.0</ele><time>2026-05-01T13:00:24Z</time></trkpt><trkpt lat="43.190759036413475" lon="10.768703722457317"><ele>415.0</ele><time>2026-05-01T13:00:25Z</time></trkpt><trkpt lat="43.190676852326305" lon="10.768567377520439"><ele>415.0</ele><time>2026-05-01T13:00:26Z</time></trkpt><trkpt lat="43.19059487580736" lon="10.768430174132515"><ele>415.0</ele><time>2026-05-01T13:00:27Z</time></trkpt><trkpt lat="43.190508209476164" lon="10.768297852585631"><ele>415.0</ele><time>2026-05-01T13:00:28Z</time></trkpt><trkpt lat="43.19041816188995" lon="10.768165809305652"><ele>415.25</ele><time>2026-05-01T13:00:29Z</time></trkpt><trkpt lat="43.19032768190942" lon="10.768029771869394"><ele>415.5</ele><time>2026-05-01T13:00:30Z</time></trkpt><trkpt lat="43.1902413041278" lon="10.767889805609661"><ele>415.75</ele><time>2026-05-01T13:00:31Z</time></trkpt><trkpt lat="43.19016449756448" lon="10.767761078467991"><ele>416.0</ele><time>2026-05-01T13:00:32Z</time></trkpt><trkpt lat="43.19009315414148" lon="10.767634986982074"><ele>416.0</ele><time>2026-05-01T13:00:33Z</time></trkpt><trkpt lat="43.19004742979987" lon="10.76749871744858"><ele>416.0</ele><time>2026-05-01T13:00:34Z</time></trkpt><trkpt lat="43.19002243873214" lon="10.767344114396321"><ele>416.0</ele><time>2026-05-01T13:00:35Z</time></trkpt><trkpt lat="43.19000336526379" lon="10.767174159004632"><ele>416.0</ele><time>2026-05-01T13:00:36Z</time></trkpt><trkpt lat="43.18999766138577" lon="10.766990220481546"><ele>415.75</ele><time>2026-05-01T13:00:37Z</time></trkpt><trkpt lat="43.190015798109805" lon="10.766818062201805"><ele>415.5</ele><time>2026-05-01T13:00:38Z</time></trkpt><trkpt lat="43.190048736611075" lon="10.76666336396185"><ele>415.25</ele><time>2026-05-01T13:00:39Z</time></trkpt><trkpt lat="43.19008764841105" lon="10.766503308900331"><ele>415.0</ele><time>2026-05-01T13:00:40Z</time></trkpt><trkpt lat="43.19012521528581" lon="10.766337107512404"><ele>415.0</ele><time>2026-05-01T13:00:41Z</time></trkpt><trkpt lat="43.19015990039466" lon="10.766167458375733"><ele>415.0</ele><time>2026-05-01T13:00:42Z</time></trkpt><trkpt lat="43.1901987061436" lon="10.765994169518743"><ele>415.0</ele><time>2026-05-01T13:00:43Z</time></trkpt><trkpt lat="43.19024321766343" lon="10.765816246711534"><ele>415.0</ele><time>2026-05-01T13:00:44Z</time></trkpt><trkpt lat="43.19028618065308" lon="10.765633925700111"><ele>414.25</ele><time>2026-05-01T13:00:45Z</time></trkpt><trkpt lat="43.19032583489719" lon="10.765443437701238"><ele>413.5</ele><time>2026-05-01T13:00:46Z</time></trkpt><trkpt lat="43.19036699511214" lon="10.76525280457607"><ele>412.75</ele><time>2026-05-01T13:00:47Z</time></trkpt><trkpt lat="43.19041040299843" lon="10.76507442164186"><ele>412.0</ele><time>2026-05-01T13:00:48Z</time></trkpt><trkpt lat="43.19045541293064" lon="10.764909370269105"><ele>411.40000000000003</ele><time>2026-05-01T13:00:49Z</time></trkpt><trkpt lat="43.190504730665005" lon="10.764758253682489"><ele>410.8</ele><time>2026-05-01T13:00:50Z</time></trkpt><trkpt lat="43.190557331841674" lon="10.764623694006096"><ele>410.2</ele><time>2026-05-01T13:00:51Z</time></trkpt><trkpt lat="43.19061445621559" lon="10.764504415216434"><ele>409.6</ele><time>2026-05-01T13:00:52Z</time></trkpt><trkpt lat="43.19067182792803" lon="10.764395926646353"><ele>409.0</ele><time>2026-05-01T13:00:53Z</time></trkpt><trkpt lat="43.1907056409795" lon="10.764278381615414"><ele>409.00000000000006</ele><time>2026-05-01T13:00:54Z</time></trkpt><trkpt lat="43.19074194384159" lon="10.764182734283544"><ele>409.0</ele><time>2026-05-01T13:00:55Z</time></trkpt><trkpt lat="43.19077073955982" lon="10.764105699719536"><ele>409.0</ele><time>2026-05-01T13:00:56Z</time></trkpt><trkpt lat="43.190799886636405" lon="10.764001914957348"><ele>409.0</ele><time>2026-05-01T13:00:58Z</time></trkpt><trkpt lat="43.19091040781867" lon="10.764021533331656"><ele>409.00000000000006</ele><time>2026-05-01T13:00:59Z</time></trkpt><trkpt lat="43.190841328686446" lon="10.76394940403094"><ele>409.0</ele><time>2026-05-01T13:02:37Z</time></trkpt><trkpt lat="43.19083751828552" lon="10.763852646832477"><ele>409.00000000000006</ele><time>2026-05-01T13:02:38Z</time></trkpt><trkpt lat="43.19083962147868" lon="10.763748049009605"><ele>409.0</ele><time>2026-05-01T13:02:39Z</time></trkpt><trkpt lat="43.19084310864125" lon="10.763631881552806"><ele>409.0</ele><time>2026-05-01T13:02:40Z</time></trkpt><trkpt lat="43.190841382605505" lon="10.763518475894418"><ele>409.0</ele><time>2026-05-01T13:02:41Z</time></trkpt><trkpt lat="43.19083499983225" lon="10.763390620390194"><ele>409.00000000000006</ele><time>2026-05-01T13:02:42Z</time></trkpt><trkpt lat="43.1908402796189" lon="10.763251000716545"><ele>409.0</ele><time>2026-05-01T13:02:43Z</time></trkpt><trkpt lat="43.19086960376049" lon="10.763136035018688"><ele>409.2</ele><time>2026-05-01T13:02:44Z</time></trkpt><trkpt lat="43.19092106716189" lon="10.763033059679675"><ele>409.4</ele><time>2026-05-01T13:02:45Z</time></trkpt><trkpt lat="43.19099989024514" lon="10.76293737760247"><ele>409.6</ele><time>2026-05-01T13:02:46Z</time></trkpt><trkpt lat="43.19109372449402" lon="10.762835758849107"><ele>409.8</ele><time>2026-05-01T13:02:47Z</time></trkpt><trkpt lat="43.19115783372575" lon="10.762729363578558"><ele>410.0</ele><time>2026-05-01T13:02:48Z</time></trkpt><trkpt lat="43.19118859773694" lon="10.76262501027594"><ele>408.8333333333333</ele><time>2026-05-01T13:02:49Z</time></trkpt><trkpt lat="43.19120491926275" lon="10.76253692082142"><ele>407.66666666666663</ele><time>2026-05-01T13:02:50Z</time></trkpt><trkpt lat="43.19122164432082" lon="10.762451491283763"><ele>406.5</ele><time>2026-05-01T13:02:51Z</time></trkpt><trkpt lat="43.19124122508438" lon="10.76234122205378"><ele>405.33333333333337</ele><time>2026-05-01T13:02:52Z</time></trkpt><trkpt lat="43.19126424678471" lon="10.762222603292601"><ele>404.1666666666667</ele><time>2026-05-01T13:02:53Z</time></trkpt><trkpt lat="43.19129159702073" lon="10.762116395758834"><ele>403.0</ele><time>2026-05-01T13:02:54Z</time></trkpt><trkpt lat="43.19132099134032" lon="10.762021452550774"><ele>403.00000000000006</ele><time>2026-05-01T13:02:55Z</time></trkpt><trkpt lat="43.19135710394064" lon="10.76192163963348"><ele>403.0</ele><time>2026-05-01T13:02:56Z</time></trkpt><trkpt lat="43.19140838493633" lon="10.761840952515191"><ele>403.0</ele><time>2026-05-01T13:02:57Z</time></trkpt><trkpt lat="43.19147398735848" lon="10.761773186572777"><ele>403.0</ele><time>2026-05-01T13:02:58Z</time></trkpt><trkpt lat="43.19155485025447" lon="10.761717848376191"><ele>403.00000000000006</ele><time>2026-05-01T13:02:59Z</time></trkpt><trkpt lat="43.19163498899117" lon="10.761663051455132"><ele>403.0</ele><time>2026-05-01T13:03:00Z</time></trkpt><trkpt lat="43.19171123160726" lon="10.761610069013562"><ele>404.00000000000006</ele><time>2026-05-01T13:03:01Z</time></trkpt><trkpt lat="43.19178538089942" lon="10.761563300598043"><ele>405.0</ele><time>2026-05-01T13:03:02Z</time></trkpt><trkpt lat="43.19185654359774" lon="10.761520712920428"><ele>406.0</ele><time>2026-05-01T13:03:03Z</time></trkpt><trkpt lat="43.19192506810743" lon="10.761478072231306"><ele>407.0</ele><time>2026-05-01T13:03:04Z</time></trkpt><trkpt lat="43.192002911076166" lon="10.761421733564896"><ele>408.00000000000006</ele><time>2026-05-01T13:03:05Z</time></trkpt><trkpt lat="43.192088122745055" lon="10.761362517799899"><ele>409.0</ele><time>2026-05-01T13:03:06Z</time></trkpt><trkpt lat="43.19217068467928" lon="10.761296404321541"><ele>409.0</ele><time>2026-05-01T13:03:07Z</time></trkpt><trkpt lat="43.19224343835538" lon="10.76121961735023"><ele>409.0</ele><time>2026-05-01T13:03:08Z</time></trkpt><trkpt lat="43.19230257893763" lon="10.761117370157345"><ele>409.0</ele><time>2026-05-01T13:03:09Z</time></trkpt><trkpt lat="43.19234747080136" lon="10.760977721757405"><ele>409.0</ele><time>2026-05-01T13:03:10Z</time></trkpt><trkpt lat="43.19236765805664" lon="10.76081615311935"><ele>409.0</ele><time>2026-05-01T13:03:11Z</time></trkpt><trkpt lat="43.19237548233423" lon="10.760636505520814"><ele>408.4</ele><time>2026-05-01T13:03:12Z</time></trkpt><trkpt lat="43.19238383428628" lon="10.760476933651226"><ele>407.79999999999995</ele><time>2026-05-01T13:03:13Z</time></trkpt><trkpt lat="43.1924148895863" lon="10.760336774348906"><ele>407.20000000000005</ele><time>2026-05-01T13:03:14Z</time></trkpt><trkpt lat="43.192467525200094" lon="10.760206428973685"><ele>406.6</ele><time>2026-05-01T13:03:15Z</time></trkpt><trkpt lat="43.192523765792174" lon="10.760081073537421"><ele>406.0</ele><time>2026-05-01T13:03:16Z</time></trkpt><trkpt lat="43.19257509451667" lon="10.759957576938517"><ele>404.6</ele><time>2026-05-01T13:03:17Z</time></trkpt><trkpt lat="43.19262909751588" lon="10.759836173525553"><ele>403.20000000000005</ele><time>2026-05-01T13:03:18Z</time></trkpt><trkpt lat="43.19268986112738" lon="10.75972546406306"><ele>401.79999999999995</ele><time>2026-05-01T13:03:19Z</time></trkpt><trkpt lat="43.192747209181654" lon="10.759617508359483"><ele>400.4</ele><time>2026-05-01T13:03:20Z</time></trkpt><trkpt lat="43.192798956196064" lon="10.759499163963492"><ele>399.0</ele><time>2026-05-01T13:03:21Z</time></trkpt><trkpt lat="43.19283590785717" lon="10.75937480813344"><ele>397.0</ele><time>2026-05-01T13:03:22Z</time></trkpt><trkpt lat="43.19284993210921" lon="10.759250077453613"><ele>395.0</ele><time>2026-05-01T13:03:23Z</time></trkpt><trkpt lat="43.19284375482109" lon="10.759121567578601"><ele>393.0</ele><time>2026-05-01T13:03:24Z</time></trkpt><trkpt lat="43.19282778053216" lon="10.759000634512955"><ele>391.0</ele><time>2026-05-01T13:03:25Z</time></trkpt><trkpt lat="43.19281508290516" lon="10.758881742552452"><ele>389.0</ele><time>2026-05-01T13:03:26Z</time></trkpt><trkpt lat="43.19279873974028" lon="10.758748590243014"><ele>389.0</ele><time>2026-05-01T13:03:27Z</time></trkpt><trkpt lat="43.19278330463439" lon="10.758598848890779"><ele>389.0</ele><time>2026-05-01T13:03:28Z</time></trkpt><trkpt lat="43.192778109652394" lon="10.75845727034105"><ele>389.0</ele><time>2026-05-01T13:03:29Z</time></trkpt><trkpt lat="43.1927876524429" lon="10.758323070892699"><ele>389.0</ele><time>2026-05-01T13:03:30Z</time></trkpt><trkpt lat="43.19281530909813" lon="10.758195156845353"><ele>389.0</ele><time>2026-05-01T13:03:31Z</time></trkpt><trkpt lat="43.19285784642518" lon="10.758079267283842"><ele>388.3333333333333</ele><time>2026-05-01T13:03:32Z</time></trkpt><trkpt lat="43.19290445203573" lon="10.757971959470682"><ele>387.66666666666663</ele><time>2026-05-01T13:03:33Z</time></trkpt><trkpt lat="43.19294459254901" lon="10.757865027399673"><ele>387.0</ele><time>2026-05-01T13:03:34Z</time></trkpt><trkpt lat="43.19297223020922" lon="10.757755488655228"><ele>386.33333333333337</ele><time>2026-05-01T13:03:35Z</time></trkpt><trkpt lat="43.1929901691891" lon="10.757635526385581"><ele>385.6666666666667</ele><time>2026-05-01T13:03:36Z</time></trkpt><trkpt lat="43.19298899015165" lon="10.757508358385444"><ele>385.0</ele><time>2026-05-01T13:03:37Z</time></trkpt><trkpt lat="43.1929768844306" lon="10.757389125333734"><ele>383.4</ele><time>2026-05-01T13:03:38Z</time></trkpt><trkpt lat="43.19296335583367" lon="10.75727568289588"><ele>381.8</ele><time>2026-05-01T13:03:39Z</time></trkpt><trkpt lat="43.19294948863812" lon="10.757153651717836"><ele>380.20000000000005</ele><time>2026-05-01T13:03:40Z</time></trkpt><trkpt lat="43.19293708771256" lon="10.757025695634796"><ele>378.6</ele><time>2026-05-01T13:03:41Z</time></trkpt><trkpt lat="43.19292285730154" lon="10.756886931585637"><ele>377.0</ele><time>2026-05-01T13:03:42Z</time></trkpt><trkpt lat="43.19290906675284" lon="10.756757744429777"><ele>376.6</ele><time>2026-05-01T13:03:43Z</time></trkpt><trkpt lat="43.19289054136013" lon="10.756634636676218"><ele>376.20000000000005</ele><time>2026-05-01T13:03:44Z</time></trkpt><trkpt lat="43.192871485145425" lon="10.756514491088849"><ele>375.8</ele><time>2026-05-01T13:03:45Z</time></trkpt><trkpt lat="43.192856025964154" lon="10.756396219280012"><ele>375.4</ele><time>2026-05-01T13:03:46Z</time></trkpt><trkpt lat="43.19283964728662" lon="10.756266645268806"><ele>375.0</ele><time>2026-05-01T13:03:47Z</time></trkpt><trkpt lat="43.19283330934808" lon="10.756122028716582"><ele>375.0</ele><time>2026-05-01T13:03:48Z</time></trkpt><trkpt lat="43.19282052596893" lon="10.755971478746117"><ele>375.0</ele><time>2026-05-01T13:03:49Z</time></trkpt><trkpt lat="43.19282234468491" lon="10.755830469141594"><ele>375.0</ele><time>2026-05-01T13:03:50Z</time></trkpt><trkpt lat="43.19283309628442" lon="10.75569085863278"><ele>375.0</ele><time>2026-05-01T13:03:51Z</time></trkpt><trkpt lat="43.1928363061068" lon="10.755547890989831"><ele>375.0</ele><time>2026-05-01T13:03:52Z</time></trkpt><trkpt lat="43.19282878521738" lon="10.755420124710312"><ele>375.0</ele><time>2026-05-01T13:03:53Z</time></trkpt><trkpt lat="43.19279186611742" lon="10.755325066108378"><ele>375.0</ele><time>2026-05-01T13:03:54Z</time></trkpt><trkpt lat="43.19273641255394" lon="10.755219174359839"><ele>375.0</ele><time>2026-05-01T13:03:56Z</time></trkpt><trkpt lat="43.192644132662736" lon="10.755168867067377"><ele>375.0</ele><time>2026-05-01T13:05:01Z</time></trkpt><trkpt lat="43.19251813029256" lon="10.755111358424184"><ele>375.0</ele><time>2026-05-01T13:05:03Z</time></trkpt><trkpt lat="43.19242361441714" lon="10.755076992516093"><ele>372.2</ele><time>2026-05-01T13:05:04Z</time></trkpt><trkpt lat="43.192324161889616" lon="10.755033821770489"><ele>369.4</ele><time>2026-05-01T13:05:05Z</time></trkpt><trkpt lat="43.19222946583811" lon="10.75498407113529"><ele>366.6</ele><time>2026-05-01T13:05:06Z</time></trkpt><trkpt lat="43.192143880178996" lon="10.754917070418031"><ele>363.8</ele><time>2026-05-01T13:05:07Z</time></trkpt><trkpt lat="43.19207157217097" lon="10.754823293184389"><ele>361.0</ele><time>2026-05-01T13:05:08Z</time></trkpt><trkpt lat="43.19202230939047" lon="10.75471385327724"><ele>361.0</ele><time>2026-05-01T13:05:09Z</time></trkpt><trkpt lat="43.191991952923836" lon="10.75459091600844"><ele>361.0</ele><time>2026-05-01T13:05:10Z</time></trkpt><trkpt lat="43.19197950445896" lon="10.754466236356325"><ele>361.0</ele><time>2026-05-01T13:05:11Z</time></trkpt><trkpt lat="43.1919949519455" lon="10.754343654830018"><ele>361.0</ele><time>2026-05-01T13:05:12Z</time></trkpt><trkpt lat="43.1920366911038" lon="10.754220725772552"><ele>361.0</ele><time>2026-05-01T13:05:13Z</time></trkpt><trkpt lat="43.1921133822295" lon="10.75408450564516"><ele>360.20000000000005</ele><time>2026-05-01T13:05:14Z</time></trkpt><trkpt lat="43.19218368642159" lon="10.753943027184189"><ele>359.40000000000003</ele><time>2026-05-01T13:05:15Z</time></trkpt><trkpt lat="43.192236752463025" lon="10.753811095750208"><ele>358.6</ele><time>2026-05-01T13:05:16Z</time></trkpt><trkpt lat="43.19227495067408" lon="10.753689288229376"><ele>357.8</ele><time>2026-05-01T13:05:17Z</time></trkpt><trkpt lat="43.19229213719676" lon="10.753589239045219"><ele>357.0</ele><time>2026-05-01T13:05:18Z</time></trkpt><trkpt lat="43.192319158293614" lon="10.75347495843272"><ele>358.6</ele><time>2026-05-01T13:05:19Z</time></trkpt><trkpt lat="43.19236449888609" lon="10.753330356508922"><ele>360.20000000000005</ele><time>2026-05-01T13:05:20Z</time></trkpt><trkpt lat="43.1924228630298" lon="10.753213709237379"><ele>361.8</ele><time>2026-05-01T13:05:21Z</time></trkpt><trkpt lat="43.19247687465466" lon="10.753103413033962"><ele>363.4</ele><time>2026-05-01T13:05:22Z</time></trkpt><trkpt lat="43.19252613815962" lon="10.752988407319975"><ele>365.0</ele><time>2026-05-01T13:05:23Z</time></trkpt><trkpt lat="43.19256243668851" lon="10.752868761730594"><ele>365.0</ele><time>2026-05-01T13:05:24Z</time></trkpt><trkpt lat="43.192585238124025" lon="10.752755974356994"><ele>365.0</ele><time>2026-05-01T13:05:25Z</time></trkpt><trkpt lat="43.19260231377803" lon="10.752643375585293"><ele>365.0</ele><time>2026-05-01T13:05:26Z</time></trkpt><trkpt lat="43.192615180739374" lon="10.752534581585955"><ele>365.0</ele><time>2026-05-01T13:05:27Z</time></trkpt><trkpt lat="43.19262781402071" lon="10.752412114517796"><ele>365.0</ele><time>2026-05-01T13:05:28Z</time></trkpt><trkpt lat="43.1926265793682" lon="10.752277754000067"><ele>365.0</ele><time>2026-05-01T13:05:29Z</time></trkpt><trkpt lat="43.19261588927271" lon="10.752149405441068"><ele>363.4</ele><time>2026-05-01T13:05:30Z</time></trkpt><trkpt lat="43.192620555460216" lon="10.751994553945751"><ele>361.8</ele><time>2026-05-01T13:05:31Z</time></trkpt><trkpt lat="43.1926293021886" lon="10.751887249333135"><ele>360.20000000000005</ele><time>2026-05-01T13:05:32Z</time></trkpt><trkpt lat="43.19267286057629" lon="10.751780234386692"><ele>358.6</ele><time>2026-05-01T13:05:33Z</time></trkpt><trkpt lat="43.19274705648229" lon="10.751713759729373"><ele>357.0</ele><time>2026-05-01T13:05:34Z</time></trkpt><trkpt lat="43.19283839390457" lon="10.75168284289267"><ele>357.25</ele><time>2026-05-01T13:05:35Z</time></trkpt><trkpt lat="43.192963992810206" lon="10.751722627730238"><ele>357.5</ele><time>2026-05-01T13:05:36Z</time></trkpt><trkpt lat="43.19307960125602" lon="10.751692257241466"><ele>357.75</ele><time>2026-05-01T13:05:37Z</time></trkpt><trkpt lat="43.19318190171754" lon="10.751629367688992"><ele>358.0</ele><time>2026-05-01T13:05:38Z</time></trkpt><trkpt lat="43.19324346513926" lon="10.751485291522362"><ele>358.0</ele><time>2026-05-01T13:05:39Z</time></trkpt><trkpt lat="43.1933145802815" lon="10.751324877183935"><ele>358.0</ele><time>2026-05-01T13:05:40Z</time></trkpt><trkpt lat="43.19338552883933" lon="10.751171292620784"><ele>358.0</ele><time>2026-05-01T13:05:41Z</time></trkpt><trkpt lat="43.19345531506918" lon="10.751035621551052"><ele>358.0</ele><time>2026-05-01T13:05:42Z</time></trkpt><trkpt lat="43.19351042662302" lon="10.750903482970783"><ele>356.5</ele><time>2026-05-01T13:05:43Z</time></trkpt><trkpt lat="43.19354177713882" lon="10.750798817982282"><ele>355.0</ele><time>2026-05-01T13:05:44Z</time></trkpt><trkpt lat="43.19355345579284" lon="10.750663114221826"><ele>353.5</ele><time>2026-05-01T13:05:46Z</time></trkpt><trkpt lat="43.19362859168232" lon="10.750608613704378"><ele>352.0</ele><time>2026-05-01T13:07:48Z</time></trkpt><trkpt lat="43.19369052246937" lon="10.750633090739512"><ele>350.5</ele><time>2026-05-01T13:07:49Z</time></trkpt><trkpt lat="43.19375245255797" lon="10.75066256249827"><ele>349.0</ele><time>2026-05-01T13:07:50Z</time></trkpt><trkpt lat="43.1938364304274" lon="10.750678327538605"><ele>349.0</ele><time>2026-05-01T13:07:51Z</time></trkpt><trkpt lat="43.193930653058125" lon="10.750668135920856"><ele>349.0</ele><time>2026-05-01T13:07:52Z</time></trkpt><trkpt lat="43.1940312777949" lon="10.750620976866008"><ele>349.0</ele><time>2026-05-01T13:07:53Z</time></trkpt><trkpt lat="43.19412576622685" lon="10.75053995831542"><ele>349.0</ele><time>2026-05-01T13:07:54Z</time></trkpt><trkpt lat="43.19422852888031" lon="10.750446733396974"><ele>349.0</ele><time>2026-05-01T13:07:55Z</time></trkpt><trkpt lat="43.19434084296919" lon="10.750359353972165"><ele>350.5</ele><time>2026-05-01T13:07:56Z</time></trkpt><trkpt lat="43.19446878937358" lon="10.750271969093378"><ele>352.0</ele><time>2026-05-01T13:07:57Z</time></trkpt><trkpt lat="43.194595960311936" lon="10.750193604260538"><ele>353.5</ele><time>2026-05-01T13:07:58Z</time></trkpt><trkpt lat="43.194713498232886" lon="10.750113290315388"><ele>355.0</ele><time>2026-05-01T13:07:59Z</time></trkpt><trkpt lat="43.19480594610132" lon="10.750040996248089"><ele>359.0</ele><time>2026-05-01T13:08:00Z</time></trkpt><trkpt lat="43.19488035273616" lon="10.749964593740183"><ele>363.0</ele><time>2026-05-01T13:08:01Z</time></trkpt><trkpt lat="43.194933735174786" lon="10.749873447281532"><ele>367.0</ele><time>2026-05-01T13:08:02Z</time></trkpt><trkpt lat="43.19496087326361" lon="10.749754800224597"><ele>371.0</ele><time>2026-05-01T13:08:03Z</time></trkpt><trkpt lat="43.194980252648875" lon="10.74961974210145"><ele>375.0</ele><time>2026-05-01T13:08:04Z</time></trkpt><trkpt lat="43.1950030848292" lon="10.749501077876198"><ele>375.0</ele><time>2026-05-01T13:08:05Z</time></trkpt><trkpt lat="43.19504987744876" lon="10.749375613753676"><ele>375.0</ele><time>2026-05-01T13:08:06Z</time></trkpt><trkpt lat="43.19511359508182" lon="10.749257591896306"><ele>375.0</ele><time>2026-05-01T13:08:07Z</time></trkpt><trkpt lat="43.19517804989196" lon="10.74914503340931"><ele>375.0</ele><time>2026-05-01T13:08:08Z</time></trkpt><trkpt lat="43.195231914063115" lon="10.749055063559867"><ele>375.0</ele><time>2026-05-01T13:08:09Z</time></trkpt><trkpt lat="43.19528033710743" lon="10.748972681240165"><ele>373.8571428571429</ele><time>2026-05-01T13:08:10Z</time></trkpt><trkpt lat="43.19532232231595" lon="10.748894007857546"><ele>372.71428571428567</ele><time>2026-05-01T13:08:11Z</time></trkpt><trkpt lat="43.195372223682305" lon="10.748811116012885"><ele>371.57142857142856</ele><time>2026-05-01T13:08:13Z</time></trkpt><trkpt lat="43.19543644422565" lon="10.748806903263253"><ele>370.42857142857144</ele><time>2026-05-01T13:08:25Z</time></trkpt><trkpt lat="43.19552404098238" lon="10.748826190293004"><ele>369.28571428571433</ele><time>2026-05-01T13:08:27Z</time></trkpt><trkpt lat="43.195593668580045" lon="10.748810018542917"><ele>368.1428571428571</ele><time>2026-05-01T13:08:29Z</time></trkpt><trkpt lat="43.19565862178864" lon="10.748799282058807"><ele>367.0</ele><time>2026-05-01T13:09:41Z</time></trkpt><trkpt lat="43.19558528796982" lon="10.748821901242014"><ele>367.0</ele><time>2026-05-01T13:09:45Z</time></trkpt><trkpt lat="43.19548235787289" lon="10.748818030693267"><ele>367.0</ele><time>2026-05-01T13:09:47Z</time></trkpt><trkpt lat="43.19541621767198" lon="10.748807169961706"><ele>367.0</ele><time>2026-05-01T13:09:49Z</time></trkpt><trkpt lat="43.19530308517756" lon="10.748917943847278"><ele>367.0</ele><time>2026-05-01T13:09:52Z</time></trkpt><trkpt lat="43.19524072085736" lon="10.749008154844365"><ele>367.0</ele><time>2026-05-01T13:09:53Z</time></trkpt><trkpt lat="43.19517040283861" lon="10.749131585143445"><ele>367.0</ele><time>2026-05-01T13:09:54Z</time></trkpt><trkpt lat="43.195094485216835" lon="10.749268647411501"><ele>367.0</ele><time>2026-05-01T13:09:55Z</time></trkpt><trkpt lat="43.19504475225691" lon="10.749388075381244"><ele>367.0</ele><time>2026-05-01T13:09:56Z</time></trkpt><trkpt lat="43.194986924795685" lon="10.74951554468152"><ele>367.0</ele><time>2026-05-01T13:09:57Z</time></trkpt><trkpt lat="43.19495796394765" lon="10.749645503063253"><ele>367.0</ele><time>2026-05-01T13:09:58Z</time></trkpt><trkpt lat="43.19494205565103" lon="10.749776812972613"><ele>368.6</ele><time>2026-05-01T13:09:59Z</time></trkpt><trkpt lat="43.19491501948901" lon="10.749890197308478"><ele>370.20000000000005</ele><time>2026-05-01T13:10:00Z</time></trkpt><trkpt lat="43.1948499462484" lon="10.749984640437507"><ele>371.8</ele><time>2026-05-01T13:10:01Z</time></trkpt><trkpt lat="43.19476547272146" lon="10.750048728963451"><ele>373.4</ele><time>2026-05-01T13:10:02Z</time></trkpt><trkpt lat="43.19466473866297" lon="10.750123769134731"><ele>375.0</ele><time>2026-05-01T13:10:03Z</time></trkpt><trkpt lat="43.194546498649245" lon="10.75019945824369"><ele>372.25</ele><time>2026-05-01T13:10:04Z</time></trkpt><trkpt lat="43.19441804508806" lon="10.75028627361878"><ele>369.5</ele><time>2026-05-01T13:10:05Z</time></trkpt><trkpt lat="43.19429726361912" lon="10.7503754672624"><ele>366.75</ele><time>2026-05-01T13:10:06Z</time></trkpt><trkpt lat="43.19418234629912" lon="10.750460194764434"><ele>364.0</ele><time>2026-05-01T13:10:07Z</time></trkpt><trkpt lat="43.19407535597965" lon="10.75053428321543"><ele>361.5</ele><time>2026-05-01T13:10:08Z</time></trkpt><trkpt lat="43.19398049315131" lon="10.750589750024826"><ele>359.0</ele><time>2026-05-01T13:10:09Z</time></trkpt><trkpt lat="43.19388797776538" lon="10.750630599166776"><ele>356.5</ele><time>2026-05-01T13:10:10Z</time></trkpt><trkpt lat="43.19379651722509" lon="10.750640467256941"><ele>354.0</ele><time>2026-05-01T13:10:11Z</time></trkpt><trkpt lat="43.193719508890005" lon="10.750624842868941"><ele>351.5</ele><time>2026-05-01T13:10:12Z</time></trkpt><trkpt lat="43.19365156547546" lon="10.750590590788963"><ele>349.0</ele><time>2026-05-01T13:10:13Z</time></trkpt><trkpt lat="43.193559880354876" lon="10.750550746768766"><ele>349.0</ele><time>2026-05-01T13:10:15Z</time></trkpt><trkpt lat="43.19345119022586" lon="10.750515710734732"><ele>349.0</ele><time>2026-05-01T13:10:49Z</time></trkpt><trkpt lat="43.19339259177945" lon="10.750442519500611"><ele>349.0</ele><time>2026-05-01T13:10:50Z</time></trkpt><trkpt lat="43.19332319823981" lon="10.750355424071223"><ele>349.0</ele><time>2026-05-01T13:10:51Z</time></trkpt><trkpt lat="43.193245690238975" lon="10.750266030376077"><ele>349.0</ele><time>2026-05-01T13:10:52Z</time></trkpt><trkpt lat="43.193162346082126" lon="10.750175851977671"><ele>348.0</ele><time>2026-05-01T13:10:53Z</time></trkpt><trkpt lat="43.19307348329104" lon="10.750081476573305"><ele>347.0</ele><time>2026-05-01T13:10:54Z</time></trkpt><trkpt lat="43.192985363727445" lon="10.749981432662262"><ele>346.0</ele><time>2026-05-01T13:10:55Z</time></trkpt><trkpt lat="43.19290733431558" lon="10.749884347086407"><ele>345.0</ele><time>2026-05-01T13:10:56Z</time></trkpt><trkpt lat="43.19283158834435" lon="10.749797851547521"><ele>344.0</ele><time>2026-05-01T13:10:57Z</time></trkpt><trkpt lat="43.192755299167416" lon="10.74971010615411"><ele>344.0</ele><time>2026-05-01T13:10:58Z</time></trkpt><trkpt lat="43.19268154988933" lon="10.749625719358592"><ele>344.0</ele><time>2026-05-01T13:10:59Z</time></trkpt><trkpt lat="43.19261922980691" lon="10.749534990249668"><ele>344.0</ele><time>2026-05-01T13:11:00Z</time></trkpt><trkpt lat="43.19257263059265" lon="10.749431014563113"><ele>344.0</ele><time>2026-05-01T13:11:01Z</time></trkpt><trkpt lat="43.1925527373058" lon="10.74931187614522"><ele>344.0</ele><time>2026-05-01T13:11:02Z</time></trkpt><trkpt lat="43.192556672825155" lon="10.74919921357259"><ele>344.0</ele><time>2026-05-01T13:11:03Z</time></trkpt><trkpt lat="43.192562666643724" lon="10.749075870442784"><ele>342.75</ele><time>2026-05-01T13:11:04Z</time></trkpt><trkpt lat="43.19254688986479" lon="10.748938129378798"><ele>341.5</ele><time>2026-05-01T13:11:05Z</time></trkpt><trkpt lat="43.19253940913961" lon="10.74878047459038"><ele>340.25</ele><time>2026-05-01T13:11:06Z</time></trkpt><trkpt lat="43.19253858847701" lon="10.74860907594228"><ele>339.0</ele><time>2026-05-01T13:11:07Z</time></trkpt><trkpt lat="43.19253458689223" lon="10.748457992674771"><ele>338.79999999999995</ele><time>2026-05-01T13:11:08Z</time></trkpt><trkpt lat="43.192535652376755" lon="10.748308365189947"><ele>338.59999999999997</ele><time>2026-05-01T13:11:09Z</time></trkpt><trkpt lat="43.19255433368185" lon="10.748153236758577"><ele>338.4</ele><time>2026-05-01T13:11:10Z</time></trkpt><trkpt lat="43.19257410754109" lon="10.748019449080951"><ele>338.2</ele><time>2026-05-01T13:11:11Z</time></trkpt><trkpt lat="43.1926104037221" lon="10.74789543276434"><ele>338.0</ele><time>2026-05-01T13:11:12Z</time></trkpt><trkpt lat="43.19265748853723" lon="10.747808735772868"><ele>338.0</ele><time>2026-05-01T13:11:13Z</time></trkpt><trkpt lat="43.19272185387094" lon="10.74774717000411"><ele>338.0</ele><time>2026-05-01T13:11:14Z</time></trkpt><trkpt lat="43.19280296518081" lon="10.747721005839601"><ele>338.0</ele><time>2026-05-01T13:11:15Z</time></trkpt><trkpt lat="43.19290487098708" lon="10.747712461136452"><ele>338.0</ele><time>2026-05-01T13:11:16Z</time></trkpt><trkpt lat="43.19301999821496" lon="10.747720444235412"><ele>338.0</ele><time>2026-05-01T13:11:17Z</time></trkpt><trkpt lat="43.19314863705574" lon="10.747732598209954"><ele>339.0</ele><time>2026-05-01T13:11:18Z</time></trkpt><trkpt lat="43.19329609843859" lon="10.747753657400347"><ele>340.0</ele><time>2026-05-01T13:11:19Z</time></trkpt><trkpt lat="43.19343729035742" lon="10.747764998316553"><ele>341.0</ele><time>2026-05-01T13:11:20Z</time></trkpt><trkpt lat="43.193556453021415" lon="10.747779635722353"><ele>342.0</ele><time>2026-05-01T13:11:21Z</time></trkpt><trkpt lat="43.19365872603916" lon="10.74776761072287"><ele>342.0</ele><time>2026-05-01T13:11:22Z</time></trkpt><trkpt lat="43.19376031345742" lon="10.7477411736589"><ele>342.0</ele><time>2026-05-01T13:11:23Z</time></trkpt><trkpt lat="43.19384983163347" lon="10.747667543454934"><ele>342.0</ele><time>2026-05-01T13:11:24Z</time></trkpt><trkpt lat="43.19393326227855" lon="10.747556511035336"><ele>342.0</ele><time>2026-05-01T13:11:25Z</time></trkpt><trkpt lat="43.19400464992314" lon="10.747415930418077"><ele>342.0</ele><time>2026-05-01T13:11:26Z</time></trkpt><trkpt lat="43.194057404823695" lon="10.747251652911292"><ele>339.75</ele><time>2026-05-01T13:11:27Z</time></trkpt><trkpt lat="43.19410572568584" lon="10.747072903933223"><ele>337.5</ele><time>2026-05-01T13:11:28Z</time></trkpt><trkpt lat="43.19416191630215" lon="10.746883625070156"><ele>335.25</ele><time>2026-05-01T13:11:29Z</time></trkpt><trkpt lat="43.19422429928724" lon="10.746690499636152"><ele>333.0</ele><time>2026-05-01T13:11:30Z</time></trkpt><trkpt lat="43.19428650060979" lon="10.746494012473516"><ele>332.0</ele><time>2026-05-01T13:11:31Z</time></trkpt><trkpt lat="43.19434318059612" lon="10.74631436950406"><ele>331.0</ele><time>2026-05-01T13:11:32Z</time></trkpt><trkpt lat="43.19439695638754" lon="10.746145302564148"><ele>330.0</ele><time>2026-05-01T13:11:33Z</time></trkpt><trkpt lat="43.19444361886819" lon="10.745988425450815"><ele>329.0</ele><time>2026-05-01T13:11:34Z</time></trkpt><trkpt lat="43.19447819687786" lon="10.745859179325086"><ele>328.6666666666667</ele><time>2026-05-01T13:11:35Z</time></trkpt><trkpt lat="43.194500026786486" lon="10.745761947830118"><ele>328.33333333333337</ele><time>2026-05-01T13:11:36Z</time></trkpt><trkpt lat="43.19451732287056" lon="10.745652803896368"><ele>328.0</ele><time>2026-05-01T13:11:38Z</time></trkpt><trkpt lat="43.194515929675255" lon="10.745522554283202"><ele>327.6666666666667</ele><time>2026-05-01T13:12:12Z</time></trkpt><trkpt lat="43.19450638908226" lon="10.745429928114095"><ele>327.3333333333333</ele><time>2026-05-01T13:12:13Z</time></trkpt><trkpt lat="43.194509459274244" lon="10.745258983131626"><ele>327.0</ele><time>2026-05-01T13:12:15Z</time></trkpt><trkpt lat="43.19450130230109" lon="10.745139028691517"><ele>326.5</ele><time>2026-05-01T13:12:16Z</time></trkpt><trkpt lat="43.19450101379693" lon="10.745010686758027"><ele>326.0</ele><time>2026-05-01T13:12:17Z</time></trkpt><trkpt lat="43.19450845471194" lon="10.744898409587831"><ele>325.5</ele><time>2026-05-01T13:12:18Z</time></trkpt><trkpt lat="43.19452960580125" lon="10.744797836013067"><ele>325.0</ele><time>2026-05-01T13:12:19Z</time></trkpt><trkpt lat="43.1945662776336" lon="10.744703407487963"><ele>324.5</ele><time>2026-05-01T13:12:20Z</time></trkpt><trkpt lat="43.194629102037844" lon="10.744606320051135"><ele>324.0</ele><time>2026-05-01T13:12:21Z</time></trkpt><trkpt lat="43.1947103038336" lon="10.744518303573562"><ele>324.0</ele><time>2026-05-01T13:12:22Z</time></trkpt><trkpt lat="43.19480223486468" lon="10.744436209969136"><ele>324.0</ele><time>2026-05-01T13:12:23Z</time></trkpt><trkpt lat="43.194891467107475" lon="10.744347995146017"><ele>324.0</ele><time>2026-05-01T13:12:24Z</time></trkpt><trkpt lat="43.19495846141424" lon="10.744221435806942"><ele>324.0</ele><time>2026-05-01T13:12:25Z</time></trkpt><trkpt lat="43.19501685381934" lon="10.744073513539247"><ele>324.6</ele><time>2026-05-01T13:12:26Z</time></trkpt><trkpt lat="43.19506960883771" lon="10.743934414976392"><ele>325.2</ele><time>2026-05-01T13:12:27Z</time></trkpt><trkpt lat="43.195117868027154" lon="10.743801542994019"><ele>325.8</ele><time>2026-05-01T13:12:28Z</time></trkpt><trkpt lat="43.19516734260612" lon="10.743674699267762"><ele>326.40000000000003</ele><time>2026-05-01T13:12:29Z</time></trkpt><trkpt lat="43.19521956512218" lon="10.7435519624422"><ele>327.0</ele><time>2026-05-01T13:12:30Z</time></trkpt><trkpt lat="43.19526917138851" lon="10.743433636825788"><ele>325.40000000000003</ele><time>2026-05-01T13:12:31Z</time></trkpt><trkpt lat="43.19532030018349" lon="10.743315308890285"><ele>323.8</ele><time>2026-05-01T13:12:32Z</time></trkpt><trkpt lat="43.19537197411627" lon="10.74319552546853"><ele>322.2</ele><time>2026-05-01T13:12:33Z</time></trkpt><trkpt lat="43.195420979133665" lon="10.743080973650216"><ele>320.6</ele><time>2026-05-01T13:12:34Z</time></trkpt><trkpt lat="43.195448247906555" lon="10.742953460358835"><ele>319.0</ele><time>2026-05-01T13:12:35Z</time></trkpt><trkpt lat="43.19545398757219" lon="10.74278809872957"><ele>317.5</ele><time>2026-05-01T13:12:36Z</time></trkpt><trkpt lat="43.19545520900855" lon="10.742603184504727"><ele>316.0</ele><time>2026-05-01T13:12:37Z</time></trkpt><trkpt lat="43.19545745590582" lon="10.742422539804846"><ele>314.5</ele><time>2026-05-01T13:12:38Z</time></trkpt><trkpt lat="43.1954580634488" lon="10.742248343208969"><ele>313.0</ele><time>2026-05-01T13:12:39Z</time></trkpt><trkpt lat="43.1954508303438" lon="10.742082620293257"><ele>313.0</ele><time>2026-05-01T13:12:40Z</time></trkpt><trkpt lat="43.19543807690412" lon="10.741919668787656"><ele>313.0</ele><time>2026-05-01T13:12:41Z</time></trkpt><trkpt lat="43.19542479165627" lon="10.741764908166376"><ele>313.0</ele><time>2026-05-01T13:12:42Z</time></trkpt><trkpt lat="43.19541483858607" lon="10.741616962073161"><ele>313.0</ele><time>2026-05-01T13:12:43Z</time></trkpt><trkpt lat="43.1954036153858" lon="10.74147232218107"><ele>313.0</ele><time>2026-05-01T13:12:44Z</time></trkpt><trkpt lat="43.19538417528523" lon="10.741329395725417"><ele>311.8</ele><time>2026-05-01T13:12:45Z</time></trkpt><trkpt lat="43.19535609967242" lon="10.741195917997551"><ele>310.6</ele><time>2026-05-01T13:12:46Z</time></trkpt><trkpt lat="43.19531809000833" lon="10.741072191809462"><ele>309.4</ele><time>2026-05-01T13:12:47Z</time></trkpt><trkpt lat="43.19528078733574" lon="10.740948095993465"><ele>308.2</ele><time>2026-05-01T13:12:48Z</time></trkpt><trkpt lat="43.19524418498671" lon="10.740828316603967"><ele>307.0</ele><time>2026-05-01T13:12:49Z</time></trkpt><trkpt lat="43.195206749961926" lon="10.74071075003795"><ele>307.0</ele><time>2026-05-01T13:12:50Z</time></trkpt><trkpt lat="43.195171578497984" lon="10.740596165355003"><ele>307.0</ele><time>2026-05-01T13:12:51Z</time></trkpt><trkpt lat="43.195138156361075" lon="10.740483293175226"><ele>307.0</ele><time>2026-05-01T13:12:52Z</time></trkpt><trkpt lat="43.19512459768593" lon="10.740379335083999"><ele>307.0</ele><time>2026-05-01T13:12:53Z</time></trkpt><trkpt lat="43.19519749167855" lon="10.74025829059621"><ele>307.0</ele><time>2026-05-01T13:12:55Z</time></trkpt><trkpt lat="43.1952794917987" lon="10.740252353270812"><ele>307.0</ele><time>2026-05-01T13:12:56Z</time></trkpt><trkpt lat="43.19537550123149" lon="10.740283373476728"><ele>307.0</ele><time>2026-05-01T13:12:57Z</time></trkpt><trkpt lat="43.19547797865027" lon="10.740342278542803"><ele>307.0</ele><time>2026-05-01T13:12:58Z</time></trkpt><trkpt lat="43.19559571551268" lon="10.740427615664428"><ele>307.0</ele><time>2026-05-01T13:12:59Z</time></trkpt><trkpt lat="43.195730944553674" lon="10.740510153720143"><ele>308.25</ele><time>2026-05-01T13:13:00Z</time></trkpt><trkpt lat="43.19585391474711" lon="10.740571751494246"><ele>309.5</ele><time>2026-05-01T13:13:01Z</time></trkpt><trkpt lat="43.195978695704625" lon="10.740604003078289"><ele>310.75</ele><time>2026-05-01T13:13:02Z</time></trkpt><trkpt lat="43.196123165036965" lon="10.740602834495268"><ele>312.0</ele><time>2026-05-01T13:13:03Z</time></trkpt><trkpt lat="43.196276519018134" lon="10.740584496717991"><ele>312.0</ele><time>2026-05-01T13:13:04Z</time></trkpt><trkpt lat="43.19641820444609" lon="10.740567567178836"><ele>312.0</ele><time>2026-05-01T13:13:05Z</time></trkpt><trkpt lat="43.196554796698834" lon="10.740555254099016"><ele>312.0</ele><time>2026-05-01T13:13:06Z</time></trkpt><trkpt lat="43.196689419507734" lon="10.740538712549393"><ele>312.0</ele><time>2026-05-01T13:13:07Z</time></trkpt><trkpt lat="43.19681891161331" lon="10.740512586804735"><ele>311.0</ele><time>2026-05-01T13:13:08Z</time></trkpt><trkpt lat="43.19694004253043" lon="10.740470119010332"><ele>310.0</ele><time>2026-05-01T13:13:09Z</time></trkpt><trkpt lat="43.197052362542564" lon="10.740394961092896"><ele>309.0</ele><time>2026-05-01T13:13:10Z</time></trkpt><trkpt lat="43.19714482925308" lon="10.740285405999794"><ele>308.0</ele><time>2026-05-01T13:13:11Z</time></trkpt><trkpt lat="43.19721697641772" lon="10.740160108608793"><ele>306.0</ele><time>2026-05-01T13:13:12Z</time></trkpt><trkpt lat="43.19727999722298" lon="10.740033329569536"><ele>304.0</ele><time>2026-05-01T13:13:13Z</time></trkpt><trkpt lat="43.1973349546701" lon="10.739901072374483"><ele>302.0</ele><time>2026-05-01T13:13:14Z</time></trkpt><trkpt lat="43.19738603590038" lon="10.739772063763455"><ele>300.0</ele><time>2026-05-01T13:13:15Z</time></trkpt><trkpt lat="43.19742825619882" lon="10.739661616224495"><ele>298.0</ele><time>2026-05-01T13:13:16Z</time></trkpt><trkpt lat="43.19748009545592" lon="10.739585016058653"><ele>298.0</ele><time>2026-05-01T13:13:17Z</time></trkpt><trkpt lat="43.19755779343884" lon="10.739535226297134"><ele>298.0</ele><time>2026-05-01T13:13:18Z</time></trkpt><trkpt lat="43.197658403055534" lon="10.739506944905083"><ele>298.0</ele><time>2026-05-01T13:13:19Z</time></trkpt><trkpt lat="43.19776090196789" lon="10.739476014351666"><ele>298.0</ele><time>2026-05-01T13:13:20Z</time></trkpt><trkpt lat="43.19785243556498" lon="10.739405114924999"><ele>298.0</ele><time>2026-05-01T13:13:21Z</time></trkpt><trkpt lat="43.19794049265066" lon="10.739301647636635"><ele>297.6</ele><time>2026-05-01T13:13:22Z</time></trkpt><trkpt lat="43.19802196374303" lon="10.739169733981724"><ele>297.20000000000005</ele><time>2026-05-01T13:13:23Z</time></trkpt><trkpt lat="43.19809390201368" lon="10.739042627767446"><ele>296.8</ele><time>2026-05-01T13:13:24Z</time></trkpt><trkpt lat="43.19816058098647" lon="10.738926013144633"><ele>296.40000000000003</ele><time>2026-05-01T13:13:25Z</time></trkpt><trkpt lat="43.198221233194346" lon="10.738820728564674"><ele>296.0</ele><time>2026-05-01T13:13:26Z</time></trkpt><trkpt lat="43.198280005310465" lon="10.73872605250618"><ele>296.0</ele><time>2026-05-01T13:13:27Z</time></trkpt><trkpt lat="43.198347355328025" lon="10.73863493169155"><ele>296.0</ele><time>2026-05-01T13:13:28Z</time></trkpt><trkpt lat="43.198420731637064" lon="10.738549848027592"><ele>296.0</ele><time>2026-05-01T13:13:29Z</time></trkpt><trkpt lat="43.1985072325011" lon="10.738478884853643"><ele>296.0</ele><time>2026-05-01T13:13:30Z</time></trkpt><trkpt lat="43.198601040692985" lon="10.738413011382487"><ele>296.0</ele><time>2026-05-01T13:13:31Z</time></trkpt><trkpt lat="43.19869182706683" lon="10.73835751094572"><ele>293.40000000000003</ele><time>2026-05-01T13:13:32Z</time></trkpt><trkpt lat="43.19878233599246" lon="10.738287779965546"><ele>290.8</ele><time>2026-05-01T13:13:33Z</time></trkpt><trkpt lat="43.198861800554255" lon="10.738217666403163"><ele>288.20000000000005</ele><time>2026-05-01T13:13:34Z</time></trkpt><trkpt lat="43.19891060913416" lon="10.738140802628232"><ele>285.6</ele><time>2026-05-01T13:13:35Z</time></trkpt><trkpt lat="43.19891425258279" lon="10.737972469447035"><ele>283.0</ele><time>2026-05-01T13:13:37Z</time></trkpt><trkpt lat="43.19887249646433" lon="10.737901746137766"><ele>283.0</ele><time>2026-05-01T13:13:38Z</time></trkpt><trkpt lat="43.19882594501849" lon="10.737836014821497"><ele>283.0</ele><time>2026-05-01T13:13:39Z</time></trkpt><trkpt lat="43.198735695979266" lon="10.737843597291013"><ele>283.0</ele><time>2026-05-01T13:13:40Z</time></trkpt><trkpt lat="43.19866948644762" lon="10.737842280000315"><ele>283.0</ele><time>2026-05-01T13:13:41Z</time></trkpt><trkpt lat="43.198561192590894" lon="10.737822864876637"><ele>283.0</ele><time>2026-05-01T13:13:43Z</time></trkpt><trkpt lat="43.19845524599099" lon="10.73782211788081"><ele>283.0</ele><time>2026-05-01T13:13:45Z</time></trkpt><trkpt lat="43.198538848114964" lon="10.73771895132894"><ele>282.8333333333333</ele><time>2026-05-01T13:13:52Z</time></trkpt><trkpt lat="43.198608389452005" lon="10.73769660001381"><ele>282.66666666666663</ele><time>2026-05-01T13:13:53Z</time></trkpt><trkpt lat="43.19868756964078" lon="10.737656664874061"><ele>282.5</ele><time>2026-05-01T13:13:54Z</time></trkpt><trkpt lat="43.198773397832674" lon="10.737613040235285"><ele>282.3333333333333</ele><time>2026-05-01T13:13:55Z</time></trkpt><trkpt lat="43.19885234523833" lon="10.737579220115293"><ele>282.1666666666667</ele><time>2026-05-01T13:13:56Z</time></trkpt><trkpt lat="43.19892451702923" lon="10.737546794642151"><ele>282.0</ele><time>2026-05-01T13:13:57Z</time></trkpt><trkpt lat="43.19900131770608" lon="10.737508568922607"><ele>282.0</ele><time>2026-05-01T13:13:58Z</time></trkpt><trkpt lat="43.19909225604069" lon="10.737452085517472"><ele>282.0</ele><time>2026-05-01T13:13:59Z</time></trkpt><trkpt lat="43.19918905074324" lon="10.73740213261609"><ele>282.0</ele><time>2026-05-01T13:14:00Z</time></trkpt><trkpt lat="43.19928201084988" lon="10.737366407122067"><ele>282.0</ele><time>2026-05-01T13:14:01Z</time></trkpt><trkpt lat="43.1993729445175" lon="10.737333661321294"><ele>282.0</ele><time>2026-05-01T13:14:02Z</time></trkpt><trkpt lat="43.19945609229793" lon="10.737300353796437"><ele>282.0</ele><time>2026-05-01T13:14:03Z</time></trkpt><trkpt lat="43.19953433927492" lon="10.737266730830443"><ele>282.0</ele><time>2026-05-01T13:14:04Z</time></trkpt><trkpt lat="43.199616747449916" lon="10.737230638631877"><ele>282.0</ele><time>2026-05-01T13:14:05Z</time></trkpt><trkpt lat="43.19970500079719" lon="10.737212248654503"><ele>282.0</ele><time>2026-05-01T13:14:06Z</time></trkpt><trkpt lat="43.199795857998076" lon="10.737212105862966"><ele>282.0</ele><time>2026-05-01T13:14:07Z</time></trkpt><trkpt lat="43.19988409101002" lon="10.737222653452802"><ele>282.0</ele><time>2026-05-01T13:14:08Z</time></trkpt><trkpt lat="43.19996525580998" lon="10.737261125038266"><ele>282.2</ele><time>2026-05-01T13:14:09Z</time></trkpt><trkpt lat="43.20003850815574" lon="10.737316271277024"><ele>282.4</ele><time>2026-05-01T13:14:10Z</time></trkpt><trkpt lat="43.2000916522359" lon="10.737378291281823"><ele>282.6</ele><time>2026-05-01T13:14:11Z</time></trkpt><trkpt lat="43.20016598794111" lon="10.737478167812734"><ele>282.8</ele><time>2026-05-01T13:14:13Z</time></trkpt><trkpt lat="43.20023507884724" lon="10.737564612177907"><ele>283.0</ele><time>2026-05-01T13:14:15Z</time></trkpt><trkpt lat="43.20031252952279" lon="10.737653000230987"><ele>283.0</ele><time>2026-05-01T13:14:17Z</time></trkpt><trkpt lat="43.20040634338495" lon="10.737700912453336"><ele>283.0</ele><time>2026-05-01T13:14:19Z</time></trkpt><trkpt lat="43.20052667794911" lon="10.73771246977282"><ele>283.0</ele><time>2026-05-01T13:14:21Z</time></trkpt><trkpt lat="43.20063318706442" lon="10.737700721743114"><ele>283.0</ele><time>2026-05-01T13:14:23Z</time></trkpt><trkpt lat="43.2007102643163" lon="10.737684982883108"><ele>283.0</ele><time>2026-05-01T13:14:25Z</time></trkpt><trkpt lat="43.200782770539384" lon="10.737673700656751"><ele>282.3333333333333</ele><time>2026-05-01T13:14:27Z</time></trkpt><trkpt lat="43.20087371360395" lon="10.737679644999604"><ele>281.66666666666663</ele><time>2026-05-01T13:14:29Z</time></trkpt><trkpt lat="43.200937536163316" lon="10.737748201422443"><ele>281.0</ele><time>2026-05-01T13:14:31Z</time></trkpt><trkpt lat="43.2009494612999" lon="10.737852138938406"><ele>280.3333333333333</ele><time>2026-05-01T13:14:33Z</time></trkpt><trkpt lat="43.20101774957428" lon="10.737944210337371"><ele>279.6666666666667</ele><time>2026-05-01T13:14:53Z</time></trkpt><trkpt lat="43.201081186905796" lon="10.737977220565277"><ele>279.0</ele><time>2026-05-01T13:14:55Z</time></trkpt><trkpt lat="43.201165492569295" lon="10.737939727284125"><ele>280.1428571428571</ele><time>2026-05-01T13:14:58Z</time></trkpt><trkpt lat="43.20109186057365" lon="10.737906080742528"><ele>281.2857142857143</ele><time>2026-05-01T13:15:07Z</time></trkpt><trkpt lat="43.20099160880062" lon="10.737885727046828"><ele>282.42857142857144</ele><time>2026-05-01T13:15:09Z</time></trkpt><trkpt lat="43.200926611314195" lon="10.737871705274975"><ele>283.57142857142856</ele><time>2026-05-01T13:15:11Z</time></trkpt><trkpt lat="43.20086508677149" lon="10.737843753457138"><ele>284.7142857142857</ele><time>2026-05-01T13:17:39Z</time></trkpt><trkpt lat="43.20080973157235" lon="10.737901070460714"><ele>285.85714285714283</ele><time>2026-05-01T13:21:47Z</time></trkpt><trkpt lat="43.20087710102241" lon="10.737884466083447"><ele>287.0</ele><time>2026-05-01T13:22:01Z</time></trkpt><trkpt lat="43.20082320607604" lon="10.737834503197062"><ele>287.0</ele><time>2026-05-01T13:35:55Z</time></trkpt><trkpt lat="43.20086296686203" lon="10.737905168147421"><ele>287.0</ele><time>2026-05-01T14:21:44Z</time></trkpt><trkpt lat="43.20092997751977" lon="10.737878664662722"><ele>287.0</ele><time>2026-05-01T14:26:03Z</time></trkpt><trkpt lat="43.20093434611544" lon="10.737744102491952"><ele>287.0</ele><time>2026-05-01T14:27:01Z</time></trkpt><trkpt lat="43.20085656273222" lon="10.737650725478145"><ele>287.0</ele><time>2026-05-01T14:27:03Z</time></trkpt><trkpt lat="43.20078570346175" lon="10.73764108220067"><ele>287.0</ele><time>2026-05-01T14:27:04Z</time></trkpt><trkpt lat="43.200711580242235" lon="10.737650843209877"><ele>286.33333333333337</ele><time>2026-05-01T14:27:05Z</time></trkpt><trkpt lat="43.20063387400404" lon="10.737663319941362"><ele>285.6666666666667</ele><time>2026-05-01T14:27:06Z</time></trkpt><trkpt lat="43.20055199174203" lon="10.73764739187693"><ele>285.0</ele><time>2026-05-01T14:27:07Z</time></trkpt><trkpt lat="43.2004787656614" lon="10.737650339792287"><ele>284.3333333333333</ele><time>2026-05-01T14:27:08Z</time></trkpt><trkpt lat="43.200406418193076" lon="10.737667032743905"><ele>283.66666666666663</ele><time>2026-05-01T14:27:09Z</time></trkpt><trkpt lat="43.200338798388366" lon="10.73763347935717"><ele>283.0</ele><time>2026-05-01T14:27:09.999Z</time></trkpt><trkpt lat="43.20026334238788" lon="10.737567137445371"><ele>283.0</ele><time>2026-05-01T14:27:10.999Z</time></trkpt><trkpt lat="43.20019925386074" lon="10.737460933614821"><ele>283.0</ele><time>2026-05-01T14:27:11.999Z</time></trkpt><trkpt lat="43.20011582006371" lon="10.737382515500082"><ele>283.0</ele><time>2026-05-01T14:27:12.999Z</time></trkpt><trkpt lat="43.20004435956087" lon="10.737296207054868"><ele>283.0</ele><time>2026-05-01T14:27:13.999Z</time></trkpt><trkpt lat="43.19995808871153" lon="10.737220062991888"><ele>283.0</ele><time>2026-05-01T14:27:14.999Z</time></trkpt><trkpt lat="43.19986160523461" lon="10.737165761182482"><ele>282.75</ele><time>2026-05-01T14:27:15.999Z</time></trkpt><trkpt lat="43.19973098840235" lon="10.737146613863407"><ele>282.5</ele><time>2026-05-01T14:27:16.999Z</time></trkpt><trkpt lat="43.19959924412244" lon="10.737173924187706"><ele>282.25</ele><time>2026-05-01T14:27:17.999Z</time></trkpt><trkpt lat="43.19947172396608" lon="10.737227066022049"><ele>282.0</ele><time>2026-05-01T14:27:18.999Z</time></trkpt><trkpt lat="43.19937383863506" lon="10.737285916504975"><ele>282.0</ele><time>2026-05-01T14:27:19.999Z</time></trkpt><trkpt lat="43.19929312354266" lon="10.737332561501665"><ele>282.0</ele><time>2026-05-01T14:27:20.999Z</time></trkpt><trkpt lat="43.19920136470322" lon="10.73738681391678"><ele>282.0</ele><time>2026-05-01T14:27:21.999Z</time></trkpt><trkpt lat="43.19909769137101" lon="10.737428615011604"><ele>282.0</ele><time>2026-05-01T14:27:22.999Z</time></trkpt><trkpt lat="43.19899513409038" lon="10.737478724369854"><ele>282.0</ele><time>2026-05-01T14:27:23.999Z</time></trkpt><trkpt lat="43.19888770395904" lon="10.737522092199898"><ele>280.6</ele><time>2026-05-01T14:27:24.999Z</time></trkpt><trkpt lat="43.19877024836257" lon="10.737566346290865"><ele>279.2</ele><time>2026-05-01T14:27:25.999Z</time></trkpt><trkpt lat="43.198662194354426" lon="10.737605676277916"><ele>277.8</ele><time>2026-05-01T14:27:26.999Z</time></trkpt><trkpt lat="43.19856853011782" lon="10.73764001288913"><ele>276.4</ele><time>2026-05-01T14:27:27.999Z</time></trkpt><trkpt lat="43.198483296295095" lon="10.737675874846625"><ele>275.0</ele><time>2026-05-01T14:27:28.999Z</time></trkpt><trkpt lat="43.198413139931795" lon="10.73770258408637"><ele>275.8</ele><time>2026-05-01T14:27:29.999Z</time></trkpt><trkpt lat="43.19829068904249" lon="10.73773009242654"><ele>276.6</ele><time>2026-05-01T14:27:31.999Z</time></trkpt><trkpt lat="43.19821834493809" lon="10.73777000389574"><ele>277.4</ele><time>2026-05-01T14:27:32.999Z</time></trkpt><trkpt lat="43.19814320236874" lon="10.737798675099732"><ele>278.2</ele><time>2026-05-01T14:27:33.999Z</time></trkpt><trkpt lat="43.19806180625353" lon="10.737825668710768"><ele>279.0</ele><time>2026-05-01T14:27:34.999Z</time></trkpt><trkpt lat="43.19797848016254" lon="10.737853821132381"><ele>279.0</ele><time>2026-05-01T14:27:35.999Z</time></trkpt><trkpt lat="43.19788886890055" lon="10.737879967619206"><ele>279.0</ele><time>2026-05-01T14:27:36.999Z</time></trkpt><trkpt lat="43.1977940495884" lon="10.737900014150373"><ele>279.0</ele><time>2026-05-01T14:27:37.999Z</time></trkpt><trkpt lat="43.19769814486688" lon="10.737915755992601"><ele>279.0</ele><time>2026-05-01T14:27:38.999Z</time></trkpt><trkpt lat="43.19761423952549" lon="10.737919190377253"><ele>279.0</ele><time>2026-05-01T14:27:39.999Z</time></trkpt><trkpt lat="43.197521758352686" lon="10.737916545997784"><ele>279.0</ele><time>2026-05-01T14:27:40.999Z</time></trkpt><trkpt lat="43.19742409523008" lon="10.737909591990757"><ele>279.0</ele><time>2026-05-01T14:27:41.999Z</time></trkpt><trkpt lat="43.19732576206921" lon="10.737897803828604"><ele>279.0</ele><time>2026-05-01T14:27:42.999Z</time></trkpt><trkpt lat="43.19722466774778" lon="10.737884295168218"><ele>279.0</ele><time>2026-05-01T14:27:43.999Z</time></trkpt><trkpt lat="43.1971217014389" lon="10.737870513585593"><ele>279.0</ele><time>2026-05-01T14:27:44.999Z</time></trkpt><trkpt lat="43.19702176600598" lon="10.737856955257355"><ele>279.0</ele><time>2026-05-01T14:27:45.999Z</time></trkpt><trkpt lat="43.19693444334185" lon="10.737833916591324"><ele>279.0</ele><time>2026-05-01T14:27:46.999Z</time></trkpt><trkpt lat="43.196864884339384" lon="10.737778332649263"><ele>279.0</ele><time>2026-05-01T14:27:47.999Z</time></trkpt><trkpt lat="43.19681627372205" lon="10.737699955245601"><ele>279.0</ele><time>2026-05-01T14:27:48.999Z</time></trkpt><trkpt lat="43.19677917352779" lon="10.737604193294878"><ele>279.0</ele><time>2026-05-01T14:27:49.999Z</time></trkpt><trkpt lat="43.19676075064118" lon="10.737483707761113"><ele>279.0</ele><time>2026-05-01T14:27:51Z</time></trkpt><trkpt lat="43.19674371986115" lon="10.737362414108853"><ele>279.0</ele><time>2026-05-01T14:27:52Z</time></trkpt><trkpt lat="43.19671305542165" lon="10.73724233048561"><ele>279.0</ele><time>2026-05-01T14:27:53Z</time></trkpt><trkpt lat="43.196674518398694" lon="10.73713957112103"><ele>279.0</ele><time>2026-05-01T14:27:54Z</time></trkpt><trkpt lat="43.19663042919696" lon="10.737056501770732"><ele>279.0</ele><time>2026-05-01T14:27:55Z</time></trkpt><trkpt lat="43.1965594825557" lon="10.736979796554358"><ele>279.0</ele><time>2026-05-01T14:27:56Z</time></trkpt><trkpt lat="43.19646205045637" lon="10.736931562632508"><ele>279.0</ele><time>2026-05-01T14:27:57Z</time></trkpt><trkpt lat="43.196352153605865" lon="10.736864453522237"><ele>276.5</ele><time>2026-05-01T14:27:58Z</time></trkpt><trkpt lat="43.19621981331423" lon="10.736810831990395"><ele>274.0</ele><time>2026-05-01T14:27:59Z</time></trkpt><trkpt lat="43.19608940691794" lon="10.736757994032267"><ele>271.5</ele><time>2026-05-01T14:28:00Z</time></trkpt><trkpt lat="43.195958861877116" lon="10.736705099898545"><ele>269.0</ele><time>2026-05-01T14:28:01Z</time></trkpt><trkpt lat="43.19583411250973" lon="10.736654554048647"><ele>269.0</ele><time>2026-05-01T14:28:02Z</time></trkpt><trkpt lat="43.19571687445519" lon="10.736607051620702"><ele>269.0</ele><time>2026-05-01T14:28:03Z</time></trkpt><trkpt lat="43.19560330014302" lon="10.73655962410533"><ele>269.0</ele><time>2026-05-01T14:28:04Z</time></trkpt><trkpt lat="43.19548995125094" lon="10.736510801774708"><ele>269.0</ele><time>2026-05-01T14:28:05Z</time></trkpt><trkpt lat="43.195379668428245" lon="10.736466114693544"><ele>268.75</ele><time>2026-05-01T14:28:06Z</time></trkpt><trkpt lat="43.19529024911155" lon="10.736371404328558"><ele>268.5</ele><time>2026-05-01T14:28:07Z</time></trkpt><trkpt lat="43.19521507092546" lon="10.736241198916842"><ele>268.25</ele><time>2026-05-01T14:28:08Z</time></trkpt><trkpt lat="43.19515616510702" lon="10.736092575205639"><ele>268.0</ele><time>2026-05-01T14:28:09Z</time></trkpt><trkpt lat="43.19509588641013" lon="10.735940404079033"><ele>268.0</ele><time>2026-05-01T14:28:10Z</time></trkpt><trkpt lat="43.19503444990089" lon="10.735794885927792"><ele>268.0</ele><time>2026-05-01T14:28:11Z</time></trkpt><trkpt lat="43.19497933567183" lon="10.735650225334954"><ele>268.0</ele><time>2026-05-01T14:28:12Z</time></trkpt><trkpt lat="43.19492828871228" lon="10.735499143551042"><ele>268.0</ele><time>2026-05-01T14:28:13Z</time></trkpt><trkpt lat="43.19488560933461" lon="10.735341501077862"><ele>266.8</ele><time>2026-05-01T14:28:14Z</time></trkpt><trkpt lat="43.194869822765924" lon="10.735185838326332"><ele>265.6</ele><time>2026-05-01T14:28:15Z</time></trkpt><trkpt lat="43.19487313627319" lon="10.735039243871375"><ele>264.4</ele><time>2026-05-01T14:28:16Z</time></trkpt><trkpt lat="43.19489835707037" lon="10.734904167485482"><ele>263.2</ele><time>2026-05-01T14:28:17Z</time></trkpt><trkpt lat="43.194934481737654" lon="10.734779766793524"><ele>262.0</ele><time>2026-05-01T14:28:18Z</time></trkpt><trkpt lat="43.1949570244424" lon="10.734667885231783"><ele>262.0</ele><time>2026-05-01T14:28:19Z</time></trkpt><trkpt lat="43.19495564549073" lon="10.734552656970527"><ele>262.0</ele><time>2026-05-01T14:28:20Z</time></trkpt><trkpt lat="43.194919951769116" lon="10.734438308179403"><ele>262.0</ele><time>2026-05-01T14:28:21Z</time></trkpt><trkpt lat="43.19487248288332" lon="10.734325727340504"><ele>262.0</ele><time>2026-05-01T14:28:22Z</time></trkpt><trkpt lat="43.19477973656792" lon="10.734250090672333"><ele>262.0</ele><time>2026-05-01T14:28:23Z</time></trkpt><trkpt lat="43.19470526160698" lon="10.734153985375956"><ele>262.2</ele><time>2026-05-01T14:28:24Z</time></trkpt><trkpt lat="43.19461541883739" lon="10.73409832922095"><ele>262.4</ele><time>2026-05-01T14:28:25Z</time></trkpt><trkpt lat="43.19453616044676" lon="10.73402630267588"><ele>262.6</ele><time>2026-05-01T14:28:26Z</time></trkpt><trkpt lat="43.194458445717" lon="10.73395895319377"><ele>262.8</ele><time>2026-05-01T14:28:27Z</time></trkpt><trkpt lat="43.194388100236694" lon="10.733890314664666"><ele>263.0</ele><time>2026-05-01T14:28:28Z</time></trkpt><trkpt lat="43.19430911901795" lon="10.733829476987841"><ele>263.0</ele><time>2026-05-01T14:28:29Z</time></trkpt><trkpt lat="43.19422795848792" lon="10.733765972658516"><ele>263.0</ele><time>2026-05-01T14:28:30Z</time></trkpt><trkpt lat="43.19416850136913" lon="10.733684512183961"><ele>263.0</ele><time>2026-05-01T14:28:31Z</time></trkpt><trkpt lat="43.194108211077726" lon="10.733623718285456"><ele>263.0</ele><time>2026-05-01T14:28:32Z</time></trkpt><trkpt lat="43.1940526442082" lon="10.733562796807693"><ele>263.0</ele><time>2026-05-01T14:28:33Z</time></trkpt><trkpt lat="43.193993309365325" lon="10.733492147404524"><ele>263.0</ele><time>2026-05-01T14:28:34Z</time></trkpt><trkpt lat="43.19392798487058" lon="10.733405850601795"><ele>261.8</ele><time>2026-05-01T14:28:35Z</time></trkpt><trkpt lat="43.193841824064755" lon="10.733319622676902"><ele>260.6</ele><time>2026-05-01T14:28:36Z</time></trkpt><trkpt lat="43.19376624263099" lon="10.733216668235563"><ele>259.4</ele><time>2026-05-01T14:28:37Z</time></trkpt><trkpt lat="43.19370614172598" lon="10.733126930739973"><ele>258.2</ele><time>2026-05-01T14:28:38Z</time></trkpt><trkpt lat="43.193647250058866" lon="10.733041279895591"><ele>257.0</ele><time>2026-05-01T14:28:39Z</time></trkpt><trkpt lat="43.193582661821154" lon="10.732955618647482"><ele>257.0</ele><time>2026-05-01T14:28:40Z</time></trkpt><trkpt lat="43.193513254436795" lon="10.732866932510168"><ele>257.0</ele><time>2026-05-01T14:28:41Z</time></trkpt><trkpt lat="43.193446668343334" lon="10.732775155984898"><ele>257.0</ele><time>2026-05-01T14:28:42Z</time></trkpt><trkpt lat="43.19337879437306" lon="10.73268166239639"><ele>257.0</ele><time>2026-05-01T14:28:43Z</time></trkpt><trkpt lat="43.19331515321336" lon="10.732578824770036"><ele>257.0</ele><time>2026-05-01T14:28:44Z</time></trkpt><trkpt lat="43.19324964803209" lon="10.732474153423377"><ele>256.25</ele><time>2026-05-01T14:28:45Z</time></trkpt><trkpt lat="43.19318090917024" lon="10.732352555659096"><ele>255.5</ele><time>2026-05-01T14:28:46Z</time></trkpt><trkpt lat="43.19311785243236" lon="10.732218145319411"><ele>254.75</ele><time>2026-05-01T14:28:47Z</time></trkpt><trkpt lat="43.19304827693748" lon="10.732062113671294"><ele>254.0</ele><time>2026-05-01T14:28:48Z</time></trkpt><trkpt lat="43.19298188693821" lon="10.731898890887502"><ele>254.6</ele><time>2026-05-01T14:28:49Z</time></trkpt><trkpt lat="43.19292971233786" lon="10.731746822985384"><ele>255.2</ele><time>2026-05-01T14:28:50Z</time></trkpt><trkpt lat="43.19287862065135" lon="10.731605670464397"><ele>255.79999999999998</ele><time>2026-05-01T14:28:51Z</time></trkpt><trkpt lat="43.19282914500065" lon="10.731480686884664"><ele>256.4</ele><time>2026-05-01T14:28:52Z</time></trkpt><trkpt lat="43.1927805370078" lon="10.731352760279709"><ele>257.0</ele><time>2026-05-01T14:28:53Z</time></trkpt><trkpt lat="43.19273626822473" lon="10.731233065305002"><ele>257.0</ele><time>2026-05-01T14:28:54Z</time></trkpt><trkpt lat="43.19269416944084" lon="10.731105839243094"><ele>257.0</ele><time>2026-05-01T14:28:55Z</time></trkpt><trkpt lat="43.192658743754365" lon="10.730979268906161"><ele>257.0</ele><time>2026-05-01T14:28:56Z</time></trkpt><trkpt lat="43.192624496352586" lon="10.730848664177518"><ele>257.0</ele><time>2026-05-01T14:28:57Z</time></trkpt><trkpt lat="43.19259679380375" lon="10.730710531946059"><ele>257.0</ele><time>2026-05-01T14:28:58Z</time></trkpt><trkpt lat="43.19257344669188" lon="10.73056637984234"><ele>259.25</ele><time>2026-05-01T14:28:59Z</time></trkpt><trkpt lat="43.192536489415566" lon="10.730418674162841"><ele>261.5</ele><time>2026-05-01T14:29:00Z</time></trkpt><trkpt lat="43.192504027563245" lon="10.730262674765704"><ele>263.75</ele><time>2026-05-01T14:29:01Z</time></trkpt><trkpt lat="43.19247561396357" lon="10.730098943210304"><ele>266.0</ele><time>2026-05-01T14:29:02Z</time></trkpt><trkpt lat="43.192440376408996" lon="10.729929456374215"><ele>265.25</ele><time>2026-05-01T14:29:03Z</time></trkpt><trkpt lat="43.1924048866875" lon="10.729760840461921"><ele>264.5</ele><time>2026-05-01T14:29:04Z</time></trkpt><trkpt lat="43.19236890213878" lon="10.729596976853172"><ele>263.75</ele><time>2026-05-01T14:29:05Z</time></trkpt><trkpt lat="43.192328464048764" lon="10.729440863985914"><ele>263.0</ele><time>2026-05-01T14:29:06Z</time></trkpt><trkpt lat="43.192286703050534" lon="10.729305436799546"><ele>263.0</ele><time>2026-05-01T14:29:07Z</time></trkpt><trkpt lat="43.19223346251133" lon="10.7291709483242"><ele>263.0</ele><time>2026-05-01T14:29:08Z</time></trkpt><trkpt lat="43.19217588895432" lon="10.729044191503839"><ele>263.0</ele><time>2026-05-01T14:29:09Z</time></trkpt><trkpt lat="43.19212160627769" lon="10.728936078129955"><ele>263.0</ele><time>2026-05-01T14:29:10Z</time></trkpt><trkpt lat="43.19207478629406" lon="10.72883413955314"><ele>263.0</ele><time>2026-05-01T14:29:12Z</time></trkpt><trkpt lat="43.19204899865775" lon="10.728751372597491"><ele>263.0</ele><time>2026-05-01T14:29:15Z</time></trkpt><trkpt lat="43.19213050627196" lon="10.728660913341258"><ele>263.0</ele><time>2026-05-01T14:29:18Z</time></trkpt><trkpt lat="43.19221918548818" lon="10.728609583818132"><ele>263.0</ele><time>2026-05-01T14:29:20Z</time></trkpt><trkpt lat="43.192239301677176" lon="10.728515413810664"><ele>263.0</ele><time>2026-05-01T14:29:47.999Z</time></trkpt><trkpt lat="43.192233371824145" lon="10.728351091756496"><ele>263.0</ele><time>2026-05-01T14:29:49.999Z</time></trkpt><trkpt lat="43.19218945182884" lon="10.728239458786673"><ele>265.4</ele><time>2026-05-01T14:29:51.999Z</time></trkpt><trkpt lat="43.192161731728845" lon="10.728154541613774"><ele>267.8</ele><time>2026-05-01T14:29:58Z</time></trkpt><trkpt lat="43.19215113198369" lon="10.728056708007612"><ele>270.2</ele><time>2026-05-01T14:30:00Z</time></trkpt><trkpt lat="43.192099857634666" lon="10.727903476427738"><ele>272.6</ele><time>2026-05-01T14:30:02Z</time></trkpt><trkpt lat="43.19192867003986" lon="10.727876448153943"><ele>275.0</ele><time>2026-05-01T14:30:03Z</time></trkpt><trkpt lat="43.19185812733843" lon="10.727801116630637"><ele>275.0</ele><time>2026-05-01T14:30:04Z</time></trkpt><trkpt lat="43.191808326091255" lon="10.727736588805042"><ele>275.0</ele><time>2026-05-01T14:30:06Z</time></trkpt><trkpt lat="43.19172063543548" lon="10.727647153482005"><ele>275.0</ele><time>2026-05-01T14:46:30Z</time></trkpt><trkpt lat="43.191660149952895" lon="10.727577832780524"><ele>275.0</ele><time>2026-05-01T14:46:31Z</time></trkpt><trkpt lat="43.1916153790911" lon="10.727468425132104"><ele>275.0</ele><time>2026-05-01T14:46:33Z</time></trkpt><trkpt lat="43.19154005267953" lon="10.72732841903034"><ele>277.33333333333337</ele><time>2026-05-01T14:46:35Z</time></trkpt><trkpt lat="43.191490816354" lon="10.727193291911874"><ele>279.6666666666667</ele><time>2026-05-01T14:46:37Z</time></trkpt><trkpt lat="43.191468962727015" lon="10.727105815758526"><ele>282.0</ele><time>2026-05-01T14:46:38Z</time></trkpt><trkpt lat="43.19144280789461" lon="10.727012200099173"><ele>284.3333333333333</ele><time>2026-05-01T14:46:39Z</time></trkpt><trkpt lat="43.191412709427475" lon="10.726921113326878"><ele>286.66666666666663</ele><time>2026-05-01T14:46:40Z</time></trkpt><trkpt lat="43.191392519619676" lon="10.726830299369245"><ele>289.0</ele><time>2026-05-01T14:46:41Z</time></trkpt><trkpt lat="43.191378474572055" lon="10.726736472332252"><ele>291.66666666666663</ele><time>2026-05-01T14:46:42Z</time></trkpt><trkpt lat="43.19135807829432" lon="10.726638981403198"><ele>294.3333333333333</ele><time>2026-05-01T14:46:43Z</time></trkpt><trkpt lat="43.19134131114457" lon="10.72654076238112"><ele>297.0</ele><time>2026-05-01T14:46:44Z</time></trkpt><trkpt lat="43.19133131328535" lon="10.726426902332271"><ele>299.6666666666667</ele><time>2026-05-01T14:46:44.999Z</time></trkpt><trkpt lat="43.191323659579616" lon="10.726315150499355"><ele>302.33333333333337</ele><time>2026-05-01T14:46:45.999Z</time></trkpt><trkpt lat="43.19132626897122" lon="10.726183254031833"><ele>305.0</ele><time>2026-05-01T14:46:47.999Z</time></trkpt><trkpt lat="43.19132610973626" lon="10.72608662295405"><ele>305.0</ele><time>2026-05-01T14:46:49.999Z</time></trkpt><trkpt lat="43.19130613555106" lon="10.725995317491593"><ele>305.0</ele><time>2026-05-01T14:47:50Z</time></trkpt><trkpt lat="43.191299074561215" lon="10.725907998254256"><ele>305.0</ele><time>2026-05-01T14:47:59Z</time></trkpt><trkpt lat="43.19128783324026" lon="10.725822642264632"><ele>305.0</ele><time>2026-05-01T14:48:08Z</time></trkpt><trkpt lat="43.191320316485324" lon="10.72590656850869"><ele>305.0</ele><time>2026-05-01T14:49:05Z</time></trkpt><trkpt lat="43.19132963894131" lon="10.725995495304149"><ele>305.0</ele><time>2026-05-01T14:49:12Z</time></trkpt><trkpt lat="43.191317379691775" lon="10.726091022065418"><ele>305.0</ele><time>2026-05-01T14:49:54Z</time></trkpt><trkpt lat="43.19130441896544" lon="10.726002195379307"><ele>307.33333333333337</ele><time>2026-05-01T14:49:57Z</time></trkpt><trkpt lat="43.1912958326757" lon="10.725910162726752"><ele>309.6666666666667</ele><time>2026-05-01T14:49:59Z</time></trkpt><trkpt lat="43.191286852183104" lon="10.725821478168838"><ele>312.0</ele><time>2026-05-01T14:50:01Z</time></trkpt><trkpt lat="43.191254141713294" lon="10.72572584881905"><ele>314.3333333333333</ele><time>2026-05-01T14:50:05Z</time></trkpt><trkpt lat="43.19120064992056" lon="10.725633861177903"><ele>316.66666666666663</ele><time>2026-05-01T14:50:15Z</time></trkpt><trkpt lat="43.19113334450733" lon="10.725608968907704"><ele>319.0</ele><time>2026-05-01T14:50:17Z</time></trkpt><trkpt lat="43.19104459096497" lon="10.725572472286016"><ele>319.0</ele><time>2026-05-01T14:50:19Z</time></trkpt><trkpt lat="43.19094154069323" lon="10.725577321111613"><ele>319.0</ele><time>2026-05-01T14:50:21Z</time></trkpt><trkpt lat="43.190863361392985" lon="10.725591808159932"><ele>319.0</ele><time>2026-05-01T14:50:24Z</time></trkpt><trkpt lat="43.190776437260645" lon="10.725659287592816"><ele>319.0</ele><time>2026-05-01T14:50:27Z</time></trkpt><trkpt lat="43.190716454275645" lon="10.725717566771458"><ele>319.0</ele><time>2026-05-01T14:50:30Z</time></trkpt><trkpt lat="43.190671506640264" lon="10.725644417538767"><ele>319.0</ele><time>2026-05-01T14:51:26Z</time></trkpt><trkpt lat="43.190626103628816" lon="10.725533414155635"><ele>319.0</ele><time>2026-05-01T14:53:36Z</time></trkpt><trkpt lat="43.190648152985936" lon="10.725622086513765"><ele>319.0</ele><time>2026-05-01T14:54:51Z</time></trkpt><trkpt lat="43.19067685422964" lon="10.725702442027693"><ele>319.0</ele><time>2026-05-01T14:55:00Z</time></trkpt><trkpt lat="43.190739255335544" lon="10.725716080549862"><ele>319.0</ele><time>2026-05-01T14:55:31Z</time></trkpt><trkpt lat="43.19069202852134" lon="10.725648224881"><ele>319.0</ele><time>2026-05-01T14:55:55Z</time></trkpt><trkpt lat="43.19066647772231" lon="10.725560863485653"><ele>319.0</ele><time>2026-05-01T14:55:59Z</time></trkpt><trkpt lat="43.19066356115067" lon="10.725419844922282"><ele>319.0</ele><time>2026-05-01T14:56:02Z</time></trkpt><trkpt lat="43.190661871857614" lon="10.725299133713277"><ele>321.5</ele><time>2026-05-01T14:56:04Z</time></trkpt><trkpt lat="43.19070278169133" lon="10.725168145176985"><ele>324.0</ele><time>2026-05-01T14:56:06Z</time></trkpt><trkpt lat="43.19073635079227" lon="10.725094571042396"><ele>326.5</ele><time>2026-05-01T14:56:07Z</time></trkpt><trkpt lat="43.19079153981492" lon="10.724965545443489"><ele>329.0</ele><time>2026-05-01T14:56:09Z</time></trkpt><trkpt lat="43.19085176832243" lon="10.724902516631275"><ele>331.5</ele><time>2026-05-01T14:56:11Z</time></trkpt><trkpt lat="43.190915129446246" lon="10.724846152903801"><ele>334.0</ele><time>2026-05-01T14:56:15Z</time></trkpt><trkpt lat="43.190977290864836" lon="10.724809146444903"><ele>334.0</ele><time>2026-05-01T14:56:17Z</time></trkpt><trkpt lat="43.191054395738504" lon="10.72477971371753"><ele>334.0</ele><time>2026-05-01T14:56:19Z</time></trkpt><trkpt lat="43.191123826562475" lon="10.724740549871376"><ele>334.0</ele><time>2026-05-01T14:56:22Z</time></trkpt><trkpt lat="43.19117901453847" lon="10.72466676300213"><ele>334.0</ele><time>2026-05-01T14:56:25Z</time></trkpt><trkpt lat="43.19118233061288" lon="10.724578054776826"><ele>334.0</ele><time>2026-05-01T14:56:27Z</time></trkpt><trkpt lat="43.191159437959776" lon="10.724490398840286"><ele>334.0</ele><time>2026-05-01T14:56:28Z</time></trkpt><trkpt lat="43.191121045563385" lon="10.724417915125658"><ele>334.0</ele><time>2026-05-01T14:56:29Z</time></trkpt><trkpt lat="43.19103529533067" lon="10.724310911930091"><ele>336.16666666666663</ele><time>2026-05-01T14:56:31Z</time></trkpt><trkpt lat="43.19098650383888" lon="10.724185182773521"><ele>338.3333333333333</ele><time>2026-05-01T14:56:33Z</time></trkpt><trkpt lat="43.190970787232914" lon="10.72409095123146"><ele>340.5</ele><time>2026-05-01T14:56:34Z</time></trkpt><trkpt lat="43.19098766159619" lon="10.723935849594714"><ele>342.6666666666667</ele><time>2026-05-01T14:56:36Z</time></trkpt><trkpt lat="43.19100534129154" lon="10.723838592462586"><ele>344.83333333333337</ele><time>2026-05-01T14:56:38Z</time></trkpt><trkpt lat="43.19099037638952" lon="10.723732003929841"><ele>347.0</ele><time>2026-05-01T14:56:40Z</time></trkpt><trkpt lat="43.19099302582167" lon="10.72364054724347"><ele>348.0</ele><time>2026-05-01T14:56:41Z</time></trkpt><trkpt lat="43.190994881265496" lon="10.723553292902695"><ele>349.0</ele><time>2026-05-01T14:56:42Z</time></trkpt><trkpt lat="43.19101219900031" lon="10.723409289880678"><ele>350.0</ele><time>2026-05-01T14:56:44Z</time></trkpt><trkpt lat="43.19103860534622" lon="10.72332459395844"><ele>351.0</ele><time>2026-05-01T14:56:46Z</time></trkpt><trkpt lat="43.191037028459945" lon="10.723177427199936"><ele>352.0</ele><time>2026-05-01T14:56:49Z</time></trkpt><trkpt lat="43.19101282334135" lon="10.72306789377074"><ele>353.0</ele><time>2026-05-01T14:56:51Z</time></trkpt><trkpt lat="43.19096868217368" lon="10.722995449522122"><ele>353.0</ele><time>2026-05-01T14:56:53Z</time></trkpt><trkpt lat="43.190918917508164" lon="10.722897847167093"><ele>353.0</ele><time>2026-05-01T14:56:55Z</time></trkpt><trkpt lat="43.190869621780635" lon="10.72279564104763"><ele>353.0</ele><time>2026-05-01T14:56:57Z</time></trkpt><trkpt lat="43.190834672067304" lon="10.722682485316458"><ele>353.0</ele><time>2026-05-01T14:56:59Z</time></trkpt><trkpt lat="43.19080837532407" lon="10.722584320577658"><ele>353.0</ele><time>2026-05-01T14:57:01Z</time></trkpt><trkpt lat="43.19078399172528" lon="10.72246598709607"><ele>353.0</ele><time>2026-05-01T14:57:03Z</time></trkpt><trkpt lat="43.19072614967667" lon="10.722330387157546"><ele>356.0</ele><time>2026-05-01T14:57:05Z</time></trkpt><trkpt lat="43.19066439742784" lon="10.72220327327087"><ele>359.0</ele><time>2026-05-01T14:57:07Z</time></trkpt><trkpt lat="43.19060917440631" lon="10.722064679991995"><ele>362.0</ele><time>2026-05-01T14:57:09Z</time></trkpt><trkpt lat="43.19058234715675" lon="10.721937932154214"><ele>365.0</ele><time>2026-05-01T14:57:11Z</time></trkpt><trkpt lat="43.190562202371744" lon="10.721818403162363"><ele>368.0</ele><time>2026-05-01T14:57:14Z</time></trkpt><trkpt lat="43.190545795587276" lon="10.72172484110187"><ele>369.5</ele><time>2026-05-01T14:57:16Z</time></trkpt><trkpt lat="43.19053124619171" lon="10.721610079844625"><ele>371.0</ele><time>2026-05-01T14:57:18Z</time></trkpt><trkpt lat="43.19052244978574" lon="10.721518673743322"><ele>372.5</ele><time>2026-05-01T14:57:20Z</time></trkpt><trkpt lat="43.19049535130678" lon="10.721408881746557"><ele>374.0</ele><time>2026-05-01T14:57:23Z</time></trkpt><trkpt lat="43.1904727503382" lon="10.72131648753191"><ele>375.5</ele><time>2026-05-01T14:57:25Z</time></trkpt><trkpt lat="43.19045228861272" lon="10.72122358695209"><ele>377.0</ele><time>2026-05-01T14:57:27Z</time></trkpt><trkpt lat="43.19043602545322" lon="10.721076714350826"><ele>377.5</ele><time>2026-05-01T14:57:29Z</time></trkpt><trkpt lat="43.1904157923165" lon="10.720946416753023"><ele>378.0</ele><time>2026-05-01T14:57:31Z</time></trkpt><trkpt lat="43.19040076458386" lon="10.720856362868131"><ele>378.5</ele><time>2026-05-01T14:57:32Z</time></trkpt><trkpt lat="43.190381991804344" lon="10.720765975023149"><ele>379.0</ele><time>2026-05-01T14:57:33Z</time></trkpt><trkpt lat="43.190362419533095" lon="10.720613743720406"><ele>379.5</ele><time>2026-05-01T14:57:35Z</time></trkpt><trkpt lat="43.190353051264026" lon="10.720527604349064"><ele>380.0</ele><time>2026-05-01T14:57:36Z</time></trkpt><trkpt lat="43.19034460162942" lon="10.720421391545306"><ele>380.0</ele><time>2026-05-01T14:57:37Z</time></trkpt><trkpt lat="43.1903045409978" lon="10.72028126557371"><ele>380.0</ele><time>2026-05-01T14:57:39Z</time></trkpt><trkpt lat="43.190197299951514" lon="10.720168727826628"><ele>380.0</ele><time>2026-05-01T14:57:41Z</time></trkpt><trkpt lat="43.1901362755218" lon="10.720104792288279"><ele>380.0</ele><time>2026-05-01T14:57:42Z</time></trkpt><trkpt lat="43.19008353215693" lon="10.720024839870403"><ele>380.0</ele><time>2026-05-01T14:57:43Z</time></trkpt><trkpt lat="43.19002755298995" lon="10.71996041892441"><ele>380.6</ele><time>2026-05-01T14:57:44Z</time></trkpt><trkpt lat="43.1899117210724" lon="10.719879850029523"><ele>381.2</ele><time>2026-05-01T14:57:46Z</time></trkpt><trkpt lat="43.18984245815192" lon="10.719821000517381"><ele>381.79999999999995</ele><time>2026-05-01T14:57:47Z</time></trkpt><trkpt lat="43.189770588813836" lon="10.719741992739408"><ele>382.4</ele><time>2026-05-01T14:57:48Z</time></trkpt><trkpt lat="43.18968528975236" lon="10.719654892414226"><ele>383.0</ele><time>2026-05-01T14:57:49Z</time></trkpt><trkpt lat="43.18960714592128" lon="10.719572747249671"><ele>383.4</ele><time>2026-05-01T14:57:50Z</time></trkpt><trkpt lat="43.18954900239174" lon="10.719489539901513"><ele>383.79999999999995</ele><time>2026-05-01T14:57:51Z</time></trkpt><trkpt lat="43.189492883208054" lon="10.719394958552249"><ele>384.2</ele><time>2026-05-01T14:57:52Z</time></trkpt><trkpt lat="43.18943442379049" lon="10.719295965798059"><ele>384.6</ele><time>2026-05-01T14:57:53Z</time></trkpt><trkpt lat="43.18936787341762" lon="10.719188262939845"><ele>385.0</ele><time>2026-05-01T14:57:54Z</time></trkpt><trkpt lat="43.18930579328776" lon="10.719086171012759"><ele>385.4</ele><time>2026-05-01T14:57:55Z</time></trkpt><trkpt lat="43.189252302447144" lon="10.718994487019382"><ele>385.8</ele><time>2026-05-01T14:57:56Z</time></trkpt><trkpt lat="43.1891982828013" lon="10.718900889868001"><ele>386.20000000000005</ele><time>2026-05-01T14:57:57Z</time></trkpt><trkpt lat="43.189128503008725" lon="10.71880995989983"><ele>386.6</ele><time>2026-05-01T14:57:58Z</time></trkpt><trkpt lat="43.18904460121028" lon="10.718732005453042"><ele>387.0</ele><time>2026-05-01T14:57:59Z</time></trkpt><trkpt lat="43.18897065292798" lon="10.718637616021404"><ele>388.8333333333333</ele><time>2026-05-01T14:58:00Z</time></trkpt><trkpt lat="43.188908033668135" lon="10.718534430069566"><ele>390.66666666666663</ele><time>2026-05-01T14:58:01Z</time></trkpt><trkpt lat="43.18885148032107" lon="10.718439600696222"><ele>392.5</ele><time>2026-05-01T14:58:02Z</time></trkpt><trkpt lat="43.18879651038434" lon="10.71836097610881"><ele>394.3333333333333</ele><time>2026-05-01T14:58:03Z</time></trkpt><trkpt lat="43.18873500445432" lon="10.718285122186611"><ele>396.16666666666663</ele><time>2026-05-01T14:58:04Z</time></trkpt><trkpt lat="43.18868103703683" lon="10.718203204504198"><ele>398.0</ele><time>2026-05-01T14:58:05Z</time></trkpt><trkpt lat="43.18864581185126" lon="10.71812274694914"><ele>397.99999999999994</ele><time>2026-05-01T14:58:06Z</time></trkpt><trkpt lat="43.18861721470666" lon="10.718038028831288"><ele>398.0</ele><time>2026-05-01T14:58:07Z</time></trkpt><trkpt lat="43.18858851451877" lon="10.717953162528897"><ele>398.0</ele><time>2026-05-01T14:58:08Z</time></trkpt><trkpt lat="43.18852140102056" lon="10.717814660109951"><ele>398.0</ele><time>2026-05-01T14:58:10Z</time></trkpt><trkpt lat="43.18847358588638" lon="10.717748739453912"><ele>397.99999999999994</ele><time>2026-05-01T14:58:11Z</time></trkpt><trkpt lat="43.18842760180955" lon="10.717678593348417"><ele>398.0</ele><time>2026-05-01T14:58:12Z</time></trkpt><trkpt lat="43.18837678305984" lon="10.717601645249959"><ele>397.66666666666663</ele><time>2026-05-01T14:58:13Z</time></trkpt><trkpt lat="43.18831546379802" lon="10.71754216046764"><ele>397.3333333333333</ele><time>2026-05-01T14:58:14Z</time></trkpt><trkpt lat="43.18825838109725" lon="10.717454670803587"><ele>397.0</ele><time>2026-05-01T14:58:15Z</time></trkpt><trkpt lat="43.18817759464153" lon="10.717348379357352"><ele>396.66666666666663</ele><time>2026-05-01T14:58:17Z</time></trkpt><trkpt lat="43.188131509458266" lon="10.71728717715454"><ele>396.3333333333333</ele><time>2026-05-01T14:58:18Z</time></trkpt><trkpt lat="43.18807867766508" lon="10.717211715055782"><ele>396.0</ele><time>2026-05-01T14:58:19Z</time></trkpt><trkpt lat="43.188010344412916" lon="10.717110262692964"><ele>396.0</ele><time>2026-05-01T14:58:20Z</time></trkpt><trkpt lat="43.187937852474136" lon="10.717013955551923"><ele>396.0</ele><time>2026-05-01T14:58:21Z</time></trkpt><trkpt lat="43.187879870964466" lon="10.716940369105558"><ele>396.0</ele><time>2026-05-01T14:58:22Z</time></trkpt><trkpt lat="43.18781765828876" lon="10.716866873964278"><ele>396.0</ele><time>2026-05-01T14:58:23Z</time></trkpt><trkpt lat="43.18775592552387" lon="10.716783993457172"><ele>396.0</ele><time>2026-05-01T14:58:24Z</time></trkpt><trkpt lat="43.187694739558665" lon="10.716704354010302"><ele>396.0</ele><time>2026-05-01T14:58:25Z</time></trkpt><trkpt lat="43.18762756263116" lon="10.716625803544483"><ele>397.3333333333333</ele><time>2026-05-01T14:58:26Z</time></trkpt><trkpt lat="43.187570150515434" lon="10.716542805205737"><ele>398.66666666666663</ele><time>2026-05-01T14:58:27Z</time></trkpt><trkpt lat="43.187516179271505" lon="10.7164569828951"><ele>400.0</ele><time>2026-05-01T14:58:28Z</time></trkpt><trkpt lat="43.18746174468586" lon="10.716374434795515"><ele>401.3333333333333</ele><time>2026-05-01T14:58:29Z</time></trkpt><trkpt lat="43.18739828620649" lon="10.716302219395478"><ele>402.66666666666663</ele><time>2026-05-01T14:58:30Z</time></trkpt><trkpt lat="43.187342023860076" lon="10.716238339839787"><ele>404.0</ele><time>2026-05-01T14:58:31Z</time></trkpt><trkpt lat="43.18728671788839" lon="10.71616662156049"><ele>404.0</ele><time>2026-05-01T14:58:32Z</time></trkpt><trkpt lat="43.18723974889431" lon="10.71609874770112"><ele>404.0</ele><time>2026-05-01T14:58:33Z</time></trkpt><trkpt lat="43.18715355408893" lon="10.715959666069846"><ele>404.0</ele><time>2026-05-01T14:58:35Z</time></trkpt><trkpt lat="43.187104749469796" lon="10.715870252301974"><ele>404.0</ele><time>2026-05-01T14:58:36Z</time></trkpt><trkpt lat="43.18707284339599" lon="10.715786254483957"><ele>404.0</ele><time>2026-05-01T14:58:37Z</time></trkpt><trkpt lat="43.18703006245398" lon="10.715621556427754"><ele>406.66666666666663</ele><time>2026-05-01T14:58:39Z</time></trkpt><trkpt lat="43.186999822625765" lon="10.71552486133752"><ele>409.3333333333333</ele><time>2026-05-01T14:58:40Z</time></trkpt><trkpt lat="43.18696764295785" lon="10.715420497005965"><ele>412.0</ele><time>2026-05-01T14:58:41Z</time></trkpt><trkpt lat="43.1869308264638" lon="10.715330857712827"><ele>414.66666666666663</ele><time>2026-05-01T14:58:42Z</time></trkpt><trkpt lat="43.18683436299611" lon="10.715238150913153"><ele>417.3333333333333</ele><time>2026-05-01T14:58:44Z</time></trkpt><trkpt lat="43.18675199853241" lon="10.715225846123536"><ele>420.0</ele><time>2026-05-01T14:58:45Z</time></trkpt><trkpt lat="43.18665777572958" lon="10.715223662308775"><ele>420.5</ele><time>2026-05-01T14:58:46Z</time></trkpt><trkpt lat="43.186575433706366" lon="10.715204591896901"><ele>421.0</ele><time>2026-05-01T14:58:47Z</time></trkpt><trkpt lat="43.18649060154191" lon="10.71517624811116"><ele>421.5</ele><time>2026-05-01T14:58:48Z</time></trkpt><trkpt lat="43.1864028532022" lon="10.715148641019612"><ele>422.0</ele><time>2026-05-01T14:58:49Z</time></trkpt><trkpt lat="43.1863309665292" lon="10.715105870985356"><ele>422.5</ele><time>2026-05-01T14:58:50Z</time></trkpt><trkpt lat="43.18625797823862" lon="10.715057559460531"><ele>423.0</ele><time>2026-05-01T14:58:51Z</time></trkpt><trkpt lat="43.186185550637816" lon="10.714977169536107"><ele>423.4</ele><time>2026-05-01T14:58:52Z</time></trkpt><trkpt lat="43.18612453764962" lon="10.714873335117257"><ele>423.79999999999995</ele><time>2026-05-01T14:58:53Z</time></trkpt><trkpt lat="43.18609671334473" lon="10.714713168933667"><ele>424.2</ele><time>2026-05-01T14:58:54Z</time></trkpt><trkpt lat="43.186033307183756" lon="10.714638985930243"><ele>424.6</ele><time>2026-05-01T14:58:55Z</time></trkpt><trkpt lat="43.185969106476456" lon="10.714557686517097"><ele>425.0</ele><time>2026-05-01T14:58:56Z</time></trkpt><trkpt lat="43.18592158914592" lon="10.714499789380765"><ele>424.99999999999994</ele><time>2026-05-01T14:58:57Z</time></trkpt><trkpt lat="43.18585773944075" lon="10.71446333840954"><ele>425.0</ele><time>2026-05-01T14:59:00Z</time></trkpt><trkpt lat="43.185790464571454" lon="10.714368138996216"><ele>425.0</ele><time>2026-05-01T14:59:07Z</time></trkpt><trkpt lat="43.185704256689405" lon="10.714379885876713"><ele>425.0</ele><time>2026-05-01T14:59:09Z</time></trkpt><trkpt lat="43.18572891876197" lon="10.71427990453398"><ele>424.99999999999994</ele><time>2026-05-01T14:59:36Z</time></trkpt><trkpt lat="43.1856823883223" lon="10.71435166640474"><ele>425.0</ele><time>2026-05-01T15:01:12Z</time></trkpt><trkpt lat="43.185591408079034" lon="10.714383153477005"><ele>427.4</ele><time>2026-05-01T15:01:15Z</time></trkpt><trkpt lat="43.185456094484316" lon="10.714375072278278"><ele>429.8</ele><time>2026-05-01T15:01:17Z</time></trkpt><trkpt lat="43.18537715708695" lon="10.714362555110215"><ele>432.20000000000005</ele><time>2026-05-01T15:01:18Z</time></trkpt><trkpt lat="43.18530649842655" lon="10.714323960667496"><ele>434.6</ele><time>2026-05-01T15:01:19Z</time></trkpt><trkpt lat="43.18519319235798" lon="10.714280646466815"><ele>437.0</ele><time>2026-05-01T15:01:21Z</time></trkpt><trkpt lat="43.18506299616617" lon="10.714244053268608"><ele>436.99999999999994</ele><time>2026-05-01T15:01:23Z</time></trkpt><trkpt lat="43.18500210896771" lon="10.71420111556753"><ele>437.0</ele><time>2026-05-01T15:01:24Z</time></trkpt><trkpt lat="43.184895677923876" lon="10.714174811129741"><ele>437.0</ele><time>2026-05-01T15:01:26Z</time></trkpt><trkpt lat="43.18482388897139" lon="10.714162500556412"><ele>437.0</ele><time>2026-05-01T15:01:27Z</time></trkpt><trkpt lat="43.18475195291251" lon="10.71414315325716"><ele>436.99999999999994</ele><time>2026-05-01T15:01:28Z</time></trkpt><trkpt lat="43.18468060459846" lon="10.714134929035467"><ele>437.0</ele><time>2026-05-01T15:01:29Z</time></trkpt><trkpt lat="43.18461385822846" lon="10.714142886591295"><ele>438.0</ele><time>2026-05-01T15:01:30Z</time></trkpt><trkpt lat="43.18455345938703" lon="10.71417049455823"><ele>439.00000000000006</ele><time>2026-05-01T15:01:31Z</time></trkpt><trkpt lat="43.18448368876442" lon="10.714168736562103"><ele>440.00000000000006</ele><time>2026-05-01T15:01:32Z</time></trkpt><trkpt lat="43.18435545870308" lon="10.714211009033924"><ele>441.0</ele><time>2026-05-01T15:01:34Z</time></trkpt><trkpt lat="43.184260747052704" lon="10.714279833677677"><ele>442.0</ele><time>2026-05-01T15:01:36Z</time></trkpt><trkpt lat="43.18418335641421" lon="10.7143061603066"><ele>442.0</ele><time>2026-05-01T15:01:39Z</time></trkpt><trkpt lat="43.18409677235151" lon="10.714357973474348"><ele>442.0</ele><time>2026-05-01T15:01:42Z</time></trkpt><trkpt lat="43.184211937287834" lon="10.714286171618314"><ele>442.0</ele><time>2026-05-01T15:01:50Z</time></trkpt><trkpt lat="43.18428282971171" lon="10.714221715058795"><ele>442.0</ele><time>2026-05-01T15:01:52Z</time></trkpt><trkpt lat="43.18428933186906" lon="10.713962434661315"><ele>442.0</ele><time>2026-05-01T15:01:53Z</time></trkpt><trkpt lat="43.18435788260576" lon="10.713839428714206"><ele>442.00000000000006</ele><time>2026-05-01T15:01:55Z</time></trkpt><trkpt lat="43.1844079919496" lon="10.713705010325791"><ele>442.00000000000006</ele><time>2026-05-01T15:01:57Z</time></trkpt><trkpt lat="43.18446198415655" lon="10.713566965558286"><ele>442.0</ele><time>2026-05-01T15:01:59Z</time></trkpt><trkpt lat="43.18450986204342" lon="10.713493304848043"><ele>442.0</ele><time>2026-05-01T15:02:01Z</time></trkpt><trkpt lat="43.18456271378364" lon="10.713355727485439"><ele>443.40000000000003</ele><time>2026-05-01T15:02:04Z</time></trkpt><trkpt lat="43.184563950945666" lon="10.71323865429776"><ele>444.80000000000007</ele><time>2026-05-01T15:02:05Z</time></trkpt><trkpt lat="43.1845270593871" lon="10.71313576701066"><ele>446.2</ele><time>2026-05-01T15:02:07Z</time></trkpt><trkpt lat="43.18446992572441" lon="10.71302385320742"><ele>447.6</ele><time>2026-05-01T15:02:10Z</time></trkpt><trkpt lat="43.184390402413044" lon="10.712932490713749"><ele>449.0</ele><time>2026-05-01T15:02:12Z</time></trkpt><trkpt lat="43.18431164160288" lon="10.71283794252956"><ele>448.99999999999994</ele><time>2026-05-01T15:02:14Z</time></trkpt><trkpt lat="43.18426482514169" lon="10.712767384957273"><ele>449.0</ele><time>2026-05-01T15:02:16Z</time></trkpt><trkpt lat="43.18423166332122" lon="10.712656794095741"><ele>449.0</ele><time>2026-05-01T15:02:19Z</time></trkpt><trkpt lat="43.18421850228285" lon="10.712567880521137"><ele>449.0</ele><time>2026-05-01T15:02:21Z</time></trkpt><trkpt lat="43.18419533333268" lon="10.712397929481517"><ele>448.99999999999994</ele><time>2026-05-01T15:02:23Z</time></trkpt><trkpt lat="43.18417839742542" lon="10.712281478395756"><ele>449.0</ele><time>2026-05-01T15:02:24Z</time></trkpt><trkpt lat="43.184160532506986" lon="10.712173685896651"><ele>448.85714285714283</ele><time>2026-05-01T15:02:25Z</time></trkpt><trkpt lat="43.18414204604819" lon="10.712076444638578"><ele>448.71428571428567</ele><time>2026-05-01T15:02:27Z</time></trkpt><trkpt lat="43.18411699970126" lon="10.711962735005615"><ele>448.57142857142856</ele><time>2026-05-01T15:02:29Z</time></trkpt><trkpt lat="43.184094737922564" lon="10.711871301948351"><ele>448.42857142857144</ele><time>2026-05-01T15:02:31Z</time></trkpt><trkpt lat="43.18405717505151" lon="10.71180076868763"><ele>448.2857142857143</ele><time>2026-05-01T15:02:33Z</time></trkpt><trkpt lat="43.184050629031724" lon="10.711706234974365"><ele>448.1428571428571</ele><time>2026-05-01T15:02:48Z</time></trkpt><trkpt lat="43.184009374531314" lon="10.711614003717955"><ele>448.0</ele><time>2026-05-01T15:02:50Z</time></trkpt><trkpt lat="43.18397600881998" lon="10.711502388034143"><ele>449.00000000000006</ele><time>2026-05-01T15:02:52Z</time></trkpt><trkpt lat="43.1839362689853" lon="10.711390447597235"><ele>450.0</ele><time>2026-05-01T15:02:54Z</time></trkpt><trkpt lat="43.183892799628204" lon="10.711280131958004"><ele>451.0</ele><time>2026-05-01T15:02:56Z</time></trkpt><trkpt lat="43.18385026855017" lon="10.711136342413598"><ele>452.0</ele><time>2026-05-01T15:02:58Z</time></trkpt><trkpt lat="43.183832873125375" lon="10.711049216606222"><ele>453.00000000000006</ele><time>2026-05-01T15:02:59Z</time></trkpt><trkpt lat="43.18381731240137" lon="10.710964470540379"><ele>454.0</ele><time>2026-05-01T15:03:00Z</time></trkpt><trkpt lat="43.18376889116202" lon="10.710788073905936"><ele>454.00000000000006</ele><time>2026-05-01T15:03:02Z</time></trkpt><trkpt lat="43.1837376009801" lon="10.710702260367748"><ele>454.0</ele><time>2026-05-01T15:03:03Z</time></trkpt><trkpt lat="43.18371004925052" lon="10.710611896155962"><ele>454.0</ele><time>2026-05-01T15:03:04Z</time></trkpt><trkpt lat="43.183686744396375" lon="10.710526941322895"><ele>454.0</ele><time>2026-05-01T15:03:05Z</time></trkpt><trkpt lat="43.18369487096782" lon="10.710379956108612"><ele>454.00000000000006</ele><time>2026-05-01T15:03:07Z</time></trkpt><trkpt lat="43.183698192138095" lon="10.710267217851229"><ele>454.0</ele><time>2026-05-01T15:03:09Z</time></trkpt><trkpt lat="43.183771244440656" lon="10.710154060058075"><ele>453.79999999999995</ele><time>2026-05-01T15:03:11Z</time></trkpt><trkpt lat="43.1838457493952" lon="10.710067674353697"><ele>453.59999999999997</ele><time>2026-05-01T15:03:13Z</time></trkpt><trkpt lat="43.18394029374919" lon="10.709981463184757"><ele>453.4</ele><time>2026-05-01T15:03:15Z</time></trkpt><trkpt lat="43.183999050925074" lon="10.709930243398873"><ele>453.2</ele><time>2026-05-01T15:03:16Z</time></trkpt><trkpt lat="43.18408087375641" lon="10.70986558003568"><ele>453.0</ele><time>2026-05-01T15:03:18Z</time></trkpt><trkpt lat="43.184168179186265" lon="10.709798690380273"><ele>452.4</ele><time>2026-05-01T15:03:20Z</time></trkpt><trkpt lat="43.18423347221366" lon="10.709741818166995"><ele>451.79999999999995</ele><time>2026-05-01T15:03:21Z</time></trkpt><trkpt lat="43.184325333583615" lon="10.70964753727619"><ele>451.2</ele><time>2026-05-01T15:03:23Z</time></trkpt><trkpt lat="43.18441952023867" lon="10.709547898850316"><ele>450.6</ele><time>2026-05-01T15:03:25Z</time></trkpt><trkpt lat="43.18449154241471" lon="10.709473404387563"><ele>450.0</ele><time>2026-05-01T15:03:28Z</time></trkpt><trkpt lat="43.184544844783254" lon="10.709423797303023"><ele>451.0</ele><time>2026-05-01T15:03:30Z</time></trkpt><trkpt lat="43.18458020099857" lon="10.709343115904733"><ele>452.0</ele><time>2026-05-01T15:03:32Z</time></trkpt><trkpt lat="43.184239359200625" lon="10.70861770950225"><ele>451.20000000000005</ele><time>2026-05-01T15:03:33Z</time></trkpt><trkpt lat="43.18420431422472" lon="10.7085368171677"><ele>450.40000000000003</ele><time>2026-05-01T15:03:34Z</time></trkpt><trkpt lat="43.18414477245614" lon="10.70843858162265"><ele>449.59999999999997</ele><time>2026-05-01T15:03:36Z</time></trkpt><trkpt lat="43.18411300120965" lon="10.708330302860478"><ele>448.79999999999995</ele><time>2026-05-01T15:03:38Z</time></trkpt><trkpt lat="43.184079419749004" lon="10.708168510865054"><ele>448.0</ele><time>2026-05-01T15:03:40Z</time></trkpt><trkpt lat="43.18402878157174" lon="10.70807736215385"><ele>448.4</ele><time>2026-05-01T15:03:41Z</time></trkpt><trkpt lat="43.18396888919873" lon="10.707943563214828"><ele>448.79999999999995</ele><time>2026-05-01T15:03:43Z</time></trkpt><trkpt lat="43.183934377819966" lon="10.707817691351007"><ele>449.2</ele><time>2026-05-01T15:03:45Z</time></trkpt><trkpt lat="43.1839079262742" lon="10.707670660955644"><ele>449.6</ele><time>2026-05-01T15:03:47Z</time></trkpt><trkpt lat="43.18389072738522" lon="10.707519710125089"><ele>450.0</ele><time>2026-05-01T15:03:49Z</time></trkpt><trkpt lat="43.18387757890045" lon="10.707433124149086"><ele>449.5</ele><time>2026-05-01T15:03:50Z</time></trkpt><trkpt lat="43.18385796088959" lon="10.707348158475252"><ele>449.0</ele><time>2026-05-01T15:03:51Z</time></trkpt><trkpt lat="43.183836799702505" lon="10.707259781951088"><ele>448.5</ele><time>2026-05-01T15:03:52Z</time></trkpt><trkpt lat="43.18378359012084" lon="10.70711800745732"><ele>448.0</ele><time>2026-05-01T15:03:54Z</time></trkpt><trkpt lat="43.183726719626755" lon="10.707014793183665"><ele>447.5</ele><time>2026-05-01T15:03:56Z</time></trkpt><trkpt lat="43.18367400455438" lon="10.70689779528802"><ele>447.0</ele><time>2026-05-01T15:03:58Z</time></trkpt><trkpt lat="43.1836557294025" lon="10.706761896285805"><ele>447.0</ele><time>2026-05-01T15:04:00Z</time></trkpt><trkpt lat="43.18361897885303" lon="10.706628002111172"><ele>447.00000000000006</ele><time>2026-05-01T15:04:11Z</time></trkpt><trkpt lat="43.183562308338544" lon="10.706481717701594"><ele>447.00000000000006</ele><time>2026-05-01T15:04:13Z</time></trkpt><trkpt lat="43.1835021482987" lon="10.706366268314383"><ele>447.0</ele><time>2026-05-01T15:04:15Z</time></trkpt><trkpt lat="43.18346088779535" lon="10.706221286736563"><ele>447.0</ele><time>2026-05-01T15:04:17Z</time></trkpt><trkpt lat="43.18345188347169" lon="10.706121097490275"><ele>447.5</ele><time>2026-05-01T15:04:18Z</time></trkpt><trkpt lat="43.1834496163433" lon="10.70598867827303"><ele>448.0</ele><time>2026-05-01T15:04:19Z</time></trkpt><trkpt lat="43.18345180625959" lon="10.7058541427785"><ele>448.5</ele><time>2026-05-01T15:04:20Z</time></trkpt><trkpt lat="43.18344906747965" lon="10.705733824540415"><ele>449.0</ele><time>2026-05-01T15:04:21Z</time></trkpt><trkpt lat="43.18343687633868" lon="10.705618559557726"><ele>449.5</ele><time>2026-05-01T15:04:22Z</time></trkpt><trkpt lat="43.18343236715828" lon="10.705514647474404"><ele>450.0</ele><time>2026-05-01T15:04:23Z</time></trkpt><trkpt lat="43.183427853272306" lon="10.705399716327108"><ele>450.0</ele><time>2026-05-01T15:04:24Z</time></trkpt><trkpt lat="43.18342193936475" lon="10.705282553251982"><ele>450.0</ele><time>2026-05-01T15:04:25Z</time></trkpt><trkpt lat="43.18341981833618" lon="10.705167093000183"><ele>450.0</ele><time>2026-05-01T15:04:26Z</time></trkpt><trkpt lat="43.18341333365215" lon="10.705056925417702"><ele>450.0</ele><time>2026-05-01T15:04:27Z</time></trkpt><trkpt lat="43.18340207243051" lon="10.704955954979928"><ele>450.0</ele><time>2026-05-01T15:04:28Z</time></trkpt><trkpt lat="43.18338050012113" lon="10.704793224454699"><ele>450.0</ele><time>2026-05-01T15:04:30Z</time></trkpt><trkpt lat="43.183357937539384" lon="10.704651036283915"><ele>449.6</ele><time>2026-05-01T15:04:32Z</time></trkpt><trkpt lat="43.18330620513052" lon="10.704524602609272"><ele>449.2</ele><time>2026-05-01T15:04:34Z</time></trkpt><trkpt lat="43.183255150291075" lon="10.704415656491301"><ele>448.79999999999995</ele><time>2026-05-01T15:04:36Z</time></trkpt><trkpt lat="43.18322620350597" lon="10.704274210699362"><ele>448.4</ele><time>2026-05-01T15:04:38Z</time></trkpt><trkpt lat="43.18321718257362" lon="10.704132685739852"><ele>448.0</ele><time>2026-05-01T15:04:40Z</time></trkpt><trkpt lat="43.18319633401254" lon="10.704049557227018"><ele>445.1666666666667</ele><time>2026-05-01T15:04:41Z</time></trkpt><trkpt lat="43.183171681583964" lon="10.703965288851837"><ele>442.33333333333337</ele><time>2026-05-01T15:04:42Z</time></trkpt><trkpt lat="43.183148040544005" lon="10.703882704802833"><ele>439.5</ele><time>2026-05-01T15:04:43Z</time></trkpt><trkpt lat="43.18310470174448" lon="10.703738078694645"><ele>436.66666666666663</ele><time>2026-05-01T15:04:45Z</time></trkpt><trkpt lat="43.18304294008289" lon="10.703604697820799"><ele>433.8333333333333</ele><time>2026-05-01T15:04:47Z</time></trkpt><trkpt lat="43.183014742239955" lon="10.703491414426997"><ele>431.0</ele><time>2026-05-01T15:04:49Z</time></trkpt><trkpt lat="43.18295145482203" lon="10.703387134014584"><ele>431.0</ele><time>2026-05-01T15:04:51Z</time></trkpt><trkpt lat="43.18285921912886" lon="10.703316728492812"><ele>431.0</ele><time>2026-05-01T15:04:53Z</time></trkpt><trkpt lat="43.1828106558742" lon="10.703208860923144"><ele>431.0</ele><time>2026-05-01T15:04:55Z</time></trkpt><trkpt lat="43.18278031311401" lon="10.703041724719073"><ele>431.0</ele><time>2026-05-01T15:04:57Z</time></trkpt><trkpt lat="43.182736468604396" lon="10.70295924766652"><ele>431.0</ele><time>2026-05-01T15:04:58Z</time></trkpt><trkpt lat="43.18267829846259" lon="10.7028920378563"><ele>430.99999999999994</ele><time>2026-05-01T15:04:59Z</time></trkpt><trkpt lat="43.182605348750606" lon="10.702849712675471"><ele>431.0</ele><time>2026-05-01T15:05:00Z</time></trkpt><trkpt lat="43.18253940029035" lon="10.702804013573896"><ele>431.0</ele><time>2026-05-01T15:05:01Z</time></trkpt><trkpt lat="43.18249108382475" lon="10.702714412828934"><ele>431.0</ele><time>2026-05-01T15:05:02Z</time></trkpt><trkpt lat="43.182431773165355" lon="10.7025858203058"><ele>430.99999999999994</ele><time>2026-05-01T15:05:03Z</time></trkpt><trkpt lat="43.182367270067225" lon="10.702478470713286"><ele>431.0</ele><time>2026-05-01T15:05:04Z</time></trkpt><trkpt lat="43.18229711936269" lon="10.702409221885716"><ele>431.49999999999994</ele><time>2026-05-01T15:05:05Z</time></trkpt><trkpt lat="43.18223354474511" lon="10.702323751011958"><ele>432.0</ele><time>2026-05-01T15:05:06Z</time></trkpt><trkpt lat="43.18217962396562" lon="10.702219211296443"><ele>432.5</ele><time>2026-05-01T15:05:07Z</time></trkpt><trkpt lat="43.18213091210506" lon="10.702128660987473"><ele>433.0</ele><time>2026-05-01T15:05:08Z</time></trkpt><trkpt lat="43.18209657908384" lon="10.70203103096511"><ele>433.49999999999994</ele><time>2026-05-01T15:05:09Z</time></trkpt><trkpt lat="43.18208011851293" lon="10.70190849095454"><ele>434.0</ele><time>2026-05-01T15:05:10Z</time></trkpt><trkpt lat="43.18206643952375" lon="10.701786000444255"><ele>434.8333333333333</ele><time>2026-05-01T15:05:11Z</time></trkpt><trkpt lat="43.1820469743293" lon="10.70167674509524"><ele>435.66666666666663</ele><time>2026-05-01T15:05:12Z</time></trkpt><trkpt lat="43.18202341191757" lon="10.701570162241543"><ele>436.5</ele><time>2026-05-01T15:05:13Z</time></trkpt><trkpt lat="43.181980945825764" lon="10.701462040364369"><ele>437.33333333333337</ele><time>2026-05-01T15:05:14Z</time></trkpt><trkpt lat="43.18192950013153" lon="10.701360227066361"><ele>438.1666666666667</ele><time>2026-05-01T15:05:15Z</time></trkpt><trkpt lat="43.1818907930293" lon="10.701247715991087"><ele>439.0</ele><time>2026-05-01T15:05:16Z</time></trkpt><trkpt lat="43.18187853046326" lon="10.701146228830453"><ele>439.1428571428571</ele><time>2026-05-01T15:05:17Z</time></trkpt><trkpt lat="43.181851426053484" lon="10.701062047737933"><ele>439.2857142857143</ele><time>2026-05-01T15:05:18Z</time></trkpt><trkpt lat="43.18184715448663" lon="10.700959017491904"><ele>439.42857142857144</ele><time>2026-05-01T15:05:19Z</time></trkpt><trkpt lat="43.18183403496826" lon="10.70086165464562"><ele>439.57142857142856</ele><time>2026-05-01T15:05:20Z</time></trkpt><trkpt lat="43.18180297281883" lon="10.700778910566653"><ele>439.7142857142857</ele><time>2026-05-01T15:05:21Z</time></trkpt><trkpt lat="43.18176421018513" lon="10.700682335370567"><ele>439.85714285714283</ele><time>2026-05-01T15:05:22Z</time></trkpt><trkpt lat="43.18171599488882" lon="10.700586918586495"><ele>440.0</ele><time>2026-05-01T15:05:23Z</time></trkpt><trkpt lat="43.18167639335512" lon="10.700511426682642"><ele>439.99999999999994</ele><time>2026-05-01T15:05:24Z</time></trkpt><trkpt lat="43.18160941298068" lon="10.700383499404555"><ele>440.0</ele><time>2026-05-01T15:05:26Z</time></trkpt><trkpt lat="43.18160184395167" lon="10.700279980978236"><ele>440.0</ele><time>2026-05-01T15:05:27Z</time></trkpt><trkpt lat="43.181590319660465" lon="10.700170669529081"><ele>440.0</ele><time>2026-05-01T15:05:28Z</time></trkpt><trkpt lat="43.181563821236296" lon="10.70008958113409"><ele>439.99999999999994</ele><time>2026-05-01T15:05:29Z</time></trkpt><trkpt lat="43.1815216963594" lon="10.700019342422177"><ele>440.0</ele><time>2026-05-01T15:05:30Z</time></trkpt><trkpt lat="43.181465474822566" lon="10.699934408205408"><ele>439.16666666666663</ele><time>2026-05-01T15:05:31Z</time></trkpt><trkpt lat="43.18140504294484" lon="10.699860909810809"><ele>438.3333333333333</ele><time>2026-05-01T15:05:32Z</time></trkpt><trkpt lat="43.18133893008202" lon="10.699768279849566"><ele>437.5</ele><time>2026-05-01T15:05:33Z</time></trkpt><trkpt lat="43.181281812194506" lon="10.69968757692027"><ele>436.66666666666663</ele><time>2026-05-01T15:05:34Z</time></trkpt><trkpt lat="43.18121653381772" lon="10.699629111483226"><ele>435.8333333333333</ele><time>2026-05-01T15:05:35Z</time></trkpt><trkpt lat="43.181144830894716" lon="10.699571455598612"><ele>435.0</ele><time>2026-05-01T15:05:36Z</time></trkpt><trkpt lat="43.181072105310854" lon="10.699517158865916"><ele>435.0</ele><time>2026-05-01T15:05:37Z</time></trkpt><trkpt lat="43.18100592978973" lon="10.699447201923823"><ele>435.0</ele><time>2026-05-01T15:05:38Z</time></trkpt><trkpt lat="43.1809377642903" lon="10.699379364410898"><ele>435.0</ele><time>2026-05-01T15:05:39Z</time></trkpt><trkpt lat="43.18087103949694" lon="10.69931180467236"><ele>435.0</ele><time>2026-05-01T15:05:40Z</time></trkpt><trkpt lat="43.18081891582398" lon="10.699234973745364"><ele>435.0</ele><time>2026-05-01T15:05:41Z</time></trkpt><trkpt lat="43.18075869525833" lon="10.69916263690616"><ele>435.0</ele><time>2026-05-01T15:05:42Z</time></trkpt><trkpt lat="43.18069331352825" lon="10.699076194808082"><ele>433.4</ele><time>2026-05-01T15:05:43Z</time></trkpt><trkpt lat="43.180634031081446" lon="10.698966672492531"><ele>431.8</ele><time>2026-05-01T15:05:44Z</time></trkpt><trkpt lat="43.18055933408385" lon="10.698863711419579"><ele>430.20000000000005</ele><time>2026-05-01T15:05:45Z</time></trkpt><trkpt lat="43.18049041441679" lon="10.698759443159707"><ele>428.6</ele><time>2026-05-01T15:05:46Z</time></trkpt><trkpt lat="43.1804183692489" lon="10.698686027072123"><ele>427.0</ele><time>2026-05-01T15:05:47Z</time></trkpt><trkpt lat="43.18035215731879" lon="10.698612179914317"><ele>429.20000000000005</ele><time>2026-05-01T15:05:48Z</time></trkpt><trkpt lat="43.18029246883333" lon="10.698537949363885"><ele>431.40000000000003</ele><time>2026-05-01T15:05:49Z</time></trkpt><trkpt lat="43.18023714838295" lon="10.69846810692178"><ele>433.59999999999997</ele><time>2026-05-01T15:05:50Z</time></trkpt><trkpt lat="43.18018968119311" lon="10.698380593440604"><ele>435.79999999999995</ele><time>2026-05-01T15:05:51Z</time></trkpt><trkpt lat="43.18013851051307" lon="10.698206706919839"><ele>438.0</ele><time>2026-05-01T15:05:53Z</time></trkpt><trkpt lat="43.18010035448427" lon="10.698104572167814"><ele>438.0</ele><time>2026-05-01T15:05:54Z</time></trkpt><trkpt lat="43.18005782295133" lon="10.698009760192004"><ele>438.0</ele><time>2026-05-01T15:05:55Z</time></trkpt><trkpt lat="43.17999929055506" lon="10.697900151365529"><ele>438.0</ele><time>2026-05-01T15:05:56Z</time></trkpt><trkpt lat="43.17993571945735" lon="10.697808224676667"><ele>438.0</ele><time>2026-05-01T15:05:57Z</time></trkpt><trkpt lat="43.17987218498689" lon="10.697739807607027"><ele>438.0</ele><time>2026-05-01T15:05:58Z</time></trkpt><trkpt lat="43.17979832834345" lon="10.697685298388665"><ele>438.0</ele><time>2026-05-01T15:05:59Z</time></trkpt><trkpt lat="43.1797237669446" lon="10.697635674414839"><ele>437.6666666666667</ele><time>2026-05-01T15:06:00Z</time></trkpt><trkpt lat="43.179647644566394" lon="10.697593627735888"><ele>437.33333333333337</ele><time>2026-05-01T15:06:01Z</time></trkpt><trkpt lat="43.17956790728386" lon="10.697550387602698"><ele>437.0</ele><time>2026-05-01T15:06:02Z</time></trkpt><trkpt lat="43.179495286247665" lon="10.69750870159571"><ele>436.6666666666667</ele><time>2026-05-01T15:06:03Z</time></trkpt><trkpt lat="43.17941839966001" lon="10.697458884666489"><ele>436.33333333333337</ele><time>2026-05-01T15:06:04Z</time></trkpt><trkpt lat="43.1793284957526" lon="10.697416954954429"><ele>436.0</ele><time>2026-05-01T15:06:05Z</time></trkpt><trkpt lat="43.1792481734159" lon="10.697388798536215"><ele>436.0</ele><time>2026-05-01T15:06:06Z</time></trkpt><trkpt lat="43.17917245099164" lon="10.697351427675546"><ele>436.0</ele><time>2026-05-01T15:06:07Z</time></trkpt><trkpt lat="43.179106814903214" lon="10.697286573581875"><ele>436.0</ele><time>2026-05-01T15:06:08Z</time></trkpt><trkpt lat="43.17905228641514" lon="10.697216297946856"><ele>436.0</ele><time>2026-05-01T15:06:09Z</time></trkpt><trkpt lat="43.17894357373415" lon="10.697137320009787"><ele>436.0</ele><time>2026-05-01T15:06:11Z</time></trkpt><trkpt lat="43.178814042189416" lon="10.697117768913994"><ele>435.14285714285717</ele><time>2026-05-01T15:06:13Z</time></trkpt><trkpt lat="43.178738663753265" lon="10.697106025532273"><ele>434.28571428571433</ele><time>2026-05-01T15:06:14Z</time></trkpt><trkpt lat="43.17865188829156" lon="10.697098309542548"><ele>433.42857142857144</ele><time>2026-05-01T15:06:15Z</time></trkpt><trkpt lat="43.178579620885735" lon="10.697085103850993"><ele>432.57142857142856</ele><time>2026-05-01T15:06:16Z</time></trkpt><trkpt lat="43.178513607326174" lon="10.697099446575809"><ele>431.7142857142857</ele><time>2026-05-01T15:06:17Z</time></trkpt><trkpt lat="43.1784399140069" lon="10.69709644197343"><ele>430.85714285714283</ele><time>2026-05-01T15:06:18Z</time></trkpt><trkpt lat="43.17837411878209" lon="10.697064445378137"><ele>430.0</ele><time>2026-05-01T15:06:19Z</time></trkpt><trkpt lat="43.17826223282886" lon="10.696992922177317"><ele>428.6</ele><time>2026-05-01T15:06:21Z</time></trkpt><trkpt lat="43.17818375334967" lon="10.696944339845995"><ele>427.2</ele><time>2026-05-01T15:06:22Z</time></trkpt><trkpt lat="43.17811639640013" lon="10.69688885751399"><ele>425.79999999999995</ele><time>2026-05-01T15:06:23Z</time></trkpt><trkpt lat="43.17802305743479" lon="10.696847891436615"><ele>424.4</ele><time>2026-05-01T15:06:24Z</time></trkpt><trkpt lat="43.17794990160593" lon="10.696786537297939"><ele>423.0</ele><time>2026-05-01T15:06:25Z</time></trkpt><trkpt lat="43.17785784008093" lon="10.696688487857005"><ele>423.0</ele><time>2026-05-01T15:06:26Z</time></trkpt><trkpt lat="43.1777515847998" lon="10.69660155933759"><ele>423.0</ele><time>2026-05-01T15:06:27Z</time></trkpt><trkpt lat="43.177689406701354" lon="10.696516924618955"><ele>423.0</ele><time>2026-05-01T15:06:28Z</time></trkpt><trkpt lat="43.17763026228904" lon="10.696434223294366"><ele>423.0</ele><time>2026-05-01T15:06:29Z</time></trkpt><trkpt lat="43.177551392708125" lon="10.696354741754604"><ele>423.0</ele><time>2026-05-01T15:06:30Z</time></trkpt><trkpt lat="43.17746388591751" lon="10.6962624833467"><ele>423.0</ele><time>2026-05-01T15:06:31Z</time></trkpt><trkpt lat="43.17739323746816" lon="10.69617014815815"><ele>423.0</ele><time>2026-05-01T15:06:32Z</time></trkpt><trkpt lat="43.177343305473165" lon="10.696073121248943"><ele>423.0</ele><time>2026-05-01T15:06:33Z</time></trkpt><trkpt lat="43.17730868237347" lon="10.695955903175383"><ele>423.0</ele><time>2026-05-01T15:06:34Z</time></trkpt><trkpt lat="43.17727841691317" lon="10.695824858493497"><ele>423.0</ele><time>2026-05-01T15:06:35Z</time></trkpt><trkpt lat="43.17723262838309" lon="10.69568178654856"><ele>421.4</ele><time>2026-05-01T15:06:36Z</time></trkpt><trkpt lat="43.177166114123125" lon="10.695521493217317"><ele>419.79999999999995</ele><time>2026-05-01T15:06:37Z</time></trkpt><trkpt lat="43.17710485586939" lon="10.695389068892931"><ele>418.2</ele><time>2026-05-01T15:06:38Z</time></trkpt><trkpt lat="43.17705031923452" lon="10.695269080487023"><ele>416.6</ele><time>2026-05-01T15:06:39Z</time></trkpt><trkpt lat="43.17700445215836" lon="10.69516522684442"><ele>415.0</ele><time>2026-05-01T15:06:40Z</time></trkpt><trkpt lat="43.17695767492958" lon="10.69507612558065"><ele>414.83333333333337</ele><time>2026-05-01T15:06:41Z</time></trkpt><trkpt lat="43.176894799986805" lon="10.694992136173221"><ele>414.6666666666667</ele><time>2026-05-01T15:06:42Z</time></trkpt><trkpt lat="43.176847807035344" lon="10.694908926754259"><ele>414.5</ele><time>2026-05-01T15:06:43Z</time></trkpt><trkpt lat="43.17679394745878" lon="10.694827128313838"><ele>414.33333333333337</ele><time>2026-05-01T15:06:44Z</time></trkpt><trkpt lat="43.176752999829155" lon="10.694721563946988"><ele>414.1666666666667</ele><time>2026-05-01T15:06:45Z</time></trkpt><trkpt lat="43.17671241219538" lon="10.694618641105997"><ele>414.0</ele><time>2026-05-01T15:06:46Z</time></trkpt><trkpt lat="43.176698907069344" lon="10.694506123951243"><ele>413.3333333333333</ele><time>2026-05-01T15:06:47Z</time></trkpt><trkpt lat="43.17670146471531" lon="10.694386033748959"><ele>412.66666666666663</ele><time>2026-05-01T15:06:48Z</time></trkpt><trkpt lat="43.17670484727889" lon="10.694265457612204"><ele>412.0</ele><time>2026-05-01T15:06:49Z</time></trkpt><trkpt lat="43.17669015492116" lon="10.69414682342642"><ele>411.3333333333333</ele><time>2026-05-01T15:06:50Z</time></trkpt><trkpt lat="43.176665527609536" lon="10.694020262404047"><ele>410.66666666666663</ele><time>2026-05-01T15:06:51Z</time></trkpt><trkpt lat="43.17662959774254" lon="10.6939204279351"><ele>410.0</ele><time>2026-05-01T15:06:52Z</time></trkpt><trkpt lat="43.17658550516113" lon="10.693850496865242"><ele>407.99999999999994</ele><time>2026-05-01T15:06:53Z</time></trkpt><trkpt lat="43.17651653937372" lon="10.693787972035727"><ele>406.0</ele><time>2026-05-01T15:06:54Z</time></trkpt><trkpt lat="43.17644407300533" lon="10.6937476755211"><ele>404.0</ele><time>2026-05-01T15:06:55Z</time></trkpt><trkpt lat="43.176377669081056" lon="10.693720387807868"><ele>402.0</ele><time>2026-05-01T15:06:56Z</time></trkpt><trkpt lat="43.1763181653583" lon="10.69367417680531"><ele>399.99999999999994</ele><time>2026-05-01T15:06:57Z</time></trkpt><trkpt lat="43.1762688631981" lon="10.693596737492435"><ele>398.0</ele><time>2026-05-01T15:06:58Z</time></trkpt><trkpt lat="43.17622231623258" lon="10.69347829902798"><ele>398.0</ele><time>2026-05-01T15:06:59Z</time></trkpt><trkpt lat="43.17616524871801" lon="10.6933600905831"><ele>398.0</ele><time>2026-05-01T15:07:00Z</time></trkpt><trkpt lat="43.176125748072984" lon="10.693278017541708"><ele>398.0</ele><time>2026-05-01T15:07:01Z</time></trkpt><trkpt lat="43.17606196290209" lon="10.693262942187317"><ele>398.0</ele><time>2026-05-01T15:07:06Z</time></trkpt><trkpt lat="43.17604798204356" lon="10.693098065563772"><ele>398.0</ele><time>2026-05-01T15:07:25Z</time></trkpt><trkpt lat="43.17603801369234" lon="10.692945648672268"><ele>397.99999999999994</ele><time>2026-05-01T15:07:27Z</time></trkpt><trkpt lat="43.17601223675771" lon="10.692855693806258"><ele>398.0</ele><time>2026-05-01T15:07:28Z</time></trkpt><trkpt lat="43.175978914175616" lon="10.692774840131115"><ele>398.0</ele><time>2026-05-01T15:07:29Z</time></trkpt><trkpt lat="43.1759393068806" lon="10.692695760147934"><ele>398.0</ele><time>2026-05-01T15:07:30Z</time></trkpt><trkpt lat="43.175899169239635" lon="10.692606550650554"><ele>397.99999999999994</ele><time>2026-05-01T15:07:31Z</time></trkpt><trkpt lat="43.17583990665547" lon="10.692530613497796"><ele>398.0</ele><time>2026-05-01T15:07:32Z</time></trkpt><trkpt lat="43.1757606427728" lon="10.692469305638275"><ele>397.66666666666663</ele><time>2026-05-01T15:07:33Z</time></trkpt><trkpt lat="43.1756999084995" lon="10.69240885561609"><ele>397.3333333333333</ele><time>2026-05-01T15:07:34Z</time></trkpt><trkpt lat="43.175638268951495" lon="10.69236861341898"><ele>397.0</ele><time>2026-05-01T15:07:35Z</time></trkpt><trkpt lat="43.17557569098561" lon="10.6923117178866"><ele>396.66666666666663</ele><time>2026-05-01T15:07:36Z</time></trkpt><trkpt lat="43.175498174134894" lon="10.692253291406162"><ele>396.3333333333333</ele><time>2026-05-01T15:07:37Z</time></trkpt><trkpt lat="43.175430018632355" lon="10.692203437770944"><ele>396.0</ele><time>2026-05-01T15:07:38Z</time></trkpt><trkpt lat="43.1753690731362" lon="10.692161926627342"><ele>394.6666666666667</ele><time>2026-05-01T15:07:39Z</time></trkpt><trkpt lat="43.17526647278705" lon="10.69212821672459"><ele>393.33333333333337</ele><time>2026-05-01T15:07:41Z</time></trkpt><trkpt lat="43.175208260211214" lon="10.692068884857019"><ele>392.0</ele><time>2026-05-01T15:07:42Z</time></trkpt><trkpt lat="43.175151937755324" lon="10.692009774592329"><ele>390.6666666666667</ele><time>2026-05-01T15:07:43Z</time></trkpt><trkpt lat="43.17509647368867" lon="10.691968390619705"><ele>389.33333333333337</ele><time>2026-05-01T15:07:44Z</time></trkpt><trkpt lat="43.17503806825504" lon="10.691911802812768"><ele>388.0</ele><time>2026-05-01T15:07:45Z</time></trkpt><trkpt lat="43.17498628653399" lon="10.691846523619706"><ele>387.0</ele><time>2026-05-01T15:07:46Z</time></trkpt><trkpt lat="43.174915612492796" lon="10.691793961118064"><ele>386.0</ele><time>2026-05-01T15:07:47Z</time></trkpt><trkpt lat="43.17486224661587" lon="10.691740166343328"><ele>385.0</ele><time>2026-05-01T15:07:48Z</time></trkpt><trkpt lat="43.17480142242883" lon="10.691689553683927"><ele>384.0</ele><time>2026-05-01T15:07:49Z</time></trkpt><trkpt lat="43.174741788207534" lon="10.691626446872771"><ele>383.0</ele><time>2026-05-01T15:07:50Z</time></trkpt><trkpt lat="43.17468357181428" lon="10.691558414223879"><ele>382.0</ele><time>2026-05-01T15:07:51Z</time></trkpt><trkpt lat="43.17462304355025" lon="10.691500875928334"><ele>381.0</ele><time>2026-05-01T15:07:52Z</time></trkpt><trkpt lat="43.174562350504836" lon="10.691434365226403"><ele>380.3333333333333</ele><time>2026-05-01T15:07:53Z</time></trkpt><trkpt lat="43.174495348506625" lon="10.69139431930057"><ele>379.6666666666667</ele><time>2026-05-01T15:07:54Z</time></trkpt><trkpt lat="43.17443620396325" lon="10.691349414470189"><ele>379.0</ele><time>2026-05-01T15:07:55Z</time></trkpt><trkpt lat="43.174376752202505" lon="10.69130559267156"><ele>378.33333333333337</ele><time>2026-05-01T15:07:56Z</time></trkpt><trkpt lat="43.174267884407236" lon="10.691240003371705"><ele>377.6666666666667</ele><time>2026-05-01T15:07:58Z</time></trkpt><trkpt lat="43.17419597645104" lon="10.691216872174456"><ele>377.0</ele><time>2026-05-01T15:07:59Z</time></trkpt><trkpt lat="43.17409392535765" lon="10.691175066061009"><ele>375.0</ele><time>2026-05-01T15:08:00Z</time></trkpt><trkpt lat="43.17396704110339" lon="10.691135470130074"><ele>373.0</ele><time>2026-05-01T15:08:01Z</time></trkpt><trkpt lat="43.17382978723015" lon="10.691087601836943"><ele>371.0</ele><time>2026-05-01T15:08:02Z</time></trkpt><trkpt lat="43.17371140252345" lon="10.691052968268254"><ele>369.0</ele><time>2026-05-01T15:08:03Z</time></trkpt><trkpt lat="43.17360767419462" lon="10.691036097479651"><ele>369.0</ele><time>2026-05-01T15:08:04Z</time></trkpt><trkpt lat="43.17351264314553" lon="10.691008986827187"><ele>369.0</ele><time>2026-05-01T15:08:05Z</time></trkpt><trkpt lat="43.173420657324215" lon="10.690988390692706"><ele>369.0</ele><time>2026-05-01T15:08:06Z</time></trkpt><trkpt lat="43.17332896485038" lon="10.690963905923313"><ele>369.0</ele><time>2026-05-01T15:08:07Z</time></trkpt><trkpt lat="43.17325097449" lon="10.690948668781626"><ele>369.0</ele><time>2026-05-01T15:08:08Z</time></trkpt><trkpt lat="43.17317171964782" lon="10.69093594730635"><ele>369.0</ele><time>2026-05-01T15:08:09Z</time></trkpt><trkpt lat="43.17309229677505" lon="10.69090612529006"><ele>367.79999999999995</ele><time>2026-05-01T15:08:10Z</time></trkpt><trkpt lat="43.172992237871384" lon="10.690932144548553"><ele>366.59999999999997</ele><time>2026-05-01T15:08:11Z</time></trkpt><trkpt lat="43.17290433118183" lon="10.6908769848219"><ele>365.4</ele><time>2026-05-01T15:08:12Z</time></trkpt><trkpt lat="43.172823302842296" lon="10.690825760880239"><ele>364.2</ele><time>2026-05-01T15:08:13Z</time></trkpt><trkpt lat="43.17273870922858" lon="10.690772216574702"><ele>363.0</ele><time>2026-05-01T15:08:14Z</time></trkpt><trkpt lat="43.17270595453835" lon="10.690636166742266"><ele>363.0</ele><time>2026-05-01T15:08:15Z</time></trkpt><trkpt lat="43.172635280653544" lon="10.690601637755819"><ele>363.0</ele><time>2026-05-01T15:08:16Z</time></trkpt><trkpt lat="43.17256818039421" lon="10.690566530951413"><ele>363.0</ele><time>2026-05-01T15:08:17Z</time></trkpt><trkpt lat="43.172451857450525" lon="10.690500735698787"><ele>363.0</ele><time>2026-05-01T15:08:19Z</time></trkpt><trkpt lat="43.172387366973105" lon="10.690475739043096"><ele>363.0</ele><time>2026-05-01T15:08:20Z</time></trkpt><trkpt lat="43.17232394778296" lon="10.690445898699178"><ele>363.0</ele><time>2026-05-01T15:08:21Z</time></trkpt><trkpt lat="43.17225495556779" lon="10.690406029132182"><ele>362.6666666666667</ele><time>2026-05-01T15:08:22Z</time></trkpt><trkpt lat="43.17217716485911" lon="10.690364455332722"><ele>362.3333333333333</ele><time>2026-05-01T15:08:23Z</time></trkpt><trkpt lat="43.17209649334128" lon="10.690331425501071"><ele>362.0</ele><time>2026-05-01T15:08:24Z</time></trkpt><trkpt lat="43.17203723345355" lon="10.690301925972848"><ele>361.66666666666663</ele><time>2026-05-01T15:08:25Z</time></trkpt><trkpt lat="43.171973286130346" lon="10.690262886968153"><ele>361.3333333333333</ele><time>2026-05-01T15:08:26Z</time></trkpt><trkpt lat="43.17190688469712" lon="10.690234444937964"><ele>361.0</ele><time>2026-05-01T15:08:27Z</time></trkpt><trkpt lat="43.171807683667616" lon="10.690184781770565"><ele>361.0</ele><time>2026-05-01T15:08:29Z</time></trkpt><trkpt lat="43.17174238349667" lon="10.69018248177594"><ele>361.0</ele><time>2026-05-01T15:08:32Z</time></trkpt><trkpt lat="43.17163912288077" lon="10.690102617148906"><ele>361.0</ele><time>2026-05-01T15:08:54Z</time></trkpt><trkpt lat="43.17157955984883" lon="10.690022613849177"><ele>361.0</ele><time>2026-05-01T15:08:55Z</time></trkpt><trkpt lat="43.171504956311686" lon="10.689930451636922"><ele>361.0</ele><time>2026-05-01T15:08:56Z</time></trkpt><trkpt lat="43.17142622708539" lon="10.689823180620971"><ele>361.5</ele><time>2026-05-01T15:08:57Z</time></trkpt><trkpt lat="43.171341457726975" lon="10.689695679654681"><ele>362.0</ele><time>2026-05-01T15:08:58Z</time></trkpt><trkpt lat="43.171254394019506" lon="10.689574232998028"><ele>362.5</ele><time>2026-05-01T15:08:59Z</time></trkpt><trkpt lat="43.17117245927874" lon="10.689464659934243"><ele>363.0</ele><time>2026-05-01T15:09:00Z</time></trkpt><trkpt lat="43.171099019494235" lon="10.689361207563898"><ele>363.0</ele><time>2026-05-01T15:09:01Z</time></trkpt><trkpt lat="43.171021745515574" lon="10.689273301086779"><ele>363.0</ele><time>2026-05-01T15:09:02Z</time></trkpt><trkpt lat="43.17092553772724" lon="10.68921324937379"><ele>363.0</ele><time>2026-05-01T15:09:03Z</time></trkpt><trkpt lat="43.17082560589241" lon="10.689162453880154"><ele>363.0</ele><time>2026-05-01T15:09:04Z</time></trkpt><trkpt lat="43.170731069014295" lon="10.68911991457997"><ele>363.0</ele><time>2026-05-01T15:09:05Z</time></trkpt><trkpt lat="43.17063900923986" lon="10.68907553907461"><ele>363.0</ele><time>2026-05-01T15:09:06Z</time></trkpt><trkpt lat="43.170549146930156" lon="10.689024979544785"><ele>363.0</ele><time>2026-05-01T15:09:07Z</time></trkpt><trkpt lat="43.170465181021264" lon="10.688969996710696"><ele>363.0</ele><time>2026-05-01T15:09:08Z</time></trkpt><trkpt lat="43.170387446184364" lon="10.688920615097164"><ele>363.0</ele><time>2026-05-01T15:09:09Z</time></trkpt><trkpt lat="43.170317879657674" lon="10.688850305322656"><ele>363.0</ele><time>2026-05-01T15:09:10Z</time></trkpt><trkpt lat="43.17025530754465" lon="10.688770115159231"><ele>363.0</ele><time>2026-05-01T15:09:11Z</time></trkpt><trkpt lat="43.17020210135358" lon="10.688671765102022"><ele>361.59999999999997</ele><time>2026-05-01T15:09:12Z</time></trkpt><trkpt lat="43.170164736425086" lon="10.688555716621666"><ele>360.2</ele><time>2026-05-01T15:09:13Z</time></trkpt><trkpt lat="43.17013810580979" lon="10.688428685475737"><ele>358.8</ele><time>2026-05-01T15:09:14Z</time></trkpt><trkpt lat="43.170114014846106" lon="10.688298900998475"><ele>357.4</ele><time>2026-05-01T15:09:15Z</time></trkpt><trkpt lat="43.17009897593551" lon="10.688176086476224"><ele>356.0</ele><time>2026-05-01T15:09:16Z</time></trkpt><trkpt lat="43.17009317269053" lon="10.688052528667628"><ele>356.0</ele><time>2026-05-01T15:09:17Z</time></trkpt><trkpt lat="43.170076854117404" lon="10.687924722683988"><ele>356.0</ele><time>2026-05-01T15:09:18Z</time></trkpt><trkpt lat="43.170057522528126" lon="10.687797068629209"><ele>356.0</ele><time>2026-05-01T15:09:19Z</time></trkpt><trkpt lat="43.170042343287754" lon="10.687650361342914"><ele>356.0</ele><time>2026-05-01T15:09:20Z</time></trkpt><trkpt lat="43.170034930378186" lon="10.687495466849377"><ele>356.0</ele><time>2026-05-01T15:09:21Z</time></trkpt><trkpt lat="43.170019744056816" lon="10.687318054862434"><ele>354.0</ele><time>2026-05-01T15:09:22Z</time></trkpt><trkpt lat="43.169998689272035" lon="10.687115178019297"><ele>352.0</ele><time>2026-05-01T15:09:23Z</time></trkpt><trkpt lat="43.169978705430296" lon="10.686923606718759"><ele>350.0</ele><time>2026-05-01T15:09:24Z</time></trkpt><trkpt lat="43.1699615316036" lon="10.686743664886235"><ele>348.0</ele><time>2026-05-01T15:09:25Z</time></trkpt><trkpt lat="43.169943359087796" lon="10.686573656417437"><ele>348.4</ele><time>2026-05-01T15:09:26Z</time></trkpt><trkpt lat="43.16992638394604" lon="10.686414319412286"><ele>348.79999999999995</ele><time>2026-05-01T15:09:27Z</time></trkpt><trkpt lat="43.16991290857687" lon="10.686268106081554"><ele>349.2</ele><time>2026-05-01T15:09:28Z</time></trkpt><trkpt lat="43.169900436049" lon="10.68611985400613"><ele>349.6</ele><time>2026-05-01T15:09:29Z</time></trkpt><trkpt lat="43.16988409485334" lon="10.685974059880088"><ele>350.0</ele><time>2026-05-01T15:09:30Z</time></trkpt><trkpt lat="43.16986875509216" lon="10.685833447037238"><ele>349.0</ele><time>2026-05-01T15:09:31Z</time></trkpt><trkpt lat="43.16984503340295" lon="10.685699118375187"><ele>348.0</ele><time>2026-05-01T15:09:32Z</time></trkpt><trkpt lat="43.16980168869719" lon="10.685574913839357"><ele>347.0</ele><time>2026-05-01T15:09:33Z</time></trkpt><trkpt lat="43.169740650325174" lon="10.685461196085575"><ele>346.0</ele><time>2026-05-01T15:09:34Z</time></trkpt><trkpt lat="43.16967988867922" lon="10.685345049354405"><ele>345.0</ele><time>2026-05-01T15:09:35Z</time></trkpt><trkpt lat="43.169577087333444" lon="10.685283552075267"><ele>346.75</ele><time>2026-05-01T15:09:36Z</time></trkpt><trkpt lat="43.16947826942567" lon="10.685214931430645"><ele>348.5</ele><time>2026-05-01T15:09:37Z</time></trkpt><trkpt lat="43.16937376659851" lon="10.685145493063352"><ele>350.25</ele><time>2026-05-01T15:09:38Z</time></trkpt><trkpt lat="43.16926190566376" lon="10.685075506197206"><ele>352.0</ele><time>2026-05-01T15:09:39Z</time></trkpt><trkpt lat="43.16914784723762" lon="10.685011373963091"><ele>352.0</ele><time>2026-05-01T15:09:40Z</time></trkpt><trkpt lat="43.1690331311042" lon="10.684938878589394"><ele>352.0</ele><time>2026-05-01T15:09:41Z</time></trkpt><trkpt lat="43.16892932429281" lon="10.68486879977943"><ele>352.0</ele><time>2026-05-01T15:09:42Z</time></trkpt><trkpt lat="43.168830587927374" lon="10.684808690115814"><ele>352.0</ele><time>2026-05-01T15:09:43Z</time></trkpt><trkpt lat="43.16872840772016" lon="10.684750833348604"><ele>350.6</ele><time>2026-05-01T15:09:44Z</time></trkpt><trkpt lat="43.16862893298539" lon="10.684686672810324"><ele>349.20000000000005</ele><time>2026-05-01T15:09:45Z</time></trkpt><trkpt lat="43.168527136189766" lon="10.684623519275183"><ele>347.8</ele><time>2026-05-01T15:09:46Z</time></trkpt><trkpt lat="43.16842883759444" lon="10.68456548765957"><ele>346.4</ele><time>2026-05-01T15:09:47Z</time></trkpt><trkpt lat="43.16832571245553" lon="10.684509050836699"><ele>345.0</ele><time>2026-05-01T15:09:48Z</time></trkpt><trkpt lat="43.168222815451536" lon="10.684449607791143"><ele>345.8</ele><time>2026-05-01T15:09:49Z</time></trkpt><trkpt lat="43.168123261002975" lon="10.684380081381356"><ele>346.6</ele><time>2026-05-01T15:09:50Z</time></trkpt><trkpt lat="43.168021200794776" lon="10.684310968956373"><ele>347.4</ele><time>2026-05-01T15:09:51Z</time></trkpt><trkpt lat="43.167919458403865" lon="10.684256048955552"><ele>348.2</ele><time>2026-05-01T15:09:52Z</time></trkpt><trkpt lat="43.16782473613872" lon="10.684206139911508"><ele>349.0</ele><time>2026-05-01T15:09:53Z</time></trkpt><trkpt lat="43.167732704571634" lon="10.684154483060219"><ele>349.0</ele><time>2026-05-01T15:09:54Z</time></trkpt><trkpt lat="43.167640550102405" lon="10.684094779504347"><ele>349.0</ele><time>2026-05-01T15:09:55Z</time></trkpt><trkpt lat="43.16755058472999" lon="10.684008569736593"><ele>349.0</ele><time>2026-05-01T15:09:56Z</time></trkpt><trkpt lat="43.16747213904874" lon="10.683897957687561"><ele>349.0</ele><time>2026-05-01T15:09:57Z</time></trkpt><trkpt lat="43.16740702942572" lon="10.683769028094172"><ele>349.0</ele><time>2026-05-01T15:09:58Z</time></trkpt><trkpt lat="43.16735834874622" lon="10.683626657534921"><ele>347.79999999999995</ele><time>2026-05-01T15:09:59Z</time></trkpt><trkpt lat="43.16731246521832" lon="10.683481246277491"><ele>346.59999999999997</ele><time>2026-05-01T15:10:00Z</time></trkpt><trkpt lat="43.1672701715667" lon="10.683343495217336"><ele>345.4</ele><time>2026-05-01T15:10:01Z</time></trkpt><trkpt lat="43.16722927618518" lon="10.683205039914155"><ele>344.2</ele><time>2026-05-01T15:10:02Z</time></trkpt><trkpt lat="43.1671894083306" lon="10.683065087812183"><ele>343.0</ele><time>2026-05-01T15:10:03Z</time></trkpt><trkpt lat="43.167152624301664" lon="10.682928477799798"><ele>343.0</ele><time>2026-05-01T15:10:04Z</time></trkpt><trkpt lat="43.167114358479125" lon="10.682788346076178"><ele>343.0</ele><time>2026-05-01T15:10:05Z</time></trkpt><trkpt lat="43.16707362387226" lon="10.682647938739123"><ele>343.0</ele><time>2026-05-01T15:10:06Z</time></trkpt><trkpt lat="43.167021634977736" lon="10.682520273524649"><ele>343.0</ele><time>2026-05-01T15:10:07Z</time></trkpt><trkpt lat="43.166969981711546" lon="10.682380829282874"><ele>343.0</ele><time>2026-05-01T15:10:08Z</time></trkpt><trkpt lat="43.16687707129302" lon="10.682281339652292"><ele>343.5</ele><time>2026-05-01T15:10:09Z</time></trkpt><trkpt lat="43.16678879547698" lon="10.68217484787917"><ele>344.0</ele><time>2026-05-01T15:10:10Z</time></trkpt><trkpt lat="43.16669326675602" lon="10.6820749435468"><ele>344.5</ele><time>2026-05-01T15:10:11Z</time></trkpt><trkpt lat="43.16659537129194" lon="10.681981020882544"><ele>345.0</ele><time>2026-05-01T15:10:12Z</time></trkpt><trkpt lat="43.16650185010791" lon="10.681887869750998"><ele>342.5</ele><time>2026-05-01T15:10:13Z</time></trkpt><trkpt lat="43.16641944891354" lon="10.681792084587931"><ele>340.0</ele><time>2026-05-01T15:10:14Z</time></trkpt><trkpt lat="43.1663317322205" lon="10.681684881723394"><ele>337.5</ele><time>2026-05-01T15:10:15Z</time></trkpt><trkpt lat="43.16625172505145" lon="10.681560154791617"><ele>335.0</ele><time>2026-05-01T15:10:16Z</time></trkpt><trkpt lat="43.1661858588145" lon="10.681418920210035"><ele>335.0</ele><time>2026-05-01T15:10:17Z</time></trkpt><trkpt lat="43.16613132300389" lon="10.681265524545694"><ele>335.0</ele><time>2026-05-01T15:10:18Z</time></trkpt><trkpt lat="43.16609610208315" lon="10.68110503896815"><ele>335.0</ele><time>2026-05-01T15:10:19Z</time></trkpt><trkpt lat="43.16607500609944" lon="10.680949239336297"><ele>335.0</ele><time>2026-05-01T15:10:20Z</time></trkpt><trkpt lat="43.16605662518537" lon="10.680795362318758"><ele>336.0</ele><time>2026-05-01T15:10:21Z</time></trkpt><trkpt lat="43.16603780560982" lon="10.680640888027192"><ele>337.0</ele><time>2026-05-01T15:10:22Z</time></trkpt><trkpt lat="43.166030415044865" lon="10.68048428705129"><ele>338.0</ele><time>2026-05-01T15:10:23Z</time></trkpt><trkpt lat="43.16603933700369" lon="10.680324452427186"><ele>339.0</ele><time>2026-05-01T15:10:24Z</time></trkpt><trkpt lat="43.16606218785196" lon="10.680168710687795"><ele>339.5</ele><time>2026-05-01T15:10:25Z</time></trkpt><trkpt lat="43.166102867711466" lon="10.680017455364917"><ele>340.0</ele><time>2026-05-01T15:10:26Z</time></trkpt><trkpt lat="43.16614947897536" lon="10.679871146494353"><ele>340.5</ele><time>2026-05-01T15:10:27Z</time></trkpt><trkpt lat="43.16618204403824" lon="10.679725366420747"><ele>341.0</ele><time>2026-05-01T15:10:28Z</time></trkpt><trkpt lat="43.16618809369342" lon="10.679571626344533"><ele>341.6</ele><time>2026-05-01T15:10:29Z</time></trkpt><trkpt lat="43.166181495013795" lon="10.679420653735287"><ele>342.20000000000005</ele><time>2026-05-01T15:10:30Z</time></trkpt><trkpt lat="43.1661590794288" lon="10.679271322448887"><ele>342.79999999999995</ele><time>2026-05-01T15:10:31Z</time></trkpt><trkpt lat="43.166120351738556" lon="10.679127074456286"><ele>343.4</ele><time>2026-05-01T15:10:32Z</time></trkpt><trkpt lat="43.16605704737899" lon="10.679000004774283"><ele>344.0</ele><time>2026-05-01T15:10:33Z</time></trkpt><trkpt lat="43.16598101822345" lon="10.678882513660565"><ele>344.0</ele><time>2026-05-01T15:10:34Z</time></trkpt><trkpt lat="43.16588772160289" lon="10.67878577073851"><ele>344.0</ele><time>2026-05-01T15:10:35Z</time></trkpt><trkpt lat="43.16578510968745" lon="10.67870842234124"><ele>344.0</ele><time>2026-05-01T15:10:36Z</time></trkpt><trkpt lat="43.165678858961314" lon="10.678633048854115"><ele>344.0</ele><time>2026-05-01T15:10:37Z</time></trkpt><trkpt lat="43.165574134590265" lon="10.678557897603005"><ele>345.79999999999995</ele><time>2026-05-01T15:10:38Z</time></trkpt><trkpt lat="43.165469144185465" lon="10.678483547539177"><ele>347.59999999999997</ele><time>2026-05-01T15:10:39Z</time></trkpt><trkpt lat="43.16536787338649" lon="10.6784210395705"><ele>349.4</ele><time>2026-05-01T15:10:40Z</time></trkpt><trkpt lat="43.16526458724288" lon="10.678395621243633"><ele>351.2</ele><time>2026-05-01T15:10:41Z</time></trkpt><trkpt lat="43.16515845086646" lon="10.67841220263359"><ele>353.0</ele><time>2026-05-01T15:10:42Z</time></trkpt><trkpt lat="43.165055200119646" lon="10.678462152511157"><ele>353.0</ele><time>2026-05-01T15:10:43Z</time></trkpt><trkpt lat="43.16496622161031" lon="10.678556695049481"><ele>353.0</ele><time>2026-05-01T15:10:44Z</time></trkpt><trkpt lat="43.16490011913081" lon="10.678681194231492"><ele>353.0</ele><time>2026-05-01T15:10:45Z</time></trkpt><trkpt lat="43.16484377979701" lon="10.678816496709352"><ele>353.0</ele><time>2026-05-01T15:10:46Z</time></trkpt><trkpt lat="43.16478309768167" lon="10.678934688448406"><ele>353.0</ele><time>2026-05-01T15:10:47Z</time></trkpt><trkpt lat="43.16470925419129" lon="10.679031827597884"><ele>354.0</ele><time>2026-05-01T15:10:48Z</time></trkpt><trkpt lat="43.16462512458263" lon="10.679125838015436"><ele>355.0</ele><time>2026-05-01T15:10:49Z</time></trkpt><trkpt lat="43.164524018178355" lon="10.679214327774728"><ele>356.0</ele><time>2026-05-01T15:10:50Z</time></trkpt><trkpt lat="43.164408649346214" lon="10.679316233214744"><ele>357.0</ele><time>2026-05-01T15:10:51Z</time></trkpt><trkpt lat="43.16428053368785" lon="10.679422524277948"><ele>353.0</ele><time>2026-05-01T15:10:52Z</time></trkpt><trkpt lat="43.164162056628975" lon="10.679505250587603"><ele>349.0</ele><time>2026-05-01T15:10:53Z</time></trkpt><trkpt lat="43.16404596439969" lon="10.679576909547475"><ele>345.0</ele><time>2026-05-01T15:10:54Z</time></trkpt><trkpt lat="43.16393784090645" lon="10.679626425970437"><ele>341.0</ele><time>2026-05-01T15:10:55Z</time></trkpt><trkpt lat="43.163856416633486" lon="10.679644306509891"><ele>340.8</ele><time>2026-05-01T15:10:56Z</time></trkpt><trkpt lat="43.16377225359105" lon="10.679644722521683"><ele>340.6</ele><time>2026-05-01T15:10:57Z</time></trkpt><trkpt lat="43.163687403207746" lon="10.679629010716525"><ele>340.4</ele><time>2026-05-01T15:10:58Z</time></trkpt><trkpt lat="43.16360508873935" lon="10.679584027087254"><ele>340.2</ele><time>2026-05-01T15:10:59Z</time></trkpt><trkpt lat="43.16351514046961" lon="10.679537783260463"><ele>340.0</ele><time>2026-05-01T15:11:00Z</time></trkpt><trkpt lat="43.16341901647257" lon="10.679483875969074"><ele>340.75</ele><time>2026-05-01T15:11:01Z</time></trkpt><trkpt lat="43.163320176022474" lon="10.679426884892864"><ele>341.5</ele><time>2026-05-01T15:11:02Z</time></trkpt><trkpt lat="43.16321993261252" lon="10.679359019095534"><ele>342.25</ele><time>2026-05-01T15:11:03Z</time></trkpt><trkpt lat="43.163118590343146" lon="10.679279674797934"><ele>343.0</ele><time>2026-05-01T15:11:04Z</time></trkpt><trkpt lat="43.16301296718276" lon="10.679201992353992"><ele>343.0</ele><time>2026-05-01T15:11:05Z</time></trkpt><trkpt lat="43.16290645266976" lon="10.679130065566532"><ele>343.0</ele><time>2026-05-01T15:11:06Z</time></trkpt><trkpt lat="43.162807071756994" lon="10.67906414350744"><ele>343.0</ele><time>2026-05-01T15:11:07Z</time></trkpt><trkpt lat="43.162702207611964" lon="10.678998943017"><ele>343.0</ele><time>2026-05-01T15:11:08Z</time></trkpt><trkpt lat="43.16258591712038" lon="10.678948225820116"><ele>343.0</ele><time>2026-05-01T15:11:09Z</time></trkpt><trkpt lat="43.16245890230757" lon="10.678920197896483"><ele>343.0</ele><time>2026-05-01T15:11:10Z</time></trkpt><trkpt lat="43.16232336184095" lon="10.678910660058285"><ele>343.0</ele><time>2026-05-01T15:11:11Z</time></trkpt><trkpt lat="43.162196436568095" lon="10.678914559437466"><ele>343.0</ele><time>2026-05-01T15:11:12Z</time></trkpt><trkpt lat="43.162075322382144" lon="10.678918009631033"><ele>343.2</ele><time>2026-05-01T15:11:13Z</time></trkpt><trkpt lat="43.161958872292345" lon="10.678925470773423"><ele>343.4</ele><time>2026-05-01T15:11:14Z</time></trkpt><trkpt lat="43.16184697116727" lon="10.678934456080068"><ele>343.59999999999997</ele><time>2026-05-01T15:11:15Z</time></trkpt><trkpt lat="43.161743551649714" lon="10.678945762931448"><ele>343.79999999999995</ele><time>2026-05-01T15:11:16Z</time></trkpt><trkpt lat="43.16164158435389" lon="10.678950101661123"><ele>344.0</ele><time>2026-05-01T15:11:17Z</time></trkpt><trkpt lat="43.16153156298623" lon="10.678939921706318"><ele>341.25</ele><time>2026-05-01T15:11:18Z</time></trkpt><trkpt lat="43.16142350883149" lon="10.678908466888554"><ele>338.5</ele><time>2026-05-01T15:11:19Z</time></trkpt><trkpt lat="43.1613102519377" lon="10.678864904392958"><ele>335.75</ele><time>2026-05-01T15:11:20Z</time></trkpt><trkpt lat="43.16120200473436" lon="10.67879278168971"><ele>333.0</ele><time>2026-05-01T15:11:21Z</time></trkpt><trkpt lat="43.161116264303885" lon="10.678684041061706"><ele>335.0</ele><time>2026-05-01T15:11:22Z</time></trkpt><trkpt lat="43.16104499801547" lon="10.6785587366184"><ele>337.0</ele><time>2026-05-01T15:11:23Z</time></trkpt><trkpt lat="43.16099267479404" lon="10.67841370280084"><ele>339.0</ele><time>2026-05-01T15:11:24Z</time></trkpt><trkpt lat="43.16096010206245" lon="10.678249280334429"><ele>341.0</ele><time>2026-05-01T15:11:25Z</time></trkpt><trkpt lat="43.16094404760811" lon="10.678079190911971"><ele>341.0</ele><time>2026-05-01T15:11:26Z</time></trkpt><trkpt lat="43.16091872842751" lon="10.677932403596088"><ele>341.0</ele><time>2026-05-01T15:11:27Z</time></trkpt><trkpt lat="43.16089092356564" lon="10.677825088061539"><ele>341.0</ele><time>2026-05-01T15:11:28Z</time></trkpt><trkpt lat="43.160872606143954" lon="10.677699191911051"><ele>341.0</ele><time>2026-05-01T15:11:30Z</time></trkpt><trkpt lat="43.160849865119005" lon="10.677598466210146"><ele>341.0</ele><time>2026-05-01T15:11:33Z</time></trkpt><trkpt lat="43.16087595253918" lon="10.677515332075762"><ele>341.0</ele><time>2026-05-01T15:14:23Z</time></trkpt><trkpt lat="43.16085050026963" lon="10.67760482052294"><ele>341.1666666666667</ele><time>2026-05-01T15:21:44Z</time></trkpt><trkpt lat="43.16075099272761" lon="10.677581747329896"><ele>341.33333333333337</ele><time>2026-05-01T15:22:15Z</time></trkpt><trkpt lat="43.16065579725963" lon="10.677491440868762"><ele>341.5</ele><time>2026-05-01T15:22:17Z</time></trkpt><trkpt lat="43.16059179125332" lon="10.677450414624762"><ele>341.6666666666667</ele><time>2026-05-01T15:22:18Z</time></trkpt><trkpt lat="43.160520980406005" lon="10.677430206454142"><ele>341.8333333333333</ele><time>2026-05-01T15:22:19Z</time></trkpt><trkpt lat="43.16045157414461" lon="10.677395166010523"><ele>342.0</ele><time>2026-05-01T15:22:20Z</time></trkpt><trkpt lat="43.160374764658016" lon="10.67739046542966"><ele>342.0</ele><time>2026-05-01T15:22:21Z</time></trkpt><trkpt lat="43.16029213015999" lon="10.677383242762977"><ele>342.0</ele><time>2026-05-01T15:22:22Z</time></trkpt><trkpt lat="43.160206806969995" lon="10.677372367288413"><ele>342.0</ele><time>2026-05-01T15:22:23Z</time></trkpt><trkpt lat="43.160120788603464" lon="10.677349152065215"><ele>342.0</ele><time>2026-05-01T15:22:24Z</time></trkpt><trkpt lat="43.160038931997775" lon="10.677298466266729"><ele>342.0</ele><time>2026-05-01T15:22:25Z</time></trkpt><trkpt lat="43.159960543862525" lon="10.67723401920369"><ele>342.0</ele><time>2026-05-01T15:22:26Z</time></trkpt><trkpt lat="43.15988362362028" lon="10.677157671828219"><ele>342.20000000000005</ele><time>2026-05-01T15:22:27Z</time></trkpt><trkpt lat="43.159809753230896" lon="10.677086492229657"><ele>342.4</ele><time>2026-05-01T15:22:28Z</time></trkpt><trkpt lat="43.159730492384384" lon="10.677010427388437"><ele>342.6</ele><time>2026-05-01T15:22:29Z</time></trkpt><trkpt lat="43.159650780759726" lon="10.676933730057913"><ele>342.79999999999995</ele><time>2026-05-01T15:22:30Z</time></trkpt><trkpt lat="43.15957276907201" lon="10.676858668137708"><ele>343.0</ele><time>2026-05-01T15:22:31Z</time></trkpt><trkpt lat="43.1594794579372" lon="10.676768885517218"><ele>343.0</ele><time>2026-05-01T15:22:32Z</time></trkpt><trkpt lat="43.159384382002095" lon="10.676691561800586"><ele>343.0</ele><time>2026-05-01T15:22:33Z</time></trkpt><trkpt lat="43.15928819253141" lon="10.676600065908314"><ele>343.0</ele><time>2026-05-01T15:22:34Z</time></trkpt><trkpt lat="43.159183056587466" lon="10.676506787269679"><ele>343.0</ele><time>2026-05-01T15:22:35Z</time></trkpt><trkpt lat="43.15908623013753" lon="10.676422775828566"><ele>341.5</ele><time>2026-05-01T15:22:36Z</time></trkpt><trkpt lat="43.15898655332502" lon="10.676324692466453"><ele>340.0</ele><time>2026-05-01T15:22:37Z</time></trkpt><trkpt lat="43.15889436550815" lon="10.676219446703518"><ele>338.5</ele><time>2026-05-01T15:22:38Z</time></trkpt><trkpt lat="43.15880424445957" lon="10.6761018635991"><ele>337.0</ele><time>2026-05-01T15:22:39Z</time></trkpt><trkpt lat="43.158721364103734" lon="10.675973165118611"><ele>337.0</ele><time>2026-05-01T15:22:40Z</time></trkpt><trkpt lat="43.15864094887728" lon="10.67583538630458"><ele>337.0</ele><time>2026-05-01T15:22:41Z</time></trkpt><trkpt lat="43.15855496920891" lon="10.67569655898163"><ele>337.0</ele><time>2026-05-01T15:22:42Z</time></trkpt><trkpt lat="43.158476659434676" lon="10.67555706153453"><ele>337.0</ele><time>2026-05-01T15:22:43Z</time></trkpt><trkpt lat="43.1583934204984" lon="10.675419142167618"><ele>337.0</ele><time>2026-05-01T15:22:44Z</time></trkpt><trkpt lat="43.15831222497055" lon="10.675291997432016"><ele>337.0</ele><time>2026-05-01T15:22:45Z</time></trkpt><trkpt lat="43.15823432115661" lon="10.675171203326922"><ele>337.0</ele><time>2026-05-01T15:22:46Z</time></trkpt><trkpt lat="43.15817247950792" lon="10.675048218682274"><ele>337.0</ele><time>2026-05-01T15:22:47Z</time></trkpt><trkpt lat="43.15808518270851" lon="10.674966359227726"><ele>337.75</ele><time>2026-05-01T15:22:48Z</time></trkpt><trkpt lat="43.15799298706131" lon="10.674898214917064"><ele>338.5</ele><time>2026-05-01T15:22:49Z</time></trkpt><trkpt lat="43.15788422331611" lon="10.674861056469998"><ele>339.25</ele><time>2026-05-01T15:22:50Z</time></trkpt><trkpt lat="43.157765366922895" lon="10.674840158411302"><ele>340.0</ele><time>2026-05-01T15:22:51Z</time></trkpt><trkpt lat="43.157642908800504" lon="10.67482768710097"><ele>340.0</ele><time>2026-05-01T15:22:52Z</time></trkpt><trkpt lat="43.157522263000864" lon="10.674827616538842"><ele>340.0</ele><time>2026-05-01T15:22:53Z</time></trkpt><trkpt lat="43.15741419357446" lon="10.674844516872625"><ele>340.0</ele><time>2026-05-01T15:22:54Z</time></trkpt><trkpt lat="43.15731737790417" lon="10.674889075579241"><ele>340.0</ele><time>2026-05-01T15:22:55Z</time></trkpt><trkpt lat="43.15722923750343" lon="10.674960083178943"><ele>340.0</ele><time>2026-05-01T15:22:56Z</time></trkpt><trkpt lat="43.157146608953916" lon="10.675067617124785"><ele>343.75</ele><time>2026-05-01T15:22:57Z</time></trkpt><trkpt lat="43.1570856704067" lon="10.675203501359498"><ele>347.5</ele><time>2026-05-01T15:22:58Z</time></trkpt><trkpt lat="43.15705282392075" lon="10.675361329119454"><ele>351.25</ele><time>2026-05-01T15:22:59Z</time></trkpt><trkpt lat="43.157038177256624" lon="10.675526300876717"><ele>355.0</ele><time>2026-05-01T15:23:00Z</time></trkpt><trkpt lat="43.15703238302802" lon="10.675690070271305"><ele>355.0</ele><time>2026-05-01T15:23:01Z</time></trkpt><trkpt lat="43.1570254826559" lon="10.675856551652794"><ele>355.0</ele><time>2026-05-01T15:23:02Z</time></trkpt><trkpt lat="43.15700908942292" lon="10.676025287619439"><ele>355.0</ele><time>2026-05-01T15:23:03Z</time></trkpt><trkpt lat="43.15698039659957" lon="10.676175430964786"><ele>355.0</ele><time>2026-05-01T15:23:04Z</time></trkpt><trkpt lat="43.15694389829238" lon="10.676296786302444"><ele>352.0</ele><time>2026-05-01T15:23:05Z</time></trkpt><trkpt lat="43.15689419531038" lon="10.676414205936606"><ele>349.0</ele><time>2026-05-01T15:23:06Z</time></trkpt><trkpt lat="43.156823234741644" lon="10.676521643787458"><ele>346.0</ele><time>2026-05-01T15:23:07Z</time></trkpt><trkpt lat="43.15673340114664" lon="10.676607738573486"><ele>343.0</ele><time>2026-05-01T15:23:08Z</time></trkpt><trkpt lat="43.15663483883368" lon="10.676673896472504"><ele>340.0</ele><time>2026-05-01T15:23:09Z</time></trkpt><trkpt lat="43.156527860210765" lon="10.676724480228795"><ele>340.0</ele><time>2026-05-01T15:23:10Z</time></trkpt><trkpt lat="43.15641197236812" lon="10.676720147342836"><ele>340.0</ele><time>2026-05-01T15:23:11Z</time></trkpt><trkpt lat="43.156289686470544" lon="10.676730187281905"><ele>340.0</ele><time>2026-05-01T15:23:12Z</time></trkpt><trkpt lat="43.156155642620945" lon="10.676693043403821"><ele>340.0</ele><time>2026-05-01T15:23:13Z</time></trkpt><trkpt lat="43.15601489150563" lon="10.676678029251413"><ele>340.0</ele><time>2026-05-01T15:23:14Z</time></trkpt><trkpt lat="43.15588000100885" lon="10.676660744979998"><ele>340.0</ele><time>2026-05-01T15:23:15Z</time></trkpt><trkpt lat="43.15573617043722" lon="10.676639502087738"><ele>340.0</ele><time>2026-05-01T15:23:16Z</time></trkpt><trkpt lat="43.15558904849798" lon="10.676616730603271"><ele>340.0</ele><time>2026-05-01T15:23:17Z</time></trkpt><trkpt lat="43.15544141004719" lon="10.676590832735823"><ele>340.25</ele><time>2026-05-01T15:23:18Z</time></trkpt><trkpt lat="43.15529793759172" lon="10.676569499625112"><ele>340.5</ele><time>2026-05-01T15:23:19Z</time></trkpt><trkpt lat="43.15516275812586" lon="10.676551789316383"><ele>340.75</ele><time>2026-05-01T15:23:20Z</time></trkpt><trkpt lat="43.155036026127725" lon="10.676527826877871"><ele>341.0</ele><time>2026-05-01T15:23:21Z</time></trkpt><trkpt lat="43.154914212511954" lon="10.67651796920555"><ele>342.25</ele><time>2026-05-01T15:23:22Z</time></trkpt><trkpt lat="43.154803066952276" lon="10.676530982058688"><ele>343.5</ele><time>2026-05-01T15:23:23Z</time></trkpt><trkpt lat="43.15469479360105" lon="10.676575761022516"><ele>344.75</ele><time>2026-05-01T15:23:24Z</time></trkpt><trkpt lat="43.15458800242156" lon="10.676649161364754"><ele>346.0</ele><time>2026-05-01T15:23:25Z</time></trkpt><trkpt lat="43.15448526723387" lon="10.676747614186478"><ele>346.0</ele><time>2026-05-01T15:23:26Z</time></trkpt><trkpt lat="43.15439192839005" lon="10.676863797479532"><ele>346.0</ele><time>2026-05-01T15:23:27Z</time></trkpt><trkpt lat="43.15431208427019" lon="10.67698323236363"><ele>346.0</ele><time>2026-05-01T15:23:28Z</time></trkpt><trkpt lat="43.154222771426696" lon="10.677112655975733"><ele>346.0</ele><time>2026-05-01T15:23:29Z</time></trkpt><trkpt lat="43.154132758184126" lon="10.677216508382253"><ele>344.8</ele><time>2026-05-01T15:23:30Z</time></trkpt><trkpt lat="43.15404915245333" lon="10.67730427758718"><ele>343.6</ele><time>2026-05-01T15:23:31Z</time></trkpt><trkpt lat="43.15395530011291" lon="10.6773693670135"><ele>342.4</ele><time>2026-05-01T15:23:32Z</time></trkpt><trkpt lat="43.15386208498918" lon="10.677409570564643"><ele>341.2</ele><time>2026-05-01T15:23:33Z</time></trkpt><trkpt lat="43.15377407461549" lon="10.677434460332988"><ele>340.0</ele><time>2026-05-01T15:23:34Z</time></trkpt><trkpt lat="43.15369211695899" lon="10.677438741658522"><ele>339.16666666666663</ele><time>2026-05-01T15:23:35Z</time></trkpt><trkpt lat="43.15362099469264" lon="10.677425853909915"><ele>338.3333333333333</ele><time>2026-05-01T15:23:36Z</time></trkpt><trkpt lat="43.153548419483556" lon="10.677409087024879"><ele>337.5</ele><time>2026-05-01T15:23:37Z</time></trkpt><trkpt lat="43.15347157432592" lon="10.677382231440603"><ele>336.6666666666667</ele><time>2026-05-01T15:23:38Z</time></trkpt><trkpt lat="43.15338983399501" lon="10.677330204499281"><ele>335.83333333333337</ele><time>2026-05-01T15:23:39Z</time></trkpt><trkpt lat="43.15332597572556" lon="10.67725365500283"><ele>335.0</ele><time>2026-05-01T15:23:40Z</time></trkpt><trkpt lat="43.15325385448418" lon="10.677169296366284"><ele>336.25</ele><time>2026-05-01T15:23:41Z</time></trkpt><trkpt lat="43.153176790497575" lon="10.67707904546995"><ele>337.5</ele><time>2026-05-01T15:23:42Z</time></trkpt><trkpt lat="43.15309078153067" lon="10.676978804761994"><ele>338.75</ele><time>2026-05-01T15:23:43Z</time></trkpt><trkpt lat="43.15298603865665" lon="10.676888656086895"><ele>340.0</ele><time>2026-05-01T15:23:44Z</time></trkpt><trkpt lat="43.152884089013185" lon="10.676801449484346"><ele>340.0</ele><time>2026-05-01T15:23:45Z</time></trkpt><trkpt lat="43.15276889840371" lon="10.676751747462221"><ele>340.0</ele><time>2026-05-01T15:23:46Z</time></trkpt><trkpt lat="43.152649465101526" lon="10.676711948418136"><ele>340.0</ele><time>2026-05-01T15:23:47Z</time></trkpt><trkpt lat="43.152523097803936" lon="10.67667853869501"><ele>340.0</ele><time>2026-05-01T15:23:48Z</time></trkpt><trkpt lat="43.15239423879083" lon="10.676633980100926"><ele>337.25</ele><time>2026-05-01T15:23:49Z</time></trkpt><trkpt lat="43.15227100350587" lon="10.676597047831732"><ele>334.5</ele><time>2026-05-01T15:23:50Z</time></trkpt><trkpt lat="43.15216255258056" lon="10.676539315346163"><ele>331.75</ele><time>2026-05-01T15:23:51Z</time></trkpt><trkpt lat="43.152067976994495" lon="10.67646834941271"><ele>329.0</ele><time>2026-05-01T15:23:52Z</time></trkpt><trkpt lat="43.15199035598366" lon="10.676371035217903"><ele>329.0</ele><time>2026-05-01T15:23:53Z</time></trkpt><trkpt lat="43.15190849913176" lon="10.676257549391623"><ele>329.0</ele><time>2026-05-01T15:23:54Z</time></trkpt><trkpt lat="43.15185332484064" lon="10.676132712540092"><ele>329.0</ele><time>2026-05-01T15:23:55Z</time></trkpt><trkpt lat="43.15181851650029" lon="10.676007108485452"><ele>329.0</ele><time>2026-05-01T15:23:56Z</time></trkpt><trkpt lat="43.15179454760387" lon="10.675887875732581"><ele>329.0</ele><time>2026-05-01T15:23:57Z</time></trkpt><trkpt lat="43.151777675612585" lon="10.675782486016193"><ele>329.79999999999995</ele><time>2026-05-01T15:23:58Z</time></trkpt><trkpt lat="43.15176423189686" lon="10.6756969350934"><ele>330.59999999999997</ele><time>2026-05-01T15:23:59Z</time></trkpt><trkpt lat="43.151606719226606" lon="10.675756450029525"><ele>331.4</ele><time>2026-05-01T15:24:03Z</time></trkpt><trkpt lat="43.15162985323392" lon="10.675856706213333"><ele>332.2</ele><time>2026-05-01T15:24:04Z</time></trkpt><trkpt lat="43.15164994254499" lon="10.67596175464487"><ele>333.0</ele><time>2026-05-01T15:24:05Z</time></trkpt><trkpt lat="43.15169144204736" lon="10.676087511152316"><ele>332.2</ele><time>2026-05-01T15:24:06Z</time></trkpt><trkpt lat="43.15172546445537" lon="10.676209969282143"><ele>331.4</ele><time>2026-05-01T15:24:07Z</time></trkpt><trkpt lat="43.1517483579084" lon="10.676344661021734"><ele>330.59999999999997</ele><time>2026-05-01T15:24:08Z</time></trkpt><trkpt lat="43.151765748381976" lon="10.676459671398229"><ele>329.79999999999995</ele><time>2026-05-01T15:24:09Z</time></trkpt><trkpt lat="43.151787511711575" lon="10.676581499889613"><ele>329.0</ele><time>2026-05-01T15:24:10Z</time></trkpt><trkpt lat="43.15180226540698" lon="10.6766842293132"><ele>329.0</ele><time>2026-05-01T15:24:11Z</time></trkpt><trkpt lat="43.15181109160569" lon="10.676780772890968"><ele>329.0</ele><time>2026-05-01T15:24:12Z</time></trkpt><trkpt lat="43.151822052694634" lon="10.676870876976032"><ele>329.0</ele><time>2026-05-01T15:24:13Z</time></trkpt><trkpt lat="43.15181544193748" lon="10.676965777180133"><ele>329.0</ele><time>2026-05-01T15:24:14Z</time></trkpt><trkpt lat="43.15177839740492" lon="10.677070141402089"><ele>329.0</ele><time>2026-05-01T15:24:15Z</time></trkpt><trkpt lat="43.15171978798103" lon="10.677196847585385"><ele>329.0</ele><time>2026-05-01T15:24:16Z</time></trkpt><trkpt lat="43.15166218981345" lon="10.677342745410648"><ele>327.25</ele><time>2026-05-01T15:24:17Z</time></trkpt><trkpt lat="43.15161001820594" lon="10.677501337669366"><ele>325.5</ele><time>2026-05-01T15:24:18Z</time></trkpt><trkpt lat="43.15155855762304" lon="10.677650746737948"><ele>323.75</ele><time>2026-05-01T15:24:19Z</time></trkpt><trkpt lat="43.1515130698894" lon="10.677803393990994"><ele>322.0</ele><time>2026-05-01T15:24:20Z</time></trkpt><trkpt lat="43.15145829735779" lon="10.677947731864627"><ele>318.20000000000005</ele><time>2026-05-01T15:24:21Z</time></trkpt><trkpt lat="43.15140611293472" lon="10.678091634103783"><ele>314.40000000000003</ele><time>2026-05-01T15:24:22Z</time></trkpt><trkpt lat="43.15135325524282" lon="10.678236642060877"><ele>310.6</ele><time>2026-05-01T15:24:23Z</time></trkpt><trkpt lat="43.15130522568863" lon="10.678374714903557"><ele>306.8</ele><time>2026-05-01T15:24:24Z</time></trkpt><trkpt lat="43.15126211755862" lon="10.678481728662213"><ele>303.0</ele><time>2026-05-01T15:24:25Z</time></trkpt><trkpt lat="43.151224719940096" lon="10.678574631146255"><ele>302.8333333333333</ele><time>2026-05-01T15:24:26Z</time></trkpt><trkpt lat="43.151174006552836" lon="10.678677769322729"><ele>302.6666666666667</ele><time>2026-05-01T15:24:28Z</time></trkpt><trkpt lat="43.15113888291568" lon="10.678784387094606"><ele>302.5</ele><time>2026-05-01T15:24:33Z</time></trkpt><trkpt lat="43.15109958570765" lon="10.678890031067018"><ele>302.33333333333337</ele><time>2026-05-01T15:24:46Z</time></trkpt><trkpt lat="43.15108557930605" lon="10.6790457896568"><ele>302.1666666666667</ele><time>2026-05-01T15:24:48Z</time></trkpt><trkpt lat="43.151080244980314" lon="10.679140056484414"><ele>302.0</ele><time>2026-05-01T15:24:49Z</time></trkpt><trkpt lat="43.15109857549561" lon="10.679240027520152"><ele>302.0</ele><time>2026-05-01T15:24:50Z</time></trkpt><trkpt lat="43.151094873105535" lon="10.679354499809252"><ele>302.0</ele><time>2026-05-01T15:24:52Z</time></trkpt><trkpt lat="43.15104817342278" lon="10.679435091094202"><ele>302.0</ele><time>2026-05-01T15:24:54Z</time></trkpt><trkpt lat="43.150921244664005" lon="10.679512976219913"><ele>302.0</ele><time>2026-05-01T15:24:56Z</time></trkpt><trkpt lat="43.15083669782017" lon="10.679558137009856"><ele>302.0</ele><time>2026-05-01T15:24:57Z</time></trkpt><trkpt lat="43.15075679904869" lon="10.679605681233287"><ele>298.83333333333337</ele><time>2026-05-01T15:24:58Z</time></trkpt><trkpt lat="43.150675698360814" lon="10.67966166186697"><ele>295.6666666666667</ele><time>2026-05-01T15:24:59Z</time></trkpt><trkpt lat="43.15060929283817" lon="10.679732551820958"><ele>292.5</ele><time>2026-05-01T15:25:00Z</time></trkpt><trkpt lat="43.150531695984895" lon="10.679768375888743"><ele>289.3333333333333</ele><time>2026-05-01T15:25:01Z</time></trkpt><trkpt lat="43.15046475561904" lon="10.67985288369389"><ele>286.16666666666663</ele><time>2026-05-01T15:25:02Z</time></trkpt><trkpt lat="43.15043834435956" lon="10.679981103070126"><ele>283.0</ele><time>2026-05-01T15:25:03Z</time></trkpt><trkpt lat="43.150407244939025" lon="10.680092969082828"><ele>283.0</ele><time>2026-05-01T15:25:04Z</time></trkpt><trkpt lat="43.15039616572356" lon="10.680205466661876"><ele>283.0</ele><time>2026-05-01T15:25:05Z</time></trkpt><trkpt lat="43.15038292681894" lon="10.68034477099397"><ele>283.0</ele><time>2026-05-01T15:25:06Z</time></trkpt><trkpt lat="43.15037909143275" lon="10.680475370624542"><ele>283.0</ele><time>2026-05-01T15:25:07Z</time></trkpt><trkpt lat="43.150370891764574" lon="10.680605483563042"><ele>283.0</ele><time>2026-05-01T15:25:08Z</time></trkpt><trkpt lat="43.15035814728625" lon="10.680749021212543"><ele>282.4</ele><time>2026-05-01T15:25:09Z</time></trkpt><trkpt lat="43.150346424006635" lon="10.68087870771882"><ele>281.8</ele><time>2026-05-01T15:25:10Z</time></trkpt><trkpt lat="43.15034254821934" lon="10.681035355411419"><ele>281.2</ele><time>2026-05-01T15:25:11Z</time></trkpt><trkpt lat="43.150324061981024" lon="10.68115799580886"><ele>280.6</ele><time>2026-05-01T15:25:12Z</time></trkpt><trkpt lat="43.15030481370785" lon="10.68131173288886"><ele>280.0</ele><time>2026-05-01T15:25:13Z</time></trkpt><trkpt lat="43.15029892546356" lon="10.681446264960634"><ele>278.8</ele><time>2026-05-01T15:25:14Z</time></trkpt><trkpt lat="43.15028778531968" lon="10.681574393325882"><ele>277.6</ele><time>2026-05-01T15:25:15Z</time></trkpt><trkpt lat="43.150272961823184" lon="10.681712969030203"><ele>276.4</ele><time>2026-05-01T15:25:16Z</time></trkpt><trkpt lat="43.150254373618885" lon="10.681855945088301"><ele>275.2</ele><time>2026-05-01T15:25:17Z</time></trkpt><trkpt lat="43.15023326984392" lon="10.682011675842233"><ele>274.0</ele><time>2026-05-01T15:25:18Z</time></trkpt><trkpt lat="43.15022087769666" lon="10.682158706696272"><ele>273.0</ele><time>2026-05-01T15:25:19Z</time></trkpt><trkpt lat="43.15021203737493" lon="10.682301729632009"><ele>272.0</ele><time>2026-05-01T15:25:20Z</time></trkpt><trkpt lat="43.1502063327731" lon="10.682442204521998"><ele>271.0</ele><time>2026-05-01T15:25:21Z</time></trkpt><trkpt lat="43.15019912934868" lon="10.682582690790714"><ele>270.0</ele><time>2026-05-01T15:25:22Z</time></trkpt><trkpt lat="43.15019853083185" lon="10.68272795480851"><ele>269.0</ele><time>2026-05-01T15:25:23Z</time></trkpt><trkpt lat="43.15019945177955" lon="10.68287382528949"><ele>268.0</ele><time>2026-05-01T15:25:24Z</time></trkpt><trkpt lat="43.15019990720142" lon="10.683020047843577"><ele>267.0</ele><time>2026-05-01T15:25:25Z</time></trkpt><trkpt lat="43.15020557166456" lon="10.683135603939443"><ele>266.0</ele><time>2026-05-01T15:25:26Z</time></trkpt><trkpt lat="43.15020937374312" lon="10.683238641900049"><ele>265.0</ele><time>2026-05-01T15:25:27Z</time></trkpt><trkpt lat="43.15021041694334" lon="10.683338193701143"><ele>264.0</ele><time>2026-05-01T15:25:28Z</time></trkpt><trkpt lat="43.15019199214771" lon="10.683481505862693"><ele>263.0</ele><time>2026-05-01T15:25:30Z</time></trkpt><trkpt lat="43.15010524069808" lon="10.683548768444032"><ele>263.0</ele><time>2026-05-01T15:25:32Z</time></trkpt><trkpt lat="43.15003108670284" lon="10.683504657564603"><ele>263.0</ele><time>2026-05-01T15:25:33Z</time></trkpt><trkpt lat="43.14995593011794" lon="10.683444927299051"><ele>263.0</ele><time>2026-05-01T15:25:34Z</time></trkpt><trkpt lat="43.149855459783865" lon="10.683431086882665"><ele>263.0</ele><time>2026-05-01T15:25:35Z</time></trkpt><trkpt lat="43.14974511674735" lon="10.683429437647302"><ele>263.0</ele><time>2026-05-01T15:25:37Z</time></trkpt><trkpt lat="43.14968880319262" lon="10.683471761493928"><ele>263.0</ele><time>2026-05-01T15:25:38Z</time></trkpt><trkpt lat="43.14965343591081" lon="10.683544754047873"><ele>260.5</ele><time>2026-05-01T15:25:39Z</time></trkpt><trkpt lat="43.149626561687306" lon="10.683635112324069"><ele>258.0</ele><time>2026-05-01T15:25:40Z</time></trkpt><trkpt lat="43.14960438680717" lon="10.68376719715664"><ele>255.5</ele><time>2026-05-01T15:25:42Z</time></trkpt><trkpt lat="43.14964821964045" lon="10.68390332607568"><ele>253.0</ele><time>2026-05-01T15:25:44Z</time></trkpt><trkpt lat="43.149699189715776" lon="10.68397059716378"><ele>250.50000000000003</ele><time>2026-05-01T15:25:45Z</time></trkpt><trkpt lat="43.14973342660806" lon="10.684061386477655"><ele>248.0</ele><time>2026-05-01T15:25:47Z</time></trkpt><trkpt lat="43.14976283764015" lon="10.684183568546791"><ele>248.00000000000003</ele><time>2026-05-01T15:25:49Z</time></trkpt><trkpt lat="43.14974970581276" lon="10.684301539300428"><ele>248.0</ele><time>2026-05-01T15:25:50Z</time></trkpt><trkpt lat="43.14972637249453" lon="10.684442265218797"><ele>248.0</ele><time>2026-05-01T15:25:51Z</time></trkpt><trkpt lat="43.14970934308695" lon="10.684567107283797"><ele>248.0</ele><time>2026-05-01T15:25:52Z</time></trkpt><trkpt lat="43.14969927830244" lon="10.684670345639368"><ele>248.00000000000003</ele><time>2026-05-01T15:25:53Z</time></trkpt><trkpt lat="43.149681890666955" lon="10.684768760411794"><ele>248.0</ele><time>2026-05-01T15:25:54Z</time></trkpt><trkpt lat="43.149647596891604" lon="10.684871434350173"><ele>247.0</ele><time>2026-05-01T15:25:55Z</time></trkpt><trkpt lat="43.14960230331931" lon="10.684983857132133"><ele>246.0</ele><time>2026-05-01T15:25:56Z</time></trkpt><trkpt lat="43.149564001497374" lon="10.685098765129146"><ele>245.0</ele><time>2026-05-01T15:25:57Z</time></trkpt><trkpt lat="43.149509000472" lon="10.685213462415417"><ele>244.0</ele><time>2026-05-01T15:25:58Z</time></trkpt><trkpt lat="43.149446687325096" lon="10.685327919074352"><ele>243.0</ele><time>2026-05-01T15:25:59Z</time></trkpt><trkpt lat="43.14938491822149" lon="10.685429910911564"><ele>241.0</ele><time>2026-05-01T15:26:00Z</time></trkpt><trkpt lat="43.14933146927825" lon="10.685527139152269"><ele>239.0</ele><time>2026-05-01T15:26:01Z</time></trkpt><trkpt lat="43.149265127414125" lon="10.685629213884166"><ele>237.0</ele><time>2026-05-01T15:26:02Z</time></trkpt><trkpt lat="43.14920667437143" lon="10.685728716283018"><ele>235.0</ele><time>2026-05-01T15:26:03Z</time></trkpt><trkpt lat="43.149146256010226" lon="10.685834663824133"><ele>233.0</ele><time>2026-05-01T15:26:04Z</time></trkpt><trkpt lat="43.149092905749995" lon="10.685917778019018"><ele>232.16666666666669</ele><time>2026-05-01T15:26:05Z</time></trkpt><trkpt lat="43.149013462784154" lon="10.68602660847347"><ele>231.33333333333334</ele><time>2026-05-01T15:26:07Z</time></trkpt><trkpt lat="43.1489726803273" lon="10.686103485850927"><ele>230.5</ele><time>2026-05-01T15:26:08Z</time></trkpt><trkpt lat="43.148936540529675" lon="10.686198855761274"><ele>229.66666666666669</ele><time>2026-05-01T15:26:09Z</time></trkpt><trkpt lat="43.14891723813487" lon="10.686298823231608"><ele>228.83333333333334</ele><time>2026-05-01T15:26:10Z</time></trkpt><trkpt lat="43.14890453547629" lon="10.686405488151548"><ele>228.0</ele><time>2026-05-01T15:26:11Z</time></trkpt><trkpt lat="43.14887684405991" lon="10.68655029571961"><ele>226.5</ele><time>2026-05-01T15:26:13Z</time></trkpt><trkpt lat="43.14882829262356" lon="10.686620785214648"><ele>225.0</ele><time>2026-05-01T15:26:14Z</time></trkpt><trkpt lat="43.14875948738247" lon="10.686696790409693"><ele>223.5</ele><time>2026-05-01T15:26:15Z</time></trkpt><trkpt lat="43.14869933157741" lon="10.68679867174021"><ele>222.0</ele><time>2026-05-01T15:26:16Z</time></trkpt><trkpt lat="43.148658146076414" lon="10.686905791952809"><ele>220.5</ele><time>2026-05-01T15:26:17Z</time></trkpt><trkpt lat="43.148608346157296" lon="10.687020876729212"><ele>219.0</ele><time>2026-05-01T15:26:18Z</time></trkpt><trkpt lat="43.14854164039437" lon="10.68713314950349"><ele>218.79999999999998</ele><time>2026-05-01T15:26:19Z</time></trkpt><trkpt lat="43.148479981071915" lon="10.687227257445207"><ele>218.59999999999997</ele><time>2026-05-01T15:26:20Z</time></trkpt><trkpt lat="43.14842784045645" lon="10.687303586846577"><ele>218.4</ele><time>2026-05-01T15:26:21Z</time></trkpt><trkpt lat="43.14837466478974" lon="10.687362366433964"><ele>218.2</ele><time>2026-05-01T15:26:22Z</time></trkpt><trkpt lat="43.148367598781185" lon="10.687502127925889"><ele>218.0</ele><time>2026-05-01T15:26:24Z</time></trkpt><trkpt lat="43.14831971106049" lon="10.687672418279881"><ele>218.0</ele><time>2026-05-01T15:26:26Z</time></trkpt><trkpt lat="43.14826826803306" lon="10.687728980668185"><ele>218.0</ele><time>2026-05-01T15:26:27Z</time></trkpt><trkpt lat="43.14821690216129" lon="10.687782661114328"><ele>218.0</ele><time>2026-05-01T15:26:28Z</time></trkpt><trkpt lat="43.148176704791815" lon="10.687853290015342"><ele>218.0</ele><time>2026-05-01T15:26:29Z</time></trkpt><trkpt lat="43.148164024506436" lon="10.687940538066753"><ele>218.0</ele><time>2026-05-01T15:26:30Z</time></trkpt><trkpt lat="43.1481366380324" lon="10.68807458020116"><ele>218.0</ele><time>2026-05-01T15:26:32Z</time></trkpt><trkpt lat="43.14812739977115" lon="10.688164551165082"><ele>218.0</ele><time>2026-05-01T15:26:37Z</time></trkpt><trkpt lat="43.14803423941218" lon="10.688207344224457"><ele>216.8</ele><time>2026-05-01T15:27:14Z</time></trkpt><trkpt lat="43.14795806211109" lon="10.68826311914578"><ele>215.60000000000002</ele><time>2026-05-01T15:33:49Z</time></trkpt><trkpt lat="43.1478826795091" lon="10.688300812316179"><ele>214.39999999999998</ele><time>2026-05-01T15:33:51Z</time></trkpt><trkpt lat="43.14782534383146" lon="10.688377354227157"><ele>213.2</ele><time>2026-05-01T15:33:53Z</time></trkpt><trkpt lat="43.147751230654414" lon="10.688447592523817"><ele>212.0</ele><time>2026-05-01T15:33:55Z</time></trkpt><trkpt lat="43.14763220732092" lon="10.688541755572093"><ele>212.50000000000003</ele><time>2026-05-01T15:33:57Z</time></trkpt><trkpt lat="43.147529023315755" lon="10.68862654725541"><ele>213.0</ele><time>2026-05-01T15:33:59Z</time></trkpt><trkpt lat="43.147461448880335" lon="10.688666098483855"><ele>213.5</ele><time>2026-05-01T15:34:00Z</time></trkpt><trkpt lat="43.14740138600642" lon="10.688719690000353"><ele>214.0</ele><time>2026-05-01T15:34:01Z</time></trkpt><trkpt lat="43.14732864620653" lon="10.688740181733456"><ele>214.50000000000003</ele><time>2026-05-01T15:34:03Z</time></trkpt><trkpt lat="43.147258101127996" lon="10.688788647398033"><ele>215.0</ele><time>2026-05-01T15:34:05Z</time></trkpt><trkpt lat="43.147167393245745" lon="10.688796591520534"><ele>213.83333333333334</ele><time>2026-05-01T15:34:08Z</time></trkpt><trkpt lat="43.147107721322165" lon="10.688870107348768"><ele>212.66666666666669</ele><time>2026-05-01T15:34:10Z</time></trkpt><trkpt lat="43.14705673499643" lon="10.688936472778225"><ele>211.5</ele><time>2026-05-01T15:34:12Z</time></trkpt><trkpt lat="43.147033962441085" lon="10.689038864429163"><ele>210.33333333333331</ele><time>2026-05-01T15:34:15Z</time></trkpt><trkpt lat="43.146977880204155" lon="10.689121542361546"><ele>209.16666666666666</ele><time>2026-05-01T15:34:18Z</time></trkpt><trkpt lat="43.146951162544546" lon="10.689222877430938"><ele>208.0</ele><time>2026-05-01T15:34:20Z</time></trkpt><trkpt lat="43.14691172496279" lon="10.68932718590881"><ele>207.99999999999997</ele><time>2026-05-01T15:34:22Z</time></trkpt><trkpt lat="43.14689144748328" lon="10.689414460185906"><ele>208.0</ele><time>2026-05-01T15:34:24Z</time></trkpt><trkpt lat="43.146849290115696" lon="10.689492271758716"><ele>208.0</ele><time>2026-05-01T15:34:26Z</time></trkpt><trkpt lat="43.14679451220426" lon="10.689566190984742"><ele>208.0</ele><time>2026-05-01T15:34:28Z</time></trkpt><trkpt lat="43.14671148248028" lon="10.68969794611932"><ele>207.99999999999997</ele><time>2026-05-01T15:34:30Z</time></trkpt><trkpt lat="43.14666323590548" lon="10.689782707610561"><ele>208.0</ele><time>2026-05-01T15:34:31Z</time></trkpt><trkpt lat="43.14659513630559" lon="10.689861453586802"><ele>207.4</ele><time>2026-05-01T15:34:33Z</time></trkpt><trkpt lat="43.146577352369626" lon="10.689958464032623"><ele>206.8</ele><time>2026-05-01T15:34:35Z</time></trkpt><trkpt lat="43.1465690264538" lon="10.690068241336325"><ele>206.2</ele><time>2026-05-01T15:34:36Z</time></trkpt><trkpt lat="43.14657869200894" lon="10.690168422442165"><ele>205.6</ele><time>2026-05-01T15:34:37Z</time></trkpt><trkpt lat="43.1465764001281" lon="10.690330880776738"><ele>205.0</ele><time>2026-05-01T15:34:39Z</time></trkpt><trkpt lat="43.14657441916213" lon="10.690493718691886"><ele>205.0</ele><time>2026-05-01T15:34:41Z</time></trkpt><trkpt lat="43.14656486843958" lon="10.690625225208978"><ele>205.0</ele><time>2026-05-01T15:34:43Z</time></trkpt><trkpt lat="43.14656541944163" lon="10.690775733579002"><ele>205.0</ele><time>2026-05-01T15:34:45Z</time></trkpt><trkpt lat="43.14657508047312" lon="10.690908027034483"><ele>205.0</ele><time>2026-05-01T15:34:47Z</time></trkpt><trkpt lat="43.146612108174416" lon="10.69104172904379"><ele>205.0</ele><time>2026-05-01T15:34:49Z</time></trkpt><trkpt lat="43.14664354599857" lon="10.691127717591783"><ele>205.66666666666666</ele><time>2026-05-01T15:34:50Z</time></trkpt><trkpt lat="43.14669762558203" lon="10.691203765968737"><ele>206.33333333333331</ele><time>2026-05-01T15:34:52Z</time></trkpt><trkpt lat="43.14677235207559" lon="10.691287390947425"><ele>207.0</ele><time>2026-05-01T15:34:54Z</time></trkpt><trkpt lat="43.146699839658616" lon="10.69139303967626"><ele>207.66666666666669</ele><time>2026-05-01T15:34:57Z</time></trkpt><trkpt lat="43.146664295160996" lon="10.691474042266274"><ele>208.33333333333334</ele><time>2026-05-01T15:34:58Z</time></trkpt><trkpt lat="43.14663914155179" lon="10.691598338238967"><ele>209.0</ele><time>2026-05-01T15:35:00Z</time></trkpt><trkpt lat="43.14663078260572" lon="10.691711212457264"><ele>209.00000000000003</ele><time>2026-05-01T15:35:02Z</time></trkpt><trkpt lat="43.14660848071586" lon="10.691801118424909"><ele>209.0</ele><time>2026-05-01T15:35:09Z</time></trkpt><trkpt lat="43.14657383687157" lon="10.69187663510847"><ele>209.0</ele><time>2026-05-01T15:35:17Z</time></trkpt><trkpt lat="43.14653788981262" lon="10.691948640011352"><ele>209.0</ele><time>2026-05-01T15:35:22Z</time></trkpt><trkpt lat="43.1464884522433" lon="10.692063975857645"><ele>209.00000000000003</ele><time>2026-05-01T15:35:25Z</time></trkpt><trkpt lat="43.146438169160014" lon="10.692165525886411"><ele>209.0</ele><time>2026-05-01T15:35:28Z</time></trkpt><trkpt lat="43.14638647673114" lon="10.692273985125903"><ele>210.6</ele><time>2026-05-01T15:35:30Z</time></trkpt><trkpt lat="43.14632138655458" lon="10.692372345987309"><ele>212.2</ele><time>2026-05-01T15:35:33Z</time></trkpt><trkpt lat="43.14625676706974" lon="10.692486455840852"><ele>213.79999999999998</ele><time>2026-05-01T15:35:35Z</time></trkpt><trkpt lat="43.14616148082826" lon="10.692540057588388"><ele>215.39999999999998</ele><time>2026-05-01T15:35:37Z</time></trkpt><trkpt lat="43.146066844228386" lon="10.692583123591506"><ele>217.0</ele><time>2026-05-01T15:35:39Z</time></trkpt><trkpt lat="43.145985084162" lon="10.692586294167473"><ele>216.99999999999997</ele><time>2026-05-01T15:35:41Z</time></trkpt><trkpt lat="43.14591600104942" lon="10.692671529417671"><ele>217.0</ele><time>2026-05-01T15:35:43Z</time></trkpt><trkpt lat="43.14587380282641" lon="10.69279536855081"><ele>217.0</ele><time>2026-05-01T15:35:45Z</time></trkpt><trkpt lat="43.14584129612671" lon="10.692881232509967"><ele>217.0</ele><time>2026-05-01T15:35:47Z</time></trkpt><trkpt lat="43.14578252596235" lon="10.692918342077377"><ele>216.99999999999997</ele><time>2026-05-01T15:35:49Z</time></trkpt><trkpt lat="43.145694850523626" lon="10.692931470483495"><ele>217.0</ele><time>2026-05-01T15:35:51Z</time></trkpt><trkpt lat="43.14560285302357" lon="10.692955847565502"><ele>216.99999999999997</ele><time>2026-05-01T15:35:55Z</time></trkpt><trkpt lat="43.14553541363697" lon="10.692968172872668"><ele>217.0</ele><time>2026-05-01T15:35:58Z</time></trkpt><trkpt lat="43.14544596629134" lon="10.693024303577081"><ele>217.0</ele><time>2026-05-01T15:36:02Z</time></trkpt><trkpt lat="43.14538808882508" lon="10.693066204192435"><ele>217.0</ele><time>2026-05-01T15:36:05Z</time></trkpt><trkpt lat="43.14532312792531" lon="10.69308340698067"><ele>216.99999999999997</ele><time>2026-05-01T15:36:07Z</time></trkpt><trkpt lat="43.1452670171461" lon="10.693186925083342"><ele>217.0</ele><time>2026-05-01T15:36:10Z</time></trkpt><trkpt lat="43.145193272973906" lon="10.693276084716034"><ele>217.0</ele><time>2026-05-01T15:36:12Z</time></trkpt><trkpt lat="43.14512777239858" lon="10.693333622246548"><ele>217.0</ele><time>2026-05-01T15:36:13Z</time></trkpt><trkpt lat="43.1450248432762" lon="10.693368966716116"><ele>217.0</ele><time>2026-05-01T15:36:15Z</time></trkpt><trkpt lat="43.144948475841" lon="10.693414305609682"><ele>217.0</ele><time>2026-05-01T15:36:18Z</time></trkpt><trkpt lat="43.144839163214115" lon="10.693448105273651"><ele>217.0</ele><time>2026-05-01T15:36:20Z</time></trkpt><trkpt lat="43.144749796936004" lon="10.69344478078247"><ele>217.2</ele><time>2026-05-01T15:36:22Z</time></trkpt><trkpt lat="43.1446537597719" lon="10.693507403655328"><ele>217.39999999999998</ele><time>2026-05-01T15:36:24Z</time></trkpt><trkpt lat="43.1445552827315" lon="10.69356504549644"><ele>217.60000000000002</ele><time>2026-05-01T15:36:26Z</time></trkpt><trkpt lat="43.144451682632415" lon="10.693600857034063"><ele>217.8</ele><time>2026-05-01T15:36:28Z</time></trkpt><trkpt lat="43.14432679535346" lon="10.69363007202361"><ele>218.0</ele><time>2026-05-01T15:36:30Z</time></trkpt><trkpt lat="43.14425025523597" lon="10.693635429621342"><ele>218.0</ele><time>2026-05-01T15:36:31Z</time></trkpt><trkpt lat="43.14417919565866" lon="10.693645207084664"><ele>218.0</ele><time>2026-05-01T15:36:33Z</time></trkpt><trkpt lat="43.14407317805907" lon="10.69366728142326"><ele>218.0</ele><time>2026-05-01T15:36:35Z</time></trkpt><trkpt lat="43.143988838037295" lon="10.69366633208154"><ele>218.0</ele><time>2026-05-01T15:36:41Z</time></trkpt><trkpt lat="43.14389687590432" lon="10.693765525004046"><ele>218.0</ele><time>2026-05-01T15:36:44Z</time></trkpt><trkpt lat="43.14381223285079" lon="10.693876444127682"><ele>218.0</ele><time>2026-05-01T15:36:47Z</time></trkpt><trkpt lat="43.143731269385825" lon="10.693905455257497"><ele>218.0</ele><time>2026-05-01T15:36:49Z</time></trkpt><trkpt lat="43.14363711065269" lon="10.693925805591007"><ele>218.0</ele><time>2026-05-01T15:36:51Z</time></trkpt><trkpt lat="43.143544631434374" lon="10.693962233209302"><ele>218.0</ele><time>2026-05-01T15:36:54Z</time></trkpt><trkpt lat="43.143437168891325" lon="10.694028902371919"><ele>218.0</ele><time>2026-05-01T15:36:56Z</time></trkpt><trkpt lat="43.14333774267259" lon="10.694033908933621"><ele>218.00000000000003</ele><time>2026-05-01T15:36:58Z</time></trkpt><trkpt lat="43.143262790171754" lon="10.694000198657559"><ele>218.0</ele><time>2026-05-01T15:37:00Z</time></trkpt><trkpt lat="43.14320193021226" lon="10.693957083874311"><ele>218.0</ele><time>2026-05-01T15:37:01Z</time></trkpt><trkpt lat="43.143145132753716" lon="10.693913611646579"><ele>218.0</ele><time>2026-05-01T15:37:03Z</time></trkpt><trkpt lat="43.143064614873744" lon="10.693885890966493"><ele>218.00000000000003</ele><time>2026-05-01T15:37:05Z</time></trkpt><trkpt lat="43.14293900759084" lon="10.693855184378199"><ele>218.0</ele><time>2026-05-01T15:37:07Z</time></trkpt><trkpt lat="43.14287242017792" lon="10.69384429779032"><ele>218.0</ele><time>2026-05-01T15:37:08Z</time></trkpt><trkpt lat="43.14280635870364" lon="10.69388035674705"><ele>218.0</ele><time>2026-05-01T15:37:09Z</time></trkpt><trkpt lat="43.14275012682249" lon="10.693922975165712"><ele>218.0</ele><time>2026-05-01T15:37:10Z</time></trkpt><trkpt lat="43.142683829891524" lon="10.693916267478237"><ele>218.0</ele><time>2026-05-01T15:37:12Z</time></trkpt><trkpt lat="43.14263141645696" lon="10.693865540019617"><ele>218.0</ele><time>2026-05-01T15:37:15Z</time></trkpt><trkpt lat="43.1425218150403" lon="10.693824279314814"><ele>218.0</ele><time>2026-05-01T15:37:18Z</time></trkpt><trkpt lat="43.14245762106575" lon="10.693788953554076"><ele>218.0</ele><time>2026-05-01T15:37:19Z</time></trkpt><trkpt lat="43.14235791933459" lon="10.693762306091838"><ele>217.83333333333334</ele><time>2026-05-01T15:37:21Z</time></trkpt><trkpt lat="43.14226326507763" lon="10.693766382207253"><ele>217.66666666666669</ele><time>2026-05-01T15:37:23Z</time></trkpt><trkpt lat="43.142178559577026" lon="10.693729981301598"><ele>217.5</ele><time>2026-05-01T15:37:25Z</time></trkpt><trkpt lat="43.14210038339031" lon="10.69370422919835"><ele>217.33333333333331</ele><time>2026-05-01T15:37:27Z</time></trkpt><trkpt lat="43.14203526293963" lon="10.693735873354761"><ele>217.16666666666666</ele><time>2026-05-01T15:37:29Z</time></trkpt><trkpt lat="43.14196803196039" lon="10.693758336005951"><ele>217.0</ele><time>2026-05-01T15:37:31Z</time></trkpt><trkpt lat="43.14189212362414" lon="10.693783394429028"><ele>216.99999999999997</ele><time>2026-05-01T15:37:34Z</time></trkpt><trkpt lat="43.14180758245343" lon="10.693790763650941"><ele>217.0</ele><time>2026-05-01T15:37:37Z</time></trkpt><trkpt lat="43.14173564554194" lon="10.693825897701718"><ele>217.0</ele><time>2026-05-01T15:37:39Z</time></trkpt><trkpt lat="43.14165987834967" lon="10.69388061338551"><ele>217.0</ele><time>2026-05-01T15:37:43Z</time></trkpt><trkpt lat="43.14157894767609" lon="10.69391571581834"><ele>216.99999999999997</ele><time>2026-05-01T15:37:45Z</time></trkpt><trkpt lat="43.14151841277976" lon="10.693941009615576"><ele>217.0</ele><time>2026-05-01T15:37:48Z</time></trkpt><trkpt lat="43.141449704501284" lon="10.693973442399097"><ele>215.71428571428572</ele><time>2026-05-01T15:37:54Z</time></trkpt><trkpt lat="43.14138558135993" lon="10.694007323907659"><ele>214.42857142857144</ele><time>2026-05-01T15:38:04Z</time></trkpt><trkpt lat="43.14131981267716" lon="10.693984598321679"><ele>213.14285714285714</ele><time>2026-05-01T15:38:10Z</time></trkpt><trkpt lat="43.14125677286528" lon="10.693977023338027"><ele>211.85714285714286</ele><time>2026-05-01T15:38:15Z</time></trkpt><trkpt lat="43.14118694727597" lon="10.693978446315146"><ele>210.57142857142858</ele><time>2026-05-01T15:38:18Z</time></trkpt><trkpt lat="43.141115664564005" lon="10.693985246086749"><ele>209.28571428571428</ele><time>2026-05-01T15:38:22Z</time></trkpt><trkpt lat="43.14103716246356" lon="10.693998984235703"><ele>208.0</ele><time>2026-05-01T15:38:26Z</time></trkpt><trkpt lat="43.14096177998775" lon="10.694009935992813"><ele>207.99999999999997</ele><time>2026-05-01T15:38:31Z</time></trkpt><trkpt lat="43.140886776389" lon="10.69396301670322"><ele>208.0</ele><time>2026-05-01T15:38:37Z</time></trkpt><trkpt lat="43.140807138946556" lon="10.69393837308498"><ele>208.0</ele><time>2026-05-01T15:38:41Z</time></trkpt><trkpt lat="43.14071268083811" lon="10.693898641341052"><ele>208.0</ele><time>2026-05-01T15:38:44Z</time></trkpt><trkpt lat="43.14063455246051" lon="10.693887066474929"><ele>207.99999999999997</ele><time>2026-05-01T15:38:47Z</time></trkpt><trkpt lat="43.14055323924618" lon="10.693890766910625"><ele>208.0</ele><time>2026-05-01T15:38:53Z</time></trkpt><trkpt lat="43.140478856556804" lon="10.693872832847639"><ele>207.33333333333331</ele><time>2026-05-01T15:38:57Z</time></trkpt><trkpt lat="43.14041160490072" lon="10.693895188922374"><ele>206.66666666666666</ele><time>2026-05-01T15:39:00Z</time></trkpt><trkpt lat="43.14034738124606" lon="10.693909366984643"><ele>206.0</ele><time>2026-05-01T15:39:02Z</time></trkpt><trkpt lat="43.14026801161148" lon="10.6939215166675"><ele>205.33333333333331</ele><time>2026-05-01T15:39:05Z</time></trkpt><trkpt lat="43.14020559888383" lon="10.693956669305456"><ele>204.66666666666666</ele><time>2026-05-01T15:39:07Z</time></trkpt><trkpt lat="43.140074314791086" lon="10.69396208797407"><ele>204.0</ele><time>2026-05-01T15:39:09Z</time></trkpt><trkpt lat="43.13994122771719" lon="10.693964583333695"><ele>202.66666666666666</ele><time>2026-05-01T15:39:11Z</time></trkpt><trkpt lat="43.13983286829201" lon="10.693959397230387"><ele>201.33333333333331</ele><time>2026-05-01T15:39:13Z</time></trkpt><trkpt lat="43.13975648923694" lon="10.693965644153677"><ele>200.0</ele><time>2026-05-01T15:39:15Z</time></trkpt><trkpt lat="43.13969088650235" lon="10.69392556629998"><ele>198.66666666666666</ele><time>2026-05-01T15:39:25Z</time></trkpt><trkpt lat="43.139613244121946" lon="10.693909337644769"><ele>197.33333333333331</ele><time>2026-05-01T15:39:29Z</time></trkpt><trkpt lat="43.139532081482244" lon="10.693869469334311"><ele>196.0</ele><time>2026-05-01T15:39:31Z</time></trkpt><trkpt lat="43.13944350178582" lon="10.693841260011999"><ele>195.99999999999997</ele><time>2026-05-01T15:39:33Z</time></trkpt><trkpt lat="43.13935947718467" lon="10.693830641878362"><ele>196.0</ele><time>2026-05-01T15:39:35Z</time></trkpt><trkpt lat="43.139279690129385" lon="10.693877122813156"><ele>196.0</ele><time>2026-05-01T15:39:38Z</time></trkpt><trkpt lat="43.139210328231655" lon="10.693916737479185"><ele>196.0</ele><time>2026-05-01T15:39:40Z</time></trkpt><trkpt lat="43.13909102275934" lon="10.693957420209829"><ele>195.99999999999997</ele><time>2026-05-01T15:39:42Z</time></trkpt><trkpt lat="43.13901507175123" lon="10.693985206041079"><ele>196.0</ele><time>2026-05-01T15:39:43Z</time></trkpt><trkpt lat="43.13894301094738" lon="10.694001196201341"><ele>194.66666666666666</ele><time>2026-05-01T15:39:44Z</time></trkpt><trkpt lat="43.138837305685165" lon="10.694017527420991"><ele>193.33333333333331</ele><time>2026-05-01T15:39:46Z</time></trkpt><trkpt lat="43.13877419898093" lon="10.69400870175419"><ele>192.0</ele><time>2026-05-01T15:39:48Z</time></trkpt><trkpt lat="43.13870985093151" lon="10.694002577315903"><ele>190.66666666666666</ele><time>2026-05-01T15:39:49Z</time></trkpt><trkpt lat="43.13863297370351" lon="10.693993196997999"><ele>189.33333333333331</ele><time>2026-05-01T15:39:50Z</time></trkpt><trkpt lat="43.138533285512075" lon="10.69396619462786"><ele>188.0</ele><time>2026-05-01T15:39:51Z</time></trkpt><trkpt lat="43.138463418416734" lon="10.693958121103384"><ele>188.0</ele><time>2026-05-01T15:39:52Z</time></trkpt><trkpt lat="43.13834897608107" lon="10.693952264651262"><ele>188.0</ele><time>2026-05-01T15:39:54Z</time></trkpt><trkpt lat="43.13828381411525" lon="10.69396772565582"><ele>188.0</ele><time>2026-05-01T15:39:55Z</time></trkpt><trkpt lat="43.138209934583635" lon="10.693984768929358"><ele>188.0</ele><time>2026-05-01T15:39:56Z</time></trkpt><trkpt lat="43.13814461522331" lon="10.693997067055747"><ele>188.0</ele><time>2026-05-01T15:39:57Z</time></trkpt><trkpt lat="43.13805182339749" lon="10.694007268758563"><ele>188.0</ele><time>2026-05-01T15:39:59Z</time></trkpt><trkpt lat="43.1379495483549" lon="10.694023288638789"><ele>186.0</ele><time>2026-05-01T15:40:01Z</time></trkpt><trkpt lat="43.13785197694852" lon="10.694045149166174"><ele>184.0</ele><time>2026-05-01T15:40:03Z</time></trkpt><trkpt lat="43.13772583402733" lon="10.694116510910423"><ele>182.0</ele><time>2026-05-01T15:40:05Z</time></trkpt><trkpt lat="43.13765836274346" lon="10.694166947816464"><ele>180.0</ele><time>2026-05-01T15:40:06Z</time></trkpt><trkpt lat="43.13758537168141" lon="10.694201466515755"><ele>178.0</ele><time>2026-05-01T15:40:08Z</time></trkpt><trkpt lat="43.137506800430586" lon="10.69421112719223"><ele>178.0</ele><time>2026-05-01T15:40:09Z</time></trkpt><trkpt lat="43.13741257991657" lon="10.69422355188212"><ele>178.0</ele><time>2026-05-01T15:40:10Z</time></trkpt><trkpt lat="43.13735239142043" lon="10.694254340405301"><ele>178.0</ele><time>2026-05-01T15:40:11Z</time></trkpt><trkpt lat="43.137243100994084" lon="10.694323847521078"><ele>178.0</ele><time>2026-05-01T15:40:13Z</time></trkpt><trkpt lat="43.13716149177278" lon="10.69438148898683"><ele>178.0</ele><time>2026-05-01T15:40:14Z</time></trkpt><trkpt lat="43.137097407793476" lon="10.694404560940962"><ele>178.0</ele><time>2026-05-01T15:40:15Z</time></trkpt><trkpt lat="43.137011928986944" lon="10.694417467693208"><ele>176.83333333333334</ele><time>2026-05-01T15:40:16Z</time></trkpt><trkpt lat="43.1369074213183" lon="10.69444017179079"><ele>175.66666666666669</ele><time>2026-05-01T15:40:17Z</time></trkpt><trkpt lat="43.136816826322224" lon="10.694468182563119"><ele>174.5</ele><time>2026-05-01T15:40:18Z</time></trkpt><trkpt lat="43.13674739395294" lon="10.694491072881025"><ele>173.33333333333334</ele><time>2026-05-01T15:40:19Z</time></trkpt><trkpt lat="43.13666694381374" lon="10.69448450831715"><ele>172.16666666666666</ele><time>2026-05-01T15:40:21Z</time></trkpt><trkpt lat="43.13659609509993" lon="10.694393543343686"><ele>171.0</ele><time>2026-05-01T15:40:23Z</time></trkpt><trkpt lat="43.13650640648042" lon="10.694368764860844"><ele>169.16666666666666</ele><time>2026-05-01T15:40:25Z</time></trkpt><trkpt lat="43.13642907489698" lon="10.694310104802623"><ele>167.33333333333334</ele><time>2026-05-01T15:40:28Z</time></trkpt><trkpt lat="43.13641321795491" lon="10.694176542024886"><ele>165.5</ele><time>2026-05-01T15:40:30Z</time></trkpt><trkpt lat="43.13640531974462" lon="10.694050849054985"><ele>163.66666666666669</ele><time>2026-05-01T15:40:32Z</time></trkpt><trkpt lat="43.13639577139106" lon="10.693952104398337"><ele>161.83333333333334</ele><time>2026-05-01T15:40:34Z</time></trkpt><trkpt lat="43.13636188154336" lon="10.693878733368196"><ele>160.0</ele><time>2026-05-01T15:40:36Z</time></trkpt><trkpt lat="43.13632361796251" lon="10.693799761822982"><ele>160.0</ele><time>2026-05-01T15:40:38Z</time></trkpt><trkpt lat="43.13623630354502" lon="10.693746061179878"><ele>160.0</ele><time>2026-05-01T15:40:40Z</time></trkpt><trkpt lat="43.136164199039335" lon="10.693690587613604"><ele>160.0</ele><time>2026-05-01T15:40:42Z</time></trkpt><trkpt lat="43.136102395784455" lon="10.693625561844613"><ele>160.0</ele><time>2026-05-01T15:40:44Z</time></trkpt><trkpt lat="43.13603295981736" lon="10.69358219842643"><ele>160.0</ele><time>2026-05-01T15:40:46Z</time></trkpt><trkpt lat="43.13595736584001" lon="10.693521152825351"><ele>160.0</ele><time>2026-05-01T15:40:48Z</time></trkpt><trkpt lat="43.13589061309322" lon="10.693487617431616"><ele>158.5</ele><time>2026-05-01T15:40:50Z</time></trkpt><trkpt lat="43.13579456526079" lon="10.693491557292816"><ele>157.0</ele><time>2026-05-01T15:41:43Z</time></trkpt><trkpt lat="43.13573084081306" lon="10.693551598662792"><ele>155.5</ele><time>2026-05-01T15:41:45Z</time></trkpt><trkpt lat="43.13565426051578" lon="10.693607588217992"><ele>154.0</ele><time>2026-05-01T15:41:47Z</time></trkpt><trkpt lat="43.13558950943227" lon="10.693624211864224"><ele>152.5</ele><time>2026-05-01T15:41:49Z</time></trkpt><trkpt lat="43.13550407650902" lon="10.69362428139473"><ele>151.0</ele><time>2026-05-01T15:41:51Z</time></trkpt><trkpt lat="43.13541326283332" lon="10.693606080822574"><ele>147.6</ele><time>2026-05-01T15:41:53Z</time></trkpt><trkpt lat="43.13532296886152" lon="10.693581596377985"><ele>144.2</ele><time>2026-05-01T15:41:55Z</time></trkpt><trkpt lat="43.13523311979409" lon="10.6935668844945"><ele>140.8</ele><time>2026-05-01T15:41:57Z</time></trkpt><trkpt lat="43.13514996477212" lon="10.693556094067555"><ele>137.4</ele><time>2026-05-01T15:41:59Z</time></trkpt><trkpt lat="43.13504957957889" lon="10.69353176685501"><ele>134.0</ele><time>2026-05-01T15:42:01Z</time></trkpt><trkpt lat="43.13493005935556" lon="10.693504778678642"><ele>132.4</ele><time>2026-05-01T15:42:03Z</time></trkpt><trkpt lat="43.13484461548431" lon="10.693505287804399"><ele>130.8</ele><time>2026-05-01T15:42:05Z</time></trkpt><trkpt lat="43.13476653579792" lon="10.693537518217376"><ele>129.2</ele><time>2026-05-01T15:42:07Z</time></trkpt><trkpt lat="43.13468123750498" lon="10.693587479907135"><ele>127.6</ele><time>2026-05-01T15:42:09Z</time></trkpt><trkpt lat="43.13458539742514" lon="10.693685427551083"><ele>126.0</ele><time>2026-05-01T15:42:11Z</time></trkpt><trkpt lat="43.13450448265722" lon="10.693815749909648"><ele>126.0</ele><time>2026-05-01T15:42:13Z</time></trkpt><trkpt lat="43.13441500218843" lon="10.693920356538383"><ele>126.0</ele><time>2026-05-01T15:42:15Z</time></trkpt><trkpt lat="43.13433024177443" lon="10.69401890431423"><ele>126.0</ele><time>2026-05-01T15:42:17Z</time></trkpt><trkpt lat="43.1342618855987" lon="10.694086745636355"><ele>126.0</ele><time>2026-05-01T15:42:19Z</time></trkpt><trkpt lat="43.13419240298332" lon="10.694080387577566"><ele>126.0</ele><time>2026-05-01T15:42:21Z</time></trkpt><trkpt lat="43.134146672185416" lon="10.693995558676853"><ele>126.0</ele><time>2026-05-01T15:42:23Z</time></trkpt><trkpt lat="43.1340930629397" lon="10.693882207061723"><ele>126.0</ele><time>2026-05-01T15:42:25Z</time></trkpt><trkpt lat="43.13402356865731" lon="10.693774986239863"><ele>126.0</ele><time>2026-05-01T15:42:27Z</time></trkpt><trkpt lat="43.13393105436798" lon="10.693711250758641"><ele>126.0</ele><time>2026-05-01T15:42:29Z</time></trkpt><trkpt lat="43.13383871044632" lon="10.693733533456722"><ele>126.0</ele><time>2026-05-01T15:42:31Z</time></trkpt><trkpt lat="43.133776880367506" lon="10.693814537575545"><ele>124.33333333333333</ele><time>2026-05-01T15:42:33Z</time></trkpt><trkpt lat="43.1336980668702" lon="10.693894322058167"><ele>122.66666666666666</ele><time>2026-05-01T15:42:35Z</time></trkpt><trkpt lat="43.13364228819072" lon="10.693971988252688"><ele>121.0</ele><time>2026-05-01T15:42:37Z</time></trkpt><trkpt lat="43.133556406221494" lon="10.694004396051717"><ele>119.33333333333333</ele><time>2026-05-01T15:42:50Z</time></trkpt><trkpt lat="43.13347413368196" lon="10.694068932350126"><ele>117.66666666666666</ele><time>2026-05-01T15:42:52Z</time></trkpt><trkpt lat="43.13340192451346" lon="10.694070973007666"><ele>116.0</ele><time>2026-05-01T15:42:54Z</time></trkpt><trkpt lat="43.13328823360038" lon="10.693995341403761"><ele>116.4</ele><time>2026-05-01T15:42:56Z</time></trkpt><trkpt lat="43.13317179460098" lon="10.693990638867886"><ele>116.8</ele><time>2026-05-01T15:42:58Z</time></trkpt><trkpt lat="43.1331017044884" lon="10.69403169353724"><ele>117.20000000000002</ele><time>2026-05-01T15:42:59Z</time></trkpt><trkpt lat="43.13300856116634" lon="10.694089876398012"><ele>117.60000000000001</ele><time>2026-05-01T15:43:00Z</time></trkpt><trkpt lat="43.13293589079901" lon="10.694148317107848"><ele>118.0</ele><time>2026-05-01T15:43:01Z</time></trkpt><trkpt lat="43.132851712998374" lon="10.694225224013108"><ele>118.00000000000001</ele><time>2026-05-01T15:43:02Z</time></trkpt><trkpt lat="43.13279188027292" lon="10.694279624924652"><ele>118.0</ele><time>2026-05-01T15:43:03Z</time></trkpt><trkpt lat="43.13272995672821" lon="10.694319481797635"><ele>118.0</ele><time>2026-05-01T15:43:04Z</time></trkpt><trkpt lat="43.13264388652238" lon="10.694366217079411"><ele>118.0</ele><time>2026-05-01T15:43:05Z</time></trkpt><trkpt lat="43.132552734353816" lon="10.694418049965318"><ele>118.00000000000001</ele><time>2026-05-01T15:43:06Z</time></trkpt><trkpt lat="43.13248128130575" lon="10.694424426642675"><ele>118.0</ele><time>2026-05-01T15:43:07Z</time></trkpt><trkpt lat="43.132411937900926" lon="10.694423325235064"><ele>117.60000000000001</ele><time>2026-05-01T15:43:08Z</time></trkpt><trkpt lat="43.132278786096165" lon="10.694410294271208"><ele>117.20000000000002</ele><time>2026-05-01T15:43:10Z</time></trkpt><trkpt lat="43.132194881450594" lon="10.694391474065702"><ele>116.8</ele><time>2026-05-01T15:43:11Z</time></trkpt><trkpt lat="43.1321239111055" lon="10.694353380981397"><ele>116.4</ele><time>2026-05-01T15:43:12Z</time></trkpt><trkpt lat="43.13204341376128" lon="10.6943295662815"><ele>116.0</ele><time>2026-05-01T15:43:13Z</time></trkpt><trkpt lat="43.131958962111455" lon="10.694322768906835"><ele>116.0</ele><time>2026-05-01T15:43:14Z</time></trkpt><trkpt lat="43.13187513416985" lon="10.694317385487379"><ele>116.0</ele><time>2026-05-01T15:43:15Z</time></trkpt><trkpt lat="43.131789257645266" lon="10.694288827010697"><ele>116.0</ele><time>2026-05-01T15:43:16Z</time></trkpt><trkpt lat="43.131702148688504" lon="10.69427714996453"><ele>116.0</ele><time>2026-05-01T15:43:17Z</time></trkpt><trkpt lat="43.13160819212796" lon="10.694271388835073"><ele>116.0</ele><time>2026-05-01T15:43:18Z</time></trkpt><trkpt lat="43.13150957102349" lon="10.694251682506119"><ele>115.19999999999999</ele><time>2026-05-01T15:43:19Z</time></trkpt><trkpt lat="43.131413266782204" lon="10.69422627564149"><ele>114.39999999999999</ele><time>2026-05-01T15:43:20Z</time></trkpt><trkpt lat="43.131317049103636" lon="10.694199779510129"><ele>113.6</ele><time>2026-05-01T15:43:21Z</time></trkpt><trkpt lat="43.13122169177653" lon="10.694159719518034"><ele>112.8</ele><time>2026-05-01T15:43:22Z</time></trkpt><trkpt lat="43.13112800827292" lon="10.694111535556377"><ele>112.0</ele><time>2026-05-01T15:43:23Z</time></trkpt><trkpt lat="43.131029064695596" lon="10.694079989407777"><ele>112.0</ele><time>2026-05-01T15:43:24Z</time></trkpt><trkpt lat="43.130930235930975" lon="10.694064403193492"><ele>111.99999999999999</ele><time>2026-05-01T15:43:25Z</time></trkpt><trkpt lat="43.130821996056504" lon="10.694059935094268"><ele>111.99999999999999</ele><time>2026-05-01T15:43:26Z</time></trkpt><trkpt lat="43.1307101485838" lon="10.694063614272949"><ele>112.0</ele><time>2026-05-01T15:43:27Z</time></trkpt><trkpt lat="43.13060755817979" lon="10.694054331393014"><ele>112.0</ele><time>2026-05-01T15:43:28Z</time></trkpt><trkpt lat="43.13051220941935" lon="10.694036782502028"><ele>110.39999999999999</ele><time>2026-05-01T15:43:29Z</time></trkpt><trkpt lat="43.13041532242776" lon="10.694032173346574"><ele>108.79999999999998</ele><time>2026-05-01T15:43:30Z</time></trkpt><trkpt lat="43.13032133005862" lon="10.694015300264043"><ele>107.2</ele><time>2026-05-01T15:43:31Z</time></trkpt><trkpt lat="43.130241591995116" lon="10.693970172797465"><ele>105.6</ele><time>2026-05-01T15:43:32Z</time></trkpt><trkpt lat="43.13015879086306" lon="10.693905599542454"><ele>104.0</ele><time>2026-05-01T15:43:33Z</time></trkpt><trkpt lat="43.13008852530908" lon="10.693842950939956"><ele>103.99999999999999</ele><time>2026-05-01T15:43:34Z</time></trkpt><trkpt lat="43.13000406555488" lon="10.69371192746185"><ele>104.0</ele><time>2026-05-01T15:43:36Z</time></trkpt><trkpt lat="43.12997831153715" lon="10.693615662655024"><ele>104.0</ele><time>2026-05-01T15:43:37Z</time></trkpt><trkpt lat="43.12994557976159" lon="10.693528450729321"><ele>104.0</ele><time>2026-05-01T15:43:38Z</time></trkpt><trkpt lat="43.12990145799615" lon="10.693444629253216"><ele>103.99999999999999</ele><time>2026-05-01T15:43:39Z</time></trkpt><trkpt lat="43.12985114652858" lon="10.693357419106844"><ele>104.0</ele><time>2026-05-01T15:43:40Z</time></trkpt><trkpt lat="43.129792838624475" lon="10.693257598641027"><ele>104.80000000000001</ele><time>2026-05-01T15:43:41Z</time></trkpt><trkpt lat="43.12973162771665" lon="10.693145547936904"><ele>105.60000000000001</ele><time>2026-05-01T15:43:42Z</time></trkpt><trkpt lat="43.12967563959746" lon="10.693054567443667"><ele>106.4</ele><time>2026-05-01T15:43:43Z</time></trkpt><trkpt lat="43.12964207250584" lon="10.692974861689901"><ele>107.2</ele><time>2026-05-01T15:43:44Z</time></trkpt><trkpt lat="43.129609904931534" lon="10.692851946094846"><ele>108.0</ele><time>2026-05-01T15:43:46Z</time></trkpt><trkpt lat="43.12948283739114" lon="10.692759413751228"><ele>108.60000000000001</ele><time>2026-05-01T15:43:48Z</time></trkpt><trkpt lat="43.12937915118999" lon="10.692711842969086"><ele>109.20000000000002</ele><time>2026-05-01T15:43:49Z</time></trkpt><trkpt lat="43.129286244497514" lon="10.692669949707508"><ele>109.8</ele><time>2026-05-01T15:43:50Z</time></trkpt><trkpt lat="43.1291995915753" lon="10.692630712150429"><ele>110.4</ele><time>2026-05-01T15:43:51Z</time></trkpt><trkpt lat="43.12911622651307" lon="10.692606081196123"><ele>111.0</ele><time>2026-05-01T15:43:52Z</time></trkpt><trkpt lat="43.12902777333687" lon="10.692573779168878"><ele>109.16666666666667</ele><time>2026-05-01T15:43:53Z</time></trkpt><trkpt lat="43.12894384252902" lon="10.692536719102147"><ele>107.33333333333334</ele><time>2026-05-01T15:43:54Z</time></trkpt><trkpt lat="43.12886001191457" lon="10.692503032690608"><ele>105.5</ele><time>2026-05-01T15:43:55Z</time></trkpt><trkpt lat="43.128780627396154" lon="10.692472691277509"><ele>103.66666666666667</ele><time>2026-05-01T15:43:56Z</time></trkpt><trkpt lat="43.128702406286905" lon="10.69244201412406"><ele>101.83333333333334</ele><time>2026-05-01T15:43:57Z</time></trkpt><trkpt lat="43.1286276694557" lon="10.69241064254719"><ele>100.0</ele><time>2026-05-01T15:43:58Z</time></trkpt><trkpt lat="43.12855938008219" lon="10.692396488118012"><ele>100.00000000000001</ele><time>2026-05-01T15:43:59Z</time></trkpt><trkpt lat="43.12849459829626" lon="10.69239728946916"><ele>100.0</ele><time>2026-05-01T15:44:00Z</time></trkpt><trkpt lat="43.12843254095375" lon="10.692417650188816"><ele>100.0</ele><time>2026-05-01T15:44:01Z</time></trkpt><trkpt lat="43.12837106435061" lon="10.692447177641988"><ele>100.0</ele><time>2026-05-01T15:44:02Z</time></trkpt><trkpt lat="43.1283101574006" lon="10.692487578533473"><ele>100.0</ele><time>2026-05-01T15:44:03Z</time></trkpt><trkpt lat="43.12824788380866" lon="10.69253902965024"><ele>100.00000000000001</ele><time>2026-05-01T15:44:04Z</time></trkpt><trkpt lat="43.128193370837934" lon="10.692605087623452"><ele>100.0</ele><time>2026-05-01T15:44:05Z</time></trkpt><trkpt lat="43.128147620139515" lon="10.692678002030473"><ele>99.6</ele><time>2026-05-01T15:44:06Z</time></trkpt><trkpt lat="43.12795657987724" lon="10.69271118514511"><ele>99.2</ele><time>2026-05-01T15:44:08Z</time></trkpt><trkpt lat="43.12792573434561" lon="10.69278796890537"><ele>98.80000000000001</ele><time>2026-05-01T15:44:22Z</time></trkpt><trkpt lat="43.127884932578255" lon="10.692890577542672"><ele>98.4</ele><time>2026-05-01T15:44:24Z</time></trkpt><trkpt lat="43.12785532385702" lon="10.692979224032614"><ele>98.0</ele><time>2026-05-01T15:44:25Z</time></trkpt><trkpt lat="43.12781763655942" lon="10.69306655396922"><ele>98.0</ele><time>2026-05-01T15:44:26Z</time></trkpt><trkpt lat="43.12778273402159" lon="10.693146702896039"><ele>98.0</ele><time>2026-05-01T15:44:27Z</time></trkpt><trkpt lat="43.12774732694399" lon="10.693241878807815"><ele>98.0</ele><time>2026-05-01T15:44:28Z</time></trkpt><trkpt lat="43.1277074447207" lon="10.693342230410858"><ele>98.0</ele><time>2026-05-01T15:44:29Z</time></trkpt><trkpt lat="43.127676428258276" lon="10.693429674663658"><ele>98.0</ele><time>2026-05-01T15:44:30Z</time></trkpt><trkpt lat="43.12763121700922" lon="10.693495985431273"><ele>98.0</ele><time>2026-05-01T15:44:31Z</time></trkpt><trkpt lat="43.12759723658901" lon="10.693578654208258"><ele>98.0</ele><time>2026-05-01T15:44:32Z</time></trkpt><trkpt lat="43.12757746878307" lon="10.693667586438316"><ele>98.0</ele><time>2026-05-01T15:44:33Z</time></trkpt><trkpt lat="43.127544428270994" lon="10.693743391786226"><ele>98.0</ele><time>2026-05-01T15:44:34Z</time></trkpt><trkpt lat="43.12750649495753" lon="10.69381588045939"><ele>98.0</ele><time>2026-05-01T15:44:35Z</time></trkpt><trkpt lat="43.127475091986504" lon="10.693900344119616"><ele>98.0</ele><time>2026-05-01T15:44:36Z</time></trkpt><trkpt lat="43.127440778513396" lon="10.69398245591958"><ele>98.0</ele><time>2026-05-01T15:44:37Z</time></trkpt><trkpt lat="43.12740362964842" lon="10.694065538354224"><ele>98.0</ele><time>2026-05-01T15:44:38Z</time></trkpt><trkpt lat="43.127363844700064" lon="10.69417036920906"><ele>98.0</ele><time>2026-05-01T15:44:39Z</time></trkpt><trkpt lat="43.12733017428748" lon="10.694278296303077"><ele>97.49999999999999</ele><time>2026-05-01T15:44:40Z</time></trkpt><trkpt lat="43.12729478840537" lon="10.694358665363493"><ele>97.0</ele><time>2026-05-01T15:44:41Z</time></trkpt><trkpt lat="43.12723089119152" lon="10.694497706118153"><ele>96.5</ele><time>2026-05-01T15:44:43Z</time></trkpt><trkpt lat="43.127192713243666" lon="10.694571543017748"><ele>96.0</ele><time>2026-05-01T15:44:44Z</time></trkpt><trkpt lat="43.12715040151853" lon="10.69466176981159"><ele>95.5</ele><time>2026-05-01T15:44:45Z</time></trkpt><trkpt lat="43.12711233469389" lon="10.694751153885699"><ele>95.0</ele><time>2026-05-01T15:44:46Z</time></trkpt><trkpt lat="43.1270766135356" lon="10.694839221729554"><ele>94.83333333333334</ele><time>2026-05-01T15:44:47Z</time></trkpt><trkpt lat="43.12703693370408" lon="10.694924635822977"><ele>94.66666666666667</ele><time>2026-05-01T15:44:48Z</time></trkpt><trkpt lat="43.1269964735868" lon="10.695019250022272"><ele>94.5</ele><time>2026-05-01T15:44:49Z</time></trkpt><trkpt lat="43.12695878299174" lon="10.695110864779844"><ele>94.33333333333333</ele><time>2026-05-01T15:44:50Z</time></trkpt><trkpt lat="43.12692076657111" lon="10.695203888765189"><ele>94.16666666666666</ele><time>2026-05-01T15:44:51Z</time></trkpt><trkpt lat="43.12688033817733" lon="10.695307962755523"><ele>94.0</ele><time>2026-05-01T15:44:52Z</time></trkpt><trkpt lat="43.12683796516877" lon="10.695409254182692"><ele>94.0</ele><time>2026-05-01T15:44:53Z</time></trkpt><trkpt lat="43.126801287310684" lon="10.695497104143497"><ele>94.0</ele><time>2026-05-01T15:44:54Z</time></trkpt><trkpt lat="43.12676316981612" lon="10.695586718566842"><ele>94.0</ele><time>2026-05-01T15:44:55Z</time></trkpt><trkpt lat="43.12673096022773" lon="10.695663957441429"><ele>94.0</ele><time>2026-05-01T15:44:56Z</time></trkpt><trkpt lat="43.12667644832731" lon="10.695794865204167"><ele>94.0</ele><time>2026-05-01T15:44:58Z</time></trkpt><trkpt lat="43.126641993936374" lon="10.695873273256607"><ele>94.0</ele><time>2026-05-01T15:45:45Z</time></trkpt><trkpt lat="43.126672590413655" lon="10.695783184053477"><ele>94.0</ele><time>2026-05-01T15:45:53Z</time></trkpt><trkpt lat="43.126797185711865" lon="10.695561157924319"><ele>94.0</ele><time>2026-05-01T15:45:55Z</time></trkpt><trkpt lat="43.12686705657186" lon="10.695401881154107"><ele>94.0</ele><time>2026-05-01T15:45:56Z</time></trkpt><trkpt lat="43.1269266843359" lon="10.695261906292089"><ele>94.0</ele><time>2026-05-01T15:45:57Z</time></trkpt><trkpt lat="43.12699306161054" lon="10.695099885440765"><ele>94.0</ele><time>2026-05-01T15:45:58Z</time></trkpt><trkpt lat="43.12705830562629" lon="10.694940001762705"><ele>94.0</ele><time>2026-05-01T15:45:59Z</time></trkpt><trkpt lat="43.12712082487958" lon="10.694799203524575"><ele>94.0</ele><time>2026-05-01T15:46:00Z</time></trkpt><trkpt lat="43.12717384333644" lon="10.694667198511414"><ele>94.0</ele><time>2026-05-01T15:46:01Z</time></trkpt><trkpt lat="43.12722235916706" lon="10.694546647916498"><ele>94.0</ele><time>2026-05-01T15:46:02Z</time></trkpt><trkpt lat="43.127270082624804" lon="10.694441163683274"><ele>94.0</ele><time>2026-05-01T15:46:03Z</time></trkpt><trkpt lat="43.12731219461247" lon="10.694330415360419"><ele>94.0</ele><time>2026-05-01T15:46:04Z</time></trkpt><trkpt lat="43.127357051480324" lon="10.69421399142873"><ele>94.0</ele><time>2026-05-01T15:46:05Z</time></trkpt><trkpt lat="43.12740457633573" lon="10.694092799116397"><ele>94.75</ele><time>2026-05-01T15:46:06Z</time></trkpt><trkpt lat="43.12745553075257" lon="10.69396202357404"><ele>95.5</ele><time>2026-05-01T15:46:07Z</time></trkpt><trkpt lat="43.12752049137819" lon="10.693810147255277"><ele>96.25</ele><time>2026-05-01T15:46:08Z</time></trkpt><trkpt lat="43.12758803126755" lon="10.693659097373583"><ele>97.0</ele><time>2026-05-01T15:46:09Z</time></trkpt><trkpt lat="43.127654700891945" lon="10.693512118220687"><ele>97.0</ele><time>2026-05-01T15:46:10Z</time></trkpt><trkpt lat="43.12771776452873" lon="10.693358796338906"><ele>97.0</ele><time>2026-05-01T15:46:11Z</time></trkpt><trkpt lat="43.127779865543374" lon="10.693200105520525"><ele>97.0</ele><time>2026-05-01T15:46:12Z</time></trkpt><trkpt lat="43.12785784942488" lon="10.693051284469608"><ele>97.0</ele><time>2026-05-01T15:46:13Z</time></trkpt><trkpt lat="43.12790970376578" lon="10.692879496462753"><ele>97.25</ele><time>2026-05-01T15:46:14Z</time></trkpt><trkpt lat="43.12797778233717" lon="10.692725055371438"><ele>97.5</ele><time>2026-05-01T15:46:15Z</time></trkpt><trkpt lat="43.128045370218466" lon="10.69256771619576"><ele>97.75</ele><time>2026-05-01T15:46:16Z</time></trkpt><trkpt lat="43.12810785834685" lon="10.692406259870388"><ele>98.0</ele><time>2026-05-01T15:46:17Z</time></trkpt><trkpt lat="43.12816704476818" lon="10.692249015549372"><ele>98.0</ele><time>2026-05-01T15:46:18Z</time></trkpt><trkpt lat="43.12822118286028" lon="10.692103789503161"><ele>98.0</ele><time>2026-05-01T15:46:19Z</time></trkpt><trkpt lat="43.128267622357825" lon="10.691975504648466"><ele>98.0</ele><time>2026-05-01T15:46:20Z</time></trkpt><trkpt lat="43.1283180977226" lon="10.691839202690456"><ele>98.0</ele><time>2026-05-01T15:46:21Z</time></trkpt><trkpt lat="43.12836401523685" lon="10.691713120728313"><ele>98.0</ele><time>2026-05-01T15:46:22Z</time></trkpt><trkpt lat="43.128405919023905" lon="10.691594890716374"><ele>98.4</ele><time>2026-05-01T15:46:23Z</time></trkpt><trkpt lat="43.12844645092515" lon="10.691481947446194"><ele>98.80000000000001</ele><time>2026-05-01T15:46:24Z</time></trkpt><trkpt lat="43.12848748719441" lon="10.691358348989242"><ele>99.2</ele><time>2026-05-01T15:46:25Z</time></trkpt><trkpt lat="43.12853694192237" lon="10.691222129498408"><ele>99.6</ele><time>2026-05-01T15:46:26Z</time></trkpt><trkpt lat="43.128584449187166" lon="10.691084206299259"><ele>100.0</ele><time>2026-05-01T15:46:27Z</time></trkpt><trkpt lat="43.12862611139959" lon="10.690927606986225"><ele>100.25</ele><time>2026-05-01T15:46:28Z</time></trkpt><trkpt lat="43.12866964641745" lon="10.690772895633744"><ele>100.5</ele><time>2026-05-01T15:46:29Z</time></trkpt><trkpt lat="43.12871446016102" lon="10.69060977749883"><ele>100.75</ele><time>2026-05-01T15:46:30Z</time></trkpt><trkpt lat="43.128755243572996" lon="10.690443456819391"><ele>101.0</ele><time>2026-05-01T15:46:31Z</time></trkpt><trkpt lat="43.12879040896848" lon="10.690279275477083"><ele>101.0</ele><time>2026-05-01T15:46:32Z</time></trkpt><trkpt lat="43.12881650239491" lon="10.690103754004046"><ele>101.0</ele><time>2026-05-01T15:46:33Z</time></trkpt><trkpt lat="43.12883777565086" lon="10.689927700855598"><ele>101.0</ele><time>2026-05-01T15:46:34Z</time></trkpt><trkpt lat="43.128852427602475" lon="10.689739079186513"><ele>101.0</ele><time>2026-05-01T15:46:35Z</time></trkpt><trkpt lat="43.12885626339964" lon="10.689532161928955"><ele>101.5</ele><time>2026-05-01T15:46:36Z</time></trkpt><trkpt lat="43.12885991903978" lon="10.689342509210531"><ele>102.0</ele><time>2026-05-01T15:46:37Z</time></trkpt><trkpt lat="43.12886370597087" lon="10.689164811698426"><ele>102.5</ele><time>2026-05-01T15:46:38Z</time></trkpt><trkpt lat="43.128868140792505" lon="10.68898497400092"><ele>103.0</ele><time>2026-05-01T15:46:39Z</time></trkpt><trkpt lat="43.12888859946228" lon="10.688796492782881"><ele>103.0</ele><time>2026-05-01T15:46:40Z</time></trkpt><trkpt lat="43.12889563751426" lon="10.688601132189284"><ele>103.0</ele><time>2026-05-01T15:46:41Z</time></trkpt><trkpt lat="43.128901656685336" lon="10.688393812737507"><ele>103.0</ele><time>2026-05-01T15:46:42Z</time></trkpt><trkpt lat="43.12890770128491" lon="10.688198893317283"><ele>103.0</ele><time>2026-05-01T15:46:43Z</time></trkpt><trkpt lat="43.12891319599299" lon="10.688025280390942"><ele>103.25</ele><time>2026-05-01T15:46:44Z</time></trkpt><trkpt lat="43.12890361819781" lon="10.687851842425564"><ele>103.5</ele><time>2026-05-01T15:46:45Z</time></trkpt><trkpt lat="43.128910119506365" lon="10.68767530748342"><ele>103.75</ele><time>2026-05-01T15:46:46Z</time></trkpt><trkpt lat="43.12891388591207" lon="10.687498436412692"><ele>104.0</ele><time>2026-05-01T15:46:47Z</time></trkpt><trkpt lat="43.12891300331788" lon="10.68731928290021"><ele>104.5</ele><time>2026-05-01T15:46:48Z</time></trkpt><trkpt lat="43.128912610755386" lon="10.687117013847123"><ele>105.0</ele><time>2026-05-01T15:46:49Z</time></trkpt><trkpt lat="43.12890873948368" lon="10.686960863376502"><ele>105.5</ele><time>2026-05-01T15:46:50Z</time></trkpt><trkpt lat="43.12889837757975" lon="10.68678530721899"><ele>106.0</ele><time>2026-05-01T15:46:51Z</time></trkpt><trkpt lat="43.128892585149984" lon="10.686618020793729"><ele>106.0</ele><time>2026-05-01T15:46:52Z</time></trkpt><trkpt lat="43.12888573298794" lon="10.686468936802523"><ele>106.0</ele><time>2026-05-01T15:46:53Z</time></trkpt><trkpt lat="43.12887992387186" lon="10.686336007008853"><ele>106.0</ele><time>2026-05-01T15:46:54Z</time></trkpt><trkpt lat="43.12887348948462" lon="10.68620054360361"><ele>106.0</ele><time>2026-05-01T15:46:55Z</time></trkpt><trkpt lat="43.12888433879047" lon="10.686055534237223"><ele>106.0</ele><time>2026-05-01T15:46:56Z</time></trkpt><trkpt lat="43.12887882933156" lon="10.685899922197429"><ele>106.0</ele><time>2026-05-01T15:46:57Z</time></trkpt><trkpt lat="43.12887311982459" lon="10.685738659861894"><ele>106.0</ele><time>2026-05-01T15:46:58Z</time></trkpt><trkpt lat="43.128867956193105" lon="10.685592815575006"><ele>106.0</ele><time>2026-05-01T15:46:59Z</time></trkpt><trkpt lat="43.12886348921498" lon="10.685460868112012"><ele>106.0</ele><time>2026-05-01T15:47:00Z</time></trkpt><trkpt lat="43.12884816568877" lon="10.685340982543359"><ele>106.0</ele><time>2026-05-01T15:47:01Z</time></trkpt><trkpt lat="43.12884318749216" lon="10.68522595171357"><ele>106.00000000000001</ele><time>2026-05-01T15:47:02Z</time></trkpt><trkpt lat="43.128840553773834" lon="10.685117437917759"><ele>106.0</ele><time>2026-05-01T15:47:03Z</time></trkpt><trkpt lat="43.12883688131509" lon="10.685020923732134"><ele>106.0</ele><time>2026-05-01T15:47:04Z</time></trkpt><trkpt lat="43.128833762426" lon="10.684930631565205"><ele>106.0</ele><time>2026-05-01T15:47:05Z</time></trkpt><trkpt lat="43.128832537245295" lon="10.684756152582155"><ele>106.00000000000001</ele><time>2026-05-01T15:47:07Z</time></trkpt><trkpt lat="43.1288263188161" lon="10.684611925870271"><ele>106.0</ele><time>2026-05-01T15:47:08Z</time></trkpt><trkpt lat="43.12881795839459" lon="10.68443304045116"><ele>107.33333333333334</ele><time>2026-05-01T15:47:09Z</time></trkpt><trkpt lat="43.12880989994707" lon="10.68421929613763"><ele>108.66666666666666</ele><time>2026-05-01T15:47:10Z</time></trkpt><trkpt lat="43.12880183761208" lon="10.684001036660291"><ele>110.0</ele><time>2026-05-01T15:47:11Z</time></trkpt><trkpt lat="43.12879172508421" lon="10.683753213269615"><ele>110.33333333333333</ele><time>2026-05-01T15:47:12Z</time></trkpt><trkpt lat="43.12878403723221" lon="10.683477204616272"><ele>110.66666666666666</ele><time>2026-05-01T15:47:13Z</time></trkpt><trkpt lat="43.12877913990619" lon="10.683202029492874"><ele>111.0</ele><time>2026-05-01T15:47:14Z</time></trkpt><trkpt lat="43.12877068075715" lon="10.682939896339677"><ele>111.33333333333334</ele><time>2026-05-01T15:47:15Z</time></trkpt><trkpt lat="43.12875847235825" lon="10.682667941302002"><ele>111.66666666666667</ele><time>2026-05-01T15:47:16Z</time></trkpt><trkpt lat="43.12875096350136" lon="10.682421888968596"><ele>112.0</ele><time>2026-05-01T15:47:17Z</time></trkpt><trkpt lat="43.128743695796004" lon="10.682189291176496"><ele>112.0</ele><time>2026-05-01T15:47:18Z</time></trkpt><trkpt lat="43.128740391365476" lon="10.681978509061253"><ele>112.0</ele><time>2026-05-01T15:47:19Z</time></trkpt><trkpt lat="43.12874099690411" lon="10.681787475326882"><ele>112.0</ele><time>2026-05-01T15:47:20Z</time></trkpt><trkpt lat="43.12874626076185" lon="10.681593485472057"><ele>112.0</ele><time>2026-05-01T15:47:21Z</time></trkpt><trkpt lat="43.12875660374121" lon="10.681416808187825"><ele>112.0</ele><time>2026-05-01T15:47:22Z</time></trkpt><trkpt lat="43.12876502312792" lon="10.68126005486489"><ele>112.0</ele><time>2026-05-01T15:47:23Z</time></trkpt><trkpt lat="43.128767234309805" lon="10.681106084128098"><ele>112.0</ele><time>2026-05-01T15:47:24Z</time></trkpt><trkpt lat="43.12877533571902" lon="10.680923157251685"><ele>112.0</ele><time>2026-05-01T15:47:25Z</time></trkpt><trkpt lat="43.12878718401612" lon="10.6807202844075"><ele>112.0</ele><time>2026-05-01T15:47:26Z</time></trkpt><trkpt lat="43.12880622007345" lon="10.680519913865375"><ele>112.0</ele><time>2026-05-01T15:47:27Z</time></trkpt><trkpt lat="43.12881737970495" lon="10.680339026610977"><ele>112.0</ele><time>2026-05-01T15:47:28Z</time></trkpt><trkpt lat="43.12883259496581" lon="10.680167250854282"><ele>112.0</ele><time>2026-05-01T15:47:29Z</time></trkpt><trkpt lat="43.128854300693966" lon="10.680000627471403"><ele>112.0</ele><time>2026-05-01T15:47:30Z</time></trkpt><trkpt lat="43.12887371050437" lon="10.679839729206797"><ele>111.99999999999999</ele><time>2026-05-01T15:47:31Z</time></trkpt><trkpt lat="43.12888793695853" lon="10.67969513405909"><ele>111.99999999999999</ele><time>2026-05-01T15:47:32Z</time></trkpt><trkpt lat="43.12890112574385" lon="10.679552228838965"><ele>112.0</ele><time>2026-05-01T15:47:33Z</time></trkpt><trkpt lat="43.12891696677586" lon="10.679406929171314"><ele>112.0</ele><time>2026-05-01T15:47:34Z</time></trkpt><trkpt lat="43.12893221546312" lon="10.67927654309924"><ele>112.00000000000001</ele><time>2026-05-01T15:47:35Z</time></trkpt><trkpt lat="43.12894253277397" lon="10.679166410581196"><ele>112.0</ele><time>2026-05-01T15:47:36Z</time></trkpt><trkpt lat="43.128957076571254" lon="10.67905133653412"><ele>112.0</ele><time>2026-05-01T15:47:37Z</time></trkpt><trkpt lat="43.128966137000276" lon="10.678949092940984"><ele>112.0</ele><time>2026-05-01T15:47:38Z</time></trkpt><trkpt lat="43.1289772850033" lon="10.678842312561887"><ele>112.00000000000001</ele><time>2026-05-01T15:47:39Z</time></trkpt><trkpt lat="43.12899037218976" lon="10.678725623764283"><ele>112.0</ele><time>2026-05-01T15:47:40Z</time></trkpt><trkpt lat="43.12900697269833" lon="10.678602628792364"><ele>112.16666666666667</ele><time>2026-05-01T15:47:41Z</time></trkpt><trkpt lat="43.12902648930449" lon="10.678508691280099"><ele>112.33333333333334</ele><time>2026-05-01T15:47:42Z</time></trkpt><trkpt lat="43.129031021718674" lon="10.678358535572203"><ele>112.5</ele><time>2026-05-01T15:47:44Z</time></trkpt><trkpt lat="43.12905465471553" lon="10.678219026833537"><ele>112.66666666666666</ele><time>2026-05-01T15:47:46Z</time></trkpt><trkpt lat="43.12906853531238" lon="10.678132394002604"><ele>112.83333333333333</ele><time>2026-05-01T15:47:48Z</time></trkpt><trkpt lat="43.129017421010474" lon="10.678199703328351"><ele>113.0</ele><time>2026-05-01T15:48:38Z</time></trkpt><trkpt lat="43.129012711665595" lon="10.678337382521558"><ele>113.0</ele><time>2026-05-01T15:48:40Z</time></trkpt><trkpt lat="43.12899462824861" lon="10.678476485291226"><ele>113.00000000000001</ele><time>2026-05-01T15:48:43Z</time></trkpt><trkpt lat="43.12897795654462" lon="10.678613357137209"><ele>113.00000000000001</ele><time>2026-05-01T15:48:45Z</time></trkpt><trkpt lat="43.12896373610242" lon="10.678773793094377"><ele>113.0</ele><time>2026-05-01T15:48:47Z</time></trkpt><trkpt lat="43.12895493820481" lon="10.678873970247745"><ele>113.0</ele><time>2026-05-01T15:48:48Z</time></trkpt><trkpt lat="43.12893752546646" lon="10.67899903126542"><ele>112.80000000000001</ele><time>2026-05-01T15:48:49Z</time></trkpt><trkpt lat="43.128925854134955" lon="10.679120805701354"><ele>112.60000000000001</ele><time>2026-05-01T15:48:50Z</time></trkpt><trkpt lat="43.12890757829682" lon="10.679263054839229"><ele>112.39999999999999</ele><time>2026-05-01T15:48:51Z</time></trkpt><trkpt lat="43.1288897254476" lon="10.679425976500708"><ele>112.19999999999999</ele><time>2026-05-01T15:48:52Z</time></trkpt><trkpt lat="43.12887320218307" lon="10.679608024257549"><ele>112.0</ele><time>2026-05-01T15:48:53Z</time></trkpt><trkpt lat="43.12885321939985" lon="10.679792736703183"><ele>112.0</ele><time>2026-05-01T15:48:54Z</time></trkpt><trkpt lat="43.128834877135596" lon="10.680000800197124"><ele>112.0</ele><time>2026-05-01T15:48:55Z</time></trkpt><trkpt lat="43.12881092192993" lon="10.680203762619156"><ele>112.0</ele><time>2026-05-01T15:48:56Z</time></trkpt><trkpt lat="43.12878878609231" lon="10.680407250403087"><ele>112.0</ele><time>2026-05-01T15:48:57Z</time></trkpt><trkpt lat="43.128768433261534" lon="10.680604821957674"><ele>112.0</ele><time>2026-05-01T15:48:58Z</time></trkpt><trkpt lat="43.12875631433763" lon="10.680778300333738"><ele>112.0</ele><time>2026-05-01T15:48:59Z</time></trkpt><trkpt lat="43.12875657789774" lon="10.6809483362905"><ele>112.0</ele><time>2026-05-01T15:49:00Z</time></trkpt><trkpt lat="43.12875587789998" lon="10.681107253576867"><ele>112.25</ele><time>2026-05-01T15:49:01Z</time></trkpt><trkpt lat="43.12874609120755" lon="10.68126963969584"><ele>112.5</ele><time>2026-05-01T15:49:02Z</time></trkpt><trkpt lat="43.12873852931708" lon="10.68144054262669"><ele>112.75</ele><time>2026-05-01T15:49:03Z</time></trkpt><trkpt lat="43.12873574610365" lon="10.681617298101212"><ele>113.0</ele><time>2026-05-01T15:49:04Z</time></trkpt><trkpt lat="43.12872983830313" lon="10.681795676438075"><ele>112.75</ele><time>2026-05-01T15:49:05Z</time></trkpt><trkpt lat="43.12872416091612" lon="10.68197833046179"><ele>112.5</ele><time>2026-05-01T15:49:06Z</time></trkpt><trkpt lat="43.128727914888245" lon="10.682164649745966"><ele>112.25</ele><time>2026-05-01T15:49:07Z</time></trkpt><trkpt lat="43.128735127037814" lon="10.68234761404379"><ele>112.0</ele><time>2026-05-01T15:49:08Z</time></trkpt><trkpt lat="43.12874201592577" lon="10.682537262785528"><ele>112.0</ele><time>2026-05-01T15:49:09Z</time></trkpt><trkpt lat="43.12874471646859" lon="10.682725529127913"><ele>112.0</ele><time>2026-05-01T15:49:10Z</time></trkpt><trkpt lat="43.12875062164591" lon="10.682918580837407"><ele>112.0</ele><time>2026-05-01T15:49:11Z</time></trkpt><trkpt lat="43.12876076351472" lon="10.683106284823193"><ele>112.0</ele><time>2026-05-01T15:49:12Z</time></trkpt><trkpt lat="43.12876527123903" lon="10.683287732972204"><ele>111.75</ele><time>2026-05-01T15:49:13Z</time></trkpt><trkpt lat="43.12877184368297" lon="10.683469509690894"><ele>111.5</ele><time>2026-05-01T15:49:14Z</time></trkpt><trkpt lat="43.12877497876483" lon="10.683655038979117"><ele>111.25</ele><time>2026-05-01T15:49:15Z</time></trkpt><trkpt lat="43.128783010279705" lon="10.683841587024634"><ele>111.0</ele><time>2026-05-01T15:49:16Z</time></trkpt><trkpt lat="43.12878949003178" lon="10.684029977750024"><ele>110.75</ele><time>2026-05-01T15:49:17Z</time></trkpt><trkpt lat="43.12879752117385" lon="10.684224578609749"><ele>110.5</ele><time>2026-05-01T15:49:18Z</time></trkpt><trkpt lat="43.12880375885059" lon="10.684423184659869"><ele>110.25</ele><time>2026-05-01T15:49:19Z</time></trkpt><trkpt lat="43.12881244669744" lon="10.684627466915426"><ele>110.0</ele><time>2026-05-01T15:49:20Z</time></trkpt><trkpt lat="43.12881960342314" lon="10.684832155009715"><ele>109.0</ele><time>2026-05-01T15:49:21Z</time></trkpt><trkpt lat="43.12882671302733" lon="10.68502099545865"><ele>108.0</ele><time>2026-05-01T15:49:22Z</time></trkpt><trkpt lat="43.128829875504465" lon="10.685191188286298"><ele>107.0</ele><time>2026-05-01T15:49:23Z</time></trkpt><trkpt lat="43.12883709667665" lon="10.685358316525322"><ele>106.0</ele><time>2026-05-01T15:49:24Z</time></trkpt><trkpt lat="43.12883644546993" lon="10.685526568814542"><ele>106.0</ele><time>2026-05-01T15:49:25Z</time></trkpt><trkpt lat="43.128839236954015" lon="10.685713030137485"><ele>106.0</ele><time>2026-05-01T15:49:26Z</time></trkpt><trkpt lat="43.12884947979191" lon="10.68589499679977"><ele>106.0</ele><time>2026-05-01T15:49:27Z</time></trkpt><trkpt lat="43.12885354456693" lon="10.686026189033406"><ele>106.0</ele><time>2026-05-01T15:49:28Z</time></trkpt><trkpt lat="43.128854267677596" lon="10.686117462598455"><ele>106.0</ele><time>2026-05-01T15:49:29Z</time></trkpt><trkpt lat="43.12884642542388" lon="10.68625255079641"><ele>106.00000000000001</ele><time>2026-05-01T15:49:31Z</time></trkpt><trkpt lat="43.128828241683784" lon="10.68633871828314"><ele>106.0</ele><time>2026-05-01T15:49:33Z</time></trkpt><trkpt lat="43.12873952219678" lon="10.68639292416742"><ele>106.0</ele><time>2026-05-01T15:51:51Z</time></trkpt><trkpt lat="43.12866470884292" lon="10.686391343515341"><ele>106.0</ele><time>2026-05-01T15:51:52Z</time></trkpt><trkpt lat="43.128582215804734" lon="10.686383386169554"><ele>106.00000000000001</ele><time>2026-05-01T15:51:53Z</time></trkpt><trkpt lat="43.12850260300974" lon="10.686375421443666"><ele>106.0</ele><time>2026-05-01T15:51:54Z</time></trkpt><trkpt lat="43.12842515730837" lon="10.686366545609841"><ele>106.00000000000001</ele><time>2026-05-01T15:51:55Z</time></trkpt><trkpt lat="43.128358315374726" lon="10.686366919337683"><ele>106.0</ele><time>2026-05-01T15:51:56Z</time></trkpt><trkpt lat="43.12829134359061" lon="10.686390310670465"><ele>106.0</ele><time>2026-05-01T15:51:57Z</time></trkpt><trkpt lat="43.12819830454669" lon="10.686484703652818"><ele>106.0</ele><time>2026-05-01T15:51:59Z</time></trkpt><trkpt lat="43.128138043238046" lon="10.686557904623392"><ele>106.00000000000001</ele><time>2026-05-01T15:52:01Z</time></trkpt><trkpt lat="43.128081792277214" lon="10.686636207459753"><ele>106.0</ele><time>2026-05-01T15:52:04Z</time></trkpt><trkpt lat="43.12802212807598" lon="10.686725947460795"><ele>106.28571428571429</ele><time>2026-05-01T15:52:08Z</time></trkpt><trkpt lat="43.127961797984824" lon="10.686750764448293"><ele>106.57142857142857</ele><time>2026-05-01T15:52:09Z</time></trkpt><trkpt lat="43.12789240420882" lon="10.686764377545153"><ele>106.85714285714286</ele><time>2026-05-01T15:52:10Z</time></trkpt><trkpt lat="43.12782993252301" lon="10.68677757050166"><ele>107.14285714285714</ele><time>2026-05-01T15:52:11Z</time></trkpt><trkpt lat="43.12776575548041" lon="10.686792045704072"><ele>107.42857142857142</ele><time>2026-05-01T15:52:12Z</time></trkpt><trkpt lat="43.127696624611104" lon="10.686811448969753"><ele>107.71428571428571</ele><time>2026-05-01T15:52:13Z</time></trkpt><trkpt lat="43.127582382911356" lon="10.6868436522079"><ele>108.0</ele><time>2026-05-01T15:52:15Z</time></trkpt><trkpt lat="43.127468355139456" lon="10.686878834384487"><ele>108.0</ele><time>2026-05-01T15:52:17Z</time></trkpt><trkpt lat="43.12740007777003" lon="10.68691845845626"><ele>108.0</ele><time>2026-05-01T15:52:18Z</time></trkpt><trkpt lat="43.1273455846004" lon="10.686975799787787"><ele>108.0</ele><time>2026-05-01T15:52:19Z</time></trkpt><trkpt lat="43.12726876120535" lon="10.687006808718886"><ele>108.0</ele><time>2026-05-01T15:52:20Z</time></trkpt><trkpt lat="43.12719953526554" lon="10.68706202710585"><ele>108.0</ele><time>2026-05-01T15:52:21Z</time></trkpt><trkpt lat="43.127114735801385" lon="10.687154398735153"><ele>108.0</ele><time>2026-05-01T15:52:23Z</time></trkpt><trkpt lat="43.12705476283976" lon="10.687245996482849"><ele>110.0</ele><time>2026-05-01T15:52:24Z</time></trkpt><trkpt lat="43.12701322626246" lon="10.687335612577254"><ele>112.00000000000001</ele><time>2026-05-01T15:52:25Z</time></trkpt><trkpt lat="43.12697464626453" lon="10.687425995020172"><ele>114.00000000000001</ele><time>2026-05-01T15:52:26Z</time></trkpt><trkpt lat="43.126930289747754" lon="10.687533960699696"><ele>116.0</ele><time>2026-05-01T15:52:27Z</time></trkpt><trkpt lat="43.126888148541866" lon="10.687675926950213"><ele>118.0</ele><time>2026-05-01T15:52:28Z</time></trkpt><trkpt lat="43.12683648483708" lon="10.687812299604884"><ele>118.00000000000001</ele><time>2026-05-01T15:52:29Z</time></trkpt><trkpt lat="43.12678758210837" lon="10.687950497173548"><ele>118.0</ele><time>2026-05-01T15:52:30Z</time></trkpt><trkpt lat="43.126744336806745" lon="10.68808709411512"><ele>118.0</ele><time>2026-05-01T15:52:31Z</time></trkpt><trkpt lat="43.12671079619265" lon="10.688185693842575"><ele>118.0</ele><time>2026-05-01T15:52:32Z</time></trkpt><trkpt lat="43.126675207476886" lon="10.688269803272014"><ele>118.00000000000001</ele><time>2026-05-01T15:52:34Z</time></trkpt><trkpt lat="43.12660975894533" lon="10.688273586047375"><ele>118.0</ele><time>2026-05-01T15:52:37Z</time></trkpt><trkpt lat="43.126531802316116" lon="10.688244632847594"><ele>117.85714285714286</ele><time>2026-05-01T15:52:39Z</time></trkpt><trkpt lat="43.126527651921954" lon="10.688142923773933"><ele>117.71428571428572</ele><time>2026-05-01T15:52:40Z</time></trkpt><trkpt lat="43.126484415790074" lon="10.688065541019563"><ele>117.57142857142858</ele><time>2026-05-01T15:52:41Z</time></trkpt><trkpt lat="43.12642049854139" lon="10.687997801029006"><ele>117.42857142857143</ele><time>2026-05-01T15:52:42Z</time></trkpt><trkpt lat="43.126359030397396" lon="10.68795204693638"><ele>117.2857142857143</ele><time>2026-05-01T15:52:43Z</time></trkpt><trkpt lat="43.12629504163123" lon="10.687925869464163"><ele>117.14285714285715</ele><time>2026-05-01T15:52:44Z</time></trkpt><trkpt lat="43.12621531943789" lon="10.687918022659302"><ele>117.0</ele><time>2026-05-01T15:52:45Z</time></trkpt><trkpt lat="43.12612943726625" lon="10.687855434830157"><ele>117.0</ele><time>2026-05-01T15:52:46Z</time></trkpt><trkpt lat="43.1260334867425" lon="10.68777473895935"><ele>116.99999999999999</ele><time>2026-05-01T15:52:47Z</time></trkpt><trkpt lat="43.12594758883896" lon="10.687674465283168"><ele>116.99999999999999</ele><time>2026-05-01T15:52:48Z</time></trkpt><trkpt lat="43.12585815286007" lon="10.687624629245636"><ele>117.0</ele><time>2026-05-01T15:52:49Z</time></trkpt><trkpt lat="43.12581262106423" lon="10.687564815090248"><ele>117.0</ele><time>2026-05-01T15:52:50Z</time></trkpt><trkpt lat="43.125791732978335" lon="10.687388404141752"><ele>118.83333333333333</ele><time>2026-05-01T15:52:52Z</time></trkpt><trkpt lat="43.12578610647435" lon="10.687284704927308"><ele>120.66666666666666</ele><time>2026-05-01T15:52:53Z</time></trkpt><trkpt lat="43.12582276773183" lon="10.687151838752238"><ele>122.5</ele><time>2026-05-01T15:52:54Z</time></trkpt><trkpt lat="43.125859403633264" lon="10.687029884420058"><ele>124.33333333333333</ele><time>2026-05-01T15:52:55Z</time></trkpt><trkpt lat="43.125883415952934" lon="10.686919686718888"><ele>126.16666666666666</ele><time>2026-05-01T15:52:56Z</time></trkpt><trkpt lat="43.12590355337947" lon="10.686805964109825"><ele>128.0</ele><time>2026-05-01T15:52:57Z</time></trkpt><trkpt lat="43.125920046411295" lon="10.686721967367014"><ele>128.4</ele><time>2026-05-01T15:52:58Z</time></trkpt><trkpt lat="43.12587961977711" lon="10.68655445824372"><ele>128.8</ele><time>2026-05-01T15:53:00Z</time></trkpt><trkpt lat="43.125814515915835" lon="10.686472655726211"><ele>129.2</ele><time>2026-05-01T15:53:01Z</time></trkpt><trkpt lat="43.125771269312736" lon="10.686405845273812"><ele>129.6</ele><time>2026-05-01T15:53:02Z</time></trkpt><trkpt lat="43.12577830900997" lon="10.686219143231332"><ele>130.0</ele><time>2026-05-01T15:53:04Z</time></trkpt><trkpt lat="43.125775979931966" lon="10.68607241152275"><ele>130.8</ele><time>2026-05-01T15:53:05Z</time></trkpt><trkpt lat="43.12577428721489" lon="10.68596577044462"><ele>131.6</ele><time>2026-05-01T15:53:06Z</time></trkpt><trkpt lat="43.12577503700296" lon="10.685809973359527"><ele>132.4</ele><time>2026-05-01T15:53:08Z</time></trkpt><trkpt lat="43.12578612557383" lon="10.685700738241563"><ele>133.2</ele><time>2026-05-01T15:53:09Z</time></trkpt><trkpt lat="43.12578481912884" lon="10.685547156164464"><ele>134.0</ele><time>2026-05-01T15:53:10Z</time></trkpt><trkpt lat="43.125799913070445" lon="10.68536605319193"><ele>135.5</ele><time>2026-05-01T15:53:11Z</time></trkpt><trkpt lat="43.12583080384211" lon="10.685179136062626"><ele>137.0</ele><time>2026-05-01T15:53:12Z</time></trkpt><trkpt lat="43.12585325436043" lon="10.685027696225982"><ele>138.5</ele><time>2026-05-01T15:53:13Z</time></trkpt><trkpt lat="43.12588651775085" lon="10.684899876496194"><ele>140.0</ele><time>2026-05-01T15:53:14Z</time></trkpt><trkpt lat="43.12589438602925" lon="10.684763442646453"><ele>140.0</ele><time>2026-05-01T15:53:15Z</time></trkpt><trkpt lat="43.125902499654934" lon="10.684632903930687"><ele>140.0</ele><time>2026-05-01T15:53:16Z</time></trkpt><trkpt lat="43.125893091801856" lon="10.684529109434086"><ele>140.0</ele><time>2026-05-01T15:53:17Z</time></trkpt><trkpt lat="43.12584861829736" lon="10.684356550688694"><ele>140.0</ele><time>2026-05-01T15:53:19Z</time></trkpt><trkpt lat="43.12581718969263" lon="10.684260669431694"><ele>140.0</ele><time>2026-05-01T15:53:20Z</time></trkpt><trkpt lat="43.125802446426235" lon="10.684148448733557"><ele>141.6</ele><time>2026-05-01T15:53:21Z</time></trkpt><trkpt lat="43.12581055720128" lon="10.684036469794597"><ele>143.2</ele><time>2026-05-01T15:53:22Z</time></trkpt><trkpt lat="43.125817215752086" lon="10.683940706788988"><ele>144.8</ele><time>2026-05-01T15:53:23Z</time></trkpt><trkpt lat="43.125814667491255" lon="10.683771911213706"><ele>146.4</ele><time>2026-05-01T15:53:25Z</time></trkpt><trkpt lat="43.12581029860836" lon="10.68367824861301"><ele>148.0</ele><time>2026-05-01T15:53:26Z</time></trkpt><trkpt lat="43.12579398576904" lon="10.683520643009704"><ele>149.16666666666669</ele><time>2026-05-01T15:53:28Z</time></trkpt><trkpt lat="43.12578929127557" lon="10.683365312262413"><ele>150.33333333333334</ele><time>2026-05-01T15:53:30Z</time></trkpt><trkpt lat="43.12578587880579" lon="10.683278906938412"><ele>151.5</ele><time>2026-05-01T15:53:31Z</time></trkpt><trkpt lat="43.125765728681785" lon="10.683190312679432"><ele>152.66666666666666</ele><time>2026-05-01T15:53:32Z</time></trkpt><trkpt lat="43.125733166872045" lon="10.683108950161214"><ele>153.83333333333331</ele><time>2026-05-01T15:53:33Z</time></trkpt><trkpt lat="43.12568801473874" lon="10.68297427142235"><ele>155.0</ele><time>2026-05-01T15:53:35Z</time></trkpt><trkpt lat="43.125668928884956" lon="10.682888942819108"><ele>157.33333333333331</ele><time>2026-05-01T15:53:36Z</time></trkpt><trkpt lat="43.12565231876039" lon="10.682794327994635"><ele>159.66666666666666</ele><time>2026-05-01T15:53:37Z</time></trkpt><trkpt lat="43.125634850260546" lon="10.682676234174506"><ele>162.0</ele><time>2026-05-01T15:53:38Z</time></trkpt><trkpt lat="43.12562191723317" lon="10.682579200559292"><ele>164.33333333333334</ele><time>2026-05-01T15:53:39Z</time></trkpt><trkpt lat="43.125619086761795" lon="10.682426321427169"><ele>166.66666666666669</ele><time>2026-05-01T15:53:41Z</time></trkpt><trkpt lat="43.12559538752339" lon="10.682344322362464"><ele>169.0</ele><time>2026-05-01T15:53:42Z</time></trkpt><trkpt lat="43.12555158250078" lon="10.682256692727714"><ele>171.2</ele><time>2026-05-01T15:53:43Z</time></trkpt><trkpt lat="43.125503535486686" lon="10.6821767831809"><ele>173.39999999999998</ele><time>2026-05-01T15:53:44Z</time></trkpt><trkpt lat="43.12544925475299" lon="10.682097618617737"><ele>175.6</ele><time>2026-05-01T15:53:45Z</time></trkpt><trkpt lat="43.12537829802605" lon="10.681956678422448"><ele>177.8</ele><time>2026-05-01T15:53:47Z</time></trkpt><trkpt lat="43.12528537532044" lon="10.681873433082519"><ele>180.0</ele><time>2026-05-01T15:53:49Z</time></trkpt><trkpt lat="43.12517425860296" lon="10.681780689205379"><ele>181.8</ele><time>2026-05-01T15:53:51Z</time></trkpt><trkpt lat="43.12511226562076" lon="10.681715588808544"><ele>183.6</ele><time>2026-05-01T15:53:52Z</time></trkpt><trkpt lat="43.125047399621394" lon="10.681644628795482"><ele>185.39999999999998</ele><time>2026-05-01T15:53:53Z</time></trkpt><trkpt lat="43.124991934587655" lon="10.68151721344517"><ele>187.2</ele><time>2026-05-01T15:53:55Z</time></trkpt><trkpt lat="43.12494795289664" lon="10.681378366670375"><ele>189.0</ele><time>2026-05-01T15:53:57Z</time></trkpt><trkpt lat="43.1248712598349" lon="10.681241158557434"><ele>191.42857142857142</ele><time>2026-05-01T15:53:59Z</time></trkpt><trkpt lat="43.12482724538227" lon="10.681159913751758"><ele>193.85714285714286</ele><time>2026-05-01T15:54:00Z</time></trkpt><trkpt lat="43.12477429698822" lon="10.681094715867433"><ele>196.28571428571428</ele><time>2026-05-01T15:54:01Z</time></trkpt><trkpt lat="43.12470274131729" lon="10.68106113469282"><ele>198.71428571428572</ele><time>2026-05-01T15:54:02Z</time></trkpt><trkpt lat="43.12462686368779" lon="10.681046238805365"><ele>201.14285714285714</ele><time>2026-05-01T15:54:03Z</time></trkpt><trkpt lat="43.12455788665342" lon="10.681051911068185"><ele>203.57142857142856</ele><time>2026-05-01T15:54:04Z</time></trkpt><trkpt lat="43.1244829651513" lon="10.681092683944813"><ele>206.0</ele><time>2026-05-01T15:54:05Z</time></trkpt><trkpt lat="43.124396196075566" lon="10.681172123024302"><ele>206.0</ele><time>2026-05-01T15:54:06Z</time></trkpt><trkpt lat="43.12429556855114" lon="10.681264414703065"><ele>206.0</ele><time>2026-05-01T15:54:07Z</time></trkpt><trkpt lat="43.12422317277206" lon="10.681344199732257"><ele>206.0</ele><time>2026-05-01T15:54:08Z</time></trkpt><trkpt lat="43.12411902859722" lon="10.681371610771146"><ele>206.0</ele><time>2026-05-01T15:54:10Z</time></trkpt><trkpt lat="43.12402619291287" lon="10.68128883922597"><ele>206.0</ele><time>2026-05-01T15:54:12Z</time></trkpt><trkpt lat="43.12397396372172" lon="10.681202897707564"><ele>206.0</ele><time>2026-05-01T15:54:13Z</time></trkpt><trkpt lat="43.12392686074884" lon="10.681115790886363"><ele>206.0</ele><time>2026-05-01T15:54:14Z</time></trkpt><trkpt lat="43.12388786967356" lon="10.681015654482994"><ele>206.0</ele><time>2026-05-01T15:54:15Z</time></trkpt><trkpt lat="43.12385819037226" lon="10.680911564156"><ele>206.0</ele><time>2026-05-01T15:54:16Z</time></trkpt><trkpt lat="43.12383143781882" lon="10.680786797949501"><ele>206.0</ele><time>2026-05-01T15:54:17Z</time></trkpt><trkpt lat="43.12379260341757" lon="10.680641590383987"><ele>209.0</ele><time>2026-05-01T15:54:18Z</time></trkpt><trkpt lat="43.12375593714189" lon="10.680515551871315"><ele>212.0</ele><time>2026-05-01T15:54:19Z</time></trkpt><trkpt lat="43.12371818542725" lon="10.680362105062734"><ele>215.00000000000003</ele><time>2026-05-01T15:54:20Z</time></trkpt><trkpt lat="43.12369252797882" lon="10.68024141741524"><ele>218.0</ele><time>2026-05-01T15:54:21Z</time></trkpt><trkpt lat="43.12366852426283" lon="10.680122299577485"><ele>221.0</ele><time>2026-05-01T15:54:22Z</time></trkpt><trkpt lat="43.123641481359776" lon="10.679991900079212"><ele>221.2857142857143</ele><time>2026-05-01T15:54:23Z</time></trkpt><trkpt lat="43.123612605654394" lon="10.67987893835879"><ele>221.57142857142858</ele><time>2026-05-01T15:54:24Z</time></trkpt><trkpt lat="43.12359449164847" lon="10.679787245728619"><ele>221.85714285714286</ele><time>2026-05-01T15:54:25Z</time></trkpt><trkpt lat="43.123574830936526" lon="10.67970137569192"><ele>222.14285714285717</ele><time>2026-05-01T15:54:26Z</time></trkpt><trkpt lat="43.123551946327666" lon="10.679613317483183"><ele>222.42857142857142</ele><time>2026-05-01T15:54:27Z</time></trkpt><trkpt lat="43.1235335815382" lon="10.679524879350662"><ele>222.71428571428572</ele><time>2026-05-01T15:54:28Z</time></trkpt><trkpt lat="43.123516027978845" lon="10.679434441643606"><ele>223.0</ele><time>2026-05-01T15:54:29Z</time></trkpt><trkpt lat="43.12350253894107" lon="10.679348482846502"><ele>222.99999999999997</ele><time>2026-05-01T15:54:30Z</time></trkpt><trkpt lat="43.12347169494991" lon="10.679198054048879"><ele>223.0</ele><time>2026-05-01T15:54:32Z</time></trkpt><trkpt lat="43.12346399093801" lon="10.679051091287274"><ele>223.0</ele><time>2026-05-01T15:54:34Z</time></trkpt><trkpt lat="43.123477635517446" lon="10.678960066488685"><ele>223.0</ele><time>2026-05-01T15:54:35Z</time></trkpt><trkpt lat="43.123473038719354" lon="10.678850772340711"><ele>222.99999999999997</ele><time>2026-05-01T15:54:36Z</time></trkpt><trkpt lat="43.12345641607498" lon="10.678762921211193"><ele>223.0</ele><time>2026-05-01T15:54:37Z</time></trkpt><trkpt lat="43.1234489538743" lon="10.67867021490885"><ele>221.33333333333331</ele><time>2026-05-01T15:54:38Z</time></trkpt><trkpt lat="43.123463288929784" lon="10.678555673222174"><ele>219.66666666666666</ele><time>2026-05-01T15:54:39Z</time></trkpt><trkpt lat="43.12347675523062" lon="10.67844677384765"><ele>218.0</ele><time>2026-05-01T15:54:40Z</time></trkpt><trkpt lat="43.123484460072035" lon="10.678347888077193"><ele>216.33333333333331</ele><time>2026-05-01T15:54:41Z</time></trkpt><trkpt lat="43.12349144788529" lon="10.67824960537673"><ele>214.66666666666666</ele><time>2026-05-01T15:54:42Z</time></trkpt><trkpt lat="43.123513323316274" lon="10.678136861792073"><ele>213.0</ele><time>2026-05-01T15:54:43Z</time></trkpt><trkpt lat="43.12353567978236" lon="10.678012218042138"><ele>213.0</ele><time>2026-05-01T15:54:44Z</time></trkpt><trkpt lat="43.12355447894611" lon="10.677899028249438"><ele>213.0</ele><time>2026-05-01T15:54:45Z</time></trkpt><trkpt lat="43.12356993462312" lon="10.677783872288666"><ele>213.0</ele><time>2026-05-01T15:54:46Z</time></trkpt><trkpt lat="43.123588280434575" lon="10.677654516573696"><ele>213.0</ele><time>2026-05-01T15:54:47Z</time></trkpt><trkpt lat="43.12360459974667" lon="10.677532293667484"><ele>213.0</ele><time>2026-05-01T15:54:48Z</time></trkpt><trkpt lat="43.1236146274986" lon="10.677419443697016"><ele>213.0</ele><time>2026-05-01T15:54:49Z</time></trkpt><trkpt lat="43.12361450830804" lon="10.677313232892056"><ele>211.5</ele><time>2026-05-01T15:54:50Z</time></trkpt><trkpt lat="43.12361063637199" lon="10.677221390793964"><ele>210.0</ele><time>2026-05-01T15:54:52Z</time></trkpt><trkpt lat="43.1236160584755" lon="10.677078516026866"><ele>208.5</ele><time>2026-05-01T15:54:54Z</time></trkpt><trkpt lat="43.12361791213655" lon="10.676943077668945"><ele>207.0</ele><time>2026-05-01T15:54:55Z</time></trkpt><trkpt lat="43.12361689815312" lon="10.676838585626092"><ele>205.5</ele><time>2026-05-01T15:54:56Z</time></trkpt><trkpt lat="43.123606697622044" lon="10.676726164874351"><ele>204.0</ele><time>2026-05-01T15:54:57Z</time></trkpt><trkpt lat="43.12358015857668" lon="10.676606045014939"><ele>203.83333333333334</ele><time>2026-05-01T15:54:58Z</time></trkpt><trkpt lat="43.123564575593086" lon="10.676498104992286"><ele>203.66666666666669</ele><time>2026-05-01T15:54:59Z</time></trkpt><trkpt lat="43.12355657417276" lon="10.676399942476143"><ele>203.5</ele><time>2026-05-01T15:55:00Z</time></trkpt><trkpt lat="43.12356202775639" lon="10.676281282241181"><ele>203.33333333333334</ele><time>2026-05-01T15:55:01Z</time></trkpt><trkpt lat="43.12357170327727" lon="10.67613980274813"><ele>203.16666666666669</ele><time>2026-05-01T15:55:02Z</time></trkpt><trkpt lat="43.12357438023093" lon="10.676015189543651"><ele>203.0</ele><time>2026-05-01T15:55:03Z</time></trkpt><trkpt lat="43.12356789394401" lon="10.675925991010551"><ele>203.00000000000003</ele><time>2026-05-01T15:55:04Z</time></trkpt><trkpt lat="43.12354594033824" lon="10.67577789664631"><ele>203.0</ele><time>2026-05-01T15:55:06Z</time></trkpt><trkpt lat="43.123527546094714" lon="10.675691939201284"><ele>203.0</ele><time>2026-05-01T15:55:07Z</time></trkpt><trkpt lat="43.12351280818297" lon="10.675603173864149"><ele>203.0</ele><time>2026-05-01T15:55:08Z</time></trkpt><trkpt lat="43.12349971534445" lon="10.67550596998571"><ele>203.00000000000003</ele><time>2026-05-01T15:55:09Z</time></trkpt><trkpt lat="43.12349505710613" lon="10.675400237540288"><ele>203.0</ele><time>2026-05-01T15:55:10Z</time></trkpt><trkpt lat="43.12349529889211" lon="10.675290386446829"><ele>202.4</ele><time>2026-05-01T15:55:11Z</time></trkpt><trkpt lat="43.12349626195352" lon="10.675179923954445"><ele>201.8</ele><time>2026-05-01T15:55:12Z</time></trkpt><trkpt lat="43.12349634262758" lon="10.67506363667956"><ele>201.2</ele><time>2026-05-01T15:55:13Z</time></trkpt><trkpt lat="43.12349175254404" lon="10.674940160303134"><ele>200.6</ele><time>2026-05-01T15:55:14Z</time></trkpt><trkpt lat="43.123477005026686" lon="10.674793481216817"><ele>200.0</ele><time>2026-05-01T15:55:15Z</time></trkpt><trkpt lat="43.12345530456863" lon="10.674664290094"><ele>200.00000000000003</ele><time>2026-05-01T15:55:16Z</time></trkpt><trkpt lat="43.12343153982114" lon="10.674552025152321"><ele>200.0</ele><time>2026-05-01T15:55:17Z</time></trkpt><trkpt lat="43.123409353023646" lon="10.674455313239857"><ele>200.0</ele><time>2026-05-01T15:55:18Z</time></trkpt><trkpt lat="43.12338433930451" lon="10.674356063003717"><ele>200.0</ele><time>2026-05-01T15:55:19Z</time></trkpt><trkpt lat="43.12336289529336" lon="10.674251137433409"><ele>200.00000000000003</ele><time>2026-05-01T15:55:20Z</time></trkpt><trkpt lat="43.123336705896556" lon="10.674146586482708"><ele>200.0</ele><time>2026-05-01T15:55:21Z</time></trkpt><trkpt lat="43.12330139902166" lon="10.674060811277567"><ele>198.66666666666669</ele><time>2026-05-01T15:55:22Z</time></trkpt><trkpt lat="43.12322508405325" lon="10.673938329692138"><ele>197.33333333333334</ele><time>2026-05-01T15:55:24Z</time></trkpt><trkpt lat="43.12315281474484" lon="10.673877137674006"><ele>196.0</ele><time>2026-05-01T15:55:26Z</time></trkpt><trkpt lat="43.123122119600914" lon="10.673757465384302"><ele>194.66666666666669</ele><time>2026-05-01T15:55:29Z</time></trkpt><trkpt lat="43.12314667958178" lon="10.673656256702893"><ele>193.33333333333334</ele><time>2026-05-01T15:55:35Z</time></trkpt><trkpt lat="43.1231509268531" lon="10.673563986720012"><ele>192.0</ele><time>2026-05-01T15:55:45Z</time></trkpt><trkpt lat="43.12310797780712" lon="10.673435170710086"><ele>191.39999999999998</ele><time>2026-05-01T15:55:47Z</time></trkpt><trkpt lat="43.12305278797459" lon="10.673268521285944"><ele>190.79999999999998</ele><time>2026-05-01T15:55:49Z</time></trkpt><trkpt lat="43.12301328974268" lon="10.673168985255597"><ele>190.2</ele><time>2026-05-01T15:55:50Z</time></trkpt><trkpt lat="43.122974499432374" lon="10.67305309175485"><ele>189.6</ele><time>2026-05-01T15:55:51Z</time></trkpt><trkpt lat="43.122945821946814" lon="10.672935857267555"><ele>189.0</ele><time>2026-05-01T15:55:52Z</time></trkpt><trkpt lat="43.122916017921256" lon="10.672815273431322"><ele>188.16666666666666</ele><time>2026-05-01T15:55:53Z</time></trkpt><trkpt lat="43.122901653031846" lon="10.67270804484678"><ele>187.33333333333334</ele><time>2026-05-01T15:55:54Z</time></trkpt><trkpt lat="43.12290036008316" lon="10.67261821175958"><ele>186.5</ele><time>2026-05-01T15:55:55Z</time></trkpt><trkpt lat="43.12290580634823" lon="10.672458471013812"><ele>185.66666666666669</ele><time>2026-05-01T15:55:57Z</time></trkpt><trkpt lat="43.12290132980373" lon="10.672324517017891"><ele>184.83333333333334</ele><time>2026-05-01T15:55:59Z</time></trkpt><trkpt lat="43.12290766780246" lon="10.67223277654352"><ele>184.0</ele><time>2026-05-01T15:56:01Z</time></trkpt><trkpt lat="43.12291368637465" lon="10.672140224778582"><ele>184.0</ele><time>2026-05-01T15:56:03Z</time></trkpt><trkpt lat="43.12286338124559" lon="10.672063994010745"><ele>184.0</ele><time>2026-05-01T15:56:06Z</time></trkpt><trkpt lat="43.1227603923443" lon="10.672034051053608"><ele>184.0</ele><time>2026-05-01T15:56:09Z</time></trkpt><trkpt lat="43.12263287491095" lon="10.672011947163194"><ele>184.0</ele><time>2026-05-01T15:56:11Z</time></trkpt><trkpt lat="43.122544409343156" lon="10.672020631392074"><ele>184.0</ele><time>2026-05-01T15:56:12Z</time></trkpt><trkpt lat="43.1224672605053" lon="10.672025987695616"><ele>184.0</ele><time>2026-05-01T15:56:13Z</time></trkpt><trkpt lat="43.12239894900204" lon="10.67203757129692"><ele>184.0</ele><time>2026-05-01T15:56:14Z</time></trkpt><trkpt lat="43.12232384733954" lon="10.672053323160075"><ele>184.0</ele><time>2026-05-01T15:56:15Z</time></trkpt><trkpt lat="43.122247584134726" lon="10.672065875878038"><ele>184.0</ele><time>2026-05-01T15:56:16Z</time></trkpt><trkpt lat="43.12216990521557" lon="10.672076014283103"><ele>184.0</ele><time>2026-05-01T15:56:17Z</time></trkpt><trkpt lat="43.122096754902635" lon="10.672083855666724"><ele>184.0</ele><time>2026-05-01T15:56:18Z</time></trkpt><trkpt lat="43.12202070499557" lon="10.672091492215946"><ele>184.0</ele><time>2026-05-01T15:56:19Z</time></trkpt><trkpt lat="43.121904926201104" lon="10.672104107793567"><ele>182.25</ele><time>2026-05-01T15:56:21Z</time></trkpt><trkpt lat="43.12179318429324" lon="10.672116971474207"><ele>180.5</ele><time>2026-05-01T15:56:23Z</time></trkpt><trkpt lat="43.121676742881874" lon="10.672135062180121"><ele>178.75</ele><time>2026-05-01T15:56:25Z</time></trkpt><trkpt lat="43.12155896002486" lon="10.672144005526443"><ele>177.0</ele><time>2026-05-01T15:56:27Z</time></trkpt><trkpt lat="43.12142335677868" lon="10.672161671184279"><ele>175.16666666666666</ele><time>2026-05-01T15:56:29Z</time></trkpt><trkpt lat="43.121331524667475" lon="10.672188664678862"><ele>173.33333333333334</ele><time>2026-05-01T15:56:30Z</time></trkpt><trkpt lat="43.12123770752586" lon="10.672237783594952"><ele>171.5</ele><time>2026-05-01T15:56:31Z</time></trkpt><trkpt lat="43.121159431309245" lon="10.672293668998426"><ele>169.66666666666669</ele><time>2026-05-01T15:56:32Z</time></trkpt><trkpt lat="43.1210947385145" lon="10.672365204084176"><ele>167.83333333333334</ele><time>2026-05-01T15:56:33Z</time></trkpt><trkpt lat="43.12103826965545" lon="10.67244986493357"><ele>166.0</ele><time>2026-05-01T15:56:34Z</time></trkpt><trkpt lat="43.12098749086659" lon="10.672539438890897"><ele>166.0</ele><time>2026-05-01T15:56:35Z</time></trkpt><trkpt lat="43.120946178535945" lon="10.672620926025946"><ele>166.0</ele><time>2026-05-01T15:56:36Z</time></trkpt><trkpt lat="43.12088245107063" lon="10.672762210529038"><ele>166.0</ele><time>2026-05-01T15:56:38Z</time></trkpt><trkpt lat="43.12081612786112" lon="10.672893323653646"><ele>166.0</ele><time>2026-05-01T15:56:40Z</time></trkpt><trkpt lat="43.1207360335933" lon="10.673028333869077"><ele>166.0</ele><time>2026-05-01T15:56:42Z</time></trkpt><trkpt lat="43.1206891609684" lon="10.673098965536504"><ele>164.60000000000002</ele><time>2026-05-01T15:56:43Z</time></trkpt><trkpt lat="43.12064783368259" lon="10.673164843199155"><ele>163.20000000000002</ele><time>2026-05-01T15:56:44Z</time></trkpt><trkpt lat="43.120569969175186" lon="10.673291805289441"><ele>161.8</ele><time>2026-05-01T15:56:46Z</time></trkpt><trkpt lat="43.12047732201615" lon="10.673428168911506"><ele>160.4</ele><time>2026-05-01T15:56:48Z</time></trkpt><trkpt lat="43.120427350362746" lon="10.673491741467606"><ele>159.0</ele><time>2026-05-01T15:56:49Z</time></trkpt><trkpt lat="43.12037922384016" lon="10.673560094942788"><ele>158.0</ele><time>2026-05-01T15:56:50Z</time></trkpt><trkpt lat="43.12033664896151" lon="10.67364887117414"><ele>157.0</ele><time>2026-05-01T15:56:51Z</time></trkpt><trkpt lat="43.12030336377881" lon="10.673741233539399"><ele>156.0</ele><time>2026-05-01T15:56:52Z</time></trkpt><trkpt lat="43.120279419065916" lon="10.67384098625222"><ele>155.0</ele><time>2026-05-01T15:56:53Z</time></trkpt><trkpt lat="43.12024786341166" lon="10.673931360762616"><ele>154.0</ele><time>2026-05-01T15:56:54Z</time></trkpt><trkpt lat="43.12020176171269" lon="10.674007609752527"><ele>153.0</ele><time>2026-05-01T15:56:55Z</time></trkpt><trkpt lat="43.1201380467408" lon="10.674058054789512"><ele>152.0</ele><time>2026-05-01T15:56:56Z</time></trkpt><trkpt lat="43.120073759874565" lon="10.674137805574324"><ele>152.0</ele><time>2026-05-01T15:56:57Z</time></trkpt><trkpt lat="43.12000305695118" lon="10.67422420401223"><ele>152.0</ele><time>2026-05-01T15:56:58Z</time></trkpt><trkpt lat="43.119944724430724" lon="10.674288220304984"><ele>152.0</ele><time>2026-05-01T15:56:59Z</time></trkpt><trkpt lat="43.11987612858822" lon="10.674366484195733"><ele>152.0</ele><time>2026-05-01T15:57:00Z</time></trkpt><trkpt lat="43.119800333313925" lon="10.674439256632999"><ele>152.0</ele><time>2026-05-01T15:57:01Z</time></trkpt><trkpt lat="43.11974006549223" lon="10.674509208037126"><ele>152.0</ele><time>2026-05-01T15:57:02Z</time></trkpt><trkpt lat="43.119682313766724" lon="10.674594918707944"><ele>152.83333333333331</ele><time>2026-05-01T15:57:03Z</time></trkpt><trkpt lat="43.119635637188566" lon="10.674682800720458"><ele>153.66666666666666</ele><time>2026-05-01T15:57:04Z</time></trkpt><trkpt lat="43.11960266816353" lon="10.674782767586665"><ele>154.5</ele><time>2026-05-01T15:57:05Z</time></trkpt><trkpt lat="43.11958126123098" lon="10.674884090035688"><ele>155.33333333333334</ele><time>2026-05-01T15:57:06Z</time></trkpt><trkpt lat="43.11955198808265" lon="10.674991690269778"><ele>156.16666666666669</ele><time>2026-05-01T15:57:07Z</time></trkpt><trkpt lat="43.11951238492461" lon="10.67509827497618"><ele>157.0</ele><time>2026-05-01T15:57:08Z</time></trkpt><trkpt lat="43.11948912700417" lon="10.67520336035904"><ele>156.79999999999998</ele><time>2026-05-01T15:57:09Z</time></trkpt><trkpt lat="43.119468640057015" lon="10.675329948588958"><ele>156.6</ele><time>2026-05-01T15:57:10Z</time></trkpt><trkpt lat="43.1194520816484" lon="10.67545622414822"><ele>156.39999999999998</ele><time>2026-05-01T15:57:11Z</time></trkpt><trkpt lat="43.11941645069497" lon="10.675579471205822"><ele>156.2</ele><time>2026-05-01T15:57:12Z</time></trkpt><trkpt lat="43.11937602108173" lon="10.675696987278142"><ele>156.0</ele><time>2026-05-01T15:57:13Z</time></trkpt><trkpt lat="43.119330199055284" lon="10.675799010722308"><ele>156.0</ele><time>2026-05-01T15:57:14Z</time></trkpt><trkpt lat="43.11928146071481" lon="10.675906163116833"><ele>156.0</ele><time>2026-05-01T15:57:15Z</time></trkpt><trkpt lat="43.11920972549624" lon="10.676007410569248"><ele>156.0</ele><time>2026-05-01T15:57:16Z</time></trkpt><trkpt lat="43.119135112447715" lon="10.676085197270295"><ele>156.0</ele><time>2026-05-01T15:57:17Z</time></trkpt><trkpt lat="43.119065933673625" lon="10.67617666448905"><ele>156.0</ele><time>2026-05-01T15:57:18Z</time></trkpt><trkpt lat="43.11901428657916" lon="10.676245548243307"><ele>160.0</ele><time>2026-05-01T15:57:19Z</time></trkpt><trkpt lat="43.11895831744222" lon="10.676324806250705"><ele>164.0</ele><time>2026-05-01T15:57:20Z</time></trkpt><trkpt lat="43.11886003185514" lon="10.676311576168127"><ele>168.0</ele><time>2026-05-01T15:57:22Z</time></trkpt><trkpt lat="43.11881206201766" lon="10.676254700986307"><ele>172.0</ele><time>2026-05-01T15:57:23Z</time></trkpt><trkpt lat="43.11874018149138" lon="10.67626987511008"><ele>176.0</ele><time>2026-05-01T15:57:25Z</time></trkpt><trkpt lat="43.118708526383514" lon="10.676433931750967"><ele>180.0</ele><time>2026-05-01T15:57:27Z</time></trkpt><trkpt lat="43.11871415761702" lon="10.676559642302017"><ele>180.0</ele><time>2026-05-01T15:57:28Z</time></trkpt><trkpt lat="43.11870264135002" lon="10.676690389697862"><ele>180.0</ele><time>2026-05-01T15:57:29Z</time></trkpt><trkpt lat="43.11868589943861" lon="10.676821633919129"><ele>180.0</ele><time>2026-05-01T15:57:30Z</time></trkpt><trkpt lat="43.11865929453453" lon="10.676958971795484"><ele>180.0</ele><time>2026-05-01T15:57:31Z</time></trkpt><trkpt lat="43.1186249111474" lon="10.677083085741403"><ele>180.0</ele><time>2026-05-01T15:57:32Z</time></trkpt><trkpt lat="43.118576176991276" lon="10.677197741856238"><ele>179.0</ele><time>2026-05-01T15:57:33Z</time></trkpt><trkpt lat="43.11852234431396" lon="10.677298475433844"><ele>178.0</ele><time>2026-05-01T15:57:34Z</time></trkpt><trkpt lat="43.11845181236339" lon="10.677365147100163"><ele>177.0</ele><time>2026-05-01T15:57:35Z</time></trkpt><trkpt lat="43.11837558012738" lon="10.677473539822744"><ele>176.0</ele><time>2026-05-01T15:57:36Z</time></trkpt><trkpt lat="43.11830003739742" lon="10.677596995250289"><ele>175.0</ele><time>2026-05-01T15:57:37Z</time></trkpt><trkpt lat="43.11823827070126" lon="10.67766395058501"><ele>177.0</ele><time>2026-05-01T15:57:38Z</time></trkpt><trkpt lat="43.118087138789825" lon="10.67770171560827"><ele>179.0</ele><time>2026-05-01T15:57:40Z</time></trkpt><trkpt lat="43.1179761778743" lon="10.67771785346416"><ele>181.0</ele><time>2026-05-01T15:57:41Z</time></trkpt><trkpt lat="43.117874516348614" lon="10.677730726411326"><ele>183.0</ele><time>2026-05-01T15:57:42Z</time></trkpt><trkpt lat="43.11777643953708" lon="10.677720744771824"><ele>183.0</ele><time>2026-05-01T15:57:43Z</time></trkpt><trkpt lat="43.117684686013845" lon="10.677700875196308"><ele>183.0</ele><time>2026-05-01T15:57:44Z</time></trkpt><trkpt lat="43.117572507048635" lon="10.677693018966066"><ele>183.0</ele><time>2026-05-01T15:57:45Z</time></trkpt><trkpt lat="43.11748729821109" lon="10.67769287960724"><ele>183.0</ele><time>2026-05-01T15:57:46Z</time></trkpt><trkpt lat="43.11740353269135" lon="10.677699270173886"><ele>183.0</ele><time>2026-05-01T15:57:47Z</time></trkpt><trkpt lat="43.11733207119079" lon="10.67770890892728"><ele>183.0</ele><time>2026-05-01T15:57:48Z</time></trkpt><trkpt lat="43.11725303548" lon="10.677664671378237"><ele>181.60000000000002</ele><time>2026-05-01T15:57:50Z</time></trkpt><trkpt lat="43.11724050669298" lon="10.677484359431634"><ele>180.20000000000002</ele><time>2026-05-01T15:57:52Z</time></trkpt><trkpt lat="43.11725531996471" lon="10.677343859455215"><ele>178.8</ele><time>2026-05-01T15:57:53Z</time></trkpt><trkpt lat="43.117260127081664" lon="10.67720348244013"><ele>177.4</ele><time>2026-05-01T15:57:54Z</time></trkpt><trkpt lat="43.11726654128204" lon="10.677067184893287"><ele>176.0</ele><time>2026-05-01T15:57:55Z</time></trkpt><trkpt lat="43.11728472026383" lon="10.676906827451134"><ele>176.0</ele><time>2026-05-01T15:57:56Z</time></trkpt><trkpt lat="43.11730391271579" lon="10.676734462772997"><ele>176.0</ele><time>2026-05-01T15:57:57Z</time></trkpt><trkpt lat="43.117329823575744" lon="10.676565984727588"><ele>176.0</ele><time>2026-05-01T15:57:58Z</time></trkpt><trkpt lat="43.11734549557943" lon="10.676412402509278"><ele>176.0</ele><time>2026-05-01T15:57:59Z</time></trkpt><trkpt lat="43.11737018529654" lon="10.676265879226015"><ele>177.0</ele><time>2026-05-01T15:58:00Z</time></trkpt><trkpt lat="43.11738301797649" lon="10.676098443712572"><ele>178.0</ele><time>2026-05-01T15:58:01Z</time></trkpt><trkpt lat="43.11737757670925" lon="10.675946865893952"><ele>179.0</ele><time>2026-05-01T15:58:02Z</time></trkpt><trkpt lat="43.11739690976456" lon="10.675825773053855"><ele>180.0</ele><time>2026-05-01T15:58:04Z</time></trkpt><trkpt lat="43.11736845001871" lon="10.675691632726059"><ele>181.0</ele><time>2026-05-01T16:13:51Z</time></trkpt><trkpt lat="43.11735230342062" lon="10.675599915203849"><ele>181.0</ele><time>2026-05-01T16:13:52Z</time></trkpt><trkpt lat="43.11734248587448" lon="10.675503987012362"><ele>181.0</ele><time>2026-05-01T16:13:53Z</time></trkpt><trkpt lat="43.117331772808114" lon="10.675399294363613"><ele>181.0</ele><time>2026-05-01T16:13:54Z</time></trkpt><trkpt lat="43.11731308588134" lon="10.675297768912719"><ele>181.0</ele><time>2026-05-01T16:13:55Z</time></trkpt><trkpt lat="43.117355004870284" lon="10.675192740865699"><ele>181.0</ele><time>2026-05-01T16:13:56Z</time></trkpt><trkpt lat="43.11736364721021" lon="10.675074127525683"><ele>181.0</ele><time>2026-05-01T16:13:57Z</time></trkpt><trkpt lat="43.117371172583034" lon="10.674941388486742"><ele>182.0</ele><time>2026-05-01T16:13:58Z</time></trkpt><trkpt lat="43.117379537261144" lon="10.674805690150405"><ele>183.0</ele><time>2026-05-01T16:13:59Z</time></trkpt><trkpt lat="43.117391268286724" lon="10.674668998850109"><ele>184.0</ele><time>2026-05-01T16:14:00Z</time></trkpt><trkpt lat="43.11740498950982" lon="10.674560590242642"><ele>185.0</ele><time>2026-05-01T16:14:01Z</time></trkpt><trkpt lat="43.11741875932777" lon="10.674457655239298"><ele>186.0</ele><time>2026-05-01T16:14:02Z</time></trkpt><trkpt lat="43.11742607082555" lon="10.67436233340474"><ele>187.0</ele><time>2026-05-01T16:14:03Z</time></trkpt><trkpt lat="43.11741619182177" lon="10.674253295912841"><ele>188.8</ele><time>2026-05-01T16:14:04Z</time></trkpt><trkpt lat="43.11736043902996" lon="10.674141436268227"><ele>190.6</ele><time>2026-05-01T16:14:05Z</time></trkpt><trkpt lat="43.117319715566154" lon="10.67403540580722"><ele>192.4</ele><time>2026-05-01T16:14:06Z</time></trkpt><trkpt lat="43.11728246803969" lon="10.67391822082098"><ele>194.20000000000002</ele><time>2026-05-01T16:14:07Z</time></trkpt><trkpt lat="43.11727254996761" lon="10.673799820326805"><ele>196.0</ele><time>2026-05-01T16:14:08Z</time></trkpt><trkpt lat="43.11726493404974" lon="10.673681142109508"><ele>196.66666666666666</ele><time>2026-05-01T16:14:09Z</time></trkpt><trkpt lat="43.117257739220236" lon="10.67356497081748"><ele>197.33333333333331</ele><time>2026-05-01T16:14:10Z</time></trkpt><trkpt lat="43.11723821388155" lon="10.673434146846592"><ele>198.0</ele><time>2026-05-01T16:14:11Z</time></trkpt><trkpt lat="43.11725397978444" lon="10.673338581031755"><ele>198.66666666666669</ele><time>2026-05-01T16:14:12Z</time></trkpt><trkpt lat="43.11725808422502" lon="10.673247436242882"><ele>199.33333333333334</ele><time>2026-05-01T16:14:13Z</time></trkpt><trkpt lat="43.11725933238569" lon="10.673150716543272"><ele>200.0</ele><time>2026-05-01T16:14:14Z</time></trkpt><trkpt lat="43.11727838534048" lon="10.673044681774504"><ele>200.0</ele><time>2026-05-01T16:14:15Z</time></trkpt><trkpt lat="43.11729400698599" lon="10.672929141963076"><ele>200.0</ele><time>2026-05-01T16:14:16Z</time></trkpt><trkpt lat="43.117305161169504" lon="10.672803143911244"><ele>200.0</ele><time>2026-05-01T16:14:17Z</time></trkpt><trkpt lat="43.11732040918118" lon="10.67264476478916"><ele>200.0</ele><time>2026-05-01T16:14:18Z</time></trkpt><trkpt lat="43.117354873697266" lon="10.672472662963267"><ele>200.0</ele><time>2026-05-01T16:14:19Z</time></trkpt><trkpt lat="43.11736741284817" lon="10.672330315127292"><ele>199.8</ele><time>2026-05-01T16:14:20Z</time></trkpt><trkpt lat="43.11736277178711" lon="10.672192897128406"><ele>199.6</ele><time>2026-05-01T16:14:21Z</time></trkpt><trkpt lat="43.117372489531576" lon="10.672051276109755"><ele>199.39999999999998</ele><time>2026-05-01T16:14:22Z</time></trkpt><trkpt lat="43.117385329158026" lon="10.671894378356058"><ele>199.2</ele><time>2026-05-01T16:14:23Z</time></trkpt><trkpt lat="43.117411547218694" lon="10.671732320575662"><ele>199.0</ele><time>2026-05-01T16:14:24Z</time></trkpt><trkpt lat="43.11741674720983" lon="10.6715864610146"><ele>200.83333333333331</ele><time>2026-05-01T16:14:25Z</time></trkpt><trkpt lat="43.11743013722648" lon="10.671475903913699"><ele>202.66666666666666</ele><time>2026-05-01T16:14:26Z</time></trkpt><trkpt lat="43.11744646872132" lon="10.671391681131569"><ele>204.5</ele><time>2026-05-01T16:14:27Z</time></trkpt><trkpt lat="43.1174856743766" lon="10.671308005219993"><ele>206.33333333333331</ele><time>2026-05-01T16:14:28Z</time></trkpt><trkpt lat="43.117522357661215" lon="10.671186397910356"><ele>208.16666666666666</ele><time>2026-05-01T16:14:29Z</time></trkpt><trkpt lat="43.117550169244005" lon="10.671049542598734"><ele>210.0</ele><time>2026-05-01T16:14:30Z</time></trkpt><trkpt lat="43.1175880467365" lon="10.670924201953422"><ele>211.16666666666666</ele><time>2026-05-01T16:14:31Z</time></trkpt><trkpt lat="43.11762673342757" lon="10.670818046501653"><ele>212.33333333333331</ele><time>2026-05-01T16:14:32Z</time></trkpt><trkpt lat="43.117655224505754" lon="10.670706480629072"><ele>213.5</ele><time>2026-05-01T16:14:33Z</time></trkpt><trkpt lat="43.11768157200719" lon="10.670577596285213"><ele>214.66666666666666</ele><time>2026-05-01T16:14:34Z</time></trkpt><trkpt lat="43.11768774796172" lon="10.670459741917337"><ele>215.83333333333331</ele><time>2026-05-01T16:14:35Z</time></trkpt><trkpt lat="43.11769965184006" lon="10.670335871774666"><ele>217.0</ele><time>2026-05-01T16:14:36Z</time></trkpt><trkpt lat="43.11768464361324" lon="10.670203248586462"><ele>218.6</ele><time>2026-05-01T16:14:37Z</time></trkpt><trkpt lat="43.11764956194722" lon="10.670062797403062"><ele>220.2</ele><time>2026-05-01T16:14:38Z</time></trkpt><trkpt lat="43.11763964653694" lon="10.669884592974302"><ele>221.8</ele><time>2026-05-01T16:14:39Z</time></trkpt><trkpt lat="43.11763705183607" lon="10.669745681633803"><ele>223.4</ele><time>2026-05-01T16:14:40Z</time></trkpt><trkpt lat="43.11766452463834" lon="10.669633659402365"><ele>225.0</ele><time>2026-05-01T16:14:41Z</time></trkpt><trkpt lat="43.11770119082761" lon="10.669507055492863"><ele>225.8</ele><time>2026-05-01T16:14:42Z</time></trkpt><trkpt lat="43.117713339738565" lon="10.669385189119808"><ele>226.6</ele><time>2026-05-01T16:14:43Z</time></trkpt><trkpt lat="43.11774637487484" lon="10.66924155167836"><ele>227.39999999999998</ele><time>2026-05-01T16:14:44Z</time></trkpt><trkpt lat="43.117781977492626" lon="10.669089830750897"><ele>228.2</ele><time>2026-05-01T16:14:45Z</time></trkpt><trkpt lat="43.11780530447717" lon="10.668944658586316"><ele>229.0</ele><time>2026-05-01T16:14:46Z</time></trkpt><trkpt lat="43.11782942766107" lon="10.6688078218251"><ele>229.0</ele><time>2026-05-01T16:14:47Z</time></trkpt><trkpt lat="43.11785661074636" lon="10.66867892340814"><ele>228.99999999999997</ele><time>2026-05-01T16:14:48Z</time></trkpt><trkpt lat="43.117877196976806" lon="10.668573047761654"><ele>228.99999999999997</ele><time>2026-05-01T16:14:49Z</time></trkpt><trkpt lat="43.11788032087573" lon="10.668466786350509"><ele>229.0</ele><time>2026-05-01T16:14:50Z</time></trkpt><trkpt lat="43.11791012986631" lon="10.668320687516466"><ele>229.0</ele><time>2026-05-01T16:14:51Z</time></trkpt><trkpt lat="43.117931141252804" lon="10.6681660253323"><ele>229.25</ele><time>2026-05-01T16:14:52Z</time></trkpt><trkpt lat="43.11796854444783" lon="10.668019460692674"><ele>229.5</ele><time>2026-05-01T16:14:53Z</time></trkpt><trkpt lat="43.11799959627886" lon="10.667858211598329"><ele>229.75</ele><time>2026-05-01T16:14:54Z</time></trkpt><trkpt lat="43.11800896383706" lon="10.667706910776142"><ele>230.0</ele><time>2026-05-01T16:14:55Z</time></trkpt><trkpt lat="43.1180516042303" lon="10.667570781555597"><ele>230.0</ele><time>2026-05-01T16:14:56Z</time></trkpt><trkpt lat="43.11808357739047" lon="10.667438664900574"><ele>230.0</ele><time>2026-05-01T16:14:56.999Z</time></trkpt><trkpt lat="43.118127673485084" lon="10.66729564894213"><ele>230.0</ele><time>2026-05-01T16:14:57.999Z</time></trkpt><trkpt lat="43.11816309041439" lon="10.66717189444593"><ele>230.0</ele><time>2026-05-01T16:14:58.999Z</time></trkpt><trkpt lat="43.11817630824973" lon="10.667054282963194"><ele>230.0</ele><time>2026-05-01T16:14:59.999Z</time></trkpt><trkpt lat="43.118199340771305" lon="10.66696230146636"><ele>230.66666666666669</ele><time>2026-05-01T16:15:00.999Z</time></trkpt><trkpt lat="43.11822102512544" lon="10.666870309369989"><ele>231.33333333333334</ele><time>2026-05-01T16:15:01.999Z</time></trkpt><trkpt lat="43.11824309629861" lon="10.666709231909117"><ele>232.0</ele><time>2026-05-01T16:15:04Z</time></trkpt><trkpt lat="43.11823919532596" lon="10.66661061959959"><ele>232.66666666666669</ele><time>2026-05-01T16:15:05Z</time></trkpt><trkpt lat="43.11822752722976" lon="10.666505374922703"><ele>233.33333333333334</ele><time>2026-05-01T16:15:06Z</time></trkpt><trkpt lat="43.11822106399571" lon="10.666385326673227"><ele>234.0</ele><time>2026-05-01T16:15:07Z</time></trkpt><trkpt lat="43.11821368851731" lon="10.666264610139976"><ele>234.0</ele><time>2026-05-01T16:15:08Z</time></trkpt><trkpt lat="43.118218410331025" lon="10.666130712127533"><ele>233.99999999999997</ele><time>2026-05-01T16:15:09Z</time></trkpt><trkpt lat="43.11822438050062" lon="10.665998575582437"><ele>233.99999999999997</ele><time>2026-05-01T16:15:10Z</time></trkpt><trkpt lat="43.11823728518009" lon="10.665857455108814"><ele>234.0</ele><time>2026-05-01T16:15:11Z</time></trkpt><trkpt lat="43.118246810238546" lon="10.665706098561907"><ele>234.0</ele><time>2026-05-01T16:15:12Z</time></trkpt><trkpt lat="43.11825390862573" lon="10.665551156546885"><ele>237.0</ele><time>2026-05-01T16:15:13Z</time></trkpt><trkpt lat="43.11826005953823" lon="10.665404080845324"><ele>239.99999999999997</ele><time>2026-05-01T16:15:14Z</time></trkpt><trkpt lat="43.118273589151286" lon="10.665267618440204"><ele>242.99999999999997</ele><time>2026-05-01T16:15:15Z</time></trkpt><trkpt lat="43.11827908927987" lon="10.665119908965533"><ele>246.0</ele><time>2026-05-01T16:15:16Z</time></trkpt><trkpt lat="43.11828399597554" lon="10.664959934224212"><ele>249.0</ele><time>2026-05-01T16:15:17Z</time></trkpt><trkpt lat="43.11829559006425" lon="10.664808882975318"><ele>250.5</ele><time>2026-05-01T16:15:18Z</time></trkpt><trkpt lat="43.118299217173316" lon="10.664686141615528"><ele>252.0</ele><time>2026-05-01T16:15:19Z</time></trkpt><trkpt lat="43.118315121621556" lon="10.66457644063621"><ele>253.5</ele><time>2026-05-01T16:15:20Z</time></trkpt><trkpt lat="43.11831369668568" lon="10.664451397114124"><ele>255.0</ele><time>2026-05-01T16:15:21Z</time></trkpt><trkpt lat="43.11830182399373" lon="10.664342688461586"><ele>256.5</ele><time>2026-05-01T16:15:22Z</time></trkpt><trkpt lat="43.11827697518588" lon="10.664245260095594"><ele>258.0</ele><time>2026-05-01T16:15:23Z</time></trkpt><trkpt lat="43.11823257865652" lon="10.664144031153452"><ele>258.0</ele><time>2026-05-01T16:15:24Z</time></trkpt><trkpt lat="43.11816862998608" lon="10.664078427814005"><ele>258.0</ele><time>2026-05-01T16:15:25Z</time></trkpt><trkpt lat="43.11809577553845" lon="10.663998148480161"><ele>258.0</ele><time>2026-05-01T16:15:26Z</time></trkpt><trkpt lat="43.11799487230615" lon="10.663982618918308"><ele>258.0</ele><time>2026-05-01T16:15:27Z</time></trkpt><trkpt lat="43.11791281115312" lon="10.663935463384401"><ele>258.0</ele><time>2026-05-01T16:15:28Z</time></trkpt><trkpt lat="43.117843863483365" lon="10.663897400082204"><ele>258.0</ele><time>2026-05-01T16:15:29Z</time></trkpt><trkpt lat="43.11776217292117" lon="10.663822568108666"><ele>258.0</ele><time>2026-05-01T16:15:31Z</time></trkpt><trkpt lat="43.117768578927816" lon="10.663713358033872"><ele>258.0</ele><time>2026-05-01T16:15:32Z</time></trkpt><trkpt lat="43.11774641899852" lon="10.663595480062"><ele>258.0</ele><time>2026-05-01T16:15:33Z</time></trkpt><trkpt lat="43.11770453501376" lon="10.663469838506824"><ele>258.0</ele><time>2026-05-01T16:15:34Z</time></trkpt><trkpt lat="43.117651853833245" lon="10.663346938801245"><ele>258.0</ele><time>2026-05-01T16:15:35Z</time></trkpt><trkpt lat="43.11760726068073" lon="10.66323237108724"><ele>259.3333333333333</ele><time>2026-05-01T16:15:36Z</time></trkpt><trkpt lat="43.11757867901403" lon="10.663107255814078"><ele>260.6666666666667</ele><time>2026-05-01T16:15:37Z</time></trkpt><trkpt lat="43.117563582818676" lon="10.662989958960912"><ele>262.0</ele><time>2026-05-01T16:15:38Z</time></trkpt><trkpt lat="43.117558775942534" lon="10.662887359892462"><ele>263.33333333333337</ele><time>2026-05-01T16:15:39Z</time></trkpt><trkpt lat="43.11756824672824" lon="10.662778769368455"><ele>264.6666666666667</ele><time>2026-05-01T16:15:40Z</time></trkpt><trkpt lat="43.117581961637434" lon="10.662659363676061"><ele>266.0</ele><time>2026-05-01T16:15:41Z</time></trkpt><trkpt lat="43.11759011746879" lon="10.662530563751169"><ele>266.0</ele><time>2026-05-01T16:15:42Z</time></trkpt><trkpt lat="43.11757590720293" lon="10.662387559637308"><ele>266.0</ele><time>2026-05-01T16:15:43Z</time></trkpt><trkpt lat="43.117552686260446" lon="10.662237842895397"><ele>266.0</ele><time>2026-05-01T16:15:44Z</time></trkpt><trkpt lat="43.1175363191635" lon="10.662081469087436"><ele>266.0</ele><time>2026-05-01T16:15:45Z</time></trkpt><trkpt lat="43.11750536583739" lon="10.6619507407946"><ele>266.0</ele><time>2026-05-01T16:15:46Z</time></trkpt><trkpt lat="43.11746502045541" lon="10.661819729255004"><ele>266.0</ele><time>2026-05-01T16:15:47Z</time></trkpt><trkpt lat="43.117413533408204" lon="10.661700895458587"><ele>266.0</ele><time>2026-05-01T16:15:48Z</time></trkpt><trkpt lat="43.11735829052281" lon="10.661582167869641"><ele>266.0</ele><time>2026-05-01T16:15:49Z</time></trkpt><trkpt lat="43.11730001902201" lon="10.66146043972132"><ele>266.0</ele><time>2026-05-01T16:15:50Z</time></trkpt><trkpt lat="43.117233059224674" lon="10.661342240125128"><ele>266.0</ele><time>2026-05-01T16:15:51Z</time></trkpt><trkpt lat="43.11716341927981" lon="10.661228528355752"><ele>267.0</ele><time>2026-05-01T16:15:52Z</time></trkpt><trkpt lat="43.117096102382334" lon="10.66111003488518"><ele>268.0</ele><time>2026-05-01T16:15:53Z</time></trkpt><trkpt lat="43.11701521104837" lon="10.661037800446957"><ele>269.0</ele><time>2026-05-01T16:15:54Z</time></trkpt><trkpt lat="43.11696656913812" lon="10.660959021351355"><ele>270.0</ele><time>2026-05-01T16:15:55Z</time></trkpt><trkpt lat="43.116898202891264" lon="10.660940643809418"><ele>271.0</ele><time>2026-05-01T16:15:56Z</time></trkpt><trkpt lat="43.11683104518098" lon="10.660923007094167"><ele>272.0</ele><time>2026-05-01T16:15:57Z</time></trkpt><trkpt lat="43.11675564540542" lon="10.660922649114609"><ele>272.0</ele><time>2026-05-01T16:15:58Z</time></trkpt><trkpt lat="43.11668540131105" lon="10.660944939725754"><ele>272.0</ele><time>2026-05-01T16:15:59Z</time></trkpt><trkpt lat="43.11660528842086" lon="10.660977780996644"><ele>272.0</ele><time>2026-05-01T16:16:00Z</time></trkpt><trkpt lat="43.11652612963052" lon="10.660987580271515"><ele>272.0</ele><time>2026-05-01T16:16:01Z</time></trkpt><trkpt lat="43.11645630788075" lon="10.660954464642039"><ele>272.0</ele><time>2026-05-01T16:16:03Z</time></trkpt><trkpt lat="43.11643372612293" lon="10.660854460204337"><ele>272.0</ele><time>2026-05-01T16:16:21Z</time></trkpt><trkpt lat="43.11644246766426" lon="10.66067431795106"><ele>270.2</ele><time>2026-05-01T16:16:23Z</time></trkpt><trkpt lat="43.116443198882656" lon="10.660549705669995"><ele>268.4</ele><time>2026-05-01T16:16:24Z</time></trkpt><trkpt lat="43.116432923727814" lon="10.660409013595656"><ele>266.6</ele><time>2026-05-01T16:16:25Z</time></trkpt><trkpt lat="43.11641912436358" lon="10.66026779963216"><ele>264.8</ele><time>2026-05-01T16:16:26Z</time></trkpt><trkpt lat="43.11641459228839" lon="10.66013444085617"><ele>263.0</ele><time>2026-05-01T16:16:27Z</time></trkpt><trkpt lat="43.11643134228217" lon="10.660010113199654"><ele>261.0</ele><time>2026-05-01T16:16:28Z</time></trkpt><trkpt lat="43.11643652610517" lon="10.65989450798736"><ele>259.0</ele><time>2026-05-01T16:16:29Z</time></trkpt><trkpt lat="43.116449293195096" lon="10.659777062046397"><ele>257.0</ele><time>2026-05-01T16:16:30Z</time></trkpt><trkpt lat="43.11646279501603" lon="10.659655056518249"><ele>255.0</ele><time>2026-05-01T16:16:31Z</time></trkpt><trkpt lat="43.11646099040264" lon="10.659524408237866"><ele>253.0</ele><time>2026-05-01T16:16:32Z</time></trkpt><trkpt lat="43.116404863693475" lon="10.659405455759764"><ele>252.83333333333331</ele><time>2026-05-01T16:16:33Z</time></trkpt><trkpt lat="43.116379743941664" lon="10.659279222031822"><ele>252.66666666666666</ele><time>2026-05-01T16:16:34Z</time></trkpt><trkpt lat="43.116365813151454" lon="10.659157252445002"><ele>252.5</ele><time>2026-05-01T16:16:35Z</time></trkpt><trkpt lat="43.11637252402511" lon="10.659049593201141"><ele>252.33333333333331</ele><time>2026-05-01T16:16:36Z</time></trkpt><trkpt lat="43.11636834833908" lon="10.658938401196803"><ele>252.16666666666666</ele><time>2026-05-01T16:16:37Z</time></trkpt><trkpt lat="43.116388925395675" lon="10.658836741657675"><ele>252.0</ele><time>2026-05-01T16:16:38Z</time></trkpt><trkpt lat="43.11644546618751" lon="10.658737747042789"><ele>252.0</ele><time>2026-05-01T16:16:39Z</time></trkpt><trkpt lat="43.116478281797605" lon="10.658639820771539"><ele>252.0</ele><time>2026-05-01T16:16:40Z</time></trkpt><trkpt lat="43.116511062971455" lon="10.658528091989462"><ele>252.0</ele><time>2026-05-01T16:16:41Z</time></trkpt><trkpt lat="43.11656366590673" lon="10.658425330569148"><ele>252.0</ele><time>2026-05-01T16:16:42Z</time></trkpt><trkpt lat="43.11658195977749" lon="10.658306988925107"><ele>252.0</ele><time>2026-05-01T16:16:43Z</time></trkpt><trkpt lat="43.11657349314604" lon="10.658186318769499"><ele>252.0</ele><time>2026-05-01T16:16:44Z</time></trkpt><trkpt lat="43.11655094683242" lon="10.658049821644969"><ele>253.25</ele><time>2026-05-01T16:16:45Z</time></trkpt><trkpt lat="43.116521769834" lon="10.657882139247704"><ele>254.5</ele><time>2026-05-01T16:16:46Z</time></trkpt><trkpt lat="43.1164906663817" lon="10.65774739125452"><ele>255.75</ele><time>2026-05-01T16:16:47Z</time></trkpt><trkpt lat="43.11646483767293" lon="10.657584331835755"><ele>257.0</ele><time>2026-05-01T16:16:48Z</time></trkpt><trkpt lat="43.116477278188306" lon="10.657436338594396"><ele>258.5</ele><time>2026-05-01T16:16:49Z</time></trkpt><trkpt lat="43.116455945362354" lon="10.657306064210115"><ele>260.0</ele><time>2026-05-01T16:16:50Z</time></trkpt><trkpt lat="43.11643064191495" lon="10.657196710855649"><ele>261.5</ele><time>2026-05-01T16:16:51Z</time></trkpt><trkpt lat="43.11639276599213" lon="10.657119211074814"><ele>263.0</ele><time>2026-05-01T16:16:52Z</time></trkpt><trkpt lat="43.11632664235886" lon="10.657078588080692"><ele>264.5</ele><time>2026-05-01T16:16:54Z</time></trkpt><trkpt lat="43.11626790496295" lon="10.657130503590755"><ele>266.0</ele><time>2026-05-01T16:16:56Z</time></trkpt><trkpt lat="43.11616981921543" lon="10.657109736854451"><ele>266.0</ele><time>2026-05-01T16:17:02.999Z</time></trkpt><trkpt lat="43.116106164471816" lon="10.657090892243701"><ele>266.0</ele><time>2026-05-01T16:17:03.999Z</time></trkpt><trkpt lat="43.116041230530136" lon="10.6570567177332"><ele>266.0</ele><time>2026-05-01T16:17:04.999Z</time></trkpt><trkpt lat="43.11596992865581" lon="10.657018606479365"><ele>266.0</ele><time>2026-05-01T16:17:05.999Z</time></trkpt><trkpt lat="43.115908901109975" lon="10.656976144686096"><ele>266.0</ele><time>2026-05-01T16:17:06.999Z</time></trkpt><trkpt lat="43.11586769979544" lon="10.656902143856847"><ele>266.0</ele><time>2026-05-01T16:17:08Z</time></trkpt><trkpt lat="43.11583226645387" lon="10.656810607371629"><ele>266.0</ele><time>2026-05-01T16:17:09Z</time></trkpt><trkpt lat="43.11580257302414" lon="10.65671449059288"><ele>269.0</ele><time>2026-05-01T16:17:10Z</time></trkpt><trkpt lat="43.11573299488876" lon="10.656651441555736"><ele>272.0</ele><time>2026-05-01T16:17:11Z</time></trkpt><trkpt lat="43.115667216677494" lon="10.656612595246294"><ele>275.0</ele><time>2026-05-01T16:17:12Z</time></trkpt><trkpt lat="43.11558377225088" lon="10.656612245285"><ele>278.0</ele><time>2026-05-01T16:17:13Z</time></trkpt><trkpt lat="43.11547578644384" lon="10.656648015554632"><ele>281.0</ele><time>2026-05-01T16:17:14Z</time></trkpt><trkpt lat="43.11538104389269" lon="10.656695244410484"><ele>281.0</ele><time>2026-05-01T16:17:15Z</time></trkpt><trkpt lat="43.11528783266443" lon="10.656733558250902"><ele>281.0</ele><time>2026-05-01T16:17:16Z</time></trkpt><trkpt lat="43.11521443509301" lon="10.656816542084583"><ele>281.0</ele><time>2026-05-01T16:17:17Z</time></trkpt><trkpt lat="43.11515833613995" lon="10.656870494685887"><ele>281.0</ele><time>2026-05-01T16:17:18Z</time></trkpt><trkpt lat="43.11510633066814" lon="10.656939059835477"><ele>281.0</ele><time>2026-05-01T16:17:20Z</time></trkpt><trkpt lat="43.115030954277124" lon="10.656864944204639"><ele>281.0</ele><time>2026-05-01T16:17:22Z</time></trkpt><trkpt lat="43.11505005026882" lon="10.65674487848123"><ele>281.0</ele><time>2026-05-01T16:17:23Z</time></trkpt><trkpt lat="43.11512067263215" lon="10.65666279595597"><ele>281.0</ele><time>2026-05-01T16:17:24Z</time></trkpt><trkpt lat="43.11517394945648" lon="10.656572463900458"><ele>281.0</ele><time>2026-05-01T16:17:25Z</time></trkpt><trkpt lat="43.11520446923118" lon="10.656482301744193"><ele>281.0</ele><time>2026-05-01T16:17:26Z</time></trkpt><trkpt lat="43.11521814748214" lon="10.656345673540772"><ele>281.0</ele><time>2026-05-01T16:17:27Z</time></trkpt><trkpt lat="43.11523435059581" lon="10.656212829915553"><ele>281.0</ele><time>2026-05-01T16:17:28Z</time></trkpt><trkpt lat="43.11525359662076" lon="10.656075438808593"><ele>283.5</ele><time>2026-05-01T16:17:29Z</time></trkpt><trkpt lat="43.115276224002514" lon="10.655949579796895"><ele>286.0</ele><time>2026-05-01T16:17:30Z</time></trkpt><trkpt lat="43.11531421042054" lon="10.655863243641337"><ele>288.5</ele><time>2026-05-01T16:17:31Z</time></trkpt><trkpt lat="43.11534201829345" lon="10.65577833225792"><ele>291.0</ele><time>2026-05-01T16:17:32Z</time></trkpt><trkpt lat="43.11534934303849" lon="10.655671609583207"><ele>293.5</ele><time>2026-05-01T16:17:33Z</time></trkpt><trkpt lat="43.11534910265143" lon="10.655580641821073"><ele>296.0</ele><time>2026-05-01T16:17:34Z</time></trkpt><trkpt lat="43.11531014678551" lon="10.655477304377689"><ele>296.0</ele><time>2026-05-01T16:17:36Z</time></trkpt><trkpt lat="43.11521661162678" lon="10.65556002355008"><ele>296.0</ele><time>2026-05-01T16:17:38Z</time></trkpt><trkpt lat="43.115185746356495" lon="10.655661738832634"><ele>296.0</ele><time>2026-05-01T16:17:39Z</time></trkpt><trkpt lat="43.11514947489185" lon="10.655736754084119"><ele>296.0</ele><time>2026-05-01T16:17:40Z</time></trkpt><trkpt lat="43.115093306162656" lon="10.65580361146052"><ele>296.0</ele><time>2026-05-01T16:17:41Z</time></trkpt><trkpt lat="43.11500115422891" lon="10.65584852859579"><ele>296.0</ele><time>2026-05-01T16:17:42Z</time></trkpt><trkpt lat="43.11491399094766" lon="10.655916142319857"><ele>295.8</ele><time>2026-05-01T16:17:43Z</time></trkpt><trkpt lat="43.11484431143492" lon="10.65596014963443"><ele>295.6</ele><time>2026-05-01T16:17:44Z</time></trkpt><trkpt lat="43.11476281374629" lon="10.655944063126057"><ele>295.4</ele><time>2026-05-01T16:17:46Z</time></trkpt><trkpt lat="43.11476162629971" lon="10.655826787317029"><ele>295.2</ele><time>2026-05-01T16:17:48Z</time></trkpt><trkpt lat="43.11484018154973" lon="10.655686188301022"><ele>295.0</ele><time>2026-05-01T16:17:50Z</time></trkpt><trkpt lat="43.114893574818815" lon="10.655591085336253"><ele>295.0</ele><time>2026-05-01T16:17:51Z</time></trkpt><trkpt lat="43.11491236969579" lon="10.655506312884475"><ele>295.0</ele><time>2026-05-01T16:17:52Z</time></trkpt><trkpt lat="43.11490682510378" lon="10.655405624751756"><ele>295.0</ele><time>2026-05-01T16:17:54Z</time></trkpt><trkpt lat="43.114773658812645" lon="10.655362569803584"><ele>295.0</ele><time>2026-05-01T16:17:56Z</time></trkpt><trkpt lat="43.114687490877984" lon="10.655358611956888"><ele>295.0</ele><time>2026-05-01T16:17:57Z</time></trkpt><trkpt lat="43.114609122790554" lon="10.655356218671301"><ele>295.0</ele><time>2026-05-01T16:17:58Z</time></trkpt><trkpt lat="43.114536841006995" lon="10.655335789402832"><ele>298.16666666666663</ele><time>2026-05-01T16:17:59Z</time></trkpt><trkpt lat="43.11446059650142" lon="10.655269832948099"><ele>301.3333333333333</ele><time>2026-05-01T16:18:00Z</time></trkpt><trkpt lat="43.11438662092734" lon="10.655205080222782"><ele>304.5</ele><time>2026-05-01T16:18:01Z</time></trkpt><trkpt lat="43.11429864575602" lon="10.655159939989368"><ele>307.6666666666667</ele><time>2026-05-01T16:18:02Z</time></trkpt><trkpt lat="43.114232454875655" lon="10.655108620842936"><ele>310.83333333333337</ele><time>2026-05-01T16:18:03Z</time></trkpt><trkpt lat="43.114145910231265" lon="10.655047261634758"><ele>314.0</ele><time>2026-05-01T16:18:05Z</time></trkpt><trkpt lat="43.11410455725888" lon="10.654980735858848"><ele>311.2</ele><time>2026-05-01T16:18:08Z</time></trkpt><trkpt lat="43.11401074015772" lon="10.6548456305751"><ele>308.4</ele><time>2026-05-01T16:18:10Z</time></trkpt><trkpt lat="43.113936938405146" lon="10.654772621019312"><ele>305.6</ele><time>2026-05-01T16:18:11Z</time></trkpt><trkpt lat="43.11385904609111" lon="10.654695557129633"><ele>302.8</ele><time>2026-05-01T16:18:12Z</time></trkpt><trkpt lat="43.113800475936465" lon="10.654601573874166"><ele>300.0</ele><time>2026-05-01T16:18:13Z</time></trkpt><trkpt lat="43.113754241629366" lon="10.654472887172822"><ele>302.0</ele><time>2026-05-01T16:18:14Z</time></trkpt><trkpt lat="43.113738176937865" lon="10.654348914889459"><ele>304.0</ele><time>2026-05-01T16:18:15Z</time></trkpt><trkpt lat="43.113734543518994" lon="10.654213748153337"><ele>306.0</ele><time>2026-05-01T16:18:16Z</time></trkpt><trkpt lat="43.11374367983133" lon="10.654067418359086"><ele>308.0</ele><time>2026-05-01T16:18:17Z</time></trkpt><trkpt lat="43.113767708752476" lon="10.653902423182876"><ele>310.0</ele><time>2026-05-01T16:18:18Z</time></trkpt><trkpt lat="43.11380181001538" lon="10.653735593325619"><ele>312.16666666666663</ele><time>2026-05-01T16:18:19Z</time></trkpt><trkpt lat="43.113826262572736" lon="10.653590191844057"><ele>314.3333333333333</ele><time>2026-05-01T16:18:20Z</time></trkpt><trkpt lat="43.11384385567729" lon="10.653470269930542"><ele>316.5</ele><time>2026-05-01T16:18:21Z</time></trkpt><trkpt lat="43.1138561863401" lon="10.653374039926984"><ele>318.6666666666667</ele><time>2026-05-01T16:18:22Z</time></trkpt><trkpt lat="43.1138450056765" lon="10.653276520468562"><ele>320.83333333333337</ele><time>2026-05-01T16:18:23Z</time></trkpt><trkpt lat="43.11381540445064" lon="10.653196574600656"><ele>323.0</ele><time>2026-05-01T16:18:24Z</time></trkpt><trkpt lat="43.113743132222424" lon="10.653148421642078"><ele>323.0</ele><time>2026-05-01T16:18:25Z</time></trkpt><trkpt lat="43.113650413687516" lon="10.653162095527948"><ele>323.0</ele><time>2026-05-01T16:18:26Z</time></trkpt><trkpt lat="43.113567400077066" lon="10.653268648490782"><ele>323.0</ele><time>2026-05-01T16:18:27Z</time></trkpt><trkpt lat="43.11348562543236" lon="10.653338419857441"><ele>323.0</ele><time>2026-05-01T16:18:28Z</time></trkpt><trkpt lat="43.1133986245988" lon="10.653412044666212"><ele>323.0</ele><time>2026-05-01T16:18:29Z</time></trkpt><trkpt lat="43.11331343377477" lon="10.65351266419269"><ele>322.1666666666667</ele><time>2026-05-01T16:18:30Z</time></trkpt><trkpt lat="43.11323246576614" lon="10.653629601405518"><ele>321.33333333333337</ele><time>2026-05-01T16:18:31Z</time></trkpt><trkpt lat="43.113167288638245" lon="10.653723292775188"><ele>320.5</ele><time>2026-05-01T16:18:32Z</time></trkpt><trkpt lat="43.11310519643392" lon="10.653797273570873"><ele>319.6666666666667</ele><time>2026-05-01T16:18:33Z</time></trkpt><trkpt lat="43.113048735010544" lon="10.653845349604438"><ele>318.8333333333333</ele><time>2026-05-01T16:18:34Z</time></trkpt><trkpt lat="43.11298445845651" lon="10.653860328997114"><ele>318.0</ele><time>2026-05-01T16:18:35Z</time></trkpt><trkpt lat="43.11292331279715" lon="10.653832750158305"><ele>318.0</ele><time>2026-05-01T16:18:36Z</time></trkpt><trkpt lat="43.11283134402127" lon="10.653823912213053"><ele>318.0</ele><time>2026-05-01T16:18:37Z</time></trkpt><trkpt lat="43.11276668809955" lon="10.65381134917316"><ele>318.0</ele><time>2026-05-01T16:18:38Z</time></trkpt><trkpt lat="43.112698879214285" lon="10.653803057034185"><ele>318.0</ele><time>2026-05-01T16:18:39Z</time></trkpt><trkpt lat="43.11263650134078" lon="10.653865323507404"><ele>318.0</ele><time>2026-05-01T16:18:40Z</time></trkpt><trkpt lat="43.11261022029464" lon="10.654010560744746"><ele>318.0</ele><time>2026-05-01T16:18:41Z</time></trkpt><trkpt lat="43.112654170303" lon="10.654161590427007"><ele>318.0</ele><time>2026-05-01T16:18:42Z</time></trkpt><trkpt lat="43.112685970216475" lon="10.654302484223473"><ele>318.0</ele><time>2026-05-01T16:18:43Z</time></trkpt><trkpt lat="43.11271169192971" lon="10.654443468876226"><ele>318.0</ele><time>2026-05-01T16:18:44Z</time></trkpt><trkpt lat="43.112729115823875" lon="10.654592040176464"><ele>318.0</ele><time>2026-05-01T16:18:45Z</time></trkpt><trkpt lat="43.11273687923653" lon="10.654719309753714"><ele>318.0</ele><time>2026-05-01T16:18:46Z</time></trkpt><trkpt lat="43.112741371062086" lon="10.654840414598725"><ele>315.8333333333333</ele><time>2026-05-01T16:18:47Z</time></trkpt><trkpt lat="43.112737651109946" lon="10.654931470504534"><ele>313.6666666666667</ele><time>2026-05-01T16:18:48Z</time></trkpt><trkpt lat="43.1126941837445" lon="10.655076400569978"><ele>311.5</ele><time>2026-05-01T16:18:50Z</time></trkpt><trkpt lat="43.11262709369581" lon="10.655103468688505"><ele>309.33333333333337</ele><time>2026-05-01T16:18:51Z</time></trkpt><trkpt lat="43.112556203515105" lon="10.655080852380822"><ele>307.1666666666667</ele><time>2026-05-01T16:18:52Z</time></trkpt><trkpt lat="43.11249373110525" lon="10.655003562696304"><ele>305.0</ele><time>2026-05-01T16:18:53Z</time></trkpt><trkpt lat="43.11244153089854" lon="10.65489091346348"><ele>307.2</ele><time>2026-05-01T16:18:54Z</time></trkpt><trkpt lat="43.112380800745846" lon="10.654766373679866"><ele>309.4</ele><time>2026-05-01T16:18:55Z</time></trkpt><trkpt lat="43.11231452195956" lon="10.654648144401445"><ele>311.6</ele><time>2026-05-01T16:18:56Z</time></trkpt><trkpt lat="43.1122449576289" lon="10.6545541049454"><ele>313.8</ele><time>2026-05-01T16:18:57Z</time></trkpt><trkpt lat="43.11216157377149" lon="10.654509869846613"><ele>316.0</ele><time>2026-05-01T16:18:58Z</time></trkpt><trkpt lat="43.11207680507432" lon="10.65450970235787"><ele>316.0</ele><time>2026-05-01T16:18:59Z</time></trkpt><trkpt lat="43.11200720564386" lon="10.654528673791964"><ele>316.0</ele><time>2026-05-01T16:19:00Z</time></trkpt><trkpt lat="43.11195255593189" lon="10.654639083257456"><ele>316.0</ele><time>2026-05-01T16:19:01Z</time></trkpt><trkpt lat="43.111925229231794" lon="10.654774137668648"><ele>316.0</ele><time>2026-05-01T16:19:02Z</time></trkpt><trkpt lat="43.111887562076454" lon="10.654906614442252"><ele>316.0</ele><time>2026-05-01T16:19:03Z</time></trkpt><trkpt lat="43.11184040930252" lon="10.655068859913348"><ele>316.0</ele><time>2026-05-01T16:19:04Z</time></trkpt><trkpt lat="43.11180217262033" lon="10.655206142490343"><ele>316.0</ele><time>2026-05-01T16:19:05Z</time></trkpt><trkpt lat="43.11176369305003" lon="10.655332473062655"><ele>316.0</ele><time>2026-05-01T16:19:06Z</time></trkpt><trkpt lat="43.11172467745147" lon="10.655425852875414"><ele>316.0</ele><time>2026-05-01T16:19:07Z</time></trkpt><trkpt lat="43.111674915873365" lon="10.65550932628827"><ele>316.0</ele><time>2026-05-01T16:19:08Z</time></trkpt><trkpt lat="43.11163109084999" lon="10.655597133817498"><ele>316.0</ele><time>2026-05-01T16:19:09Z</time></trkpt><trkpt lat="43.111573563638196" lon="10.655643177303531"><ele>316.0</ele><time>2026-05-01T16:19:11Z</time></trkpt><trkpt lat="43.1115948224212" lon="10.65554240329034"><ele>316.0</ele><time>2026-05-01T16:19:16Z</time></trkpt><trkpt lat="43.11165477179549" lon="10.65540825119707"><ele>316.0</ele><time>2026-05-01T16:19:19Z</time></trkpt><trkpt lat="43.11170781847905" lon="10.655282631107111"><ele>316.0</ele><time>2026-05-01T16:19:21Z</time></trkpt><trkpt lat="43.11184583197034" lon="10.655177176819661"><ele>316.0</ele><time>2026-05-01T16:19:23Z</time></trkpt><trkpt lat="43.1118700222094" lon="10.655090068953852"><ele>316.0</ele><time>2026-05-01T16:19:24Z</time></trkpt><trkpt lat="43.11190207624946" lon="10.654979951522574"><ele>316.0</ele><time>2026-05-01T16:19:25Z</time></trkpt><trkpt lat="43.11193276795253" lon="10.65487434605172"><ele>316.0</ele><time>2026-05-01T16:19:26Z</time></trkpt><trkpt lat="43.11196263888645" lon="10.654766183819559"><ele>316.0</ele><time>2026-05-01T16:19:27Z</time></trkpt><trkpt lat="43.11199570058183" lon="10.654639096300702"><ele>316.0</ele><time>2026-05-01T16:19:28Z</time></trkpt><trkpt lat="43.11202965218203" lon="10.65456604531386"><ele>316.0</ele><time>2026-05-01T16:19:29Z</time></trkpt><trkpt lat="43.112062040775136" lon="10.654483773565675"><ele>316.0</ele><time>2026-05-01T16:19:30Z</time></trkpt><trkpt lat="43.11231362643598" lon="10.653821845317172"><ele>318.3333333333333</ele><time>2026-05-01T16:19:38Z</time></trkpt><trkpt lat="43.11234055035509" lon="10.653728185175197"><ele>320.66666666666663</ele><time>2026-05-01T16:19:39Z</time></trkpt><trkpt lat="43.112373382493686" lon="10.653637709573752"><ele>323.0</ele><time>2026-05-01T16:19:40Z</time></trkpt><trkpt lat="43.11242169361404" lon="10.653504778129687"><ele>325.3333333333333</ele><time>2026-05-01T16:19:42Z</time></trkpt><trkpt lat="43.112482906649575" lon="10.65339887914533"><ele>327.6666666666667</ele><time>2026-05-01T16:19:44Z</time></trkpt><trkpt lat="43.11253773780317" lon="10.653355560240442"><ele>330.0</ele><time>2026-05-01T16:19:45Z</time></trkpt><trkpt lat="43.112599142298095" lon="10.653332986937672"><ele>330.3333333333333</ele><time>2026-05-01T16:19:46Z</time></trkpt><trkpt lat="43.11266480728862" lon="10.65331429174348"><ele>330.6666666666667</ele><time>2026-05-01T16:19:47Z</time></trkpt><trkpt lat="43.11273043262823" lon="10.653326339353502"><ele>331.0</ele><time>2026-05-01T16:19:48Z</time></trkpt><trkpt lat="43.11282896361286" lon="10.653321563916865"><ele>331.33333333333337</ele><time>2026-05-01T16:19:50Z</time></trkpt><trkpt lat="43.11294761946399" lon="10.653269290603248"><ele>331.6666666666667</ele><time>2026-05-01T16:19:52Z</time></trkpt><trkpt lat="43.113018556036174" lon="10.65321459237363"><ele>332.0</ele><time>2026-05-01T16:19:53Z</time></trkpt><trkpt lat="43.11308028621178" lon="10.653144738330303"><ele>332.0</ele><time>2026-05-01T16:19:54Z</time></trkpt><trkpt lat="43.113141579728584" lon="10.653066050315752"><ele>332.0</ele><time>2026-05-01T16:19:55Z</time></trkpt><trkpt lat="43.113214897702115" lon="10.653018620468815"><ele>332.0</ele><time>2026-05-01T16:19:56Z</time></trkpt><trkpt lat="43.11329133920836" lon="10.652979878500208"><ele>332.0</ele><time>2026-05-01T16:19:57Z</time></trkpt><trkpt lat="43.11334865580075" lon="10.652940340829865"><ele>332.0</ele><time>2026-05-01T16:19:58Z</time></trkpt><trkpt lat="43.113406369882966" lon="10.652841000289746"><ele>332.0</ele><time>2026-05-01T16:20:00Z</time></trkpt><trkpt lat="43.1134837588652" lon="10.652773738523475"><ele>333.33333333333337</ele><time>2026-05-01T16:20:02Z</time></trkpt><trkpt lat="43.113550829437436" lon="10.652627056384706"><ele>334.6666666666667</ele><time>2026-05-01T16:20:04Z</time></trkpt><trkpt lat="43.113605222602075" lon="10.65255663020413"><ele>336.0</ele><time>2026-05-01T16:20:05Z</time></trkpt><trkpt lat="43.11365213245386" lon="10.652467739845653"><ele>337.3333333333333</ele><time>2026-05-01T16:20:06Z</time></trkpt><trkpt lat="43.113699546167695" lon="10.652391042923643"><ele>338.66666666666663</ele><time>2026-05-01T16:20:07Z</time></trkpt><trkpt lat="43.11374905824002" lon="10.652326826560513"><ele>340.0</ele><time>2026-05-01T16:20:08Z</time></trkpt><trkpt lat="43.11380239613727" lon="10.65224740731665"><ele>340.0</ele><time>2026-05-01T16:20:09Z</time></trkpt><trkpt lat="43.113851931468425" lon="10.65216674016813"><ele>340.0</ele><time>2026-05-01T16:20:10Z</time></trkpt><trkpt lat="43.11390056609579" lon="10.652081947260118"><ele>340.0</ele><time>2026-05-01T16:20:11Z</time></trkpt><trkpt lat="43.11394124404029" lon="10.652014896537244"><ele>340.0</ele><time>2026-05-01T16:20:12Z</time></trkpt><trkpt lat="43.11401572386457" lon="10.651879334933769"><ele>340.0</ele><time>2026-05-01T16:20:14Z</time></trkpt><trkpt lat="43.114053452888015" lon="10.65180187012309"><ele>340.0</ele><time>2026-05-01T16:20:15Z</time></trkpt><trkpt lat="43.11411640823507" lon="10.651666826578378"><ele>340.0</ele><time>2026-05-01T16:20:17Z</time></trkpt><trkpt lat="43.114161399349896" lon="10.65158516321144"><ele>340.0</ele><time>2026-05-01T16:20:18Z</time></trkpt><trkpt lat="43.11420248974169" lon="10.651496172396604"><ele>340.0</ele><time>2026-05-01T16:20:19Z</time></trkpt><trkpt lat="43.11431437859685" lon="10.651383361305856"><ele>340.0</ele><time>2026-05-01T16:20:21Z</time></trkpt><trkpt lat="43.11437337997029" lon="10.651336264556067"><ele>340.0</ele><time>2026-05-01T16:20:22Z</time></trkpt><trkpt lat="43.11446573537105" lon="10.65120305722138"><ele>342.66666666666663</ele><time>2026-05-01T16:20:24Z</time></trkpt><trkpt lat="43.11454150031338" lon="10.651086043230414"><ele>345.3333333333333</ele><time>2026-05-01T16:20:26Z</time></trkpt><trkpt lat="43.11457615174564" lon="10.65097714194135"><ele>348.0</ele><time>2026-05-01T16:20:27Z</time></trkpt><trkpt lat="43.11459491031337" lon="10.65086677814814"><ele>350.6666666666667</ele><time>2026-05-01T16:20:28Z</time></trkpt><trkpt lat="43.11459971535253" lon="10.650769361607031"><ele>353.33333333333337</ele><time>2026-05-01T16:20:29Z</time></trkpt><trkpt lat="43.11461366540006" lon="10.650679881529769"><ele>356.0</ele><time>2026-05-01T16:20:30Z</time></trkpt><trkpt lat="43.11464494980206" lon="10.65058445278676"><ele>356.0</ele><time>2026-05-01T16:20:31Z</time></trkpt><trkpt lat="43.11469048240087" lon="10.650502903675621"><ele>356.0</ele><time>2026-05-01T16:20:32Z</time></trkpt><trkpt lat="43.114755002975336" lon="10.65044103925738"><ele>356.0</ele><time>2026-05-01T16:20:33Z</time></trkpt><trkpt lat="43.11483097255747" lon="10.650398384206465"><ele>356.0</ele><time>2026-05-01T16:20:34Z</time></trkpt><trkpt lat="43.11496922934888" lon="10.650372435883174"><ele>356.0</ele><time>2026-05-01T16:20:36Z</time></trkpt><trkpt lat="43.11505010577061" lon="10.650348820227327"><ele>356.5</ele><time>2026-05-01T16:20:37Z</time></trkpt><trkpt lat="43.11512952703198" lon="10.650325739408549"><ele>357.0</ele><time>2026-05-01T16:20:38Z</time></trkpt><trkpt lat="43.11522102240093" lon="10.650279617211028"><ele>357.5</ele><time>2026-05-01T16:20:39Z</time></trkpt><trkpt lat="43.11529046127665" lon="10.650225163190633"><ele>358.0</ele><time>2026-05-01T16:20:40Z</time></trkpt><trkpt lat="43.11537437197621" lon="10.65017272529046"><ele>358.5</ele><time>2026-05-01T16:20:41Z</time></trkpt><trkpt lat="43.11545044810901" lon="10.650128704459116"><ele>359.0</ele><time>2026-05-01T16:20:42Z</time></trkpt><trkpt lat="43.115546412611415" lon="10.65000638655983"><ele>359.0</ele><time>2026-05-01T16:20:44Z</time></trkpt><trkpt lat="43.1155732569448" lon="10.64992528357914"><ele>359.0</ele><time>2026-05-01T16:20:45Z</time></trkpt><trkpt lat="43.11558884463673" lon="10.649827920462174"><ele>359.0</ele><time>2026-05-01T16:20:46Z</time></trkpt><trkpt lat="43.115613364797994" lon="10.649722020568186"><ele>359.0</ele><time>2026-05-01T16:20:47Z</time></trkpt><trkpt lat="43.11562940373411" lon="10.649622575643273"><ele>359.0</ele><time>2026-05-01T16:20:48Z</time></trkpt><trkpt lat="43.11567144119905" lon="10.649479275113483"><ele>359.0</ele><time>2026-05-01T16:20:50Z</time></trkpt><trkpt lat="43.11571949247419" lon="10.64940650350352"><ele>360.0</ele><time>2026-05-01T16:20:51Z</time></trkpt><trkpt lat="43.1157795317201" lon="10.64934056203898"><ele>361.0</ele><time>2026-05-01T16:20:52Z</time></trkpt><trkpt lat="43.11588024658027" lon="10.649226042748262"><ele>362.0</ele><time>2026-05-01T16:20:54Z</time></trkpt><trkpt lat="43.11594106803724" lon="10.649069632694976"><ele>363.0</ele><time>2026-05-01T16:20:56Z</time></trkpt><trkpt lat="43.115943660574665" lon="10.648968320519696"><ele>364.0</ele><time>2026-05-01T16:20:57Z</time></trkpt><trkpt lat="43.115915196327286" lon="10.648857105361824"><ele>364.0</ele><time>2026-05-01T16:20:58Z</time></trkpt><trkpt lat="43.11588069868938" lon="10.648757035502975"><ele>364.0</ele><time>2026-05-01T16:20:59Z</time></trkpt><trkpt lat="43.11585959719527" lon="10.648654002400301"><ele>364.0</ele><time>2026-05-01T16:21:00Z</time></trkpt><trkpt lat="43.11584224254728" lon="10.648556932844592"><ele>364.0</ele><time>2026-05-01T16:21:01Z</time></trkpt><trkpt lat="43.115846499134655" lon="10.648462544188114"><ele>364.0</ele><time>2026-05-01T16:21:02Z</time></trkpt><trkpt lat="43.11587723923478" lon="10.64830256915636"><ele>364.0</ele><time>2026-05-01T16:21:04Z</time></trkpt><trkpt lat="43.11588283394585" lon="10.648203261915295"><ele>365.0</ele><time>2026-05-01T16:21:06Z</time></trkpt><trkpt lat="43.11581881200003" lon="10.648166284746964"><ele>366.0</ele><time>2026-05-01T16:21:08Z</time></trkpt><trkpt lat="43.11574622186402" lon="10.64823195206645"><ele>367.0</ele><time>2026-05-01T16:21:10Z</time></trkpt><trkpt lat="43.11571105145545" lon="10.648394441256006"><ele>368.0</ele><time>2026-05-01T16:21:12Z</time></trkpt><trkpt lat="43.11567232292697" lon="10.648544507681375"><ele>369.0</ele><time>2026-05-01T16:21:14Z</time></trkpt><trkpt lat="43.115634951217515" lon="10.64861818476039"><ele>370.3333333333333</ele><time>2026-05-01T16:21:15Z</time></trkpt><trkpt lat="43.115605874296605" lon="10.648697399745922"><ele>371.6666666666667</ele><time>2026-05-01T16:21:16Z</time></trkpt><trkpt lat="43.11553826903685" lon="10.648799130809417"><ele>373.0</ele><time>2026-05-01T16:21:18Z</time></trkpt><trkpt lat="43.11546847328727" lon="10.648854633716924"><ele>374.33333333333337</ele><time>2026-05-01T16:21:19Z</time></trkpt><trkpt lat="43.11538531617476" lon="10.648893710953846"><ele>375.6666666666667</ele><time>2026-05-01T16:21:20Z</time></trkpt><trkpt lat="43.11530872103169" lon="10.648922860871913"><ele>377.0</ele><time>2026-05-01T16:21:21Z</time></trkpt><trkpt lat="43.115235705871164" lon="10.648970460514395"><ele>377.0</ele><time>2026-05-01T16:21:22Z</time></trkpt><trkpt lat="43.11513662732163" lon="10.648953925134066"><ele>377.0</ele><time>2026-05-01T16:21:23Z</time></trkpt><trkpt lat="43.1150711300201" lon="10.649020795222723"><ele>377.0</ele><time>2026-05-01T16:21:24Z</time></trkpt><trkpt lat="43.11497825434637" lon="10.649073949351811"><ele>377.0</ele><time>2026-05-01T16:21:26Z</time></trkpt><trkpt lat="43.11488884941265" lon="10.649104067854772"><ele>377.0</ele><time>2026-05-01T16:21:27Z</time></trkpt><trkpt lat="43.114787016750554" lon="10.649133189776292"><ele>378.20000000000005</ele><time>2026-05-01T16:21:28Z</time></trkpt><trkpt lat="43.11468908258763" lon="10.649152736429128"><ele>379.4</ele><time>2026-05-01T16:21:29Z</time></trkpt><trkpt lat="43.11460186439908" lon="10.649162277981999"><ele>380.6</ele><time>2026-05-01T16:21:30Z</time></trkpt><trkpt lat="43.11450155197215" lon="10.64917069400692"><ele>381.79999999999995</ele><time>2026-05-01T16:21:31Z</time></trkpt><trkpt lat="43.11440279343952" lon="10.649204154729643"><ele>383.0</ele><time>2026-05-01T16:21:32Z</time></trkpt><trkpt lat="43.11432220416901" lon="10.649263864039149"><ele>383.0</ele><time>2026-05-01T16:21:33Z</time></trkpt><trkpt lat="43.1142571201087" lon="10.649291304677394"><ele>383.0</ele><time>2026-05-01T16:21:34Z</time></trkpt><trkpt lat="43.114174240796736" lon="10.649284792443003"><ele>383.0</ele><time>2026-05-01T16:21:35Z</time></trkpt><trkpt lat="43.11410769579169" lon="10.649299305745918"><ele>383.0</ele><time>2026-05-01T16:21:37Z</time></trkpt><trkpt lat="43.114038960194634" lon="10.649100154761237"><ele>383.0</ele><time>2026-05-01T16:21:44Z</time></trkpt><trkpt lat="43.113980006868154" lon="10.64900992005918"><ele>383.0</ele><time>2026-05-01T16:21:46Z</time></trkpt><trkpt lat="43.1139303700564" lon="10.648885143982524"><ele>383.0</ele><time>2026-05-01T16:21:48Z</time></trkpt><trkpt lat="43.11396693015837" lon="10.649030693393781"><ele>383.0</ele><time>2026-05-01T16:22:32Z</time></trkpt><trkpt lat="43.11400191530961" lon="10.649118596299065"><ele>383.0</ele><time>2026-05-01T16:22:33Z</time></trkpt><trkpt lat="43.11404798831517" lon="10.649238929937681"><ele>383.0</ele><time>2026-05-01T16:22:35Z</time></trkpt><trkpt lat="43.11404005902305" lon="10.649353276848956"><ele>383.0</ele><time>2026-05-01T16:23:33Z</time></trkpt><trkpt lat="43.11396808812933" lon="10.64942424437186"><ele>383.0</ele><time>2026-05-01T16:23:35Z</time></trkpt><trkpt lat="43.11390988659053" lon="10.649498050591612"><ele>383.0</ele><time>2026-05-01T16:23:37Z</time></trkpt><trkpt lat="43.11385138886343" lon="10.649598210912904"><ele>383.0</ele><time>2026-05-01T16:23:39Z</time></trkpt><trkpt lat="43.113815210147976" lon="10.649672090798356"><ele>383.0</ele><time>2026-05-01T16:23:42Z</time></trkpt><trkpt lat="43.11371519021098" lon="10.649695803926889"><ele>383.0</ele><time>2026-05-01T16:23:45Z</time></trkpt><trkpt lat="43.113647711309916" lon="10.649743164310424"><ele>383.0</ele><time>2026-05-01T16:23:47Z</time></trkpt><trkpt lat="43.11373267419176" lon="10.64973149311594"><ele>383.0</ele><time>2026-05-01T16:24:08Z</time></trkpt><trkpt lat="43.11380107241734" lon="10.649701250644517"><ele>383.0</ele><time>2026-05-01T16:24:10Z</time></trkpt><trkpt lat="43.1138689874771" lon="10.649659171182167"><ele>383.0</ele><time>2026-05-01T16:24:13Z</time></trkpt><trkpt lat="43.113932926513755" lon="10.64955310860739"><ele>383.0</ele><time>2026-05-01T16:24:15Z</time></trkpt><trkpt lat="43.1140007476234" lon="10.649478426449562"><ele>383.0</ele><time>2026-05-01T16:24:17Z</time></trkpt><trkpt lat="43.114062082086086" lon="10.649392586371762"><ele>383.0</ele><time>2026-05-01T16:24:20Z</time></trkpt><trkpt lat="43.11405270354088" lon="10.649285203917437"><ele>383.0</ele><time>2026-05-01T16:24:30Z</time></trkpt><trkpt lat="43.11400595385317" lon="10.649150234977606"><ele>383.0</ele><time>2026-05-01T16:24:32Z</time></trkpt><trkpt lat="43.11395483335679" lon="10.648997925719453"><ele>383.0</ele><time>2026-05-01T16:24:34Z</time></trkpt><trkpt lat="43.1138928653375" lon="10.648870477312709"><ele>383.0</ele><time>2026-05-01T16:24:36Z</time></trkpt><trkpt lat="43.11385102578839" lon="10.648740434090877"><ele>386.2</ele><time>2026-05-01T16:24:38Z</time></trkpt><trkpt lat="43.113834639753435" lon="10.648608793599449"><ele>389.4</ele><time>2026-05-01T16:24:40Z</time></trkpt><trkpt lat="43.11382180116258" lon="10.6485065369605"><ele>392.59999999999997</ele><time>2026-05-01T16:24:50Z</time></trkpt><trkpt lat="43.113813260389136" lon="10.648364303436683"><ele>395.79999999999995</ele><time>2026-05-01T16:24:52Z</time></trkpt><trkpt lat="43.11382632151415" lon="10.64822720084841"><ele>399.0</ele><time>2026-05-01T16:24:54Z</time></trkpt><trkpt lat="43.113819171074276" lon="10.64811959678637"><ele>399.0</ele><time>2026-05-01T16:24:56Z</time></trkpt><trkpt lat="43.11381978199752" lon="10.64798610584654"><ele>399.0</ele><time>2026-05-01T16:24:58Z</time></trkpt><trkpt lat="43.11382301582128" lon="10.647861057724349"><ele>399.0</ele><time>2026-05-01T16:25:00Z</time></trkpt><trkpt lat="43.113763341449534" lon="10.647759892129322"><ele>399.0</ele><time>2026-05-01T16:25:02Z</time></trkpt><trkpt lat="43.113700788267984" lon="10.647648997811594"><ele>399.0</ele><time>2026-05-01T16:25:04Z</time></trkpt><trkpt lat="43.113650763979216" lon="10.647504240407523"><ele>400.5</ele><time>2026-05-01T16:25:06Z</time></trkpt><trkpt lat="43.11361249503121" lon="10.647409603435483"><ele>402.0</ele><time>2026-05-01T16:25:08Z</time></trkpt><trkpt lat="43.1135630426399" lon="10.647293139223537"><ele>403.5</ele><time>2026-05-01T16:25:10Z</time></trkpt><trkpt lat="43.11352546569498" lon="10.647208416873973"><ele>405.0</ele><time>2026-05-01T16:25:12Z</time></trkpt><trkpt lat="43.11348116512364" lon="10.647081560362427"><ele>406.5</ele><time>2026-05-01T16:25:14Z</time></trkpt><trkpt lat="43.11342806043879" lon="10.646975629190889"><ele>408.0</ele><time>2026-05-01T16:25:16Z</time></trkpt><trkpt lat="43.11339999966987" lon="10.646848660680746"><ele>410.0</ele><time>2026-05-01T16:25:18Z</time></trkpt><trkpt lat="43.11345119139714" lon="10.646766982347252"><ele>412.0</ele><time>2026-05-01T16:25:20Z</time></trkpt><trkpt lat="43.11357051681255" lon="10.64678873800406"><ele>414.0</ele><time>2026-05-01T16:25:22Z</time></trkpt><trkpt lat="43.11363307399257" lon="10.64684533844632"><ele>416.0</ele><time>2026-05-01T16:25:23Z</time></trkpt><trkpt lat="43.11371114219633" lon="10.646884918269953"><ele>418.0</ele><time>2026-05-01T16:25:25Z</time></trkpt><trkpt lat="43.11383351257897" lon="10.646917084820727"><ele>418.00000000000006</ele><time>2026-05-01T16:25:27Z</time></trkpt><trkpt lat="43.11390701303349" lon="10.646877084019257"><ele>418.0</ele><time>2026-05-01T16:25:29Z</time></trkpt><trkpt lat="43.1139229947037" lon="10.64679341625498"><ele>418.0</ele><time>2026-05-01T16:25:30Z</time></trkpt><trkpt lat="43.113863153700194" lon="10.646637645851822"><ele>418.0</ele><time>2026-05-01T16:25:32Z</time></trkpt><trkpt lat="43.11381851106934" lon="10.646559123189272"><ele>418.00000000000006</ele><time>2026-05-01T16:25:33Z</time></trkpt><trkpt lat="43.11379355523271" lon="10.646478993432723"><ele>418.0</ele><time>2026-05-01T16:25:34Z</time></trkpt><trkpt lat="43.11377280233483" lon="10.646315457029193"><ele>418.00000000000006</ele><time>2026-05-01T16:25:36Z</time></trkpt><trkpt lat="43.11372414768046" lon="10.646170301610589"><ele>418.0</ele><time>2026-05-01T16:25:38Z</time></trkpt><trkpt lat="43.113715319266745" lon="10.646078530330497"><ele>418.0</ele><time>2026-05-01T16:25:39Z</time></trkpt><trkpt lat="43.11366118260348" lon="10.645993861120827"><ele>418.0</ele><time>2026-05-01T16:25:41Z</time></trkpt><trkpt lat="43.11356599793308" lon="10.645935710788077"><ele>418.00000000000006</ele><time>2026-05-01T16:25:43Z</time></trkpt><trkpt lat="43.113493934587744" lon="10.645952734848187"><ele>418.0</ele><time>2026-05-01T16:25:45Z</time></trkpt><trkpt lat="43.11340589654244" lon="10.64593293619357"><ele>419.83333333333337</ele><time>2026-05-01T16:25:47Z</time></trkpt><trkpt lat="43.11333934253322" lon="10.64590409890474"><ele>421.6666666666667</ele><time>2026-05-01T16:25:49Z</time></trkpt><trkpt lat="43.11329098046756" lon="10.645844171848369"><ele>423.5</ele><time>2026-05-01T16:26:05Z</time></trkpt><trkpt lat="43.11322181835584" lon="10.645773124863558"><ele>425.33333333333337</ele><time>2026-05-01T16:26:07Z</time></trkpt><trkpt lat="43.113143678675954" lon="10.6457178603127"><ele>427.1666666666667</ele><time>2026-05-01T16:26:09Z</time></trkpt><trkpt lat="43.11305373322576" lon="10.645670568883308"><ele>429.0</ele><time>2026-05-01T16:26:11Z</time></trkpt><trkpt lat="43.11297442477104" lon="10.645667396281997"><ele>430.79999999999995</ele><time>2026-05-01T16:26:13Z</time></trkpt><trkpt lat="43.11287927981966" lon="10.64565059020132"><ele>432.59999999999997</ele><time>2026-05-01T16:26:15Z</time></trkpt><trkpt lat="43.11280570753135" lon="10.645636755233852"><ele>434.4</ele><time>2026-05-01T16:26:17Z</time></trkpt><trkpt lat="43.112760454119176" lon="10.6455447284494"><ele>436.2</ele><time>2026-05-01T16:26:19Z</time></trkpt><trkpt lat="43.1128260051723" lon="10.645382795917076"><ele>438.0</ele><time>2026-05-01T16:26:21Z</time></trkpt><trkpt lat="43.11286002777914" lon="10.645308052137718"><ele>438.0</ele><time>2026-05-01T16:26:22Z</time></trkpt><trkpt lat="43.11291273201036" lon="10.64517454283475"><ele>437.99999999999994</ele><time>2026-05-01T16:26:24Z</time></trkpt><trkpt lat="43.112930242359454" lon="10.645013547076312"><ele>437.99999999999994</ele><time>2026-05-01T16:26:26Z</time></trkpt><trkpt lat="43.112967465414506" lon="10.644881834279266"><ele>438.0</ele><time>2026-05-01T16:26:28Z</time></trkpt><trkpt lat="43.11301491455005" lon="10.644788320968381"><ele>438.0</ele><time>2026-05-01T16:26:29Z</time></trkpt><trkpt lat="43.113077929832805" lon="10.644670277771809"><ele>438.0</ele><time>2026-05-01T16:26:30Z</time></trkpt><trkpt lat="43.11314880850471" lon="10.644565043680752"><ele>437.99999999999994</ele><time>2026-05-01T16:26:31Z</time></trkpt><trkpt lat="43.11320334830035" lon="10.644454867156051"><ele>437.99999999999994</ele><time>2026-05-01T16:26:32Z</time></trkpt><trkpt lat="43.113257762824816" lon="10.644344158205767"><ele>438.0</ele><time>2026-05-01T16:26:33Z</time></trkpt><trkpt lat="43.11330391003936" lon="10.6442300804626"><ele>438.0</ele><time>2026-05-01T16:26:34Z</time></trkpt><trkpt lat="43.11333546512768" lon="10.644107483565676"><ele>438.1666666666667</ele><time>2026-05-01T16:26:35Z</time></trkpt><trkpt lat="43.11337885298076" lon="10.643991036977429"><ele>438.33333333333337</ele><time>2026-05-01T16:26:36Z</time></trkpt><trkpt lat="43.113418604608796" lon="10.643884247831748"><ele>438.5</ele><time>2026-05-01T16:26:37Z</time></trkpt><trkpt lat="43.113456752634235" lon="10.643792856164408"><ele>438.6666666666667</ele><time>2026-05-01T16:26:38Z</time></trkpt><trkpt lat="43.11351826266759" lon="10.643719730289622"><ele>438.83333333333337</ele><time>2026-05-01T16:26:39Z</time></trkpt><trkpt lat="43.113562778110506" lon="10.643631440411845"><ele>439.0</ele><time>2026-05-01T16:26:40Z</time></trkpt><trkpt lat="43.1136746041997" lon="10.643558820688959"><ele>439.00000000000006</ele><time>2026-05-01T16:26:42Z</time></trkpt><trkpt lat="43.11375787238769" lon="10.643544994742768"><ele>439.0</ele><time>2026-05-01T16:26:43Z</time></trkpt><trkpt lat="43.1138435630867" lon="10.643535216762317"><ele>439.0</ele><time>2026-05-01T16:26:44Z</time></trkpt><trkpt lat="43.113930873316306" lon="10.643550546846317"><ele>439.0</ele><time>2026-05-01T16:26:45Z</time></trkpt><trkpt lat="43.114001717754746" lon="10.643527053843654"><ele>439.00000000000006</ele><time>2026-05-01T16:26:46Z</time></trkpt><trkpt lat="43.11406907242556" lon="10.643526081349123"><ele>439.0</ele><time>2026-05-01T16:26:47Z</time></trkpt><trkpt lat="43.11413587128077" lon="10.643539793388602"><ele>440.00000000000006</ele><time>2026-05-01T16:26:48Z</time></trkpt><trkpt lat="43.11421069573612" lon="10.643524036518745"><ele>441.0</ele><time>2026-05-01T16:26:49Z</time></trkpt><trkpt lat="43.11427716867952" lon="10.643528283807822"><ele>442.0</ele><time>2026-05-01T16:26:50Z</time></trkpt><trkpt lat="43.11434598291152" lon="10.643552949172829"><ele>443.0</ele><time>2026-05-01T16:26:51Z</time></trkpt><trkpt lat="43.11441358051286" lon="10.643604782584282"><ele>444.00000000000006</ele><time>2026-05-01T16:26:52Z</time></trkpt><trkpt lat="43.114481087201035" lon="10.643620534815968"><ele>445.0</ele><time>2026-05-01T16:26:53Z</time></trkpt><trkpt lat="43.114612806649696" lon="10.64365517469269"><ele>445.00000000000006</ele><time>2026-05-01T16:26:55Z</time></trkpt><trkpt lat="43.114692534317356" lon="10.643657971510095"><ele>445.0</ele><time>2026-05-01T16:26:56Z</time></trkpt><trkpt lat="43.11476811697642" lon="10.643645844022243"><ele>445.0</ele><time>2026-05-01T16:26:57Z</time></trkpt><trkpt lat="43.1148285995867" lon="10.643606072495428"><ele>445.0</ele><time>2026-05-01T16:26:58Z</time></trkpt><trkpt lat="43.11488417039985" lon="10.643535008453625"><ele>445.00000000000006</ele><time>2026-05-01T16:26:59Z</time></trkpt><trkpt lat="43.1149417486814" lon="10.643472355434348"><ele>445.0</ele><time>2026-05-01T16:27:00Z</time></trkpt><trkpt lat="43.114940885174356" lon="10.6433622065992"><ele>447.6666666666667</ele><time>2026-05-01T16:27:01Z</time></trkpt><trkpt lat="43.114940992657885" lon="10.643238052186856"><ele>450.33333333333337</ele><time>2026-05-01T16:27:02Z</time></trkpt><trkpt lat="43.11495463744629" lon="10.643117482635443"><ele>453.0</ele><time>2026-05-01T16:27:03Z</time></trkpt><trkpt lat="43.11496629939325" lon="10.643016581289306"><ele>455.66666666666663</ele><time>2026-05-01T16:27:04Z</time></trkpt><trkpt lat="43.11498959299266" lon="10.642921672025997"><ele>458.3333333333333</ele><time>2026-05-01T16:27:05Z</time></trkpt><trkpt lat="43.115050438513755" lon="10.642783969458785"><ele>461.0</ele><time>2026-05-01T16:27:07Z</time></trkpt><trkpt lat="43.11511853601319" lon="10.642676252649718"><ele>461.0</ele><time>2026-05-01T16:27:09Z</time></trkpt><trkpt lat="43.11516784418866" lon="10.642583757604843"><ele>461.0</ele><time>2026-05-01T16:27:10Z</time></trkpt><trkpt lat="43.115217105619244" lon="10.642477167112997"><ele>461.0</ele><time>2026-05-01T16:27:11Z</time></trkpt><trkpt lat="43.115269141417684" lon="10.642349051559885"><ele>461.0</ele><time>2026-05-01T16:27:12Z</time></trkpt><trkpt lat="43.11531504624402" lon="10.642235912110943"><ele>461.0</ele><time>2026-05-01T16:27:13Z</time></trkpt><trkpt lat="43.11538304744445" lon="10.642169730439822"><ele>460.99999999999994</ele><time>2026-05-01T16:27:14Z</time></trkpt><trkpt lat="43.11543397429535" lon="10.642108772290271"><ele>461.0</ele><time>2026-05-01T16:27:15Z</time></trkpt><trkpt lat="43.11549702467878" lon="10.6420701685085"><ele>461.0</ele><time>2026-05-01T16:27:16Z</time></trkpt><trkpt lat="43.11556777304563" lon="10.642020437595594"><ele>461.0</ele><time>2026-05-01T16:27:17Z</time></trkpt><trkpt lat="43.115666202009" lon="10.64194803506069"><ele>460.99999999999994</ele><time>2026-05-01T16:27:18Z</time></trkpt><trkpt lat="43.115727450945215" lon="10.641875490872234"><ele>461.0</ele><time>2026-05-01T16:27:19Z</time></trkpt><trkpt lat="43.11578441518293" lon="10.641808021541294"><ele>462.8</ele><time>2026-05-01T16:27:20Z</time></trkpt><trkpt lat="43.115864854097495" lon="10.641708578111595"><ele>464.6</ele><time>2026-05-01T16:27:22Z</time></trkpt><trkpt lat="43.11592307623097" lon="10.64162586513048"><ele>466.4</ele><time>2026-05-01T16:27:23Z</time></trkpt><trkpt lat="43.115986189102934" lon="10.64152907437348"><ele>468.2</ele><time>2026-05-01T16:27:24Z</time></trkpt><trkpt lat="43.11604938052739" lon="10.641418688032287"><ele>470.0</ele><time>2026-05-01T16:27:25Z</time></trkpt><trkpt lat="43.11609806040605" lon="10.641329309207952"><ele>470.0</ele><time>2026-05-01T16:27:26Z</time></trkpt><trkpt lat="43.116149628645914" lon="10.641261113407984"><ele>470.0</ele><time>2026-05-01T16:27:27Z</time></trkpt><trkpt lat="43.11624250678864" lon="10.641188235441758"><ele>470.0</ele><time>2026-05-01T16:27:29Z</time></trkpt><trkpt lat="43.11628685117837" lon="10.640971853942208"><ele>470.0</ele><time>2026-05-01T16:27:31Z</time></trkpt><trkpt lat="43.116205422792106" lon="10.64087685953023"><ele>470.49999999999994</ele><time>2026-05-01T16:27:34Z</time></trkpt><trkpt lat="43.11616159414323" lon="10.640794096368223"><ele>471.0</ele><time>2026-05-01T16:27:36Z</time></trkpt><trkpt lat="43.11612153113234" lon="10.640709989900197"><ele>471.5</ele><time>2026-05-01T16:27:37Z</time></trkpt><trkpt lat="43.11608043798092" lon="10.64062175492351"><ele>472.0</ele><time>2026-05-01T16:27:38Z</time></trkpt><trkpt lat="43.11603185196556" lon="10.640537293598891"><ele>472.49999999999994</ele><time>2026-05-01T16:27:39Z</time></trkpt><trkpt lat="43.11600281485354" lon="10.640458989515546"><ele>473.0</ele><time>2026-05-01T16:27:40Z</time></trkpt><trkpt lat="43.11594456952037" lon="10.640337022833808"><ele>474.16666666666663</ele><time>2026-05-01T16:27:42Z</time></trkpt><trkpt lat="43.11588705040888" lon="10.640223120451658"><ele>475.3333333333333</ele><time>2026-05-01T16:27:44Z</time></trkpt><trkpt lat="43.115802610095336" lon="10.640100089806479"><ele>476.5</ele><time>2026-05-01T16:27:46Z</time></trkpt><trkpt lat="43.115751577091324" lon="10.640030355423812"><ele>477.66666666666663</ele><time>2026-05-01T16:27:47Z</time></trkpt><trkpt lat="43.11570258150107" lon="10.639960856458195"><ele>478.8333333333333</ele><time>2026-05-01T16:27:48Z</time></trkpt><trkpt lat="43.11564570962134" lon="10.63988497263342"><ele>480.0</ele><time>2026-05-01T16:27:49Z</time></trkpt><trkpt lat="43.11558412886481" lon="10.63981991182643"><ele>480.0</ele><time>2026-05-01T16:27:50Z</time></trkpt><trkpt lat="43.11552893646911" lon="10.639773161329053"><ele>480.0</ele><time>2026-05-01T16:27:51Z</time></trkpt><trkpt lat="43.115443800834655" lon="10.639690944906581"><ele>480.0</ele><time>2026-05-01T16:27:53Z</time></trkpt><trkpt lat="43.11546393754178" lon="10.63951584172041"><ele>480.0</ele><time>2026-05-01T16:27:57Z</time></trkpt><trkpt lat="43.11554395074287" lon="10.639402307818141"><ele>480.0</ele><time>2026-05-01T16:27:59Z</time></trkpt><trkpt lat="43.115628626767304" lon="10.639298225264403"><ele>479.3333333333333</ele><time>2026-05-01T16:28:01Z</time></trkpt><trkpt lat="43.11567993764228" lon="10.639242308344848"><ele>478.66666666666663</ele><time>2026-05-01T16:28:02Z</time></trkpt><trkpt lat="43.11574653392918" lon="10.639181439933887"><ele>478.0</ele><time>2026-05-01T16:28:03Z</time></trkpt><trkpt lat="43.11581887608665" lon="10.63912034006853"><ele>477.3333333333333</ele><time>2026-05-01T16:28:04Z</time></trkpt><trkpt lat="43.11588798519282" lon="10.639036739522545"><ele>476.66666666666663</ele><time>2026-05-01T16:28:05Z</time></trkpt><trkpt lat="43.11593381749108" lon="10.638936846429862"><ele>476.0</ele><time>2026-05-01T16:28:06Z</time></trkpt><trkpt lat="43.11596365750391" lon="10.638849015545672"><ele>477.49999999999994</ele><time>2026-05-01T16:28:07Z</time></trkpt><trkpt lat="43.11599292250271" lon="10.638750698875377"><ele>479.0</ele><time>2026-05-01T16:28:08Z</time></trkpt><trkpt lat="43.11602243615506" lon="10.638658332304596"><ele>480.5</ele><time>2026-05-01T16:28:09Z</time></trkpt><trkpt lat="43.116056882229884" lon="10.63856012607588"><ele>482.0</ele><time>2026-05-01T16:28:10Z</time></trkpt><trkpt lat="43.116079581757695" lon="10.638451659508036"><ele>483.49999999999994</ele><time>2026-05-01T16:28:11Z</time></trkpt><trkpt lat="43.11609967801745" lon="10.63831165625915"><ele>485.0</ele><time>2026-05-01T16:28:12Z</time></trkpt><trkpt lat="43.11611990006445" lon="10.63820300210618"><ele>485.49999999999994</ele><time>2026-05-01T16:28:13Z</time></trkpt><trkpt lat="43.11615496692781" lon="10.638109910426715"><ele>486.0</ele><time>2026-05-01T16:28:15Z</time></trkpt><trkpt lat="43.11622152293778" lon="10.63805570436171"><ele>486.5</ele><time>2026-05-01T16:28:17Z</time></trkpt><trkpt lat="43.11628047748273" lon="10.638004252403668"><ele>487.0</ele><time>2026-05-01T16:28:18Z</time></trkpt><trkpt lat="43.11635937316824" lon="10.637941658022225"><ele>487.49999999999994</ele><time>2026-05-01T16:28:19Z</time></trkpt><trkpt lat="43.11641854933061" lon="10.637877751795417"><ele>488.0</ele><time>2026-05-01T16:28:20Z</time></trkpt><trkpt lat="43.11648045285073" lon="10.637806439442963"><ele>487.2</ele><time>2026-05-01T16:28:21Z</time></trkpt><trkpt lat="43.116538758840875" lon="10.637729464500092"><ele>486.4</ele><time>2026-05-01T16:28:22Z</time></trkpt><trkpt lat="43.11659939434138" lon="10.63762418604473"><ele>485.59999999999997</ele><time>2026-05-01T16:28:23Z</time></trkpt><trkpt lat="43.116664649087454" lon="10.637513204300811"><ele>484.79999999999995</ele><time>2026-05-01T16:28:24Z</time></trkpt><trkpt lat="43.11672842672308" lon="10.637414532977578"><ele>484.0</ele><time>2026-05-01T16:28:25Z</time></trkpt><trkpt lat="43.116795325734216" lon="10.637332639094026"><ele>487.1666666666667</ele><time>2026-05-01T16:28:26Z</time></trkpt><trkpt lat="43.1168643625561" lon="10.637258640473545"><ele>490.33333333333337</ele><time>2026-05-01T16:28:27Z</time></trkpt><trkpt lat="43.11693331750286" lon="10.63720277126995"><ele>493.5</ele><time>2026-05-01T16:28:28Z</time></trkpt><trkpt lat="43.11701755287277" lon="10.637147552946757"><ele>496.66666666666663</ele><time>2026-05-01T16:28:29Z</time></trkpt><trkpt lat="43.117092630195046" lon="10.637077636698596"><ele>499.8333333333333</ele><time>2026-05-01T16:28:30Z</time></trkpt><trkpt lat="43.11713666669692" lon="10.637007476652146"><ele>503.0</ele><time>2026-05-01T16:28:31Z</time></trkpt><trkpt lat="43.11715925388705" lon="10.636875166714189"><ele>503.8333333333333</ele><time>2026-05-01T16:28:33Z</time></trkpt><trkpt lat="43.11723344174539" lon="10.636755711317857"><ele>504.66666666666663</ele><time>2026-05-01T16:28:37Z</time></trkpt><trkpt lat="43.1173067220197" lon="10.636705720106251"><ele>505.5</ele><time>2026-05-01T16:28:38Z</time></trkpt><trkpt lat="43.11735822433416" lon="10.636628978076962"><ele>506.33333333333337</ele><time>2026-05-01T16:28:39Z</time></trkpt><trkpt lat="43.11741957937373" lon="10.636529470010782"><ele>507.1666666666667</ele><time>2026-05-01T16:28:40Z</time></trkpt><trkpt lat="43.11746298249704" lon="10.636446287039332"><ele>508.0</ele><time>2026-05-01T16:28:41Z</time></trkpt><trkpt lat="43.11750755510394" lon="10.636358808011279"><ele>508.50000000000006</ele><time>2026-05-01T16:28:42Z</time></trkpt><trkpt lat="43.1175585201549" lon="10.636256065236696"><ele>509.0</ele><time>2026-05-01T16:28:43Z</time></trkpt><trkpt lat="43.11761621469469" lon="10.636180300646014"><ele>509.5</ele><time>2026-05-01T16:28:44Z</time></trkpt><trkpt lat="43.117678574173155" lon="10.636074338101206"><ele>510.0</ele><time>2026-05-01T16:28:45Z</time></trkpt><trkpt lat="43.117724883186966" lon="10.635994353779951"><ele>510.50000000000006</ele><time>2026-05-01T16:28:46Z</time></trkpt><trkpt lat="43.11780252350698" lon="10.635921044813358"><ele>511.0</ele><time>2026-05-01T16:28:47Z</time></trkpt><trkpt lat="43.11786131313025" lon="10.635859951885578"><ele>511.00000000000006</ele><time>2026-05-01T16:28:48Z</time></trkpt><trkpt lat="43.11791681875037" lon="10.635789705711565"><ele>511.0</ele><time>2026-05-01T16:28:49Z</time></trkpt><trkpt lat="43.11796843968041" lon="10.635719059474788"><ele>511.0</ele><time>2026-05-01T16:28:50Z</time></trkpt><trkpt lat="43.118027041374965" lon="10.635655248399502"><ele>511.0</ele><time>2026-05-01T16:28:51Z</time></trkpt><trkpt lat="43.1181305878628" lon="10.635574191757406"><ele>511.00000000000006</ele><time>2026-05-01T16:28:53Z</time></trkpt><trkpt lat="43.11820324269881" lon="10.635553696760594"><ele>511.0</ele><time>2026-05-01T16:28:54Z</time></trkpt><trkpt lat="43.1182900091509" lon="10.635530956535327"><ele>510.20000000000005</ele><time>2026-05-01T16:28:55Z</time></trkpt><trkpt lat="43.11837480176832" lon="10.635457759492773"><ele>509.40000000000003</ele><time>2026-05-01T16:28:56Z</time></trkpt><trkpt lat="43.118441324368405" lon="10.635398960276786"><ele>508.6</ele><time>2026-05-01T16:28:57Z</time></trkpt><trkpt lat="43.118521012791724" lon="10.635366320295219"><ele>507.8</ele><time>2026-05-01T16:28:58Z</time></trkpt><trkpt lat="43.11865252915475" lon="10.635373066231782"><ele>507.0</ele><time>2026-05-01T16:29:00Z</time></trkpt><trkpt lat="43.11876225193164" lon="10.635382322981469"><ele>507.0</ele><time>2026-05-01T16:29:01Z</time></trkpt><trkpt lat="43.11884336895864" lon="10.635381045383767"><ele>507.00000000000006</ele><time>2026-05-01T16:29:02Z</time></trkpt><trkpt lat="43.11895597780923" lon="10.635342853767979"><ele>507.00000000000006</ele><time>2026-05-01T16:29:04Z</time></trkpt><trkpt lat="43.119036546215234" lon="10.635254665167373"><ele>507.0</ele><time>2026-05-01T16:29:06Z</time></trkpt><trkpt lat="43.11912144545671" lon="10.63514673784895"><ele>507.0</ele><time>2026-05-01T16:29:07Z</time></trkpt><trkpt lat="43.1192055326731" lon="10.635042078335857"><ele>509.1666666666667</ele><time>2026-05-01T16:29:08Z</time></trkpt><trkpt lat="43.119274308581204" lon="10.634949298243248"><ele>511.33333333333337</ele><time>2026-05-01T16:29:09Z</time></trkpt><trkpt lat="43.119335264603286" lon="10.63485354491846"><ele>513.5</ele><time>2026-05-01T16:29:10Z</time></trkpt><trkpt lat="43.11940301610988" lon="10.634785702123205"><ele>515.6666666666667</ele><time>2026-05-01T16:29:11Z</time></trkpt><trkpt lat="43.11946557076731" lon="10.63475973418033"><ele>517.8333333333334</ele><time>2026-05-01T16:29:12Z</time></trkpt><trkpt lat="43.11954469678228" lon="10.63471804805448"><ele>520.0</ele><time>2026-05-01T16:29:13Z</time></trkpt><trkpt lat="43.11962360100049" lon="10.634680036123406"><ele>520.0</ele><time>2026-05-01T16:29:14Z</time></trkpt><trkpt lat="43.11971448256865" lon="10.634659846666295"><ele>520.0</ele><time>2026-05-01T16:29:15Z</time></trkpt><trkpt lat="43.11980739479069" lon="10.634657692066911"><ele>520.0</ele><time>2026-05-01T16:29:16Z</time></trkpt><trkpt lat="43.11989834823744" lon="10.63464875808258"><ele>520.0</ele><time>2026-05-01T16:29:17Z</time></trkpt><trkpt lat="43.11996267422225" lon="10.634642912390088"><ele>520.0</ele><time>2026-05-01T16:29:18Z</time></trkpt><trkpt lat="43.12003504185598" lon="10.634603053507112"><ele>520.0</ele><time>2026-05-01T16:29:19Z</time></trkpt><trkpt lat="43.12011226748117" lon="10.634543915246134"><ele>520.4</ele><time>2026-05-01T16:29:20Z</time></trkpt><trkpt lat="43.120188600287435" lon="10.634493967155178"><ele>520.8</ele><time>2026-05-01T16:29:21Z</time></trkpt><trkpt lat="43.12026281426292" lon="10.634427587953313"><ele>521.2</ele><time>2026-05-01T16:29:22Z</time></trkpt><trkpt lat="43.12032962637798" lon="10.6343227160062"><ele>521.6</ele><time>2026-05-01T16:29:23Z</time></trkpt><trkpt lat="43.12040550994572" lon="10.63422802856415"><ele>522.0</ele><time>2026-05-01T16:29:24Z</time></trkpt><trkpt lat="43.12048199507829" lon="10.634157277338897"><ele>522.0</ele><time>2026-05-01T16:29:25Z</time></trkpt><trkpt lat="43.12056069718705" lon="10.634085291910374"><ele>522.0</ele><time>2026-05-01T16:29:26Z</time></trkpt><trkpt lat="43.12065990202552" lon="10.633997267903991"><ele>522.0</ele><time>2026-05-01T16:29:27Z</time></trkpt><trkpt lat="43.12075092990506" lon="10.633915993811357"><ele>522.0</ele><time>2026-05-01T16:29:28Z</time></trkpt><trkpt lat="43.12084452909709" lon="10.63384407842508"><ele>522.0</ele><time>2026-05-01T16:29:29Z</time></trkpt><trkpt lat="43.120929707937826" lon="10.633779473425689"><ele>521.2</ele><time>2026-05-01T16:29:30Z</time></trkpt><trkpt lat="43.121018099186124" lon="10.633738898812775"><ele>520.4000000000001</ele><time>2026-05-01T16:29:31Z</time></trkpt><trkpt lat="43.12110386679393" lon="10.633685467664797"><ele>519.5999999999999</ele><time>2026-05-01T16:29:32Z</time></trkpt><trkpt lat="43.12119604022133" lon="10.63363403143258"><ele>518.8</ele><time>2026-05-01T16:29:33Z</time></trkpt><trkpt lat="43.12126504602049" lon="10.63357174287916"><ele>518.0</ele><time>2026-05-01T16:29:34Z</time></trkpt><trkpt lat="43.12134121610311" lon="10.633502361481442"><ele>518.0</ele><time>2026-05-01T16:29:35Z</time></trkpt><trkpt lat="43.121430567736105" lon="10.63344114630075"><ele>518.0</ele><time>2026-05-01T16:29:36Z</time></trkpt><trkpt lat="43.12152874571076" lon="10.633377997896531"><ele>518.0</ele><time>2026-05-01T16:29:37Z</time></trkpt><trkpt lat="43.12161727442529" lon="10.633284538789983"><ele>518.0</ele><time>2026-05-01T16:29:38Z</time></trkpt><trkpt lat="43.12170793388972" lon="10.633219368377032"><ele>518.0</ele><time>2026-05-01T16:29:39Z</time></trkpt><trkpt lat="43.121808243040945" lon="10.633165830026869"><ele>519.0</ele><time>2026-05-01T16:29:40Z</time></trkpt><trkpt lat="43.12191599163778" lon="10.633108346765525"><ele>520.0</ele><time>2026-05-01T16:29:41Z</time></trkpt><trkpt lat="43.12201572180738" lon="10.633046681068265"><ele>521.0</ele><time>2026-05-01T16:29:42Z</time></trkpt><trkpt lat="43.122098667580005" lon="10.632985991694142"><ele>522.0</ele><time>2026-05-01T16:29:43Z</time></trkpt><trkpt lat="43.122177892063064" lon="10.632926394433811"><ele>523.0</ele><time>2026-05-01T16:29:44Z</time></trkpt><trkpt lat="43.12224539886303" lon="10.632890332789845"><ele>523.0</ele><time>2026-05-01T16:29:45Z</time></trkpt><trkpt lat="43.122304906774104" lon="10.632821845281786"><ele>523.0</ele><time>2026-05-01T16:29:46Z</time></trkpt><trkpt lat="43.122354583098996" lon="10.632743573699743"><ele>523.0</ele><time>2026-05-01T16:29:47Z</time></trkpt><trkpt lat="43.12241980962523" lon="10.632692222301333"><ele>523.0</ele><time>2026-05-01T16:29:48Z</time></trkpt><trkpt lat="43.12250417797307" lon="10.632657017897388"><ele>523.0</ele><time>2026-05-01T16:29:49Z</time></trkpt><trkpt lat="43.122602525187624" lon="10.632610610404367"><ele>523.0</ele><time>2026-05-01T16:29:50Z</time></trkpt><trkpt lat="43.1226767461409" lon="10.63253261815829"><ele>524.1999999999999</ele><time>2026-05-01T16:29:51Z</time></trkpt><trkpt lat="43.1227559498374" lon="10.632433754049819"><ele>525.4</ele><time>2026-05-01T16:29:52Z</time></trkpt><trkpt lat="43.12283580461671" lon="10.632378098173431"><ele>526.5999999999999</ele><time>2026-05-01T16:29:53Z</time></trkpt><trkpt lat="43.12291926262902" lon="10.632326267923553"><ele>527.8</ele><time>2026-05-01T16:29:54Z</time></trkpt><trkpt lat="43.12301924809682" lon="10.63229928084429"><ele>529.0</ele><time>2026-05-01T16:29:55Z</time></trkpt><trkpt lat="43.1231147454091" lon="10.63227874905756"><ele>527.6</ele><time>2026-05-01T16:29:56Z</time></trkpt><trkpt lat="43.12324059847068" lon="10.632275370969552"><ele>526.2</ele><time>2026-05-01T16:29:57Z</time></trkpt><trkpt lat="43.12335644892864" lon="10.632288427361905"><ele>524.8000000000001</ele><time>2026-05-01T16:29:58Z</time></trkpt><trkpt lat="43.123440419090365" lon="10.63229034240311"><ele>523.4</ele><time>2026-05-01T16:29:59Z</time></trkpt><trkpt lat="43.12351045884155" lon="10.632282544105058"><ele>522.0</ele><time>2026-05-01T16:30:00Z</time></trkpt><trkpt lat="43.12357311515039" lon="10.632261389615572"><ele>522.0</ele><time>2026-05-01T16:30:01Z</time></trkpt><trkpt lat="43.12364158876212" lon="10.63221240849527"><ele>522.0</ele><time>2026-05-01T16:30:02Z</time></trkpt><trkpt lat="43.123706750661064" lon="10.632157345972061"><ele>522.0</ele><time>2026-05-01T16:30:03Z</time></trkpt><trkpt lat="43.12381576867845" lon="10.63206491720853"><ele>522.0</ele><time>2026-05-01T16:30:05Z</time></trkpt><trkpt lat="43.123869223357694" lon="10.631991198031619"><ele>522.0</ele><time>2026-05-01T16:30:06Z</time></trkpt><trkpt lat="43.12393785095529" lon="10.63193563645657"><ele>522.0</ele><time>2026-05-01T16:30:07Z</time></trkpt><trkpt lat="43.12402309019999" lon="10.631872856836122"><ele>523.6</ele><time>2026-05-01T16:30:08Z</time></trkpt><trkpt lat="43.12411158114537" lon="10.631807071850831"><ele>525.2</ele><time>2026-05-01T16:30:09Z</time></trkpt><trkpt lat="43.124199602465694" lon="10.6317448374897"><ele>526.8</ele><time>2026-05-01T16:30:10Z</time></trkpt><trkpt lat="43.12428981204881" lon="10.631701873423346"><ele>528.4</ele><time>2026-05-01T16:30:11Z</time></trkpt><trkpt lat="43.12438218703884" lon="10.631654364512027"><ele>530.0</ele><time>2026-05-01T16:30:12Z</time></trkpt><trkpt lat="43.124466254490684" lon="10.63159811188725"><ele>530.0</ele><time>2026-05-01T16:30:13Z</time></trkpt><trkpt lat="43.12456306206541" lon="10.631541288334583"><ele>530.0</ele><time>2026-05-01T16:30:14Z</time></trkpt><trkpt lat="43.12465926882655" lon="10.631465597828921"><ele>530.0</ele><time>2026-05-01T16:30:15Z</time></trkpt><trkpt lat="43.124739173389194" lon="10.631414320941094"><ele>530.0</ele><time>2026-05-01T16:30:16Z</time></trkpt><trkpt lat="43.124812276710145" lon="10.631364993675772"><ele>530.0</ele><time>2026-05-01T16:30:17Z</time></trkpt><trkpt lat="43.12489067569398" lon="10.63131617116281"><ele>530.0</ele><time>2026-05-01T16:30:18Z</time></trkpt><trkpt lat="43.12497499323653" lon="10.631257196208603"><ele>530.0</ele><time>2026-05-01T16:30:19Z</time></trkpt><trkpt lat="43.125055337884355" lon="10.631202476715028"><ele>530.0</ele><time>2026-05-01T16:30:20Z</time></trkpt><trkpt lat="43.12513749014643" lon="10.631151888784345"><ele>530.0</ele><time>2026-05-01T16:30:21Z</time></trkpt><trkpt lat="43.12522259761808" lon="10.631092289077186"><ele>530.0</ele><time>2026-05-01T16:30:22Z</time></trkpt><trkpt lat="43.12528210347327" lon="10.631026569630688"><ele>530.0</ele><time>2026-05-01T16:30:23Z</time></trkpt><trkpt lat="43.125327658549324" lon="10.630957803385854"><ele>530.0</ele><time>2026-05-01T16:30:24Z</time></trkpt><trkpt lat="43.125377432388504" lon="10.630881951694324"><ele>530.0</ele><time>2026-05-01T16:30:25Z</time></trkpt><trkpt lat="43.12543467804239" lon="10.630826385989465"><ele>530.0</ele><time>2026-05-01T16:30:26Z</time></trkpt><trkpt lat="43.12551039539258" lon="10.63077869143979"><ele>530.0</ele><time>2026-05-01T16:30:27Z</time></trkpt><trkpt lat="43.12560510227761" lon="10.630710070858585"><ele>530.0</ele><time>2026-05-01T16:30:28Z</time></trkpt><trkpt lat="43.125682845971035" lon="10.630619450449334"><ele>530.0</ele><time>2026-05-01T16:30:29Z</time></trkpt><trkpt lat="43.125782693194296" lon="10.630500517907043"><ele>528.0</ele><time>2026-05-01T16:30:30Z</time></trkpt><trkpt lat="43.125865822849505" lon="10.630419608141757"><ele>526.0</ele><time>2026-05-01T16:30:31Z</time></trkpt><trkpt lat="43.125947845920415" lon="10.630342620393376"><ele>524.0</ele><time>2026-05-01T16:30:32Z</time></trkpt><trkpt lat="43.126027011384956" lon="10.630240670256198"><ele>522.0</ele><time>2026-05-01T16:30:33Z</time></trkpt><trkpt lat="43.12613635231384" lon="10.63011405246536"><ele>522.0</ele><time>2026-05-01T16:30:34Z</time></trkpt><trkpt lat="43.12622009142601" lon="10.63002377472478"><ele>522.0</ele><time>2026-05-01T16:30:35Z</time></trkpt><trkpt lat="43.126304135018785" lon="10.629923866697261"><ele>522.0</ele><time>2026-05-01T16:30:36Z</time></trkpt><trkpt lat="43.126373777108675" lon="10.629844397046387"><ele>522.0</ele><time>2026-05-01T16:30:37Z</time></trkpt><trkpt lat="43.12644380907063" lon="10.629747529823737"><ele>522.0</ele><time>2026-05-01T16:30:38Z</time></trkpt><trkpt lat="43.12650255196091" lon="10.629660015249101"><ele>522.0</ele><time>2026-05-01T16:30:39Z</time></trkpt><trkpt lat="43.126559250474195" lon="10.629544287541961"><ele>522.0</ele><time>2026-05-01T16:30:40Z</time></trkpt><trkpt lat="43.12661302539888" lon="10.629472830236846"><ele>522.0</ele><time>2026-05-01T16:30:41Z</time></trkpt><trkpt lat="43.12667009980677" lon="10.629393588296793"><ele>522.0</ele><time>2026-05-01T16:30:43Z</time></trkpt><trkpt lat="43.126682511712644" lon="10.629303191283483"><ele>522.0</ele><time>2026-05-01T16:30:45Z</time></trkpt><trkpt lat="43.12667081852721" lon="10.629156907919322"><ele>522.0</ele><time>2026-05-01T16:30:48Z</time></trkpt><trkpt lat="43.12666042417658" lon="10.629042440879807"><ele>522.2</ele><time>2026-05-01T16:30:49Z</time></trkpt><trkpt lat="43.126636221346864" lon="10.628901224756396"><ele>522.4000000000001</ele><time>2026-05-01T16:30:51Z</time></trkpt><trkpt lat="43.126636030500904" lon="10.628747962173748"><ele>522.5999999999999</ele><time>2026-05-01T16:30:53Z</time></trkpt><trkpt lat="43.12662029780502" lon="10.628595292626873"><ele>522.8</ele><time>2026-05-01T16:30:55Z</time></trkpt><trkpt lat="43.12659405676443" lon="10.628504776365247"><ele>523.0</ele><time>2026-05-01T16:30:56Z</time></trkpt><trkpt lat="43.12657474297115" lon="10.6283607610686"><ele>522.6666666666667</ele><time>2026-05-01T16:30:58Z</time></trkpt><trkpt lat="43.126520605906244" lon="10.62823763932094"><ele>522.3333333333334</ele><time>2026-05-01T16:31:00Z</time></trkpt><trkpt lat="43.126469706851495" lon="10.628093671226136"><ele>522.0</ele><time>2026-05-01T16:31:02Z</time></trkpt><trkpt lat="43.12642196750252" lon="10.628023131243017"><ele>521.6666666666666</ele><time>2026-05-01T16:31:03Z</time></trkpt><trkpt lat="43.126365052346756" lon="10.627946846092376"><ele>521.3333333333333</ele><time>2026-05-01T16:31:04Z</time></trkpt><trkpt lat="43.12631566673843" lon="10.627882391403444"><ele>521.0</ele><time>2026-05-01T16:31:05Z</time></trkpt><trkpt lat="43.12625858373081" lon="10.62777974582918"><ele>520.2</ele><time>2026-05-01T16:31:07Z</time></trkpt><trkpt lat="43.12616100778096" lon="10.627668005506548"><ele>519.4000000000001</ele><time>2026-05-01T16:31:09Z</time></trkpt><trkpt lat="43.126099354268675" lon="10.627612625470576"><ele>518.6</ele><time>2026-05-01T16:31:10Z</time></trkpt><trkpt lat="43.12605179188855" lon="10.627533412883668"><ele>517.8000000000001</ele><time>2026-05-01T16:31:12Z</time></trkpt><trkpt lat="43.12598910766768" lon="10.627425695629235"><ele>517.0</ele><time>2026-05-01T16:31:15Z</time></trkpt><trkpt lat="43.12594448187385" lon="10.62733348645728"><ele>517.0</ele><time>2026-05-01T16:31:17Z</time></trkpt><trkpt lat="43.125917912545226" lon="10.627237508829367"><ele>517.0</ele><time>2026-05-01T16:31:19Z</time></trkpt><trkpt lat="43.1258641986684" lon="10.627157815002542"><ele>517.0</ele><time>2026-05-01T16:31:21Z</time></trkpt><trkpt lat="43.12581335456066" lon="10.627035254626781"><ele>517.0</ele><time>2026-05-01T16:31:23Z</time></trkpt><trkpt lat="43.12576438537207" lon="10.62690376164141"><ele>517.0</ele><time>2026-05-01T16:31:25Z</time></trkpt><trkpt lat="43.12569162544122" lon="10.626752560973493"><ele>514.3333333333334</ele><time>2026-05-01T16:31:27Z</time></trkpt><trkpt lat="43.12562917368723" lon="10.626677188938272"><ele>511.6666666666667</ele><time>2026-05-01T16:31:28Z</time></trkpt><trkpt lat="43.12557376204723" lon="10.626607986370438"><ele>509.0</ele><time>2026-05-01T16:31:29Z</time></trkpt><trkpt lat="43.12552944969375" lon="10.62654569090959"><ele>506.33333333333337</ele><time>2026-05-01T16:31:30Z</time></trkpt><trkpt lat="43.12549709076727" lon="10.626464342614923"><ele>503.6666666666667</ele><time>2026-05-01T16:31:32Z</time></trkpt><trkpt lat="43.12545719003866" lon="10.62632523537314"><ele>501.0</ele><time>2026-05-01T16:31:34Z</time></trkpt><trkpt lat="43.12543304100909" lon="10.626228207103841"><ele>500.3333333333333</ele><time>2026-05-01T16:31:35Z</time></trkpt><trkpt lat="43.125419959395735" lon="10.626132655967135"><ele>499.66666666666663</ele><time>2026-05-01T16:31:36Z</time></trkpt><trkpt lat="43.12539932687355" lon="10.626046934312308"><ele>499.0</ele><time>2026-05-01T16:31:37Z</time></trkpt><trkpt lat="43.125378162173725" lon="10.625958927550476"><ele>498.3333333333333</ele><time>2026-05-01T16:31:38Z</time></trkpt><trkpt lat="43.12535731924435" lon="10.625864271939488"><ele>497.66666666666663</ele><time>2026-05-01T16:31:39Z</time></trkpt><trkpt lat="43.12530766411553" lon="10.625731897006265"><ele>497.0</ele><time>2026-05-01T16:31:41Z</time></trkpt><trkpt lat="43.125313788310436" lon="10.625621275743509"><ele>497.0</ele><time>2026-05-01T16:31:44Z</time></trkpt><trkpt lat="43.12528280526267" lon="10.625330234965467"><ele>497.0</ele><time>2026-05-01T16:31:47Z</time></trkpt><trkpt lat="43.12529895572898" lon="10.625230937519085"><ele>497.0</ele><time>2026-05-01T16:31:48Z</time></trkpt><trkpt lat="43.12534641494336" lon="10.62507898465625"><ele>497.0</ele><time>2026-05-01T16:31:50Z</time></trkpt><trkpt lat="43.12540946980521" lon="10.624932094521373"><ele>497.66666666666663</ele><time>2026-05-01T16:31:52Z</time></trkpt><trkpt lat="43.12545519793966" lon="10.624854245159367"><ele>498.3333333333333</ele><time>2026-05-01T16:31:53Z</time></trkpt><trkpt lat="43.12550681814387" lon="10.624795218457692"><ele>499.0</ele><time>2026-05-01T16:31:54Z</time></trkpt><trkpt lat="43.12554776728279" lon="10.624676197159644"><ele>499.66666666666663</ele><time>2026-05-01T16:31:57Z</time></trkpt><trkpt lat="43.125573790067584" lon="10.62455796029291"><ele>500.3333333333333</ele><time>2026-05-01T16:31:59Z</time></trkpt><trkpt lat="43.12560680692787" lon="10.624463258134286"><ele>501.0</ele><time>2026-05-01T16:32:01Z</time></trkpt><trkpt lat="43.12559872219195" lon="10.624298308254998"><ele>502.1666666666667</ele><time>2026-05-01T16:32:03Z</time></trkpt><trkpt lat="43.125595604090314" lon="10.624166459919246"><ele>503.33333333333337</ele><time>2026-05-01T16:32:05Z</time></trkpt><trkpt lat="43.12560302035798" lon="10.624080674127995"><ele>504.5</ele><time>2026-05-01T16:32:06Z</time></trkpt><trkpt lat="43.12560794200783" lon="10.623994624050473"><ele>505.6666666666667</ele><time>2026-05-01T16:32:07Z</time></trkpt><trkpt lat="43.12560874900645" lon="10.623840287040329"><ele>506.83333333333337</ele><time>2026-05-01T16:32:09Z</time></trkpt><trkpt lat="43.12558989324662" lon="10.623717628204433"><ele>508.0</ele><time>2026-05-01T16:32:11Z</time></trkpt><trkpt lat="43.125615152422625" lon="10.623622835256773"><ele>508.2</ele><time>2026-05-01T16:32:12Z</time></trkpt><trkpt lat="43.12565083282168" lon="10.623479086863643"><ele>508.4</ele><time>2026-05-01T16:32:14Z</time></trkpt><trkpt lat="43.125677100432235" lon="10.623385154081879"><ele>508.59999999999997</ele><time>2026-05-01T16:32:15Z</time></trkpt><trkpt lat="43.12570370422964" lon="10.62322144325062"><ele>508.79999999999995</ele><time>2026-05-01T16:32:17Z</time></trkpt><trkpt lat="43.12572951975288" lon="10.623111289638821"><ele>509.0</ele><time>2026-05-01T16:32:19Z</time></trkpt><trkpt lat="43.12575932150281" lon="10.623024394816685"><ele>506.3333333333333</ele><time>2026-05-01T16:32:22Z</time></trkpt><trkpt lat="43.12577577394574" lon="10.62290669015939"><ele>503.66666666666663</ele><time>2026-05-01T16:32:25Z</time></trkpt><trkpt lat="43.12578906762425" lon="10.622804721542625"><ele>501.0</ele><time>2026-05-01T16:32:27Z</time></trkpt><trkpt lat="43.12578883969912" lon="10.622703290533872"><ele>498.33333333333337</ele><time>2026-05-01T16:32:30Z</time></trkpt><trkpt lat="43.12579621081626" lon="10.62258851586447"><ele>495.6666666666667</ele><time>2026-05-01T16:32:33Z</time></trkpt><trkpt lat="43.12582070407242" lon="10.622472416951839"><ele>493.0</ele><time>2026-05-01T16:32:36Z</time></trkpt><trkpt lat="43.12581028212057" lon="10.622385747246948"><ele>493.00000000000006</ele><time>2026-05-01T16:33:37Z</time></trkpt><trkpt lat="43.12585573330792" lon="10.62232139851281"><ele>493.0</ele><time>2026-05-01T16:34:16Z</time></trkpt><trkpt lat="43.125850540311404" lon="10.622456043361815"><ele>493.0</ele><time>2026-05-01T16:34:20Z</time></trkpt><trkpt lat="43.12582709306219" lon="10.622612123797909"><ele>493.0</ele><time>2026-05-01T16:34:24Z</time></trkpt><trkpt lat="43.12580848721285" lon="10.622717067116334"><ele>493.00000000000006</ele><time>2026-05-01T16:34:26Z</time></trkpt><trkpt lat="43.12580383295824" lon="10.622834328168253"><ele>493.0</ele><time>2026-05-01T16:34:28Z</time></trkpt><trkpt lat="43.12576027004211" lon="10.622909060227695"><ele>496.2</ele><time>2026-05-01T16:34:30Z</time></trkpt><trkpt lat="43.12572680057667" lon="10.623057909968972"><ele>499.4</ele><time>2026-05-01T16:34:33Z</time></trkpt><trkpt lat="43.12568551993227" lon="10.623199409864286"><ele>502.59999999999997</ele><time>2026-05-01T16:34:35Z</time></trkpt><trkpt lat="43.125680432135944" lon="10.62330180467591"><ele>505.79999999999995</ele><time>2026-05-01T16:34:37Z</time></trkpt><trkpt lat="43.12565451354251" lon="10.623448863815234"><ele>509.0</ele><time>2026-05-01T16:34:39Z</time></trkpt><trkpt lat="43.125610800477055" lon="10.623568223362382"><ele>508.79999999999995</ele><time>2026-05-01T16:34:41Z</time></trkpt><trkpt lat="43.12560684661863" lon="10.62370433970578"><ele>508.59999999999997</ele><time>2026-05-01T16:34:43Z</time></trkpt><trkpt lat="43.12561530989797" lon="10.623864195332953"><ele>508.4</ele><time>2026-05-01T16:34:45Z</time></trkpt><trkpt lat="43.12563525506221" lon="10.623946832159284"><ele>508.2</ele><time>2026-05-01T16:34:46Z</time></trkpt><trkpt lat="43.1256218552451" lon="10.62403616691196"><ele>508.0</ele><time>2026-05-01T16:34:47Z</time></trkpt><trkpt lat="43.125629128924885" lon="10.624196385692509"><ele>508.0</ele><time>2026-05-01T16:34:49Z</time></trkpt><trkpt lat="43.125625181431296" lon="10.624299439475521"><ele>507.99999999999994</ele><time>2026-05-01T16:34:50Z</time></trkpt><trkpt lat="43.12560975529716" lon="10.62441405263751"><ele>507.99999999999994</ele><time>2026-05-01T16:34:51Z</time></trkpt><trkpt lat="43.12557874533489" lon="10.624555333133873"><ele>508.0</ele><time>2026-05-01T16:34:53Z</time></trkpt><trkpt lat="43.12555666543741" lon="10.624656901849765"><ele>508.0</ele><time>2026-05-01T16:34:55Z</time></trkpt><trkpt lat="43.12549022813072" lon="10.624773803325853"><ele>507.0</ele><time>2026-05-01T16:34:57Z</time></trkpt><trkpt lat="43.12545654815294" lon="10.624849959888298"><ele>506.0</ele><time>2026-05-01T16:34:58Z</time></trkpt><trkpt lat="43.12541177529492" lon="10.624928985441791"><ele>505.0</ele><time>2026-05-01T16:34:59Z</time></trkpt><trkpt lat="43.125379356880565" lon="10.625010855388856"><ele>504.0</ele><time>2026-05-01T16:35:00Z</time></trkpt><trkpt lat="43.12534091869002" lon="10.625083733679498"><ele>503.0</ele><time>2026-05-01T16:35:01Z</time></trkpt><trkpt lat="43.12531499385586" lon="10.625179298448444"><ele>502.0</ele><time>2026-05-01T16:35:04Z</time></trkpt><trkpt lat="43.12530582568709" lon="10.625280365713387"><ele>501.0</ele><time>2026-05-01T16:35:06Z</time></trkpt><trkpt lat="43.125301700673454" lon="10.625379452297182"><ele>500.3333333333333</ele><time>2026-05-01T16:35:07Z</time></trkpt><trkpt lat="43.12530779091242" lon="10.625472365358503"><ele>499.66666666666663</ele><time>2026-05-01T16:35:08Z</time></trkpt><trkpt lat="43.12529515034342" lon="10.625569551994575"><ele>499.0</ele><time>2026-05-01T16:35:31Z</time></trkpt><trkpt lat="43.12528723701616" lon="10.62565864327749"><ele>498.3333333333333</ele><time>2026-05-01T16:35:33Z</time></trkpt><trkpt lat="43.12530844646728" lon="10.625775551818991"><ele>497.66666666666663</ele><time>2026-05-01T16:35:35Z</time></trkpt><trkpt lat="43.12536523649795" lon="10.625929789417125"><ele>497.0</ele><time>2026-05-01T16:35:37Z</time></trkpt><trkpt lat="43.12537817067927" lon="10.626030189290875"><ele>497.0</ele><time>2026-05-01T16:35:38Z</time></trkpt><trkpt lat="43.12539697563765" lon="10.626143389126517"><ele>497.00000000000006</ele><time>2026-05-01T16:35:39Z</time></trkpt><trkpt lat="43.12541529035726" lon="10.6262350123871"><ele>497.00000000000006</ele><time>2026-05-01T16:35:40Z</time></trkpt><trkpt lat="43.12543883159453" lon="10.626326987678377"><ele>497.0</ele><time>2026-05-01T16:35:41Z</time></trkpt><trkpt lat="43.125504566249" lon="10.626487867299007"><ele>497.0</ele><time>2026-05-01T16:35:43Z</time></trkpt><trkpt lat="43.125588148374575" lon="10.626612899301824"><ele>497.66666666666663</ele><time>2026-05-01T16:35:45Z</time></trkpt><trkpt lat="43.125652822994454" lon="10.626688838583002"><ele>498.3333333333333</ele><time>2026-05-01T16:35:46Z</time></trkpt><trkpt lat="43.12570697612386" lon="10.626757527512105"><ele>499.0</ele><time>2026-05-01T16:35:47Z</time></trkpt><trkpt lat="43.1257674675167" lon="10.626884939619206"><ele>499.66666666666663</ele><time>2026-05-01T16:35:49Z</time></trkpt><trkpt lat="43.125806595195364" lon="10.626975564285097"><ele>500.3333333333333</ele><time>2026-05-01T16:35:50Z</time></trkpt><trkpt lat="43.12583583315488" lon="10.627058802758853"><ele>501.0</ele><time>2026-05-01T16:35:51Z</time></trkpt><trkpt lat="43.12587783955523" lon="10.627155178121981"><ele>503.6666666666667</ele><time>2026-05-01T16:35:53Z</time></trkpt><trkpt lat="43.12593354011622" lon="10.62724693051585"><ele>506.33333333333337</ele><time>2026-05-01T16:35:55Z</time></trkpt><trkpt lat="43.12596410038147" lon="10.627344060949424"><ele>509.0</ele><time>2026-05-01T16:35:58Z</time></trkpt><trkpt lat="43.12602351669316" lon="10.627438610397434"><ele>511.6666666666667</ele><time>2026-05-01T16:36:01Z</time></trkpt><trkpt lat="43.126078390603354" lon="10.62754877139839"><ele>514.3333333333334</ele><time>2026-05-01T16:36:02Z</time></trkpt><trkpt lat="43.126142604545144" lon="10.627623528681402"><ele>517.0</ele><time>2026-05-01T16:36:03Z</time></trkpt><trkpt lat="43.12619730982386" lon="10.627680138795661"><ele>517.0</ele><time>2026-05-01T16:36:04Z</time></trkpt><trkpt lat="43.12624767624046" lon="10.627748204023678"><ele>517.0</ele><time>2026-05-01T16:36:05Z</time></trkpt><trkpt lat="43.12631053454533" lon="10.627874566732011"><ele>517.0</ele><time>2026-05-01T16:36:07Z</time></trkpt><trkpt lat="43.12639891566168" lon="10.62797885042319"><ele>517.0</ele><time>2026-05-01T16:36:09Z</time></trkpt><trkpt lat="43.12643693812965" lon="10.628054506855857"><ele>517.0</ele><time>2026-05-01T16:36:10Z</time></trkpt><trkpt lat="43.12649210610843" lon="10.628191632990776"><ele>517.8000000000001</ele><time>2026-05-01T16:36:12Z</time></trkpt><trkpt lat="43.12654634729269" lon="10.62832268900478"><ele>518.6</ele><time>2026-05-01T16:36:14Z</time></trkpt><trkpt lat="43.12656485486664" lon="10.628406820348767"><ele>519.4000000000001</ele><time>2026-05-01T16:36:15Z</time></trkpt><trkpt lat="43.126580179778294" lon="10.628515052604843"><ele>520.2</ele><time>2026-05-01T16:36:16Z</time></trkpt><trkpt lat="43.12659064600264" lon="10.628630400109776"><ele>521.0</ele><time>2026-05-01T16:36:17Z</time></trkpt><trkpt lat="43.12663912801219" lon="10.628788349066575"><ele>521.8</ele><time>2026-05-01T16:36:19Z</time></trkpt><trkpt lat="43.126644699804295" lon="10.628972502520158"><ele>522.6</ele><time>2026-05-01T16:36:21Z</time></trkpt><trkpt lat="43.12666245738515" lon="10.629104953563543"><ele>523.4</ele><time>2026-05-01T16:36:23Z</time></trkpt><trkpt lat="43.12667428989445" lon="10.629203665880501"><ele>524.2</ele><time>2026-05-01T16:36:24Z</time></trkpt><trkpt lat="43.126652471753474" lon="10.629308103087855"><ele>525.0</ele><time>2026-05-01T16:36:28Z</time></trkpt><trkpt lat="43.12667118967058" lon="10.629210469106111"><ele>525.0</ele><time>2026-05-01T16:39:46Z</time></trkpt><trkpt lat="43.12666474776595" lon="10.629088188985612"><ele>525.0</ele><time>2026-05-01T16:39:51Z</time></trkpt><trkpt lat="43.126641066775136" lon="10.628932548602792"><ele>525.0</ele><time>2026-05-01T16:39:53Z</time></trkpt><trkpt lat="43.12664082325446" lon="10.628812586841665"><ele>525.0</ele><time>2026-05-01T16:39:55Z</time></trkpt><trkpt lat="43.12662548237069" lon="10.628671759120355"><ele>525.0</ele><time>2026-05-01T16:39:57Z</time></trkpt><trkpt lat="43.12658526538956" lon="10.62850266227552"><ele>524.6</ele><time>2026-05-01T16:39:59Z</time></trkpt><trkpt lat="43.12656728589296" lon="10.628352417888603"><ele>524.2</ele><time>2026-05-01T16:40:01Z</time></trkpt><trkpt lat="43.12651580623799" lon="10.628226317578937"><ele>523.8</ele><time>2026-05-01T16:40:03Z</time></trkpt><trkpt lat="43.126466444016586" lon="10.628101844995212"><ele>523.4</ele><time>2026-05-01T16:40:05Z</time></trkpt><trkpt lat="43.126434117578675" lon="10.628024959365016"><ele>523.0</ele><time>2026-05-01T16:40:06Z</time></trkpt><trkpt lat="43.12636472786053" lon="10.627926078598295"><ele>522.6666666666667</ele><time>2026-05-01T16:40:08Z</time></trkpt><trkpt lat="43.1263222159089" lon="10.627858671318698"><ele>522.3333333333334</ele><time>2026-05-01T16:40:11Z</time></trkpt><trkpt lat="43.12627843772464" lon="10.627762635153982"><ele>522.0</ele><time>2026-05-01T16:40:14Z</time></trkpt><trkpt lat="43.126192989680916" lon="10.627671397582183"><ele>521.6666666666666</ele><time>2026-05-01T16:40:16Z</time></trkpt><trkpt lat="43.12613109625644" lon="10.627607056661446"><ele>521.3333333333333</ele><time>2026-05-01T16:40:18Z</time></trkpt><trkpt lat="43.12609208433111" lon="10.627537415097908"><ele>521.0</ele><time>2026-05-01T16:40:20Z</time></trkpt><trkpt lat="43.12604361781184" lon="10.627452518207512"><ele>520.3333333333333</ele><time>2026-05-01T16:40:23Z</time></trkpt><trkpt lat="43.126003547880586" lon="10.627384514375281"><ele>519.6666666666666</ele><time>2026-05-01T16:40:25Z</time></trkpt><trkpt lat="43.12596901322862" lon="10.627292222028435"><ele>519.0</ele><time>2026-05-01T16:40:27Z</time></trkpt><trkpt lat="43.12592427142475" lon="10.62720745328083"><ele>518.3333333333334</ele><time>2026-05-01T16:40:29Z</time></trkpt><trkpt lat="43.12585490487528" lon="10.627111933934074"><ele>517.6666666666667</ele><time>2026-05-01T16:40:31Z</time></trkpt><trkpt lat="43.125813605772" lon="10.626988458487707"><ele>517.0</ele><time>2026-05-01T16:40:33Z</time></trkpt><trkpt lat="43.12576244133871" lon="10.626853580691963"><ele>514.3333333333334</ele><time>2026-05-01T16:40:35Z</time></trkpt><trkpt lat="43.12569590340947" lon="10.62674841017577"><ele>511.6666666666667</ele><time>2026-05-01T16:40:37Z</time></trkpt><trkpt lat="43.12564587620361" lon="10.626679188983688"><ele>509.0</ele><time>2026-05-01T16:40:38Z</time></trkpt><trkpt lat="43.1255865570319" lon="10.626609083793168"><ele>506.33333333333337</ele><time>2026-05-01T16:40:39Z</time></trkpt><trkpt lat="43.125534961543345" lon="10.626551333556653"><ele>503.6666666666667</ele><time>2026-05-01T16:40:40Z</time></trkpt><trkpt lat="43.12551209796977" lon="10.62643982747497"><ele>501.0</ele><time>2026-05-01T16:40:42Z</time></trkpt><trkpt lat="43.12548598778536" lon="10.626352501981772"><ele>501.0</ele><time>2026-05-01T16:40:43Z</time></trkpt><trkpt lat="43.12545898319128" lon="10.626259704415926"><ele>501.0</ele><time>2026-05-01T16:40:44Z</time></trkpt><trkpt lat="43.12543563843497" lon="10.626161691429639"><ele>501.0</ele><time>2026-05-01T16:40:45Z</time></trkpt><trkpt lat="43.12542114230042" lon="10.626060967505975"><ele>501.0</ele><time>2026-05-01T16:40:46Z</time></trkpt><trkpt lat="43.12539996940392" lon="10.625949839445472"><ele>501.0</ele><time>2026-05-01T16:40:47Z</time></trkpt><trkpt lat="43.125365266375375" lon="10.62584276240771"><ele>501.0</ele><time>2026-05-01T16:40:48Z</time></trkpt><trkpt lat="43.12531348870177" lon="10.625725096816247"><ele>501.0</ele><time>2026-05-01T16:40:50Z</time></trkpt><trkpt lat="43.125319154046" lon="10.625623372736984"><ele>501.0</ele><time>2026-05-01T16:40:53Z</time></trkpt><trkpt lat="43.12531188722452" lon="10.62550711270796"><ele>501.0</ele><time>2026-05-01T16:40:55Z</time></trkpt><trkpt lat="43.12529869324721" lon="10.625417378620822"><ele>501.0</ele><time>2026-05-01T16:40:56Z</time></trkpt><trkpt lat="43.12531633826019" lon="10.625305107935208"><ele>501.0</ele><time>2026-05-01T16:40:57Z</time></trkpt><trkpt lat="43.12533888710144" lon="10.625166648731671"><ele>501.0</ele><time>2026-05-01T16:40:59Z</time></trkpt><trkpt lat="43.12540214277704" lon="10.625009242931592"><ele>501.0</ele><time>2026-05-01T16:41:01Z</time></trkpt><trkpt lat="43.125441930896784" lon="10.624935461129791"><ele>501.0</ele><time>2026-05-01T16:41:02Z</time></trkpt><trkpt lat="43.12550817638363" lon="10.624847264880447"><ele>501.0</ele><time>2026-05-01T16:41:05Z</time></trkpt><trkpt lat="43.12554373842679" lon="10.62474839520532"><ele>501.0</ele><time>2026-05-01T16:41:07Z</time></trkpt><trkpt lat="43.12556886014336" lon="10.624656825483846"><ele>501.0</ele><time>2026-05-01T16:41:09Z</time></trkpt><trkpt lat="43.12559666997134" lon="10.62451768281084"><ele>501.0</ele><time>2026-05-01T16:41:12Z</time></trkpt><trkpt lat="43.12560147696058" lon="10.624426521293362"><ele>502.4</ele><time>2026-05-01T16:41:13Z</time></trkpt><trkpt lat="43.12560240171697" lon="10.624332664336384"><ele>503.8</ele><time>2026-05-01T16:41:14Z</time></trkpt><trkpt lat="43.12560614427608" lon="10.624215124436175"><ele>505.19999999999993</ele><time>2026-05-01T16:41:16Z</time></trkpt><trkpt lat="43.12560698232547" lon="10.624063931622425"><ele>506.59999999999997</ele><time>2026-05-01T16:41:18Z</time></trkpt><trkpt lat="43.1256314586025" lon="10.623884515240015"><ele>508.0</ele><time>2026-05-01T16:41:20Z</time></trkpt><trkpt lat="43.125624181718386" lon="10.62379047350025"><ele>508.00000000000006</ele><time>2026-05-01T16:41:21Z</time></trkpt><trkpt lat="43.125606710730665" lon="10.623667138189184"><ele>508.0</ele><time>2026-05-01T16:41:23Z</time></trkpt><trkpt lat="43.12565304325719" lon="10.623536604548354"><ele>508.0</ele><time>2026-05-01T16:41:25Z</time></trkpt><trkpt lat="43.12567189399028" lon="10.623431541948548"><ele>508.0</ele><time>2026-05-01T16:41:26Z</time></trkpt><trkpt lat="43.12569638056248" lon="10.623316562210183"><ele>508.00000000000006</ele><time>2026-05-01T16:41:28Z</time></trkpt><trkpt lat="43.12570369752404" lon="10.623215137449426"><ele>508.0</ele><time>2026-05-01T16:41:30Z</time></trkpt><trkpt lat="43.12572980800798" lon="10.623125687677195"><ele>505.50000000000006</ele><time>2026-05-01T16:41:32Z</time></trkpt><trkpt lat="43.1257676930471" lon="10.6230398660013"><ele>503.0</ele><time>2026-05-01T16:41:34Z</time></trkpt><trkpt lat="43.12579182022531" lon="10.622900123237413"><ele>500.5</ele><time>2026-05-01T16:41:39Z</time></trkpt><trkpt lat="43.125803624362895" lon="10.622796037850682"><ele>498.0</ele><time>2026-05-01T16:41:41Z</time></trkpt><trkpt lat="43.12581136519082" lon="10.62269185438575"><ele>495.50000000000006</ele><time>2026-05-01T16:41:43Z</time></trkpt><trkpt lat="43.125826006707236" lon="10.622595349240761"><ele>493.0</ele><time>2026-05-01T16:41:45Z</time></trkpt><trkpt lat="43.1258127302468" lon="10.622470058380186"><ele>492.1666666666667</ele><time>2026-05-01T16:41:47Z</time></trkpt><trkpt lat="43.12581513044716" lon="10.622368652613153"><ele>491.33333333333337</ele><time>2026-05-01T16:41:49Z</time></trkpt><trkpt lat="43.125806800872404" lon="10.622265131001015"><ele>490.5</ele><time>2026-05-01T16:41:53Z</time></trkpt><trkpt lat="43.12580848492068" lon="10.62213282454462"><ele>489.66666666666663</ele><time>2026-05-01T16:41:56Z</time></trkpt><trkpt lat="43.12583825709746" lon="10.62204084996076"><ele>488.8333333333333</ele><time>2026-05-01T16:41:59Z</time></trkpt><trkpt lat="43.125847512185345" lon="10.621952720872219"><ele>488.0</ele><time>2026-05-01T16:42:02Z</time></trkpt><trkpt lat="43.12586054654925" lon="10.621851233967611"><ele>486.49999999999994</ele><time>2026-05-01T16:42:05Z</time></trkpt><trkpt lat="43.125869049890326" lon="10.621721182212019"><ele>485.0</ele><time>2026-05-01T16:42:08Z</time></trkpt><trkpt lat="43.12588810981327" lon="10.62163587693342"><ele>483.5</ele><time>2026-05-01T16:42:10Z</time></trkpt><trkpt lat="43.12589950807916" lon="10.621517821717216"><ele>482.0</ele><time>2026-05-01T16:42:13Z</time></trkpt><trkpt lat="43.125927333016016" lon="10.621404416570424"><ele>480.49999999999994</ele><time>2026-05-01T16:42:16Z</time></trkpt><trkpt lat="43.1259632773224" lon="10.621331173853966"><ele>479.0</ele><time>2026-05-01T16:42:20Z</time></trkpt><trkpt lat="43.12596891815713" lon="10.621240460966181"><ele>478.99999999999994</ele><time>2026-05-01T16:42:28Z</time></trkpt><trkpt lat="43.126045023161005" lon="10.621243019636529"><ele>479.0</ele><time>2026-05-01T16:42:58Z</time></trkpt><trkpt lat="43.12611017308921" lon="10.621282122284477"><ele>479.0</ele><time>2026-05-01T16:43:00Z</time></trkpt><trkpt lat="43.12616903878878" lon="10.621336353381341"><ele>479.0</ele><time>2026-05-01T16:43:02Z</time></trkpt><trkpt lat="43.12623405169761" lon="10.621412893659398"><ele>478.99999999999994</ele><time>2026-05-01T16:43:05Z</time></trkpt><trkpt lat="43.12630930342011" lon="10.621507738349491"><ele>479.0</ele><time>2026-05-01T16:43:07Z</time></trkpt><trkpt lat="43.126385523614424" lon="10.62157626250739"><ele>478.99999999999994</ele><time>2026-05-01T16:43:09Z</time></trkpt><trkpt lat="43.12646480687774" lon="10.621645764511213"><ele>479.0</ele><time>2026-05-01T16:43:11Z</time></trkpt><trkpt lat="43.126523595205875" lon="10.621693629760255"><ele>479.0</ele><time>2026-05-01T16:43:13Z</time></trkpt><trkpt lat="43.126555613749964" lon="10.621790874917494"><ele>479.0</ele><time>2026-05-01T16:43:15Z</time></trkpt><trkpt lat="43.126586118813" lon="10.621883370684708"><ele>478.99999999999994</ele><time>2026-05-01T16:43:17Z</time></trkpt><trkpt lat="43.12663926179821" lon="10.621991672589216"><ele>479.0</ele><time>2026-05-01T16:43:20Z</time></trkpt><trkpt lat="43.12667104877527" lon="10.62207843343539"><ele>474.79999999999995</ele><time>2026-05-01T16:43:22Z</time></trkpt><trkpt lat="43.12671666752994" lon="10.622205555735711"><ele>470.59999999999997</ele><time>2026-05-01T16:43:24Z</time></trkpt><trkpt lat="43.12678383588883" lon="10.622333610556588"><ele>466.4</ele><time>2026-05-01T16:43:26Z</time></trkpt><trkpt lat="43.12683427096188" lon="10.622407195165597"><ele>462.2</ele><time>2026-05-01T16:43:28Z</time></trkpt><trkpt lat="43.126907464538135" lon="10.622457269445864"><ele>458.0</ele><time>2026-05-01T16:43:30Z</time></trkpt><trkpt lat="43.126986591234036" lon="10.622498979617435"><ele>458.0</ele><time>2026-05-01T16:43:33Z</time></trkpt><trkpt lat="43.12711789306616" lon="10.62260889393306"><ele>457.99999999999994</ele><time>2026-05-01T16:43:35Z</time></trkpt><trkpt lat="43.12719246764586" lon="10.622659827576276"><ele>457.99999999999994</ele><time>2026-05-01T16:43:37Z</time></trkpt><trkpt lat="43.12726938927946" lon="10.62269734262888"><ele>458.0</ele><time>2026-05-01T16:43:39Z</time></trkpt><trkpt lat="43.127351523237294" lon="10.62273537390371"><ele>458.0</ele><time>2026-05-01T16:43:42Z</time></trkpt><trkpt lat="43.12742396793664" lon="10.62278824057339"><ele>457.3333333333333</ele><time>2026-05-01T16:43:45Z</time></trkpt><trkpt lat="43.1274044683455" lon="10.622913276662795"><ele>456.66666666666663</ele><time>2026-05-01T16:43:48Z</time></trkpt><trkpt lat="43.12734432567994" lon="10.62296904194722"><ele>456.0</ele><time>2026-05-01T16:43:50Z</time></trkpt><trkpt lat="43.12729177135542" lon="10.623053301198537"><ele>455.33333333333337</ele><time>2026-05-01T16:43:53Z</time></trkpt><trkpt lat="43.127291122324465" lon="10.623142420228913"><ele>454.6666666666667</ele><time>2026-05-01T16:43:55Z</time></trkpt><trkpt lat="43.12732681075009" lon="10.623247662789932"><ele>454.0</ele><time>2026-05-01T16:43:58Z</time></trkpt><trkpt lat="43.12727045294935" lon="10.623323490902989"><ele>454.00000000000006</ele><time>2026-05-01T16:44:00Z</time></trkpt><trkpt lat="43.127243823385626" lon="10.623436488836942"><ele>454.0</ele><time>2026-05-01T16:44:02Z</time></trkpt><trkpt lat="43.12720742707283" lon="10.623525381932533"><ele>454.0</ele><time>2026-05-01T16:44:04Z</time></trkpt><trkpt lat="43.127180510473444" lon="10.623625400480158"><ele>454.0</ele><time>2026-05-01T16:44:06Z</time></trkpt><trkpt lat="43.1271540764683" lon="10.623714097175807"><ele>454.00000000000006</ele><time>2026-05-01T16:44:08Z</time></trkpt><trkpt lat="43.127143774538425" lon="10.623810643549252"><ele>454.0</ele><time>2026-05-01T16:44:11Z</time></trkpt><trkpt lat="43.12716407600303" lon="10.623907565694907"><ele>453.00000000000006</ele><time>2026-05-01T16:44:14Z</time></trkpt><trkpt lat="43.12719610608363" lon="10.62400433426973"><ele>452.0</ele><time>2026-05-01T16:44:16Z</time></trkpt><trkpt lat="43.127289507363244" lon="10.624016439573689"><ele>451.0</ele><time>2026-05-01T16:44:19Z</time></trkpt><trkpt lat="43.1273629531038" lon="10.624040765905482"><ele>450.0</ele><time>2026-05-01T16:44:21Z</time></trkpt><trkpt lat="43.12745611114941" lon="10.624058995691438"><ele>449.00000000000006</ele><time>2026-05-01T16:44:23Z</time></trkpt><trkpt lat="43.12755691713876" lon="10.624113435965455"><ele>448.0</ele><time>2026-05-01T16:44:25Z</time></trkpt><trkpt lat="43.12766859441702" lon="10.624174612865295"><ele>445.1666666666667</ele><time>2026-05-01T16:44:27Z</time></trkpt><trkpt lat="43.12778628702483" lon="10.624213576895178"><ele>442.33333333333337</ele><time>2026-05-01T16:44:29Z</time></trkpt><trkpt lat="43.127856827105866" lon="10.624248360814276"><ele>439.5</ele><time>2026-05-01T16:44:30Z</time></trkpt><trkpt lat="43.12792816963208" lon="10.624299087129963"><ele>436.66666666666663</ele><time>2026-05-01T16:44:31Z</time></trkpt><trkpt lat="43.12801594061029" lon="10.6243482675032"><ele>433.8333333333333</ele><time>2026-05-01T16:44:33Z</time></trkpt><trkpt lat="43.128077786019" lon="10.624379971803473"><ele>431.0</ele><time>2026-05-01T16:44:34Z</time></trkpt><trkpt lat="43.12814551113627" lon="10.624394572491331"><ele>432.8</ele><time>2026-05-01T16:44:35Z</time></trkpt><trkpt lat="43.12826262223458" lon="10.624449039043414"><ele>434.6</ele><time>2026-05-01T16:44:37Z</time></trkpt><trkpt lat="43.12833218451032" lon="10.624479074505858"><ele>436.4</ele><time>2026-05-01T16:44:39Z</time></trkpt><trkpt lat="43.12840284885724" lon="10.624569912584871"><ele>438.2</ele><time>2026-05-01T16:44:41Z</time></trkpt><trkpt lat="43.12845418696074" lon="10.624698144910786"><ele>440.0</ele><time>2026-05-01T16:44:43Z</time></trkpt><trkpt lat="43.128503431874755" lon="10.624777788056111"><ele>440.0</ele><time>2026-05-01T16:44:45Z</time></trkpt><trkpt lat="43.1285671867052" lon="10.624794712704016"><ele>440.0</ele><time>2026-05-01T16:44:46Z</time></trkpt><trkpt lat="43.128674200110396" lon="10.624743803612017"><ele>440.0</ele><time>2026-05-01T16:44:48Z</time></trkpt><trkpt lat="43.12873331293332" lon="10.62470560763958"><ele>440.0</ele><time>2026-05-01T16:44:50Z</time></trkpt><trkpt lat="43.12885304306384" lon="10.624774119705528"><ele>440.0</ele><time>2026-05-01T16:44:52Z</time></trkpt><trkpt lat="43.128916851746766" lon="10.624889461839368"><ele>440.0</ele><time>2026-05-01T16:44:54Z</time></trkpt><trkpt lat="43.129034517536056" lon="10.62500231775515"><ele>440.0</ele><time>2026-05-01T16:44:56Z</time></trkpt><trkpt lat="43.129124991110146" lon="10.625067062239525"><ele>440.0</ele><time>2026-05-01T16:44:57Z</time></trkpt><trkpt lat="43.129207738493534" lon="10.625144653604028"><ele>440.0</ele><time>2026-05-01T16:44:58Z</time></trkpt><trkpt lat="43.12928902036858" lon="10.625210769489344"><ele>440.0</ele><time>2026-05-01T16:44:59Z</time></trkpt><trkpt lat="43.12936201427116" lon="10.625254136318238"><ele>441.2</ele><time>2026-05-01T16:45:00Z</time></trkpt><trkpt lat="43.129439684598104" lon="10.625307826159478"><ele>442.4</ele><time>2026-05-01T16:45:01Z</time></trkpt><trkpt lat="43.12951376225499" lon="10.625340738849589"><ele>443.6</ele><time>2026-05-01T16:45:02Z</time></trkpt><trkpt lat="43.12959023843677" lon="10.625368133302066"><ele>444.8</ele><time>2026-05-01T16:45:03Z</time></trkpt><trkpt lat="43.129698570796045" lon="10.625431291512509"><ele>446.0</ele><time>2026-05-01T16:45:05Z</time></trkpt><trkpt lat="43.12979113723411" lon="10.62547028068986"><ele>445.99999999999994</ele><time>2026-05-01T16:45:06Z</time></trkpt><trkpt lat="43.12986231697539" lon="10.625519902135975"><ele>446.0</ele><time>2026-05-01T16:45:07Z</time></trkpt><trkpt lat="43.12993701477244" lon="10.625592136015069"><ele>446.0</ele><time>2026-05-01T16:45:08Z</time></trkpt><trkpt lat="43.12998200028594" lon="10.625656325204803"><ele>446.0</ele><time>2026-05-01T16:45:09Z</time></trkpt><trkpt lat="43.130071907516026" lon="10.625752670416245"><ele>445.99999999999994</ele><time>2026-05-01T16:45:11Z</time></trkpt><trkpt lat="43.13013912512247" lon="10.625829224321242"><ele>446.0</ele><time>2026-05-01T16:45:13Z</time></trkpt><trkpt lat="43.130183274011586" lon="10.625944513000428"><ele>443.99999999999994</ele><time>2026-05-01T16:45:15Z</time></trkpt><trkpt lat="43.130225044243865" lon="10.626013034397856"><ele>442.0</ele><time>2026-05-01T16:45:17Z</time></trkpt><trkpt lat="43.130236090477794" lon="10.626158537968074"><ele>440.0</ele><time>2026-05-01T16:45:19Z</time></trkpt><trkpt lat="43.13021844812123" lon="10.62624421601615"><ele>438.0</ele><time>2026-05-01T16:45:21Z</time></trkpt><trkpt lat="43.13019268105031" lon="10.626348811219755"><ele>435.99999999999994</ele><time>2026-05-01T16:45:22Z</time></trkpt><trkpt lat="43.130181596348855" lon="10.626469398257408"><ele>434.0</ele><time>2026-05-01T16:45:23Z</time></trkpt><trkpt lat="43.13017470126737" lon="10.626622089873685"><ele>433.99999999999994</ele><time>2026-05-01T16:45:25Z</time></trkpt><trkpt lat="43.130196849352686" lon="10.62677374748889"><ele>434.0</ele><time>2026-05-01T16:45:27Z</time></trkpt><trkpt lat="43.1302585723735" lon="10.626887007149238"><ele>434.0</ele><time>2026-05-01T16:45:29Z</time></trkpt><trkpt lat="43.130291034140676" lon="10.62699797807388"><ele>434.0</ele><time>2026-05-01T16:45:31Z</time></trkpt><trkpt lat="43.130349404728804" lon="10.627033426436986"><ele>433.99999999999994</ele><time>2026-05-01T16:45:33Z</time></trkpt><trkpt lat="43.13041815396668" lon="10.626998918546374"><ele>434.0</ele><time>2026-05-01T16:45:36Z</time></trkpt><trkpt lat="43.13048655872542" lon="10.626952511793386"><ele>434.0</ele><time>2026-05-01T16:45:37Z</time></trkpt><trkpt lat="43.130536058822855" lon="10.626889765518204"><ele>434.0</ele><time>2026-05-01T16:45:38Z</time></trkpt><trkpt lat="43.130621865021155" lon="10.626761325187076"><ele>434.0</ele><time>2026-05-01T16:45:40Z</time></trkpt><trkpt lat="43.13071277370647" lon="10.626700568360453"><ele>434.0</ele><time>2026-05-01T16:45:42Z</time></trkpt><trkpt lat="43.130812830371596" lon="10.626647471535586"><ele>434.0</ele><time>2026-05-01T16:45:44Z</time></trkpt><trkpt lat="43.130889653772954" lon="10.626616828782279"><ele>430.79999999999995</ele><time>2026-05-01T16:45:46Z</time></trkpt><trkpt lat="43.13095548171273" lon="10.626621890121669"><ele>427.59999999999997</ele><time>2026-05-01T16:45:49Z</time></trkpt><trkpt lat="43.131025850065285" lon="10.626536799630845"><ele>424.4</ele><time>2026-05-01T16:45:52Z</time></trkpt><trkpt lat="43.13105986903316" lon="10.626436749355534"><ele>421.2</ele><time>2026-05-01T16:45:54Z</time></trkpt><trkpt lat="43.131122023481794" lon="10.626267010778848"><ele>418.0</ele><time>2026-05-01T16:45:56Z</time></trkpt><trkpt lat="43.131167285279496" lon="10.626125230282218"><ele>418.0</ele><time>2026-05-01T16:45:58Z</time></trkpt><trkpt lat="43.13120582350539" lon="10.625971477043066"><ele>418.0</ele><time>2026-05-01T16:46:00Z</time></trkpt><trkpt lat="43.13122922945252" lon="10.625850566467163"><ele>418.0</ele><time>2026-05-01T16:46:01Z</time></trkpt><trkpt lat="43.13126147841906" lon="10.62575792684577"><ele>418.0</ele><time>2026-05-01T16:46:03Z</time></trkpt><trkpt lat="43.13127510488916" lon="10.625636308533775"><ele>418.0</ele><time>2026-05-01T16:46:05Z</time></trkpt><trkpt lat="43.131293486291085" lon="10.625496956368545"><ele>418.0</ele><time>2026-05-01T16:46:07Z</time></trkpt><trkpt lat="43.13131736386523" lon="10.6253636506139"><ele>418.0</ele><time>2026-05-01T16:46:09Z</time></trkpt><trkpt lat="43.13134051989643" lon="10.625193024973134"><ele>418.0</ele><time>2026-05-01T16:46:11Z</time></trkpt><trkpt lat="43.131354402795665" lon="10.625036502364665"><ele>418.0</ele><time>2026-05-01T16:46:13Z</time></trkpt><trkpt lat="43.13137506519325" lon="10.624859299473615"><ele>417.1666666666667</ele><time>2026-05-01T16:46:15Z</time></trkpt><trkpt lat="43.131392221265635" lon="10.624700668018207"><ele>416.33333333333337</ele><time>2026-05-01T16:46:17Z</time></trkpt><trkpt lat="43.1314321885701" lon="10.624627899723647"><ele>415.5</ele><time>2026-05-01T16:46:18Z</time></trkpt><trkpt lat="43.13148053003449" lon="10.624542512767924"><ele>414.66666666666663</ele><time>2026-05-01T16:46:19Z</time></trkpt><trkpt lat="43.131552085995565" lon="10.624442368717306"><ele>413.8333333333333</ele><time>2026-05-01T16:46:21Z</time></trkpt><trkpt lat="43.13158177520007" lon="10.624346217460127"><ele>413.0</ele><time>2026-05-01T16:46:23Z</time></trkpt><trkpt lat="43.131611963522566" lon="10.624208167731746"><ele>408.59999999999997</ele><time>2026-05-01T16:46:26Z</time></trkpt><trkpt lat="43.13166106403528" lon="10.62410946528347"><ele>404.2</ele><time>2026-05-01T16:46:28Z</time></trkpt><trkpt lat="43.13169013784078" lon="10.623983517317729"><ele>399.8</ele><time>2026-05-01T16:46:30Z</time></trkpt><trkpt lat="43.13173557191014" lon="10.623798628679289"><ele>395.4</ele><time>2026-05-01T16:46:32Z</time></trkpt><trkpt lat="43.131761408649865" lon="10.623661835086297"><ele>391.0</ele><time>2026-05-01T16:46:34Z</time></trkpt><trkpt lat="43.13173937183644" lon="10.623512544802578"><ele>389.4</ele><time>2026-05-01T16:46:36Z</time></trkpt><trkpt lat="43.13175284436857" lon="10.623399740761222"><ele>387.8</ele><time>2026-05-01T16:46:38Z</time></trkpt><trkpt lat="43.13178246005323" lon="10.623244515241653"><ele>386.2</ele><time>2026-05-01T16:46:40Z</time></trkpt><trkpt lat="43.131819376529265" lon="10.623108078776369"><ele>384.59999999999997</ele><time>2026-05-01T16:46:42Z</time></trkpt><trkpt lat="43.13185480574226" lon="10.623034228980648"><ele>383.0</ele><time>2026-05-01T16:46:43Z</time></trkpt><trkpt lat="43.13193110599044" lon="10.622910135440758"><ele>383.0</ele><time>2026-05-01T16:46:45Z</time></trkpt><trkpt lat="43.13199176052171" lon="10.6228722955457"><ele>383.0</ele><time>2026-05-01T16:46:46Z</time></trkpt><trkpt lat="43.13207726294638" lon="10.622807389140595"><ele>383.0</ele><time>2026-05-01T16:46:48Z</time></trkpt><trkpt lat="43.13212334449988" lon="10.622676679355537"><ele>383.0</ele><time>2026-05-01T16:46:50Z</time></trkpt><trkpt lat="43.132139687528515" lon="10.622588513673888"><ele>383.0</ele><time>2026-05-01T16:46:52Z</time></trkpt><trkpt lat="43.13216857088661" lon="10.622491765933773"><ele>383.0</ele><time>2026-05-01T16:46:54Z</time></trkpt><trkpt lat="43.13222734237441" lon="10.62239366628698"><ele>381.33333333333337</ele><time>2026-05-01T16:46:57Z</time></trkpt><trkpt lat="43.13223853825267" lon="10.622290906072509"><ele>379.6666666666667</ele><time>2026-05-01T16:46:59Z</time></trkpt><trkpt lat="43.132273528981045" lon="10.622163870807041"><ele>378.0</ele><time>2026-05-01T16:47:01Z</time></trkpt><trkpt lat="43.13235744007829" lon="10.622080165170832"><ele>376.3333333333333</ele><time>2026-05-01T16:47:03Z</time></trkpt><trkpt lat="43.132440211393" lon="10.622029047179332"><ele>374.66666666666663</ele><time>2026-05-01T16:47:05Z</time></trkpt><trkpt lat="43.13250168929139" lon="10.621984785245807"><ele>373.0</ele><time>2026-05-01T16:47:07Z</time></trkpt><trkpt lat="43.13257938246887" lon="10.621947581247655"><ele>369.79999999999995</ele><time>2026-05-01T16:47:10Z</time></trkpt><trkpt lat="43.132703622949705" lon="10.621902832773083"><ele>366.6</ele><time>2026-05-01T16:47:12Z</time></trkpt><trkpt lat="43.13278400560114" lon="10.62187800049407"><ele>363.4</ele><time>2026-05-01T16:47:13Z</time></trkpt><trkpt lat="43.132861502585385" lon="10.621832597259914"><ele>360.20000000000005</ele><time>2026-05-01T16:47:14Z</time></trkpt><trkpt lat="43.1329163020986" lon="10.621788909709123"><ele>357.0</ele><time>2026-05-01T16:47:15Z</time></trkpt><trkpt lat="43.13298461306936" lon="10.62169655481699"><ele>357.0</ele><time>2026-05-01T16:47:17Z</time></trkpt><trkpt lat="43.133037644683704" lon="10.621639764729478"><ele>357.0</ele><time>2026-05-01T16:47:18Z</time></trkpt><trkpt lat="43.133140652555035" lon="10.62153241691063"><ele>357.0</ele><time>2026-05-01T16:47:20Z</time></trkpt><trkpt lat="43.133191609527636" lon="10.621479942999786"><ele>357.0</ele><time>2026-05-01T16:47:21Z</time></trkpt><trkpt lat="43.13322819128297" lon="10.621391656837533"><ele>357.0</ele><time>2026-05-01T16:47:23Z</time></trkpt><trkpt lat="43.13322835975623" lon="10.621295213750535"><ele>357.0</ele><time>2026-05-01T16:47:24Z</time></trkpt><trkpt lat="43.13323334864626" lon="10.621160274401317"><ele>356.0</ele><time>2026-05-01T16:47:26Z</time></trkpt><trkpt lat="43.13321804609339" lon="10.621034151494108"><ele>355.0</ele><time>2026-05-01T16:47:28Z</time></trkpt><trkpt lat="43.13323120069451" lon="10.620924144412015"><ele>354.0</ele><time>2026-05-01T16:47:29Z</time></trkpt><trkpt lat="43.13323618222687" lon="10.62083214830562"><ele>353.0</ele><time>2026-05-01T16:47:30Z</time></trkpt><trkpt lat="43.133257243404316" lon="10.620733009693689"><ele>352.0</ele><time>2026-05-01T16:47:34Z</time></trkpt><trkpt lat="43.13332491245585" lon="10.620753683130669"><ele>351.0</ele><time>2026-05-01T16:49:47Z</time></trkpt><trkpt lat="43.133349600227575" lon="10.620858074456226"><ele>349.4</ele><time>2026-05-01T16:49:49Z</time></trkpt><trkpt lat="43.13340846955659" lon="10.620979492233303"><ele>347.8</ele><time>2026-05-01T16:49:51Z</time></trkpt><trkpt lat="43.133458366491894" lon="10.62104778847716"><ele>346.2</ele><time>2026-05-01T16:49:52Z</time></trkpt><trkpt lat="43.13352849724914" lon="10.621152651984652"><ele>344.59999999999997</ele><time>2026-05-01T16:49:54Z</time></trkpt><trkpt lat="43.13354218704174" lon="10.621289653421032"><ele>343.0</ele><time>2026-05-01T16:49:56Z</time></trkpt><trkpt lat="43.13352142783651" lon="10.621411077936848"><ele>343.0</ele><time>2026-05-01T16:49:57Z</time></trkpt><trkpt lat="43.133481898058655" lon="10.621541230864024"><ele>343.0</ele><time>2026-05-01T16:49:58Z</time></trkpt><trkpt lat="43.13343324274259" lon="10.621666657906776"><ele>343.0</ele><time>2026-05-01T16:49:59Z</time></trkpt><trkpt lat="43.13339597231365" lon="10.62180206305588"><ele>343.0</ele><time>2026-05-01T16:50:00Z</time></trkpt><trkpt lat="43.133353745918484" lon="10.62190574578444"><ele>343.0</ele><time>2026-05-01T16:50:01Z</time></trkpt><trkpt lat="43.13331588147461" lon="10.621985996634434"><ele>342.79999999999995</ele><time>2026-05-01T16:50:02Z</time></trkpt><trkpt lat="43.13323859662061" lon="10.622086518102668"><ele>342.6</ele><time>2026-05-01T16:50:04Z</time></trkpt><trkpt lat="43.13319667337037" lon="10.622153288133577"><ele>342.4</ele><time>2026-05-01T16:50:05Z</time></trkpt><trkpt lat="43.13327158479087" lon="10.622313098450688"><ele>342.20000000000005</ele><time>2026-05-01T16:50:07Z</time></trkpt><trkpt lat="43.133297542292226" lon="10.62243932621269"><ele>342.0</ele><time>2026-05-01T16:50:09Z</time></trkpt><trkpt lat="43.133262379352956" lon="10.62265050073289"><ele>342.0</ele><time>2026-05-01T16:50:11Z</time></trkpt><trkpt lat="43.133242508077075" lon="10.622791419583697"><ele>342.0</ele><time>2026-05-01T16:50:12Z</time></trkpt><trkpt lat="43.13322220092698" lon="10.62289712254538"><ele>342.0</ele><time>2026-05-01T16:50:13Z</time></trkpt><trkpt lat="43.13315974509592" lon="10.623029033016271"><ele>342.0</ele><time>2026-05-01T16:50:15Z</time></trkpt><trkpt lat="43.1331165949834" lon="10.623113630444575"><ele>342.0</ele><time>2026-05-01T16:50:16Z</time></trkpt><trkpt lat="43.13307033548274" lon="10.623204323971661"><ele>345.8</ele><time>2026-05-01T16:50:17Z</time></trkpt><trkpt lat="43.133008380693326" lon="10.623329699548982"><ele>349.6</ele><time>2026-05-01T16:50:19Z</time></trkpt><trkpt lat="43.1329649588029" lon="10.623428232696986"><ele>353.40000000000003</ele><time>2026-05-01T16:50:21Z</time></trkpt><trkpt lat="43.132912351465265" lon="10.623597782824737"><ele>357.20000000000005</ele><time>2026-05-01T16:50:24Z</time></trkpt><trkpt lat="43.1328714087166" lon="10.623742885215112"><ele>361.0</ele><time>2026-05-01T16:50:25Z</time></trkpt><trkpt lat="43.13284934291893" lon="10.62389309922807"><ele>361.6</ele><time>2026-05-01T16:50:26Z</time></trkpt><trkpt lat="43.132838664603824" lon="10.624016033066354"><ele>362.20000000000005</ele><time>2026-05-01T16:50:27Z</time></trkpt><trkpt lat="43.13282005868826" lon="10.624151991952456"><ele>362.79999999999995</ele><time>2026-05-01T16:50:28Z</time></trkpt><trkpt lat="43.13281664138139" lon="10.624293315031748"><ele>363.4</ele><time>2026-05-01T16:50:29Z</time></trkpt><trkpt lat="43.13282030682845" lon="10.62440291366656"><ele>364.0</ele><time>2026-05-01T16:50:30Z</time></trkpt><trkpt lat="43.13283171259072" lon="10.624505476374289"><ele>364.79999999999995</ele><time>2026-05-01T16:50:31Z</time></trkpt><trkpt lat="43.132869635741805" lon="10.62460050123473"><ele>365.59999999999997</ele><time>2026-05-01T16:50:32Z</time></trkpt><trkpt lat="43.132941003342694" lon="10.624675373419775"><ele>366.4</ele><time>2026-05-01T16:50:33Z</time></trkpt><trkpt lat="43.13299981538787" lon="10.624770896149222"><ele>367.2</ele><time>2026-05-01T16:50:34Z</time></trkpt><trkpt lat="43.13303785406875" lon="10.624875868789545"><ele>368.0</ele><time>2026-05-01T16:50:35Z</time></trkpt><trkpt lat="43.133077439194565" lon="10.62501797495291"><ele>368.0</ele><time>2026-05-01T16:50:36Z</time></trkpt><trkpt lat="43.13311348477327" lon="10.625170428634233"><ele>368.0</ele><time>2026-05-01T16:50:37Z</time></trkpt><trkpt lat="43.133157410474986" lon="10.625310695073404"><ele>368.0</ele><time>2026-05-01T16:50:38Z</time></trkpt><trkpt lat="43.13318902197737" lon="10.625401995624042"><ele>368.0</ele><time>2026-05-01T16:50:39Z</time></trkpt><trkpt lat="43.13324197649554" lon="10.625540263612033"><ele>368.0</ele><time>2026-05-01T16:50:41Z</time></trkpt><trkpt lat="43.13329444386491" lon="10.62567506287903"><ele>365.79999999999995</ele><time>2026-05-01T16:50:43Z</time></trkpt><trkpt lat="43.13336429657481" lon="10.625776240376817"><ele>363.6</ele><time>2026-05-01T16:50:45Z</time></trkpt><trkpt lat="43.13343204220563" lon="10.625891172591857"><ele>361.4</ele><time>2026-05-01T16:50:47Z</time></trkpt><trkpt lat="43.13346149569887" lon="10.625996667760596"><ele>359.20000000000005</ele><time>2026-05-01T16:50:48Z</time></trkpt><trkpt lat="43.13350685051448" lon="10.626057578141873"><ele>357.0</ele><time>2026-05-01T16:50:49Z</time></trkpt><trkpt lat="43.13360338913047" lon="10.62618111364086"><ele>357.0</ele><time>2026-05-01T16:50:51Z</time></trkpt><trkpt lat="43.13365417505936" lon="10.62624759164819"><ele>357.0</ele><time>2026-05-01T16:50:52Z</time></trkpt><trkpt lat="43.13370534166088" lon="10.626324166052777"><ele>357.0</ele><time>2026-05-01T16:50:53Z</time></trkpt><trkpt lat="43.13376606148732" lon="10.626402529656785"><ele>357.0</ele><time>2026-05-01T16:50:55Z</time></trkpt><trkpt lat="43.13375804854676" lon="10.626517281949377"><ele>357.0</ele><time>2026-05-01T16:50:57Z</time></trkpt><trkpt lat="43.13374690275419" lon="10.62661670648278"><ele>357.0</ele><time>2026-05-01T16:50:58Z</time></trkpt><trkpt lat="43.13369958749184" lon="10.62676686443795"><ele>357.0</ele><time>2026-05-01T16:50:59Z</time></trkpt><trkpt lat="43.133663004187135" lon="10.6268968673003"><ele>357.0</ele><time>2026-05-01T16:51:00Z</time></trkpt><trkpt lat="43.13363221893127" lon="10.62700635235978"><ele>357.0</ele><time>2026-05-01T16:51:01Z</time></trkpt><trkpt lat="43.13362630999711" lon="10.627101268212554"><ele>357.0</ele><time>2026-05-01T16:51:02Z</time></trkpt><trkpt lat="43.133629971712594" lon="10.6272023089236"><ele>357.0</ele><time>2026-05-01T16:51:03Z</time></trkpt><trkpt lat="43.13365108338829" lon="10.627301708038114"><ele>357.0</ele><time>2026-05-01T16:51:04Z</time></trkpt><trkpt lat="43.13370843987584" lon="10.627491754255912"><ele>358.8333333333333</ele><time>2026-05-01T16:51:06Z</time></trkpt><trkpt lat="43.133743728628644" lon="10.627597716652843"><ele>360.6666666666667</ele><time>2026-05-01T16:51:07Z</time></trkpt><trkpt lat="43.13381677039453" lon="10.627693623474952"><ele>362.5</ele><time>2026-05-01T16:51:08Z</time></trkpt><trkpt lat="43.13386368865211" lon="10.62778514392449"><ele>364.33333333333337</ele><time>2026-05-01T16:51:09Z</time></trkpt><trkpt lat="43.133926862776285" lon="10.627863702163129"><ele>366.1666666666667</ele><time>2026-05-01T16:51:10Z</time></trkpt><trkpt lat="43.133989586276755" lon="10.62794099395279"><ele>368.0</ele><time>2026-05-01T16:51:11Z</time></trkpt><trkpt lat="43.134041355279464" lon="10.628002458633468"><ele>364.79999999999995</ele><time>2026-05-01T16:51:12Z</time></trkpt><trkpt lat="43.13409793229347" lon="10.628066789560775"><ele>361.6</ele><time>2026-05-01T16:51:13Z</time></trkpt><trkpt lat="43.13415076511957" lon="10.628119996800923"><ele>358.4</ele><time>2026-05-01T16:51:14Z</time></trkpt><trkpt lat="43.13421008153002" lon="10.628211671660829"><ele>355.20000000000005</ele><time>2026-05-01T16:51:15Z</time></trkpt><trkpt lat="43.134299494259096" lon="10.628289044184351"><ele>352.0</ele><time>2026-05-01T16:51:17Z</time></trkpt><trkpt lat="43.134404061231244" lon="10.628385226301106"><ele>352.0</ele><time>2026-05-01T16:51:19Z</time></trkpt><trkpt lat="43.13449870854738" lon="10.628379045809567"><ele>352.0</ele><time>2026-05-01T16:51:20Z</time></trkpt><trkpt lat="43.13455460218508" lon="10.628433924963696"><ele>352.0</ele><time>2026-05-01T16:51:21Z</time></trkpt><trkpt lat="43.13462408044132" lon="10.62847347680447"><ele>352.0</ele><time>2026-05-01T16:51:22Z</time></trkpt><trkpt lat="43.13470220887829" lon="10.628517952945156"><ele>352.0</ele><time>2026-05-01T16:51:23Z</time></trkpt><trkpt lat="43.13478730862001" lon="10.628566397630077"><ele>352.0</ele><time>2026-05-01T16:51:24Z</time></trkpt><trkpt lat="43.13486340603324" lon="10.628609717559728"><ele>355.20000000000005</ele><time>2026-05-01T16:51:25Z</time></trkpt><trkpt lat="43.13496350448486" lon="10.628665872728579"><ele>358.4</ele><time>2026-05-01T16:51:26Z</time></trkpt><trkpt lat="43.13504332754344" lon="10.628690834461713"><ele>361.6</ele><time>2026-05-01T16:51:27Z</time></trkpt><trkpt lat="43.135135960484746" lon="10.628741329660274"><ele>364.79999999999995</ele><time>2026-05-01T16:51:28Z</time></trkpt><trkpt lat="43.1352363747781" lon="10.628801214628801"><ele>368.0</ele><time>2026-05-01T16:51:29Z</time></trkpt><trkpt lat="43.13533690698371" lon="10.628872577216406"><ele>368.0</ele><time>2026-05-01T16:51:30Z</time></trkpt><trkpt lat="43.13544117761317" lon="10.628914631666804"><ele>368.0</ele><time>2026-05-01T16:51:31Z</time></trkpt><trkpt lat="43.13554319340845" lon="10.628972909065023"><ele>368.0</ele><time>2026-05-01T16:51:32Z</time></trkpt><trkpt lat="43.13563084633475" lon="10.629016043014657"><ele>368.0</ele><time>2026-05-01T16:51:33Z</time></trkpt><trkpt lat="43.13571484975151" lon="10.629056041583793"><ele>368.0</ele><time>2026-05-01T16:51:34Z</time></trkpt><trkpt lat="43.13580298405409" lon="10.62909736207227"><ele>365.59999999999997</ele><time>2026-05-01T16:51:35Z</time></trkpt><trkpt lat="43.13589522602174" lon="10.629140608378453"><ele>363.2</ele><time>2026-05-01T16:51:36Z</time></trkpt><trkpt lat="43.13598980179058" lon="10.62918494885764"><ele>360.8</ele><time>2026-05-01T16:51:37Z</time></trkpt><trkpt lat="43.136075210301996" lon="10.629199684153937"><ele>358.4</ele><time>2026-05-01T16:51:38Z</time></trkpt><trkpt lat="43.136149861641144" lon="10.629246438878289"><ele>356.0</ele><time>2026-05-01T16:51:39Z</time></trkpt><trkpt lat="43.13623291794649" lon="10.629280947024043"><ele>356.0</ele><time>2026-05-01T16:51:40Z</time></trkpt><trkpt lat="43.13631958290392" lon="10.62929495234662"><ele>356.0</ele><time>2026-05-01T16:51:41Z</time></trkpt><trkpt lat="43.13640726747498" lon="10.629311355581024"><ele>356.0</ele><time>2026-05-01T16:51:42Z</time></trkpt><trkpt lat="43.13648698449582" lon="10.629309742086903"><ele>356.0</ele><time>2026-05-01T16:51:43Z</time></trkpt><trkpt lat="43.136556220401395" lon="10.629309054906251"><ele>356.0</ele><time>2026-05-01T16:51:44Z</time></trkpt><trkpt lat="43.136664017857434" lon="10.629320035831137"><ele>356.0</ele><time>2026-05-01T16:51:46Z</time></trkpt><trkpt lat="43.136789703621865" lon="10.629324454601898"><ele>355.1428571428571</ele><time>2026-05-01T16:51:48Z</time></trkpt><trkpt lat="43.13687138712996" lon="10.629327782874347"><ele>354.2857142857143</ele><time>2026-05-01T16:51:49Z</time></trkpt><trkpt lat="43.13693670468204" lon="10.629332087165595"><ele>353.42857142857144</ele><time>2026-05-01T16:51:50Z</time></trkpt><trkpt lat="43.13700520915759" lon="10.629345227141554"><ele>352.57142857142856</ele><time>2026-05-01T16:51:51Z</time></trkpt><trkpt lat="43.13707082799436" lon="10.629362465709878"><ele>351.7142857142857</ele><time>2026-05-01T16:51:52Z</time></trkpt><trkpt lat="43.137142783474616" lon="10.629388241062873"><ele>350.85714285714283</ele><time>2026-05-01T16:51:53Z</time></trkpt><trkpt lat="43.137221017938636" lon="10.629443389426637"><ele>350.0</ele><time>2026-05-01T16:51:55Z</time></trkpt><trkpt lat="43.13729534920085" lon="10.629503074970795"><ele>351.4</ele><time>2026-05-01T16:51:56Z</time></trkpt><trkpt lat="43.13736644695251" lon="10.629580646369794"><ele>352.8</ele><time>2026-05-01T16:51:57Z</time></trkpt><trkpt lat="43.137424023719824" lon="10.629681786417061"><ele>354.20000000000005</ele><time>2026-05-01T16:51:58Z</time></trkpt><trkpt lat="43.1375102638169" lon="10.629765572505956"><ele>355.6</ele><time>2026-05-01T16:51:59Z</time></trkpt><trkpt lat="43.137596483949295" lon="10.629841162707926"><ele>357.0</ele><time>2026-05-01T16:52:00Z</time></trkpt><trkpt lat="43.13769073059327" lon="10.629908453809863"><ele>357.0</ele><time>2026-05-01T16:52:01Z</time></trkpt><trkpt lat="43.13778699856661" lon="10.629959457160863"><ele>357.0</ele><time>2026-05-01T16:52:02Z</time></trkpt><trkpt lat="43.13787984083403" lon="10.629968248986723"><ele>357.0</ele><time>2026-05-01T16:52:03Z</time></trkpt><trkpt lat="43.1379644260802" lon="10.629993873345427"><ele>357.0</ele><time>2026-05-01T16:52:04Z</time></trkpt><trkpt lat="43.138032528075556" lon="10.630001253697099"><ele>357.0</ele><time>2026-05-01T16:52:05Z</time></trkpt><trkpt lat="43.138103254239475" lon="10.629975763907728"><ele>357.0</ele><time>2026-05-01T16:52:06Z</time></trkpt><trkpt lat="43.13817277941314" lon="10.629911494969447"><ele>354.6</ele><time>2026-05-01T16:52:07Z</time></trkpt><trkpt lat="43.138227047116956" lon="10.629821574108714"><ele>352.20000000000005</ele><time>2026-05-01T16:52:08Z</time></trkpt><trkpt lat="43.13828350034095" lon="10.629707816320241"><ele>349.8</ele><time>2026-05-01T16:52:09Z</time></trkpt><trkpt lat="43.138342694234154" lon="10.629584125484744"><ele>347.4</ele><time>2026-05-01T16:52:10Z</time></trkpt><trkpt lat="43.13840090471454" lon="10.629483862484227"><ele>345.0</ele><time>2026-05-01T16:52:11Z</time></trkpt><trkpt lat="43.13843306287304" lon="10.62936713045644"><ele>342.2</ele><time>2026-05-01T16:52:12Z</time></trkpt><trkpt lat="43.13848437067505" lon="10.62927838100991"><ele>339.4</ele><time>2026-05-01T16:52:13Z</time></trkpt><trkpt lat="43.13855435094243" lon="10.629141834533577"><ele>336.6</ele><time>2026-05-01T16:52:15Z</time></trkpt><trkpt lat="43.13861665751232" lon="10.628965387879656"><ele>333.8</ele><time>2026-05-01T16:52:17Z</time></trkpt><trkpt lat="43.13866973551233" lon="10.62887705369893"><ele>331.0</ele><time>2026-05-01T16:52:18Z</time></trkpt><trkpt lat="43.13873459831938" lon="10.628783196498263"><ele>331.0</ele><time>2026-05-01T16:52:19Z</time></trkpt><trkpt lat="43.13880690235998" lon="10.628698479773083"><ele>331.0</ele><time>2026-05-01T16:52:20Z</time></trkpt><trkpt lat="43.13888670832804" lon="10.628635335441418"><ele>331.0</ele><time>2026-05-01T16:52:21Z</time></trkpt><trkpt lat="43.138956433624315" lon="10.628605582822182"><ele>331.0</ele><time>2026-05-01T16:52:22Z</time></trkpt><trkpt lat="43.139029004396306" lon="10.628568634729332"><ele>331.0</ele><time>2026-05-01T16:52:23Z</time></trkpt><trkpt lat="43.13909893341036" lon="10.628540540584723"><ele>331.0</ele><time>2026-05-01T16:52:24Z</time></trkpt><trkpt lat="43.13916789482946" lon="10.628541638455117"><ele>329.8</ele><time>2026-05-01T16:52:25Z</time></trkpt><trkpt lat="43.13926563699138" lon="10.62854676564387"><ele>328.6</ele><time>2026-05-01T16:52:27Z</time></trkpt><trkpt lat="43.13933545344106" lon="10.628577902672681"><ele>327.4</ele><time>2026-05-01T16:52:29Z</time></trkpt><trkpt lat="43.13940847883474" lon="10.628685635421922"><ele>326.2</ele><time>2026-05-01T16:52:31Z</time></trkpt><trkpt lat="43.13946809847589" lon="10.62878924595261"><ele>325.0</ele><time>2026-05-01T16:52:32Z</time></trkpt><trkpt lat="43.13953940596174" lon="10.628895453153099"><ele>325.0</ele><time>2026-05-01T16:52:33Z</time></trkpt><trkpt lat="43.13961330789941" lon="10.62898572500299"><ele>325.0</ele><time>2026-05-01T16:52:34Z</time></trkpt><trkpt lat="43.139684714561355" lon="10.62906034166906"><ele>325.0</ele><time>2026-05-01T16:52:35Z</time></trkpt><trkpt lat="43.13974696274225" lon="10.629111378882989"><ele>325.0</ele><time>2026-05-01T16:52:36Z</time></trkpt><trkpt lat="43.13985880573222" lon="10.62914291069193"><ele>325.0</ele><time>2026-05-01T16:52:38Z</time></trkpt><trkpt lat="43.139981596857986" lon="10.629035396653641"><ele>323.8</ele><time>2026-05-01T16:52:40Z</time></trkpt><trkpt lat="43.1400339989979" lon="10.628898421923683"><ele>322.6</ele><time>2026-05-01T16:52:41Z</time></trkpt><trkpt lat="43.14009224434933" lon="10.628760960062138"><ele>321.4</ele><time>2026-05-01T16:52:42Z</time></trkpt><trkpt lat="43.14013864655139" lon="10.628639849144227"><ele>320.2</ele><time>2026-05-01T16:52:43Z</time></trkpt><trkpt lat="43.14017327618224" lon="10.62851514454333"><ele>319.0</ele><time>2026-05-01T16:52:44Z</time></trkpt><trkpt lat="43.14022230470553" lon="10.628400703309703"><ele>317.4</ele><time>2026-05-01T16:52:45Z</time></trkpt><trkpt lat="43.140265946970075" lon="10.628301162786101"><ele>315.79999999999995</ele><time>2026-05-01T16:52:46Z</time></trkpt><trkpt lat="43.140317655754195" lon="10.628241733824792"><ele>314.20000000000005</ele><time>2026-05-01T16:52:47Z</time></trkpt><trkpt lat="43.1404192443461" lon="10.62843115471992"><ele>312.6</ele><time>2026-05-01T16:52:52Z</time></trkpt><trkpt lat="43.14043774394013" lon="10.628532821064752"><ele>311.0</ele><time>2026-05-01T16:52:53Z</time></trkpt><trkpt lat="43.140465197005504" lon="10.628639341110448"><ele>311.40000000000003</ele><time>2026-05-01T16:52:54Z</time></trkpt><trkpt lat="43.14049271734585" lon="10.628755088103047"><ele>311.8</ele><time>2026-05-01T16:52:55Z</time></trkpt><trkpt lat="43.140557855855" lon="10.628846615236903"><ele>312.20000000000005</ele><time>2026-05-01T16:52:57Z</time></trkpt><trkpt lat="43.14060833065052" lon="10.628932369910437"><ele>312.6</ele><time>2026-05-01T16:53:00Z</time></trkpt><trkpt lat="43.14068251138766" lon="10.628996809781873"><ele>313.0</ele><time>2026-05-01T16:53:01Z</time></trkpt><trkpt lat="43.140796025883226" lon="10.629030458437827"><ele>313.0</ele><time>2026-05-01T16:53:02Z</time></trkpt><trkpt lat="43.14090004462133" lon="10.62899568249144"><ele>313.0</ele><time>2026-05-01T16:53:03Z</time></trkpt><trkpt lat="43.14099041765696" lon="10.628871513408699"><ele>313.0</ele><time>2026-05-01T16:53:04Z</time></trkpt><trkpt lat="43.1410574421563" lon="10.628771515182965"><ele>313.0</ele><time>2026-05-01T16:53:05Z</time></trkpt><trkpt lat="43.14111723188773" lon="10.628653607560624"><ele>313.0</ele><time>2026-05-01T16:53:06Z</time></trkpt><trkpt lat="43.141169582648786" lon="10.628566297816391"><ele>311.66666666666663</ele><time>2026-05-01T16:53:07Z</time></trkpt><trkpt lat="43.141223486685355" lon="10.628495610252534"><ele>310.3333333333333</ele><time>2026-05-01T16:53:08Z</time></trkpt><trkpt lat="43.14130435567356" lon="10.628432386044688"><ele>309.0</ele><time>2026-05-01T16:53:10Z</time></trkpt><trkpt lat="43.141384619753744" lon="10.62845493781224"><ele>307.6666666666667</ele><time>2026-05-01T16:53:12Z</time></trkpt><trkpt lat="43.14147334913468" lon="10.628489065695584"><ele>306.33333333333337</ele><time>2026-05-01T16:53:14Z</time></trkpt><trkpt lat="43.141555796353764" lon="10.628505706825"><ele>305.0</ele><time>2026-05-01T16:53:15Z</time></trkpt><trkpt lat="43.141638126667004" lon="10.628511501563617"><ele>303.83333333333337</ele><time>2026-05-01T16:53:16Z</time></trkpt><trkpt lat="43.14171450811651" lon="10.628520194082252"><ele>302.6666666666667</ele><time>2026-05-01T16:53:17Z</time></trkpt><trkpt lat="43.141786240044105" lon="10.628522423381696"><ele>301.5</ele><time>2026-05-01T16:53:18Z</time></trkpt><trkpt lat="43.14187448688377" lon="10.62850936869331"><ele>300.3333333333333</ele><time>2026-05-01T16:53:19Z</time></trkpt><trkpt lat="43.14195727105012" lon="10.62847659370861"><ele>299.16666666666663</ele><time>2026-05-01T16:53:20Z</time></trkpt><trkpt lat="43.1420401273273" lon="10.628405631642066"><ele>298.0</ele><time>2026-05-01T16:53:21Z</time></trkpt><trkpt lat="43.14211211098159" lon="10.628327052632836"><ele>298.0</ele><time>2026-05-01T16:53:22Z</time></trkpt><trkpt lat="43.142178609764755" lon="10.628248129508968"><ele>298.0</ele><time>2026-05-01T16:53:23Z</time></trkpt><trkpt lat="43.14223722234291" lon="10.628177334154515"><ele>298.0</ele><time>2026-05-01T16:53:24Z</time></trkpt><trkpt lat="43.142288748575595" lon="10.628088668741198"><ele>298.0</ele><time>2026-05-01T16:53:25Z</time></trkpt><trkpt lat="43.142345249039025" lon="10.628032957395765"><ele>298.0</ele><time>2026-05-01T16:53:26Z</time></trkpt><trkpt lat="43.14240803158088" lon="10.627975527667914"><ele>298.0</ele><time>2026-05-01T16:53:27Z</time></trkpt><trkpt lat="43.14246303019813" lon="10.627927794184188"><ele>297.16666666666663</ele><time>2026-05-01T16:53:28Z</time></trkpt><trkpt lat="43.14253098749046" lon="10.627870862124245"><ele>296.3333333333333</ele><time>2026-05-01T16:53:29Z</time></trkpt><trkpt lat="43.1426014355481" lon="10.627813257618469"><ele>295.5</ele><time>2026-05-01T16:53:30Z</time></trkpt><trkpt lat="43.14266334356931" lon="10.627776382816755"><ele>294.6666666666667</ele><time>2026-05-01T16:53:31Z</time></trkpt><trkpt lat="43.142744400278254" lon="10.627747479371465"><ele>293.83333333333337</ele><time>2026-05-01T16:53:32Z</time></trkpt><trkpt lat="43.14281747704714" lon="10.627717762643984"><ele>293.0</ele><time>2026-05-01T16:53:33Z</time></trkpt><trkpt lat="43.14291456531407" lon="10.627695316994352"><ele>290.6</ele><time>2026-05-01T16:53:34Z</time></trkpt><trkpt lat="43.143000221786785" lon="10.62769443969674"><ele>288.20000000000005</ele><time>2026-05-01T16:53:35Z</time></trkpt><trkpt lat="43.14309358143264" lon="10.627696357451184"><ele>285.8</ele><time>2026-05-01T16:53:36Z</time></trkpt><trkpt lat="43.14316641096431" lon="10.627678175305983"><ele>283.40000000000003</ele><time>2026-05-01T16:53:37Z</time></trkpt><trkpt lat="43.143251380303326" lon="10.627612310106633"><ele>281.0</ele><time>2026-05-01T16:53:38Z</time></trkpt><trkpt lat="43.143359057580106" lon="10.627549857498963"><ele>279.40000000000003</ele><time>2026-05-01T16:53:40Z</time></trkpt><trkpt lat="43.14347901105797" lon="10.627432014776879"><ele>277.8</ele><time>2026-05-01T16:53:42Z</time></trkpt><trkpt lat="43.143527624443465" lon="10.627290945862109"><ele>276.20000000000005</ele><time>2026-05-01T16:53:43Z</time></trkpt><trkpt lat="43.143583192587705" lon="10.627189897323396"><ele>274.6</ele><time>2026-05-01T16:53:44Z</time></trkpt><trkpt lat="43.143603347702445" lon="10.627079259585246"><ele>273.0</ele><time>2026-05-01T16:53:45Z</time></trkpt><trkpt lat="43.14365899596484" lon="10.626995902350844"><ele>270.6</ele><time>2026-05-01T16:53:46Z</time></trkpt><trkpt lat="43.143722561589804" lon="10.626914059892455"><ele>268.20000000000005</ele><time>2026-05-01T16:53:47Z</time></trkpt><trkpt lat="43.14381336970481" lon="10.626835935513046"><ele>265.8</ele><time>2026-05-01T16:53:48Z</time></trkpt><trkpt lat="43.14390601841685" lon="10.626751638076975"><ele>263.40000000000003</ele><time>2026-05-01T16:53:49Z</time></trkpt><trkpt lat="43.14398179631961" lon="10.62666722815975"><ele>261.0</ele><time>2026-05-01T16:53:50Z</time></trkpt><trkpt lat="43.14404336125815" lon="10.62659072251689"><ele>261.8</ele><time>2026-05-01T16:53:51Z</time></trkpt><trkpt lat="43.14410760064932" lon="10.626523717337044"><ele>262.6</ele><time>2026-05-01T16:53:52Z</time></trkpt><trkpt lat="43.14415906907536" lon="10.626422571153254"><ele>263.4</ele><time>2026-05-01T16:53:53Z</time></trkpt><trkpt lat="43.14419679282006" lon="10.62627684016375"><ele>264.2</ele><time>2026-05-01T16:53:54Z</time></trkpt><trkpt lat="43.14422216325975" lon="10.626155966075029"><ele>265.0</ele><time>2026-05-01T16:53:55Z</time></trkpt><trkpt lat="43.144246337999284" lon="10.626046259169113"><ele>262.0</ele><time>2026-05-01T16:53:56Z</time></trkpt><trkpt lat="43.144271845378704" lon="10.625896312385825"><ele>259.0</ele><time>2026-05-01T16:53:58Z</time></trkpt><trkpt lat="43.14436616315412" lon="10.625811910534333"><ele>256.0</ele><time>2026-05-01T16:54:00Z</time></trkpt><trkpt lat="43.144440049839346" lon="10.625808773659946"><ele>253.0</ele><time>2026-05-01T16:54:01Z</time></trkpt><trkpt lat="43.14451359732407" lon="10.625875799251606"><ele>250.0</ele><time>2026-05-01T16:54:02Z</time></trkpt><trkpt lat="43.1445844480416" lon="10.625873222588451"><ele>249.99999999999997</ele><time>2026-05-01T16:54:03Z</time></trkpt><trkpt lat="43.144650935646254" lon="10.625889231717634"><ele>250.0</ele><time>2026-05-01T16:54:04Z</time></trkpt><trkpt lat="43.14472444922794" lon="10.625898578573798"><ele>250.0</ele><time>2026-05-01T16:54:05Z</time></trkpt><trkpt lat="43.14481694112724" lon="10.625828999695013"><ele>250.0</ele><time>2026-05-01T16:54:06Z</time></trkpt><trkpt lat="43.14488800445329" lon="10.625722267324644"><ele>249.99999999999997</ele><time>2026-05-01T16:54:07Z</time></trkpt><trkpt lat="43.144972882534134" lon="10.625679283670403"><ele>250.0</ele><time>2026-05-01T16:54:09Z</time></trkpt><trkpt lat="43.1450790759094" lon="10.625774052189811"><ele>250.4</ele><time>2026-05-01T16:54:11Z</time></trkpt><trkpt lat="43.14515819710422" lon="10.625870400865212"><ele>250.8</ele><time>2026-05-01T16:54:12Z</time></trkpt><trkpt lat="43.14521348938895" lon="10.625969407309174"><ele>251.2</ele><time>2026-05-01T16:54:13Z</time></trkpt><trkpt lat="43.14525462757794" lon="10.626069169526177"><ele>251.6</ele><time>2026-05-01T16:54:14Z</time></trkpt><trkpt lat="43.145289458103555" lon="10.626166915439134"><ele>252.0</ele><time>2026-05-01T16:54:15Z</time></trkpt><trkpt lat="43.14531328055306" lon="10.626318611601146"><ele>254.16666666666666</ele><time>2026-05-01T16:54:17Z</time></trkpt><trkpt lat="43.14529939353079" lon="10.626415087274108"><ele>256.3333333333333</ele><time>2026-05-01T16:54:18Z</time></trkpt><trkpt lat="43.14526335561151" lon="10.626503450801192"><ele>258.5</ele><time>2026-05-01T16:54:19Z</time></trkpt><trkpt lat="43.14522642407278" lon="10.626616661332644"><ele>260.66666666666663</ele><time>2026-05-01T16:54:20Z</time></trkpt><trkpt lat="43.145213486225856" lon="10.626719337460422"><ele>262.8333333333333</ele><time>2026-05-01T16:54:21Z</time></trkpt><trkpt lat="43.145215172672216" lon="10.626834640964669"><ele>265.0</ele><time>2026-05-01T16:54:22Z</time></trkpt><trkpt lat="43.14523650520364" lon="10.626936420870774"><ele>265.0</ele><time>2026-05-01T16:54:23Z</time></trkpt><trkpt lat="43.14528734349725" lon="10.627105061950889"><ele>265.0</ele><time>2026-05-01T16:54:25Z</time></trkpt><trkpt lat="43.145352267428954" lon="10.627143561242901"><ele>265.0</ele><time>2026-05-01T16:54:26Z</time></trkpt><trkpt lat="43.145431290459854" lon="10.627124448937302"><ele>265.0</ele><time>2026-05-01T16:54:27Z</time></trkpt><trkpt lat="43.14548642698336" lon="10.627037673486354"><ele>265.0</ele><time>2026-05-01T16:54:28Z</time></trkpt><trkpt lat="43.14553475751526" lon="10.626908444997767"><ele>265.0</ele><time>2026-05-01T16:54:29Z</time></trkpt><trkpt lat="43.14559260984516" lon="10.626838937864077"><ele>265.0</ele><time>2026-05-01T16:54:30Z</time></trkpt><trkpt lat="43.14568686135944" lon="10.62680773352616"><ele>265.0</ele><time>2026-05-01T16:54:32Z</time></trkpt><trkpt lat="43.14576507913698" lon="10.62680318327199"><ele>265.0</ele><time>2026-05-01T16:54:33Z</time></trkpt><trkpt lat="43.14586211363163" lon="10.626865806215637"><ele>265.0</ele><time>2026-05-01T16:54:34Z</time></trkpt><trkpt lat="43.145960070699466" lon="10.626908870918555"><ele>265.66666666666663</ele><time>2026-05-01T16:54:35Z</time></trkpt><trkpt lat="43.14604490292101" lon="10.626942656627127"><ele>266.3333333333333</ele><time>2026-05-01T16:54:36Z</time></trkpt><trkpt lat="43.146121139879696" lon="10.626972894073738"><ele>267.0</ele><time>2026-05-01T16:54:37Z</time></trkpt><trkpt lat="43.14620228016296" lon="10.627004499820021"><ele>267.6666666666667</ele><time>2026-05-01T16:54:38Z</time></trkpt><trkpt lat="43.146271699045414" lon="10.627027496087646"><ele>268.33333333333337</ele><time>2026-05-01T16:54:39Z</time></trkpt><trkpt lat="43.14636198807054" lon="10.627033253519283"><ele>269.0</ele><time>2026-05-01T16:54:41Z</time></trkpt><trkpt lat="43.1464364572321" lon="10.626955509329767"><ele>265.0</ele><time>2026-05-01T16:54:42Z</time></trkpt><trkpt lat="43.14647262636641" lon="10.626835746624135"><ele>261.0</ele><time>2026-05-01T16:54:43Z</time></trkpt><trkpt lat="43.1464936488359" lon="10.626687005993176"><ele>257.0</ele><time>2026-05-01T16:54:44Z</time></trkpt><trkpt lat="43.146483297008906" lon="10.626540079000245"><ele>253.0</ele><time>2026-05-01T16:54:45Z</time></trkpt><trkpt lat="43.14649087167326" lon="10.626391294830679"><ele>249.0</ele><time>2026-05-01T16:54:46Z</time></trkpt><trkpt lat="43.14650574806135" lon="10.626244595764671"><ele>246.33333333333334</ele><time>2026-05-01T16:54:47Z</time></trkpt><trkpt lat="43.14651459444136" lon="10.626101512766887"><ele>243.66666666666669</ele><time>2026-05-01T16:54:48Z</time></trkpt><trkpt lat="43.14650810664197" lon="10.625970481272619"><ele>241.0</ele><time>2026-05-01T16:54:49Z</time></trkpt><trkpt lat="43.14649390124061" lon="10.625851957145628"><ele>238.33333333333334</ele><time>2026-05-01T16:54:50Z</time></trkpt><trkpt lat="43.146481843808594" lon="10.625753558776786"><ele>235.66666666666669</ele><time>2026-05-01T16:54:51Z</time></trkpt><trkpt lat="43.14647685830821" lon="10.625642820890778"><ele>233.0</ele><time>2026-05-01T16:54:52Z</time></trkpt><trkpt lat="43.1465005297934" lon="10.62549799831074"><ele>234.50000000000003</ele><time>2026-05-01T16:54:54Z</time></trkpt><trkpt lat="43.14656298642832" lon="10.625415581691811"><ele>236.0</ele><time>2026-05-01T16:54:56Z</time></trkpt><trkpt lat="43.14663385648713" lon="10.625437423346975"><ele>237.5</ele><time>2026-05-01T16:54:57Z</time></trkpt><trkpt lat="43.1466953622663" lon="10.625471381550025"><ele>239.0</ele><time>2026-05-01T16:54:58Z</time></trkpt><trkpt lat="43.14675014473129" lon="10.62552391865013"><ele>240.50000000000003</ele><time>2026-05-01T16:54:59Z</time></trkpt><trkpt lat="43.1468379446433" lon="10.625566602349716"><ele>242.0</ele><time>2026-05-01T16:55:00Z</time></trkpt><trkpt lat="43.14690399294195" lon="10.625640860517624"><ele>242.00000000000003</ele><time>2026-05-01T16:55:01Z</time></trkpt><trkpt lat="43.14697149031262" lon="10.62570465029294"><ele>242.0</ele><time>2026-05-01T16:55:02Z</time></trkpt><trkpt lat="43.14703680095072" lon="10.62574811962462"><ele>242.0</ele><time>2026-05-01T16:55:03Z</time></trkpt><trkpt lat="43.14711328457656" lon="10.625791432786011"><ele>242.0</ele><time>2026-05-01T16:55:04Z</time></trkpt><trkpt lat="43.14720533574067" lon="10.625819257002068"><ele>242.00000000000003</ele><time>2026-05-01T16:55:05Z</time></trkpt><trkpt lat="43.147285460426744" lon="10.625859354945785"><ele>242.0</ele><time>2026-05-01T16:55:06Z</time></trkpt><trkpt lat="43.14736616360875" lon="10.625885315779648"><ele>240.6</ele><time>2026-05-01T16:55:07Z</time></trkpt><trkpt lat="43.147434892387224" lon="10.625887536321773"><ele>239.2</ele><time>2026-05-01T16:55:08Z</time></trkpt><trkpt lat="43.14749801705523" lon="10.625932531553818"><ele>237.8</ele><time>2026-05-01T16:55:09Z</time></trkpt><trkpt lat="43.14762032815893" lon="10.625917567612566"><ele>236.4</ele><time>2026-05-01T16:55:11Z</time></trkpt><trkpt lat="43.147715135390804" lon="10.625837499308359"><ele>235.0</ele><time>2026-05-01T16:55:12Z</time></trkpt><trkpt lat="43.147799160245256" lon="10.625763674287535"><ele>234.99999999999997</ele><time>2026-05-01T16:55:13Z</time></trkpt><trkpt lat="43.14786432389433" lon="10.625702814903937"><ele>235.0</ele><time>2026-05-01T16:55:14Z</time></trkpt><trkpt lat="43.147932180085675" lon="10.625649861872372"><ele>235.0</ele><time>2026-05-01T16:55:15Z</time></trkpt><trkpt lat="43.14801550479238" lon="10.625658414547047"><ele>235.0</ele><time>2026-05-01T16:55:16Z</time></trkpt><trkpt lat="43.14810383600724" lon="10.625691306772206"><ele>234.99999999999997</ele><time>2026-05-01T16:55:17Z</time></trkpt><trkpt lat="43.14817936976892" lon="10.625742135729306"><ele>235.0</ele><time>2026-05-01T16:55:18Z</time></trkpt><trkpt lat="43.14824592312257" lon="10.625793396453425"><ele>235.33333333333331</ele><time>2026-05-01T16:55:19Z</time></trkpt><trkpt lat="43.14830918813571" lon="10.625833113855604"><ele>235.66666666666666</ele><time>2026-05-01T16:55:20Z</time></trkpt><trkpt lat="43.14837466753347" lon="10.625868700884302"><ele>236.0</ele><time>2026-05-01T16:55:21Z</time></trkpt><trkpt lat="43.148441773897474" lon="10.62584261432243"><ele>236.33333333333331</ele><time>2026-05-01T16:55:22Z</time></trkpt><trkpt lat="43.14849522029815" lon="10.62573811432174"><ele>236.66666666666666</ele><time>2026-05-01T16:55:23Z</time></trkpt><trkpt lat="43.14851963754794" lon="10.62560563987338"><ele>237.0</ele><time>2026-05-01T16:55:24Z</time></trkpt><trkpt lat="43.14845440241121" lon="10.62542504235692"><ele>236.0</ele><time>2026-05-01T16:55:25Z</time></trkpt><trkpt lat="43.14840121446459" lon="10.625286228827658"><ele>235.0</ele><time>2026-05-01T16:55:26Z</time></trkpt><trkpt lat="43.14833757075648" lon="10.625162830549238"><ele>234.0</ele><time>2026-05-01T16:55:27Z</time></trkpt><trkpt lat="43.148228034295855" lon="10.625058596443651"><ele>233.0</ele><time>2026-05-01T16:55:28Z</time></trkpt><trkpt lat="43.14815712541582" lon="10.624968596714487"><ele>230.66666666666669</ele><time>2026-05-01T16:55:29Z</time></trkpt><trkpt lat="43.148138502076776" lon="10.624861516174931"><ele>228.33333333333334</ele><time>2026-05-01T16:55:30Z</time></trkpt><trkpt lat="43.14812434383692" lon="10.624754519880607"><ele>226.0</ele><time>2026-05-01T16:55:31Z</time></trkpt><trkpt lat="43.148112557322" lon="10.6246403061799"><ele>223.66666666666669</ele><time>2026-05-01T16:55:32Z</time></trkpt><trkpt lat="43.148114797025926" lon="10.624524844698293"><ele>221.33333333333334</ele><time>2026-05-01T16:55:33Z</time></trkpt><trkpt lat="43.14813621833094" lon="10.624409337693677"><ele>219.0</ele><time>2026-05-01T16:55:34Z</time></trkpt><trkpt lat="43.14816999282873" lon="10.624320108260005"><ele>219.6</ele><time>2026-05-01T16:55:35Z</time></trkpt><trkpt lat="43.14820208137522" lon="10.624230089392313"><ele>220.2</ele><time>2026-05-01T16:55:36Z</time></trkpt><trkpt lat="43.14827153105623" lon="10.624153019324359"><ele>220.79999999999998</ele><time>2026-05-01T16:55:37Z</time></trkpt><trkpt lat="43.14838056027938" lon="10.624090209821729"><ele>221.39999999999998</ele><time>2026-05-01T16:55:38Z</time></trkpt><trkpt lat="43.148462249652745" lon="10.623964508803759"><ele>222.0</ele><time>2026-05-01T16:55:39Z</time></trkpt><trkpt lat="43.148534087966276" lon="10.623863254493067"><ele>222.0</ele><time>2026-05-01T16:55:40Z</time></trkpt><trkpt lat="43.14860183124652" lon="10.62377560887794"><ele>222.0</ele><time>2026-05-01T16:55:41Z</time></trkpt><trkpt lat="43.14866664038328" lon="10.62369723336436"><ele>222.0</ele><time>2026-05-01T16:55:42Z</time></trkpt><trkpt lat="43.14873483252429" lon="10.62363712324582"><ele>222.0</ele><time>2026-05-01T16:55:43Z</time></trkpt><trkpt lat="43.1488182430077" lon="10.623597319861412"><ele>222.0</ele><time>2026-05-01T16:55:44Z</time></trkpt><trkpt lat="43.148914665399325" lon="10.623568530325215"><ele>222.0</ele><time>2026-05-01T16:55:45Z</time></trkpt><trkpt lat="43.149014232784715" lon="10.623536042153486"><ele>221.0</ele><time>2026-05-01T16:55:46Z</time></trkpt><trkpt lat="43.149120006968054" lon="10.623503566245331"><ele>220.0</ele><time>2026-05-01T16:55:47Z</time></trkpt><trkpt lat="43.149247024508696" lon="10.623464811961442"><ele>219.0</ele><time>2026-05-01T16:55:48Z</time></trkpt><trkpt lat="43.14938473063435" lon="10.623421616941178"><ele>218.0</ele><time>2026-05-01T16:55:49Z</time></trkpt><trkpt lat="43.14949189405333" lon="10.623380028472026"><ele>218.0</ele><time>2026-05-01T16:55:50Z</time></trkpt><trkpt lat="43.149563004453334" lon="10.623342496272683"><ele>218.0</ele><time>2026-05-01T16:55:51Z</time></trkpt><trkpt lat="43.14965488471239" lon="10.623221364476546"><ele>218.0</ele><time>2026-05-01T16:55:53Z</time></trkpt><trkpt lat="43.14961731884866" lon="10.623058309438553"><ele>218.0</ele><time>2026-05-01T16:55:54Z</time></trkpt><trkpt lat="43.14961246016676" lon="10.622908954115832"><ele>218.0</ele><time>2026-05-01T16:55:55Z</time></trkpt><trkpt lat="43.149626969974996" lon="10.622788530075402"><ele>213.8</ele><time>2026-05-01T16:55:56Z</time></trkpt><trkpt lat="43.14964889282853" lon="10.622701272339668"><ele>209.60000000000002</ele><time>2026-05-01T16:55:57Z</time></trkpt><trkpt lat="43.14969248975874" lon="10.622524878306509"><ele>205.39999999999998</ele><time>2026-05-01T16:55:59Z</time></trkpt><trkpt lat="43.14974973423986" lon="10.622417823180726"><ele>201.2</ele><time>2026-05-01T16:56:00Z</time></trkpt><trkpt lat="43.14979212952887" lon="10.622284249466778"><ele>197.0</ele><time>2026-05-01T16:56:01Z</time></trkpt><trkpt lat="43.14982996254334" lon="10.622154931129664"><ele>197.0</ele><time>2026-05-01T16:56:02Z</time></trkpt><trkpt lat="43.149873108826185" lon="10.622048859934521"><ele>197.0</ele><time>2026-05-01T16:56:03Z</time></trkpt><trkpt lat="43.149953404721096" lon="10.62197954006557"><ele>197.0</ele><time>2026-05-01T16:56:05Z</time></trkpt><trkpt lat="43.15009343971203" lon="10.622034466383298"><ele>197.0</ele><time>2026-05-01T16:56:07Z</time></trkpt><trkpt lat="43.15017852929366" lon="10.622096811617887"><ele>197.0</ele><time>2026-05-01T16:56:08Z</time></trkpt><trkpt lat="43.15024919539984" lon="10.622109557392628"><ele>198.8</ele><time>2026-05-01T16:56:09Z</time></trkpt><trkpt lat="43.15033435949056" lon="10.622089019939317"><ele>200.6</ele><time>2026-05-01T16:56:10Z</time></trkpt><trkpt lat="43.15041816615679" lon="10.6220322481696"><ele>202.4</ele><time>2026-05-01T16:56:11Z</time></trkpt><trkpt lat="43.15051207221193" lon="10.622000524988794"><ele>204.20000000000002</ele><time>2026-05-01T16:56:12Z</time></trkpt><trkpt lat="43.15059468321923" lon="10.621933781190886"><ele>206.0</ele><time>2026-05-01T16:56:13Z</time></trkpt><trkpt lat="43.150679992694045" lon="10.621852807776854"><ele>210.25</ele><time>2026-05-01T16:56:14Z</time></trkpt><trkpt lat="43.15076377488142" lon="10.621753842796076"><ele>214.5</ele><time>2026-05-01T16:56:15Z</time></trkpt><trkpt lat="43.15084203500639" lon="10.621615789437906"><ele>218.75</ele><time>2026-05-01T16:56:16Z</time></trkpt><trkpt lat="43.150899600083335" lon="10.62145134664356"><ele>223.0</ele><time>2026-05-01T16:56:17Z</time></trkpt><trkpt lat="43.1509408039537" lon="10.621332054830363"><ele>222.99999999999997</ele><time>2026-05-01T16:56:18Z</time></trkpt><trkpt lat="43.15098042419956" lon="10.621235222613016"><ele>223.0</ele><time>2026-05-01T16:56:19Z</time></trkpt><trkpt lat="43.15103120628815" lon="10.62118114404291"><ele>223.0</ele><time>2026-05-01T16:56:20Z</time></trkpt><trkpt lat="43.151116786943085" lon="10.621129758621217"><ele>223.0</ele><time>2026-05-01T16:56:21Z</time></trkpt><trkpt lat="43.151210655428414" lon="10.621114321787203"><ele>222.99999999999997</ele><time>2026-05-01T16:56:22Z</time></trkpt><trkpt lat="43.15131239779025" lon="10.621118295601669"><ele>223.0</ele><time>2026-05-01T16:56:23Z</time></trkpt><trkpt lat="43.151409387445376" lon="10.62114809620759"><ele>222.99999999999997</ele><time>2026-05-01T16:56:24Z</time></trkpt><trkpt lat="43.151491859425995" lon="10.621208865688551"><ele>223.0</ele><time>2026-05-01T16:56:25Z</time></trkpt><trkpt lat="43.15156050403921" lon="10.62128537058982"><ele>223.0</ele><time>2026-05-01T16:56:26Z</time></trkpt><trkpt lat="43.151619034846476" lon="10.621373242499905"><ele>223.0</ele><time>2026-05-01T16:56:27Z</time></trkpt><trkpt lat="43.1516653535636" lon="10.62147259807255"><ele>222.99999999999997</ele><time>2026-05-01T16:56:28Z</time></trkpt><trkpt lat="43.15167641469111" lon="10.621583713795896"><ele>223.0</ele><time>2026-05-01T16:56:29Z</time></trkpt><trkpt lat="43.151664967342704" lon="10.621717285567449"><ele>223.4</ele><time>2026-05-01T16:56:30Z</time></trkpt><trkpt lat="43.15167571797878" lon="10.621877139762422"><ele>223.8</ele><time>2026-05-01T16:56:31Z</time></trkpt><trkpt lat="43.15169112411289" lon="10.62201730522017"><ele>224.2</ele><time>2026-05-01T16:56:32Z</time></trkpt><trkpt lat="43.15170676643777" lon="10.622143786156316"><ele>224.6</ele><time>2026-05-01T16:56:33Z</time></trkpt><trkpt lat="43.151728233761375" lon="10.622247158703992"><ele>225.0</ele><time>2026-05-01T16:56:34Z</time></trkpt><trkpt lat="43.15179326244325" lon="10.622342917124023"><ele>225.0</ele><time>2026-05-01T16:56:36Z</time></trkpt><trkpt lat="43.151886572649545" lon="10.622368553163472"><ele>225.0</ele><time>2026-05-01T16:56:37Z</time></trkpt><trkpt lat="43.151964277496816" lon="10.622261012413764"><ele>225.0</ele><time>2026-05-01T16:56:38Z</time></trkpt><trkpt lat="43.151975900065096" lon="10.622097069669316"><ele>225.0</ele><time>2026-05-01T16:56:39Z</time></trkpt><trkpt lat="43.15200923363183" lon="10.621971779146056"><ele>225.0</ele><time>2026-05-01T16:56:40Z</time></trkpt><trkpt lat="43.15205088608681" lon="10.621844398069358"><ele>225.0</ele><time>2026-05-01T16:56:41Z</time></trkpt><trkpt lat="43.152113145457854" lon="10.621692049525002"><ele>225.0</ele><time>2026-05-01T16:56:42Z</time></trkpt><trkpt lat="43.152186422314884" lon="10.621518345155158"><ele>225.0</ele><time>2026-05-01T16:56:43Z</time></trkpt><trkpt lat="43.15223889157755" lon="10.621348760362544"><ele>225.0</ele><time>2026-05-01T16:56:44Z</time></trkpt><trkpt lat="43.15232040039903" lon="10.621194232674135"><ele>223.0</ele><time>2026-05-01T16:56:45Z</time></trkpt><trkpt lat="43.15237206588042" lon="10.621040255117576"><ele>221.0</ele><time>2026-05-01T16:56:46Z</time></trkpt><trkpt lat="43.15241353357151" lon="10.620911250352991"><ele>219.0</ele><time>2026-05-01T16:56:47Z</time></trkpt><trkpt lat="43.15244922469952" lon="10.620783912278954"><ele>217.0</ele><time>2026-05-01T16:56:48Z</time></trkpt><trkpt lat="43.15250752821406" lon="10.620684450842118"><ele>215.0</ele><time>2026-05-01T16:56:49Z</time></trkpt><trkpt lat="43.15258638742306" lon="10.620626066132075"><ele>215.0</ele><time>2026-05-01T16:56:50Z</time></trkpt><trkpt lat="43.15269134056177" lon="10.62057853066487"><ele>215.0</ele><time>2026-05-01T16:56:52Z</time></trkpt><trkpt lat="43.15278327937342" lon="10.620635261351087"><ele>215.0</ele><time>2026-05-01T16:56:53Z</time></trkpt><trkpt lat="43.15286902981554" lon="10.620651359534618"><ele>215.0</ele><time>2026-05-01T16:56:54Z</time></trkpt><trkpt lat="43.152975066569" lon="10.620671621192496"><ele>215.0</ele><time>2026-05-01T16:56:56Z</time></trkpt><trkpt lat="43.15308565733554" lon="10.620676225263106"><ele>215.00000000000003</ele><time>2026-05-01T16:56:58Z</time></trkpt><trkpt lat="43.15315038660625" lon="10.620693992366059"><ele>215.0</ele><time>2026-05-01T16:56:59Z</time></trkpt><trkpt lat="43.15322696078401" lon="10.62072075867481"><ele>215.0</ele><time>2026-05-01T16:57:00Z</time></trkpt><trkpt lat="43.153306179703684" lon="10.62077441014544"><ele>215.0</ele><time>2026-05-01T16:57:01Z</time></trkpt><trkpt lat="43.153386590963365" lon="10.620839540612984"><ele>215.00000000000003</ele><time>2026-05-01T16:57:02Z</time></trkpt><trkpt lat="43.1534540270153" lon="10.620919716861101"><ele>215.0</ele><time>2026-05-01T16:57:03Z</time></trkpt><trkpt lat="43.15351454712543" lon="10.621024454831385"><ele>215.8</ele><time>2026-05-01T16:57:04Z</time></trkpt><trkpt lat="43.153571737319155" lon="10.621141451922862"><ele>216.6</ele><time>2026-05-01T16:57:05Z</time></trkpt><trkpt lat="43.153620279933115" lon="10.621259970050687"><ele>217.39999999999998</ele><time>2026-05-01T16:57:06Z</time></trkpt><trkpt lat="43.1536609776606" lon="10.621358979567853"><ele>218.2</ele><time>2026-05-01T16:57:07Z</time></trkpt><trkpt lat="43.15371039866681" lon="10.621428287048142"><ele>219.0</ele><time>2026-05-01T16:57:08Z</time></trkpt><trkpt lat="43.153814349997894" lon="10.621481912277968"><ele>219.0</ele><time>2026-05-01T16:57:10Z</time></trkpt><trkpt lat="43.153900818758835" lon="10.621419592494728"><ele>219.0</ele><time>2026-05-01T16:57:12Z</time></trkpt><trkpt lat="43.153936774582014" lon="10.621310605669645"><ele>219.0</ele><time>2026-05-01T16:57:13Z</time></trkpt><trkpt lat="43.15393549889615" lon="10.621178705399794"><ele>219.0</ele><time>2026-05-01T16:57:14Z</time></trkpt><trkpt lat="43.15395367360222" lon="10.621068855898047"><ele>219.0</ele><time>2026-05-01T16:57:15Z</time></trkpt><trkpt lat="43.15397240513499" lon="10.620957558738413"><ele>219.0</ele><time>2026-05-01T16:57:16Z</time></trkpt><trkpt lat="43.15398720027347" lon="10.620863355179978"><ele>219.0</ele><time>2026-05-01T16:57:17Z</time></trkpt><trkpt lat="43.154002135129126" lon="10.620759147147112"><ele>219.0</ele><time>2026-05-01T16:57:18Z</time></trkpt><trkpt lat="43.154011051758445" lon="10.620626157298554"><ele>219.0</ele><time>2026-05-01T16:57:19Z</time></trkpt><trkpt lat="43.15397522640657" lon="10.620494559880807"><ele>219.0</ele><time>2026-05-01T16:57:20Z</time></trkpt><trkpt lat="43.15397090048387" lon="10.620384737964196"><ele>219.0</ele><time>2026-05-01T16:57:21Z</time></trkpt><trkpt lat="43.15396926649169" lon="10.620296582177216"><ele>219.0</ele><time>2026-05-01T16:57:22Z</time></trkpt><trkpt lat="43.15397912034613" lon="10.620200015925615"><ele>219.79999999999998</ele><time>2026-05-01T16:57:23Z</time></trkpt><trkpt lat="43.153992531674895" lon="10.620081853225367"><ele>220.59999999999997</ele><time>2026-05-01T16:57:24Z</time></trkpt><trkpt lat="43.15401055433415" lon="10.619947779080261"><ele>221.4</ele><time>2026-05-01T16:57:25Z</time></trkpt><trkpt lat="43.154030147164114" lon="10.619816734751225"><ele>222.2</ele><time>2026-05-01T16:57:26Z</time></trkpt><trkpt lat="43.154047644142295" lon="10.619694278276125"><ele>223.0</ele><time>2026-05-01T16:57:27Z</time></trkpt><trkpt lat="43.154059834182824" lon="10.619584157718684"><ele>222.2</ele><time>2026-05-01T16:57:28Z</time></trkpt><trkpt lat="43.15405318822126" lon="10.619465479888213"><ele>221.4</ele><time>2026-05-01T16:57:29Z</time></trkpt><trkpt lat="43.15405538930899" lon="10.619334088157128"><ele>220.59999999999997</ele><time>2026-05-01T16:57:30Z</time></trkpt><trkpt lat="43.1540548211118" lon="10.619189704962892"><ele>219.79999999999998</ele><time>2026-05-01T16:57:31Z</time></trkpt><trkpt lat="43.15404417206801" lon="10.61904335185035"><ele>219.0</ele><time>2026-05-01T16:57:32Z</time></trkpt><trkpt lat="43.15405177582186" lon="10.61890765964955"><ele>217.33333333333334</ele><time>2026-05-01T16:57:33Z</time></trkpt><trkpt lat="43.15403239851581" lon="10.618774431228056"><ele>215.66666666666669</ele><time>2026-05-01T16:57:34Z</time></trkpt><trkpt lat="43.15402901352308" lon="10.618641964199988"><ele>214.0</ele><time>2026-05-01T16:57:35Z</time></trkpt><trkpt lat="43.15405025690367" lon="10.618511552196871"><ele>212.33333333333334</ele><time>2026-05-01T16:57:36Z</time></trkpt><trkpt lat="43.154061330521714" lon="10.618407613147848"><ele>210.66666666666669</ele><time>2026-05-01T16:57:37Z</time></trkpt><trkpt lat="43.15407631586066" lon="10.618323164895074"><ele>209.0</ele><time>2026-05-01T16:57:38Z</time></trkpt><trkpt lat="43.15413628452168" lon="10.618190917502844"><ele>209.00000000000003</ele><time>2026-05-01T16:57:40Z</time></trkpt><trkpt lat="43.1542012229906" lon="10.618158241449565"><ele>209.0</ele><time>2026-05-01T16:57:41Z</time></trkpt><trkpt lat="43.15426556018686" lon="10.618102061272285"><ele>209.0</ele><time>2026-05-01T16:57:42Z</time></trkpt><trkpt lat="43.154340141657215" lon="10.618088591618953"><ele>209.0</ele><time>2026-05-01T16:57:43Z</time></trkpt><trkpt lat="43.15440610571955" lon="10.618152012555907"><ele>209.00000000000003</ele><time>2026-05-01T16:57:44Z</time></trkpt><trkpt lat="43.15451373826919" lon="10.618187125240715"><ele>209.0</ele><time>2026-05-01T16:57:45Z</time></trkpt><trkpt lat="43.154609579673455" lon="10.61818084760651"><ele>209.0</ele><time>2026-05-01T16:57:46Z</time></trkpt><trkpt lat="43.154695490476314" lon="10.618187471960084"><ele>209.0</ele><time>2026-05-01T16:57:47Z</time></trkpt><trkpt lat="43.15478548055853" lon="10.618139843193628"><ele>209.0</ele><time>2026-05-01T16:57:48Z</time></trkpt><trkpt lat="43.15487515457239" lon="10.618065473798177"><ele>209.0</ele><time>2026-05-01T16:57:49Z</time></trkpt><trkpt lat="43.15495871387756" lon="10.617965151901169"><ele>209.0</ele><time>2026-05-01T16:57:50Z</time></trkpt><trkpt lat="43.15502840345877" lon="10.617844457646273"><ele>207.79999999999998</ele><time>2026-05-01T16:57:51Z</time></trkpt><trkpt lat="43.15507042390098" lon="10.617700121864273"><ele>206.6</ele><time>2026-05-01T16:57:52Z</time></trkpt><trkpt lat="43.155124967625675" lon="10.617575141277253"><ele>205.4</ele><time>2026-05-01T16:57:53Z</time></trkpt><trkpt lat="43.155185436154284" lon="10.617462990325887"><ele>204.2</ele><time>2026-05-01T16:57:54Z</time></trkpt><trkpt lat="43.155259030583835" lon="10.617352961974827"><ele>203.0</ele><time>2026-05-01T16:57:55Z</time></trkpt><trkpt lat="43.155343313988695" lon="10.617235403204925"><ele>203.0</ele><time>2026-05-01T16:57:56Z</time></trkpt><trkpt lat="43.155424064442" lon="10.617121119728209"><ele>203.0</ele><time>2026-05-01T16:57:57Z</time></trkpt><trkpt lat="43.15548558924016" lon="10.617013102860382"><ele>203.0</ele><time>2026-05-01T16:57:58Z</time></trkpt><trkpt lat="43.155539266614426" lon="10.61692097977909"><ele>203.0</ele><time>2026-05-01T16:57:59Z</time></trkpt><trkpt lat="43.15560562017426" lon="10.616850762068395"><ele>203.0</ele><time>2026-05-01T16:58:00Z</time></trkpt><trkpt lat="43.15569698144982" lon="10.616837156643058"><ele>203.8</ele><time>2026-05-01T16:58:01Z</time></trkpt><trkpt lat="43.155774163825484" lon="10.616821786458917"><ele>204.60000000000002</ele><time>2026-05-01T16:58:02Z</time></trkpt><trkpt lat="43.1558439211918" lon="10.616832031224153"><ele>205.39999999999998</ele><time>2026-05-01T16:58:03Z</time></trkpt><trkpt lat="43.15597674483526" lon="10.616940648106507"><ele>206.2</ele><time>2026-05-01T16:58:05Z</time></trkpt><trkpt lat="43.156060550293766" lon="10.617053624460372"><ele>207.0</ele><time>2026-05-01T16:58:06Z</time></trkpt><trkpt lat="43.156161572389536" lon="10.61717679235021"><ele>207.0</ele><time>2026-05-01T16:58:07Z</time></trkpt><trkpt lat="43.156239813111775" lon="10.617301318151208"><ele>207.0</ele><time>2026-05-01T16:58:08Z</time></trkpt><trkpt lat="43.15631067678049" lon="10.617419289545637"><ele>207.0</ele><time>2026-05-01T16:58:09Z</time></trkpt><trkpt lat="43.156359200123774" lon="10.617537534185422"><ele>207.0</ele><time>2026-05-01T16:58:10Z</time></trkpt><trkpt lat="43.156397507579456" lon="10.61767419102696"><ele>207.0</ele><time>2026-05-01T16:58:11Z</time></trkpt><trkpt lat="43.15643212254485" lon="10.617796386597059"><ele>207.16666666666666</ele><time>2026-05-01T16:58:12Z</time></trkpt><trkpt lat="43.15648291400163" lon="10.617874189289287"><ele>207.33333333333331</ele><time>2026-05-01T16:58:13Z</time></trkpt><trkpt lat="43.1565212301066" lon="10.617945090002907"><ele>207.5</ele><time>2026-05-01T16:58:14Z</time></trkpt><trkpt lat="43.15659186640893" lon="10.617954812228813"><ele>207.66666666666666</ele><time>2026-05-01T16:58:15Z</time></trkpt><trkpt lat="43.15665331172918" lon="10.617935156508054"><ele>207.83333333333331</ele><time>2026-05-01T16:58:16Z</time></trkpt><trkpt lat="43.156699226848765" lon="10.617778706558797"><ele>208.0</ele><time>2026-05-01T16:58:17Z</time></trkpt><trkpt lat="43.15674984512869" lon="10.617642255098106"><ele>203.0</ele><time>2026-05-01T16:58:18Z</time></trkpt><trkpt lat="43.15681309314113" lon="10.617492589660593"><ele>198.0</ele><time>2026-05-01T16:58:19Z</time></trkpt><trkpt lat="43.156882084307966" lon="10.617352913010432"><ele>193.0</ele><time>2026-05-01T16:58:20Z</time></trkpt><trkpt lat="43.15695843697477" lon="10.617239877169759"><ele>188.0</ele><time>2026-05-01T16:58:21Z</time></trkpt><trkpt lat="43.15701600843981" lon="10.617140970041472"><ele>188.0</ele><time>2026-05-01T16:58:22Z</time></trkpt><trkpt lat="43.15706221039416" lon="10.61704381555877"><ele>188.0</ele><time>2026-05-01T16:58:23Z</time></trkpt><trkpt lat="43.15713004517529" lon="10.616999471657802"><ele>188.0</ele><time>2026-05-01T16:58:24Z</time></trkpt><trkpt lat="43.1571824191106" lon="10.616928040360484"><ele>188.0</ele><time>2026-05-01T16:58:25Z</time></trkpt><trkpt lat="43.157254397930586" lon="10.616876370689578"><ele>188.0</ele><time>2026-05-01T16:58:26Z</time></trkpt><trkpt lat="43.157319440609726" lon="10.616827649126419"><ele>188.0</ele><time>2026-05-01T16:58:27Z</time></trkpt><trkpt lat="43.15738973428216" lon="10.616805049528514"><ele>185.85714285714286</ele><time>2026-05-01T16:58:28Z</time></trkpt><trkpt lat="43.15744756261491" lon="10.616751916613298"><ele>183.71428571428572</ele><time>2026-05-01T16:58:29Z</time></trkpt><trkpt lat="43.157510450859185" lon="10.616726138894178"><ele>181.57142857142856</ele><time>2026-05-01T16:58:30Z</time></trkpt><trkpt lat="43.15757200430592" lon="10.616701061391403"><ele>179.42857142857144</ele><time>2026-05-01T16:58:31Z</time></trkpt><trkpt lat="43.15763267741526" lon="10.616669126100824"><ele>177.2857142857143</ele><time>2026-05-01T16:58:32Z</time></trkpt><trkpt lat="43.15769460005643" lon="10.616632952652088"><ele>175.14285714285714</ele><time>2026-05-01T16:58:33Z</time></trkpt><trkpt lat="43.157756444672145" lon="10.616588713291652"><ele>173.0</ele><time>2026-05-01T16:58:34Z</time></trkpt><trkpt lat="43.157823659788065" lon="10.616517778009534"><ele>173.0</ele><time>2026-05-01T16:58:35Z</time></trkpt><trkpt lat="43.15788529465778" lon="10.616440087883737"><ele>173.0</ele><time>2026-05-01T16:58:36Z</time></trkpt><trkpt lat="43.15794211333198" lon="10.616353774576709"><ele>173.0</ele><time>2026-05-01T16:58:37Z</time></trkpt><trkpt lat="43.157998773526224" lon="10.616271757770507"><ele>173.0</ele><time>2026-05-01T16:58:38Z</time></trkpt><trkpt lat="43.158054767492" lon="10.616202838537815"><ele>173.0</ele><time>2026-05-01T16:58:39Z</time></trkpt><trkpt lat="43.1581113579216" lon="10.616153490818448"><ele>173.0</ele><time>2026-05-01T16:58:40Z</time></trkpt><trkpt lat="43.15817577951833" lon="10.616115798348293"><ele>172.0</ele><time>2026-05-01T16:58:41Z</time></trkpt><trkpt lat="43.15824597491644" lon="10.616082284759472"><ele>171.0</ele><time>2026-05-01T16:58:42Z</time></trkpt><trkpt lat="43.15831913618023" lon="10.616048432059996"><ele>170.0</ele><time>2026-05-01T16:58:43Z</time></trkpt><trkpt lat="43.15839597136939" lon="10.616018289726671"><ele>169.0</ele><time>2026-05-01T16:58:44Z</time></trkpt><trkpt lat="43.158474106422716" lon="10.615989309125414"><ele>168.0</ele><time>2026-05-01T16:58:45Z</time></trkpt><trkpt lat="43.15856399325157" lon="10.616009244443287"><ele>167.0</ele><time>2026-05-01T16:58:46Z</time></trkpt><trkpt lat="43.158644833097405" lon="10.61601448610562"><ele>167.0</ele><time>2026-05-01T16:58:47Z</time></trkpt><trkpt lat="43.15872136395882" lon="10.616001762423945"><ele>167.0</ele><time>2026-05-01T16:58:48Z</time></trkpt><trkpt lat="43.15879040107239" lon="10.616018205944894"><ele>167.0</ele><time>2026-05-01T16:58:49Z</time></trkpt><trkpt lat="43.158861480642315" lon="10.616035209512479"><ele>167.0</ele><time>2026-05-01T16:58:50Z</time></trkpt><trkpt lat="43.15893912404652" lon="10.616061726610884"><ele>167.0</ele><time>2026-05-01T16:58:51Z</time></trkpt><trkpt lat="43.1590178376902" lon="10.616098596092625"><ele>167.0</ele><time>2026-05-01T16:58:52Z</time></trkpt><trkpt lat="43.15908554116855" lon="10.616152457795442"><ele>167.33333333333331</ele><time>2026-05-01T16:58:53Z</time></trkpt><trkpt lat="43.15914852544839" lon="10.61616975498296"><ele>167.66666666666666</ele><time>2026-05-01T16:58:54Z</time></trkpt><trkpt lat="43.159214871664666" lon="10.616165365690456"><ele>168.0</ele><time>2026-05-01T16:58:55Z</time></trkpt><trkpt lat="43.159279839671214" lon="10.61616124571989"><ele>168.33333333333334</ele><time>2026-05-01T16:58:56Z</time></trkpt><trkpt lat="43.15937994183544" lon="10.615980797917658"><ele>168.66666666666669</ele><time>2026-05-01T16:58:58Z</time></trkpt><trkpt lat="43.15945085779715" lon="10.615917630811644"><ele>169.0</ele><time>2026-05-01T16:58:59Z</time></trkpt><trkpt lat="43.159531614993774" lon="10.615840781978712"><ele>169.0</ele><time>2026-05-01T16:59:00Z</time></trkpt><trkpt lat="43.159625125903666" lon="10.615764151093886"><ele>169.0</ele><time>2026-05-01T16:59:01Z</time></trkpt><trkpt lat="43.15972758139357" lon="10.615673922675203"><ele>169.0</ele><time>2026-05-01T16:59:02Z</time></trkpt><trkpt lat="43.15983301377327" lon="10.61558620681241"><ele>169.0</ele><time>2026-05-01T16:59:03Z</time></trkpt><trkpt lat="43.159929724951674" lon="10.615505423829983"><ele>169.2</ele><time>2026-05-01T16:59:04Z</time></trkpt><trkpt lat="43.160024138427985" lon="10.61542997801651"><ele>169.39999999999998</ele><time>2026-05-01T16:59:05Z</time></trkpt><trkpt lat="43.16011030306364" lon="10.615353320699281"><ele>169.6</ele><time>2026-05-01T16:59:06Z</time></trkpt><trkpt lat="43.16019352938569" lon="10.61527766208654"><ele>169.8</ele><time>2026-05-01T16:59:07Z</time></trkpt><trkpt lat="43.16027545988699" lon="10.615207194065652"><ele>170.0</ele><time>2026-05-01T16:59:08Z</time></trkpt><trkpt lat="43.1603520901224" lon="10.615140599188138"><ele>167.6</ele><time>2026-05-01T16:59:09Z</time></trkpt><trkpt lat="43.160416954288074" lon="10.615094515453142"><ele>165.2</ele><time>2026-05-01T16:59:10Z</time></trkpt><trkpt lat="43.16051219480261" lon="10.615046503797899"><ele>162.8</ele><time>2026-05-01T16:59:12Z</time></trkpt><trkpt lat="43.160586652341" lon="10.615010033052762"><ele>160.4</ele><time>2026-05-01T16:59:20Z</time></trkpt><trkpt lat="43.16056879037146" lon="10.614853037457227"><ele>158.0</ele><time>2026-05-01T16:59:21Z</time></trkpt><trkpt lat="43.160558866580224" lon="10.614729149624292"><ele>158.0</ele><time>2026-05-01T16:59:22Z</time></trkpt><trkpt lat="43.16055320930414" lon="10.614591210119082"><ele>158.0</ele><time>2026-05-01T16:59:23Z</time></trkpt><trkpt lat="43.1605477767972" lon="10.614441195652743"><ele>158.0</ele><time>2026-05-01T16:59:24Z</time></trkpt><trkpt lat="43.16054348752888" lon="10.614290371592746"><ele>158.0</ele><time>2026-05-01T16:59:25Z</time></trkpt><trkpt lat="43.160538992556695" lon="10.614159411208108"><ele>158.0</ele><time>2026-05-01T16:59:26Z</time></trkpt><trkpt lat="43.16053568557977" lon="10.614018179364383"><ele>157.6</ele><time>2026-05-01T16:59:27Z</time></trkpt><trkpt lat="43.160532009546074" lon="10.613885257223124"><ele>157.20000000000002</ele><time>2026-05-01T16:59:28Z</time></trkpt><trkpt lat="43.16052561833023" lon="10.61375401590492"><ele>156.8</ele><time>2026-05-01T16:59:29Z</time></trkpt><trkpt lat="43.160520491187675" lon="10.613624243391339"><ele>156.4</ele><time>2026-05-01T16:59:30Z</time></trkpt><trkpt lat="43.1605185512413" lon="10.613505563674323"><ele>156.0</ele><time>2026-05-01T16:59:31Z</time></trkpt><trkpt lat="43.16050997792707" lon="10.613376674434459"><ele>157.0</ele><time>2026-05-01T16:59:32Z</time></trkpt><trkpt lat="43.160483181979195" lon="10.613249105015782"><ele>158.0</ele><time>2026-05-01T16:59:33Z</time></trkpt><trkpt lat="43.16042916326542" lon="10.613125224928828"><ele>159.0</ele><time>2026-05-01T16:59:34Z</time></trkpt><trkpt lat="43.1603669242034" lon="10.61300693240803"><ele>160.0</ele><time>2026-05-01T16:59:35Z</time></trkpt><trkpt lat="43.16030875412317" lon="10.6128947200966"><ele>161.0</ele><time>2026-05-01T16:59:36Z</time></trkpt><trkpt lat="43.160261018718224" lon="10.61279261678393"><ele>162.20000000000002</ele><time>2026-05-01T16:59:37Z</time></trkpt><trkpt lat="43.16020916508997" lon="10.612689434736188"><ele>163.4</ele><time>2026-05-01T16:59:38Z</time></trkpt><trkpt lat="43.160146571270516" lon="10.61260083373767"><ele>164.6</ele><time>2026-05-01T16:59:39Z</time></trkpt><trkpt lat="43.160085370441834" lon="10.612523498670646"><ele>165.8</ele><time>2026-05-01T16:59:40Z</time></trkpt><trkpt lat="43.16001248668738" lon="10.61243847144791"><ele>167.0</ele><time>2026-05-01T16:59:41Z</time></trkpt><trkpt lat="43.15993406548203" lon="10.61233879274895"><ele>167.0</ele><time>2026-05-01T16:59:42Z</time></trkpt><trkpt lat="43.1598787503396" lon="10.612211975525646"><ele>167.0</ele><time>2026-05-01T16:59:43Z</time></trkpt><trkpt lat="43.15982620610433" lon="10.612076269644279"><ele>167.0</ele><time>2026-05-01T16:59:44Z</time></trkpt><trkpt lat="43.15977959318767" lon="10.611937658859816"><ele>167.0</ele><time>2026-05-01T16:59:45Z</time></trkpt><trkpt lat="43.15975043395524" lon="10.611792745299462"><ele>167.0</ele><time>2026-05-01T16:59:46Z</time></trkpt><trkpt lat="43.159731210218524" lon="10.611642705996825"><ele>164.6</ele><time>2026-05-01T16:59:47Z</time></trkpt><trkpt lat="43.15972019409972" lon="10.611507556141023"><ele>162.2</ele><time>2026-05-01T16:59:48Z</time></trkpt><trkpt lat="43.15971032973013" lon="10.611369775300096"><ele>159.8</ele><time>2026-05-01T16:59:49Z</time></trkpt><trkpt lat="43.15970657063136" lon="10.611220764738228"><ele>157.4</ele><time>2026-05-01T16:59:50Z</time></trkpt><trkpt lat="43.15970494032393" lon="10.611101357417006"><ele>155.0</ele><time>2026-05-01T16:59:51Z</time></trkpt><trkpt lat="43.159715530901245" lon="10.610989344605276"><ele>154.5</ele><time>2026-05-01T16:59:52Z</time></trkpt><trkpt lat="43.159730217086356" lon="10.61088398044939"><ele>154.0</ele><time>2026-05-01T16:59:53Z</time></trkpt><trkpt lat="43.159754008523706" lon="10.610701125775295"><ele>153.5</ele><time>2026-05-01T16:59:55Z</time></trkpt><trkpt lat="43.159767646102225" lon="10.610603512433194"><ele>153.0</ele><time>2026-05-01T16:59:56Z</time></trkpt><trkpt lat="43.15978345134573" lon="10.610506217302493"><ele>152.5</ele><time>2026-05-01T16:59:57Z</time></trkpt><trkpt lat="43.15980042689218" lon="10.610400595303767"><ele>152.0</ele><time>2026-05-01T16:59:58Z</time></trkpt><trkpt lat="43.15982074537053" lon="10.610276698014982"><ele>151.33333333333331</ele><time>2026-05-01T16:59:59Z</time></trkpt><trkpt lat="43.15984013980331" lon="10.610158546914956"><ele>150.66666666666666</ele><time>2026-05-01T17:00:00Z</time></trkpt><trkpt lat="43.15986465130147" lon="10.610043669622243"><ele>150.0</ele><time>2026-05-01T17:00:01Z</time></trkpt><trkpt lat="43.159882512143895" lon="10.609937682042316"><ele>149.33333333333334</ele><time>2026-05-01T17:00:02Z</time></trkpt><trkpt lat="43.15990038065479" lon="10.60983873158874"><ele>148.66666666666669</ele><time>2026-05-01T17:00:03Z</time></trkpt><trkpt lat="43.15991200456868" lon="10.609746750078214"><ele>148.0</ele><time>2026-05-01T17:00:04Z</time></trkpt><trkpt lat="43.15992025360103" lon="10.609644597447796"><ele>151.0</ele><time>2026-05-01T17:00:05Z</time></trkpt><trkpt lat="43.159921024151075" lon="10.609548994613503"><ele>154.0</ele><time>2026-05-01T17:00:06Z</time></trkpt><trkpt lat="43.159921443914286" lon="10.609447361889446"><ele>157.0</ele><time>2026-05-01T17:00:07Z</time></trkpt><trkpt lat="43.15991781102884" lon="10.609318150310342"><ele>160.0</ele><time>2026-05-01T17:00:08Z</time></trkpt><trkpt lat="43.15989979909591" lon="10.609191648528968"><ele>163.0</ele><time>2026-05-01T17:00:09Z</time></trkpt><trkpt lat="43.159886503346186" lon="10.609046961035718"><ele>166.0</ele><time>2026-05-01T17:00:10Z</time></trkpt><trkpt lat="43.15987782380895" lon="10.608896641204884"><ele>166.0</ele><time>2026-05-01T17:00:11Z</time></trkpt><trkpt lat="43.15986692194478" lon="10.608744275264884"><ele>166.0</ele><time>2026-05-01T17:00:12Z</time></trkpt><trkpt lat="43.15986233260963" lon="10.608592142010798"><ele>166.0</ele><time>2026-05-01T17:00:13Z</time></trkpt><trkpt lat="43.15984876020515" lon="10.60846119613193"><ele>166.0</ele><time>2026-05-01T17:00:14Z</time></trkpt><trkpt lat="43.159840341088234" lon="10.608325618743384"><ele>166.0</ele><time>2026-05-01T17:00:15Z</time></trkpt><trkpt lat="43.15983823579357" lon="10.608196983082172"><ele>164.0</ele><time>2026-05-01T17:00:16Z</time></trkpt><trkpt lat="43.15984092551641" lon="10.608062906767879"><ele>162.0</ele><time>2026-05-01T17:00:17Z</time></trkpt><trkpt lat="43.15984267376332" lon="10.607919061621054"><ele>160.0</ele><time>2026-05-01T17:00:18Z</time></trkpt><trkpt lat="43.1598623150675" lon="10.607760556903377"><ele>158.0</ele><time>2026-05-01T17:00:19Z</time></trkpt><trkpt lat="43.1598920779557" lon="10.607602871898012"><ele>156.0</ele><time>2026-05-01T17:00:20Z</time></trkpt><trkpt lat="43.15991765228128" lon="10.607449837690536"><ele>156.0</ele><time>2026-05-01T17:00:21Z</time></trkpt><trkpt lat="43.15994045550928" lon="10.607317943987372"><ele>156.0</ele><time>2026-05-01T17:00:22Z</time></trkpt><trkpt lat="43.15997029505252" lon="10.6071882224632"><ele>156.0</ele><time>2026-05-01T17:00:23Z</time></trkpt><trkpt lat="43.15998788043687" lon="10.607060391535203"><ele>156.0</ele><time>2026-05-01T17:00:24Z</time></trkpt><trkpt lat="43.15997865197225" lon="10.606939227402023"><ele>156.0</ele><time>2026-05-01T17:00:25Z</time></trkpt><trkpt lat="43.15997657368087" lon="10.606824125404946"><ele>155.16666666666666</ele><time>2026-05-01T17:00:26Z</time></trkpt><trkpt lat="43.159989262327656" lon="10.606706253707971"><ele>154.33333333333334</ele><time>2026-05-01T17:00:27Z</time></trkpt><trkpt lat="43.1599717619273" lon="10.606595290054702"><ele>153.5</ele><time>2026-05-01T17:00:28Z</time></trkpt><trkpt lat="43.1599735719358" lon="10.606478593764066"><ele>152.66666666666669</ele><time>2026-05-01T17:00:29Z</time></trkpt><trkpt lat="43.15997338141992" lon="10.606349397028902"><ele>151.83333333333334</ele><time>2026-05-01T17:00:30Z</time></trkpt><trkpt lat="43.15996907554532" lon="10.606220218541333"><ele>151.0</ele><time>2026-05-01T17:00:31Z</time></trkpt><trkpt lat="43.15995754870521" lon="10.60609839679348"><ele>150.0</ele><time>2026-05-01T17:00:32Z</time></trkpt><trkpt lat="43.15995699837418" lon="10.605977455225975"><ele>149.0</ele><time>2026-05-01T17:00:33Z</time></trkpt><trkpt lat="43.159953475140256" lon="10.605863104529565"><ele>148.0</ele><time>2026-05-01T17:00:34Z</time></trkpt><trkpt lat="43.15995163724339" lon="10.605746571818297"><ele>147.0</ele><time>2026-05-01T17:00:35Z</time></trkpt><trkpt lat="43.15994632287707" lon="10.6056424988007"><ele>146.0</ele><time>2026-05-01T17:00:36Z</time></trkpt><trkpt lat="43.159949682303676" lon="10.605531962471439"><ele>145.0</ele><time>2026-05-01T17:00:37Z</time></trkpt><trkpt lat="43.15995484055513" lon="10.605405840596402"><ele>143.4</ele><time>2026-05-01T17:00:38Z</time></trkpt><trkpt lat="43.15994827608026" lon="10.605273985371511"><ele>141.8</ele><time>2026-05-01T17:00:39Z</time></trkpt><trkpt lat="43.15993520743387" lon="10.605148791813622"><ele>140.2</ele><time>2026-05-01T17:00:40Z</time></trkpt><trkpt lat="43.15990064428429" lon="10.605036805283294"><ele>138.6</ele><time>2026-05-01T17:00:41Z</time></trkpt><trkpt lat="43.15984343298878" lon="10.604939511815218"><ele>137.0</ele><time>2026-05-01T17:00:42Z</time></trkpt><trkpt lat="43.159764996439954" lon="10.60487248106679"><ele>136.33333333333331</ele><time>2026-05-01T17:00:43Z</time></trkpt><trkpt lat="43.15967826616979" lon="10.604841150471408"><ele>135.66666666666666</ele><time>2026-05-01T17:00:44Z</time></trkpt><trkpt lat="43.159589588258804" lon="10.60484633406925"><ele>135.0</ele><time>2026-05-01T17:00:45Z</time></trkpt><trkpt lat="43.159511269220545" lon="10.604878297212945"><ele>134.33333333333334</ele><time>2026-05-01T17:00:46Z</time></trkpt><trkpt lat="43.15944624326441" lon="10.604932119843326"><ele>133.66666666666669</ele><time>2026-05-01T17:00:47Z</time></trkpt><trkpt lat="43.159396585848555" lon="10.605005490342634"><ele>133.0</ele><time>2026-05-01T17:00:48Z</time></trkpt><trkpt lat="43.1593513895702" lon="10.605079416589327"><ele>133.0</ele><time>2026-05-01T17:00:49Z</time></trkpt><trkpt lat="43.15932791649026" lon="10.605186198936172"><ele>133.0</ele><time>2026-05-01T17:00:50Z</time></trkpt><trkpt lat="43.15932810702416" lon="10.605309629524687"><ele>133.0</ele><time>2026-05-01T17:00:51Z</time></trkpt><trkpt lat="43.1593636453695" lon="10.605433449840316"><ele>133.0</ele><time>2026-05-01T17:00:52Z</time></trkpt><trkpt lat="43.15939754942564" lon="10.605553103432477"><ele>133.0</ele><time>2026-05-01T17:00:53Z</time></trkpt><trkpt lat="43.15943130945562" lon="10.605672503915947"><ele>132.5</ele><time>2026-05-01T17:00:54Z</time></trkpt><trkpt lat="43.15945720079105" lon="10.605796318229187"><ele>132.0</ele><time>2026-05-01T17:00:55Z</time></trkpt><trkpt lat="43.159484145656414" lon="10.60591362338646"><ele>131.5</ele><time>2026-05-01T17:00:56Z</time></trkpt><trkpt lat="43.15949617721351" lon="10.606031146484954"><ele>131.0</ele><time>2026-05-01T17:00:57Z</time></trkpt><trkpt lat="43.15949931733771" lon="10.606145702589417"><ele>130.5</ele><time>2026-05-01T17:00:58Z</time></trkpt><trkpt lat="43.15950033417308" lon="10.606267728752652"><ele>130.0</ele><time>2026-05-01T17:00:59Z</time></trkpt><trkpt lat="43.1594863343418" lon="10.606393305976935"><ele>129.8</ele><time>2026-05-01T17:01:00Z</time></trkpt><trkpt lat="43.15947035406798" lon="10.606521433352569"><ele>129.6</ele><time>2026-05-01T17:01:01Z</time></trkpt><trkpt lat="43.15946245791804" lon="10.606652176006705"><ele>129.4</ele><time>2026-05-01T17:01:02Z</time></trkpt><trkpt lat="43.15943754868273" lon="10.606780716521676"><ele>129.2</ele><time>2026-05-01T17:01:03Z</time></trkpt><trkpt lat="43.159433357048314" lon="10.606912221395088"><ele>129.0</ele><time>2026-05-01T17:01:04Z</time></trkpt><trkpt lat="43.159430294239804" lon="10.607039202169686"><ele>129.0</ele><time>2026-05-01T17:01:05Z</time></trkpt><trkpt lat="43.15943030362689" lon="10.607158198281907"><ele>129.0</ele><time>2026-05-01T17:01:06Z</time></trkpt><trkpt lat="43.15943371426191" lon="10.607271366828225"><ele>129.0</ele><time>2026-05-01T17:01:07Z</time></trkpt><trkpt lat="43.15940299912916" lon="10.607390717444272"><ele>129.0</ele><time>2026-05-01T17:01:08Z</time></trkpt><trkpt lat="43.15936708421938" lon="10.607514475643622"><ele>129.0</ele><time>2026-05-01T17:01:09Z</time></trkpt><trkpt lat="43.15932561376362" lon="10.607642254207521"><ele>129.0</ele><time>2026-05-01T17:01:10Z</time></trkpt><trkpt lat="43.15928831920501" lon="10.60776433026961"><ele>129.0</ele><time>2026-05-01T17:01:11Z</time></trkpt><trkpt lat="43.15925417999388" lon="10.607880240589921"><ele>129.0</ele><time>2026-05-01T17:01:12Z</time></trkpt><trkpt lat="43.159218213731684" lon="10.60798103123241"><ele>129.0</ele><time>2026-05-01T17:01:13Z</time></trkpt><trkpt lat="43.15918066628789" lon="10.60805756047017"><ele>129.0</ele><time>2026-05-01T17:01:14Z</time></trkpt><trkpt lat="43.15914288829675" lon="10.608128640384"><ele>129.0</ele><time>2026-05-01T17:01:15Z</time></trkpt><trkpt lat="43.15909990221239" lon="10.608195038332685"><ele>128.66666666666666</ele><time>2026-05-01T17:01:16Z</time></trkpt><trkpt lat="43.1590055572145" lon="10.608301388886657"><ele>128.33333333333334</ele><time>2026-05-01T17:01:18Z</time></trkpt><trkpt lat="43.15894002581964" lon="10.608333769098818"><ele>128.0</ele><time>2026-05-01T17:01:19Z</time></trkpt><trkpt lat="43.158865358022744" lon="10.608333225955267"><ele>127.66666666666667</ele><time>2026-05-01T17:01:20Z</time></trkpt><trkpt lat="43.15879270544842" lon="10.608303374051681"><ele>127.33333333333334</ele><time>2026-05-01T17:01:21Z</time></trkpt><trkpt lat="43.15873165631347" lon="10.60822896591199"><ele>127.0</ele><time>2026-05-01T17:01:22Z</time></trkpt><trkpt lat="43.158695749176104" lon="10.608122213253383"><ele>127.0</ele><time>2026-05-01T17:01:23Z</time></trkpt><trkpt lat="43.15869327536856" lon="10.608003049068989"><ele>126.99999999999999</ele><time>2026-05-01T17:01:24Z</time></trkpt><trkpt lat="43.15872856535273" lon="10.607891066996135"><ele>126.99999999999999</ele><time>2026-05-01T17:01:25Z</time></trkpt><trkpt lat="43.15878935389011" lon="10.607796259274728"><ele>127.0</ele><time>2026-05-01T17:01:26Z</time></trkpt><trkpt lat="43.15885980450906" lon="10.607705723099325"><ele>127.0</ele><time>2026-05-01T17:01:27Z</time></trkpt><trkpt lat="43.15892402770018" lon="10.607618156690114"><ele>127.00000000000001</ele><time>2026-05-01T17:01:28Z</time></trkpt><trkpt lat="43.158984173702365" lon="10.607525534782551"><ele>127.0</ele><time>2026-05-01T17:01:29Z</time></trkpt><trkpt lat="43.159038881433744" lon="10.607429600905583"><ele>127.0</ele><time>2026-05-01T17:01:30Z</time></trkpt><trkpt lat="43.159078083253846" lon="10.607325465582875"><ele>127.0</ele><time>2026-05-01T17:01:31Z</time></trkpt><trkpt lat="43.159103178474226" lon="10.607215019566217"><ele>127.00000000000001</ele><time>2026-05-01T17:01:32Z</time></trkpt><trkpt lat="43.15911298518505" lon="10.607091968459565"><ele>127.0</ele><time>2026-05-01T17:01:33Z</time></trkpt><trkpt lat="43.1590989226736" lon="10.606958181763774"><ele>127.0</ele><time>2026-05-01T17:01:34Z</time></trkpt><trkpt lat="43.159075015369105" lon="10.606830074778575"><ele>126.99999999999999</ele><time>2026-05-01T17:01:35Z</time></trkpt><trkpt lat="43.159053593116084" lon="10.606716248741119"><ele>126.99999999999999</ele><time>2026-05-01T17:01:36Z</time></trkpt><trkpt lat="43.15902943850338" lon="10.606599142972502"><ele>127.0</ele><time>2026-05-01T17:01:37Z</time></trkpt><trkpt lat="43.159001167094914" lon="10.606482320795832"><ele>127.0</ele><time>2026-05-01T17:01:38Z</time></trkpt><trkpt lat="43.15896444080849" lon="10.606361940922358"><ele>122.25</ele><time>2026-05-01T17:01:39Z</time></trkpt><trkpt lat="43.158909167339104" lon="10.6062211399587"><ele>117.5</ele><time>2026-05-01T17:01:40Z</time></trkpt><trkpt lat="43.15883225593696" lon="10.606080568276866"><ele>112.75</ele><time>2026-05-01T17:01:41Z</time></trkpt><trkpt lat="43.158756360048244" lon="10.605963163533977"><ele>108.0</ele><time>2026-05-01T17:01:42Z</time></trkpt><trkpt lat="43.15868623224136" lon="10.605851086867077"><ele>107.80000000000001</ele><time>2026-05-01T17:01:43Z</time></trkpt><trkpt lat="43.158626819837956" lon="10.605733945157443"><ele>107.60000000000001</ele><time>2026-05-01T17:01:44Z</time></trkpt><trkpt lat="43.158570288660236" lon="10.605617000177961"><ele>107.39999999999999</ele><time>2026-05-01T17:01:45Z</time></trkpt><trkpt lat="43.15851797757688" lon="10.605504948133545"><ele>107.19999999999999</ele><time>2026-05-01T17:01:46Z</time></trkpt><trkpt lat="43.15847048961405" lon="10.605391848294348"><ele>107.0</ele><time>2026-05-01T17:01:47Z</time></trkpt><trkpt lat="43.1584192563883" lon="10.605269399274167"><ele>107.8</ele><time>2026-05-01T17:01:48Z</time></trkpt><trkpt lat="43.158372521343765" lon="10.605145502598303"><ele>108.6</ele><time>2026-05-01T17:01:49Z</time></trkpt><trkpt lat="43.158342432444634" lon="10.605020082026103"><ele>109.39999999999999</ele><time>2026-05-01T17:01:50Z</time></trkpt><trkpt lat="43.15833338663553" lon="10.604891727707702"><ele>110.19999999999999</ele><time>2026-05-01T17:01:51Z</time></trkpt><trkpt lat="43.158340436266805" lon="10.60476191367818"><ele>111.0</ele><time>2026-05-01T17:01:52Z</time></trkpt><trkpt lat="43.15836330166435" lon="10.604625074359907"><ele>109.0</ele><time>2026-05-01T17:01:53Z</time></trkpt><trkpt lat="43.158411952519366" lon="10.604493182729222"><ele>107.0</ele><time>2026-05-01T17:01:54Z</time></trkpt><trkpt lat="43.15848232049245" lon="10.604375715892873"><ele>105.0</ele><time>2026-05-01T17:01:55Z</time></trkpt><trkpt lat="43.15856528240976" lon="10.604264809870418"><ele>103.0</ele><time>2026-05-01T17:01:56Z</time></trkpt><trkpt lat="43.158641446594324" lon="10.604152869477678"><ele>101.0</ele><time>2026-05-01T17:01:57Z</time></trkpt><trkpt lat="43.15871198318748" lon="10.604041210431888"><ele>101.0</ele><time>2026-05-01T17:01:58Z</time></trkpt><trkpt lat="43.158779673285416" lon="10.603928882990555"><ele>101.0</ele><time>2026-05-01T17:01:59Z</time></trkpt><trkpt lat="43.158858458357535" lon="10.603805967604805"><ele>101.0</ele><time>2026-05-01T17:02:00Z</time></trkpt><trkpt lat="43.15896260230432" lon="10.603663100789362"><ele>101.0</ele><time>2026-05-01T17:02:01Z</time></trkpt><trkpt lat="43.1590881774386" lon="10.603535960838638"><ele>101.25</ele><time>2026-05-01T17:02:02Z</time></trkpt><trkpt lat="43.159183204224114" lon="10.603393274448399"><ele>101.5</ele><time>2026-05-01T17:02:03Z</time></trkpt><trkpt lat="43.1592915198318" lon="10.603279620710593"><ele>101.75</ele><time>2026-05-01T17:02:04Z</time></trkpt><trkpt lat="43.15938678760211" lon="10.603163769162716"><ele>102.0</ele><time>2026-05-01T17:02:05Z</time></trkpt><trkpt lat="43.15946777290864" lon="10.603059980716962"><ele>102.0</ele><time>2026-05-01T17:02:06Z</time></trkpt><trkpt lat="43.15953735229587" lon="10.602978249174479"><ele>102.0</ele><time>2026-05-01T17:02:07Z</time></trkpt><trkpt lat="43.15960756347723" lon="10.602923129636906"><ele>102.0</ele><time>2026-05-01T17:02:08Z</time></trkpt><trkpt lat="43.15969135322941" lon="10.602902524473077"><ele>102.0</ele><time>2026-05-01T17:02:09Z</time></trkpt><trkpt lat="43.159777337605554" lon="10.60291725575384"><ele>102.0</ele><time>2026-05-01T17:02:10Z</time></trkpt><trkpt lat="43.159856749884796" lon="10.602961092246952"><ele>102.0</ele><time>2026-05-01T17:02:11Z</time></trkpt><trkpt lat="43.159929955095635" lon="10.603028728239835"><ele>101.8</ele><time>2026-05-01T17:02:12Z</time></trkpt><trkpt lat="43.160003261691614" lon="10.603112105589176"><ele>101.6</ele><time>2026-05-01T17:02:13Z</time></trkpt><trkpt lat="43.160082124668605" lon="10.60319926720645"><ele>101.39999999999999</ele><time>2026-05-01T17:02:14Z</time></trkpt><trkpt lat="43.160154181198415" lon="10.603278956083866"><ele>101.19999999999999</ele><time>2026-05-01T17:02:15Z</time></trkpt><trkpt lat="43.1602307932864" lon="10.603358089126617"><ele>101.0</ele><time>2026-05-01T17:02:16Z</time></trkpt><trkpt lat="43.16032950312723" lon="10.603429392500434"><ele>100.99999999999999</ele><time>2026-05-01T17:02:17Z</time></trkpt><trkpt lat="43.16042159656924" lon="10.603486067699208"><ele>101.0</ele><time>2026-05-01T17:02:18Z</time></trkpt><trkpt lat="43.160509901860145" lon="10.603531291443836"><ele>101.0</ele><time>2026-05-01T17:02:19Z</time></trkpt><trkpt lat="43.16059587234439" lon="10.603556327553225"><ele>101.0</ele><time>2026-05-01T17:02:20Z</time></trkpt><trkpt lat="43.16067594077651" lon="10.603569238233193"><ele>100.99999999999999</ele><time>2026-05-01T17:02:21Z</time></trkpt><trkpt lat="43.16075665180559" lon="10.603582850103246"><ele>101.0</ele><time>2026-05-01T17:02:22Z</time></trkpt><trkpt lat="43.160837215106994" lon="10.60361053605323"><ele>101.6</ele><time>2026-05-01T17:02:23Z</time></trkpt><trkpt lat="43.16091471982951" lon="10.603662602722174"><ele>102.19999999999999</ele><time>2026-05-01T17:02:24Z</time></trkpt><trkpt lat="43.16096723378092" lon="10.603763197912187"><ele>102.80000000000001</ele><time>2026-05-01T17:02:25Z</time></trkpt><trkpt lat="43.161043904691915" lon="10.603841027099195"><ele>103.4</ele><time>2026-05-01T17:02:26Z</time></trkpt><trkpt lat="43.16110298448397" lon="10.603944291121993"><ele>104.0</ele><time>2026-05-01T17:02:27Z</time></trkpt><trkpt lat="43.16116310239946" lon="10.6040333894508"><ele>103.99999999999999</ele><time>2026-05-01T17:02:28Z</time></trkpt><trkpt lat="43.161222041677604" lon="10.604112266709025"><ele>104.0</ele><time>2026-05-01T17:02:29Z</time></trkpt><trkpt lat="43.161283611291985" lon="10.60417938318117"><ele>104.0</ele><time>2026-05-01T17:02:30Z</time></trkpt><trkpt lat="43.16135162880397" lon="10.604227708871308"><ele>104.0</ele><time>2026-05-01T17:02:31Z</time></trkpt><trkpt lat="43.1614246813191" lon="10.60425555960412"><ele>103.99999999999999</ele><time>2026-05-01T17:02:32Z</time></trkpt><trkpt lat="43.161511469498876" lon="10.604258154593055"><ele>104.0</ele><time>2026-05-01T17:02:33Z</time></trkpt><trkpt lat="43.161605252520204" lon="10.604238480260454"><ele>101.6</ele><time>2026-05-01T17:02:34Z</time></trkpt><trkpt lat="43.161701255182294" lon="10.60420174676607"><ele>99.2</ele><time>2026-05-01T17:02:35Z</time></trkpt><trkpt lat="43.16179351263963" lon="10.604144621249834"><ele>96.8</ele><time>2026-05-01T17:02:36Z</time></trkpt><trkpt lat="43.16187312256694" lon="10.604059272486188"><ele>94.39999999999999</ele><time>2026-05-01T17:02:37Z</time></trkpt><trkpt lat="43.16192581700346" lon="10.603933593528136"><ele>92.0</ele><time>2026-05-01T17:02:38Z</time></trkpt><trkpt lat="43.161963325700356" lon="10.603793587209262"><ele>89.6</ele><time>2026-05-01T17:02:39Z</time></trkpt><trkpt lat="43.1619995934232" lon="10.60365926101649"><ele>87.19999999999999</ele><time>2026-05-01T17:02:40Z</time></trkpt><trkpt lat="43.162042907334055" lon="10.603530881427409"><ele>84.8</ele><time>2026-05-01T17:02:41Z</time></trkpt><trkpt lat="43.16208345060943" lon="10.603408257010386"><ele>82.4</ele><time>2026-05-01T17:02:42Z</time></trkpt><trkpt lat="43.16212470945922" lon="10.603288620102143"><ele>80.0</ele><time>2026-05-01T17:02:43Z</time></trkpt><trkpt lat="43.16217160044081" lon="10.60317038878878"><ele>80.0</ele><time>2026-05-01T17:02:44Z</time></trkpt><trkpt lat="43.16223397857054" lon="10.603051051507158"><ele>80.0</ele><time>2026-05-01T17:02:45Z</time></trkpt><trkpt lat="43.16231557962065" lon="10.602949090439655"><ele>80.0</ele><time>2026-05-01T17:02:46Z</time></trkpt><trkpt lat="43.16239174442053" lon="10.602829422294445"><ele>80.0</ele><time>2026-05-01T17:02:47Z</time></trkpt><trkpt lat="43.16247980169738" lon="10.602733268672639"><ele>80.0</ele><time>2026-05-01T17:02:48Z</time></trkpt><trkpt lat="43.16258417939656" lon="10.602668079993025"><ele>79.4</ele><time>2026-05-01T17:02:49Z</time></trkpt><trkpt lat="43.16267914671338" lon="10.602574531244132"><ele>78.8</ele><time>2026-05-01T17:02:50Z</time></trkpt><trkpt lat="43.16278091322594" lon="10.602507123657315"><ele>78.2</ele><time>2026-05-01T17:02:51Z</time></trkpt><trkpt lat="43.162872712890405" lon="10.602442654427579"><ele>77.6</ele><time>2026-05-01T17:02:52Z</time></trkpt><trkpt lat="43.16295574073957" lon="10.602389485163924"><ele>77.0</ele><time>2026-05-01T17:02:53Z</time></trkpt><trkpt lat="43.16303502888678" lon="10.602341615844265"><ele>77.0</ele><time>2026-05-01T17:02:54Z</time></trkpt><trkpt lat="43.16311817649633" lon="10.602332190335195"><ele>77.0</ele><time>2026-05-01T17:02:55Z</time></trkpt><trkpt lat="43.163188972600935" lon="10.602288897859813"><ele>77.0</ele><time>2026-05-01T17:02:56Z</time></trkpt><trkpt lat="43.16325418802402" lon="10.602280952677274"><ele>77.0</ele><time>2026-05-01T17:02:57Z</time></trkpt><trkpt lat="43.16336422041298" lon="10.60221861114908"><ele>77.0</ele><time>2026-05-01T17:02:59Z</time></trkpt><trkpt lat="43.16342822613074" lon="10.602080748336583"><ele>75.66666666666667</ele><time>2026-05-01T17:03:01Z</time></trkpt><trkpt lat="43.163423350301066" lon="10.60191140082164"><ele>74.33333333333334</ele><time>2026-05-01T17:03:03Z</time></trkpt><trkpt lat="43.163387230544956" lon="10.601827094435732"><ele>73.0</ele><time>2026-05-01T17:03:04Z</time></trkpt><trkpt lat="43.16332431530185" lon="10.601768560865521"><ele>71.66666666666667</ele><time>2026-05-01T17:03:05Z</time></trkpt><trkpt lat="43.16324507793103" lon="10.601735203558924"><ele>70.33333333333333</ele><time>2026-05-01T17:03:06Z</time></trkpt><trkpt lat="43.16317033399246" lon="10.601738236286064"><ele>69.0</ele><time>2026-05-01T17:03:07Z</time></trkpt><trkpt lat="43.16310192500319" lon="10.601753126863315"><ele>68.83333333333333</ele><time>2026-05-01T17:03:08Z</time></trkpt><trkpt lat="43.163029946739925" lon="10.601756459798931"><ele>68.66666666666667</ele><time>2026-05-01T17:03:09Z</time></trkpt><trkpt lat="43.16294733927713" lon="10.601748089654137"><ele>68.5</ele><time>2026-05-01T17:03:10Z</time></trkpt><trkpt lat="43.16286830584604" lon="10.601745952852099"><ele>68.33333333333334</ele><time>2026-05-01T17:03:11Z</time></trkpt><trkpt lat="43.16279774004842" lon="10.60174433387761"><ele>68.16666666666667</ele><time>2026-05-01T17:03:12Z</time></trkpt><trkpt lat="43.16270577113587" lon="10.601725183858436"><ele>68.0</ele><time>2026-05-01T17:03:14Z</time></trkpt><trkpt lat="43.16264120535367" lon="10.601636813302319"><ele>68.0</ele><time>2026-05-01T17:03:17Z</time></trkpt><trkpt lat="43.16261218860992" lon="10.601518925694776"><ele>68.0</ele><time>2026-05-01T17:03:20Z</time></trkpt><trkpt lat="43.162634916308456" lon="10.60138339191693"><ele>68.0</ele><time>2026-05-01T17:03:22Z</time></trkpt><trkpt lat="43.162691327417626" lon="10.601302898540789"><ele>68.0</ele><time>2026-05-01T17:03:23Z</time></trkpt><trkpt lat="43.1627651579486" lon="10.60121997876565"><ele>68.0</ele><time>2026-05-01T17:03:24Z</time></trkpt><trkpt lat="43.16283496993278" lon="10.601143798587932"><ele>67.0</ele><time>2026-05-01T17:03:25Z</time></trkpt><trkpt lat="43.16290184623782" lon="10.601059181174898"><ele>66.0</ele><time>2026-05-01T17:03:26Z</time></trkpt><trkpt lat="43.16297459713971" lon="10.600973111302276"><ele>65.0</ele><time>2026-05-01T17:03:27Z</time></trkpt><trkpt lat="43.16304570353327" lon="10.600891034309672"><ele>64.0</ele><time>2026-05-01T17:03:28Z</time></trkpt><trkpt lat="43.16311543623523" lon="10.600800967821627"><ele>63.0</ele><time>2026-05-01T17:03:29Z</time></trkpt><trkpt lat="43.16318912939483" lon="10.600705963859909"><ele>62.5</ele><time>2026-05-01T17:03:30Z</time></trkpt><trkpt lat="43.16327631148701" lon="10.600589007869662"><ele>62.0</ele><time>2026-05-01T17:03:31Z</time></trkpt><trkpt lat="43.16336633379544" lon="10.600477353939477"><ele>61.5</ele><time>2026-05-01T17:03:32Z</time></trkpt><trkpt lat="43.16345316268966" lon="10.600371891869253"><ele>61.0</ele><time>2026-05-01T17:03:33Z</time></trkpt><trkpt lat="43.163537021549125" lon="10.600269013077488"><ele>60.0</ele><time>2026-05-01T17:03:34Z</time></trkpt><trkpt lat="43.16362109293697" lon="10.600158836087402"><ele>59.0</ele><time>2026-05-01T17:03:35Z</time></trkpt><trkpt lat="43.16371017860113" lon="10.60004828048587"><ele>58.0</ele><time>2026-05-01T17:03:36Z</time></trkpt><trkpt lat="43.163797566033494" lon="10.59994520338165"><ele>57.0</ele><time>2026-05-01T17:03:37Z</time></trkpt><trkpt lat="43.16388383063838" lon="10.599845980649214"><ele>57.0</ele><time>2026-05-01T17:03:38Z</time></trkpt><trkpt lat="43.163962539386375" lon="10.599743996805959"><ele>57.0</ele><time>2026-05-01T17:03:39Z</time></trkpt><trkpt lat="43.16404336658212" lon="10.599636331072814"><ele>57.0</ele><time>2026-05-01T17:03:40Z</time></trkpt><trkpt lat="43.164128064616165" lon="10.5995342259082"><ele>57.0</ele><time>2026-05-01T17:03:41Z</time></trkpt><trkpt lat="43.16421073183275" lon="10.599438045733173"><ele>57.0</ele><time>2026-05-01T17:03:42Z</time></trkpt><trkpt lat="43.16426938334886" lon="10.599365026843381"><ele>55.0</ele><time>2026-05-01T17:03:43Z</time></trkpt><trkpt lat="43.16432118849367" lon="10.599288613268808"><ele>53.0</ele><time>2026-05-01T17:03:45Z</time></trkpt><trkpt lat="43.164430183966346" lon="10.59916537015837"><ele>51.0</ele><time>2026-05-01T17:03:47Z</time></trkpt><trkpt lat="43.16452028824441" lon="10.599073257432424"><ele>49.0</ele><time>2026-05-01T17:03:48Z</time></trkpt><trkpt lat="43.164610935417855" lon="10.598959550524686"><ele>49.0</ele><time>2026-05-01T17:03:49Z</time></trkpt><trkpt lat="43.16470706313361" lon="10.598835015662374"><ele>49.0</ele><time>2026-05-01T17:03:50Z</time></trkpt><trkpt lat="43.16480898961083" lon="10.59870775233829"><ele>49.0</ele><time>2026-05-01T17:03:51Z</time></trkpt><trkpt lat="43.16491428158928" lon="10.598575073991515"><ele>49.0</ele><time>2026-05-01T17:03:52Z</time></trkpt><trkpt lat="43.16502702993561" lon="10.598423284993611"><ele>48.0</ele><time>2026-05-01T17:03:53Z</time></trkpt><trkpt lat="43.16513503253579" lon="10.59826409611594"><ele>47.0</ele><time>2026-05-01T17:03:54Z</time></trkpt><trkpt lat="43.165248120761014" lon="10.598090744821322"><ele>46.0</ele><time>2026-05-01T17:03:55Z</time></trkpt><trkpt lat="43.165373480213596" lon="10.597911434311793"><ele>46.333333333333336</ele><time>2026-05-01T17:03:56Z</time></trkpt><trkpt lat="43.16548822668505" lon="10.59773570587505"><ele>46.666666666666664</ele><time>2026-05-01T17:03:57Z</time></trkpt><trkpt lat="43.16559825607229" lon="10.597580133773427"><ele>47.0</ele><time>2026-05-01T17:03:58Z</time></trkpt><trkpt lat="43.16570246945046" lon="10.597415850006545"><ele>46.5</ele><time>2026-05-01T17:03:59Z</time></trkpt><trkpt lat="43.165807559074146" lon="10.597262138945101"><ele>46.0</ele><time>2026-05-01T17:04:00Z</time></trkpt><trkpt lat="43.16590256471601" lon="10.597112893493083"><ele>45.5</ele><time>2026-05-01T17:04:01Z</time></trkpt><trkpt lat="43.166001078921965" lon="10.596963670639457"><ele>45.0</ele><time>2026-05-01T17:04:02Z</time></trkpt><trkpt lat="43.16609698139102" lon="10.596824424420356"><ele>45.0</ele><time>2026-05-01T17:04:03Z</time></trkpt><trkpt lat="43.16619072632148" lon="10.596690294731308"><ele>45.0</ele><time>2026-05-01T17:04:04Z</time></trkpt><trkpt lat="43.16628177830526" lon="10.596555400988985"><ele>45.0</ele><time>2026-05-01T17:04:05Z</time></trkpt><trkpt lat="43.16637002092599" lon="10.596416664551706"><ele>45.0</ele><time>2026-05-01T17:04:06Z</time></trkpt><trkpt lat="43.166468120273045" lon="10.596276850423655"><ele>44.5</ele><time>2026-05-01T17:04:07Z</time></trkpt><trkpt lat="43.1665622762298" lon="10.596125339271266"><ele>44.0</ele><time>2026-05-01T17:04:08Z</time></trkpt><trkpt lat="43.16664681184975" lon="10.595962301774396"><ele>43.5</ele><time>2026-05-01T17:04:09Z</time></trkpt><trkpt lat="43.1667177690863" lon="10.595779473847385"><ele>43.0</ele><time>2026-05-01T17:04:10Z</time></trkpt><trkpt lat="43.166765952076304" lon="10.59558189109804"><ele>43.0</ele><time>2026-05-01T17:04:11Z</time></trkpt><trkpt lat="43.16679064913914" lon="10.595373685445187"><ele>43.0</ele><time>2026-05-01T17:04:12Z</time></trkpt><trkpt lat="43.16679097098458" lon="10.595161797919275"><ele>43.0</ele><time>2026-05-01T17:04:13Z</time></trkpt><trkpt lat="43.166775915208646" lon="10.594948139184774"><ele>42.333333333333336</ele><time>2026-05-01T17:04:14Z</time></trkpt><trkpt lat="43.16675012143371" lon="10.594726085036543"><ele>41.666666666666664</ele><time>2026-05-01T17:04:15Z</time></trkpt><trkpt lat="43.166725248047456" lon="10.594503264391301"><ele>41.0</ele><time>2026-05-01T17:04:16Z</time></trkpt><trkpt lat="43.166707940980444" lon="10.594276328019243"><ele>41.0</ele><time>2026-05-01T17:04:17Z</time></trkpt><trkpt lat="43.16670844188798" lon="10.59405972745652"><ele>41.0</ele><time>2026-05-01T17:04:18Z</time></trkpt><trkpt lat="43.166729050066955" lon="10.593848309799792"><ele>41.0</ele><time>2026-05-01T17:04:19Z</time></trkpt><trkpt lat="43.166751737835995" lon="10.59362948262057"><ele>41.0</ele><time>2026-05-01T17:04:20Z</time></trkpt><trkpt lat="43.166778205014" lon="10.593432028769486"><ele>41.0</ele><time>2026-05-01T17:04:21Z</time></trkpt><trkpt lat="43.166797338188516" lon="10.593213685234398"><ele>41.0</ele><time>2026-05-01T17:04:22Z</time></trkpt><trkpt lat="43.16681949198811" lon="10.592996188357711"><ele>41.33333333333333</ele><time>2026-05-01T17:04:23Z</time></trkpt><trkpt lat="43.16684107379378" lon="10.59279228477048"><ele>41.666666666666664</ele><time>2026-05-01T17:04:24Z</time></trkpt><trkpt lat="43.166871481574624" lon="10.592594583276247"><ele>42.0</ele><time>2026-05-01T17:04:25Z</time></trkpt><trkpt lat="43.16691733231799" lon="10.592381574901962"><ele>42.0</ele><time>2026-05-01T17:04:26Z</time></trkpt><trkpt lat="43.16696567460668" lon="10.592179647202638"><ele>42.0</ele><time>2026-05-01T17:04:27Z</time></trkpt><trkpt lat="43.16702050439867" lon="10.591981646618143"><ele>42.0</ele><time>2026-05-01T17:04:28Z</time></trkpt><trkpt lat="43.167084190844825" lon="10.591795749426026"><ele>41.666666666666664</ele><time>2026-05-01T17:04:29Z</time></trkpt><trkpt lat="43.167146958785615" lon="10.591596306615351"><ele>41.33333333333333</ele><time>2026-05-01T17:04:30Z</time></trkpt><trkpt lat="43.167208732082656" lon="10.591390117449897"><ele>41.0</ele><time>2026-05-01T17:04:31Z</time></trkpt><trkpt lat="43.16727349737486" lon="10.591172425107171"><ele>40.666666666666664</ele><time>2026-05-01T17:04:32Z</time></trkpt><trkpt lat="43.16733659791109" lon="10.590959448237037"><ele>40.333333333333336</ele><time>2026-05-01T17:04:33Z</time></trkpt><trkpt lat="43.16739966446765" lon="10.590739103248463"><ele>40.0</ele><time>2026-05-01T17:04:34Z</time></trkpt><trkpt lat="43.1674610253705" lon="10.590526085528378"><ele>39.333333333333336</ele><time>2026-05-01T17:04:35Z</time></trkpt><trkpt lat="43.16752358399738" lon="10.59032170534458"><ele>38.666666666666664</ele><time>2026-05-01T17:04:36Z</time></trkpt><trkpt lat="43.16758631427613" lon="10.59012111770076"><ele>38.0</ele><time>2026-05-01T17:04:37Z</time></trkpt><trkpt lat="43.16764755315069" lon="10.589916402510198"><ele>38.0</ele><time>2026-05-01T17:04:38Z</time></trkpt><trkpt lat="43.16771031554252" lon="10.589713519708306"><ele>38.0</ele><time>2026-05-01T17:04:39Z</time></trkpt><trkpt lat="43.16778382139004" lon="10.589516091344455"><ele>38.0</ele><time>2026-05-01T17:04:40Z</time></trkpt><trkpt lat="43.167866870743204" lon="10.589332016550182"><ele>38.666666666666664</ele><time>2026-05-01T17:04:41Z</time></trkpt><trkpt lat="43.16795658950057" lon="10.589161661714074"><ele>39.333333333333336</ele><time>2026-05-01T17:04:42Z</time></trkpt><trkpt lat="43.16805447579291" lon="10.58899102431642"><ele>40.0</ele><time>2026-05-01T17:04:43Z</time></trkpt><trkpt lat="43.168150079659995" lon="10.58881782095653"><ele>39.66666666666667</ele><time>2026-05-01T17:04:44Z</time></trkpt><trkpt lat="43.1682201593973" lon="10.588640643612374"><ele>39.333333333333336</ele><time>2026-05-01T17:04:45Z</time></trkpt><trkpt lat="43.168269343038205" lon="10.588436460340382"><ele>39.0</ele><time>2026-05-01T17:04:46Z</time></trkpt><trkpt lat="43.16830300296767" lon="10.588211522734785"><ele>39.0</ele><time>2026-05-01T17:04:47Z</time></trkpt><trkpt lat="43.16832486323226" lon="10.587978723853745"><ele>39.0</ele><time>2026-05-01T17:04:48Z</time></trkpt><trkpt lat="43.16835034274127" lon="10.587742295257359"><ele>39.0</ele><time>2026-05-01T17:04:49Z</time></trkpt><trkpt lat="43.16837490094653" lon="10.58751767486624"><ele>38.666666666666664</ele><time>2026-05-01T17:04:50Z</time></trkpt><trkpt lat="43.168397061241386" lon="10.587294884234112"><ele>38.33333333333333</ele><time>2026-05-01T17:04:51Z</time></trkpt><trkpt lat="43.168423115421106" lon="10.587079180987978"><ele>38.0</ele><time>2026-05-01T17:04:52Z</time></trkpt><trkpt lat="43.16845007081916" lon="10.586860471451267"><ele>37.666666666666664</ele><time>2026-05-01T17:04:53Z</time></trkpt><trkpt lat="43.16847767710962" lon="10.586640855512465"><ele>37.333333333333336</ele><time>2026-05-01T17:04:54Z</time></trkpt><trkpt lat="43.168500783330764" lon="10.586414403411197"><ele>37.0</ele><time>2026-05-01T17:04:55Z</time></trkpt><trkpt lat="43.16852613062569" lon="10.586193608410495"><ele>36.66666666666667</ele><time>2026-05-01T17:04:56Z</time></trkpt><trkpt lat="43.16855258930904" lon="10.585972258302027"><ele>36.333333333333336</ele><time>2026-05-01T17:04:57Z</time></trkpt><trkpt lat="43.16857829665159" lon="10.585744233260161"><ele>36.0</ele><time>2026-05-01T17:04:58Z</time></trkpt><trkpt lat="43.16859937820259" lon="10.58551777506929"><ele>35.0</ele><time>2026-05-01T17:04:59Z</time></trkpt><trkpt lat="43.16862661950512" lon="10.585290443061865"><ele>34.0</ele><time>2026-05-01T17:05:00Z</time></trkpt><trkpt lat="43.16865422794428" lon="10.585061217266057"><ele>33.0</ele><time>2026-05-01T17:05:01Z</time></trkpt><trkpt lat="43.16867827940472" lon="10.584825361453154"><ele>33.0</ele><time>2026-05-01T17:05:02Z</time></trkpt><trkpt lat="43.16870599084229" lon="10.584584309767017"><ele>33.0</ele><time>2026-05-01T17:05:03Z</time></trkpt><trkpt lat="43.168732836119915" lon="10.584346743056383"><ele>33.0</ele><time>2026-05-01T17:05:04Z</time></trkpt><trkpt lat="43.168757318912704" lon="10.584119828298835"><ele>34.0</ele><time>2026-05-01T17:05:05Z</time></trkpt><trkpt lat="43.16878257129868" lon="10.583896161184123"><ele>35.0</ele><time>2026-05-01T17:05:06Z</time></trkpt><trkpt lat="43.16880853975931" lon="10.583666868388757"><ele>36.0</ele><time>2026-05-01T17:05:07Z</time></trkpt><trkpt lat="43.168833571311986" lon="10.583444371360805"><ele>36.0</ele><time>2026-05-01T17:05:08Z</time></trkpt><trkpt lat="43.16886114514188" lon="10.58321666600042"><ele>36.0</ele><time>2026-05-01T17:05:09Z</time></trkpt><trkpt lat="43.168892604322174" lon="10.582982306604618"><ele>36.0</ele><time>2026-05-01T17:05:10Z</time></trkpt><trkpt lat="43.16892242441086" lon="10.582741137939237"><ele>36.666666666666664</ele><time>2026-05-01T17:05:11Z</time></trkpt><trkpt lat="43.16895109863166" lon="10.582498795611798"><ele>37.33333333333333</ele><time>2026-05-01T17:05:12Z</time></trkpt><trkpt lat="43.16898315185857" lon="10.582258046555106"><ele>38.0</ele><time>2026-05-01T17:05:13Z</time></trkpt><trkpt lat="43.16901842665416" lon="10.582014577074673"><ele>36.0</ele><time>2026-05-01T17:05:14Z</time></trkpt><trkpt lat="43.16904867807384" lon="10.581777673993754"><ele>34.0</ele><time>2026-05-01T17:05:15Z</time></trkpt><trkpt lat="43.169077712595374" lon="10.581544041407868"><ele>32.0</ele><time>2026-05-01T17:05:16Z</time></trkpt><trkpt lat="43.1691129243431" lon="10.581310690351419"><ele>31.333333333333332</ele><time>2026-05-01T17:05:17Z</time></trkpt><trkpt lat="43.16915421487826" lon="10.581068658950525"><ele>30.666666666666664</ele><time>2026-05-01T17:05:18Z</time></trkpt><trkpt lat="43.16919721720534" lon="10.580833085545029"><ele>30.0</ele><time>2026-05-01T17:05:19Z</time></trkpt><trkpt lat="43.16924020678295" lon="10.580612588541873"><ele>30.0</ele><time>2026-05-01T17:05:20Z</time></trkpt><trkpt lat="43.16928325509675" lon="10.580386328220644"><ele>30.0</ele><time>2026-05-01T17:05:21Z</time></trkpt><trkpt lat="43.1693234845602" lon="10.580156372334336"><ele>30.0</ele><time>2026-05-01T17:05:22Z</time></trkpt><trkpt lat="43.16936373194803" lon="10.579934869025971"><ele>30.0</ele><time>2026-05-01T17:05:23Z</time></trkpt><trkpt lat="43.169405614335126" lon="10.579712106148717"><ele>30.0</ele><time>2026-05-01T17:05:24Z</time></trkpt><trkpt lat="43.16944912812583" lon="10.579490482088575"><ele>30.0</ele><time>2026-05-01T17:05:25Z</time></trkpt><trkpt lat="43.169493604907146" lon="10.579282614025807"><ele>30.333333333333336</ele><time>2026-05-01T17:05:26Z</time></trkpt><trkpt lat="43.169546193787376" lon="10.579091027138444"><ele>30.666666666666668</ele><time>2026-05-01T17:05:27Z</time></trkpt><trkpt lat="43.16961617783451" lon="10.57891568322188"><ele>31.0</ele><time>2026-05-01T17:05:28Z</time></trkpt><trkpt lat="43.169718827564445" lon="10.578736211534943"><ele>30.666666666666668</ele><time>2026-05-01T17:05:29Z</time></trkpt><trkpt lat="43.169833566073144" lon="10.5785589034531"><ele>30.333333333333336</ele><time>2026-05-01T17:05:30Z</time></trkpt><trkpt lat="43.16994771770358" lon="10.578390146727733"><ele>30.0</ele><time>2026-05-01T17:05:31Z</time></trkpt><trkpt lat="43.170057928966166" lon="10.578221170857994"><ele>29.666666666666664</ele><time>2026-05-01T17:05:32Z</time></trkpt><trkpt lat="43.17016194516206" lon="10.578055347906611"><ele>29.333333333333332</ele><time>2026-05-01T17:05:33Z</time></trkpt><trkpt lat="43.170266674306184" lon="10.577894520236612"><ele>29.0</ele><time>2026-05-01T17:05:34Z</time></trkpt><trkpt lat="43.17036779843672" lon="10.577735542164346"><ele>28.666666666666664</ele><time>2026-05-01T17:05:35Z</time></trkpt><trkpt lat="43.1704708607862" lon="10.577579047926498"><ele>28.333333333333336</ele><time>2026-05-01T17:05:36Z</time></trkpt><trkpt lat="43.170571615284175" lon="10.577420921959579"><ele>28.0</ele><time>2026-05-01T17:05:37Z</time></trkpt><trkpt lat="43.17067119146162" lon="10.577266274787723"><ele>27.666666666666668</ele><time>2026-05-01T17:05:38Z</time></trkpt><trkpt lat="43.17077236073153" lon="10.577108515684184"><ele>27.333333333333336</ele><time>2026-05-01T17:05:39Z</time></trkpt><trkpt lat="43.17087701736522" lon="10.576949444840777"><ele>27.0</ele><time>2026-05-01T17:05:40Z</time></trkpt><trkpt lat="43.17098631691321" lon="10.576780129942424"><ele>26.666666666666664</ele><time>2026-05-01T17:05:41Z</time></trkpt><trkpt lat="43.17109924724214" lon="10.57660985251262"><ele>26.333333333333332</ele><time>2026-05-01T17:05:42Z</time></trkpt><trkpt lat="43.17120632984281" lon="10.576450343841618"><ele>26.0</ele><time>2026-05-01T17:05:43Z</time></trkpt><trkpt lat="43.17130844033574" lon="10.576296943634508"><ele>26.0</ele><time>2026-05-01T17:05:44Z</time></trkpt><trkpt lat="43.171401996640824" lon="10.576155355229346"><ele>26.0</ele><time>2026-05-01T17:05:45Z</time></trkpt><trkpt lat="43.17149432829751" lon="10.576020231323563"><ele>26.0</ele><time>2026-05-01T17:05:46Z</time></trkpt><trkpt lat="43.17158424248052" lon="10.575899559028079"><ele>26.0</ele><time>2026-05-01T17:05:47Z</time></trkpt><trkpt lat="43.171668063038894" lon="10.575794333268368"><ele>25.75</ele><time>2026-05-01T17:05:48Z</time></trkpt><trkpt lat="43.171752440492774" lon="10.575707464377636"><ele>25.5</ele><time>2026-05-01T17:05:49Z</time></trkpt><trkpt lat="43.171853842581015" lon="10.575629805732477"><ele>25.25</ele><time>2026-05-01T17:05:50Z</time></trkpt><trkpt lat="43.17195197470602" lon="10.575553530492357"><ele>25.0</ele><time>2026-05-01T17:05:51Z</time></trkpt><trkpt lat="43.17205131312468" lon="10.57544584249212"><ele>25.0</ele><time>2026-05-01T17:05:52Z</time></trkpt><trkpt lat="43.17216165072691" lon="10.575326823645373"><ele>25.0</ele><time>2026-05-01T17:05:53Z</time></trkpt><trkpt lat="43.17228146456466" lon="10.575220816860474"><ele>25.0</ele><time>2026-05-01T17:05:54Z</time></trkpt><trkpt lat="43.17240519496295" lon="10.575115176249607"><ele>25.0</ele><time>2026-05-01T17:05:55Z</time></trkpt><trkpt lat="43.17253052949292" lon="10.574997659242237"><ele>25.0</ele><time>2026-05-01T17:05:56Z</time></trkpt><trkpt lat="43.17265657354865" lon="10.574878503830284"><ele>25.0</ele><time>2026-05-01T17:05:57Z</time></trkpt><trkpt lat="43.172786414576194" lon="10.574759257227743"><ele>25.0</ele><time>2026-05-01T17:05:58Z</time></trkpt><trkpt lat="43.17291782136577" lon="10.574639428515885"><ele>25.0</ele><time>2026-05-01T17:05:59Z</time></trkpt><trkpt lat="43.17304980591388" lon="10.574514481504503"><ele>25.0</ele><time>2026-05-01T17:06:00Z</time></trkpt><trkpt lat="43.173180066329536" lon="10.574395365005437"><ele>25.0</ele><time>2026-05-01T17:06:01Z</time></trkpt><trkpt lat="43.17330762271761" lon="10.574277247406393"><ele>25.0</ele><time>2026-05-01T17:06:02Z</time></trkpt><trkpt lat="43.17343545328639" lon="10.574158322542639"><ele>25.0</ele><time>2026-05-01T17:06:03Z</time></trkpt><trkpt lat="43.17356591641537" lon="10.574037685810625"><ele>25.0</ele><time>2026-05-01T17:06:04Z</time></trkpt><trkpt lat="43.173708431445775" lon="10.573915543643484"><ele>25.0</ele><time>2026-05-01T17:06:05Z</time></trkpt><trkpt lat="43.17384322610219" lon="10.573796247390018"><ele>25.0</ele><time>2026-05-01T17:06:06Z</time></trkpt><trkpt lat="43.17396469552679" lon="10.57368069844844"><ele>25.0</ele><time>2026-05-01T17:06:07Z</time></trkpt><trkpt lat="43.17408986546827" lon="10.573565635287343"><ele>24.333333333333336</ele><time>2026-05-01T17:06:08Z</time></trkpt><trkpt lat="43.17421651940802" lon="10.573446747193145"><ele>23.666666666666668</ele><time>2026-05-01T17:06:09Z</time></trkpt><trkpt lat="43.17434505614637" lon="10.57332773079694"><ele>23.0</ele><time>2026-05-01T17:06:10Z</time></trkpt><trkpt lat="43.17447406664024" lon="10.5732099479896"><ele>23.0</ele><time>2026-05-01T17:06:11Z</time></trkpt><trkpt lat="43.174605251300676" lon="10.573089597405462"><ele>23.0</ele><time>2026-05-01T17:06:12Z</time></trkpt><trkpt lat="43.17473512752001" lon="10.572976822583732"><ele>23.0</ele><time>2026-05-01T17:06:13Z</time></trkpt><trkpt lat="43.17486017600018" lon="10.572853857202956"><ele>22.666666666666668</ele><time>2026-05-01T17:06:14Z</time></trkpt><trkpt lat="43.174993122204114" lon="10.572730750751695"><ele>22.333333333333332</ele><time>2026-05-01T17:06:15Z</time></trkpt><trkpt lat="43.17512526277458" lon="10.572611848792262"><ele>22.0</ele><time>2026-05-01T17:06:16Z</time></trkpt><trkpt lat="43.175251505486635" lon="10.57249192317176"><ele>22.0</ele><time>2026-05-01T17:06:17Z</time></trkpt><trkpt lat="43.17538337303196" lon="10.572369472530115"><ele>22.0</ele><time>2026-05-01T17:06:18Z</time></trkpt><trkpt lat="43.1755114912504" lon="10.572248025483958"><ele>22.0</ele><time>2026-05-01T17:06:19Z</time></trkpt><trkpt lat="43.17563873466101" lon="10.572129966647575"><ele>21.666666666666664</ele><time>2026-05-01T17:06:20Z</time></trkpt><trkpt lat="43.17576844529199" lon="10.57201632992929"><ele>21.333333333333332</ele><time>2026-05-01T17:06:21Z</time></trkpt><trkpt lat="43.17589755220148" lon="10.571896777733782"><ele>21.0</ele><time>2026-05-01T17:06:22Z</time></trkpt><trkpt lat="43.17602886474633" lon="10.571774945617504"><ele>21.0</ele><time>2026-05-01T17:06:23Z</time></trkpt><trkpt lat="43.176163249910566" lon="10.571650137025351"><ele>21.0</ele><time>2026-05-01T17:06:24Z</time></trkpt><trkpt lat="43.17630129786163" lon="10.571519976901428"><ele>21.0</ele><time>2026-05-01T17:06:25Z</time></trkpt><trkpt lat="43.17644290861083" lon="10.571393516092687"><ele>20.333333333333332</ele><time>2026-05-01T17:06:26Z</time></trkpt><trkpt lat="43.17657909797893" lon="10.571272083218343"><ele>19.666666666666664</ele><time>2026-05-01T17:06:27Z</time></trkpt><trkpt lat="43.1767150554196" lon="10.571149171425342"><ele>19.0</ele><time>2026-05-01T17:06:28Z</time></trkpt><trkpt lat="43.17684540369261" lon="10.571028996942124"><ele>18.666666666666664</ele><time>2026-05-01T17:06:29Z</time></trkpt><trkpt lat="43.17698024438512" lon="10.570904417200891"><ele>18.333333333333332</ele><time>2026-05-01T17:06:30Z</time></trkpt><trkpt lat="43.17711191622571" lon="10.570784663340339"><ele>18.0</ele><time>2026-05-01T17:06:31Z</time></trkpt><trkpt lat="43.17724490836102" lon="10.570660975376384"><ele>18.0</ele><time>2026-05-01T17:06:32Z</time></trkpt><trkpt lat="43.177378990082175" lon="10.570538433582975"><ele>18.0</ele><time>2026-05-01T17:06:33Z</time></trkpt><trkpt lat="43.17751417988661" lon="10.570415695350466"><ele>18.0</ele><time>2026-05-01T17:06:34Z</time></trkpt><trkpt lat="43.17764649920488" lon="10.57029660486476"><ele>17.333333333333332</ele><time>2026-05-01T17:06:35Z</time></trkpt><trkpt lat="43.177776996548594" lon="10.570176025991941"><ele>16.666666666666664</ele><time>2026-05-01T17:06:36Z</time></trkpt><trkpt lat="43.17790183436891" lon="10.57006284101579"><ele>16.0</ele><time>2026-05-01T17:06:37Z</time></trkpt><trkpt lat="43.17802582827486" lon="10.569942392694252"><ele>16.0</ele><time>2026-05-01T17:06:38Z</time></trkpt><trkpt lat="43.1781406420323" lon="10.56981163506344"><ele>16.0</ele><time>2026-05-01T17:06:39Z</time></trkpt><trkpt lat="43.17824584605634" lon="10.569660963041837"><ele>16.0</ele><time>2026-05-01T17:06:40Z</time></trkpt><trkpt lat="43.17834880021084" lon="10.569497555501803"><ele>17.0</ele><time>2026-05-01T17:06:41Z</time></trkpt><trkpt lat="43.17844859229099" lon="10.569331550165787"><ele>18.0</ele><time>2026-05-01T17:06:42Z</time></trkpt><trkpt lat="43.17854639761152" lon="10.569172258481576"><ele>19.0</ele><time>2026-05-01T17:06:43Z</time></trkpt><trkpt lat="43.178642743678395" lon="10.56901226179854"><ele>19.0</ele><time>2026-05-01T17:06:44Z</time></trkpt><trkpt lat="43.178733542579266" lon="10.568860610270017"><ele>19.0</ele><time>2026-05-01T17:06:45Z</time></trkpt><trkpt lat="43.17882879659622" lon="10.568706333977387"><ele>19.0</ele><time>2026-05-01T17:06:46Z</time></trkpt><trkpt lat="43.17891941110364" lon="10.568551893922749"><ele>19.0</ele><time>2026-05-01T17:06:47Z</time></trkpt><trkpt lat="43.179005158612014" lon="10.568408194502119"><ele>19.5</ele><time>2026-05-01T17:06:48Z</time></trkpt><trkpt lat="43.1790872029479" lon="10.568267249859442"><ele>20.0</ele><time>2026-05-01T17:06:49Z</time></trkpt><trkpt lat="43.17916221687068" lon="10.568130382327618"><ele>20.5</ele><time>2026-05-01T17:06:50Z</time></trkpt><trkpt lat="43.17922799183604" lon="10.5680239824029"><ele>21.0</ele><time>2026-05-01T17:06:51Z</time></trkpt><trkpt lat="43.1792901307087" lon="10.567921831832919"><ele>20.5</ele><time>2026-05-01T17:06:52Z</time></trkpt><trkpt lat="43.17934660332468" lon="10.567824193809328"><ele>20.0</ele><time>2026-05-01T17:06:53Z</time></trkpt><trkpt lat="43.17939535639748" lon="10.567737231249204"><ele>19.5</ele><time>2026-05-01T17:06:54Z</time></trkpt><trkpt lat="43.17942917790948" lon="10.567654430478479"><ele>19.0</ele><time>2026-05-01T17:06:55Z</time></trkpt><trkpt lat="43.17943620125456" lon="10.567473527470451"><ele>18.5</ele><time>2026-05-01T17:06:57Z</time></trkpt><trkpt lat="43.179404994908964" lon="10.567391654512251"><ele>18.0</ele><time>2026-05-01T17:06:58Z</time></trkpt><trkpt lat="43.17936577623828" lon="10.567308905676386"><ele>18.0</ele><time>2026-05-01T17:07:00Z</time></trkpt><trkpt lat="43.17929790082731" lon="10.567247281776469"><ele>18.0</ele><time>2026-05-01T17:07:03Z</time></trkpt><trkpt lat="43.1791985969978" lon="10.567247655005437"><ele>18.0</ele><time>2026-05-01T17:07:04Z</time></trkpt><trkpt lat="43.179095308254645" lon="10.567270253874517"><ele>18.0</ele><time>2026-05-01T17:07:05Z</time></trkpt><trkpt lat="43.17898643807563" lon="10.56727848509725"><ele>18.0</ele><time>2026-05-01T17:07:06Z</time></trkpt><trkpt lat="43.17886393527825" lon="10.567289324641738"><ele>17.5</ele><time>2026-05-01T17:07:07Z</time></trkpt><trkpt lat="43.17874530108055" lon="10.567315158605497"><ele>17.0</ele><time>2026-05-01T17:07:08Z</time></trkpt><trkpt lat="43.178635766971645" lon="10.567326954198107"><ele>16.5</ele><time>2026-05-01T17:07:09Z</time></trkpt><trkpt lat="43.1785262224689" lon="10.567340058475107"><ele>16.0</ele><time>2026-05-01T17:07:10Z</time></trkpt><trkpt lat="43.17841301160744" lon="10.56735441320548"><ele>16.0</ele><time>2026-05-01T17:07:11Z</time></trkpt><trkpt lat="43.17830696217409" lon="10.567357972347287"><ele>16.0</ele><time>2026-05-01T17:07:12Z</time></trkpt><trkpt lat="43.17820943642911" lon="10.567356341056849"><ele>16.0</ele><time>2026-05-01T17:07:13Z</time></trkpt><trkpt lat="43.17811655120873" lon="10.567329550954987"><ele>16.0</ele><time>2026-05-01T17:07:14Z</time></trkpt><trkpt lat="43.178028886268315" lon="10.567316858867674"><ele>16.0</ele><time>2026-05-01T17:07:15Z</time></trkpt><trkpt lat="43.17795730839649" lon="10.567210383000972"><ele>16.400000000000002</ele><time>2026-05-01T17:07:16Z</time></trkpt><trkpt lat="43.177905079373765" lon="10.5671265742469"><ele>16.8</ele><time>2026-05-01T17:07:17Z</time></trkpt><trkpt lat="43.177863202027424" lon="10.56702817204334"><ele>17.200000000000003</ele><time>2026-05-01T17:07:18Z</time></trkpt><trkpt lat="43.17782819125546" lon="10.566916449034824"><ele>17.6</ele><time>2026-05-01T17:07:19Z</time></trkpt><trkpt lat="43.177866517802485" lon="10.566737393256263"><ele>18.0</ele><time>2026-05-01T17:07:20Z</time></trkpt><trkpt lat="43.17786605975335" lon="10.566587938379689"><ele>18.0</ele><time>2026-05-01T17:07:21Z</time></trkpt><trkpt lat="43.17787220705812" lon="10.5664270231623"><ele>18.0</ele><time>2026-05-01T17:07:22Z</time></trkpt><trkpt lat="43.17787859694146" lon="10.56626000565084"><ele>18.0</ele><time>2026-05-01T17:07:23Z</time></trkpt><trkpt lat="43.17788713628107" lon="10.566102026660927"><ele>18.0</ele><time>2026-05-01T17:07:24Z</time></trkpt><trkpt lat="43.177891826312134" lon="10.56594738487299"><ele>17.75</ele><time>2026-05-01T17:07:25Z</time></trkpt><trkpt lat="43.17789131305609" lon="10.565786253602727"><ele>17.5</ele><time>2026-05-01T17:07:26Z</time></trkpt><trkpt lat="43.177890842995204" lon="10.565615654877698"><ele>17.25</ele><time>2026-05-01T17:07:27Z</time></trkpt><trkpt lat="43.17789519860469" lon="10.565436988149735"><ele>17.0</ele><time>2026-05-01T17:07:28Z</time></trkpt><trkpt lat="43.17790536648845" lon="10.565277577488052"><ele>16.6</ele><time>2026-05-01T17:07:29Z</time></trkpt><trkpt lat="43.17792140163208" lon="10.565139984015987"><ele>16.2</ele><time>2026-05-01T17:07:30Z</time></trkpt><trkpt lat="43.177942445819966" lon="10.565004436355343"><ele>15.8</ele><time>2026-05-01T17:07:31Z</time></trkpt><trkpt lat="43.17797203771331" lon="10.564864504639324"><ele>15.4</ele><time>2026-05-01T17:07:32Z</time></trkpt><trkpt lat="43.17801308021785" lon="10.564723956712935"><ele>15.0</ele><time>2026-05-01T17:07:33Z</time></trkpt><trkpt lat="43.17806724336369" lon="10.564583350972308"><ele>15.0</ele><time>2026-05-01T17:07:34Z</time></trkpt><trkpt lat="43.178121115170775" lon="10.564448327316063"><ele>15.0</ele><time>2026-05-01T17:07:35Z</time></trkpt><trkpt lat="43.17817448947579" lon="10.564308347959985"><ele>15.0</ele><time>2026-05-01T17:07:36Z</time></trkpt><trkpt lat="43.178219566204426" lon="10.56418133527113"><ele>15.0</ele><time>2026-05-01T17:07:37Z</time></trkpt><trkpt lat="43.17827008451614" lon="10.564049321305143"><ele>15.0</ele><time>2026-05-01T17:07:38Z</time></trkpt><trkpt lat="43.17832024227705" lon="10.563920890898551"><ele>15.0</ele><time>2026-05-01T17:07:39Z</time></trkpt><trkpt lat="43.178361818103475" lon="10.563810233245217"><ele>15.0</ele><time>2026-05-01T17:07:40Z</time></trkpt><trkpt lat="43.1783995950476" lon="10.563686302858402"><ele>15.0</ele><time>2026-05-01T17:07:41Z</time></trkpt><trkpt lat="43.17843278901287" lon="10.563562413653997"><ele>15.0</ele><time>2026-05-01T17:07:42Z</time></trkpt><trkpt lat="43.17846180524927" lon="10.563437578263805"><ele>15.0</ele><time>2026-05-01T17:07:43Z</time></trkpt><trkpt lat="43.17848230874481" lon="10.563308969292404"><ele>14.6</ele><time>2026-05-01T17:07:44Z</time></trkpt><trkpt lat="43.17849477483403" lon="10.563176979407377"><ele>14.2</ele><time>2026-05-01T17:07:45Z</time></trkpt><trkpt lat="43.17851114021223" lon="10.563056514757246"><ele>13.8</ele><time>2026-05-01T17:07:46Z</time></trkpt><trkpt lat="43.17849932859244" lon="10.562919209342992"><ele>13.4</ele><time>2026-05-01T17:07:47Z</time></trkpt><trkpt lat="43.1785236085334" lon="10.562810827724052"><ele>13.0</ele><time>2026-05-01T17:07:48Z</time></trkpt><trkpt lat="43.178522847683354" lon="10.562699520661162"><ele>12.999999999999998</ele><time>2026-05-01T17:07:49Z</time></trkpt><trkpt lat="43.1785199863475" lon="10.562592425775081"><ele>13.0</ele><time>2026-05-01T17:07:50Z</time></trkpt><trkpt lat="43.17853251507375" lon="10.562498380539536"><ele>13.0</ele><time>2026-05-01T17:07:51Z</time></trkpt><trkpt lat="43.178568249143375" lon="10.562398333282918"><ele>13.0</ele><time>2026-05-01T17:07:52Z</time></trkpt><trkpt lat="43.17860977113915" lon="10.56229150671608"><ele>12.999999999999998</ele><time>2026-05-01T17:07:53Z</time></trkpt><trkpt lat="43.1786411773261" lon="10.56216156342798"><ele>13.0</ele><time>2026-05-01T17:07:54Z</time></trkpt><trkpt lat="43.17866756141611" lon="10.561992951464639"><ele>13.0</ele><time>2026-05-01T17:07:55Z</time></trkpt><trkpt lat="43.17868840365776" lon="10.561819853946808"><ele>13.0</ele><time>2026-05-01T17:07:56Z</time></trkpt><trkpt lat="43.178707001350936" lon="10.561639831839777"><ele>13.0</ele><time>2026-05-01T17:07:57Z</time></trkpt><trkpt lat="43.17872954398405" lon="10.561463595806943"><ele>13.0</ele><time>2026-05-01T17:07:58Z</time></trkpt><trkpt lat="43.178757450751576" lon="10.561261051919518"><ele>13.0</ele><time>2026-05-01T17:07:59Z</time></trkpt><trkpt lat="43.17878230301436" lon="10.561081911547786"><ele>13.0</ele><time>2026-05-01T17:08:00Z</time></trkpt><trkpt lat="43.17880596831598" lon="10.560864669348303"><ele>13.0</ele><time>2026-05-01T17:08:01Z</time></trkpt><trkpt lat="43.17883794360994" lon="10.560678033021432"><ele>13.0</ele><time>2026-05-01T17:08:02Z</time></trkpt><trkpt lat="43.178867741736596" lon="10.560503522398268"><ele>12.75</ele><time>2026-05-01T17:08:03Z</time></trkpt><trkpt lat="43.178892914999295" lon="10.560318506797165"><ele>12.5</ele><time>2026-05-01T17:08:04Z</time></trkpt><trkpt lat="43.178917951272275" lon="10.560139541078765"><ele>12.25</ele><time>2026-05-01T17:08:05Z</time></trkpt><trkpt lat="43.1789437381149" lon="10.55996205959991"><ele>12.0</ele><time>2026-05-01T17:08:06Z</time></trkpt><trkpt lat="43.17897480757694" lon="10.55976634024575"><ele>12.0</ele><time>2026-05-01T17:08:07Z</time></trkpt><trkpt lat="43.17900608619055" lon="10.559571270575695"><ele>12.0</ele><time>2026-05-01T17:08:08Z</time></trkpt><trkpt lat="43.17903536882855" lon="10.559373923864994"><ele>12.0</ele><time>2026-05-01T17:08:09Z</time></trkpt><trkpt lat="43.17906809391472" lon="10.559180438265184"><ele>12.0</ele><time>2026-05-01T17:08:10Z</time></trkpt><trkpt lat="43.17909398947457" lon="10.558993078251193"><ele>11.25</ele><time>2026-05-01T17:08:11Z</time></trkpt><trkpt lat="43.17912189130838" lon="10.558802770262778"><ele>10.5</ele><time>2026-05-01T17:08:12Z</time></trkpt><trkpt lat="43.17914753640418" lon="10.558602786064146"><ele>9.75</ele><time>2026-05-01T17:08:13Z</time></trkpt><trkpt lat="43.17917742262958" lon="10.558404579578614"><ele>9.0</ele><time>2026-05-01T17:08:14Z</time></trkpt><trkpt lat="43.17920261819487" lon="10.55822109493477"><ele>8.75</ele><time>2026-05-01T17:08:15Z</time></trkpt><trkpt lat="43.179212018164556" lon="10.558026358644888"><ele>8.5</ele><time>2026-05-01T17:08:16Z</time></trkpt><trkpt lat="43.17923695590986" lon="10.55783621942724"><ele>8.25</ele><time>2026-05-01T17:08:17Z</time></trkpt><trkpt lat="43.179262122725866" lon="10.557644748760463"><ele>8.0</ele><time>2026-05-01T17:08:18Z</time></trkpt><trkpt lat="43.17928731760938" lon="10.55745306457313"><ele>8.0</ele><time>2026-05-01T17:08:19Z</time></trkpt><trkpt lat="43.179312278487735" lon="10.557263160704254"><ele>8.0</ele><time>2026-05-01T17:08:20Z</time></trkpt><trkpt lat="43.17933735504012" lon="10.557072376777276"><ele>8.0</ele><time>2026-05-01T17:08:21Z</time></trkpt><trkpt lat="43.17936255878253" lon="10.556880625184167"><ele>8.0</ele><time>2026-05-01T17:08:22Z</time></trkpt><trkpt lat="43.17938792268415" lon="10.556687655090233"><ele>8.0</ele><time>2026-05-01T17:08:23Z</time></trkpt><trkpt lat="43.17941339135662" lon="10.556493887891"><ele>8.0</ele><time>2026-05-01T17:08:24Z</time></trkpt><trkpt lat="43.17943790467937" lon="10.556308090714323"><ele>8.0</ele><time>2026-05-01T17:08:25Z</time></trkpt><trkpt lat="43.179477245901275" lon="10.556140135126256"><ele>8.0</ele><time>2026-05-01T17:08:26Z</time></trkpt><trkpt lat="43.17948526136443" lon="10.555953325754732"><ele>7.5</ele><time>2026-05-01T17:08:27Z</time></trkpt><trkpt lat="43.17952561727905" lon="10.555773815129333"><ele>7.0</ele><time>2026-05-01T17:08:28Z</time></trkpt><trkpt lat="43.17954735951883" lon="10.555584835983751"><ele>6.5</ele><time>2026-05-01T17:08:29Z</time></trkpt><trkpt lat="43.179573178500775" lon="10.555395513837452"><ele>6.0</ele><time>2026-05-01T17:08:30Z</time></trkpt><trkpt lat="43.179599159883765" lon="10.555214869584061"><ele>6.0</ele><time>2026-05-01T17:08:31Z</time></trkpt><trkpt lat="43.17962336806228" lon="10.5550331235551"><ele>6.0</ele><time>2026-05-01T17:08:32Z</time></trkpt><trkpt lat="43.17964725590698" lon="10.554849639872884"><ele>6.0</ele><time>2026-05-01T17:08:33Z</time></trkpt><trkpt lat="43.17967225407424" lon="10.554665772673559"><ele>6.0</ele><time>2026-05-01T17:08:34Z</time></trkpt><trkpt lat="43.17969727518667" lon="10.554474950866924"><ele>5.5</ele><time>2026-05-01T17:08:35Z</time></trkpt><trkpt lat="43.179720807792165" lon="10.55429230245174"><ele>5.0</ele><time>2026-05-01T17:08:36Z</time></trkpt><trkpt lat="43.179745472605305" lon="10.55410946736463"><ele>4.5</ele><time>2026-05-01T17:08:37Z</time></trkpt><trkpt lat="43.17975355905914" lon="10.553924075639909"><ele>4.0</ele><time>2026-05-01T17:08:38Z</time></trkpt><trkpt lat="43.17979158099495" lon="10.553745583216074"><ele>4.25</ele><time>2026-05-01T17:08:39Z</time></trkpt><trkpt lat="43.17981205508434" lon="10.553562280199369"><ele>4.5</ele><time>2026-05-01T17:08:40Z</time></trkpt><trkpt lat="43.17983752150427" lon="10.553389107734487"><ele>4.75</ele><time>2026-05-01T17:08:41Z</time></trkpt><trkpt lat="43.17986138453327" lon="10.55322622767877"><ele>5.0</ele><time>2026-05-01T17:08:42Z</time></trkpt><trkpt lat="43.17988222737973" lon="10.553050356601165"><ele>5.5</ele><time>2026-05-01T17:08:43Z</time></trkpt><trkpt lat="43.17990719460915" lon="10.552868335787434"><ele>6.0</ele><time>2026-05-01T17:08:44Z</time></trkpt><trkpt lat="43.17991547234794" lon="10.552683965500114"><ele>6.5</ele><time>2026-05-01T17:08:45Z</time></trkpt><trkpt lat="43.17993951668342" lon="10.55250014206641"><ele>7.0</ele><time>2026-05-01T17:08:46Z</time></trkpt><trkpt lat="43.17996323568974" lon="10.552318805830538"><ele>7.0</ele><time>2026-05-01T17:08:47Z</time></trkpt><trkpt lat="43.17998551428715" lon="10.552148481796404"><ele>6.999999999999999</ele><time>2026-05-01T17:08:48Z</time></trkpt><trkpt lat="43.18000514509315" lon="10.55199840059956"><ele>6.999999999999999</ele><time>2026-05-01T17:08:49Z</time></trkpt><trkpt lat="43.18003989509685" lon="10.551861336362071"><ele>7.0</ele><time>2026-05-01T17:08:50Z</time></trkpt><trkpt lat="43.18004052623464" lon="10.551727905152596"><ele>7.0</ele><time>2026-05-01T17:08:51Z</time></trkpt><trkpt lat="43.18007197998305" lon="10.551609332973484"><ele>7.199999999999999</ele><time>2026-05-01T17:08:52Z</time></trkpt><trkpt lat="43.18008849372828" lon="10.55148420252495"><ele>7.3999999999999995</ele><time>2026-05-01T17:08:53Z</time></trkpt><trkpt lat="43.18009178847862" lon="10.551326989167217"><ele>7.6000000000000005</ele><time>2026-05-01T17:08:54Z</time></trkpt><trkpt lat="43.18012467012974" lon="10.551187441552399"><ele>7.800000000000001</ele><time>2026-05-01T17:08:55Z</time></trkpt><trkpt lat="43.18014216132435" lon="10.551061040487326"><ele>8.0</ele><time>2026-05-01T17:08:56Z</time></trkpt><trkpt lat="43.18015416184152" lon="10.550944090567025"><ele>8.600000000000001</ele><time>2026-05-01T17:08:57Z</time></trkpt><trkpt lat="43.18017477080213" lon="10.55085436373202"><ele>9.200000000000001</ele><time>2026-05-01T17:08:58Z</time></trkpt><trkpt lat="43.180239042259856" lon="10.550726793492679"><ele>9.8</ele><time>2026-05-01T17:09:00Z</time></trkpt><trkpt lat="43.180363246023475" lon="10.55074643427165"><ele>10.4</ele><time>2026-05-01T17:09:01Z</time></trkpt><trkpt lat="43.18046867263817" lon="10.550729300923189"><ele>11.0</ele><time>2026-05-01T17:09:02Z</time></trkpt><trkpt lat="43.18058376278586" lon="10.550696983833493"><ele>10.0</ele><time>2026-05-01T17:09:03Z</time></trkpt><trkpt lat="43.18068675330701" lon="10.550688381949515"><ele>9.0</ele><time>2026-05-01T17:09:04Z</time></trkpt><trkpt lat="43.180780714095086" lon="10.550657322324165"><ele>8.0</ele><time>2026-05-01T17:09:05Z</time></trkpt><trkpt lat="43.180878154160865" lon="10.55066856770073"><ele>7.0</ele><time>2026-05-01T17:09:06Z</time></trkpt><trkpt lat="43.18096060404582" lon="10.550642697024118"><ele>6.0</ele><time>2026-05-01T17:09:07Z</time></trkpt><trkpt lat="43.18104188196657" lon="10.550620593264942"><ele>6.0</ele><time>2026-05-01T17:09:08Z</time></trkpt><trkpt lat="43.18111402309739" lon="10.550605700622448"><ele>6.0</ele><time>2026-05-01T17:09:09Z</time></trkpt><trkpt lat="43.18121804547896" lon="10.550606807917916"><ele>6.0</ele><time>2026-05-01T17:09:11Z</time></trkpt><trkpt lat="43.1812829890167" lon="10.550625525833935"><ele>6.0</ele><time>2026-05-01T17:09:12Z</time></trkpt><trkpt lat="43.18134739986371" lon="10.5506621957904"><ele>6.0</ele><time>2026-05-01T17:09:13Z</time></trkpt><trkpt lat="43.18141854871696" lon="10.55073070069633"><ele>6.0</ele><time>2026-05-01T17:09:14Z</time></trkpt><trkpt lat="43.181491298679674" lon="10.550806225692998"><ele>5.6</ele><time>2026-05-01T17:09:15Z</time></trkpt><trkpt lat="43.181557695986264" lon="10.550874029260264"><ele>5.199999999999999</ele><time>2026-05-01T17:09:16Z</time></trkpt><trkpt lat="43.1816294289044" lon="10.550946944329924"><ele>4.800000000000001</ele><time>2026-05-01T17:09:17Z</time></trkpt><trkpt lat="43.181708152674894" lon="10.551030492112767"><ele>4.4</ele><time>2026-05-01T17:09:18Z</time></trkpt><trkpt lat="43.18179010982952" lon="10.551115343326378"><ele>4.0</ele><time>2026-05-01T17:09:19Z</time></trkpt><trkpt lat="43.181875669438554" lon="10.551201664910652"><ele>3.6</ele><time>2026-05-01T17:09:20Z</time></trkpt><trkpt lat="43.18195763093016" lon="10.551285563727072"><ele>3.2</ele><time>2026-05-01T17:09:21Z</time></trkpt><trkpt lat="43.18204357359874" lon="10.551368597935866"><ele>2.8000000000000003</ele><time>2026-05-01T17:09:22Z</time></trkpt><trkpt lat="43.18212461277653" lon="10.551450559756915"><ele>2.4000000000000004</ele><time>2026-05-01T17:09:23Z</time></trkpt><trkpt lat="43.18220543233604" lon="10.551532543864319"><ele>2.0</ele><time>2026-05-01T17:09:24Z</time></trkpt><trkpt lat="43.18228605518804" lon="10.551620516138112"><ele>1.8</ele><time>2026-05-01T17:09:25Z</time></trkpt><trkpt lat="43.18237267311932" lon="10.551714081568914"><ele>1.6</ele><time>2026-05-01T17:09:26Z</time></trkpt><trkpt lat="43.182459345392964" lon="10.551813300586694"><ele>1.4000000000000001</ele><time>2026-05-01T17:09:27Z</time></trkpt><trkpt lat="43.182535074902546" lon="10.551893191579195"><ele>1.2000000000000002</ele><time>2026-05-01T17:09:28Z</time></trkpt><trkpt lat="43.182610254392216" lon="10.551974542015321"><ele>1.0</ele><time>2026-05-01T17:09:29Z</time></trkpt><trkpt lat="43.182688820496885" lon="10.552050628262862"><ele>1.3333333333333333</ele><time>2026-05-01T17:09:30Z</time></trkpt><trkpt lat="43.18276388706554" lon="10.55212305448916"><ele>1.6666666666666665</ele><time>2026-05-01T17:09:31Z</time></trkpt><trkpt lat="43.18282929705746" lon="10.55219543838797"><ele>2.0</ele><time>2026-05-01T17:09:32Z</time></trkpt><trkpt lat="43.18288737397661" lon="10.552264330663874"><ele>2.3333333333333335</ele><time>2026-05-01T17:09:33Z</time></trkpt><trkpt lat="43.18294066616838" lon="10.552327122972924"><ele>2.6666666666666665</ele><time>2026-05-01T17:09:34Z</time></trkpt><trkpt lat="43.182992802511116" lon="10.552376492020825"><ele>3.0</ele><time>2026-05-01T17:09:35Z</time></trkpt><trkpt lat="43.18308254282275" lon="10.552412568501788"><ele>3.0</ele><time>2026-05-01T17:09:37Z</time></trkpt><trkpt lat="43.18317855956022" lon="10.55227609645498"><ele>3.0</ele><time>2026-05-01T17:09:39Z</time></trkpt><trkpt lat="43.18323708718824" lon="10.552158517819073"><ele>3.0</ele><time>2026-05-01T17:09:40Z</time></trkpt><trkpt lat="43.183310079887114" lon="10.552045256742138"><ele>3.0</ele><time>2026-05-01T17:09:41Z</time></trkpt><trkpt lat="43.18339004030159" lon="10.551927971216797"><ele>3.0</ele><time>2026-05-01T17:09:42Z</time></trkpt><trkpt lat="43.18345908971922" lon="10.551818835397851"><ele>3.0</ele><time>2026-05-01T17:09:43Z</time></trkpt><trkpt lat="43.18352393051621" lon="10.551726419494965"><ele>3.0</ele><time>2026-05-01T17:09:44Z</time></trkpt><trkpt lat="43.183580637813314" lon="10.551636451603343"><ele>3.0</ele><time>2026-05-01T17:09:45Z</time></trkpt><trkpt lat="43.183635502654155" lon="10.551555033449603"><ele>3.0</ele><time>2026-05-01T17:09:46Z</time></trkpt><trkpt lat="43.183689424731746" lon="10.551483940977747"><ele>3.0</ele><time>2026-05-01T17:09:47Z</time></trkpt><trkpt lat="43.18374574770676" lon="10.551402681099868"><ele>3.0</ele><time>2026-05-01T17:09:48Z</time></trkpt><trkpt lat="43.18380667424112" lon="10.551303713085765"><ele>3.0</ele><time>2026-05-01T17:09:49Z</time></trkpt><trkpt lat="43.18387479965451" lon="10.551186971159858"><ele>3.0</ele><time>2026-05-01T17:09:50Z</time></trkpt><trkpt lat="43.18395822565011" lon="10.551063351658247"><ele>3.0</ele><time>2026-05-01T17:09:51Z</time></trkpt><trkpt lat="43.18404288306432" lon="10.550946837527999"><ele>3.0</ele><time>2026-05-01T17:09:52Z</time></trkpt><trkpt lat="43.18411996605001" lon="10.55081822039904"><ele>2.75</ele><time>2026-05-01T17:09:53Z</time></trkpt><trkpt lat="43.184206213322135" lon="10.550696382563496"><ele>2.5</ele><time>2026-05-01T17:09:54Z</time></trkpt><trkpt lat="43.18429053133594" lon="10.550565352002916"><ele>2.25</ele><time>2026-05-01T17:09:55Z</time></trkpt><trkpt lat="43.18437730344068" lon="10.550431347522634"><ele>2.0</ele><time>2026-05-01T17:09:56Z</time></trkpt><trkpt lat="43.184470475139996" lon="10.550291257707142"><ele>1.75</ele><time>2026-05-01T17:09:57Z</time></trkpt><trkpt lat="43.18455936823904" lon="10.550155295823183"><ele>1.5</ele><time>2026-05-01T17:09:58Z</time></trkpt><trkpt lat="43.18464990586429" lon="10.550017092872874"><ele>1.25</ele><time>2026-05-01T17:09:59Z</time></trkpt><trkpt lat="43.184741007839015" lon="10.54988267492362"><ele>1.0</ele><time>2026-05-01T17:10:00Z</time></trkpt><trkpt lat="43.18482657703821" lon="10.549746665501164"><ele>1.0</ele><time>2026-05-01T17:10:01Z</time></trkpt><trkpt lat="43.1849153203102" lon="10.54960534849122"><ele>1.0</ele><time>2026-05-01T17:10:02Z</time></trkpt><trkpt lat="43.185002714302115" lon="10.54947465692626"><ele>1.0</ele><time>2026-05-01T17:10:03Z</time></trkpt><trkpt lat="43.18509274206271" lon="10.549343796004118"><ele>1.0</ele><time>2026-05-01T17:10:04Z</time></trkpt><trkpt lat="43.18518322454204" lon="10.549205939244537"><ele>1.0</ele><time>2026-05-01T17:10:05Z</time></trkpt><trkpt lat="43.18526970556876" lon="10.549069008070713"><ele>1.0</ele><time>2026-05-01T17:10:06Z</time></trkpt><trkpt lat="43.18536211714298" lon="10.548932635239197"><ele>1.0</ele><time>2026-05-01T17:10:07Z</time></trkpt><trkpt lat="43.18545436156199" lon="10.548799888441652"><ele>1.0</ele><time>2026-05-01T17:10:08Z</time></trkpt><trkpt lat="43.185547019134255" lon="10.54866320094594"><ele>0.75</ele><time>2026-05-01T17:10:09Z</time></trkpt><trkpt lat="43.185637000059934" lon="10.548517188585775"><ele>0.5</ele><time>2026-05-01T17:10:10Z</time></trkpt><trkpt lat="43.185727776764864" lon="10.548372813490628"><ele>0.25</ele><time>2026-05-01T17:10:11Z</time></trkpt><trkpt lat="43.18582151374328" lon="10.548230272809958"><ele>0.0</ele><time>2026-05-01T17:10:12Z</time></trkpt><trkpt lat="43.18591262360138" lon="10.548098858632564"><ele>0.0</ele><time>2026-05-01T17:10:13Z</time></trkpt><trkpt lat="43.18598002833215" lon="10.547995943128575"><ele>0.0</ele><time>2026-05-01T17:10:14Z</time></trkpt><trkpt lat="43.18605366446974" lon="10.54788998581052"><ele>0.0</ele><time>2026-05-01T17:10:15Z</time></trkpt><trkpt lat="43.18612181075336" lon="10.547786578442649"><ele>0.0</ele><time>2026-05-01T17:10:16Z</time></trkpt><trkpt lat="43.18617085812556" lon="10.547708729942771"><ele>0.0</ele><time>2026-05-01T17:10:17Z</time></trkpt><trkpt lat="43.18623474761493" lon="10.547613329406738"><ele>0.0</ele><time>2026-05-01T17:10:19Z</time></trkpt><trkpt lat="43.18623529455849" lon="10.547473283743948"><ele>0.0</ele><time>2026-05-01T17:10:23Z</time></trkpt><trkpt lat="43.186160655060085" lon="10.547398128700697"><ele>0.0</ele><time>2026-05-01T17:10:24Z</time></trkpt><trkpt lat="43.18610657329693" lon="10.547325949273631"><ele>0.0</ele><time>2026-05-01T17:10:25Z</time></trkpt><trkpt lat="43.186061254751955" lon="10.547216156588668"><ele>0.0</ele><time>2026-05-01T17:10:26Z</time></trkpt><trkpt lat="43.185982866512184" lon="10.547129072899825"><ele>0.0</ele><time>2026-05-01T17:10:27Z</time></trkpt><trkpt lat="43.18591626521238" lon="10.547034378033372"><ele>0.0</ele><time>2026-05-01T17:10:28Z</time></trkpt><trkpt lat="43.185849006011836" lon="10.546936078320774"><ele>0.0</ele><time>2026-05-01T17:10:29Z</time></trkpt><trkpt lat="43.18578492740176" lon="10.546834248661899"><ele>0.0</ele><time>2026-05-01T17:10:30Z</time></trkpt><trkpt lat="43.18571730035469" lon="10.546731648406691"><ele>0.0</ele><time>2026-05-01T17:10:31Z</time></trkpt><trkpt lat="43.18565075958698" lon="10.546638479176755"><ele>0.0</ele><time>2026-05-01T17:10:32Z</time></trkpt><trkpt lat="43.18558924782674" lon="10.546552232087857"><ele>0.0</ele><time>2026-05-01T17:10:33Z</time></trkpt><trkpt lat="43.185535167662145" lon="10.546463685705264"><ele>0.0</ele><time>2026-05-01T17:10:34Z</time></trkpt><trkpt lat="43.18547404803516" lon="10.546372698941099"><ele>0.0</ele><time>2026-05-01T17:10:35Z</time></trkpt><trkpt lat="43.185409632697684" lon="10.546287439706765"><ele>0.0</ele><time>2026-05-01T17:10:36Z</time></trkpt><trkpt lat="43.18535217249258" lon="10.546208065226075"><ele>0.0</ele><time>2026-05-01T17:10:37Z</time></trkpt><trkpt lat="43.185305634811115" lon="10.546137763859143"><ele>0.0</ele><time>2026-05-01T17:10:38Z</time></trkpt><trkpt lat="43.18526197998264" lon="10.546062512888126"><ele>0.0</ele><time>2026-05-01T17:10:39Z</time></trkpt><trkpt lat="43.18520863211753" lon="10.545983838362137"><ele>0.0</ele><time>2026-05-01T17:10:40Z</time></trkpt><trkpt lat="43.18514580623483" lon="10.545905130935179"><ele>0.0</ele><time>2026-05-01T17:10:41Z</time></trkpt><trkpt lat="43.18508586205057" lon="10.545821510182336"><ele>0.0</ele><time>2026-05-01T17:10:42Z</time></trkpt><trkpt lat="43.185043113107426" lon="10.545741628573712"><ele>0.0</ele><time>2026-05-01T17:10:43Z</time></trkpt><trkpt lat="43.185038971182834" lon="10.54564322346814"><ele>0.0</ele><time>2026-05-01T17:10:44Z</time></trkpt><trkpt lat="43.18506726358791" lon="10.545549890623068"><ele>0.0</ele><time>2026-05-01T17:10:45Z</time></trkpt><trkpt lat="43.18512499941506" lon="10.545476665919967"><ele>0.0</ele><time>2026-05-01T17:10:46Z</time></trkpt><trkpt lat="43.18521587774107" lon="10.545421024161755"><ele>0.0</ele><time>2026-05-01T17:10:47Z</time></trkpt><trkpt lat="43.18531515688168" lon="10.545370102227183"><ele>0.0</ele><time>2026-05-01T17:10:48Z</time></trkpt><trkpt lat="43.18541134105047" lon="10.54530646640904"><ele>0.5</ele><time>2026-05-01T17:10:49Z</time></trkpt><trkpt lat="43.18549776592845" lon="10.545240318142456"><ele>1.0</ele><time>2026-05-01T17:10:50Z</time></trkpt><trkpt lat="43.185571143907346" lon="10.54518717800074"><ele>1.5</ele><time>2026-05-01T17:10:51Z</time></trkpt><trkpt lat="43.18564274247971" lon="10.545147405857014"><ele>2.0</ele><time>2026-05-01T17:10:52Z</time></trkpt><trkpt lat="43.185713953636316" lon="10.545108298077112"><ele>2.5</ele><time>2026-05-01T17:10:53Z</time></trkpt><trkpt lat="43.185788990020804" lon="10.545049322327044"><ele>3.0</ele><time>2026-05-01T17:10:54Z</time></trkpt><trkpt lat="43.185869782163095" lon="10.544999699198804"><ele>3.0</ele><time>2026-05-01T17:10:55Z</time></trkpt><trkpt lat="43.18595829803335" lon="10.544937746708474"><ele>3.0</ele><time>2026-05-01T17:10:56Z</time></trkpt><trkpt lat="43.18604454388338" lon="10.54487690041432"><ele>3.0</ele><time>2026-05-01T17:10:57Z</time></trkpt><trkpt lat="43.1861340189419" lon="10.544816648676445"><ele>3.0</ele><time>2026-05-01T17:10:58Z</time></trkpt><trkpt lat="43.1862261114799" lon="10.544753203362673"><ele>3.0</ele><time>2026-05-01T17:10:59Z</time></trkpt><trkpt lat="43.186324060912774" lon="10.544681960331827"><ele>3.0</ele><time>2026-05-01T17:11:00Z</time></trkpt><trkpt lat="43.18642398485915" lon="10.544609096534789"><ele>3.0</ele><time>2026-05-01T17:11:01Z</time></trkpt><trkpt lat="43.18651898088223" lon="10.544546562391133"><ele>3.0</ele><time>2026-05-01T17:11:02Z</time></trkpt><trkpt lat="43.186612029839495" lon="10.544483284857831"><ele>3.0</ele><time>2026-05-01T17:11:03Z</time></trkpt><trkpt lat="43.18671206684677" lon="10.544412006548646"><ele>3.0</ele><time>2026-05-01T17:11:04Z</time></trkpt><trkpt lat="43.18680250062322" lon="10.544357197956817"><ele>2.8333333333333335</ele><time>2026-05-01T17:11:05Z</time></trkpt><trkpt lat="43.186886333750145" lon="10.54430277824407"><ele>2.6666666666666665</ele><time>2026-05-01T17:11:06Z</time></trkpt><trkpt lat="43.1869641447303" lon="10.54424232577864"><ele>2.5</ele><time>2026-05-01T17:11:07Z</time></trkpt><trkpt lat="43.18703339768176" lon="10.544184523768243"><ele>2.333333333333333</ele><time>2026-05-01T17:11:08Z</time></trkpt><trkpt lat="43.18709384201897" lon="10.544134056868524"><ele>2.1666666666666665</ele><time>2026-05-01T17:11:09Z</time></trkpt><trkpt lat="43.187126763940114" lon="10.544056565060483"><ele>2.0</ele><time>2026-05-01T17:11:10Z</time></trkpt><trkpt lat="43.18714409994231" lon="10.543972755299336"><ele>2.0</ele><time>2026-05-01T17:11:11Z</time></trkpt><trkpt lat="43.187140827769554" lon="10.543857666833484"><ele>2.0</ele><time>2026-05-01T17:11:12Z</time></trkpt><trkpt lat="43.18711332005135" lon="10.54374375430186"><ele>2.0</ele><time>2026-05-01T17:11:13Z</time></trkpt><trkpt lat="43.187069934175184" lon="10.543641602810041"><ele>2.0</ele><time>2026-05-01T17:11:14Z</time></trkpt><trkpt lat="43.1870272233169" lon="10.543523698452008"><ele>2.0</ele><time>2026-05-01T17:11:15Z</time></trkpt><trkpt lat="43.187000293366324" lon="10.543392940413517"><ele>2.6</ele><time>2026-05-01T17:11:16Z</time></trkpt><trkpt lat="43.186983949231276" lon="10.543254387731112"><ele>3.2</ele><time>2026-05-01T17:11:17Z</time></trkpt><trkpt lat="43.18697503129077" lon="10.543116017255555"><ele>3.8</ele><time>2026-05-01T17:11:18Z</time></trkpt><trkpt lat="43.18695773197792" lon="10.542980728717144"><ele>4.4</ele><time>2026-05-01T17:11:19Z</time></trkpt><trkpt lat="43.18694712411142" lon="10.542863752796727"><ele>5.0</ele><time>2026-05-01T17:11:20Z</time></trkpt><trkpt lat="43.18689698256649" lon="10.542762858530295"><ele>5.833333333333334</ele><time>2026-05-01T17:11:21Z</time></trkpt><trkpt lat="43.186844956899364" lon="10.542670443938146"><ele>6.666666666666667</ele><time>2026-05-01T17:11:22Z</time></trkpt><trkpt lat="43.1868290935716" lon="10.542565718046504"><ele>7.5</ele><time>2026-05-01T17:11:23Z</time></trkpt><trkpt lat="43.18682731964929" lon="10.542450180523522"><ele>8.333333333333334</ele><time>2026-05-01T17:11:24Z</time></trkpt><trkpt lat="43.18682941458963" lon="10.542354341845366"><ele>9.166666666666668</ele><time>2026-05-01T17:11:25Z</time></trkpt><trkpt lat="43.18684511584158" lon="10.542266572098663"><ele>10.0</ele><time>2026-05-01T17:11:26Z</time></trkpt><trkpt lat="43.18691983057172" lon="10.54216573249322"><ele>10.0</ele><time>2026-05-01T17:11:28Z</time></trkpt><trkpt lat="43.18701892662034" lon="10.542098259936303"><ele>10.0</ele><time>2026-05-01T17:11:30Z</time></trkpt><trkpt lat="43.18709971972803" lon="10.541988779585196"><ele>10.0</ele><time>2026-05-01T17:11:32Z</time></trkpt><trkpt lat="43.18715696494958" lon="10.541920904917356"><ele>10.0</ele><time>2026-05-01T17:11:34Z</time></trkpt><trkpt lat="43.18722730331413" lon="10.541857492374506"><ele>10.0</ele><time>2026-05-01T17:11:36Z</time></trkpt><trkpt lat="43.187309107308764" lon="10.541741489370729"><ele>10.666666666666668</ele><time>2026-05-01T17:11:39Z</time></trkpt><trkpt lat="43.187390921936434" lon="10.54168173512466"><ele>11.333333333333334</ele><time>2026-05-01T17:11:40Z</time></trkpt><trkpt lat="43.18747895086235" lon="10.54164907502983"><ele>12.0</ele><time>2026-05-01T17:11:41Z</time></trkpt><trkpt lat="43.18754313454974" lon="10.541644677946362"><ele>12.666666666666668</ele><time>2026-05-01T17:11:42Z</time></trkpt><trkpt lat="43.187646933419366" lon="10.54164834552462"><ele>13.333333333333334</ele><time>2026-05-01T17:11:44Z</time></trkpt><trkpt lat="43.18772194965006" lon="10.541630825189182"><ele>14.0</ele><time>2026-05-01T17:11:46Z</time></trkpt><trkpt lat="43.18783407857791" lon="10.541614767677354"><ele>14.0</ele><time>2026-05-01T17:11:49Z</time></trkpt><trkpt lat="43.18794145595815" lon="10.541570932206485"><ele>13.999999999999998</ele><time>2026-05-01T17:11:51Z</time></trkpt><trkpt lat="43.18804180752624" lon="10.541529722401023"><ele>13.999999999999998</ele><time>2026-05-01T17:11:53Z</time></trkpt><trkpt lat="43.18811120607708" lon="10.541438241583794"><ele>14.0</ele><time>2026-05-01T17:11:55Z</time></trkpt><trkpt lat="43.188199956227336" lon="10.541349594434108"><ele>14.0</ele><time>2026-05-01T17:11:57Z</time></trkpt><trkpt lat="43.18824081629658" lon="10.541274798103156"><ele>13.6</ele><time>2026-05-01T17:11:59Z</time></trkpt><trkpt lat="43.18824403479484" lon="10.541173407807186"><ele>13.2</ele><time>2026-05-01T17:12:02Z</time></trkpt><trkpt lat="43.188323953089565" lon="10.541104882835969"><ele>12.799999999999999</ele><time>2026-05-01T17:12:05Z</time></trkpt><trkpt lat="43.18843377769738" lon="10.541029223976484"><ele>12.399999999999999</ele><time>2026-05-01T17:12:07Z</time></trkpt><trkpt lat="43.18853491212245" lon="10.540968519939774"><ele>12.0</ele><time>2026-05-01T17:12:09Z</time></trkpt><trkpt lat="43.188616952109825" lon="10.540955455468424"><ele>12.0</ele><time>2026-05-01T17:12:11Z</time></trkpt><trkpt lat="43.18870576555102" lon="10.540990138363263"><ele>12.0</ele><time>2026-05-01T17:12:13Z</time></trkpt><trkpt lat="43.1887849294164" lon="10.541014756954521"><ele>12.0</ele><time>2026-05-01T17:12:15Z</time></trkpt><trkpt lat="43.188882170136246" lon="10.541028532268472"><ele>12.0</ele><time>2026-05-01T17:12:18Z</time></trkpt><trkpt lat="43.18891411217299" lon="10.540894553807453"><ele>12.0</ele><time>2026-05-01T17:12:20Z</time></trkpt><trkpt lat="43.18894546781013" lon="10.540780054993771"><ele>12.0</ele><time>2026-05-01T17:12:22Z</time></trkpt><trkpt lat="43.18896346182959" lon="10.540668223660962"><ele>12.0</ele><time>2026-05-01T17:12:24Z</time></trkpt><trkpt lat="43.18898206172197" lon="10.540511755810503"><ele>12.0</ele><time>2026-05-01T17:12:26Z</time></trkpt><trkpt lat="43.188990997623485" lon="10.54039301291621"><ele>12.0</ele><time>2026-05-01T17:12:28Z</time></trkpt><trkpt lat="43.189012745053915" lon="10.540270919095027"><ele>12.0</ele><time>2026-05-01T17:12:30Z</time></trkpt><trkpt lat="43.18905403557895" lon="10.54015811140674"><ele>11.833333333333334</ele><time>2026-05-01T17:12:32Z</time></trkpt><trkpt lat="43.1890748271533" lon="10.540043177494725"><ele>11.666666666666666</ele><time>2026-05-01T17:12:34Z</time></trkpt><trkpt lat="43.18909008843692" lon="10.539893437623773"><ele>11.5</ele><time>2026-05-01T17:12:36Z</time></trkpt><trkpt lat="43.18903591764457" lon="10.539828762789377"><ele>11.333333333333332</ele><time>2026-05-01T17:12:37Z</time></trkpt><trkpt lat="43.18898471080196" lon="10.539754758501955"><ele>11.166666666666666</ele><time>2026-05-01T17:12:39Z</time></trkpt><trkpt lat="43.1889576039448" lon="10.539626815192188"><ele>11.0</ele><time>2026-05-01T17:12:41Z</time></trkpt><trkpt lat="43.18895340334942" lon="10.539504074002952"><ele>10.200000000000001</ele><time>2026-05-01T17:12:43Z</time></trkpt><trkpt lat="43.188982544319664" lon="10.539359472984481"><ele>9.4</ele><time>2026-05-01T17:12:45Z</time></trkpt><trkpt lat="43.188992310719655" lon="10.539267578858443"><ele>8.6</ele><time>2026-05-01T17:12:46Z</time></trkpt><trkpt lat="43.188973607497054" lon="10.539116500694394"><ele>7.8</ele><time>2026-05-01T17:12:48Z</time></trkpt><trkpt lat="43.188911473958704" lon="10.539019352912304"><ele>7.0</ele><time>2026-05-01T17:12:50Z</time></trkpt><trkpt lat="43.18886253841552" lon="10.53892890976539"><ele>7.000000000000001</ele><time>2026-05-01T17:12:52Z</time></trkpt><trkpt lat="43.188829088478755" lon="10.538848602149866"><ele>7.0</ele><time>2026-05-01T17:12:53Z</time></trkpt><trkpt lat="43.188823196811924" lon="10.538742448336539"><ele>7.0</ele><time>2026-05-01T17:12:54Z</time></trkpt><trkpt lat="43.188773951664174" lon="10.538598601150992"><ele>7.0</ele><time>2026-05-01T17:12:56Z</time></trkpt><trkpt lat="43.18872625367155" lon="10.53848241620337"><ele>7.000000000000001</ele><time>2026-05-01T17:12:58Z</time></trkpt><trkpt lat="43.18869525233291" lon="10.538403546001293"><ele>7.0</ele><time>2026-05-01T17:13:00Z</time></trkpt><trkpt lat="43.18863700074111" lon="10.538364178194678"><ele>6.0</ele><time>2026-05-01T17:15:27Z</time></trkpt><trkpt lat="43.188561490557206" lon="10.538338252298715"><ele>6.0</ele><time>2026-05-01T17:15:32Z</time></trkpt><trkpt lat="43.188543465842145" lon="10.538236581076323"><ele>6.0</ele><time>2026-05-01T17:15:36Z</time></trkpt><trkpt lat="43.188543465842145" lon="10.538236581076323"><ele>6.0</ele><time>2026-05-01T17:15:36Z</time></trkpt><trkpt lat="43.188543465842145" lon="10.538236581076323"><ele>6.0</ele><time>2026-05-01T17:15:36Z</time></trkpt><trkpt lat="43.188543465842145" lon="10.538236581076323"><ele>6.0</ele><time>2026-05-01T17:15:36Z</time></trkpt><trkpt lat="43.188543465842145" lon="10.538236581076323"><ele>6.0</ele><time>2026-05-01T17:15:36Z</time></trkpt><trkpt lat="43.188543465842145" lon="10.538236581076323"><ele>6.0</ele><time>2026-05-01T17:15:36Z</time></trkpt><trkpt lat="43.188543465842145" lon="10.538236581076323"><ele>6.0</ele><time>2026-05-01T17:15:36Z</time></trkpt><trkpt lat="43.188543465842145" lon="10.538236581076323"><ele>6.0</ele><time>2026-05-01T17:15:36Z</time></trkpt><trkpt lat="43.188543465842145" lon="10.538236581076323"><ele>6.0</ele><time>2026-05-01T17:15:36Z</time></trkpt><trkpt lat="43.188543465842145" lon="10.538236581076323"><ele>6.0</ele><time>2026-05-01T17:15:36Z</time></trkpt><trkpt lat="43.188543465842145" lon="10.538236581076323"><ele>6.0</ele><time>2026-05-01T17:15:36Z</time></trkpt><trkpt lat="43.188543465842145" lon="10.538236581076323"><ele>6.0</ele><time>2026-05-01T17:15:36Z</time></trkpt><trkpt lat="43.188543465842145" lon="10.538236581076323"><ele>6.0</ele><time>2026-05-01T17:15:36Z</time></trkpt><trkpt lat="43.188543465842145" lon="10.538236581076323"><ele>6.0</ele><time>2026-05-01T17:15:36Z</time></trkpt><trkpt lat="43.188543465842145" lon="10.538236581076323"><ele>6.0</ele><time>2026-05-01T17:15:36Z</time></trkpt></trkseg></trk></gpx>